<?xml version="1.0"?>
<gpx
 version="1.1"
 creator="Satmap Active 20"
 xmlns:xsi="http://www.w3.org/2001/XMLSchema-instance"
 xmlns="http://www.topografix.com/GPX/1/1"
 xmlns:satmap="http://www.satmap.com/updates/xmlschemas/GpxExtensions/v2/GpxExtensions_v2.xsd"
 xsi:schemaLocation="http://www.topografix.com/GPX/1/1 http://www.topografix.com/GPX/1/1/gpx.xsd">
<metadata>
<time>2020-01-18T09:35:04Z</time>
<extensions>
<satmap:platform>43</satmap:platform>
<satmap:software version="3.12.831">SM15.exe</satmap:software>
<satmap:username>Jim Grant</satmap:username>
<satmap:network_ids>
<satmap:network_id type="wifi">00-23-A7-EC-D5-78</satmap:network_id>
<satmap:network_id type="bluetooth">80-BB-EB-D7-5B-7C</satmap:network_id>
</satmap:network_ids>
<satmap:snap_type>simple</satmap:snap_type>
</extensions>
</metadata>
<trk>
<name>2020-01-18_0935</name>
<desc>Track 1</desc>
<number>1</number>
<trkseg>
<trkpt lat="52.853841" lon="-3.373371"><ele>268</ele><time>2020-01-18T09:35:04Z</time><name>PT1</name></trkpt>
<trkpt lat="52.853847" lon="-3.373384"><ele>271</ele><time>2020-01-18T09:35:16Z</time><name>PT2</name></trkpt>
<trkpt lat="52.853854" lon="-3.373401"><ele>272</ele><time>2020-01-18T09:35:17Z</time><name>PT3</name></trkpt>
<trkpt lat="52.853858" lon="-3.373410"><ele>273</ele><time>2020-01-18T09:35:17Z</time><name>PT4</name></trkpt>
<trkpt lat="52.853860" lon="-3.373411"><ele>273</ele><time>2020-01-18T09:35:19Z</time><name>PT5</name></trkpt>
<trkpt lat="52.853864" lon="-3.373415"><ele>272</ele><time>2020-01-18T09:35:20Z</time><name>PT6</name></trkpt>
<trkpt lat="52.853863" lon="-3.373412"><ele>272</ele><time>2020-01-18T09:35:20Z</time><name>PT7</name></trkpt>
<trkpt lat="52.853862" lon="-3.373411"><ele>272</ele><time>2020-01-18T09:35:22Z</time><name>PT8</name></trkpt>
<trkpt lat="52.853864" lon="-3.373403"><ele>273</ele><time>2020-01-18T09:35:23Z</time><name>PT9</name></trkpt>
<trkpt lat="52.853859" lon="-3.373411"><ele>274</ele><time>2020-01-18T09:35:24Z</time><name>PT10</name></trkpt>
<trkpt lat="52.853856" lon="-3.373411"><ele>274</ele><time>2020-01-18T09:35:25Z</time><name>PT11</name></trkpt>
<trkpt lat="52.853852" lon="-3.373398"><ele>274</ele><time>2020-01-18T09:35:26Z</time><name>PT12</name></trkpt>
<trkpt lat="52.853847" lon="-3.373398"><ele>274</ele><time>2020-01-18T09:35:26Z</time><name>PT13</name></trkpt>
<trkpt lat="52.853848" lon="-3.373395"><ele>275</ele><time>2020-01-18T09:35:28Z</time><name>PT14</name></trkpt>
<trkpt lat="52.853849" lon="-3.373396"><ele>276</ele><time>2020-01-18T09:35:29Z</time><name>PT15</name></trkpt>
<trkpt lat="52.853854" lon="-3.373378"><ele>276</ele><time>2020-01-18T09:35:34Z</time><name>PT16</name></trkpt>
<trkpt lat="52.853860" lon="-3.373378"><ele>276</ele><time>2020-01-18T09:35:35Z</time><name>PT17</name></trkpt>
<trkpt lat="52.853862" lon="-3.373378"><ele>276</ele><time>2020-01-18T09:35:35Z</time><name>PT18</name></trkpt>
<trkpt lat="52.853860" lon="-3.373381"><ele>276</ele><time>2020-01-18T09:35:37Z</time><name>PT19</name></trkpt>
<trkpt lat="52.853862" lon="-3.373392"><ele>276</ele><time>2020-01-18T09:35:38Z</time><name>PT20</name></trkpt>
<trkpt lat="52.853861" lon="-3.373391"><ele>277</ele><time>2020-01-18T09:35:38Z</time><name>PT21</name></trkpt>
<trkpt lat="52.853864" lon="-3.373385"><ele>276</ele><time>2020-01-18T09:35:41Z</time><name>PT22</name></trkpt>
<trkpt lat="52.853867" lon="-3.373395"><ele>277</ele><time>2020-01-18T09:35:43Z</time><name>PT23</name></trkpt>
<trkpt lat="52.853866" lon="-3.373402"><ele>278</ele><time>2020-01-18T09:35:44Z</time><name>PT24</name></trkpt>
<trkpt lat="52.853865" lon="-3.373398"><ele>278</ele><time>2020-01-18T09:35:44Z</time><name>PT25</name></trkpt>
<trkpt lat="52.853869" lon="-3.373393"><ele>281</ele><time>2020-01-18T09:36:07Z</time><name>PT26</name></trkpt>
<trkpt lat="52.853875" lon="-3.373387"><ele>282</ele><time>2020-01-18T09:36:08Z</time><name>PT27</name></trkpt>
<trkpt lat="52.853879" lon="-3.373376"><ele>282</ele><time>2020-01-18T09:36:13Z</time><name>PT28</name></trkpt>
<trkpt lat="52.853878" lon="-3.373370"><ele>282</ele><time>2020-01-18T09:36:14Z</time><name>PT29</name></trkpt>
<trkpt lat="52.853881" lon="-3.373366"><ele>283</ele><time>2020-01-18T09:36:15Z</time><name>PT30</name></trkpt>
<trkpt lat="52.853881" lon="-3.373376"><ele>283</ele><time>2020-01-18T09:36:16Z</time><name>PT31</name></trkpt>
<trkpt lat="52.853879" lon="-3.373376"><ele>283</ele><time>2020-01-18T09:36:17Z</time><name>PT32</name></trkpt>
<trkpt lat="52.853874" lon="-3.373365"><ele>283</ele><time>2020-01-18T09:36:18Z</time><name>PT33</name></trkpt>
<trkpt lat="52.853865" lon="-3.373356"><ele>283</ele><time>2020-01-18T09:36:19Z</time><name>PT34</name></trkpt>
<trkpt lat="52.853867" lon="-3.373351"><ele>284</ele><time>2020-01-18T09:36:48Z</time><name>PT35</name></trkpt>
<trkpt lat="52.853872" lon="-3.373355"><ele>284</ele><time>2020-01-18T09:36:49Z</time><name>PT36</name></trkpt>
<trkpt lat="52.853873" lon="-3.373371"><ele>284</ele><time>2020-01-18T09:36:50Z</time><name>PT37</name></trkpt>
<trkpt lat="52.853872" lon="-3.373374"><ele>284</ele><time>2020-01-18T09:36:51Z</time><name>PT38</name></trkpt>
<trkpt lat="52.853876" lon="-3.373383"><ele>285</ele><time>2020-01-18T09:36:52Z</time><name>PT39</name></trkpt>
<trkpt lat="52.853876" lon="-3.373398"><ele>285</ele><time>2020-01-18T09:37:06Z</time><name>PT40</name></trkpt>
<trkpt lat="52.853874" lon="-3.373401"><ele>285</ele><time>2020-01-18T09:37:07Z</time><name>PT41</name></trkpt>
<trkpt lat="52.853869" lon="-3.373398"><ele>285</ele><time>2020-01-18T09:37:08Z</time><name>PT42</name></trkpt>
<trkpt lat="52.853860" lon="-3.373395"><ele>285</ele><time>2020-01-18T09:37:08Z</time><name>PT43</name></trkpt>
<trkpt lat="52.853862" lon="-3.373400"><ele>287</ele><time>2020-01-18T09:37:17Z</time><name>PT44</name></trkpt>
<trkpt lat="52.853860" lon="-3.373397"><ele>287</ele><time>2020-01-18T09:37:17Z</time><name>PT45</name></trkpt>
<trkpt lat="52.853859" lon="-3.373393"><ele>286</ele><time>2020-01-18T09:37:19Z</time><name>PT46</name></trkpt>
<trkpt lat="52.853860" lon="-3.373395"><ele>287</ele><time>2020-01-18T09:37:20Z</time><name>PT47</name></trkpt>
<trkpt lat="52.853860" lon="-3.373395"><ele>287</ele><time>2020-01-18T09:37:21Z</time><name>PT48</name></trkpt>
<trkpt lat="52.853860" lon="-3.373397"><ele>287</ele><time>2020-01-18T09:37:22Z</time><name>PT49</name></trkpt>
<trkpt lat="52.853859" lon="-3.373398"><ele>286</ele><time>2020-01-18T09:37:23Z</time><name>PT50</name></trkpt>
<trkpt lat="52.853860" lon="-3.373401"><ele>286</ele><time>2020-01-18T09:37:24Z</time><name>PT51</name></trkpt>
<trkpt lat="52.853867" lon="-3.373402"><ele>286</ele><time>2020-01-18T09:38:03Z</time><name>PT52</name></trkpt>
<trkpt lat="52.853866" lon="-3.373403"><ele>286</ele><time>2020-01-18T09:38:04Z</time><name>PT53</name></trkpt>
<trkpt lat="52.853867" lon="-3.373408"><ele>285</ele><time>2020-01-18T09:38:05Z</time><name>PT54</name></trkpt>
<trkpt lat="52.853871" lon="-3.373414"><ele>286</ele><time>2020-01-18T09:38:06Z</time><name>PT55</name></trkpt>
<trkpt lat="52.853871" lon="-3.373397"><ele>286</ele><time>2020-01-18T09:38:07Z</time><name>PT56</name></trkpt>
<trkpt lat="52.853869" lon="-3.373396"><ele>286</ele><time>2020-01-18T09:38:08Z</time><name>PT57</name></trkpt>
<trkpt lat="52.853871" lon="-3.373386"><ele>286</ele><time>2020-01-18T09:38:09Z</time><name>PT58</name></trkpt>
<trkpt lat="52.853869" lon="-3.373393"><ele>286</ele><time>2020-01-18T09:38:23Z</time><name>PT59</name></trkpt>
<trkpt lat="52.853870" lon="-3.373393"><ele>286</ele><time>2020-01-18T09:38:23Z</time><name>PT60</name></trkpt>
<trkpt lat="52.853870" lon="-3.373385"><ele>286</ele><time>2020-01-18T09:38:25Z</time><name>PT61</name></trkpt>
<trkpt lat="52.853870" lon="-3.373380"><ele>286</ele><time>2020-01-18T09:38:26Z</time><name>PT62</name></trkpt>
<trkpt lat="52.853868" lon="-3.373376"><ele>286</ele><time>2020-01-18T09:38:29Z</time><name>PT63</name></trkpt>
<trkpt lat="52.853869" lon="-3.373381"><ele>286</ele><time>2020-01-18T09:38:31Z</time><name>PT64</name></trkpt>
<trkpt lat="52.853870" lon="-3.373379"><ele>286</ele><time>2020-01-18T09:38:32Z</time><name>PT65</name></trkpt>
<trkpt lat="52.853871" lon="-3.373379"><ele>286</ele><time>2020-01-18T09:38:32Z</time><name>PT66</name></trkpt>
<trkpt lat="52.853877" lon="-3.373373"><ele>286</ele><time>2020-01-18T09:38:34Z</time><name>PT67</name></trkpt>
<trkpt lat="52.853875" lon="-3.373377"><ele>286</ele><time>2020-01-18T09:38:41Z</time><name>PT68</name></trkpt>
<trkpt lat="52.853873" lon="-3.373376"><ele>286</ele><time>2020-01-18T09:38:43Z</time><name>PT69</name></trkpt>
<trkpt lat="52.853873" lon="-3.373378"><ele>286</ele><time>2020-01-18T09:38:44Z</time><name>PT70</name></trkpt>
<trkpt lat="52.853874" lon="-3.373381"><ele>286</ele><time>2020-01-18T09:38:44Z</time><name>PT71</name></trkpt>
<trkpt lat="52.853872" lon="-3.373381"><ele>286</ele><time>2020-01-18T09:38:46Z</time><name>PT72</name></trkpt>
<trkpt lat="52.853870" lon="-3.373382"><ele>286</ele><time>2020-01-18T09:38:47Z</time><name>PT73</name></trkpt>
<trkpt lat="52.853875" lon="-3.373384"><ele>287</ele><time>2020-01-18T09:38:47Z</time><name>PT74</name></trkpt>
<trkpt lat="52.853876" lon="-3.373386"><ele>286</ele><time>2020-01-18T09:38:49Z</time><name>PT75</name></trkpt>
<trkpt lat="52.853874" lon="-3.373388"><ele>286</ele><time>2020-01-18T09:38:50Z</time><name>PT76</name></trkpt>
<trkpt lat="52.853876" lon="-3.373389"><ele>287</ele><time>2020-01-18T09:38:50Z</time><name>PT77</name></trkpt>
<trkpt lat="52.853875" lon="-3.373360"><ele>289</ele><time>2020-01-18T09:38:52Z</time><name>PT78</name></trkpt>
<trkpt lat="52.853878" lon="-3.373355"><ele>289</ele><time>2020-01-18T09:38:53Z</time><name>PT79</name></trkpt>
<trkpt lat="52.853879" lon="-3.373351"><ele>289</ele><time>2020-01-18T09:38:54Z</time><name>PT80</name></trkpt>
<trkpt lat="52.853878" lon="-3.373347"><ele>289</ele><time>2020-01-18T09:38:55Z</time><name>PT81</name></trkpt>
<trkpt lat="52.853879" lon="-3.373342"><ele>289</ele><time>2020-01-18T09:38:56Z</time><name>PT82</name></trkpt>
<trkpt lat="52.853884" lon="-3.373348"><ele>289</ele><time>2020-01-18T09:39:59Z</time><name>PT83</name></trkpt>
<trkpt lat="52.853888" lon="-3.373347"><ele>289</ele><time>2020-01-18T09:39:59Z</time><name>PT84</name></trkpt>
<trkpt lat="52.853884" lon="-3.373347"><ele>289</ele><time>2020-01-18T09:40:34Z</time><name>PT85</name></trkpt>
<trkpt lat="52.853886" lon="-3.373360"><ele>290</ele><time>2020-01-18T09:40:35Z</time><name>PT86</name></trkpt>
<trkpt lat="52.853887" lon="-3.373372"><ele>290</ele><time>2020-01-18T09:40:35Z</time><name>PT87</name></trkpt>
<trkpt lat="52.853884" lon="-3.373372"><ele>290</ele><time>2020-01-18T09:41:17Z</time><name>PT88</name></trkpt>
<trkpt lat="52.853876" lon="-3.373371"><ele>291</ele><time>2020-01-18T09:41:19Z</time><name>PT89</name></trkpt>
<trkpt lat="52.853866" lon="-3.373369"><ele>291</ele><time>2020-01-18T09:41:20Z</time><name>PT90</name></trkpt>
<trkpt lat="52.853851" lon="-3.373363"><ele>293</ele><time>2020-01-18T09:41:26Z</time><name>PT91</name></trkpt>
<trkpt lat="52.853846" lon="-3.373363"><ele>293</ele><time>2020-01-18T09:41:28Z</time><name>PT92</name></trkpt>
<trkpt lat="52.853840" lon="-3.373360"><ele>293</ele><time>2020-01-18T09:41:29Z</time><name>PT93</name></trkpt>
<trkpt lat="52.853844" lon="-3.373362"><ele>293</ele><time>2020-01-18T09:41:35Z</time><name>PT94</name></trkpt>
<trkpt lat="52.853848" lon="-3.373358"><ele>292</ele><time>2020-01-18T09:41:35Z</time><name>PT95</name></trkpt>
<trkpt lat="52.853850" lon="-3.373358"><ele>292</ele><time>2020-01-18T09:41:37Z</time><name>PT96</name></trkpt>
<trkpt lat="52.853853" lon="-3.373362"><ele>293</ele><time>2020-01-18T09:41:38Z</time><name>PT97</name></trkpt>
<trkpt lat="52.853858" lon="-3.373351"><ele>293</ele><time>2020-01-18T09:41:38Z</time><name>PT98</name></trkpt>
<trkpt lat="52.853865" lon="-3.373358"><ele>293</ele><time>2020-01-18T09:41:40Z</time><name>PT99</name></trkpt>
<trkpt lat="52.853870" lon="-3.373363"><ele>292</ele><time>2020-01-18T09:41:41Z</time><name>PT100</name></trkpt>
<trkpt lat="52.853874" lon="-3.373362"><ele>291</ele><time>2020-01-18T09:42:04Z</time><name>PT101</name></trkpt>
<trkpt lat="52.853875" lon="-3.373362"><ele>291</ele><time>2020-01-18T09:42:05Z</time><name>PT102</name></trkpt>
<trkpt lat="52.853877" lon="-3.373372"><ele>291</ele><time>2020-01-18T09:42:08Z</time><name>PT103</name></trkpt>
<trkpt lat="52.853876" lon="-3.373375"><ele>291</ele><time>2020-01-18T09:42:09Z</time><name>PT104</name></trkpt>
<trkpt lat="52.853881" lon="-3.373390"><ele>292</ele><time>2020-01-18T09:42:10Z</time><name>PT105</name></trkpt>
<trkpt lat="52.853882" lon="-3.373393"><ele>291</ele><time>2020-01-18T09:42:11Z</time><name>PT106</name></trkpt>
<trkpt lat="52.853885" lon="-3.373397"><ele>291</ele><time>2020-01-18T09:42:12Z</time><name>PT107</name></trkpt>
<trkpt lat="52.853887" lon="-3.373393"><ele>291</ele><time>2020-01-18T09:42:13Z</time><name>PT108</name></trkpt>
<trkpt lat="52.853887" lon="-3.373393"><ele>291</ele><time>2020-01-18T09:42:14Z</time><name>PT109</name></trkpt>
<trkpt lat="52.853893" lon="-3.373402"><ele>291</ele><time>2020-01-18T09:42:15Z</time><name>PT110</name></trkpt>
<trkpt lat="52.853892" lon="-3.373400"><ele>291</ele><time>2020-01-18T09:42:16Z</time><name>PT111</name></trkpt>
<trkpt lat="52.853893" lon="-3.373382"><ele>293</ele><time>2020-01-18T09:42:53Z</time><name>PT112</name></trkpt>
<trkpt lat="52.853891" lon="-3.373381"><ele>292</ele><time>2020-01-18T09:42:54Z</time><name>PT113</name></trkpt>
<trkpt lat="52.853891" lon="-3.373384"><ele>292</ele><time>2020-01-18T09:42:58Z</time><name>PT114</name></trkpt>
<trkpt lat="52.853890" lon="-3.373378"><ele>292</ele><time>2020-01-18T09:42:59Z</time><name>PT115</name></trkpt>
<trkpt lat="52.853890" lon="-3.373374"><ele>291</ele><time>2020-01-18T09:43:00Z</time><name>PT116</name></trkpt>
<trkpt lat="52.853891" lon="-3.373377"><ele>292</ele><time>2020-01-18T09:43:11Z</time><name>PT117</name></trkpt>
<trkpt lat="52.853889" lon="-3.373371"><ele>292</ele><time>2020-01-18T09:43:11Z</time><name>PT118</name></trkpt>
<trkpt lat="52.853887" lon="-3.373375"><ele>293</ele><time>2020-01-18T09:43:13Z</time><name>PT119</name></trkpt>
<trkpt lat="52.853884" lon="-3.373373"><ele>292</ele><time>2020-01-18T09:43:14Z</time><name>PT120</name></trkpt>
<trkpt lat="52.853885" lon="-3.373375"><ele>292</ele><time>2020-01-18T09:43:15Z</time><name>PT121</name></trkpt>
<trkpt lat="52.853886" lon="-3.373374"><ele>292</ele><time>2020-01-18T09:43:16Z</time><name>PT122</name></trkpt>
<trkpt lat="52.853889" lon="-3.373374"><ele>292</ele><time>2020-01-18T09:43:17Z</time><name>PT123</name></trkpt>
<trkpt lat="52.853892" lon="-3.373357"><ele>291</ele><time>2020-01-18T09:43:18Z</time><name>PT124</name></trkpt>
<trkpt lat="52.853893" lon="-3.373354"><ele>291</ele><time>2020-01-18T09:43:19Z</time><name>PT125</name></trkpt>
<trkpt lat="52.853893" lon="-3.373353"><ele>291</ele><time>2020-01-18T09:43:20Z</time><name>PT126</name></trkpt>
<trkpt lat="52.853893" lon="-3.373367"><ele>291</ele><time>2020-01-18T09:43:21Z</time><name>PT127</name></trkpt>
<trkpt lat="52.853895" lon="-3.373361"><ele>291</ele><time>2020-01-18T09:43:22Z</time><name>PT128</name></trkpt>
<trkpt lat="52.853896" lon="-3.373359"><ele>291</ele><time>2020-01-18T09:43:23Z</time><name>PT129</name></trkpt>
<trkpt lat="52.853898" lon="-3.373360"><ele>292</ele><time>2020-01-18T09:43:24Z</time><name>PT130</name></trkpt>
<trkpt lat="52.853901" lon="-3.373363"><ele>292</ele><time>2020-01-18T09:43:29Z</time><name>PT131</name></trkpt>
<trkpt lat="52.853905" lon="-3.373372"><ele>292</ele><time>2020-01-18T09:43:29Z</time><name>PT132</name></trkpt>
<trkpt lat="52.853906" lon="-3.373370"><ele>292</ele><time>2020-01-18T09:43:31Z</time><name>PT133</name></trkpt>
<trkpt lat="52.853907" lon="-3.373371"><ele>292</ele><time>2020-01-18T09:43:59Z</time><name>PT134</name></trkpt>
<trkpt lat="52.853907" lon="-3.373371"><ele>292</ele><time>2020-01-18T09:43:59Z</time><name>PT135</name></trkpt>
<trkpt lat="52.853907" lon="-3.373369"><ele>292</ele><time>2020-01-18T09:44:01Z</time><name>PT136</name></trkpt>
<trkpt lat="52.853906" lon="-3.373368"><ele>292</ele><time>2020-01-18T09:44:41Z</time><name>PT137</name></trkpt>
<trkpt lat="52.853904" lon="-3.373356"><ele>292</ele><time>2020-01-18T09:44:43Z</time><name>PT138</name></trkpt>
<trkpt lat="52.853903" lon="-3.373349"><ele>292</ele><time>2020-01-18T09:44:44Z</time><name>PT139</name></trkpt>
<trkpt lat="52.853905" lon="-3.373343"><ele>291</ele><time>2020-01-18T09:44:58Z</time><name>PT140</name></trkpt>
<trkpt lat="52.853909" lon="-3.373346"><ele>291</ele><time>2020-01-18T09:44:59Z</time><name>PT141</name></trkpt>
<trkpt lat="52.853911" lon="-3.373351"><ele>291</ele><time>2020-01-18T09:44:59Z</time><name>PT142</name></trkpt>
<trkpt lat="52.853913" lon="-3.373352"><ele>291</ele><time>2020-01-18T09:45:01Z</time><name>PT143</name></trkpt>
<trkpt lat="52.853914" lon="-3.373353"><ele>291</ele><time>2020-01-18T09:45:02Z</time><name>PT144</name></trkpt>
<trkpt lat="52.853914" lon="-3.373350"><ele>291</ele><time>2020-01-18T09:45:02Z</time><name>PT145</name></trkpt>
<trkpt lat="52.853918" lon="-3.373356"><ele>292</ele><time>2020-01-18T09:45:11Z</time><name>PT146</name></trkpt>
<trkpt lat="52.853920" lon="-3.373354"><ele>292</ele><time>2020-01-18T09:45:13Z</time><name>PT147</name></trkpt>
<trkpt lat="52.853923" lon="-3.373351"><ele>292</ele><time>2020-01-18T09:45:14Z</time><name>PT148</name></trkpt>
<trkpt lat="52.853926" lon="-3.373348"><ele>292</ele><time>2020-01-18T09:45:17Z</time><name>PT149</name></trkpt>
<trkpt lat="52.853926" lon="-3.373349"><ele>292</ele><time>2020-01-18T09:45:18Z</time><name>PT150</name></trkpt>
<trkpt lat="52.853929" lon="-3.373352"><ele>291</ele><time>2020-01-18T09:45:29Z</time><name>PT151</name></trkpt>
<trkpt lat="52.853927" lon="-3.373363"><ele>291</ele><time>2020-01-18T09:45:29Z</time><name>PT152</name></trkpt>
<trkpt lat="52.853919" lon="-3.373373"><ele>290</ele><time>2020-01-18T09:45:31Z</time><name>PT153</name></trkpt>
<trkpt lat="52.853916" lon="-3.373375"><ele>290</ele><time>2020-01-18T09:45:32Z</time><name>PT154</name></trkpt>
<trkpt lat="52.853917" lon="-3.373377"><ele>290</ele><time>2020-01-18T09:45:32Z</time><name>PT155</name></trkpt>
<trkpt lat="52.853913" lon="-3.373384"><ele>290</ele><time>2020-01-18T09:45:34Z</time><name>PT156</name></trkpt>
<trkpt lat="52.853906" lon="-3.373390"><ele>289</ele><time>2020-01-18T09:45:35Z</time><name>PT157</name></trkpt>
<trkpt lat="52.853913" lon="-3.373396"><ele>290</ele><time>2020-01-18T09:45:35Z</time><name>PT158</name></trkpt>
<trkpt lat="52.853924" lon="-3.373404"><ele>289</ele><time>2020-01-18T09:45:37Z</time><name>PT159</name></trkpt>
<trkpt lat="52.853925" lon="-3.373411"><ele>289</ele><time>2020-01-18T09:45:38Z</time><name>PT160</name></trkpt>
<trkpt lat="52.853920" lon="-3.373417"><ele>289</ele><time>2020-01-18T09:45:38Z</time><name>PT161</name></trkpt>
<trkpt lat="52.853916" lon="-3.373422"><ele>289</ele><time>2020-01-18T09:45:40Z</time><name>PT162</name></trkpt>
<trkpt lat="52.853919" lon="-3.373429"><ele>289</ele><time>2020-01-18T09:45:47Z</time><name>PT163</name></trkpt>
<trkpt lat="52.853917" lon="-3.373429"><ele>289</ele><time>2020-01-18T09:45:47Z</time><name>PT164</name></trkpt>
<trkpt lat="52.853910" lon="-3.373430"><ele>289</ele><time>2020-01-18T09:45:49Z</time><name>PT165</name></trkpt>
<trkpt lat="52.853904" lon="-3.373431"><ele>289</ele><time>2020-01-18T09:45:50Z</time><name>PT166</name></trkpt>
<trkpt lat="52.853900" lon="-3.373434"><ele>289</ele><time>2020-01-18T09:45:50Z</time><name>PT167</name></trkpt>
<trkpt lat="52.853907" lon="-3.373435"><ele>290</ele><time>2020-01-18T09:45:55Z</time><name>PT168</name></trkpt>
<trkpt lat="52.853909" lon="-3.373439"><ele>290</ele><time>2020-01-18T09:45:56Z</time><name>PT169</name></trkpt>
<trkpt lat="52.853910" lon="-3.373439"><ele>289</ele><time>2020-01-18T09:45:56Z</time><name>PT170</name></trkpt>
<trkpt lat="52.853911" lon="-3.373438"><ele>289</ele><time>2020-01-18T09:45:58Z</time><name>PT171</name></trkpt>
<trkpt lat="52.853913" lon="-3.373440"><ele>289</ele><time>2020-01-18T09:46:00Z</time><name>PT172</name></trkpt>
<trkpt lat="52.853915" lon="-3.373435"><ele>289</ele><time>2020-01-18T09:46:01Z</time><name>PT173</name></trkpt>
<trkpt lat="52.853919" lon="-3.373427"><ele>289</ele><time>2020-01-18T09:46:03Z</time><name>PT174</name></trkpt>
<trkpt lat="52.853918" lon="-3.373429"><ele>288</ele><time>2020-01-18T09:46:04Z</time><name>PT175</name></trkpt>
<trkpt lat="52.853915" lon="-3.373429"><ele>288</ele><time>2020-01-18T09:46:05Z</time><name>PT176</name></trkpt>
<trkpt lat="52.853916" lon="-3.373430"><ele>288</ele><time>2020-01-18T09:46:06Z</time><name>PT177</name></trkpt>
<trkpt lat="52.853923" lon="-3.373422"><ele>288</ele><time>2020-01-18T09:46:08Z</time><name>PT178</name></trkpt>
<trkpt lat="52.853923" lon="-3.373426"><ele>288</ele><time>2020-01-18T09:46:08Z</time><name>PT179</name></trkpt>
<trkpt lat="52.853925" lon="-3.373423"><ele>287</ele><time>2020-01-18T09:46:10Z</time><name>PT180</name></trkpt>
<trkpt lat="52.853924" lon="-3.373417"><ele>287</ele><time>2020-01-18T09:46:11Z</time><name>PT181</name></trkpt>
<trkpt lat="52.853923" lon="-3.373411"><ele>286</ele><time>2020-01-18T09:46:12Z</time><name>PT182</name></trkpt>
<trkpt lat="52.853919" lon="-3.373401"><ele>286</ele><time>2020-01-18T09:46:13Z</time><name>PT183</name></trkpt>
<trkpt lat="52.853916" lon="-3.373396"><ele>286</ele><time>2020-01-18T09:46:14Z</time><name>PT184</name></trkpt>
<trkpt lat="52.853914" lon="-3.373389"><ele>286</ele><time>2020-01-18T09:46:14Z</time><name>PT185</name></trkpt>
<trkpt lat="52.853911" lon="-3.373379"><ele>286</ele><time>2020-01-18T09:46:17Z</time><name>PT186</name></trkpt>
<trkpt lat="52.853910" lon="-3.373375"><ele>285</ele><time>2020-01-18T09:46:19Z</time><name>PT187</name></trkpt>
<trkpt lat="52.853912" lon="-3.373380"><ele>285</ele><time>2020-01-18T09:46:20Z</time><name>PT188</name></trkpt>
<trkpt lat="52.853908" lon="-3.373380"><ele>285</ele><time>2020-01-18T09:46:20Z</time><name>PT189</name></trkpt>
<trkpt lat="52.853906" lon="-3.373377"><ele>285</ele><time>2020-01-18T09:46:22Z</time><name>PT190</name></trkpt>
<trkpt lat="52.853904" lon="-3.373371"><ele>285</ele><time>2020-01-18T09:46:23Z</time><name>PT191</name></trkpt>
<trkpt lat="52.853902" lon="-3.373371"><ele>286</ele><time>2020-01-18T09:46:23Z</time><name>PT192</name></trkpt>
<trkpt lat="52.853902" lon="-3.373367"><ele>286</ele><time>2020-01-18T09:46:25Z</time><name>PT193</name></trkpt>
<trkpt lat="52.853903" lon="-3.373366"><ele>286</ele><time>2020-01-18T09:46:26Z</time><name>PT194</name></trkpt>
<trkpt lat="52.853903" lon="-3.373362"><ele>286</ele><time>2020-01-18T09:46:27Z</time><name>PT195</name></trkpt>
<trkpt lat="52.853900" lon="-3.373361"><ele>286</ele><time>2020-01-18T09:46:28Z</time><name>PT196</name></trkpt>
<trkpt lat="52.853899" lon="-3.373364"><ele>287</ele><time>2020-01-18T09:46:29Z</time><name>PT197</name></trkpt>
<trkpt lat="52.853898" lon="-3.373364"><ele>286</ele><time>2020-01-18T09:46:30Z</time><name>PT198</name></trkpt>
<trkpt lat="52.853905" lon="-3.373368"><ele>287</ele><time>2020-01-18T09:46:44Z</time><name>PT199</name></trkpt>
<trkpt lat="52.853910" lon="-3.373371"><ele>288</ele><time>2020-01-18T09:46:46Z</time><name>PT200</name></trkpt>
<trkpt lat="52.853912" lon="-3.373368"><ele>287</ele><time>2020-01-18T09:46:47Z</time><name>PT201</name></trkpt>
<trkpt lat="52.853915" lon="-3.373372"><ele>287</ele><time>2020-01-18T09:46:47Z</time><name>PT202</name></trkpt>
<trkpt lat="52.853914" lon="-3.373375"><ele>287</ele><time>2020-01-18T09:46:49Z</time><name>PT203</name></trkpt>
<trkpt lat="52.853916" lon="-3.373374"><ele>287</ele><time>2020-01-18T09:46:50Z</time><name>PT204</name></trkpt>
<trkpt lat="52.853917" lon="-3.373373"><ele>288</ele><time>2020-01-18T09:46:50Z</time><name>PT205</name></trkpt>
<trkpt lat="52.853917" lon="-3.373364"><ele>288</ele><time>2020-01-18T09:46:52Z</time><name>PT206</name></trkpt>
<trkpt lat="52.853918" lon="-3.373359"><ele>288</ele><time>2020-01-18T09:46:53Z</time><name>PT207</name></trkpt>
<trkpt lat="52.853918" lon="-3.373361"><ele>289</ele><time>2020-01-18T09:46:53Z</time><name>PT208</name></trkpt>
<trkpt lat="52.853921" lon="-3.373364"><ele>289</ele><time>2020-01-18T09:46:55Z</time><name>PT209</name></trkpt>
<trkpt lat="52.853920" lon="-3.373368"><ele>289</ele><time>2020-01-18T09:47:01Z</time><name>PT210</name></trkpt>
<trkpt lat="52.853922" lon="-3.373367"><ele>289</ele><time>2020-01-18T09:47:02Z</time><name>PT211</name></trkpt>
<trkpt lat="52.853925" lon="-3.373366"><ele>289</ele><time>2020-01-18T09:47:02Z</time><name>PT212</name></trkpt>
<trkpt lat="52.853927" lon="-3.373366"><ele>289</ele><time>2020-01-18T09:47:04Z</time><name>PT213</name></trkpt>
<trkpt lat="52.853932" lon="-3.373378"><ele>290</ele><time>2020-01-18T09:47:05Z</time><name>PT214</name></trkpt>
<trkpt lat="52.853935" lon="-3.373383"><ele>291</ele><time>2020-01-18T09:47:06Z</time><name>PT215</name></trkpt>
<trkpt lat="52.853936" lon="-3.373380"><ele>291</ele><time>2020-01-18T09:47:07Z</time><name>PT216</name></trkpt>
<trkpt lat="52.853937" lon="-3.373378"><ele>291</ele><time>2020-01-18T09:47:08Z</time><name>PT217</name></trkpt>
<trkpt lat="52.853940" lon="-3.373374"><ele>290</ele><time>2020-01-18T09:47:09Z</time><name>PT218</name></trkpt>
<trkpt lat="52.853941" lon="-3.373374"><ele>291</ele><time>2020-01-18T09:47:10Z</time><name>PT219</name></trkpt>
<trkpt lat="52.853942" lon="-3.373369"><ele>290</ele><time>2020-01-18T09:47:11Z</time><name>PT220</name></trkpt>
<trkpt lat="52.853943" lon="-3.373360"><ele>290</ele><time>2020-01-18T09:47:12Z</time><name>PT221</name></trkpt>
<trkpt lat="52.853942" lon="-3.373356"><ele>290</ele><time>2020-01-18T09:47:13Z</time><name>PT222</name></trkpt>
<trkpt lat="52.853941" lon="-3.373346"><ele>290</ele><time>2020-01-18T09:47:14Z</time><name>PT223</name></trkpt>
<trkpt lat="52.853938" lon="-3.373335"><ele>291</ele><time>2020-01-18T09:47:14Z</time><name>PT224</name></trkpt>
<trkpt lat="52.853936" lon="-3.373319"><ele>291</ele><time>2020-01-18T09:47:16Z</time><name>PT225</name></trkpt>
<trkpt lat="52.853933" lon="-3.373313"><ele>291</ele><time>2020-01-18T09:47:17Z</time><name>PT226</name></trkpt>
<trkpt lat="52.853933" lon="-3.373298"><ele>290</ele><time>2020-01-18T09:47:17Z</time><name>PT227</name></trkpt>
<trkpt lat="52.853931" lon="-3.373277"><ele>292</ele><time>2020-01-18T09:47:19Z</time><name>PT228</name></trkpt>
<trkpt lat="52.853931" lon="-3.373254"><ele>291</ele><time>2020-01-18T09:47:20Z</time><name>PT229</name></trkpt>
<trkpt lat="52.853933" lon="-3.373240"><ele>291</ele><time>2020-01-18T09:47:20Z</time><name>PT230</name></trkpt>
<trkpt lat="52.853934" lon="-3.373227"><ele>291</ele><time>2020-01-18T09:47:22Z</time><name>PT231</name></trkpt>
<trkpt lat="52.853926" lon="-3.373210"><ele>290</ele><time>2020-01-18T09:47:23Z</time><name>PT232</name></trkpt>
<trkpt lat="52.853922" lon="-3.373194"><ele>289</ele><time>2020-01-18T09:47:23Z</time><name>PT233</name></trkpt>
<trkpt lat="52.853920" lon="-3.373181"><ele>289</ele><time>2020-01-18T09:47:25Z</time><name>PT234</name></trkpt>
<trkpt lat="52.853917" lon="-3.373169"><ele>289</ele><time>2020-01-18T09:47:26Z</time><name>PT235</name></trkpt>
<trkpt lat="52.853911" lon="-3.373154"><ele>289</ele><time>2020-01-18T09:47:26Z</time><name>PT236</name></trkpt>
<trkpt lat="52.853908" lon="-3.373137"><ele>289</ele><time>2020-01-18T09:47:28Z</time><name>PT237</name></trkpt>
<trkpt lat="52.853902" lon="-3.373124"><ele>289</ele><time>2020-01-18T09:47:29Z</time><name>PT238</name></trkpt>
<trkpt lat="52.853899" lon="-3.373114"><ele>288</ele><time>2020-01-18T09:47:29Z</time><name>PT239</name></trkpt>
<trkpt lat="52.853899" lon="-3.373101"><ele>288</ele><time>2020-01-18T09:47:31Z</time><name>PT240</name></trkpt>
<trkpt lat="52.853899" lon="-3.373096"><ele>288</ele><time>2020-01-18T09:47:32Z</time><name>PT241</name></trkpt>
<trkpt lat="52.853899" lon="-3.373085"><ele>288</ele><time>2020-01-18T09:47:32Z</time><name>PT242</name></trkpt>
<trkpt lat="52.853897" lon="-3.373074"><ele>288</ele><time>2020-01-18T09:47:34Z</time><name>PT243</name></trkpt>
<trkpt lat="52.853892" lon="-3.373060"><ele>288</ele><time>2020-01-18T09:47:35Z</time><name>PT244</name></trkpt>
<trkpt lat="52.853886" lon="-3.373048"><ele>289</ele><time>2020-01-18T09:47:35Z</time><name>PT245</name></trkpt>
<trkpt lat="52.853887" lon="-3.373040"><ele>290</ele><time>2020-01-18T09:47:37Z</time><name>PT246</name></trkpt>
<trkpt lat="52.853884" lon="-3.373035"><ele>290</ele><time>2020-01-18T09:47:38Z</time><name>PT247</name></trkpt>
<trkpt lat="52.853880" lon="-3.373017"><ele>290</ele><time>2020-01-18T09:47:38Z</time><name>PT248</name></trkpt>
<trkpt lat="52.853878" lon="-3.373001"><ele>289</ele><time>2020-01-18T09:47:40Z</time><name>PT249</name></trkpt>
<trkpt lat="52.853874" lon="-3.372984"><ele>290</ele><time>2020-01-18T09:47:41Z</time><name>PT250</name></trkpt>
<trkpt lat="52.853869" lon="-3.372975"><ele>289</ele><time>2020-01-18T09:47:41Z</time><name>PT251</name></trkpt>
<trkpt lat="52.853864" lon="-3.372966"><ele>289</ele><time>2020-01-18T09:47:43Z</time><name>PT252</name></trkpt>
<trkpt lat="52.853853" lon="-3.372942"><ele>289</ele><time>2020-01-18T09:47:44Z</time><name>PT253</name></trkpt>
<trkpt lat="52.853848" lon="-3.372926"><ele>290</ele><time>2020-01-18T09:47:44Z</time><name>PT254</name></trkpt>
<trkpt lat="52.853845" lon="-3.372910"><ele>291</ele><time>2020-01-18T09:47:46Z</time><name>PT255</name></trkpt>
<trkpt lat="52.853843" lon="-3.372898"><ele>292</ele><time>2020-01-18T09:47:47Z</time><name>PT256</name></trkpt>
<trkpt lat="52.853839" lon="-3.372884"><ele>291</ele><time>2020-01-18T09:47:47Z</time><name>PT257</name></trkpt>
<trkpt lat="52.853829" lon="-3.372863"><ele>291</ele><time>2020-01-18T09:47:49Z</time><name>PT258</name></trkpt>
<trkpt lat="52.853820" lon="-3.372844"><ele>292</ele><time>2020-01-18T09:47:50Z</time><name>PT259</name></trkpt>
<trkpt lat="52.853814" lon="-3.372838"><ele>291</ele><time>2020-01-18T09:47:50Z</time><name>PT260</name></trkpt>
<trkpt lat="52.853807" lon="-3.372830"><ele>291</ele><time>2020-01-18T09:47:52Z</time><name>PT261</name></trkpt>
<trkpt lat="52.853799" lon="-3.372817"><ele>290</ele><time>2020-01-18T09:47:53Z</time><name>PT262</name></trkpt>
<trkpt lat="52.853795" lon="-3.372803"><ele>291</ele><time>2020-01-18T09:47:53Z</time><name>PT263</name></trkpt>
<trkpt lat="52.853790" lon="-3.372791"><ele>290</ele><time>2020-01-18T09:47:55Z</time><name>PT264</name></trkpt>
<trkpt lat="52.853776" lon="-3.372777"><ele>291</ele><time>2020-01-18T09:47:56Z</time><name>PT265</name></trkpt>
<trkpt lat="52.853767" lon="-3.372769"><ele>290</ele><time>2020-01-18T09:47:56Z</time><name>PT266</name></trkpt>
<trkpt lat="52.853764" lon="-3.372760"><ele>291</ele><time>2020-01-18T09:47:58Z</time><name>PT267</name></trkpt>
<trkpt lat="52.853762" lon="-3.372749"><ele>292</ele><time>2020-01-18T09:47:59Z</time><name>PT268</name></trkpt>
<trkpt lat="52.853772" lon="-3.372740"><ele>290</ele><time>2020-01-18T09:48:00Z</time><name>PT269</name></trkpt>
<trkpt lat="52.853773" lon="-3.372723"><ele>289</ele><time>2020-01-18T09:48:01Z</time><name>PT270</name></trkpt>
<trkpt lat="52.853766" lon="-3.372712"><ele>289</ele><time>2020-01-18T09:48:02Z</time><name>PT271</name></trkpt>
<trkpt lat="52.853759" lon="-3.372705"><ele>292</ele><time>2020-01-18T09:48:03Z</time><name>PT272</name></trkpt>
<trkpt lat="52.853751" lon="-3.372692"><ele>293</ele><time>2020-01-18T09:48:04Z</time><name>PT273</name></trkpt>
<trkpt lat="52.853742" lon="-3.372670"><ele>293</ele><time>2020-01-18T09:48:05Z</time><name>PT274</name></trkpt>
<trkpt lat="52.853732" lon="-3.372654"><ele>295</ele><time>2020-01-18T09:48:05Z</time><name>PT275</name></trkpt>
<trkpt lat="52.853719" lon="-3.372637"><ele>295</ele><time>2020-01-18T09:48:07Z</time><name>PT276</name></trkpt>
<trkpt lat="52.853709" lon="-3.372627"><ele>297</ele><time>2020-01-18T09:48:08Z</time><name>PT277</name></trkpt>
<trkpt lat="52.853696" lon="-3.372613"><ele>297</ele><time>2020-01-18T09:48:09Z</time><name>PT278</name></trkpt>
<trkpt lat="52.853686" lon="-3.372596"><ele>297</ele><time>2020-01-18T09:48:10Z</time><name>PT279</name></trkpt>
<trkpt lat="52.853673" lon="-3.372563"><ele>296</ele><time>2020-01-18T09:48:11Z</time><name>PT280</name></trkpt>
<trkpt lat="52.853663" lon="-3.372544"><ele>296</ele><time>2020-01-18T09:48:12Z</time><name>PT281</name></trkpt>
<trkpt lat="52.853655" lon="-3.372527"><ele>296</ele><time>2020-01-18T09:48:13Z</time><name>PT282</name></trkpt>
<trkpt lat="52.853652" lon="-3.372509"><ele>298</ele><time>2020-01-18T09:48:14Z</time><name>PT283</name></trkpt>
<trkpt lat="52.853647" lon="-3.372499"><ele>299</ele><time>2020-01-18T09:48:14Z</time><name>PT284</name></trkpt>
<trkpt lat="52.853646" lon="-3.372493"><ele>299</ele><time>2020-01-18T09:48:16Z</time><name>PT285</name></trkpt>
<trkpt lat="52.853635" lon="-3.372480"><ele>299</ele><time>2020-01-18T09:48:17Z</time><name>PT286</name></trkpt>
<trkpt lat="52.853633" lon="-3.372468"><ele>299</ele><time>2020-01-18T09:48:17Z</time><name>PT287</name></trkpt>
<trkpt lat="52.853626" lon="-3.372449"><ele>298</ele><time>2020-01-18T09:48:19Z</time><name>PT288</name></trkpt>
<trkpt lat="52.853616" lon="-3.372432"><ele>298</ele><time>2020-01-18T09:48:20Z</time><name>PT289</name></trkpt>
<trkpt lat="52.853608" lon="-3.372403"><ele>298</ele><time>2020-01-18T09:48:20Z</time><name>PT290</name></trkpt>
<trkpt lat="52.853602" lon="-3.372388"><ele>297</ele><time>2020-01-18T09:48:22Z</time><name>PT291</name></trkpt>
<trkpt lat="52.853595" lon="-3.372373"><ele>297</ele><time>2020-01-18T09:48:23Z</time><name>PT292</name></trkpt>
<trkpt lat="52.853592" lon="-3.372354"><ele>297</ele><time>2020-01-18T09:48:23Z</time><name>PT293</name></trkpt>
<trkpt lat="52.853588" lon="-3.372332"><ele>298</ele><time>2020-01-18T09:48:25Z</time><name>PT294</name></trkpt>
<trkpt lat="52.853583" lon="-3.372317"><ele>298</ele><time>2020-01-18T09:48:26Z</time><name>PT295</name></trkpt>
<trkpt lat="52.853578" lon="-3.372297"><ele>298</ele><time>2020-01-18T09:48:26Z</time><name>PT296</name></trkpt>
<trkpt lat="52.853571" lon="-3.372279"><ele>299</ele><time>2020-01-18T09:48:28Z</time><name>PT297</name></trkpt>
<trkpt lat="52.853567" lon="-3.372260"><ele>299</ele><time>2020-01-18T09:48:29Z</time><name>PT298</name></trkpt>
<trkpt lat="52.853562" lon="-3.372243"><ele>298</ele><time>2020-01-18T09:48:29Z</time><name>PT299</name></trkpt>
<trkpt lat="52.853558" lon="-3.372230"><ele>297</ele><time>2020-01-18T09:48:31Z</time><name>PT300</name></trkpt>
<trkpt lat="52.853555" lon="-3.372224"><ele>296</ele><time>2020-01-18T09:48:32Z</time><name>PT301</name></trkpt>
<trkpt lat="52.853550" lon="-3.372206"><ele>296</ele><time>2020-01-18T09:48:32Z</time><name>PT302</name></trkpt>
<trkpt lat="52.853546" lon="-3.372179"><ele>298</ele><time>2020-01-18T09:48:34Z</time><name>PT303</name></trkpt>
<trkpt lat="52.853543" lon="-3.372168"><ele>297</ele><time>2020-01-18T09:48:35Z</time><name>PT304</name></trkpt>
<trkpt lat="52.853539" lon="-3.372165"><ele>297</ele><time>2020-01-18T09:48:36Z</time><name>PT305</name></trkpt>
<trkpt lat="52.853533" lon="-3.372157"><ele>297</ele><time>2020-01-18T09:48:37Z</time><name>PT306</name></trkpt>
<trkpt lat="52.853524" lon="-3.372144"><ele>297</ele><time>2020-01-18T09:48:38Z</time><name>PT307</name></trkpt>
<trkpt lat="52.853522" lon="-3.372134"><ele>298</ele><time>2020-01-18T09:48:38Z</time><name>PT308</name></trkpt>
<trkpt lat="52.853520" lon="-3.372129"><ele>298</ele><time>2020-01-18T09:48:40Z</time><name>PT309</name></trkpt>
<trkpt lat="52.853515" lon="-3.372115"><ele>297</ele><time>2020-01-18T09:48:41Z</time><name>PT310</name></trkpt>
<trkpt lat="52.853511" lon="-3.372101"><ele>297</ele><time>2020-01-18T09:48:42Z</time><name>PT311</name></trkpt>
<trkpt lat="52.853507" lon="-3.372078"><ele>298</ele><time>2020-01-18T09:48:43Z</time><name>PT312</name></trkpt>
<trkpt lat="52.853497" lon="-3.372060"><ele>298</ele><time>2020-01-18T09:48:44Z</time><name>PT313</name></trkpt>
<trkpt lat="52.853490" lon="-3.372039"><ele>298</ele><time>2020-01-18T09:48:45Z</time><name>PT314</name></trkpt>
<trkpt lat="52.853484" lon="-3.372019"><ele>298</ele><time>2020-01-18T09:48:46Z</time><name>PT315</name></trkpt>
<trkpt lat="52.853477" lon="-3.372002"><ele>298</ele><time>2020-01-18T09:48:47Z</time><name>PT316</name></trkpt>
<trkpt lat="52.853472" lon="-3.371982"><ele>298</ele><time>2020-01-18T09:48:47Z</time><name>PT317</name></trkpt>
<trkpt lat="52.853472" lon="-3.371964"><ele>299</ele><time>2020-01-18T09:48:49Z</time><name>PT318</name></trkpt>
<trkpt lat="52.853470" lon="-3.371946"><ele>299</ele><time>2020-01-18T09:48:50Z</time><name>PT319</name></trkpt>
<trkpt lat="52.853466" lon="-3.371930"><ele>299</ele><time>2020-01-18T09:48:51Z</time><name>PT320</name></trkpt>
<trkpt lat="52.853462" lon="-3.371917"><ele>299</ele><time>2020-01-18T09:48:52Z</time><name>PT321</name></trkpt>
<trkpt lat="52.853460" lon="-3.371902"><ele>299</ele><time>2020-01-18T09:48:53Z</time><name>PT322</name></trkpt>
<trkpt lat="52.853455" lon="-3.371885"><ele>299</ele><time>2020-01-18T09:48:54Z</time><name>PT323</name></trkpt>
<trkpt lat="52.853449" lon="-3.371867"><ele>299</ele><time>2020-01-18T09:48:55Z</time><name>PT324</name></trkpt>
<trkpt lat="52.853445" lon="-3.371846"><ele>299</ele><time>2020-01-18T09:48:56Z</time><name>PT325</name></trkpt>
<trkpt lat="52.853442" lon="-3.371825"><ele>300</ele><time>2020-01-18T09:48:57Z</time><name>PT326</name></trkpt>
<trkpt lat="52.853441" lon="-3.371813"><ele>301</ele><time>2020-01-18T09:48:58Z</time><name>PT327</name></trkpt>
<trkpt lat="52.853437" lon="-3.371799"><ele>300</ele><time>2020-01-18T09:48:59Z</time><name>PT328</name></trkpt>
<trkpt lat="52.853431" lon="-3.371788"><ele>300</ele><time>2020-01-18T09:49:00Z</time><name>PT329</name></trkpt>
<trkpt lat="52.853422" lon="-3.371782"><ele>300</ele><time>2020-01-18T09:49:01Z</time><name>PT330</name></trkpt>
<trkpt lat="52.853414" lon="-3.371776"><ele>299</ele><time>2020-01-18T09:49:02Z</time><name>PT331</name></trkpt>
<trkpt lat="52.853408" lon="-3.371769"><ele>299</ele><time>2020-01-18T09:49:02Z</time><name>PT332</name></trkpt>
<trkpt lat="52.853402" lon="-3.371753"><ele>300</ele><time>2020-01-18T09:49:04Z</time><name>PT333</name></trkpt>
<trkpt lat="52.853393" lon="-3.371740"><ele>300</ele><time>2020-01-18T09:49:05Z</time><name>PT334</name></trkpt>
<trkpt lat="52.853385" lon="-3.371728"><ele>300</ele><time>2020-01-18T09:49:05Z</time><name>PT335</name></trkpt>
<trkpt lat="52.853376" lon="-3.371718"><ele>300</ele><time>2020-01-18T09:49:07Z</time><name>PT336</name></trkpt>
<trkpt lat="52.853369" lon="-3.371713"><ele>300</ele><time>2020-01-18T09:49:08Z</time><name>PT337</name></trkpt>
<trkpt lat="52.853361" lon="-3.371697"><ele>300</ele><time>2020-01-18T09:49:08Z</time><name>PT338</name></trkpt>
<trkpt lat="52.853353" lon="-3.371681"><ele>300</ele><time>2020-01-18T09:49:10Z</time><name>PT339</name></trkpt>
<trkpt lat="52.853347" lon="-3.371669"><ele>299</ele><time>2020-01-18T09:49:11Z</time><name>PT340</name></trkpt>
<trkpt lat="52.853340" lon="-3.371655"><ele>300</ele><time>2020-01-18T09:49:11Z</time><name>PT341</name></trkpt>
<trkpt lat="52.853327" lon="-3.371639"><ele>300</ele><time>2020-01-18T09:49:13Z</time><name>PT342</name></trkpt>
<trkpt lat="52.853319" lon="-3.371619"><ele>300</ele><time>2020-01-18T09:49:14Z</time><name>PT343</name></trkpt>
<trkpt lat="52.853311" lon="-3.371600"><ele>300</ele><time>2020-01-18T09:49:14Z</time><name>PT344</name></trkpt>
<trkpt lat="52.853303" lon="-3.371594"><ele>299</ele><time>2020-01-18T09:49:16Z</time><name>PT345</name></trkpt>
<trkpt lat="52.853299" lon="-3.371582"><ele>299</ele><time>2020-01-18T09:49:17Z</time><name>PT346</name></trkpt>
<trkpt lat="52.853295" lon="-3.371572"><ele>298</ele><time>2020-01-18T09:49:17Z</time><name>PT347</name></trkpt>
<trkpt lat="52.853284" lon="-3.371553"><ele>297</ele><time>2020-01-18T09:49:19Z</time><name>PT348</name></trkpt>
<trkpt lat="52.853276" lon="-3.371548"><ele>298</ele><time>2020-01-18T09:49:20Z</time><name>PT349</name></trkpt>
<trkpt lat="52.853272" lon="-3.371529"><ele>299</ele><time>2020-01-18T09:49:21Z</time><name>PT350</name></trkpt>
<trkpt lat="52.853267" lon="-3.371509"><ele>300</ele><time>2020-01-18T09:49:22Z</time><name>PT351</name></trkpt>
<trkpt lat="52.853258" lon="-3.371487"><ele>300</ele><time>2020-01-18T09:49:23Z</time><name>PT352</name></trkpt>
<trkpt lat="52.853248" lon="-3.371479"><ele>300</ele><time>2020-01-18T09:49:24Z</time><name>PT353</name></trkpt>
<trkpt lat="52.853244" lon="-3.371471"><ele>300</ele><time>2020-01-18T09:49:25Z</time><name>PT354</name></trkpt>
<trkpt lat="52.853233" lon="-3.371465"><ele>298</ele><time>2020-01-18T09:49:26Z</time><name>PT355</name></trkpt>
<trkpt lat="52.853227" lon="-3.371457"><ele>298</ele><time>2020-01-18T09:49:26Z</time><name>PT356</name></trkpt>
<trkpt lat="52.853219" lon="-3.371442"><ele>298</ele><time>2020-01-18T09:49:28Z</time><name>PT357</name></trkpt>
<trkpt lat="52.853208" lon="-3.371422"><ele>298</ele><time>2020-01-18T09:49:29Z</time><name>PT358</name></trkpt>
<trkpt lat="52.853200" lon="-3.371408"><ele>299</ele><time>2020-01-18T09:49:29Z</time><name>PT359</name></trkpt>
<trkpt lat="52.853192" lon="-3.371409"><ele>297</ele><time>2020-01-18T09:49:31Z</time><name>PT360</name></trkpt>
<trkpt lat="52.853182" lon="-3.371403"><ele>298</ele><time>2020-01-18T09:49:32Z</time><name>PT361</name></trkpt>
<trkpt lat="52.853172" lon="-3.371389"><ele>298</ele><time>2020-01-18T09:49:33Z</time><name>PT362</name></trkpt>
<trkpt lat="52.853169" lon="-3.371374"><ele>299</ele><time>2020-01-18T09:49:34Z</time><name>PT363</name></trkpt>
<trkpt lat="52.853159" lon="-3.371358"><ele>300</ele><time>2020-01-18T09:49:35Z</time><name>PT364</name></trkpt>
<trkpt lat="52.853153" lon="-3.371348"><ele>300</ele><time>2020-01-18T09:49:36Z</time><name>PT365</name></trkpt>
<trkpt lat="52.853145" lon="-3.371335"><ele>299</ele><time>2020-01-18T09:49:37Z</time><name>PT366</name></trkpt>
<trkpt lat="52.853136" lon="-3.371320"><ele>298</ele><time>2020-01-18T09:49:38Z</time><name>PT367</name></trkpt>
<trkpt lat="52.853132" lon="-3.371311"><ele>298</ele><time>2020-01-18T09:49:38Z</time><name>PT368</name></trkpt>
<trkpt lat="52.853125" lon="-3.371302"><ele>298</ele><time>2020-01-18T09:49:40Z</time><name>PT369</name></trkpt>
<trkpt lat="52.853115" lon="-3.371282"><ele>298</ele><time>2020-01-18T09:49:41Z</time><name>PT370</name></trkpt>
<trkpt lat="52.853109" lon="-3.371261"><ele>298</ele><time>2020-01-18T09:49:41Z</time><name>PT371</name></trkpt>
<trkpt lat="52.853100" lon="-3.371250"><ele>298</ele><time>2020-01-18T09:49:43Z</time><name>PT372</name></trkpt>
<trkpt lat="52.853091" lon="-3.371236"><ele>298</ele><time>2020-01-18T09:49:44Z</time><name>PT373</name></trkpt>
<trkpt lat="52.853083" lon="-3.371228"><ele>299</ele><time>2020-01-18T09:49:44Z</time><name>PT374</name></trkpt>
<trkpt lat="52.853087" lon="-3.371225"><ele>298</ele><time>2020-01-18T09:49:46Z</time><name>PT375</name></trkpt>
<trkpt lat="52.853085" lon="-3.371217"><ele>298</ele><time>2020-01-18T09:49:47Z</time><name>PT376</name></trkpt>
<trkpt lat="52.853085" lon="-3.371206"><ele>299</ele><time>2020-01-18T09:49:47Z</time><name>PT377</name></trkpt>
<trkpt lat="52.853082" lon="-3.371195"><ele>299</ele><time>2020-01-18T09:49:49Z</time><name>PT378</name></trkpt>
<trkpt lat="52.853073" lon="-3.371185"><ele>299</ele><time>2020-01-18T09:49:50Z</time><name>PT379</name></trkpt>
<trkpt lat="52.853063" lon="-3.371173"><ele>299</ele><time>2020-01-18T09:49:50Z</time><name>PT380</name></trkpt>
<trkpt lat="52.853049" lon="-3.371158"><ele>298</ele><time>2020-01-18T09:49:52Z</time><name>PT381</name></trkpt>
<trkpt lat="52.853037" lon="-3.371148"><ele>299</ele><time>2020-01-18T09:49:53Z</time><name>PT382</name></trkpt>
<trkpt lat="52.853027" lon="-3.371132"><ele>298</ele><time>2020-01-18T09:49:53Z</time><name>PT383</name></trkpt>
<trkpt lat="52.853019" lon="-3.371117"><ele>299</ele><time>2020-01-18T09:49:55Z</time><name>PT384</name></trkpt>
<trkpt lat="52.853010" lon="-3.371100"><ele>299</ele><time>2020-01-18T09:49:56Z</time><name>PT385</name></trkpt>
<trkpt lat="52.853002" lon="-3.371090"><ele>298</ele><time>2020-01-18T09:49:56Z</time><name>PT386</name></trkpt>
<trkpt lat="52.852995" lon="-3.371080"><ele>298</ele><time>2020-01-18T09:49:58Z</time><name>PT387</name></trkpt>
<trkpt lat="52.852990" lon="-3.371061"><ele>300</ele><time>2020-01-18T09:49:59Z</time><name>PT388</name></trkpt>
<trkpt lat="52.852980" lon="-3.371046"><ele>300</ele><time>2020-01-18T09:50:00Z</time><name>PT389</name></trkpt>
<trkpt lat="52.852970" lon="-3.371027"><ele>301</ele><time>2020-01-18T09:50:01Z</time><name>PT390</name></trkpt>
<trkpt lat="52.852962" lon="-3.371010"><ele>301</ele><time>2020-01-18T09:50:02Z</time><name>PT391</name></trkpt>
<trkpt lat="52.852954" lon="-3.370993"><ele>301</ele><time>2020-01-18T09:50:03Z</time><name>PT392</name></trkpt>
<trkpt lat="52.852945" lon="-3.370981"><ele>302</ele><time>2020-01-18T09:50:04Z</time><name>PT393</name></trkpt>
<trkpt lat="52.852939" lon="-3.370976"><ele>301</ele><time>2020-01-18T09:50:05Z</time><name>PT394</name></trkpt>
<trkpt lat="52.852928" lon="-3.370964"><ele>299</ele><time>2020-01-18T09:50:06Z</time><name>PT395</name></trkpt>
<trkpt lat="52.852918" lon="-3.370957"><ele>299</ele><time>2020-01-18T09:50:07Z</time><name>PT396</name></trkpt>
<trkpt lat="52.852909" lon="-3.370942"><ele>298</ele><time>2020-01-18T09:50:08Z</time><name>PT397</name></trkpt>
<trkpt lat="52.852902" lon="-3.370931"><ele>299</ele><time>2020-01-18T09:50:09Z</time><name>PT398</name></trkpt>
<trkpt lat="52.852900" lon="-3.370922"><ele>299</ele><time>2020-01-18T09:50:10Z</time><name>PT399</name></trkpt>
<trkpt lat="52.852896" lon="-3.370912"><ele>299</ele><time>2020-01-18T09:50:11Z</time><name>PT400</name></trkpt>
<trkpt lat="52.852891" lon="-3.370901"><ele>299</ele><time>2020-01-18T09:50:11Z</time><name>PT401</name></trkpt>
<trkpt lat="52.852884" lon="-3.370890"><ele>299</ele><time>2020-01-18T09:50:13Z</time><name>PT402</name></trkpt>
<trkpt lat="52.852877" lon="-3.370877"><ele>299</ele><time>2020-01-18T09:50:14Z</time><name>PT403</name></trkpt>
<trkpt lat="52.852871" lon="-3.370862"><ele>299</ele><time>2020-01-18T09:50:15Z</time><name>PT404</name></trkpt>
<trkpt lat="52.852863" lon="-3.370844"><ele>299</ele><time>2020-01-18T09:50:16Z</time><name>PT405</name></trkpt>
<trkpt lat="52.852850" lon="-3.370821"><ele>298</ele><time>2020-01-18T09:50:17Z</time><name>PT406</name></trkpt>
<trkpt lat="52.852839" lon="-3.370810"><ele>298</ele><time>2020-01-18T09:50:18Z</time><name>PT407</name></trkpt>
<trkpt lat="52.852829" lon="-3.370801"><ele>297</ele><time>2020-01-18T09:50:19Z</time><name>PT408</name></trkpt>
<trkpt lat="52.852823" lon="-3.370796"><ele>298</ele><time>2020-01-18T09:50:20Z</time><name>PT409</name></trkpt>
<trkpt lat="52.852818" lon="-3.370789"><ele>297</ele><time>2020-01-18T09:50:20Z</time><name>PT410</name></trkpt>
<trkpt lat="52.852809" lon="-3.370777"><ele>298</ele><time>2020-01-18T09:50:22Z</time><name>PT411</name></trkpt>
<trkpt lat="52.852801" lon="-3.370765"><ele>299</ele><time>2020-01-18T09:50:23Z</time><name>PT412</name></trkpt>
<trkpt lat="52.852794" lon="-3.370754"><ele>299</ele><time>2020-01-18T09:50:23Z</time><name>PT413</name></trkpt>
<trkpt lat="52.852785" lon="-3.370746"><ele>298</ele><time>2020-01-18T09:50:25Z</time><name>PT414</name></trkpt>
<trkpt lat="52.852778" lon="-3.370740"><ele>299</ele><time>2020-01-18T09:50:26Z</time><name>PT415</name></trkpt>
<trkpt lat="52.852769" lon="-3.370736"><ele>298</ele><time>2020-01-18T09:50:26Z</time><name>PT416</name></trkpt>
<trkpt lat="52.852761" lon="-3.370726"><ele>298</ele><time>2020-01-18T09:50:28Z</time><name>PT417</name></trkpt>
<trkpt lat="52.852752" lon="-3.370712"><ele>297</ele><time>2020-01-18T09:50:29Z</time><name>PT418</name></trkpt>
<trkpt lat="52.852743" lon="-3.370701"><ele>297</ele><time>2020-01-18T09:50:29Z</time><name>PT419</name></trkpt>
<trkpt lat="52.852733" lon="-3.370688"><ele>298</ele><time>2020-01-18T09:50:31Z</time><name>PT420</name></trkpt>
<trkpt lat="52.852726" lon="-3.370673"><ele>298</ele><time>2020-01-18T09:50:32Z</time><name>PT421</name></trkpt>
<trkpt lat="52.852716" lon="-3.370655"><ele>298</ele><time>2020-01-18T09:50:32Z</time><name>PT422</name></trkpt>
<trkpt lat="52.852706" lon="-3.370641"><ele>297</ele><time>2020-01-18T09:50:34Z</time><name>PT423</name></trkpt>
<trkpt lat="52.852696" lon="-3.370630"><ele>297</ele><time>2020-01-18T09:50:35Z</time><name>PT424</name></trkpt>
<trkpt lat="52.852691" lon="-3.370615"><ele>297</ele><time>2020-01-18T09:50:36Z</time><name>PT425</name></trkpt>
<trkpt lat="52.852682" lon="-3.370606"><ele>297</ele><time>2020-01-18T09:50:37Z</time><name>PT426</name></trkpt>
<trkpt lat="52.852673" lon="-3.370593"><ele>296</ele><time>2020-01-18T09:50:38Z</time><name>PT427</name></trkpt>
<trkpt lat="52.852663" lon="-3.370577"><ele>295</ele><time>2020-01-18T09:50:39Z</time><name>PT428</name></trkpt>
<trkpt lat="52.852653" lon="-3.370565"><ele>296</ele><time>2020-01-18T09:50:40Z</time><name>PT429</name></trkpt>
<trkpt lat="52.852646" lon="-3.370564"><ele>296</ele><time>2020-01-18T09:50:41Z</time><name>PT430</name></trkpt>
<trkpt lat="52.852642" lon="-3.370556"><ele>296</ele><time>2020-01-18T09:50:42Z</time><name>PT431</name></trkpt>
<trkpt lat="52.852637" lon="-3.370545"><ele>295</ele><time>2020-01-18T09:50:43Z</time><name>PT432</name></trkpt>
<trkpt lat="52.852629" lon="-3.370530"><ele>294</ele><time>2020-01-18T09:50:44Z</time><name>PT433</name></trkpt>
<trkpt lat="52.852622" lon="-3.370520"><ele>294</ele><time>2020-01-18T09:50:44Z</time><name>PT434</name></trkpt>
<trkpt lat="52.852614" lon="-3.370513"><ele>293</ele><time>2020-01-18T09:50:46Z</time><name>PT435</name></trkpt>
<trkpt lat="52.852601" lon="-3.370498"><ele>294</ele><time>2020-01-18T09:50:47Z</time><name>PT436</name></trkpt>
<trkpt lat="52.852592" lon="-3.370483"><ele>294</ele><time>2020-01-18T09:50:48Z</time><name>PT437</name></trkpt>
<trkpt lat="52.852583" lon="-3.370473"><ele>293</ele><time>2020-01-18T09:50:49Z</time><name>PT438</name></trkpt>
<trkpt lat="52.852576" lon="-3.370464"><ele>292</ele><time>2020-01-18T09:50:50Z</time><name>PT439</name></trkpt>
<trkpt lat="52.852561" lon="-3.370447"><ele>292</ele><time>2020-01-18T09:50:51Z</time><name>PT440</name></trkpt>
<trkpt lat="52.852548" lon="-3.370433"><ele>290</ele><time>2020-01-18T09:50:52Z</time><name>PT441</name></trkpt>
<trkpt lat="52.852537" lon="-3.370420"><ele>290</ele><time>2020-01-18T09:50:53Z</time><name>PT442</name></trkpt>
<trkpt lat="52.852530" lon="-3.370409"><ele>288</ele><time>2020-01-18T09:50:54Z</time><name>PT443</name></trkpt>
<trkpt lat="52.852520" lon="-3.370397"><ele>288</ele><time>2020-01-18T09:50:55Z</time><name>PT444</name></trkpt>
<trkpt lat="52.852509" lon="-3.370382"><ele>289</ele><time>2020-01-18T09:50:56Z</time><name>PT445</name></trkpt>
<trkpt lat="52.852499" lon="-3.370374"><ele>288</ele><time>2020-01-18T09:50:56Z</time><name>PT446</name></trkpt>
<trkpt lat="52.852487" lon="-3.370365"><ele>287</ele><time>2020-01-18T09:50:58Z</time><name>PT447</name></trkpt>
<trkpt lat="52.852476" lon="-3.370358"><ele>287</ele><time>2020-01-18T09:50:59Z</time><name>PT448</name></trkpt>
<trkpt lat="52.852465" lon="-3.370346"><ele>287</ele><time>2020-01-18T09:50:59Z</time><name>PT449</name></trkpt>
<trkpt lat="52.852450" lon="-3.370335"><ele>285</ele><time>2020-01-18T09:51:01Z</time><name>PT450</name></trkpt>
<trkpt lat="52.852439" lon="-3.370321"><ele>286</ele><time>2020-01-18T09:51:02Z</time><name>PT451</name></trkpt>
<trkpt lat="52.852428" lon="-3.370298"><ele>286</ele><time>2020-01-18T09:51:02Z</time><name>PT452</name></trkpt>
<trkpt lat="52.852417" lon="-3.370287"><ele>286</ele><time>2020-01-18T09:51:04Z</time><name>PT453</name></trkpt>
<trkpt lat="52.852408" lon="-3.370275"><ele>286</ele><time>2020-01-18T09:51:05Z</time><name>PT454</name></trkpt>
<trkpt lat="52.852396" lon="-3.370255"><ele>286</ele><time>2020-01-18T09:51:05Z</time><name>PT455</name></trkpt>
<trkpt lat="52.852388" lon="-3.370242"><ele>286</ele><time>2020-01-18T09:51:07Z</time><name>PT456</name></trkpt>
<trkpt lat="52.852378" lon="-3.370223"><ele>286</ele><time>2020-01-18T09:51:08Z</time><name>PT457</name></trkpt>
<trkpt lat="52.852369" lon="-3.370206"><ele>285</ele><time>2020-01-18T09:51:08Z</time><name>PT458</name></trkpt>
<trkpt lat="52.852363" lon="-3.370196"><ele>286</ele><time>2020-01-18T09:51:10Z</time><name>PT459</name></trkpt>
<trkpt lat="52.852355" lon="-3.370191"><ele>288</ele><time>2020-01-18T09:51:11Z</time><name>PT460</name></trkpt>
<trkpt lat="52.852346" lon="-3.370184"><ele>288</ele><time>2020-01-18T09:51:11Z</time><name>PT461</name></trkpt>
<trkpt lat="52.852338" lon="-3.370173"><ele>289</ele><time>2020-01-18T09:51:13Z</time><name>PT462</name></trkpt>
<trkpt lat="52.852327" lon="-3.370155"><ele>289</ele><time>2020-01-18T09:51:14Z</time><name>PT463</name></trkpt>
<trkpt lat="52.852316" lon="-3.370141"><ele>289</ele><time>2020-01-18T09:51:14Z</time><name>PT464</name></trkpt>
<trkpt lat="52.852305" lon="-3.370122"><ele>289</ele><time>2020-01-18T09:51:16Z</time><name>PT465</name></trkpt>
<trkpt lat="52.852299" lon="-3.370105"><ele>289</ele><time>2020-01-18T09:51:17Z</time><name>PT466</name></trkpt>
<trkpt lat="52.852289" lon="-3.370083"><ele>290</ele><time>2020-01-18T09:51:17Z</time><name>PT467</name></trkpt>
<trkpt lat="52.852277" lon="-3.370064"><ele>290</ele><time>2020-01-18T09:51:19Z</time><name>PT468</name></trkpt>
<trkpt lat="52.852265" lon="-3.370048"><ele>289</ele><time>2020-01-18T09:51:20Z</time><name>PT469</name></trkpt>
<trkpt lat="52.852255" lon="-3.370034"><ele>289</ele><time>2020-01-18T09:51:20Z</time><name>PT470</name></trkpt>
<trkpt lat="52.852251" lon="-3.370028"><ele>290</ele><time>2020-01-18T09:51:22Z</time><name>PT471</name></trkpt>
<trkpt lat="52.852242" lon="-3.370019"><ele>290</ele><time>2020-01-18T09:51:23Z</time><name>PT472</name></trkpt>
<trkpt lat="52.852233" lon="-3.370004"><ele>290</ele><time>2020-01-18T09:51:23Z</time><name>PT473</name></trkpt>
<trkpt lat="52.852225" lon="-3.369985"><ele>290</ele><time>2020-01-18T09:51:25Z</time><name>PT474</name></trkpt>
<trkpt lat="52.852211" lon="-3.369968"><ele>291</ele><time>2020-01-18T09:51:26Z</time><name>PT475</name></trkpt>
<trkpt lat="52.852198" lon="-3.369945"><ele>290</ele><time>2020-01-18T09:51:26Z</time><name>PT476</name></trkpt>
<trkpt lat="52.852192" lon="-3.369932"><ele>291</ele><time>2020-01-18T09:51:28Z</time><name>PT477</name></trkpt>
<trkpt lat="52.852186" lon="-3.369914"><ele>291</ele><time>2020-01-18T09:51:29Z</time><name>PT478</name></trkpt>
<trkpt lat="52.852183" lon="-3.369895"><ele>293</ele><time>2020-01-18T09:51:29Z</time><name>PT479</name></trkpt>
<trkpt lat="52.852177" lon="-3.369880"><ele>294</ele><time>2020-01-18T09:51:31Z</time><name>PT480</name></trkpt>
<trkpt lat="52.852168" lon="-3.369867"><ele>294</ele><time>2020-01-18T09:51:32Z</time><name>PT481</name></trkpt>
<trkpt lat="52.852156" lon="-3.369849"><ele>294</ele><time>2020-01-18T09:51:32Z</time><name>PT482</name></trkpt>
<trkpt lat="52.852161" lon="-3.369843"><ele>299</ele><time>2020-01-18T09:51:34Z</time><name>PT483</name></trkpt>
<trkpt lat="52.852157" lon="-3.369839"><ele>299</ele><time>2020-01-18T09:51:35Z</time><name>PT484</name></trkpt>
<trkpt lat="52.852150" lon="-3.369836"><ele>298</ele><time>2020-01-18T09:51:35Z</time><name>PT485</name></trkpt>
<trkpt lat="52.852149" lon="-3.369832"><ele>298</ele><time>2020-01-18T09:51:37Z</time><name>PT486</name></trkpt>
<trkpt lat="52.852146" lon="-3.369820"><ele>299</ele><time>2020-01-18T09:51:41Z</time><name>PT487</name></trkpt>
<trkpt lat="52.852142" lon="-3.369804"><ele>299</ele><time>2020-01-18T09:51:43Z</time><name>PT488</name></trkpt>
<trkpt lat="52.852133" lon="-3.369785"><ele>298</ele><time>2020-01-18T09:51:44Z</time><name>PT489</name></trkpt>
<trkpt lat="52.852120" lon="-3.369769"><ele>298</ele><time>2020-01-18T09:51:44Z</time><name>PT490</name></trkpt>
<trkpt lat="52.852109" lon="-3.369752"><ele>298</ele><time>2020-01-18T09:51:46Z</time><name>PT491</name></trkpt>
<trkpt lat="52.852098" lon="-3.369729"><ele>297</ele><time>2020-01-18T09:51:47Z</time><name>PT492</name></trkpt>
<trkpt lat="52.852088" lon="-3.369713"><ele>296</ele><time>2020-01-18T09:51:47Z</time><name>PT493</name></trkpt>
<trkpt lat="52.852073" lon="-3.369695"><ele>296</ele><time>2020-01-18T09:51:49Z</time><name>PT494</name></trkpt>
<trkpt lat="52.852059" lon="-3.369678"><ele>296</ele><time>2020-01-18T09:51:50Z</time><name>PT495</name></trkpt>
<trkpt lat="52.852048" lon="-3.369663"><ele>297</ele><time>2020-01-18T09:51:51Z</time><name>PT496</name></trkpt>
<trkpt lat="52.852040" lon="-3.369653"><ele>297</ele><time>2020-01-18T09:51:52Z</time><name>PT497</name></trkpt>
<trkpt lat="52.852028" lon="-3.369645"><ele>297</ele><time>2020-01-18T09:51:53Z</time><name>PT498</name></trkpt>
<trkpt lat="52.852017" lon="-3.369632"><ele>298</ele><time>2020-01-18T09:51:54Z</time><name>PT499</name></trkpt>
<trkpt lat="52.852007" lon="-3.369617"><ele>297</ele><time>2020-01-18T09:51:55Z</time><name>PT500</name></trkpt>
<trkpt lat="52.851995" lon="-3.369605"><ele>298</ele><time>2020-01-18T09:51:56Z</time><name>PT501</name></trkpt>
<trkpt lat="52.851989" lon="-3.369598"><ele>299</ele><time>2020-01-18T09:51:57Z</time><name>PT502</name></trkpt>
<trkpt lat="52.851988" lon="-3.369597"><ele>299</ele><time>2020-01-18T09:51:58Z</time><name>PT503</name></trkpt>
<trkpt lat="52.851985" lon="-3.369592"><ele>298</ele><time>2020-01-18T09:51:59Z</time><name>PT504</name></trkpt>
<trkpt lat="52.851980" lon="-3.369591"><ele>298</ele><time>2020-01-18T09:52:00Z</time><name>PT505</name></trkpt>
<trkpt lat="52.851975" lon="-3.369580"><ele>298</ele><time>2020-01-18T09:52:01Z</time><name>PT506</name></trkpt>
<trkpt lat="52.851967" lon="-3.369573"><ele>298</ele><time>2020-01-18T09:52:02Z</time><name>PT507</name></trkpt>
<trkpt lat="52.851959" lon="-3.369566"><ele>297</ele><time>2020-01-18T09:52:03Z</time><name>PT508</name></trkpt>
<trkpt lat="52.851956" lon="-3.369557"><ele>297</ele><time>2020-01-18T09:52:04Z</time><name>PT509</name></trkpt>
<trkpt lat="52.851950" lon="-3.369545"><ele>297</ele><time>2020-01-18T09:52:05Z</time><name>PT510</name></trkpt>
<trkpt lat="52.851939" lon="-3.369531"><ele>298</ele><time>2020-01-18T09:52:05Z</time><name>PT511</name></trkpt>
<trkpt lat="52.851933" lon="-3.369520"><ele>297</ele><time>2020-01-18T09:52:07Z</time><name>PT512</name></trkpt>
<trkpt lat="52.851927" lon="-3.369513"><ele>297</ele><time>2020-01-18T09:52:08Z</time><name>PT513</name></trkpt>
<trkpt lat="52.851920" lon="-3.369510"><ele>296</ele><time>2020-01-18T09:52:08Z</time><name>PT514</name></trkpt>
<trkpt lat="52.851916" lon="-3.369501"><ele>296</ele><time>2020-01-18T09:52:10Z</time><name>PT515</name></trkpt>
<trkpt lat="52.851911" lon="-3.369490"><ele>296</ele><time>2020-01-18T09:52:11Z</time><name>PT516</name></trkpt>
<trkpt lat="52.851901" lon="-3.369479"><ele>297</ele><time>2020-01-18T09:52:11Z</time><name>PT517</name></trkpt>
<trkpt lat="52.851892" lon="-3.369465"><ele>297</ele><time>2020-01-18T09:52:13Z</time><name>PT518</name></trkpt>
<trkpt lat="52.851879" lon="-3.369447"><ele>297</ele><time>2020-01-18T09:52:14Z</time><name>PT519</name></trkpt>
<trkpt lat="52.851868" lon="-3.369432"><ele>297</ele><time>2020-01-18T09:52:14Z</time><name>PT520</name></trkpt>
<trkpt lat="52.851861" lon="-3.369418"><ele>297</ele><time>2020-01-18T09:52:16Z</time><name>PT521</name></trkpt>
<trkpt lat="52.851853" lon="-3.369402"><ele>297</ele><time>2020-01-18T09:52:17Z</time><name>PT522</name></trkpt>
<trkpt lat="52.851844" lon="-3.369379"><ele>297</ele><time>2020-01-18T09:52:17Z</time><name>PT523</name></trkpt>
<trkpt lat="52.851834" lon="-3.369375"><ele>297</ele><time>2020-01-18T09:52:19Z</time><name>PT524</name></trkpt>
<trkpt lat="52.851822" lon="-3.369356"><ele>297</ele><time>2020-01-18T09:52:20Z</time><name>PT525</name></trkpt>
<trkpt lat="52.851813" lon="-3.369346"><ele>298</ele><time>2020-01-18T09:52:20Z</time><name>PT526</name></trkpt>
<trkpt lat="52.851806" lon="-3.369325"><ele>298</ele><time>2020-01-18T09:52:22Z</time><name>PT527</name></trkpt>
<trkpt lat="52.851801" lon="-3.369314"><ele>299</ele><time>2020-01-18T09:52:23Z</time><name>PT528</name></trkpt>
<trkpt lat="52.851792" lon="-3.369298"><ele>299</ele><time>2020-01-18T09:52:23Z</time><name>PT529</name></trkpt>
<trkpt lat="52.851785" lon="-3.369283"><ele>300</ele><time>2020-01-18T09:52:25Z</time><name>PT530</name></trkpt>
<trkpt lat="52.851779" lon="-3.369264"><ele>300</ele><time>2020-01-18T09:52:26Z</time><name>PT531</name></trkpt>
<trkpt lat="52.851775" lon="-3.369256"><ele>300</ele><time>2020-01-18T09:52:26Z</time><name>PT532</name></trkpt>
<trkpt lat="52.851771" lon="-3.369250"><ele>300</ele><time>2020-01-18T09:52:28Z</time><name>PT533</name></trkpt>
<trkpt lat="52.851765" lon="-3.369235"><ele>301</ele><time>2020-01-18T09:52:29Z</time><name>PT534</name></trkpt>
<trkpt lat="52.851759" lon="-3.369234"><ele>300</ele><time>2020-01-18T09:52:29Z</time><name>PT535</name></trkpt>
<trkpt lat="52.851750" lon="-3.369218"><ele>299</ele><time>2020-01-18T09:52:31Z</time><name>PT536</name></trkpt>
<trkpt lat="52.851742" lon="-3.369201"><ele>297</ele><time>2020-01-18T09:52:32Z</time><name>PT537</name></trkpt>
<trkpt lat="52.851731" lon="-3.369183"><ele>296</ele><time>2020-01-18T09:52:32Z</time><name>PT538</name></trkpt>
<trkpt lat="52.851725" lon="-3.369163"><ele>296</ele><time>2020-01-18T09:52:34Z</time><name>PT539</name></trkpt>
<trkpt lat="52.851721" lon="-3.369153"><ele>296</ele><time>2020-01-18T09:52:35Z</time><name>PT540</name></trkpt>
<trkpt lat="52.851714" lon="-3.369137"><ele>297</ele><time>2020-01-18T09:52:35Z</time><name>PT541</name></trkpt>
<trkpt lat="52.851709" lon="-3.369114"><ele>296</ele><time>2020-01-18T09:52:37Z</time><name>PT542</name></trkpt>
<trkpt lat="52.851706" lon="-3.369109"><ele>297</ele><time>2020-01-18T09:52:38Z</time><name>PT543</name></trkpt>
<trkpt lat="52.851699" lon="-3.369092"><ele>298</ele><time>2020-01-18T09:52:38Z</time><name>PT544</name></trkpt>
<trkpt lat="52.851696" lon="-3.369071"><ele>299</ele><time>2020-01-18T09:52:40Z</time><name>PT545</name></trkpt>
<trkpt lat="52.851689" lon="-3.369059"><ele>299</ele><time>2020-01-18T09:52:41Z</time><name>PT546</name></trkpt>
<trkpt lat="52.851684" lon="-3.369054"><ele>300</ele><time>2020-01-18T09:52:41Z</time><name>PT547</name></trkpt>
<trkpt lat="52.851678" lon="-3.369032"><ele>300</ele><time>2020-01-18T09:52:43Z</time><name>PT548</name></trkpt>
<trkpt lat="52.851677" lon="-3.369003"><ele>300</ele><time>2020-01-18T09:52:44Z</time><name>PT549</name></trkpt>
<trkpt lat="52.851668" lon="-3.368986"><ele>300</ele><time>2020-01-18T09:52:45Z</time><name>PT550</name></trkpt>
<trkpt lat="52.851660" lon="-3.368967"><ele>300</ele><time>2020-01-18T09:52:46Z</time><name>PT551</name></trkpt>
<trkpt lat="52.851653" lon="-3.368950"><ele>300</ele><time>2020-01-18T09:52:47Z</time><name>PT552</name></trkpt>
<trkpt lat="52.851645" lon="-3.368926"><ele>299</ele><time>2020-01-18T09:52:48Z</time><name>PT553</name></trkpt>
<trkpt lat="52.851634" lon="-3.368907"><ele>299</ele><time>2020-01-18T09:52:49Z</time><name>PT554</name></trkpt>
<trkpt lat="52.851624" lon="-3.368890"><ele>299</ele><time>2020-01-18T09:52:50Z</time><name>PT555</name></trkpt>
<trkpt lat="52.851614" lon="-3.368869"><ele>299</ele><time>2020-01-18T09:52:50Z</time><name>PT556</name></trkpt>
<trkpt lat="52.851606" lon="-3.368844"><ele>299</ele><time>2020-01-18T09:52:52Z</time><name>PT557</name></trkpt>
<trkpt lat="52.851595" lon="-3.368820"><ele>299</ele><time>2020-01-18T09:52:53Z</time><name>PT558</name></trkpt>
<trkpt lat="52.851583" lon="-3.368805"><ele>298</ele><time>2020-01-18T09:52:54Z</time><name>PT559</name></trkpt>
<trkpt lat="52.851575" lon="-3.368778"><ele>299</ele><time>2020-01-18T09:52:55Z</time><name>PT560</name></trkpt>
<trkpt lat="52.851565" lon="-3.368755"><ele>298</ele><time>2020-01-18T09:52:56Z</time><name>PT561</name></trkpt>
<trkpt lat="52.851555" lon="-3.368737"><ele>298</ele><time>2020-01-18T09:52:57Z</time><name>PT562</name></trkpt>
<trkpt lat="52.851547" lon="-3.368721"><ele>299</ele><time>2020-01-18T09:52:58Z</time><name>PT563</name></trkpt>
<trkpt lat="52.851538" lon="-3.368706"><ele>298</ele><time>2020-01-18T09:52:59Z</time><name>PT564</name></trkpt>
<trkpt lat="52.851531" lon="-3.368694"><ele>298</ele><time>2020-01-18T09:53:00Z</time><name>PT565</name></trkpt>
<trkpt lat="52.851522" lon="-3.368682"><ele>299</ele><time>2020-01-18T09:53:01Z</time><name>PT566</name></trkpt>
<trkpt lat="52.851516" lon="-3.368671"><ele>299</ele><time>2020-01-18T09:53:02Z</time><name>PT567</name></trkpt>
<trkpt lat="52.851507" lon="-3.368651"><ele>299</ele><time>2020-01-18T09:53:03Z</time><name>PT568</name></trkpt>
<trkpt lat="52.851500" lon="-3.368627"><ele>300</ele><time>2020-01-18T09:53:04Z</time><name>PT569</name></trkpt>
<trkpt lat="52.851494" lon="-3.368608"><ele>299</ele><time>2020-01-18T09:53:05Z</time><name>PT570</name></trkpt>
<trkpt lat="52.851487" lon="-3.368589"><ele>300</ele><time>2020-01-18T09:53:05Z</time><name>PT571</name></trkpt>
<trkpt lat="52.851479" lon="-3.368571"><ele>300</ele><time>2020-01-18T09:53:07Z</time><name>PT572</name></trkpt>
<trkpt lat="52.851473" lon="-3.368553"><ele>300</ele><time>2020-01-18T09:53:08Z</time><name>PT573</name></trkpt>
<trkpt lat="52.851464" lon="-3.368536"><ele>300</ele><time>2020-01-18T09:53:08Z</time><name>PT574</name></trkpt>
<trkpt lat="52.851461" lon="-3.368515"><ele>301</ele><time>2020-01-18T09:53:10Z</time><name>PT575</name></trkpt>
<trkpt lat="52.851460" lon="-3.368499"><ele>301</ele><time>2020-01-18T09:53:11Z</time><name>PT576</name></trkpt>
<trkpt lat="52.851454" lon="-3.368480"><ele>302</ele><time>2020-01-18T09:53:11Z</time><name>PT577</name></trkpt>
<trkpt lat="52.851445" lon="-3.368468"><ele>301</ele><time>2020-01-18T09:53:13Z</time><name>PT578</name></trkpt>
<trkpt lat="52.851436" lon="-3.368443"><ele>302</ele><time>2020-01-18T09:53:14Z</time><name>PT579</name></trkpt>
<trkpt lat="52.851426" lon="-3.368425"><ele>302</ele><time>2020-01-18T09:53:14Z</time><name>PT580</name></trkpt>
<trkpt lat="52.851419" lon="-3.368404"><ele>301</ele><time>2020-01-18T09:53:16Z</time><name>PT581</name></trkpt>
<trkpt lat="52.851413" lon="-3.368384"><ele>301</ele><time>2020-01-18T09:53:17Z</time><name>PT582</name></trkpt>
<trkpt lat="52.851405" lon="-3.368362"><ele>301</ele><time>2020-01-18T09:53:17Z</time><name>PT583</name></trkpt>
<trkpt lat="52.851397" lon="-3.368339"><ele>301</ele><time>2020-01-18T09:53:19Z</time><name>PT584</name></trkpt>
<trkpt lat="52.851394" lon="-3.368318"><ele>301</ele><time>2020-01-18T09:53:20Z</time><name>PT585</name></trkpt>
<trkpt lat="52.851392" lon="-3.368301"><ele>301</ele><time>2020-01-18T09:53:20Z</time><name>PT586</name></trkpt>
<trkpt lat="52.851388" lon="-3.368286"><ele>301</ele><time>2020-01-18T09:53:22Z</time><name>PT587</name></trkpt>
<trkpt lat="52.851380" lon="-3.368265"><ele>302</ele><time>2020-01-18T09:53:23Z</time><name>PT588</name></trkpt>
<trkpt lat="52.851373" lon="-3.368245"><ele>302</ele><time>2020-01-18T09:53:23Z</time><name>PT589</name></trkpt>
<trkpt lat="52.851368" lon="-3.368224"><ele>303</ele><time>2020-01-18T09:53:25Z</time><name>PT590</name></trkpt>
<trkpt lat="52.851363" lon="-3.368206"><ele>303</ele><time>2020-01-18T09:53:26Z</time><name>PT591</name></trkpt>
<trkpt lat="52.851357" lon="-3.368182"><ele>303</ele><time>2020-01-18T09:53:26Z</time><name>PT592</name></trkpt>
<trkpt lat="52.851345" lon="-3.368160"><ele>303</ele><time>2020-01-18T09:53:28Z</time><name>PT593</name></trkpt>
<trkpt lat="52.851337" lon="-3.368145"><ele>303</ele><time>2020-01-18T09:53:29Z</time><name>PT594</name></trkpt>
<trkpt lat="52.851335" lon="-3.368124"><ele>303</ele><time>2020-01-18T09:53:30Z</time><name>PT595</name></trkpt>
<trkpt lat="52.851332" lon="-3.368101"><ele>303</ele><time>2020-01-18T09:53:31Z</time><name>PT596</name></trkpt>
<trkpt lat="52.851323" lon="-3.368070"><ele>303</ele><time>2020-01-18T09:53:32Z</time><name>PT597</name></trkpt>
<trkpt lat="52.851317" lon="-3.368055"><ele>304</ele><time>2020-01-18T09:53:33Z</time><name>PT598</name></trkpt>
<trkpt lat="52.851316" lon="-3.368035"><ele>304</ele><time>2020-01-18T09:53:34Z</time><name>PT599</name></trkpt>
<trkpt lat="52.851315" lon="-3.368015"><ele>304</ele><time>2020-01-18T09:53:35Z</time><name>PT600</name></trkpt>
<trkpt lat="52.851311" lon="-3.367993"><ele>304</ele><time>2020-01-18T09:53:36Z</time><name>PT601</name></trkpt>
<trkpt lat="52.851306" lon="-3.367983"><ele>304</ele><time>2020-01-18T09:53:37Z</time><name>PT602</name></trkpt>
<trkpt lat="52.851311" lon="-3.367972"><ele>305</ele><time>2020-01-18T09:53:38Z</time><name>PT603</name></trkpt>
<trkpt lat="52.851308" lon="-3.367967"><ele>305</ele><time>2020-01-18T09:53:39Z</time><name>PT604</name></trkpt>
<trkpt lat="52.851304" lon="-3.367959"><ele>304</ele><time>2020-01-18T09:53:40Z</time><name>PT605</name></trkpt>
<trkpt lat="52.851297" lon="-3.367947"><ele>304</ele><time>2020-01-18T09:53:41Z</time><name>PT606</name></trkpt>
<trkpt lat="52.851295" lon="-3.367938"><ele>304</ele><time>2020-01-18T09:53:42Z</time><name>PT607</name></trkpt>
<trkpt lat="52.851296" lon="-3.367926"><ele>305</ele><time>2020-01-18T09:53:43Z</time><name>PT608</name></trkpt>
<trkpt lat="52.851293" lon="-3.367904"><ele>305</ele><time>2020-01-18T09:53:44Z</time><name>PT609</name></trkpt>
<trkpt lat="52.851286" lon="-3.367890"><ele>305</ele><time>2020-01-18T09:53:45Z</time><name>PT610</name></trkpt>
<trkpt lat="52.851281" lon="-3.367874"><ele>306</ele><time>2020-01-18T09:53:46Z</time><name>PT611</name></trkpt>
<trkpt lat="52.851278" lon="-3.367852"><ele>304</ele><time>2020-01-18T09:53:47Z</time><name>PT612</name></trkpt>
<trkpt lat="52.851272" lon="-3.367833"><ele>304</ele><time>2020-01-18T09:53:47Z</time><name>PT613</name></trkpt>
<trkpt lat="52.851267" lon="-3.367812"><ele>304</ele><time>2020-01-18T09:53:49Z</time><name>PT614</name></trkpt>
<trkpt lat="52.851261" lon="-3.367791"><ele>303</ele><time>2020-01-18T09:53:50Z</time><name>PT615</name></trkpt>
<trkpt lat="52.851256" lon="-3.367766"><ele>303</ele><time>2020-01-18T09:53:50Z</time><name>PT616</name></trkpt>
<trkpt lat="52.851252" lon="-3.367749"><ele>302</ele><time>2020-01-18T09:53:52Z</time><name>PT617</name></trkpt>
<trkpt lat="52.851246" lon="-3.367730"><ele>302</ele><time>2020-01-18T09:53:53Z</time><name>PT618</name></trkpt>
<trkpt lat="52.851239" lon="-3.367711"><ele>301</ele><time>2020-01-18T09:53:53Z</time><name>PT619</name></trkpt>
<trkpt lat="52.851232" lon="-3.367690"><ele>301</ele><time>2020-01-18T09:53:55Z</time><name>PT620</name></trkpt>
<trkpt lat="52.851229" lon="-3.367678"><ele>301</ele><time>2020-01-18T09:53:56Z</time><name>PT621</name></trkpt>
<trkpt lat="52.851229" lon="-3.367660"><ele>301</ele><time>2020-01-18T09:53:56Z</time><name>PT622</name></trkpt>
<trkpt lat="52.851225" lon="-3.367646"><ele>301</ele><time>2020-01-18T09:53:58Z</time><name>PT623</name></trkpt>
<trkpt lat="52.851223" lon="-3.367632"><ele>301</ele><time>2020-01-18T09:53:59Z</time><name>PT624</name></trkpt>
<trkpt lat="52.851220" lon="-3.367619"><ele>301</ele><time>2020-01-18T09:54:00Z</time><name>PT625</name></trkpt>
<trkpt lat="52.851216" lon="-3.367604"><ele>301</ele><time>2020-01-18T09:54:01Z</time><name>PT626</name></trkpt>
<trkpt lat="52.851211" lon="-3.367587"><ele>302</ele><time>2020-01-18T09:54:02Z</time><name>PT627</name></trkpt>
<trkpt lat="52.851208" lon="-3.367567"><ele>303</ele><time>2020-01-18T09:54:03Z</time><name>PT628</name></trkpt>
<trkpt lat="52.851203" lon="-3.367547"><ele>302</ele><time>2020-01-18T09:54:04Z</time><name>PT629</name></trkpt>
<trkpt lat="52.851205" lon="-3.367538"><ele>304</ele><time>2020-01-18T09:54:05Z</time><name>PT630</name></trkpt>
<trkpt lat="52.851205" lon="-3.367532"><ele>305</ele><time>2020-01-18T09:54:05Z</time><name>PT631</name></trkpt>
<trkpt lat="52.851207" lon="-3.367530"><ele>306</ele><time>2020-01-18T09:54:07Z</time><name>PT632</name></trkpt>
<trkpt lat="52.851213" lon="-3.367530"><ele>306</ele><time>2020-01-18T09:54:08Z</time><name>PT633</name></trkpt>
<trkpt lat="52.851221" lon="-3.367528"><ele>306</ele><time>2020-01-18T09:54:08Z</time><name>PT634</name></trkpt>
<trkpt lat="52.851231" lon="-3.367526"><ele>308</ele><time>2020-01-18T09:54:10Z</time><name>PT635</name></trkpt>
<trkpt lat="52.851242" lon="-3.367527"><ele>309</ele><time>2020-01-18T09:54:11Z</time><name>PT636</name></trkpt>
<trkpt lat="52.851249" lon="-3.367530"><ele>309</ele><time>2020-01-18T09:54:11Z</time><name>PT637</name></trkpt>
<trkpt lat="52.851254" lon="-3.367535"><ele>309</ele><time>2020-01-18T09:54:13Z</time><name>PT638</name></trkpt>
<trkpt lat="52.851262" lon="-3.367535"><ele>309</ele><time>2020-01-18T09:54:14Z</time><name>PT639</name></trkpt>
<trkpt lat="52.851269" lon="-3.367537"><ele>309</ele><time>2020-01-18T09:54:15Z</time><name>PT640</name></trkpt>
<trkpt lat="52.851274" lon="-3.367542"><ele>309</ele><time>2020-01-18T09:54:16Z</time><name>PT641</name></trkpt>
<trkpt lat="52.851283" lon="-3.367542"><ele>309</ele><time>2020-01-18T09:54:17Z</time><name>PT642</name></trkpt>
<trkpt lat="52.851293" lon="-3.367539"><ele>310</ele><time>2020-01-18T09:54:17Z</time><name>PT643</name></trkpt>
<trkpt lat="52.851297" lon="-3.367537"><ele>310</ele><time>2020-01-18T09:54:19Z</time><name>PT644</name></trkpt>
<trkpt lat="52.851304" lon="-3.367533"><ele>311</ele><time>2020-01-18T09:54:20Z</time><name>PT645</name></trkpt>
<trkpt lat="52.851310" lon="-3.367537"><ele>312</ele><time>2020-01-18T09:54:21Z</time><name>PT646</name></trkpt>
<trkpt lat="52.851305" lon="-3.367541"><ele>312</ele><time>2020-01-18T09:54:22Z</time><name>PT647</name></trkpt>
<trkpt lat="52.851302" lon="-3.367548"><ele>312</ele><time>2020-01-18T09:54:23Z</time><name>PT648</name></trkpt>
<trkpt lat="52.851298" lon="-3.367540"><ele>312</ele><time>2020-01-18T09:54:46Z</time><name>PT649</name></trkpt>
<trkpt lat="52.851296" lon="-3.367532"><ele>312</ele><time>2020-01-18T09:54:47Z</time><name>PT650</name></trkpt>
<trkpt lat="52.851294" lon="-3.367520"><ele>311</ele><time>2020-01-18T09:54:48Z</time><name>PT651</name></trkpt>
<trkpt lat="52.851291" lon="-3.367509"><ele>311</ele><time>2020-01-18T09:54:49Z</time><name>PT652</name></trkpt>
<trkpt lat="52.851288" lon="-3.367510"><ele>311</ele><time>2020-01-18T09:54:50Z</time><name>PT653</name></trkpt>
<trkpt lat="52.851289" lon="-3.367508"><ele>311</ele><time>2020-01-18T09:54:51Z</time><name>PT654</name></trkpt>
<trkpt lat="52.851288" lon="-3.367504"><ele>311</ele><time>2020-01-18T09:54:52Z</time><name>PT655</name></trkpt>
<trkpt lat="52.851288" lon="-3.367506"><ele>311</ele><time>2020-01-18T09:54:53Z</time><name>PT656</name></trkpt>
<trkpt lat="52.851290" lon="-3.367501"><ele>312</ele><time>2020-01-18T09:54:53Z</time><name>PT657</name></trkpt>
<trkpt lat="52.851292" lon="-3.367507"><ele>312</ele><time>2020-01-18T09:54:55Z</time><name>PT658</name></trkpt>
<trkpt lat="52.851292" lon="-3.367511"><ele>312</ele><time>2020-01-18T09:54:56Z</time><name>PT659</name></trkpt>
<trkpt lat="52.851300" lon="-3.367521"><ele>312</ele><time>2020-01-18T09:54:57Z</time><name>PT660</name></trkpt>
<trkpt lat="52.851303" lon="-3.367523"><ele>312</ele><time>2020-01-18T09:54:58Z</time><name>PT661</name></trkpt>
<trkpt lat="52.851305" lon="-3.367518"><ele>313</ele><time>2020-01-18T09:54:59Z</time><name>PT662</name></trkpt>
<trkpt lat="52.851307" lon="-3.367522"><ele>313</ele><time>2020-01-18T09:55:00Z</time><name>PT663</name></trkpt>
<trkpt lat="52.851308" lon="-3.367527"><ele>313</ele><time>2020-01-18T09:55:01Z</time><name>PT664</name></trkpt>
<trkpt lat="52.851307" lon="-3.367532"><ele>313</ele><time>2020-01-18T09:55:02Z</time><name>PT665</name></trkpt>
<trkpt lat="52.851309" lon="-3.367535"><ele>314</ele><time>2020-01-18T09:55:02Z</time><name>PT666</name></trkpt>
<trkpt lat="52.851310" lon="-3.367537"><ele>314</ele><time>2020-01-18T09:55:04Z</time><name>PT667</name></trkpt>
<trkpt lat="52.851308" lon="-3.367542"><ele>314</ele><time>2020-01-18T09:55:05Z</time><name>PT668</name></trkpt>
<trkpt lat="52.851304" lon="-3.367550"><ele>315</ele><time>2020-01-18T09:55:05Z</time><name>PT669</name></trkpt>
<trkpt lat="52.851306" lon="-3.367550"><ele>315</ele><time>2020-01-18T09:55:07Z</time><name>PT670</name></trkpt>
<trkpt lat="52.851302" lon="-3.367551"><ele>315</ele><time>2020-01-18T09:55:08Z</time><name>PT671</name></trkpt>
<trkpt lat="52.851304" lon="-3.367548"><ele>316</ele><time>2020-01-18T09:55:08Z</time><name>PT672</name></trkpt>
<trkpt lat="52.851304" lon="-3.367548"><ele>317</ele><time>2020-01-18T09:55:10Z</time><name>PT673</name></trkpt>
<trkpt lat="52.851308" lon="-3.367539"><ele>316</ele><time>2020-01-18T09:55:11Z</time><name>PT674</name></trkpt>
<trkpt lat="52.851308" lon="-3.367534"><ele>315</ele><time>2020-01-18T09:55:11Z</time><name>PT675</name></trkpt>
<trkpt lat="52.851316" lon="-3.367533"><ele>316</ele><time>2020-01-18T09:55:13Z</time><name>PT676</name></trkpt>
<trkpt lat="52.851318" lon="-3.367536"><ele>316</ele><time>2020-01-18T09:55:14Z</time><name>PT677</name></trkpt>
<trkpt lat="52.851321" lon="-3.367535"><ele>315</ele><time>2020-01-18T09:55:14Z</time><name>PT678</name></trkpt>
<trkpt lat="52.851324" lon="-3.367538"><ele>316</ele><time>2020-01-18T09:55:16Z</time><name>PT679</name></trkpt>
<trkpt lat="52.851320" lon="-3.367534"><ele>316</ele><time>2020-01-18T09:55:17Z</time><name>PT680</name></trkpt>
<trkpt lat="52.851329" lon="-3.367533"><ele>318</ele><time>2020-01-18T09:55:18Z</time><name>PT681</name></trkpt>
<trkpt lat="52.851337" lon="-3.367536"><ele>318</ele><time>2020-01-18T09:55:19Z</time><name>PT682</name></trkpt>
<trkpt lat="52.851343" lon="-3.367543"><ele>318</ele><time>2020-01-18T09:55:20Z</time><name>PT683</name></trkpt>
<trkpt lat="52.851341" lon="-3.367540"><ele>317</ele><time>2020-01-18T09:55:20Z</time><name>PT684</name></trkpt>
<trkpt lat="52.851341" lon="-3.367542"><ele>317</ele><time>2020-01-18T09:55:22Z</time><name>PT685</name></trkpt>
<trkpt lat="52.851340" lon="-3.367543"><ele>317</ele><time>2020-01-18T09:55:23Z</time><name>PT686</name></trkpt>
<trkpt lat="52.851337" lon="-3.367543"><ele>318</ele><time>2020-01-18T09:55:23Z</time><name>PT687</name></trkpt>
<trkpt lat="52.851333" lon="-3.367540"><ele>318</ele><time>2020-01-18T09:55:32Z</time><name>PT688</name></trkpt>
<trkpt lat="52.851332" lon="-3.367540"><ele>317</ele><time>2020-01-18T09:55:34Z</time><name>PT689</name></trkpt>
<trkpt lat="52.851333" lon="-3.367543"><ele>318</ele><time>2020-01-18T09:55:35Z</time><name>PT690</name></trkpt>
<trkpt lat="52.851325" lon="-3.367541"><ele>318</ele><time>2020-01-18T09:55:37Z</time><name>PT691</name></trkpt>
<trkpt lat="52.851323" lon="-3.367542"><ele>317</ele><time>2020-01-18T09:55:38Z</time><name>PT692</name></trkpt>
<trkpt lat="52.851321" lon="-3.367538"><ele>317</ele><time>2020-01-18T09:55:38Z</time><name>PT693</name></trkpt>
<trkpt lat="52.851319" lon="-3.367540"><ele>317</ele><time>2020-01-18T09:55:40Z</time><name>PT694</name></trkpt>
<trkpt lat="52.851322" lon="-3.367542"><ele>317</ele><time>2020-01-18T09:55:41Z</time><name>PT695</name></trkpt>
<trkpt lat="52.851327" lon="-3.367549"><ele>316</ele><time>2020-01-18T09:55:41Z</time><name>PT696</name></trkpt>
<trkpt lat="52.851342" lon="-3.367554"><ele>316</ele><time>2020-01-18T09:55:43Z</time><name>PT697</name></trkpt>
<trkpt lat="52.851345" lon="-3.367566"><ele>316</ele><time>2020-01-18T09:55:44Z</time><name>PT698</name></trkpt>
<trkpt lat="52.851348" lon="-3.367581"><ele>316</ele><time>2020-01-18T09:55:44Z</time><name>PT699</name></trkpt>
<trkpt lat="52.851357" lon="-3.367596"><ele>316</ele><time>2020-01-18T09:55:46Z</time><name>PT700</name></trkpt>
<trkpt lat="52.851361" lon="-3.367618"><ele>316</ele><time>2020-01-18T09:55:47Z</time><name>PT701</name></trkpt>
<trkpt lat="52.851366" lon="-3.367641"><ele>317</ele><time>2020-01-18T09:55:47Z</time><name>PT702</name></trkpt>
<trkpt lat="52.851374" lon="-3.367655"><ele>316</ele><time>2020-01-18T09:55:49Z</time><name>PT703</name></trkpt>
<trkpt lat="52.851379" lon="-3.367668"><ele>316</ele><time>2020-01-18T09:55:50Z</time><name>PT704</name></trkpt>
<trkpt lat="52.851382" lon="-3.367687"><ele>316</ele><time>2020-01-18T09:55:50Z</time><name>PT705</name></trkpt>
<trkpt lat="52.851391" lon="-3.367699"><ele>315</ele><time>2020-01-18T09:55:52Z</time><name>PT706</name></trkpt>
<trkpt lat="52.851399" lon="-3.367717"><ele>315</ele><time>2020-01-18T09:55:53Z</time><name>PT707</name></trkpt>
<trkpt lat="52.851405" lon="-3.367734"><ele>314</ele><time>2020-01-18T09:55:53Z</time><name>PT708</name></trkpt>
<trkpt lat="52.851415" lon="-3.367750"><ele>314</ele><time>2020-01-18T09:55:55Z</time><name>PT709</name></trkpt>
<trkpt lat="52.851422" lon="-3.367767"><ele>314</ele><time>2020-01-18T09:55:56Z</time><name>PT710</name></trkpt>
<trkpt lat="52.851427" lon="-3.367777"><ele>314</ele><time>2020-01-18T09:55:56Z</time><name>PT711</name></trkpt>
<trkpt lat="52.851432" lon="-3.367798"><ele>314</ele><time>2020-01-18T09:55:58Z</time><name>PT712</name></trkpt>
<trkpt lat="52.851439" lon="-3.367817"><ele>314</ele><time>2020-01-18T09:55:59Z</time><name>PT713</name></trkpt>
<trkpt lat="52.851443" lon="-3.367833"><ele>314</ele><time>2020-01-18T09:55:59Z</time><name>PT714</name></trkpt>
<trkpt lat="52.851447" lon="-3.367856"><ele>315</ele><time>2020-01-18T09:56:01Z</time><name>PT715</name></trkpt>
<trkpt lat="52.851453" lon="-3.367874"><ele>315</ele><time>2020-01-18T09:56:02Z</time><name>PT716</name></trkpt>
<trkpt lat="52.851457" lon="-3.367889"><ele>315</ele><time>2020-01-18T09:56:03Z</time><name>PT717</name></trkpt>
<trkpt lat="52.851463" lon="-3.367908"><ele>315</ele><time>2020-01-18T09:56:04Z</time><name>PT718</name></trkpt>
<trkpt lat="52.851470" lon="-3.367928"><ele>316</ele><time>2020-01-18T09:56:05Z</time><name>PT719</name></trkpt>
<trkpt lat="52.851474" lon="-3.367946"><ele>316</ele><time>2020-01-18T09:56:06Z</time><name>PT720</name></trkpt>
<trkpt lat="52.851474" lon="-3.367971"><ele>317</ele><time>2020-01-18T09:56:07Z</time><name>PT721</name></trkpt>
<trkpt lat="52.851479" lon="-3.367990"><ele>317</ele><time>2020-01-18T09:56:08Z</time><name>PT722</name></trkpt>
<trkpt lat="52.851482" lon="-3.368009"><ele>318</ele><time>2020-01-18T09:56:08Z</time><name>PT723</name></trkpt>
<trkpt lat="52.851488" lon="-3.368026"><ele>318</ele><time>2020-01-18T09:56:10Z</time><name>PT724</name></trkpt>
<trkpt lat="52.851494" lon="-3.368050"><ele>319</ele><time>2020-01-18T09:56:11Z</time><name>PT725</name></trkpt>
<trkpt lat="52.851503" lon="-3.368068"><ele>318</ele><time>2020-01-18T09:56:12Z</time><name>PT726</name></trkpt>
<trkpt lat="52.851508" lon="-3.368086"><ele>318</ele><time>2020-01-18T09:56:13Z</time><name>PT727</name></trkpt>
<trkpt lat="52.851513" lon="-3.368110"><ele>319</ele><time>2020-01-18T09:56:14Z</time><name>PT728</name></trkpt>
<trkpt lat="52.851517" lon="-3.368130"><ele>319</ele><time>2020-01-18T09:56:14Z</time><name>PT729</name></trkpt>
<trkpt lat="52.851519" lon="-3.368149"><ele>319</ele><time>2020-01-18T09:56:16Z</time><name>PT730</name></trkpt>
<trkpt lat="52.851525" lon="-3.368173"><ele>319</ele><time>2020-01-18T09:56:17Z</time><name>PT731</name></trkpt>
<trkpt lat="52.851530" lon="-3.368189"><ele>318</ele><time>2020-01-18T09:56:18Z</time><name>PT732</name></trkpt>
<trkpt lat="52.851551" lon="-3.368201"><ele>316</ele><time>2020-01-18T09:56:19Z</time><name>PT733</name></trkpt>
<trkpt lat="52.851554" lon="-3.368220"><ele>315</ele><time>2020-01-18T09:56:20Z</time><name>PT734</name></trkpt>
<trkpt lat="52.851563" lon="-3.368238"><ele>315</ele><time>2020-01-18T09:56:21Z</time><name>PT735</name></trkpt>
<trkpt lat="52.851570" lon="-3.368258"><ele>315</ele><time>2020-01-18T09:56:22Z</time><name>PT736</name></trkpt>
<trkpt lat="52.851577" lon="-3.368273"><ele>315</ele><time>2020-01-18T09:56:23Z</time><name>PT737</name></trkpt>
<trkpt lat="52.851583" lon="-3.368293"><ele>315</ele><time>2020-01-18T09:56:24Z</time><name>PT738</name></trkpt>
<trkpt lat="52.851590" lon="-3.368310"><ele>315</ele><time>2020-01-18T09:56:25Z</time><name>PT739</name></trkpt>
<trkpt lat="52.851592" lon="-3.368325"><ele>314</ele><time>2020-01-18T09:56:26Z</time><name>PT740</name></trkpt>
<trkpt lat="52.851600" lon="-3.368349"><ele>314</ele><time>2020-01-18T09:56:26Z</time><name>PT741</name></trkpt>
<trkpt lat="52.851608" lon="-3.368364"><ele>314</ele><time>2020-01-18T09:56:28Z</time><name>PT742</name></trkpt>
<trkpt lat="52.851616" lon="-3.368384"><ele>314</ele><time>2020-01-18T09:56:29Z</time><name>PT743</name></trkpt>
<trkpt lat="52.851625" lon="-3.368410"><ele>315</ele><time>2020-01-18T09:56:29Z</time><name>PT744</name></trkpt>
<trkpt lat="52.851632" lon="-3.368434"><ele>316</ele><time>2020-01-18T09:56:31Z</time><name>PT745</name></trkpt>
<trkpt lat="52.851642" lon="-3.368452"><ele>316</ele><time>2020-01-18T09:56:32Z</time><name>PT746</name></trkpt>
<trkpt lat="52.851651" lon="-3.368466"><ele>316</ele><time>2020-01-18T09:56:33Z</time><name>PT747</name></trkpt>
<trkpt lat="52.851660" lon="-3.368487"><ele>317</ele><time>2020-01-18T09:56:34Z</time><name>PT748</name></trkpt>
<trkpt lat="52.851669" lon="-3.368503"><ele>317</ele><time>2020-01-18T09:56:35Z</time><name>PT749</name></trkpt>
<trkpt lat="52.851677" lon="-3.368521"><ele>317</ele><time>2020-01-18T09:56:36Z</time><name>PT750</name></trkpt>
<trkpt lat="52.851687" lon="-3.368536"><ele>317</ele><time>2020-01-18T09:56:37Z</time><name>PT751</name></trkpt>
<trkpt lat="52.851697" lon="-3.368557"><ele>318</ele><time>2020-01-18T09:56:38Z</time><name>PT752</name></trkpt>
<trkpt lat="52.851710" lon="-3.368571"><ele>318</ele><time>2020-01-18T09:56:39Z</time><name>PT753</name></trkpt>
<trkpt lat="52.851720" lon="-3.368588"><ele>318</ele><time>2020-01-18T09:56:40Z</time><name>PT754</name></trkpt>
<trkpt lat="52.851729" lon="-3.368603"><ele>318</ele><time>2020-01-18T09:56:41Z</time><name>PT755</name></trkpt>
<trkpt lat="52.851739" lon="-3.368621"><ele>318</ele><time>2020-01-18T09:56:41Z</time><name>PT756</name></trkpt>
<trkpt lat="52.851747" lon="-3.368639"><ele>318</ele><time>2020-01-18T09:56:43Z</time><name>PT757</name></trkpt>
<trkpt lat="52.851756" lon="-3.368653"><ele>318</ele><time>2020-01-18T09:56:44Z</time><name>PT758</name></trkpt>
<trkpt lat="52.851765" lon="-3.368669"><ele>318</ele><time>2020-01-18T09:56:45Z</time><name>PT759</name></trkpt>
<trkpt lat="52.851777" lon="-3.368684"><ele>318</ele><time>2020-01-18T09:56:46Z</time><name>PT760</name></trkpt>
<trkpt lat="52.851787" lon="-3.368700"><ele>318</ele><time>2020-01-18T09:56:47Z</time><name>PT761</name></trkpt>
<trkpt lat="52.851798" lon="-3.368714"><ele>318</ele><time>2020-01-18T09:56:48Z</time><name>PT762</name></trkpt>
<trkpt lat="52.851810" lon="-3.368734"><ele>319</ele><time>2020-01-18T09:56:49Z</time><name>PT763</name></trkpt>
<trkpt lat="52.851820" lon="-3.368753"><ele>319</ele><time>2020-01-18T09:56:50Z</time><name>PT764</name></trkpt>
<trkpt lat="52.851828" lon="-3.368763"><ele>318</ele><time>2020-01-18T09:56:51Z</time><name>PT765</name></trkpt>
<trkpt lat="52.851839" lon="-3.368779"><ele>319</ele><time>2020-01-18T09:56:52Z</time><name>PT766</name></trkpt>
<trkpt lat="52.851849" lon="-3.368798"><ele>319</ele><time>2020-01-18T09:56:53Z</time><name>PT767</name></trkpt>
<trkpt lat="52.851858" lon="-3.368809"><ele>319</ele><time>2020-01-18T09:56:53Z</time><name>PT768</name></trkpt>
<trkpt lat="52.851866" lon="-3.368828"><ele>320</ele><time>2020-01-18T09:56:55Z</time><name>PT769</name></trkpt>
<trkpt lat="52.851873" lon="-3.368844"><ele>320</ele><time>2020-01-18T09:56:56Z</time><name>PT770</name></trkpt>
<trkpt lat="52.851879" lon="-3.368852"><ele>319</ele><time>2020-01-18T09:56:56Z</time><name>PT771</name></trkpt>
<trkpt lat="52.851886" lon="-3.368869"><ele>320</ele><time>2020-01-18T09:56:58Z</time><name>PT772</name></trkpt>
<trkpt lat="52.851894" lon="-3.368891"><ele>319</ele><time>2020-01-18T09:56:59Z</time><name>PT773</name></trkpt>
<trkpt lat="52.851904" lon="-3.368918"><ele>320</ele><time>2020-01-18T09:56:59Z</time><name>PT774</name></trkpt>
<trkpt lat="52.851906" lon="-3.368932"><ele>319</ele><time>2020-01-18T09:57:01Z</time><name>PT775</name></trkpt>
<trkpt lat="52.851912" lon="-3.368950"><ele>319</ele><time>2020-01-18T09:57:02Z</time><name>PT776</name></trkpt>
<trkpt lat="52.851920" lon="-3.368965"><ele>319</ele><time>2020-01-18T09:57:02Z</time><name>PT777</name></trkpt>
<trkpt lat="52.851928" lon="-3.368981"><ele>319</ele><time>2020-01-18T09:57:04Z</time><name>PT778</name></trkpt>
<trkpt lat="52.851937" lon="-3.368997"><ele>319</ele><time>2020-01-18T09:57:05Z</time><name>PT779</name></trkpt>
<trkpt lat="52.851947" lon="-3.369013"><ele>319</ele><time>2020-01-18T09:57:05Z</time><name>PT780</name></trkpt>
<trkpt lat="52.851956" lon="-3.369030"><ele>319</ele><time>2020-01-18T09:57:07Z</time><name>PT781</name></trkpt>
<trkpt lat="52.851965" lon="-3.369045"><ele>319</ele><time>2020-01-18T09:57:08Z</time><name>PT782</name></trkpt>
<trkpt lat="52.851974" lon="-3.369064"><ele>319</ele><time>2020-01-18T09:57:08Z</time><name>PT783</name></trkpt>
<trkpt lat="52.851983" lon="-3.369080"><ele>319</ele><time>2020-01-18T09:57:10Z</time><name>PT784</name></trkpt>
<trkpt lat="52.851986" lon="-3.369090"><ele>318</ele><time>2020-01-18T09:57:11Z</time><name>PT785</name></trkpt>
<trkpt lat="52.851994" lon="-3.369107"><ele>318</ele><time>2020-01-18T09:57:11Z</time><name>PT786</name></trkpt>
<trkpt lat="52.852003" lon="-3.369118"><ele>318</ele><time>2020-01-18T09:57:13Z</time><name>PT787</name></trkpt>
<trkpt lat="52.852014" lon="-3.369133"><ele>319</ele><time>2020-01-18T09:57:14Z</time><name>PT788</name></trkpt>
<trkpt lat="52.852021" lon="-3.369143"><ele>318</ele><time>2020-01-18T09:57:14Z</time><name>PT789</name></trkpt>
<trkpt lat="52.852027" lon="-3.369158"><ele>317</ele><time>2020-01-18T09:57:16Z</time><name>PT790</name></trkpt>
<trkpt lat="52.852035" lon="-3.369181"><ele>318</ele><time>2020-01-18T09:57:17Z</time><name>PT791</name></trkpt>
<trkpt lat="52.852046" lon="-3.369186"><ele>317</ele><time>2020-01-18T09:57:17Z</time><name>PT792</name></trkpt>
<trkpt lat="52.852055" lon="-3.369203"><ele>317</ele><time>2020-01-18T09:57:19Z</time><name>PT793</name></trkpt>
<trkpt lat="52.852061" lon="-3.369221"><ele>317</ele><time>2020-01-18T09:57:20Z</time><name>PT794</name></trkpt>
<trkpt lat="52.852070" lon="-3.369238"><ele>317</ele><time>2020-01-18T09:57:20Z</time><name>PT795</name></trkpt>
<trkpt lat="52.852080" lon="-3.369256"><ele>317</ele><time>2020-01-18T09:57:22Z</time><name>PT796</name></trkpt>
<trkpt lat="52.852089" lon="-3.369275"><ele>318</ele><time>2020-01-18T09:57:23Z</time><name>PT797</name></trkpt>
<trkpt lat="52.852100" lon="-3.369295"><ele>318</ele><time>2020-01-18T09:57:23Z</time><name>PT798</name></trkpt>
<trkpt lat="52.852110" lon="-3.369312"><ele>318</ele><time>2020-01-18T09:57:25Z</time><name>PT799</name></trkpt>
<trkpt lat="52.852119" lon="-3.369330"><ele>319</ele><time>2020-01-18T09:57:26Z</time><name>PT800</name></trkpt>
<trkpt lat="52.852126" lon="-3.369348"><ele>319</ele><time>2020-01-18T09:57:26Z</time><name>PT801</name></trkpt>
<trkpt lat="52.852135" lon="-3.369363"><ele>319</ele><time>2020-01-18T09:57:28Z</time><name>PT802</name></trkpt>
<trkpt lat="52.852145" lon="-3.369376"><ele>319</ele><time>2020-01-18T09:57:29Z</time><name>PT803</name></trkpt>
<trkpt lat="52.852155" lon="-3.369389"><ele>319</ele><time>2020-01-18T09:57:29Z</time><name>PT804</name></trkpt>
<trkpt lat="52.852159" lon="-3.369403"><ele>317</ele><time>2020-01-18T09:57:31Z</time><name>PT805</name></trkpt>
<trkpt lat="52.852169" lon="-3.369413"><ele>317</ele><time>2020-01-18T09:57:32Z</time><name>PT806</name></trkpt>
<trkpt lat="52.852179" lon="-3.369432"><ele>317</ele><time>2020-01-18T09:57:32Z</time><name>PT807</name></trkpt>
<trkpt lat="52.852187" lon="-3.369444"><ele>316</ele><time>2020-01-18T09:57:34Z</time><name>PT808</name></trkpt>
<trkpt lat="52.852196" lon="-3.369465"><ele>316</ele><time>2020-01-18T09:57:35Z</time><name>PT809</name></trkpt>
<trkpt lat="52.852206" lon="-3.369481"><ele>316</ele><time>2020-01-18T09:57:36Z</time><name>PT810</name></trkpt>
<trkpt lat="52.852218" lon="-3.369497"><ele>317</ele><time>2020-01-18T09:57:37Z</time><name>PT811</name></trkpt>
<trkpt lat="52.852231" lon="-3.369512"><ele>318</ele><time>2020-01-18T09:57:38Z</time><name>PT812</name></trkpt>
<trkpt lat="52.852239" lon="-3.369523"><ele>317</ele><time>2020-01-18T09:57:39Z</time><name>PT813</name></trkpt>
<trkpt lat="52.852250" lon="-3.369535"><ele>317</ele><time>2020-01-18T09:57:40Z</time><name>PT814</name></trkpt>
<trkpt lat="52.852262" lon="-3.369552"><ele>317</ele><time>2020-01-18T09:57:41Z</time><name>PT815</name></trkpt>
<trkpt lat="52.852273" lon="-3.369565"><ele>317</ele><time>2020-01-18T09:57:42Z</time><name>PT816</name></trkpt>
<trkpt lat="52.852283" lon="-3.369576"><ele>317</ele><time>2020-01-18T09:57:43Z</time><name>PT817</name></trkpt>
<trkpt lat="52.852297" lon="-3.369593"><ele>318</ele><time>2020-01-18T09:57:44Z</time><name>PT818</name></trkpt>
<trkpt lat="52.852308" lon="-3.369604"><ele>317</ele><time>2020-01-18T09:57:44Z</time><name>PT819</name></trkpt>
<trkpt lat="52.852318" lon="-3.369612"><ele>317</ele><time>2020-01-18T09:57:46Z</time><name>PT820</name></trkpt>
<trkpt lat="52.852327" lon="-3.369623"><ele>316</ele><time>2020-01-18T09:57:47Z</time><name>PT821</name></trkpt>
<trkpt lat="52.852335" lon="-3.369629"><ele>314</ele><time>2020-01-18T09:57:48Z</time><name>PT822</name></trkpt>
<trkpt lat="52.852345" lon="-3.369641"><ele>314</ele><time>2020-01-18T09:57:49Z</time><name>PT823</name></trkpt>
<trkpt lat="52.852356" lon="-3.369661"><ele>315</ele><time>2020-01-18T09:57:50Z</time><name>PT824</name></trkpt>
<trkpt lat="52.852366" lon="-3.369668"><ele>314</ele><time>2020-01-18T09:57:51Z</time><name>PT825</name></trkpt>
<trkpt lat="52.852376" lon="-3.369681"><ele>314</ele><time>2020-01-18T09:57:52Z</time><name>PT826</name></trkpt>
<trkpt lat="52.852388" lon="-3.369696"><ele>314</ele><time>2020-01-18T09:57:53Z</time><name>PT827</name></trkpt>
<trkpt lat="52.852398" lon="-3.369712"><ele>315</ele><time>2020-01-18T09:57:54Z</time><name>PT828</name></trkpt>
<trkpt lat="52.852408" lon="-3.369729"><ele>315</ele><time>2020-01-18T09:57:55Z</time><name>PT829</name></trkpt>
<trkpt lat="52.852418" lon="-3.369750"><ele>316</ele><time>2020-01-18T09:57:56Z</time><name>PT830</name></trkpt>
<trkpt lat="52.852427" lon="-3.369766"><ele>316</ele><time>2020-01-18T09:57:57Z</time><name>PT831</name></trkpt>
<trkpt lat="52.852438" lon="-3.369782"><ele>316</ele><time>2020-01-18T09:57:58Z</time><name>PT832</name></trkpt>
<trkpt lat="52.852449" lon="-3.369796"><ele>316</ele><time>2020-01-18T09:57:59Z</time><name>PT833</name></trkpt>
<trkpt lat="52.852459" lon="-3.369807"><ele>316</ele><time>2020-01-18T09:57:59Z</time><name>PT834</name></trkpt>
<trkpt lat="52.852468" lon="-3.369815"><ele>316</ele><time>2020-01-18T09:58:01Z</time><name>PT835</name></trkpt>
<trkpt lat="52.852479" lon="-3.369820"><ele>316</ele><time>2020-01-18T09:58:02Z</time><name>PT836</name></trkpt>
<trkpt lat="52.852491" lon="-3.369830"><ele>316</ele><time>2020-01-18T09:58:02Z</time><name>PT837</name></trkpt>
<trkpt lat="52.852501" lon="-3.369836"><ele>316</ele><time>2020-01-18T09:58:04Z</time><name>PT838</name></trkpt>
<trkpt lat="52.852512" lon="-3.369847"><ele>317</ele><time>2020-01-18T09:58:05Z</time><name>PT839</name></trkpt>
<trkpt lat="52.852523" lon="-3.369855"><ele>317</ele><time>2020-01-18T09:58:05Z</time><name>PT840</name></trkpt>
<trkpt lat="52.852534" lon="-3.369874"><ele>318</ele><time>2020-01-18T09:58:07Z</time><name>PT841</name></trkpt>
<trkpt lat="52.852546" lon="-3.369885"><ele>318</ele><time>2020-01-18T09:58:08Z</time><name>PT842</name></trkpt>
<trkpt lat="52.852558" lon="-3.369899"><ele>319</ele><time>2020-01-18T09:58:08Z</time><name>PT843</name></trkpt>
<trkpt lat="52.852568" lon="-3.369909"><ele>318</ele><time>2020-01-18T09:58:10Z</time><name>PT844</name></trkpt>
<trkpt lat="52.852584" lon="-3.369914"><ele>318</ele><time>2020-01-18T09:58:11Z</time><name>PT845</name></trkpt>
<trkpt lat="52.852594" lon="-3.369915"><ele>318</ele><time>2020-01-18T09:58:11Z</time><name>PT846</name></trkpt>
<trkpt lat="52.852607" lon="-3.369927"><ele>320</ele><time>2020-01-18T09:58:13Z</time><name>PT847</name></trkpt>
<trkpt lat="52.852621" lon="-3.369927"><ele>318</ele><time>2020-01-18T09:58:14Z</time><name>PT848</name></trkpt>
<trkpt lat="52.852634" lon="-3.369934"><ele>318</ele><time>2020-01-18T09:58:14Z</time><name>PT849</name></trkpt>
<trkpt lat="52.852642" lon="-3.369941"><ele>319</ele><time>2020-01-18T09:58:16Z</time><name>PT850</name></trkpt>
<trkpt lat="52.852654" lon="-3.369954"><ele>319</ele><time>2020-01-18T09:58:17Z</time><name>PT851</name></trkpt>
<trkpt lat="52.852664" lon="-3.369968"><ele>320</ele><time>2020-01-18T09:58:17Z</time><name>PT852</name></trkpt>
<trkpt lat="52.852675" lon="-3.369973"><ele>320</ele><time>2020-01-18T09:58:19Z</time><name>PT853</name></trkpt>
<trkpt lat="52.852683" lon="-3.369982"><ele>320</ele><time>2020-01-18T09:58:20Z</time><name>PT854</name></trkpt>
<trkpt lat="52.852692" lon="-3.369990"><ele>321</ele><time>2020-01-18T09:58:20Z</time><name>PT855</name></trkpt>
<trkpt lat="52.852703" lon="-3.369993"><ele>320</ele><time>2020-01-18T09:58:22Z</time><name>PT856</name></trkpt>
<trkpt lat="52.852714" lon="-3.370002"><ele>321</ele><time>2020-01-18T09:58:23Z</time><name>PT857</name></trkpt>
<trkpt lat="52.852722" lon="-3.370017"><ele>322</ele><time>2020-01-18T09:58:24Z</time><name>PT858</name></trkpt>
<trkpt lat="52.852732" lon="-3.370025"><ele>322</ele><time>2020-01-18T09:58:25Z</time><name>PT859</name></trkpt>
<trkpt lat="52.852743" lon="-3.370028"><ele>321</ele><time>2020-01-18T09:58:26Z</time><name>PT860</name></trkpt>
<trkpt lat="52.852752" lon="-3.370032"><ele>321</ele><time>2020-01-18T09:58:26Z</time><name>PT861</name></trkpt>
<trkpt lat="52.852759" lon="-3.370033"><ele>320</ele><time>2020-01-18T09:58:28Z</time><name>PT862</name></trkpt>
<trkpt lat="52.852770" lon="-3.370043"><ele>320</ele><time>2020-01-18T09:58:29Z</time><name>PT863</name></trkpt>
<trkpt lat="52.852777" lon="-3.370046"><ele>321</ele><time>2020-01-18T09:58:30Z</time><name>PT864</name></trkpt>
<trkpt lat="52.852783" lon="-3.370055"><ele>322</ele><time>2020-01-18T09:58:31Z</time><name>PT865</name></trkpt>
<trkpt lat="52.852789" lon="-3.370060"><ele>322</ele><time>2020-01-18T09:58:32Z</time><name>PT866</name></trkpt>
<trkpt lat="52.852792" lon="-3.370065"><ele>323</ele><time>2020-01-18T09:58:32Z</time><name>PT867</name></trkpt>
<trkpt lat="52.852798" lon="-3.370062"><ele>323</ele><time>2020-01-18T09:58:34Z</time><name>PT868</name></trkpt>
<trkpt lat="52.852805" lon="-3.370067"><ele>323</ele><time>2020-01-18T09:58:35Z</time><name>PT869</name></trkpt>
<trkpt lat="52.852812" lon="-3.370068"><ele>323</ele><time>2020-01-18T09:58:36Z</time><name>PT870</name></trkpt>
<trkpt lat="52.852819" lon="-3.370070"><ele>323</ele><time>2020-01-18T09:58:37Z</time><name>PT871</name></trkpt>
<trkpt lat="52.852825" lon="-3.370079"><ele>323</ele><time>2020-01-18T09:58:38Z</time><name>PT872</name></trkpt>
<trkpt lat="52.852834" lon="-3.370087"><ele>324</ele><time>2020-01-18T09:58:38Z</time><name>PT873</name></trkpt>
<trkpt lat="52.852843" lon="-3.370093"><ele>324</ele><time>2020-01-18T09:58:40Z</time><name>PT874</name></trkpt>
<trkpt lat="52.852850" lon="-3.370092"><ele>324</ele><time>2020-01-18T09:58:41Z</time><name>PT875</name></trkpt>
<trkpt lat="52.852860" lon="-3.370095"><ele>325</ele><time>2020-01-18T09:58:42Z</time><name>PT876</name></trkpt>
<trkpt lat="52.852869" lon="-3.370106"><ele>326</ele><time>2020-01-18T09:58:43Z</time><name>PT877</name></trkpt>
<trkpt lat="52.852877" lon="-3.370112"><ele>326</ele><time>2020-01-18T09:58:44Z</time><name>PT878</name></trkpt>
<trkpt lat="52.852885" lon="-3.370123"><ele>327</ele><time>2020-01-18T09:58:44Z</time><name>PT879</name></trkpt>
<trkpt lat="52.852895" lon="-3.370130"><ele>327</ele><time>2020-01-18T09:58:46Z</time><name>PT880</name></trkpt>
<trkpt lat="52.852906" lon="-3.370136"><ele>327</ele><time>2020-01-18T09:58:47Z</time><name>PT881</name></trkpt>
<trkpt lat="52.852918" lon="-3.370143"><ele>328</ele><time>2020-01-18T09:58:47Z</time><name>PT882</name></trkpt>
<trkpt lat="52.852930" lon="-3.370146"><ele>328</ele><time>2020-01-18T09:58:49Z</time><name>PT883</name></trkpt>
<trkpt lat="52.852940" lon="-3.370143"><ele>328</ele><time>2020-01-18T09:58:50Z</time><name>PT884</name></trkpt>
<trkpt lat="52.852950" lon="-3.370149"><ele>328</ele><time>2020-01-18T09:58:50Z</time><name>PT885</name></trkpt>
<trkpt lat="52.852964" lon="-3.370157"><ele>329</ele><time>2020-01-18T09:58:52Z</time><name>PT886</name></trkpt>
<trkpt lat="52.852974" lon="-3.370159"><ele>330</ele><time>2020-01-18T09:58:53Z</time><name>PT887</name></trkpt>
<trkpt lat="52.852985" lon="-3.370161"><ele>330</ele><time>2020-01-18T09:58:54Z</time><name>PT888</name></trkpt>
<trkpt lat="52.852997" lon="-3.370159"><ele>331</ele><time>2020-01-18T09:58:55Z</time><name>PT889</name></trkpt>
<trkpt lat="52.853009" lon="-3.370160"><ele>331</ele><time>2020-01-18T09:58:56Z</time><name>PT890</name></trkpt>
<trkpt lat="52.853020" lon="-3.370164"><ele>332</ele><time>2020-01-18T09:58:57Z</time><name>PT891</name></trkpt>
<trkpt lat="52.853028" lon="-3.370156"><ele>332</ele><time>2020-01-18T09:58:58Z</time><name>PT892</name></trkpt>
<trkpt lat="52.853038" lon="-3.370157"><ele>333</ele><time>2020-01-18T09:58:59Z</time><name>PT893</name></trkpt>
<trkpt lat="52.853049" lon="-3.370154"><ele>333</ele><time>2020-01-18T09:59:00Z</time><name>PT894</name></trkpt>
<trkpt lat="52.853059" lon="-3.370149"><ele>333</ele><time>2020-01-18T09:59:01Z</time><name>PT895</name></trkpt>
<trkpt lat="52.853071" lon="-3.370144"><ele>332</ele><time>2020-01-18T09:59:02Z</time><name>PT896</name></trkpt>
<trkpt lat="52.853080" lon="-3.370147"><ele>332</ele><time>2020-01-18T09:59:03Z</time><name>PT897</name></trkpt>
<trkpt lat="52.853090" lon="-3.370153"><ele>332</ele><time>2020-01-18T09:59:04Z</time><name>PT898</name></trkpt>
<trkpt lat="52.853101" lon="-3.370155"><ele>332</ele><time>2020-01-18T09:59:05Z</time><name>PT899</name></trkpt>
<trkpt lat="52.853112" lon="-3.370153"><ele>333</ele><time>2020-01-18T09:59:06Z</time><name>PT900</name></trkpt>
<trkpt lat="52.853121" lon="-3.370152"><ele>333</ele><time>2020-01-18T09:59:07Z</time><name>PT901</name></trkpt>
<trkpt lat="52.853129" lon="-3.370150"><ele>332</ele><time>2020-01-18T09:59:08Z</time><name>PT902</name></trkpt>
<trkpt lat="52.853138" lon="-3.370145"><ele>332</ele><time>2020-01-18T09:59:08Z</time><name>PT903</name></trkpt>
<trkpt lat="52.853147" lon="-3.370140"><ele>332</ele><time>2020-01-18T09:59:10Z</time><name>PT904</name></trkpt>
<trkpt lat="52.853155" lon="-3.370140"><ele>332</ele><time>2020-01-18T09:59:11Z</time><name>PT905</name></trkpt>
<trkpt lat="52.853164" lon="-3.370140"><ele>332</ele><time>2020-01-18T09:59:11Z</time><name>PT906</name></trkpt>
<trkpt lat="52.853173" lon="-3.370137"><ele>332</ele><time>2020-01-18T09:59:13Z</time><name>PT907</name></trkpt>
<trkpt lat="52.853185" lon="-3.370135"><ele>333</ele><time>2020-01-18T09:59:14Z</time><name>PT908</name></trkpt>
<trkpt lat="52.853196" lon="-3.370138"><ele>333</ele><time>2020-01-18T09:59:14Z</time><name>PT909</name></trkpt>
<trkpt lat="52.853207" lon="-3.370136"><ele>333</ele><time>2020-01-18T09:59:16Z</time><name>PT910</name></trkpt>
<trkpt lat="52.853222" lon="-3.370135"><ele>334</ele><time>2020-01-18T09:59:17Z</time><name>PT911</name></trkpt>
<trkpt lat="52.853233" lon="-3.370141"><ele>335</ele><time>2020-01-18T09:59:18Z</time><name>PT912</name></trkpt>
<trkpt lat="52.853241" lon="-3.370140"><ele>335</ele><time>2020-01-18T09:59:19Z</time><name>PT913</name></trkpt>
<trkpt lat="52.853253" lon="-3.370145"><ele>336</ele><time>2020-01-18T09:59:20Z</time><name>PT914</name></trkpt>
<trkpt lat="52.853260" lon="-3.370143"><ele>336</ele><time>2020-01-18T09:59:21Z</time><name>PT915</name></trkpt>
<trkpt lat="52.853271" lon="-3.370140"><ele>335</ele><time>2020-01-18T09:59:22Z</time><name>PT916</name></trkpt>
<trkpt lat="52.853282" lon="-3.370142"><ele>336</ele><time>2020-01-18T09:59:23Z</time><name>PT917</name></trkpt>
<trkpt lat="52.853288" lon="-3.370155"><ele>337</ele><time>2020-01-18T09:59:24Z</time><name>PT918</name></trkpt>
<trkpt lat="52.853298" lon="-3.370159"><ele>338</ele><time>2020-01-18T09:59:25Z</time><name>PT919</name></trkpt>
<trkpt lat="52.853309" lon="-3.370162"><ele>338</ele><time>2020-01-18T09:59:26Z</time><name>PT920</name></trkpt>
<trkpt lat="52.853320" lon="-3.370168"><ele>339</ele><time>2020-01-18T09:59:27Z</time><name>PT921</name></trkpt>
<trkpt lat="52.853329" lon="-3.370170"><ele>339</ele><time>2020-01-18T09:59:28Z</time><name>PT922</name></trkpt>
<trkpt lat="52.853339" lon="-3.370175"><ele>339</ele><time>2020-01-18T09:59:29Z</time><name>PT923</name></trkpt>
<trkpt lat="52.853349" lon="-3.370177"><ele>339</ele><time>2020-01-18T09:59:30Z</time><name>PT924</name></trkpt>
<trkpt lat="52.853359" lon="-3.370174"><ele>339</ele><time>2020-01-18T09:59:31Z</time><name>PT925</name></trkpt>
<trkpt lat="52.853372" lon="-3.370179"><ele>338</ele><time>2020-01-18T09:59:32Z</time><name>PT926</name></trkpt>
<trkpt lat="52.853389" lon="-3.370190"><ele>338</ele><time>2020-01-18T09:59:32Z</time><name>PT927</name></trkpt>
<trkpt lat="52.853391" lon="-3.370196"><ele>337</ele><time>2020-01-18T09:59:34Z</time><name>PT928</name></trkpt>
<trkpt lat="52.853400" lon="-3.370202"><ele>338</ele><time>2020-01-18T09:59:35Z</time><name>PT929</name></trkpt>
<trkpt lat="52.853407" lon="-3.370202"><ele>338</ele><time>2020-01-18T09:59:35Z</time><name>PT930</name></trkpt>
<trkpt lat="52.853412" lon="-3.370209"><ele>338</ele><time>2020-01-18T09:59:37Z</time><name>PT931</name></trkpt>
<trkpt lat="52.853417" lon="-3.370222"><ele>338</ele><time>2020-01-18T09:59:38Z</time><name>PT932</name></trkpt>
<trkpt lat="52.853420" lon="-3.370230"><ele>338</ele><time>2020-01-18T09:59:38Z</time><name>PT933</name></trkpt>
<trkpt lat="52.853424" lon="-3.370234"><ele>339</ele><time>2020-01-18T09:59:40Z</time><name>PT934</name></trkpt>
<trkpt lat="52.853429" lon="-3.370235"><ele>339</ele><time>2020-01-18T09:59:41Z</time><name>PT935</name></trkpt>
<trkpt lat="52.853427" lon="-3.370223"><ele>340</ele><time>2020-01-18T10:00:11Z</time><name>PT936</name></trkpt>
<trkpt lat="52.853430" lon="-3.370222"><ele>340</ele><time>2020-01-18T10:00:11Z</time><name>PT937</name></trkpt>
<trkpt lat="52.853436" lon="-3.370230"><ele>340</ele><time>2020-01-18T10:00:13Z</time><name>PT938</name></trkpt>
<trkpt lat="52.853443" lon="-3.370232"><ele>340</ele><time>2020-01-18T10:00:14Z</time><name>PT939</name></trkpt>
<trkpt lat="52.853455" lon="-3.370238"><ele>340</ele><time>2020-01-18T10:00:14Z</time><name>PT940</name></trkpt>
<trkpt lat="52.853469" lon="-3.370244"><ele>340</ele><time>2020-01-18T10:00:16Z</time><name>PT941</name></trkpt>
<trkpt lat="52.853477" lon="-3.370248"><ele>340</ele><time>2020-01-18T10:00:17Z</time><name>PT942</name></trkpt>
<trkpt lat="52.853490" lon="-3.370257"><ele>340</ele><time>2020-01-18T10:00:17Z</time><name>PT943</name></trkpt>
<trkpt lat="52.853501" lon="-3.370263"><ele>340</ele><time>2020-01-18T10:00:19Z</time><name>PT944</name></trkpt>
<trkpt lat="52.853511" lon="-3.370270"><ele>340</ele><time>2020-01-18T10:00:20Z</time><name>PT945</name></trkpt>
<trkpt lat="52.853523" lon="-3.370275"><ele>340</ele><time>2020-01-18T10:00:20Z</time><name>PT946</name></trkpt>
<trkpt lat="52.853532" lon="-3.370290"><ele>341</ele><time>2020-01-18T10:00:22Z</time><name>PT947</name></trkpt>
<trkpt lat="52.853543" lon="-3.370303"><ele>341</ele><time>2020-01-18T10:00:23Z</time><name>PT948</name></trkpt>
<trkpt lat="52.853557" lon="-3.370308"><ele>340</ele><time>2020-01-18T10:00:23Z</time><name>PT949</name></trkpt>
<trkpt lat="52.853571" lon="-3.370319"><ele>341</ele><time>2020-01-18T10:00:25Z</time><name>PT950</name></trkpt>
<trkpt lat="52.853583" lon="-3.370327"><ele>341</ele><time>2020-01-18T10:00:26Z</time><name>PT951</name></trkpt>
<trkpt lat="52.853593" lon="-3.370333"><ele>340</ele><time>2020-01-18T10:00:26Z</time><name>PT952</name></trkpt>
<trkpt lat="52.853603" lon="-3.370342"><ele>340</ele><time>2020-01-18T10:00:28Z</time><name>PT953</name></trkpt>
<trkpt lat="52.853614" lon="-3.370350"><ele>341</ele><time>2020-01-18T10:00:29Z</time><name>PT954</name></trkpt>
<trkpt lat="52.853624" lon="-3.370363"><ele>341</ele><time>2020-01-18T10:00:29Z</time><name>PT955</name></trkpt>
<trkpt lat="52.853634" lon="-3.370376"><ele>340</ele><time>2020-01-18T10:00:31Z</time><name>PT956</name></trkpt>
<trkpt lat="52.853644" lon="-3.370395"><ele>341</ele><time>2020-01-18T10:00:32Z</time><name>PT957</name></trkpt>
<trkpt lat="52.853651" lon="-3.370407"><ele>341</ele><time>2020-01-18T10:00:32Z</time><name>PT958</name></trkpt>
<trkpt lat="52.853659" lon="-3.370416"><ele>341</ele><time>2020-01-18T10:00:34Z</time><name>PT959</name></trkpt>
<trkpt lat="52.853668" lon="-3.370423"><ele>341</ele><time>2020-01-18T10:00:35Z</time><name>PT960</name></trkpt>
<trkpt lat="52.853680" lon="-3.370438"><ele>341</ele><time>2020-01-18T10:00:35Z</time><name>PT961</name></trkpt>
<trkpt lat="52.853690" lon="-3.370448"><ele>341</ele><time>2020-01-18T10:00:37Z</time><name>PT962</name></trkpt>
<trkpt lat="52.853700" lon="-3.370459"><ele>341</ele><time>2020-01-18T10:00:38Z</time><name>PT963</name></trkpt>
<trkpt lat="52.853711" lon="-3.370473"><ele>341</ele><time>2020-01-18T10:00:38Z</time><name>PT964</name></trkpt>
<trkpt lat="52.853719" lon="-3.370492"><ele>342</ele><time>2020-01-18T10:00:40Z</time><name>PT965</name></trkpt>
<trkpt lat="52.853730" lon="-3.370506"><ele>342</ele><time>2020-01-18T10:00:41Z</time><name>PT966</name></trkpt>
<trkpt lat="52.853739" lon="-3.370512"><ele>342</ele><time>2020-01-18T10:00:42Z</time><name>PT967</name></trkpt>
<trkpt lat="52.853750" lon="-3.370520"><ele>342</ele><time>2020-01-18T10:00:43Z</time><name>PT968</name></trkpt>
<trkpt lat="52.853760" lon="-3.370530"><ele>342</ele><time>2020-01-18T10:00:44Z</time><name>PT969</name></trkpt>
<trkpt lat="52.853768" lon="-3.370542"><ele>342</ele><time>2020-01-18T10:00:45Z</time><name>PT970</name></trkpt>
<trkpt lat="52.853777" lon="-3.370557"><ele>343</ele><time>2020-01-18T10:00:46Z</time><name>PT971</name></trkpt>
<trkpt lat="52.853786" lon="-3.370573"><ele>343</ele><time>2020-01-18T10:00:47Z</time><name>PT972</name></trkpt>
<trkpt lat="52.853794" lon="-3.370581"><ele>344</ele><time>2020-01-18T10:00:48Z</time><name>PT973</name></trkpt>
<trkpt lat="52.853804" lon="-3.370590"><ele>344</ele><time>2020-01-18T10:00:49Z</time><name>PT974</name></trkpt>
<trkpt lat="52.853812" lon="-3.370603"><ele>344</ele><time>2020-01-18T10:00:50Z</time><name>PT975</name></trkpt>
<trkpt lat="52.853824" lon="-3.370614"><ele>344</ele><time>2020-01-18T10:00:51Z</time><name>PT976</name></trkpt>
<trkpt lat="52.853833" lon="-3.370622"><ele>344</ele><time>2020-01-18T10:00:52Z</time><name>PT977</name></trkpt>
<trkpt lat="52.853842" lon="-3.370633"><ele>344</ele><time>2020-01-18T10:00:53Z</time><name>PT978</name></trkpt>
<trkpt lat="52.853852" lon="-3.370648"><ele>345</ele><time>2020-01-18T10:00:54Z</time><name>PT979</name></trkpt>
<trkpt lat="52.853861" lon="-3.370660"><ele>345</ele><time>2020-01-18T10:00:55Z</time><name>PT980</name></trkpt>
<trkpt lat="52.853869" lon="-3.370673"><ele>345</ele><time>2020-01-18T10:00:56Z</time><name>PT981</name></trkpt>
<trkpt lat="52.853876" lon="-3.370681"><ele>344</ele><time>2020-01-18T10:00:56Z</time><name>PT982</name></trkpt>
<trkpt lat="52.853886" lon="-3.370692"><ele>345</ele><time>2020-01-18T10:00:58Z</time><name>PT983</name></trkpt>
<trkpt lat="52.853895" lon="-3.370702"><ele>345</ele><time>2020-01-18T10:00:59Z</time><name>PT984</name></trkpt>
<trkpt lat="52.853905" lon="-3.370715"><ele>345</ele><time>2020-01-18T10:00:59Z</time><name>PT985</name></trkpt>
<trkpt lat="52.853917" lon="-3.370725"><ele>345</ele><time>2020-01-18T10:01:01Z</time><name>PT986</name></trkpt>
<trkpt lat="52.853927" lon="-3.370731"><ele>345</ele><time>2020-01-18T10:01:02Z</time><name>PT987</name></trkpt>
<trkpt lat="52.853934" lon="-3.370748"><ele>345</ele><time>2020-01-18T10:01:02Z</time><name>PT988</name></trkpt>
<trkpt lat="52.853942" lon="-3.370759"><ele>345</ele><time>2020-01-18T10:01:04Z</time><name>PT989</name></trkpt>
<trkpt lat="52.853952" lon="-3.370773"><ele>345</ele><time>2020-01-18T10:01:05Z</time><name>PT990</name></trkpt>
<trkpt lat="52.853962" lon="-3.370782"><ele>345</ele><time>2020-01-18T10:01:05Z</time><name>PT991</name></trkpt>
<trkpt lat="52.853970" lon="-3.370792"><ele>346</ele><time>2020-01-18T10:01:07Z</time><name>PT992</name></trkpt>
<trkpt lat="52.853976" lon="-3.370810"><ele>346</ele><time>2020-01-18T10:01:08Z</time><name>PT993</name></trkpt>
<trkpt lat="52.853986" lon="-3.370824"><ele>346</ele><time>2020-01-18T10:01:08Z</time><name>PT994</name></trkpt>
<trkpt lat="52.853994" lon="-3.370836"><ele>346</ele><time>2020-01-18T10:01:10Z</time><name>PT995</name></trkpt>
<trkpt lat="52.854003" lon="-3.370846"><ele>346</ele><time>2020-01-18T10:01:11Z</time><name>PT996</name></trkpt>
<trkpt lat="52.854014" lon="-3.370856"><ele>347</ele><time>2020-01-18T10:01:11Z</time><name>PT997</name></trkpt>
<trkpt lat="52.854026" lon="-3.370872"><ele>347</ele><time>2020-01-18T10:01:13Z</time><name>PT998</name></trkpt>
<trkpt lat="52.854037" lon="-3.370888"><ele>347</ele><time>2020-01-18T10:01:14Z</time><name>PT999</name></trkpt>
<trkpt lat="52.854046" lon="-3.370896"><ele>347</ele><time>2020-01-18T10:01:14Z</time><name>PT1000</name></trkpt>
<trkpt lat="52.854054" lon="-3.370909"><ele>347</ele><time>2020-01-18T10:01:16Z</time><name>PT1001</name></trkpt>
<trkpt lat="52.854061" lon="-3.370921"><ele>347</ele><time>2020-01-18T10:01:17Z</time><name>PT1002</name></trkpt>
<trkpt lat="52.854071" lon="-3.370927"><ele>347</ele><time>2020-01-18T10:01:17Z</time><name>PT1003</name></trkpt>
<trkpt lat="52.854080" lon="-3.370934"><ele>346</ele><time>2020-01-18T10:01:19Z</time><name>PT1004</name></trkpt>
<trkpt lat="52.854090" lon="-3.370951"><ele>347</ele><time>2020-01-18T10:01:20Z</time><name>PT1005</name></trkpt>
<trkpt lat="52.854099" lon="-3.370957"><ele>347</ele><time>2020-01-18T10:01:21Z</time><name>PT1006</name></trkpt>
<trkpt lat="52.854104" lon="-3.370976"><ele>348</ele><time>2020-01-18T10:01:22Z</time><name>PT1007</name></trkpt>
<trkpt lat="52.854113" lon="-3.370985"><ele>348</ele><time>2020-01-18T10:01:23Z</time><name>PT1008</name></trkpt>
<trkpt lat="52.854122" lon="-3.370994"><ele>347</ele><time>2020-01-18T10:01:24Z</time><name>PT1009</name></trkpt>
<trkpt lat="52.854133" lon="-3.371004"><ele>347</ele><time>2020-01-18T10:01:25Z</time><name>PT1010</name></trkpt>
<trkpt lat="52.854145" lon="-3.371017"><ele>348</ele><time>2020-01-18T10:01:26Z</time><name>PT1011</name></trkpt>
<trkpt lat="52.854156" lon="-3.371025"><ele>347</ele><time>2020-01-18T10:01:27Z</time><name>PT1012</name></trkpt>
<trkpt lat="52.854167" lon="-3.371033"><ele>347</ele><time>2020-01-18T10:01:28Z</time><name>PT1013</name></trkpt>
<trkpt lat="52.854177" lon="-3.371036"><ele>347</ele><time>2020-01-18T10:01:29Z</time><name>PT1014</name></trkpt>
<trkpt lat="52.854187" lon="-3.371048"><ele>347</ele><time>2020-01-18T10:01:29Z</time><name>PT1015</name></trkpt>
<trkpt lat="52.854201" lon="-3.371057"><ele>347</ele><time>2020-01-18T10:01:31Z</time><name>PT1016</name></trkpt>
<trkpt lat="52.854212" lon="-3.371068"><ele>348</ele><time>2020-01-18T10:01:32Z</time><name>PT1017</name></trkpt>
<trkpt lat="52.854220" lon="-3.371071"><ele>348</ele><time>2020-01-18T10:01:33Z</time><name>PT1018</name></trkpt>
<trkpt lat="52.854230" lon="-3.371079"><ele>348</ele><time>2020-01-18T10:01:34Z</time><name>PT1019</name></trkpt>
<trkpt lat="52.854241" lon="-3.371087"><ele>348</ele><time>2020-01-18T10:01:35Z</time><name>PT1020</name></trkpt>
<trkpt lat="52.854252" lon="-3.371098"><ele>349</ele><time>2020-01-18T10:01:35Z</time><name>PT1021</name></trkpt>
<trkpt lat="52.854262" lon="-3.371108"><ele>349</ele><time>2020-01-18T10:01:37Z</time><name>PT1022</name></trkpt>
<trkpt lat="52.854271" lon="-3.371105"><ele>347</ele><time>2020-01-18T10:01:38Z</time><name>PT1023</name></trkpt>
<trkpt lat="52.854282" lon="-3.371117"><ele>347</ele><time>2020-01-18T10:01:38Z</time><name>PT1024</name></trkpt>
<trkpt lat="52.854296" lon="-3.371128"><ele>346</ele><time>2020-01-18T10:01:40Z</time><name>PT1025</name></trkpt>
<trkpt lat="52.854304" lon="-3.371130"><ele>346</ele><time>2020-01-18T10:01:41Z</time><name>PT1026</name></trkpt>
<trkpt lat="52.854317" lon="-3.371137"><ele>347</ele><time>2020-01-18T10:01:41Z</time><name>PT1027</name></trkpt>
<trkpt lat="52.854327" lon="-3.371145"><ele>347</ele><time>2020-01-18T10:01:43Z</time><name>PT1028</name></trkpt>
<trkpt lat="52.854338" lon="-3.371160"><ele>347</ele><time>2020-01-18T10:01:44Z</time><name>PT1029</name></trkpt>
<trkpt lat="52.854351" lon="-3.371170"><ele>347</ele><time>2020-01-18T10:01:44Z</time><name>PT1030</name></trkpt>
<trkpt lat="52.854365" lon="-3.371183"><ele>348</ele><time>2020-01-18T10:01:46Z</time><name>PT1031</name></trkpt>
<trkpt lat="52.854379" lon="-3.371201"><ele>348</ele><time>2020-01-18T10:01:47Z</time><name>PT1032</name></trkpt>
<trkpt lat="52.854390" lon="-3.371211"><ele>348</ele><time>2020-01-18T10:01:47Z</time><name>PT1033</name></trkpt>
<trkpt lat="52.854402" lon="-3.371222"><ele>348</ele><time>2020-01-18T10:01:49Z</time><name>PT1034</name></trkpt>
<trkpt lat="52.854414" lon="-3.371237"><ele>349</ele><time>2020-01-18T10:01:50Z</time><name>PT1035</name></trkpt>
<trkpt lat="52.854422" lon="-3.371245"><ele>348</ele><time>2020-01-18T10:01:50Z</time><name>PT1036</name></trkpt>
<trkpt lat="52.854432" lon="-3.371257"><ele>348</ele><time>2020-01-18T10:01:52Z</time><name>PT1037</name></trkpt>
<trkpt lat="52.854444" lon="-3.371273"><ele>349</ele><time>2020-01-18T10:01:53Z</time><name>PT1038</name></trkpt>
<trkpt lat="52.854456" lon="-3.371286"><ele>349</ele><time>2020-01-18T10:01:53Z</time><name>PT1039</name></trkpt>
<trkpt lat="52.854473" lon="-3.371308"><ele>351</ele><time>2020-01-18T10:01:55Z</time><name>PT1040</name></trkpt>
<trkpt lat="52.854485" lon="-3.371321"><ele>351</ele><time>2020-01-18T10:01:56Z</time><name>PT1041</name></trkpt>
<trkpt lat="52.854492" lon="-3.371342"><ele>351</ele><time>2020-01-18T10:01:57Z</time><name>PT1042</name></trkpt>
<trkpt lat="52.854503" lon="-3.371353"><ele>352</ele><time>2020-01-18T10:01:58Z</time><name>PT1043</name></trkpt>
<trkpt lat="52.854514" lon="-3.371364"><ele>351</ele><time>2020-01-18T10:01:59Z</time><name>PT1044</name></trkpt>
<trkpt lat="52.854523" lon="-3.371375"><ele>351</ele><time>2020-01-18T10:02:00Z</time><name>PT1045</name></trkpt>
<trkpt lat="52.854534" lon="-3.371385"><ele>351</ele><time>2020-01-18T10:02:01Z</time><name>PT1046</name></trkpt>
<trkpt lat="52.854545" lon="-3.371393"><ele>350</ele><time>2020-01-18T10:02:02Z</time><name>PT1047</name></trkpt>
<trkpt lat="52.854556" lon="-3.371404"><ele>350</ele><time>2020-01-18T10:02:03Z</time><name>PT1048</name></trkpt>
<trkpt lat="52.854569" lon="-3.371416"><ele>350</ele><time>2020-01-18T10:02:04Z</time><name>PT1049</name></trkpt>
<trkpt lat="52.854580" lon="-3.371423"><ele>349</ele><time>2020-01-18T10:02:05Z</time><name>PT1050</name></trkpt>
<trkpt lat="52.854591" lon="-3.371430"><ele>349</ele><time>2020-01-18T10:02:05Z</time><name>PT1051</name></trkpt>
<trkpt lat="52.854599" lon="-3.371438"><ele>348</ele><time>2020-01-18T10:02:07Z</time><name>PT1052</name></trkpt>
<trkpt lat="52.854608" lon="-3.371452"><ele>348</ele><time>2020-01-18T10:02:08Z</time><name>PT1053</name></trkpt>
<trkpt lat="52.854617" lon="-3.371465"><ele>347</ele><time>2020-01-18T10:02:08Z</time><name>PT1054</name></trkpt>
<trkpt lat="52.854629" lon="-3.371484"><ele>348</ele><time>2020-01-18T10:02:10Z</time><name>PT1055</name></trkpt>
<trkpt lat="52.854640" lon="-3.371491"><ele>347</ele><time>2020-01-18T10:02:11Z</time><name>PT1056</name></trkpt>
<trkpt lat="52.854649" lon="-3.371508"><ele>349</ele><time>2020-01-18T10:02:11Z</time><name>PT1057</name></trkpt>
<trkpt lat="52.854657" lon="-3.371517"><ele>349</ele><time>2020-01-18T10:02:13Z</time><name>PT1058</name></trkpt>
<trkpt lat="52.854668" lon="-3.371536"><ele>350</ele><time>2020-01-18T10:02:14Z</time><name>PT1059</name></trkpt>
<trkpt lat="52.854679" lon="-3.371546"><ele>350</ele><time>2020-01-18T10:02:15Z</time><name>PT1060</name></trkpt>
<trkpt lat="52.854691" lon="-3.371560"><ele>350</ele><time>2020-01-18T10:02:16Z</time><name>PT1061</name></trkpt>
<trkpt lat="52.854702" lon="-3.371570"><ele>350</ele><time>2020-01-18T10:02:17Z</time><name>PT1062</name></trkpt>
<trkpt lat="52.854714" lon="-3.371580"><ele>350</ele><time>2020-01-18T10:02:17Z</time><name>PT1063</name></trkpt>
<trkpt lat="52.854726" lon="-3.371592"><ele>350</ele><time>2020-01-18T10:02:19Z</time><name>PT1064</name></trkpt>
<trkpt lat="52.854738" lon="-3.371599"><ele>349</ele><time>2020-01-18T10:02:20Z</time><name>PT1065</name></trkpt>
<trkpt lat="52.854750" lon="-3.371612"><ele>349</ele><time>2020-01-18T10:02:20Z</time><name>PT1066</name></trkpt>
<trkpt lat="52.854760" lon="-3.371622"><ele>349</ele><time>2020-01-18T10:02:22Z</time><name>PT1067</name></trkpt>
<trkpt lat="52.854770" lon="-3.371629"><ele>348</ele><time>2020-01-18T10:02:23Z</time><name>PT1068</name></trkpt>
<trkpt lat="52.854780" lon="-3.371637"><ele>348</ele><time>2020-01-18T10:02:24Z</time><name>PT1069</name></trkpt>
<trkpt lat="52.854789" lon="-3.371644"><ele>348</ele><time>2020-01-18T10:02:25Z</time><name>PT1070</name></trkpt>
<trkpt lat="52.854806" lon="-3.371657"><ele>347</ele><time>2020-01-18T10:02:26Z</time><name>PT1071</name></trkpt>
<trkpt lat="52.854822" lon="-3.371666"><ele>347</ele><time>2020-01-18T10:02:27Z</time><name>PT1072</name></trkpt>
<trkpt lat="52.854838" lon="-3.371672"><ele>347</ele><time>2020-01-18T10:02:28Z</time><name>PT1073</name></trkpt>
<trkpt lat="52.854849" lon="-3.371689"><ele>348</ele><time>2020-01-18T10:02:29Z</time><name>PT1074</name></trkpt>
<trkpt lat="52.854859" lon="-3.371705"><ele>348</ele><time>2020-01-18T10:02:30Z</time><name>PT1075</name></trkpt>
<trkpt lat="52.854868" lon="-3.371722"><ele>347</ele><time>2020-01-18T10:02:31Z</time><name>PT1076</name></trkpt>
<trkpt lat="52.854877" lon="-3.371739"><ele>348</ele><time>2020-01-18T10:02:32Z</time><name>PT1077</name></trkpt>
<trkpt lat="52.854889" lon="-3.371759"><ele>348</ele><time>2020-01-18T10:02:33Z</time><name>PT1078</name></trkpt>
<trkpt lat="52.854900" lon="-3.371775"><ele>348</ele><time>2020-01-18T10:02:34Z</time><name>PT1079</name></trkpt>
<trkpt lat="52.854910" lon="-3.371789"><ele>348</ele><time>2020-01-18T10:02:35Z</time><name>PT1080</name></trkpt>
<trkpt lat="52.854922" lon="-3.371805"><ele>348</ele><time>2020-01-18T10:02:35Z</time><name>PT1081</name></trkpt>
<trkpt lat="52.854932" lon="-3.371822"><ele>348</ele><time>2020-01-18T10:02:37Z</time><name>PT1082</name></trkpt>
<trkpt lat="52.854942" lon="-3.371838"><ele>348</ele><time>2020-01-18T10:02:38Z</time><name>PT1083</name></trkpt>
<trkpt lat="52.854954" lon="-3.371856"><ele>349</ele><time>2020-01-18T10:02:38Z</time><name>PT1084</name></trkpt>
<trkpt lat="52.854964" lon="-3.371866"><ele>349</ele><time>2020-01-18T10:02:40Z</time><name>PT1085</name></trkpt>
<trkpt lat="52.854976" lon="-3.371874"><ele>348</ele><time>2020-01-18T10:02:41Z</time><name>PT1086</name></trkpt>
<trkpt lat="52.854984" lon="-3.371889"><ele>349</ele><time>2020-01-18T10:02:41Z</time><name>PT1087</name></trkpt>
<trkpt lat="52.854997" lon="-3.371908"><ele>348</ele><time>2020-01-18T10:02:43Z</time><name>PT1088</name></trkpt>
<trkpt lat="52.855008" lon="-3.371922"><ele>348</ele><time>2020-01-18T10:02:44Z</time><name>PT1089</name></trkpt>
<trkpt lat="52.855017" lon="-3.371936"><ele>349</ele><time>2020-01-18T10:02:44Z</time><name>PT1090</name></trkpt>
<trkpt lat="52.855027" lon="-3.371945"><ele>348</ele><time>2020-01-18T10:02:46Z</time><name>PT1091</name></trkpt>
<trkpt lat="52.855039" lon="-3.371952"><ele>348</ele><time>2020-01-18T10:02:47Z</time><name>PT1092</name></trkpt>
<trkpt lat="52.855048" lon="-3.371955"><ele>348</ele><time>2020-01-18T10:02:47Z</time><name>PT1093</name></trkpt>
<trkpt lat="52.855064" lon="-3.371975"><ele>348</ele><time>2020-01-18T10:02:49Z</time><name>PT1094</name></trkpt>
<trkpt lat="52.855077" lon="-3.371995"><ele>348</ele><time>2020-01-18T10:02:50Z</time><name>PT1095</name></trkpt>
<trkpt lat="52.855088" lon="-3.372005"><ele>348</ele><time>2020-01-18T10:02:50Z</time><name>PT1096</name></trkpt>
<trkpt lat="52.855100" lon="-3.372016"><ele>348</ele><time>2020-01-18T10:02:52Z</time><name>PT1097</name></trkpt>
<trkpt lat="52.855107" lon="-3.372024"><ele>348</ele><time>2020-01-18T10:02:53Z</time><name>PT1098</name></trkpt>
<trkpt lat="52.855115" lon="-3.372040"><ele>348</ele><time>2020-01-18T10:02:53Z</time><name>PT1099</name></trkpt>
<trkpt lat="52.855124" lon="-3.372056"><ele>348</ele><time>2020-01-18T10:02:55Z</time><name>PT1100</name></trkpt>
<trkpt lat="52.855133" lon="-3.372070"><ele>347</ele><time>2020-01-18T10:02:56Z</time><name>PT1101</name></trkpt>
<trkpt lat="52.855142" lon="-3.372088"><ele>348</ele><time>2020-01-18T10:02:56Z</time><name>PT1102</name></trkpt>
<trkpt lat="52.855155" lon="-3.372111"><ele>349</ele><time>2020-01-18T10:02:58Z</time><name>PT1103</name></trkpt>
<trkpt lat="52.855165" lon="-3.372127"><ele>349</ele><time>2020-01-18T10:02:59Z</time><name>PT1104</name></trkpt>
<trkpt lat="52.855175" lon="-3.372145"><ele>349</ele><time>2020-01-18T10:02:59Z</time><name>PT1105</name></trkpt>
<trkpt lat="52.855185" lon="-3.372164"><ele>349</ele><time>2020-01-18T10:03:01Z</time><name>PT1106</name></trkpt>
<trkpt lat="52.855195" lon="-3.372184"><ele>349</ele><time>2020-01-18T10:03:02Z</time><name>PT1107</name></trkpt>
<trkpt lat="52.855205" lon="-3.372197"><ele>350</ele><time>2020-01-18T10:03:02Z</time><name>PT1108</name></trkpt>
<trkpt lat="52.855215" lon="-3.372205"><ele>349</ele><time>2020-01-18T10:03:04Z</time><name>PT1109</name></trkpt>
<trkpt lat="52.855226" lon="-3.372217"><ele>349</ele><time>2020-01-18T10:03:05Z</time><name>PT1110</name></trkpt>
<trkpt lat="52.855238" lon="-3.372234"><ele>350</ele><time>2020-01-18T10:03:05Z</time><name>PT1111</name></trkpt>
<trkpt lat="52.855250" lon="-3.372240"><ele>349</ele><time>2020-01-18T10:03:07Z</time><name>PT1112</name></trkpt>
<trkpt lat="52.855263" lon="-3.372252"><ele>349</ele><time>2020-01-18T10:03:08Z</time><name>PT1113</name></trkpt>
<trkpt lat="52.855276" lon="-3.372263"><ele>349</ele><time>2020-01-18T10:03:08Z</time><name>PT1114</name></trkpt>
<trkpt lat="52.855288" lon="-3.372271"><ele>349</ele><time>2020-01-18T10:03:10Z</time><name>PT1115</name></trkpt>
<trkpt lat="52.855296" lon="-3.372278"><ele>349</ele><time>2020-01-18T10:03:11Z</time><name>PT1116</name></trkpt>
<trkpt lat="52.855307" lon="-3.372291"><ele>349</ele><time>2020-01-18T10:03:11Z</time><name>PT1117</name></trkpt>
<trkpt lat="52.855317" lon="-3.372297"><ele>349</ele><time>2020-01-18T10:03:13Z</time><name>PT1118</name></trkpt>
<trkpt lat="52.855327" lon="-3.372304"><ele>349</ele><time>2020-01-18T10:03:14Z</time><name>PT1119</name></trkpt>
<trkpt lat="52.855337" lon="-3.372322"><ele>350</ele><time>2020-01-18T10:03:14Z</time><name>PT1120</name></trkpt>
<trkpt lat="52.855346" lon="-3.372333"><ele>350</ele><time>2020-01-18T10:03:16Z</time><name>PT1121</name></trkpt>
<trkpt lat="52.855354" lon="-3.372340"><ele>349</ele><time>2020-01-18T10:03:17Z</time><name>PT1122</name></trkpt>
<trkpt lat="52.855363" lon="-3.372352"><ele>349</ele><time>2020-01-18T10:03:18Z</time><name>PT1123</name></trkpt>
<trkpt lat="52.855372" lon="-3.372367"><ele>349</ele><time>2020-01-18T10:03:19Z</time><name>PT1124</name></trkpt>
<trkpt lat="52.855383" lon="-3.372381"><ele>349</ele><time>2020-01-18T10:03:20Z</time><name>PT1125</name></trkpt>
<trkpt lat="52.855393" lon="-3.372400"><ele>349</ele><time>2020-01-18T10:03:20Z</time><name>PT1126</name></trkpt>
<trkpt lat="52.855399" lon="-3.372416"><ele>349</ele><time>2020-01-18T10:03:22Z</time><name>PT1127</name></trkpt>
<trkpt lat="52.855405" lon="-3.372422"><ele>349</ele><time>2020-01-18T10:03:23Z</time><name>PT1128</name></trkpt>
<trkpt lat="52.855413" lon="-3.372438"><ele>349</ele><time>2020-01-18T10:03:23Z</time><name>PT1129</name></trkpt>
<trkpt lat="52.855420" lon="-3.372454"><ele>349</ele><time>2020-01-18T10:03:25Z</time><name>PT1130</name></trkpt>
<trkpt lat="52.855426" lon="-3.372475"><ele>350</ele><time>2020-01-18T10:03:26Z</time><name>PT1131</name></trkpt>
<trkpt lat="52.855433" lon="-3.372491"><ele>350</ele><time>2020-01-18T10:03:26Z</time><name>PT1132</name></trkpt>
<trkpt lat="52.855442" lon="-3.372502"><ele>350</ele><time>2020-01-18T10:03:28Z</time><name>PT1133</name></trkpt>
<trkpt lat="52.855449" lon="-3.372523"><ele>351</ele><time>2020-01-18T10:03:29Z</time><name>PT1134</name></trkpt>
<trkpt lat="52.855459" lon="-3.372541"><ele>351</ele><time>2020-01-18T10:03:29Z</time><name>PT1135</name></trkpt>
<trkpt lat="52.855467" lon="-3.372556"><ele>352</ele><time>2020-01-18T10:03:31Z</time><name>PT1136</name></trkpt>
<trkpt lat="52.855474" lon="-3.372572"><ele>352</ele><time>2020-01-18T10:03:32Z</time><name>PT1137</name></trkpt>
<trkpt lat="52.855481" lon="-3.372593"><ele>352</ele><time>2020-01-18T10:03:33Z</time><name>PT1138</name></trkpt>
<trkpt lat="52.855489" lon="-3.372611"><ele>353</ele><time>2020-01-18T10:03:34Z</time><name>PT1139</name></trkpt>
<trkpt lat="52.855499" lon="-3.372634"><ele>353</ele><time>2020-01-18T10:03:35Z</time><name>PT1140</name></trkpt>
<trkpt lat="52.855507" lon="-3.372651"><ele>353</ele><time>2020-01-18T10:03:35Z</time><name>PT1141</name></trkpt>
<trkpt lat="52.855515" lon="-3.372669"><ele>354</ele><time>2020-01-18T10:03:37Z</time><name>PT1142</name></trkpt>
<trkpt lat="52.855520" lon="-3.372676"><ele>354</ele><time>2020-01-18T10:03:38Z</time><name>PT1143</name></trkpt>
<trkpt lat="52.855525" lon="-3.372694"><ele>354</ele><time>2020-01-18T10:03:38Z</time><name>PT1144</name></trkpt>
<trkpt lat="52.855533" lon="-3.372706"><ele>353</ele><time>2020-01-18T10:03:40Z</time><name>PT1145</name></trkpt>
<trkpt lat="52.855539" lon="-3.372725"><ele>353</ele><time>2020-01-18T10:03:41Z</time><name>PT1146</name></trkpt>
<trkpt lat="52.855549" lon="-3.372749"><ele>354</ele><time>2020-01-18T10:03:41Z</time><name>PT1147</name></trkpt>
<trkpt lat="52.855557" lon="-3.372765"><ele>355</ele><time>2020-01-18T10:03:43Z</time><name>PT1148</name></trkpt>
<trkpt lat="52.855565" lon="-3.372781"><ele>355</ele><time>2020-01-18T10:03:44Z</time><name>PT1149</name></trkpt>
<trkpt lat="52.855570" lon="-3.372797"><ele>355</ele><time>2020-01-18T10:03:44Z</time><name>PT1150</name></trkpt>
<trkpt lat="52.855576" lon="-3.372807"><ele>355</ele><time>2020-01-18T10:03:46Z</time><name>PT1151</name></trkpt>
<trkpt lat="52.855585" lon="-3.372818"><ele>355</ele><time>2020-01-18T10:03:47Z</time><name>PT1152</name></trkpt>
<trkpt lat="52.855594" lon="-3.372831"><ele>355</ele><time>2020-01-18T10:03:48Z</time><name>PT1153</name></trkpt>
<trkpt lat="52.855602" lon="-3.372839"><ele>355</ele><time>2020-01-18T10:03:49Z</time><name>PT1154</name></trkpt>
<trkpt lat="52.855609" lon="-3.372850"><ele>355</ele><time>2020-01-18T10:03:50Z</time><name>PT1155</name></trkpt>
<trkpt lat="52.855618" lon="-3.372863"><ele>355</ele><time>2020-01-18T10:03:51Z</time><name>PT1156</name></trkpt>
<trkpt lat="52.855627" lon="-3.372876"><ele>355</ele><time>2020-01-18T10:03:52Z</time><name>PT1157</name></trkpt>
<trkpt lat="52.855636" lon="-3.372889"><ele>355</ele><time>2020-01-18T10:03:53Z</time><name>PT1158</name></trkpt>
<trkpt lat="52.855648" lon="-3.372906"><ele>355</ele><time>2020-01-18T10:03:54Z</time><name>PT1159</name></trkpt>
<trkpt lat="52.855656" lon="-3.372921"><ele>355</ele><time>2020-01-18T10:03:55Z</time><name>PT1160</name></trkpt>
<trkpt lat="52.855663" lon="-3.372939"><ele>355</ele><time>2020-01-18T10:03:56Z</time><name>PT1161</name></trkpt>
<trkpt lat="52.855670" lon="-3.372964"><ele>355</ele><time>2020-01-18T10:03:57Z</time><name>PT1162</name></trkpt>
<trkpt lat="52.855678" lon="-3.372983"><ele>355</ele><time>2020-01-18T10:03:58Z</time><name>PT1163</name></trkpt>
<trkpt lat="52.855688" lon="-3.373001"><ele>355</ele><time>2020-01-18T10:03:59Z</time><name>PT1164</name></trkpt>
<trkpt lat="52.855696" lon="-3.373015"><ele>355</ele><time>2020-01-18T10:04:00Z</time><name>PT1165</name></trkpt>
<trkpt lat="52.855703" lon="-3.373035"><ele>356</ele><time>2020-01-18T10:04:01Z</time><name>PT1166</name></trkpt>
<trkpt lat="52.855708" lon="-3.373049"><ele>355</ele><time>2020-01-18T10:04:02Z</time><name>PT1167</name></trkpt>
<trkpt lat="52.855714" lon="-3.373061"><ele>355</ele><time>2020-01-18T10:04:03Z</time><name>PT1168</name></trkpt>
<trkpt lat="52.855718" lon="-3.373078"><ele>356</ele><time>2020-01-18T10:04:04Z</time><name>PT1169</name></trkpt>
<trkpt lat="52.855729" lon="-3.373099"><ele>356</ele><time>2020-01-18T10:04:05Z</time><name>PT1170</name></trkpt>
<trkpt lat="52.855737" lon="-3.373112"><ele>356</ele><time>2020-01-18T10:04:05Z</time><name>PT1171</name></trkpt>
<trkpt lat="52.855746" lon="-3.373128"><ele>356</ele><time>2020-01-18T10:04:07Z</time><name>PT1172</name></trkpt>
<trkpt lat="52.855751" lon="-3.373138"><ele>356</ele><time>2020-01-18T10:04:08Z</time><name>PT1173</name></trkpt>
<trkpt lat="52.855762" lon="-3.373145"><ele>355</ele><time>2020-01-18T10:04:08Z</time><name>PT1174</name></trkpt>
<trkpt lat="52.855773" lon="-3.373156"><ele>354</ele><time>2020-01-18T10:04:10Z</time><name>PT1175</name></trkpt>
<trkpt lat="52.855784" lon="-3.373171"><ele>354</ele><time>2020-01-18T10:04:11Z</time><name>PT1176</name></trkpt>
<trkpt lat="52.855795" lon="-3.373184"><ele>355</ele><time>2020-01-18T10:04:11Z</time><name>PT1177</name></trkpt>
<trkpt lat="52.855808" lon="-3.373203"><ele>355</ele><time>2020-01-18T10:04:13Z</time><name>PT1178</name></trkpt>
<trkpt lat="52.855822" lon="-3.373216"><ele>355</ele><time>2020-01-18T10:04:14Z</time><name>PT1179</name></trkpt>
<trkpt lat="52.855838" lon="-3.373231"><ele>354</ele><time>2020-01-18T10:04:14Z</time><name>PT1180</name></trkpt>
<trkpt lat="52.855847" lon="-3.373253"><ele>355</ele><time>2020-01-18T10:04:16Z</time><name>PT1181</name></trkpt>
<trkpt lat="52.855854" lon="-3.373269"><ele>355</ele><time>2020-01-18T10:04:17Z</time><name>PT1182</name></trkpt>
<trkpt lat="52.855863" lon="-3.373275"><ele>354</ele><time>2020-01-18T10:04:17Z</time><name>PT1183</name></trkpt>
<trkpt lat="52.855879" lon="-3.373293"><ele>355</ele><time>2020-01-18T10:04:19Z</time><name>PT1184</name></trkpt>
<trkpt lat="52.855890" lon="-3.373307"><ele>355</ele><time>2020-01-18T10:04:20Z</time><name>PT1185</name></trkpt>
<trkpt lat="52.855900" lon="-3.373323"><ele>355</ele><time>2020-01-18T10:04:20Z</time><name>PT1186</name></trkpt>
<trkpt lat="52.855909" lon="-3.373338"><ele>355</ele><time>2020-01-18T10:04:22Z</time><name>PT1187</name></trkpt>
<trkpt lat="52.855916" lon="-3.373346"><ele>354</ele><time>2020-01-18T10:04:23Z</time><name>PT1188</name></trkpt>
<trkpt lat="52.855922" lon="-3.373359"><ele>355</ele><time>2020-01-18T10:04:23Z</time><name>PT1189</name></trkpt>
<trkpt lat="52.855930" lon="-3.373371"><ele>355</ele><time>2020-01-18T10:04:25Z</time><name>PT1190</name></trkpt>
<trkpt lat="52.855937" lon="-3.373386"><ele>355</ele><time>2020-01-18T10:04:26Z</time><name>PT1191</name></trkpt>
<trkpt lat="52.855947" lon="-3.373396"><ele>354</ele><time>2020-01-18T10:04:26Z</time><name>PT1192</name></trkpt>
<trkpt lat="52.855951" lon="-3.373407"><ele>354</ele><time>2020-01-18T10:04:28Z</time><name>PT1193</name></trkpt>
<trkpt lat="52.855958" lon="-3.373417"><ele>355</ele><time>2020-01-18T10:04:29Z</time><name>PT1194</name></trkpt>
<trkpt lat="52.855964" lon="-3.373431"><ele>356</ele><time>2020-01-18T10:04:29Z</time><name>PT1195</name></trkpt>
<trkpt lat="52.855976" lon="-3.373453"><ele>356</ele><time>2020-01-18T10:04:31Z</time><name>PT1196</name></trkpt>
<trkpt lat="52.855979" lon="-3.373454"><ele>355</ele><time>2020-01-18T10:04:32Z</time><name>PT1197</name></trkpt>
<trkpt lat="52.855978" lon="-3.373460"><ele>356</ele><time>2020-01-18T10:04:32Z</time><name>PT1198</name></trkpt>
<trkpt lat="52.855979" lon="-3.373473"><ele>356</ele><time>2020-01-18T10:04:40Z</time><name>PT1199</name></trkpt>
<trkpt lat="52.855991" lon="-3.373498"><ele>356</ele><time>2020-01-18T10:04:41Z</time><name>PT1200</name></trkpt>
<trkpt lat="52.856002" lon="-3.373520"><ele>357</ele><time>2020-01-18T10:04:41Z</time><name>PT1201</name></trkpt>
<trkpt lat="52.856015" lon="-3.373533"><ele>357</ele><time>2020-01-18T10:04:43Z</time><name>PT1202</name></trkpt>
<trkpt lat="52.856026" lon="-3.373547"><ele>356</ele><time>2020-01-18T10:04:44Z</time><name>PT1203</name></trkpt>
<trkpt lat="52.856034" lon="-3.373563"><ele>357</ele><time>2020-01-18T10:04:44Z</time><name>PT1204</name></trkpt>
<trkpt lat="52.856047" lon="-3.373580"><ele>357</ele><time>2020-01-18T10:04:46Z</time><name>PT1205</name></trkpt>
<trkpt lat="52.856057" lon="-3.373601"><ele>357</ele><time>2020-01-18T10:04:47Z</time><name>PT1206</name></trkpt>
<trkpt lat="52.856071" lon="-3.373622"><ele>356</ele><time>2020-01-18T10:04:47Z</time><name>PT1207</name></trkpt>
<trkpt lat="52.856083" lon="-3.373639"><ele>356</ele><time>2020-01-18T10:04:49Z</time><name>PT1208</name></trkpt>
<trkpt lat="52.856090" lon="-3.373656"><ele>357</ele><time>2020-01-18T10:04:50Z</time><name>PT1209</name></trkpt>
<trkpt lat="52.856108" lon="-3.373668"><ele>356</ele><time>2020-01-18T10:04:51Z</time><name>PT1210</name></trkpt>
<trkpt lat="52.856118" lon="-3.373682"><ele>355</ele><time>2020-01-18T10:04:52Z</time><name>PT1211</name></trkpt>
<trkpt lat="52.856126" lon="-3.373694"><ele>355</ele><time>2020-01-18T10:04:53Z</time><name>PT1212</name></trkpt>
<trkpt lat="52.856142" lon="-3.373701"><ele>355</ele><time>2020-01-18T10:04:53Z</time><name>PT1213</name></trkpt>
<trkpt lat="52.856155" lon="-3.373711"><ele>355</ele><time>2020-01-18T10:04:55Z</time><name>PT1214</name></trkpt>
<trkpt lat="52.856169" lon="-3.373715"><ele>354</ele><time>2020-01-18T10:04:56Z</time><name>PT1215</name></trkpt>
<trkpt lat="52.856180" lon="-3.373727"><ele>354</ele><time>2020-01-18T10:04:56Z</time><name>PT1216</name></trkpt>
<trkpt lat="52.856199" lon="-3.373755"><ele>354</ele><time>2020-01-18T10:04:58Z</time><name>PT1217</name></trkpt>
<trkpt lat="52.856211" lon="-3.373771"><ele>354</ele><time>2020-01-18T10:04:59Z</time><name>PT1218</name></trkpt>
<trkpt lat="52.856221" lon="-3.373782"><ele>354</ele><time>2020-01-18T10:05:00Z</time><name>PT1219</name></trkpt>
<trkpt lat="52.856230" lon="-3.373799"><ele>355</ele><time>2020-01-18T10:05:01Z</time><name>PT1220</name></trkpt>
<trkpt lat="52.856242" lon="-3.373813"><ele>355</ele><time>2020-01-18T10:05:02Z</time><name>PT1221</name></trkpt>
<trkpt lat="52.856253" lon="-3.373824"><ele>355</ele><time>2020-01-18T10:05:03Z</time><name>PT1222</name></trkpt>
<trkpt lat="52.856261" lon="-3.373836"><ele>355</ele><time>2020-01-18T10:05:04Z</time><name>PT1223</name></trkpt>
<trkpt lat="52.856259" lon="-3.373851"><ele>354</ele><time>2020-01-18T10:05:05Z</time><name>PT1224</name></trkpt>
<trkpt lat="52.856271" lon="-3.373865"><ele>354</ele><time>2020-01-18T10:05:06Z</time><name>PT1225</name></trkpt>
<trkpt lat="52.856283" lon="-3.373884"><ele>354</ele><time>2020-01-18T10:05:07Z</time><name>PT1226</name></trkpt>
<trkpt lat="52.856296" lon="-3.373898"><ele>353</ele><time>2020-01-18T10:05:08Z</time><name>PT1227</name></trkpt>
<trkpt lat="52.856310" lon="-3.373908"><ele>352</ele><time>2020-01-18T10:05:08Z</time><name>PT1228</name></trkpt>
<trkpt lat="52.856319" lon="-3.373927"><ele>353</ele><time>2020-01-18T10:05:10Z</time><name>PT1229</name></trkpt>
<trkpt lat="52.856326" lon="-3.373953"><ele>353</ele><time>2020-01-18T10:05:11Z</time><name>PT1230</name></trkpt>
<trkpt lat="52.856335" lon="-3.373967"><ele>353</ele><time>2020-01-18T10:05:11Z</time><name>PT1231</name></trkpt>
<trkpt lat="52.856343" lon="-3.373979"><ele>353</ele><time>2020-01-18T10:05:13Z</time><name>PT1232</name></trkpt>
<trkpt lat="52.856353" lon="-3.373988"><ele>353</ele><time>2020-01-18T10:05:14Z</time><name>PT1233</name></trkpt>
<trkpt lat="52.856363" lon="-3.373996"><ele>353</ele><time>2020-01-18T10:05:14Z</time><name>PT1234</name></trkpt>
<trkpt lat="52.856374" lon="-3.374005"><ele>353</ele><time>2020-01-18T10:05:16Z</time><name>PT1235</name></trkpt>
<trkpt lat="52.856389" lon="-3.374016"><ele>353</ele><time>2020-01-18T10:05:17Z</time><name>PT1236</name></trkpt>
<trkpt lat="52.856403" lon="-3.374025"><ele>353</ele><time>2020-01-18T10:05:18Z</time><name>PT1237</name></trkpt>
<trkpt lat="52.856417" lon="-3.374030"><ele>352</ele><time>2020-01-18T10:05:19Z</time><name>PT1238</name></trkpt>
<trkpt lat="52.856430" lon="-3.374037"><ele>353</ele><time>2020-01-18T10:05:20Z</time><name>PT1239</name></trkpt>
<trkpt lat="52.856442" lon="-3.374056"><ele>353</ele><time>2020-01-18T10:05:21Z</time><name>PT1240</name></trkpt>
<trkpt lat="52.856456" lon="-3.374076"><ele>354</ele><time>2020-01-18T10:05:22Z</time><name>PT1241</name></trkpt>
<trkpt lat="52.856467" lon="-3.374082"><ele>354</ele><time>2020-01-18T10:05:23Z</time><name>PT1242</name></trkpt>
<trkpt lat="52.856480" lon="-3.374097"><ele>355</ele><time>2020-01-18T10:05:24Z</time><name>PT1243</name></trkpt>
<trkpt lat="52.856492" lon="-3.374103"><ele>355</ele><time>2020-01-18T10:05:25Z</time><name>PT1244</name></trkpt>
<trkpt lat="52.856505" lon="-3.374106"><ele>355</ele><time>2020-01-18T10:05:26Z</time><name>PT1245</name></trkpt>
<trkpt lat="52.856520" lon="-3.374111"><ele>354</ele><time>2020-01-18T10:05:27Z</time><name>PT1246</name></trkpt>
<trkpt lat="52.856531" lon="-3.374124"><ele>356</ele><time>2020-01-18T10:05:28Z</time><name>PT1247</name></trkpt>
<trkpt lat="52.856544" lon="-3.374130"><ele>356</ele><time>2020-01-18T10:05:29Z</time><name>PT1248</name></trkpt>
<trkpt lat="52.856556" lon="-3.374136"><ele>356</ele><time>2020-01-18T10:05:29Z</time><name>PT1249</name></trkpt>
<trkpt lat="52.856568" lon="-3.374143"><ele>356</ele><time>2020-01-18T10:05:31Z</time><name>PT1250</name></trkpt>
<trkpt lat="52.856582" lon="-3.374155"><ele>356</ele><time>2020-01-18T10:05:32Z</time><name>PT1251</name></trkpt>
<trkpt lat="52.856596" lon="-3.374160"><ele>356</ele><time>2020-01-18T10:05:32Z</time><name>PT1252</name></trkpt>
<trkpt lat="52.856608" lon="-3.374164"><ele>356</ele><time>2020-01-18T10:05:34Z</time><name>PT1253</name></trkpt>
<trkpt lat="52.856622" lon="-3.374166"><ele>356</ele><time>2020-01-18T10:05:35Z</time><name>PT1254</name></trkpt>
<trkpt lat="52.856636" lon="-3.374168"><ele>357</ele><time>2020-01-18T10:05:35Z</time><name>PT1255</name></trkpt>
<trkpt lat="52.856648" lon="-3.374172"><ele>357</ele><time>2020-01-18T10:05:37Z</time><name>PT1256</name></trkpt>
<trkpt lat="52.856659" lon="-3.374177"><ele>358</ele><time>2020-01-18T10:05:38Z</time><name>PT1257</name></trkpt>
<trkpt lat="52.856673" lon="-3.374182"><ele>358</ele><time>2020-01-18T10:05:38Z</time><name>PT1258</name></trkpt>
<trkpt lat="52.856685" lon="-3.374185"><ele>358</ele><time>2020-01-18T10:05:40Z</time><name>PT1259</name></trkpt>
<trkpt lat="52.856692" lon="-3.374187"><ele>358</ele><time>2020-01-18T10:05:41Z</time><name>PT1260</name></trkpt>
<trkpt lat="52.856695" lon="-3.374191"><ele>358</ele><time>2020-01-18T10:05:42Z</time><name>PT1261</name></trkpt>
<trkpt lat="52.856687" lon="-3.374198"><ele>357</ele><time>2020-01-18T10:05:43Z</time><name>PT1262</name></trkpt>
<trkpt lat="52.856684" lon="-3.374198"><ele>357</ele><time>2020-01-18T10:05:44Z</time><name>PT1263</name></trkpt>
<trkpt lat="52.856684" lon="-3.374192"><ele>356</ele><time>2020-01-18T10:05:44Z</time><name>PT1264</name></trkpt>
<trkpt lat="52.856703" lon="-3.374201"><ele>357</ele><time>2020-01-18T10:05:50Z</time><name>PT1265</name></trkpt>
<trkpt lat="52.856713" lon="-3.374208"><ele>356</ele><time>2020-01-18T10:05:50Z</time><name>PT1266</name></trkpt>
<trkpt lat="52.856733" lon="-3.374216"><ele>356</ele><time>2020-01-18T10:05:52Z</time><name>PT1267</name></trkpt>
<trkpt lat="52.856752" lon="-3.374222"><ele>356</ele><time>2020-01-18T10:05:53Z</time><name>PT1268</name></trkpt>
<trkpt lat="52.856766" lon="-3.374220"><ele>356</ele><time>2020-01-18T10:05:54Z</time><name>PT1269</name></trkpt>
<trkpt lat="52.856781" lon="-3.374215"><ele>355</ele><time>2020-01-18T10:05:55Z</time><name>PT1270</name></trkpt>
<trkpt lat="52.856795" lon="-3.374220"><ele>356</ele><time>2020-01-18T10:05:56Z</time><name>PT1271</name></trkpt>
<trkpt lat="52.856808" lon="-3.374229"><ele>356</ele><time>2020-01-18T10:05:56Z</time><name>PT1272</name></trkpt>
<trkpt lat="52.856820" lon="-3.374236"><ele>356</ele><time>2020-01-18T10:05:58Z</time><name>PT1273</name></trkpt>
<trkpt lat="52.856836" lon="-3.374232"><ele>355</ele><time>2020-01-18T10:05:59Z</time><name>PT1274</name></trkpt>
<trkpt lat="52.856849" lon="-3.374240"><ele>355</ele><time>2020-01-18T10:06:00Z</time><name>PT1275</name></trkpt>
<trkpt lat="52.856859" lon="-3.374254"><ele>356</ele><time>2020-01-18T10:06:01Z</time><name>PT1276</name></trkpt>
<trkpt lat="52.856871" lon="-3.374259"><ele>357</ele><time>2020-01-18T10:06:02Z</time><name>PT1277</name></trkpt>
<trkpt lat="52.856882" lon="-3.374261"><ele>358</ele><time>2020-01-18T10:06:03Z</time><name>PT1278</name></trkpt>
<trkpt lat="52.856893" lon="-3.374266"><ele>358</ele><time>2020-01-18T10:06:04Z</time><name>PT1279</name></trkpt>
<trkpt lat="52.856903" lon="-3.374265"><ele>358</ele><time>2020-01-18T10:06:05Z</time><name>PT1280</name></trkpt>
<trkpt lat="52.856916" lon="-3.374260"><ele>358</ele><time>2020-01-18T10:06:06Z</time><name>PT1281</name></trkpt>
<trkpt lat="52.856927" lon="-3.374255"><ele>358</ele><time>2020-01-18T10:06:07Z</time><name>PT1282</name></trkpt>
<trkpt lat="52.856942" lon="-3.374261"><ele>359</ele><time>2020-01-18T10:06:08Z</time><name>PT1283</name></trkpt>
<trkpt lat="52.856953" lon="-3.374272"><ele>359</ele><time>2020-01-18T10:06:08Z</time><name>PT1284</name></trkpt>
<trkpt lat="52.856968" lon="-3.374279"><ele>359</ele><time>2020-01-18T10:06:10Z</time><name>PT1285</name></trkpt>
<trkpt lat="52.856981" lon="-3.374291"><ele>359</ele><time>2020-01-18T10:06:11Z</time><name>PT1286</name></trkpt>
<trkpt lat="52.856995" lon="-3.374301"><ele>359</ele><time>2020-01-18T10:06:11Z</time><name>PT1287</name></trkpt>
<trkpt lat="52.857006" lon="-3.374302"><ele>359</ele><time>2020-01-18T10:06:13Z</time><name>PT1288</name></trkpt>
<trkpt lat="52.857018" lon="-3.374306"><ele>359</ele><time>2020-01-18T10:06:14Z</time><name>PT1289</name></trkpt>
<trkpt lat="52.857032" lon="-3.374313"><ele>359</ele><time>2020-01-18T10:06:15Z</time><name>PT1290</name></trkpt>
<trkpt lat="52.857046" lon="-3.374322"><ele>359</ele><time>2020-01-18T10:06:16Z</time><name>PT1291</name></trkpt>
<trkpt lat="52.857061" lon="-3.374330"><ele>359</ele><time>2020-01-18T10:06:17Z</time><name>PT1292</name></trkpt>
<trkpt lat="52.857074" lon="-3.374342"><ele>360</ele><time>2020-01-18T10:06:17Z</time><name>PT1293</name></trkpt>
<trkpt lat="52.857090" lon="-3.374350"><ele>360</ele><time>2020-01-18T10:06:19Z</time><name>PT1294</name></trkpt>
<trkpt lat="52.857106" lon="-3.374358"><ele>360</ele><time>2020-01-18T10:06:20Z</time><name>PT1295</name></trkpt>
<trkpt lat="52.857123" lon="-3.374364"><ele>360</ele><time>2020-01-18T10:06:20Z</time><name>PT1296</name></trkpt>
<trkpt lat="52.857138" lon="-3.374375"><ele>360</ele><time>2020-01-18T10:06:22Z</time><name>PT1297</name></trkpt>
<trkpt lat="52.857160" lon="-3.374385"><ele>360</ele><time>2020-01-18T10:06:23Z</time><name>PT1298</name></trkpt>
<trkpt lat="52.857172" lon="-3.374396"><ele>360</ele><time>2020-01-18T10:06:23Z</time><name>PT1299</name></trkpt>
<trkpt lat="52.857181" lon="-3.374406"><ele>361</ele><time>2020-01-18T10:06:25Z</time><name>PT1300</name></trkpt>
<trkpt lat="52.857194" lon="-3.374403"><ele>359</ele><time>2020-01-18T10:06:26Z</time><name>PT1301</name></trkpt>
<trkpt lat="52.857206" lon="-3.374406"><ele>359</ele><time>2020-01-18T10:06:26Z</time><name>PT1302</name></trkpt>
<trkpt lat="52.857216" lon="-3.374405"><ele>358</ele><time>2020-01-18T10:06:28Z</time><name>PT1303</name></trkpt>
<trkpt lat="52.857224" lon="-3.374406"><ele>358</ele><time>2020-01-18T10:06:29Z</time><name>PT1304</name></trkpt>
<trkpt lat="52.857231" lon="-3.374409"><ele>358</ele><time>2020-01-18T10:06:29Z</time><name>PT1305</name></trkpt>
<trkpt lat="52.857241" lon="-3.374411"><ele>357</ele><time>2020-01-18T10:06:31Z</time><name>PT1306</name></trkpt>
<trkpt lat="52.857253" lon="-3.374419"><ele>358</ele><time>2020-01-18T10:06:32Z</time><name>PT1307</name></trkpt>
<trkpt lat="52.857265" lon="-3.374423"><ele>357</ele><time>2020-01-18T10:06:32Z</time><name>PT1308</name></trkpt>
<trkpt lat="52.857278" lon="-3.374429"><ele>357</ele><time>2020-01-18T10:06:34Z</time><name>PT1309</name></trkpt>
<trkpt lat="52.857289" lon="-3.374435"><ele>357</ele><time>2020-01-18T10:06:35Z</time><name>PT1310</name></trkpt>
<trkpt lat="52.857302" lon="-3.374433"><ele>357</ele><time>2020-01-18T10:06:35Z</time><name>PT1311</name></trkpt>
<trkpt lat="52.857315" lon="-3.374429"><ele>357</ele><time>2020-01-18T10:06:37Z</time><name>PT1312</name></trkpt>
<trkpt lat="52.857326" lon="-3.374438"><ele>358</ele><time>2020-01-18T10:06:38Z</time><name>PT1313</name></trkpt>
<trkpt lat="52.857340" lon="-3.374440"><ele>357</ele><time>2020-01-18T10:06:38Z</time><name>PT1314</name></trkpt>
<trkpt lat="52.857352" lon="-3.374443"><ele>358</ele><time>2020-01-18T10:06:40Z</time><name>PT1315</name></trkpt>
<trkpt lat="52.857363" lon="-3.374444"><ele>358</ele><time>2020-01-18T10:06:41Z</time><name>PT1316</name></trkpt>
<trkpt lat="52.857374" lon="-3.374441"><ele>357</ele><time>2020-01-18T10:06:41Z</time><name>PT1317</name></trkpt>
<trkpt lat="52.857389" lon="-3.374438"><ele>357</ele><time>2020-01-18T10:06:43Z</time><name>PT1318</name></trkpt>
<trkpt lat="52.857401" lon="-3.374441"><ele>357</ele><time>2020-01-18T10:06:44Z</time><name>PT1319</name></trkpt>
<trkpt lat="52.857417" lon="-3.374432"><ele>356</ele><time>2020-01-18T10:06:44Z</time><name>PT1320</name></trkpt>
<trkpt lat="52.857428" lon="-3.374433"><ele>355</ele><time>2020-01-18T10:06:46Z</time><name>PT1321</name></trkpt>
<trkpt lat="52.857436" lon="-3.374435"><ele>355</ele><time>2020-01-18T10:06:47Z</time><name>PT1322</name></trkpt>
<trkpt lat="52.857446" lon="-3.374435"><ele>355</ele><time>2020-01-18T10:06:47Z</time><name>PT1323</name></trkpt>
<trkpt lat="52.857450" lon="-3.374429"><ele>354</ele><time>2020-01-18T10:06:49Z</time><name>PT1324</name></trkpt>
<trkpt lat="52.857454" lon="-3.374432"><ele>355</ele><time>2020-01-18T10:06:50Z</time><name>PT1325</name></trkpt>
<trkpt lat="52.857453" lon="-3.374435"><ele>356</ele><time>2020-01-18T10:06:50Z</time><name>PT1326</name></trkpt>
<trkpt lat="52.857454" lon="-3.374432"><ele>356</ele><time>2020-01-18T10:06:52Z</time><name>PT1327</name></trkpt>
<trkpt lat="52.857464" lon="-3.374370"><ele>354</ele><time>2020-01-18T10:06:53Z</time><name>PT1328</name></trkpt>
<trkpt lat="52.857463" lon="-3.374368"><ele>357</ele><time>2020-01-18T10:06:54Z</time><name>PT1329</name></trkpt>
<trkpt lat="52.857471" lon="-3.374366"><ele>358</ele><time>2020-01-18T10:06:55Z</time><name>PT1330</name></trkpt>
<trkpt lat="52.857474" lon="-3.374366"><ele>359</ele><time>2020-01-18T10:06:56Z</time><name>PT1331</name></trkpt>
<trkpt lat="52.857473" lon="-3.374361"><ele>359</ele><time>2020-01-18T10:06:59Z</time><name>PT1332</name></trkpt>
<trkpt lat="52.857475" lon="-3.374362"><ele>359</ele><time>2020-01-18T10:06:59Z</time><name>PT1333</name></trkpt>
<trkpt lat="52.857474" lon="-3.374362"><ele>358</ele><time>2020-01-18T10:07:01Z</time><name>PT1334</name></trkpt>
<trkpt lat="52.857472" lon="-3.374359"><ele>358</ele><time>2020-01-18T10:07:02Z</time><name>PT1335</name></trkpt>
<trkpt lat="52.857474" lon="-3.374361"><ele>358</ele><time>2020-01-18T10:07:02Z</time><name>PT1336</name></trkpt>
<trkpt lat="52.857480" lon="-3.374361"><ele>357</ele><time>2020-01-18T10:07:04Z</time><name>PT1337</name></trkpt>
<trkpt lat="52.857481" lon="-3.374359"><ele>358</ele><time>2020-01-18T10:07:05Z</time><name>PT1338</name></trkpt>
<trkpt lat="52.857481" lon="-3.374361"><ele>358</ele><time>2020-01-18T10:07:05Z</time><name>PT1339</name></trkpt>
<trkpt lat="52.857484" lon="-3.374374"><ele>359</ele><time>2020-01-18T10:07:07Z</time><name>PT1340</name></trkpt>
<trkpt lat="52.857486" lon="-3.374374"><ele>359</ele><time>2020-01-18T10:07:08Z</time><name>PT1341</name></trkpt>
<trkpt lat="52.857493" lon="-3.374384"><ele>359</ele><time>2020-01-18T10:07:17Z</time><name>PT1342</name></trkpt>
<trkpt lat="52.857499" lon="-3.374384"><ele>359</ele><time>2020-01-18T10:07:18Z</time><name>PT1343</name></trkpt>
<trkpt lat="52.857501" lon="-3.374387"><ele>359</ele><time>2020-01-18T10:07:19Z</time><name>PT1344</name></trkpt>
<trkpt lat="52.857503" lon="-3.374370"><ele>359</ele><time>2020-01-18T10:07:20Z</time><name>PT1345</name></trkpt>
<trkpt lat="52.857504" lon="-3.374363"><ele>359</ele><time>2020-01-18T10:07:21Z</time><name>PT1346</name></trkpt>
<trkpt lat="52.857506" lon="-3.374361"><ele>359</ele><time>2020-01-18T10:07:22Z</time><name>PT1347</name></trkpt>
<trkpt lat="52.857509" lon="-3.374362"><ele>359</ele><time>2020-01-18T10:07:23Z</time><name>PT1348</name></trkpt>
<trkpt lat="52.857513" lon="-3.374372"><ele>358</ele><time>2020-01-18T10:07:24Z</time><name>PT1349</name></trkpt>
<trkpt lat="52.857515" lon="-3.374371"><ele>358</ele><time>2020-01-18T10:07:25Z</time><name>PT1350</name></trkpt>
<trkpt lat="52.857513" lon="-3.374370"><ele>359</ele><time>2020-01-18T10:07:26Z</time><name>PT1351</name></trkpt>
<trkpt lat="52.857510" lon="-3.374369"><ele>359</ele><time>2020-01-18T10:07:27Z</time><name>PT1352</name></trkpt>
<trkpt lat="52.857509" lon="-3.374372"><ele>359</ele><time>2020-01-18T10:07:53Z</time><name>PT1353</name></trkpt>
<trkpt lat="52.857510" lon="-3.374362"><ele>359</ele><time>2020-01-18T10:07:53Z</time><name>PT1354</name></trkpt>
<trkpt lat="52.857512" lon="-3.374356"><ele>359</ele><time>2020-01-18T10:07:55Z</time><name>PT1355</name></trkpt>
<trkpt lat="52.857512" lon="-3.374355"><ele>359</ele><time>2020-01-18T10:08:05Z</time><name>PT1356</name></trkpt>
<trkpt lat="52.857513" lon="-3.374354"><ele>359</ele><time>2020-01-18T10:08:07Z</time><name>PT1357</name></trkpt>
<trkpt lat="52.857514" lon="-3.374356"><ele>359</ele><time>2020-01-18T10:08:08Z</time><name>PT1358</name></trkpt>
<trkpt lat="52.857517" lon="-3.374357"><ele>359</ele><time>2020-01-18T10:08:08Z</time><name>PT1359</name></trkpt>
<trkpt lat="52.857516" lon="-3.374352"><ele>359</ele><time>2020-01-18T10:08:14Z</time><name>PT1360</name></trkpt>
<trkpt lat="52.857510" lon="-3.374351"><ele>360</ele><time>2020-01-18T10:08:14Z</time><name>PT1361</name></trkpt>
<trkpt lat="52.857492" lon="-3.374352"><ele>361</ele><time>2020-01-18T10:08:16Z</time><name>PT1362</name></trkpt>
<trkpt lat="52.857490" lon="-3.374351"><ele>361</ele><time>2020-01-18T10:08:17Z</time><name>PT1363</name></trkpt>
<trkpt lat="52.857491" lon="-3.374354"><ele>360</ele><time>2020-01-18T10:08:17Z</time><name>PT1364</name></trkpt>
<trkpt lat="52.857493" lon="-3.374357"><ele>361</ele><time>2020-01-18T10:08:19Z</time><name>PT1365</name></trkpt>
<trkpt lat="52.857497" lon="-3.374358"><ele>361</ele><time>2020-01-18T10:08:20Z</time><name>PT1366</name></trkpt>
<trkpt lat="52.857502" lon="-3.374352"><ele>361</ele><time>2020-01-18T10:08:20Z</time><name>PT1367</name></trkpt>
<trkpt lat="52.857501" lon="-3.374347"><ele>361</ele><time>2020-01-18T10:08:22Z</time><name>PT1368</name></trkpt>
<trkpt lat="52.857497" lon="-3.374346"><ele>361</ele><time>2020-01-18T10:08:23Z</time><name>PT1369</name></trkpt>
<trkpt lat="52.857496" lon="-3.374342"><ele>361</ele><time>2020-01-18T10:08:23Z</time><name>PT1370</name></trkpt>
<trkpt lat="52.857492" lon="-3.374339"><ele>361</ele><time>2020-01-18T10:08:25Z</time><name>PT1371</name></trkpt>
<trkpt lat="52.857488" lon="-3.374343"><ele>361</ele><time>2020-01-18T10:08:26Z</time><name>PT1372</name></trkpt>
<trkpt lat="52.857489" lon="-3.374346"><ele>361</ele><time>2020-01-18T10:08:26Z</time><name>PT1373</name></trkpt>
<trkpt lat="52.857487" lon="-3.374349"><ele>361</ele><time>2020-01-18T10:08:28Z</time><name>PT1374</name></trkpt>
<trkpt lat="52.857481" lon="-3.374355"><ele>361</ele><time>2020-01-18T10:08:29Z</time><name>PT1375</name></trkpt>
<trkpt lat="52.857480" lon="-3.374364"><ele>362</ele><time>2020-01-18T10:08:30Z</time><name>PT1376</name></trkpt>
<trkpt lat="52.857478" lon="-3.374366"><ele>362</ele><time>2020-01-18T10:08:31Z</time><name>PT1377</name></trkpt>
<trkpt lat="52.857473" lon="-3.374351"><ele>361</ele><time>2020-01-18T10:08:32Z</time><name>PT1378</name></trkpt>
<trkpt lat="52.857473" lon="-3.374315"><ele>358</ele><time>2020-01-18T10:08:32Z</time><name>PT1379</name></trkpt>
<trkpt lat="52.857481" lon="-3.374318"><ele>358</ele><time>2020-01-18T10:08:34Z</time><name>PT1380</name></trkpt>
<trkpt lat="52.857477" lon="-3.374320"><ele>359</ele><time>2020-01-18T10:08:35Z</time><name>PT1381</name></trkpt>
<trkpt lat="52.857476" lon="-3.374319"><ele>359</ele><time>2020-01-18T10:08:36Z</time><name>PT1382</name></trkpt>
<trkpt lat="52.857476" lon="-3.374314"><ele>359</ele><time>2020-01-18T10:08:37Z</time><name>PT1383</name></trkpt>
<trkpt lat="52.857472" lon="-3.374325"><ele>360</ele><time>2020-01-18T10:08:38Z</time><name>PT1384</name></trkpt>
<trkpt lat="52.857473" lon="-3.374323"><ele>360</ele><time>2020-01-18T10:08:39Z</time><name>PT1385</name></trkpt>
<trkpt lat="52.857473" lon="-3.374324"><ele>360</ele><time>2020-01-18T10:08:40Z</time><name>PT1386</name></trkpt>
<trkpt lat="52.857474" lon="-3.374323"><ele>361</ele><time>2020-01-18T10:08:41Z</time><name>PT1387</name></trkpt>
<trkpt lat="52.857474" lon="-3.374318"><ele>361</ele><time>2020-01-18T10:08:42Z</time><name>PT1388</name></trkpt>
<trkpt lat="52.857475" lon="-3.374324"><ele>361</ele><time>2020-01-18T10:08:43Z</time><name>PT1389</name></trkpt>
<trkpt lat="52.857475" lon="-3.374321"><ele>361</ele><time>2020-01-18T10:08:44Z</time><name>PT1390</name></trkpt>
<trkpt lat="52.857473" lon="-3.374320"><ele>362</ele><time>2020-01-18T10:08:44Z</time><name>PT1391</name></trkpt>
<trkpt lat="52.857474" lon="-3.374320"><ele>362</ele><time>2020-01-18T10:08:46Z</time><name>PT1392</name></trkpt>
<trkpt lat="52.857474" lon="-3.374320"><ele>362</ele><time>2020-01-18T10:08:47Z</time><name>PT1393</name></trkpt>
<trkpt lat="52.857479" lon="-3.374323"><ele>362</ele><time>2020-01-18T10:08:48Z</time><name>PT1394</name></trkpt>
<trkpt lat="52.857481" lon="-3.374319"><ele>362</ele><time>2020-01-18T10:08:49Z</time><name>PT1395</name></trkpt>
<trkpt lat="52.857480" lon="-3.374319"><ele>362</ele><time>2020-01-18T10:08:50Z</time><name>PT1396</name></trkpt>
<trkpt lat="52.857480" lon="-3.374312"><ele>363</ele><time>2020-01-18T10:08:50Z</time><name>PT1397</name></trkpt>
<trkpt lat="52.857479" lon="-3.374313"><ele>363</ele><time>2020-01-18T10:08:52Z</time><name>PT1398</name></trkpt>
<trkpt lat="52.857481" lon="-3.374309"><ele>363</ele><time>2020-01-18T10:08:53Z</time><name>PT1399</name></trkpt>
<trkpt lat="52.857481" lon="-3.374309"><ele>363</ele><time>2020-01-18T10:08:53Z</time><name>PT1400</name></trkpt>
<trkpt lat="52.857478" lon="-3.374311"><ele>363</ele><time>2020-01-18T10:08:55Z</time><name>PT1401</name></trkpt>
<trkpt lat="52.857472" lon="-3.374313"><ele>363</ele><time>2020-01-18T10:08:56Z</time><name>PT1402</name></trkpt>
<trkpt lat="52.857476" lon="-3.374312"><ele>363</ele><time>2020-01-18T10:08:56Z</time><name>PT1403</name></trkpt>
<trkpt lat="52.857473" lon="-3.374311"><ele>363</ele><time>2020-01-18T10:08:58Z</time><name>PT1404</name></trkpt>
<trkpt lat="52.857469" lon="-3.374311"><ele>363</ele><time>2020-01-18T10:08:59Z</time><name>PT1405</name></trkpt>
<trkpt lat="52.857469" lon="-3.374319"><ele>362</ele><time>2020-01-18T10:09:01Z</time><name>PT1406</name></trkpt>
<trkpt lat="52.857466" lon="-3.374322"><ele>362</ele><time>2020-01-18T10:09:02Z</time><name>PT1407</name></trkpt>
<trkpt lat="52.857462" lon="-3.374323"><ele>362</ele><time>2020-01-18T10:09:03Z</time><name>PT1408</name></trkpt>
<trkpt lat="52.857459" lon="-3.374319"><ele>362</ele><time>2020-01-18T10:09:04Z</time><name>PT1409</name></trkpt>
<trkpt lat="52.857455" lon="-3.374321"><ele>362</ele><time>2020-01-18T10:09:05Z</time><name>PT1410</name></trkpt>
<trkpt lat="52.857449" lon="-3.374308"><ele>363</ele><time>2020-01-18T10:09:06Z</time><name>PT1411</name></trkpt>
<trkpt lat="52.857456" lon="-3.374296"><ele>364</ele><time>2020-01-18T10:09:11Z</time><name>PT1412</name></trkpt>
<trkpt lat="52.857454" lon="-3.374297"><ele>364</ele><time>2020-01-18T10:09:12Z</time><name>PT1413</name></trkpt>
<trkpt lat="52.857459" lon="-3.374297"><ele>363</ele><time>2020-01-18T10:09:13Z</time><name>PT1414</name></trkpt>
<trkpt lat="52.857459" lon="-3.374298"><ele>363</ele><time>2020-01-18T10:09:14Z</time><name>PT1415</name></trkpt>
<trkpt lat="52.857459" lon="-3.374299"><ele>363</ele><time>2020-01-18T10:09:15Z</time><name>PT1416</name></trkpt>
<trkpt lat="52.857460" lon="-3.374306"><ele>363</ele><time>2020-01-18T10:09:16Z</time><name>PT1417</name></trkpt>
<trkpt lat="52.857460" lon="-3.374296"><ele>363</ele><time>2020-01-18T10:09:17Z</time><name>PT1418</name></trkpt>
<trkpt lat="52.857461" lon="-3.374312"><ele>365</ele><time>2020-01-18T10:09:18Z</time><name>PT1419</name></trkpt>
<trkpt lat="52.857460" lon="-3.374323"><ele>365</ele><time>2020-01-18T10:09:19Z</time><name>PT1420</name></trkpt>
<trkpt lat="52.857467" lon="-3.374328"><ele>364</ele><time>2020-01-18T10:09:32Z</time><name>PT1421</name></trkpt>
<trkpt lat="52.857475" lon="-3.374326"><ele>363</ele><time>2020-01-18T10:09:32Z</time><name>PT1422</name></trkpt>
<trkpt lat="52.857472" lon="-3.374325"><ele>363</ele><time>2020-01-18T10:09:34Z</time><name>PT1423</name></trkpt>
<trkpt lat="52.857473" lon="-3.374325"><ele>363</ele><time>2020-01-18T10:09:35Z</time><name>PT1424</name></trkpt>
<trkpt lat="52.857468" lon="-3.374328"><ele>363</ele><time>2020-01-18T10:09:35Z</time><name>PT1425</name></trkpt>
<trkpt lat="52.857469" lon="-3.374329"><ele>363</ele><time>2020-01-18T10:09:43Z</time><name>PT1426</name></trkpt>
<trkpt lat="52.857462" lon="-3.374322"><ele>363</ele><time>2020-01-18T10:09:44Z</time><name>PT1427</name></trkpt>
<trkpt lat="52.857451" lon="-3.374322"><ele>363</ele><time>2020-01-18T10:09:44Z</time><name>PT1428</name></trkpt>
<trkpt lat="52.857440" lon="-3.374326"><ele>363</ele><time>2020-01-18T10:09:46Z</time><name>PT1429</name></trkpt>
<trkpt lat="52.857422" lon="-3.374322"><ele>363</ele><time>2020-01-18T10:09:47Z</time><name>PT1430</name></trkpt>
<trkpt lat="52.857408" lon="-3.374322"><ele>362</ele><time>2020-01-18T10:09:47Z</time><name>PT1431</name></trkpt>
<trkpt lat="52.857394" lon="-3.374322"><ele>362</ele><time>2020-01-18T10:09:49Z</time><name>PT1432</name></trkpt>
<trkpt lat="52.857371" lon="-3.374323"><ele>362</ele><time>2020-01-18T10:09:50Z</time><name>PT1433</name></trkpt>
<trkpt lat="52.857356" lon="-3.374318"><ele>362</ele><time>2020-01-18T10:09:50Z</time><name>PT1434</name></trkpt>
<trkpt lat="52.857344" lon="-3.374315"><ele>362</ele><time>2020-01-18T10:09:52Z</time><name>PT1435</name></trkpt>
<trkpt lat="52.857331" lon="-3.374310"><ele>361</ele><time>2020-01-18T10:09:53Z</time><name>PT1436</name></trkpt>
<trkpt lat="52.857319" lon="-3.374308"><ele>361</ele><time>2020-01-18T10:09:53Z</time><name>PT1437</name></trkpt>
<trkpt lat="52.857310" lon="-3.374310"><ele>361</ele><time>2020-01-18T10:09:55Z</time><name>PT1438</name></trkpt>
<trkpt lat="52.857299" lon="-3.374306"><ele>361</ele><time>2020-01-18T10:09:56Z</time><name>PT1439</name></trkpt>
<trkpt lat="52.857286" lon="-3.374301"><ele>361</ele><time>2020-01-18T10:09:56Z</time><name>PT1440</name></trkpt>
<trkpt lat="52.857273" lon="-3.374295"><ele>360</ele><time>2020-01-18T10:09:58Z</time><name>PT1441</name></trkpt>
<trkpt lat="52.857258" lon="-3.374292"><ele>361</ele><time>2020-01-18T10:09:59Z</time><name>PT1442</name></trkpt>
<trkpt lat="52.857247" lon="-3.374289"><ele>360</ele><time>2020-01-18T10:09:59Z</time><name>PT1443</name></trkpt>
<trkpt lat="52.857240" lon="-3.374287"><ele>358</ele><time>2020-01-18T10:10:01Z</time><name>PT1444</name></trkpt>
<trkpt lat="52.857228" lon="-3.374285"><ele>357</ele><time>2020-01-18T10:10:02Z</time><name>PT1445</name></trkpt>
<trkpt lat="52.857213" lon="-3.374274"><ele>357</ele><time>2020-01-18T10:10:02Z</time><name>PT1446</name></trkpt>
<trkpt lat="52.857199" lon="-3.374269"><ele>357</ele><time>2020-01-18T10:10:04Z</time><name>PT1447</name></trkpt>
<trkpt lat="52.857190" lon="-3.374269"><ele>357</ele><time>2020-01-18T10:10:05Z</time><name>PT1448</name></trkpt>
<trkpt lat="52.857182" lon="-3.374264"><ele>356</ele><time>2020-01-18T10:10:06Z</time><name>PT1449</name></trkpt>
<trkpt lat="52.857168" lon="-3.374256"><ele>356</ele><time>2020-01-18T10:10:07Z</time><name>PT1450</name></trkpt>
<trkpt lat="52.857155" lon="-3.374250"><ele>357</ele><time>2020-01-18T10:10:08Z</time><name>PT1451</name></trkpt>
<trkpt lat="52.857142" lon="-3.374244"><ele>357</ele><time>2020-01-18T10:10:08Z</time><name>PT1452</name></trkpt>
<trkpt lat="52.857131" lon="-3.374231"><ele>355</ele><time>2020-01-18T10:10:10Z</time><name>PT1453</name></trkpt>
<trkpt lat="52.857119" lon="-3.374221"><ele>354</ele><time>2020-01-18T10:10:11Z</time><name>PT1454</name></trkpt>
<trkpt lat="52.857107" lon="-3.374214"><ele>353</ele><time>2020-01-18T10:10:12Z</time><name>PT1455</name></trkpt>
<trkpt lat="52.857093" lon="-3.374211"><ele>353</ele><time>2020-01-18T10:10:13Z</time><name>PT1456</name></trkpt>
<trkpt lat="52.857083" lon="-3.374207"><ele>353</ele><time>2020-01-18T10:10:14Z</time><name>PT1457</name></trkpt>
<trkpt lat="52.857068" lon="-3.374201"><ele>354</ele><time>2020-01-18T10:10:15Z</time><name>PT1458</name></trkpt>
<trkpt lat="52.857056" lon="-3.374200"><ele>353</ele><time>2020-01-18T10:10:16Z</time><name>PT1459</name></trkpt>
<trkpt lat="52.857041" lon="-3.374194"><ele>354</ele><time>2020-01-18T10:10:17Z</time><name>PT1460</name></trkpt>
<trkpt lat="52.857032" lon="-3.374188"><ele>353</ele><time>2020-01-18T10:10:18Z</time><name>PT1461</name></trkpt>
<trkpt lat="52.857021" lon="-3.374178"><ele>352</ele><time>2020-01-18T10:10:19Z</time><name>PT1462</name></trkpt>
<trkpt lat="52.857008" lon="-3.374173"><ele>352</ele><time>2020-01-18T10:10:20Z</time><name>PT1463</name></trkpt>
<trkpt lat="52.856996" lon="-3.374170"><ele>352</ele><time>2020-01-18T10:10:20Z</time><name>PT1464</name></trkpt>
<trkpt lat="52.856981" lon="-3.374169"><ele>352</ele><time>2020-01-18T10:10:22Z</time><name>PT1465</name></trkpt>
<trkpt lat="52.856968" lon="-3.374166"><ele>352</ele><time>2020-01-18T10:10:23Z</time><name>PT1466</name></trkpt>
<trkpt lat="52.856955" lon="-3.374164"><ele>352</ele><time>2020-01-18T10:10:24Z</time><name>PT1467</name></trkpt>
<trkpt lat="52.856943" lon="-3.374165"><ele>352</ele><time>2020-01-18T10:10:25Z</time><name>PT1468</name></trkpt>
<trkpt lat="52.856932" lon="-3.374167"><ele>351</ele><time>2020-01-18T10:10:26Z</time><name>PT1469</name></trkpt>
<trkpt lat="52.856917" lon="-3.374169"><ele>351</ele><time>2020-01-18T10:10:26Z</time><name>PT1470</name></trkpt>
<trkpt lat="52.856900" lon="-3.374167"><ele>351</ele><time>2020-01-18T10:10:28Z</time><name>PT1471</name></trkpt>
<trkpt lat="52.856885" lon="-3.374159"><ele>350</ele><time>2020-01-18T10:10:29Z</time><name>PT1472</name></trkpt>
<trkpt lat="52.856870" lon="-3.374152"><ele>350</ele><time>2020-01-18T10:10:29Z</time><name>PT1473</name></trkpt>
<trkpt lat="52.856857" lon="-3.374155"><ele>350</ele><time>2020-01-18T10:10:31Z</time><name>PT1474</name></trkpt>
<trkpt lat="52.856845" lon="-3.374157"><ele>350</ele><time>2020-01-18T10:10:32Z</time><name>PT1475</name></trkpt>
<trkpt lat="52.856830" lon="-3.374162"><ele>350</ele><time>2020-01-18T10:10:32Z</time><name>PT1476</name></trkpt>
<trkpt lat="52.856817" lon="-3.374163"><ele>350</ele><time>2020-01-18T10:10:34Z</time><name>PT1477</name></trkpt>
<trkpt lat="52.856802" lon="-3.374158"><ele>350</ele><time>2020-01-18T10:10:35Z</time><name>PT1478</name></trkpt>
<trkpt lat="52.856788" lon="-3.374155"><ele>350</ele><time>2020-01-18T10:10:35Z</time><name>PT1479</name></trkpt>
<trkpt lat="52.856771" lon="-3.374149"><ele>349</ele><time>2020-01-18T10:10:37Z</time><name>PT1480</name></trkpt>
<trkpt lat="52.856758" lon="-3.374149"><ele>350</ele><time>2020-01-18T10:10:38Z</time><name>PT1481</name></trkpt>
<trkpt lat="52.856747" lon="-3.374148"><ele>349</ele><time>2020-01-18T10:10:38Z</time><name>PT1482</name></trkpt>
<trkpt lat="52.856732" lon="-3.374146"><ele>350</ele><time>2020-01-18T10:10:40Z</time><name>PT1483</name></trkpt>
<trkpt lat="52.856719" lon="-3.374141"><ele>350</ele><time>2020-01-18T10:10:41Z</time><name>PT1484</name></trkpt>
<trkpt lat="52.856702" lon="-3.374133"><ele>350</ele><time>2020-01-18T10:10:41Z</time><name>PT1485</name></trkpt>
<trkpt lat="52.856687" lon="-3.374127"><ele>350</ele><time>2020-01-18T10:10:43Z</time><name>PT1486</name></trkpt>
<trkpt lat="52.856672" lon="-3.374119"><ele>350</ele><time>2020-01-18T10:10:44Z</time><name>PT1487</name></trkpt>
<trkpt lat="52.856660" lon="-3.374116"><ele>350</ele><time>2020-01-18T10:10:44Z</time><name>PT1488</name></trkpt>
<trkpt lat="52.856648" lon="-3.374114"><ele>349</ele><time>2020-01-18T10:10:46Z</time><name>PT1489</name></trkpt>
<trkpt lat="52.856631" lon="-3.374116"><ele>350</ele><time>2020-01-18T10:10:47Z</time><name>PT1490</name></trkpt>
<trkpt lat="52.856620" lon="-3.374112"><ele>348</ele><time>2020-01-18T10:10:47Z</time><name>PT1491</name></trkpt>
<trkpt lat="52.856608" lon="-3.374107"><ele>348</ele><time>2020-01-18T10:10:49Z</time><name>PT1492</name></trkpt>
<trkpt lat="52.856595" lon="-3.374101"><ele>348</ele><time>2020-01-18T10:10:50Z</time><name>PT1493</name></trkpt>
<trkpt lat="52.856582" lon="-3.374098"><ele>348</ele><time>2020-01-18T10:10:50Z</time><name>PT1494</name></trkpt>
<trkpt lat="52.856566" lon="-3.374094"><ele>348</ele><time>2020-01-18T10:10:52Z</time><name>PT1495</name></trkpt>
<trkpt lat="52.856556" lon="-3.374085"><ele>347</ele><time>2020-01-18T10:10:53Z</time><name>PT1496</name></trkpt>
<trkpt lat="52.856547" lon="-3.374078"><ele>348</ele><time>2020-01-18T10:10:53Z</time><name>PT1497</name></trkpt>
<trkpt lat="52.856533" lon="-3.374068"><ele>348</ele><time>2020-01-18T10:10:55Z</time><name>PT1498</name></trkpt>
<trkpt lat="52.856519" lon="-3.374058"><ele>348</ele><time>2020-01-18T10:10:56Z</time><name>PT1499</name></trkpt>
<trkpt lat="52.856514" lon="-3.374048"><ele>348</ele><time>2020-01-18T10:10:56Z</time><name>PT1500</name></trkpt>
<trkpt lat="52.856503" lon="-3.374042"><ele>348</ele><time>2020-01-18T10:10:58Z</time><name>PT1501</name></trkpt>
<trkpt lat="52.856491" lon="-3.374029"><ele>348</ele><time>2020-01-18T10:10:59Z</time><name>PT1502</name></trkpt>
<trkpt lat="52.856479" lon="-3.374019"><ele>347</ele><time>2020-01-18T10:10:59Z</time><name>PT1503</name></trkpt>
<trkpt lat="52.856464" lon="-3.374010"><ele>348</ele><time>2020-01-18T10:11:01Z</time><name>PT1504</name></trkpt>
<trkpt lat="52.856451" lon="-3.374001"><ele>348</ele><time>2020-01-18T10:11:02Z</time><name>PT1505</name></trkpt>
<trkpt lat="52.856424" lon="-3.373987"><ele>350</ele><time>2020-01-18T10:11:02Z</time><name>PT1506</name></trkpt>
<trkpt lat="52.856412" lon="-3.373980"><ele>349</ele><time>2020-01-18T10:11:04Z</time><name>PT1507</name></trkpt>
<trkpt lat="52.856399" lon="-3.373968"><ele>348</ele><time>2020-01-18T10:11:05Z</time><name>PT1508</name></trkpt>
<trkpt lat="52.856393" lon="-3.373955"><ele>348</ele><time>2020-01-18T10:11:05Z</time><name>PT1509</name></trkpt>
<trkpt lat="52.856382" lon="-3.373943"><ele>348</ele><time>2020-01-18T10:11:07Z</time><name>PT1510</name></trkpt>
<trkpt lat="52.856370" lon="-3.373930"><ele>348</ele><time>2020-01-18T10:11:08Z</time><name>PT1511</name></trkpt>
<trkpt lat="52.856362" lon="-3.373917"><ele>348</ele><time>2020-01-18T10:11:09Z</time><name>PT1512</name></trkpt>
<trkpt lat="52.856358" lon="-3.373909"><ele>347</ele><time>2020-01-18T10:11:10Z</time><name>PT1513</name></trkpt>
<trkpt lat="52.856346" lon="-3.373899"><ele>347</ele><time>2020-01-18T10:11:11Z</time><name>PT1514</name></trkpt>
<trkpt lat="52.856327" lon="-3.373887"><ele>348</ele><time>2020-01-18T10:11:12Z</time><name>PT1515</name></trkpt>
<trkpt lat="52.856317" lon="-3.373875"><ele>347</ele><time>2020-01-18T10:11:13Z</time><name>PT1516</name></trkpt>
<trkpt lat="52.856307" lon="-3.373860"><ele>348</ele><time>2020-01-18T10:11:14Z</time><name>PT1517</name></trkpt>
<trkpt lat="52.856292" lon="-3.373846"><ele>347</ele><time>2020-01-18T10:11:15Z</time><name>PT1518</name></trkpt>
<trkpt lat="52.856281" lon="-3.373834"><ele>347</ele><time>2020-01-18T10:11:16Z</time><name>PT1519</name></trkpt>
<trkpt lat="52.856273" lon="-3.373821"><ele>347</ele><time>2020-01-18T10:11:17Z</time><name>PT1520</name></trkpt>
<trkpt lat="52.856266" lon="-3.373804"><ele>347</ele><time>2020-01-18T10:11:18Z</time><name>PT1521</name></trkpt>
<trkpt lat="52.856254" lon="-3.373784"><ele>348</ele><time>2020-01-18T10:11:19Z</time><name>PT1522</name></trkpt>
<trkpt lat="52.856244" lon="-3.373770"><ele>347</ele><time>2020-01-18T10:11:20Z</time><name>PT1523</name></trkpt>
<trkpt lat="52.856239" lon="-3.373762"><ele>347</ele><time>2020-01-18T10:11:21Z</time><name>PT1524</name></trkpt>
<trkpt lat="52.856222" lon="-3.373747"><ele>349</ele><time>2020-01-18T10:11:22Z</time><name>PT1525</name></trkpt>
<trkpt lat="52.856214" lon="-3.373735"><ele>348</ele><time>2020-01-18T10:11:23Z</time><name>PT1526</name></trkpt>
<trkpt lat="52.856203" lon="-3.373727"><ele>348</ele><time>2020-01-18T10:11:23Z</time><name>PT1527</name></trkpt>
<trkpt lat="52.856190" lon="-3.373713"><ele>349</ele><time>2020-01-18T10:11:25Z</time><name>PT1528</name></trkpt>
<trkpt lat="52.856180" lon="-3.373702"><ele>349</ele><time>2020-01-18T10:11:26Z</time><name>PT1529</name></trkpt>
<trkpt lat="52.856171" lon="-3.373688"><ele>349</ele><time>2020-01-18T10:11:26Z</time><name>PT1530</name></trkpt>
<trkpt lat="52.856160" lon="-3.373676"><ele>348</ele><time>2020-01-18T10:11:28Z</time><name>PT1531</name></trkpt>
<trkpt lat="52.856146" lon="-3.373666"><ele>348</ele><time>2020-01-18T10:11:29Z</time><name>PT1532</name></trkpt>
<trkpt lat="52.856138" lon="-3.373656"><ele>348</ele><time>2020-01-18T10:11:29Z</time><name>PT1533</name></trkpt>
<trkpt lat="52.856129" lon="-3.373647"><ele>347</ele><time>2020-01-18T10:11:31Z</time><name>PT1534</name></trkpt>
<trkpt lat="52.856121" lon="-3.373635"><ele>348</ele><time>2020-01-18T10:11:32Z</time><name>PT1535</name></trkpt>
<trkpt lat="52.856112" lon="-3.373624"><ele>348</ele><time>2020-01-18T10:11:32Z</time><name>PT1536</name></trkpt>
<trkpt lat="52.856104" lon="-3.373608"><ele>348</ele><time>2020-01-18T10:11:34Z</time><name>PT1537</name></trkpt>
<trkpt lat="52.856100" lon="-3.373597"><ele>347</ele><time>2020-01-18T10:11:35Z</time><name>PT1538</name></trkpt>
<trkpt lat="52.856100" lon="-3.373594"><ele>347</ele><time>2020-01-18T10:11:35Z</time><name>PT1539</name></trkpt>
<trkpt lat="52.856099" lon="-3.373596"><ele>347</ele><time>2020-01-18T10:11:37Z</time><name>PT1540</name></trkpt>
<trkpt lat="52.856099" lon="-3.373597"><ele>348</ele><time>2020-01-18T10:11:38Z</time><name>PT1541</name></trkpt>
<trkpt lat="52.856097" lon="-3.373595"><ele>347</ele><time>2020-01-18T10:11:38Z</time><name>PT1542</name></trkpt>
<trkpt lat="52.856094" lon="-3.373587"><ele>348</ele><time>2020-01-18T10:11:40Z</time><name>PT1543</name></trkpt>
<trkpt lat="52.856098" lon="-3.373588"><ele>348</ele><time>2020-01-18T10:11:41Z</time><name>PT1544</name></trkpt>
<trkpt lat="52.856095" lon="-3.373582"><ele>348</ele><time>2020-01-18T10:11:41Z</time><name>PT1545</name></trkpt>
<trkpt lat="52.856093" lon="-3.373580"><ele>348</ele><time>2020-01-18T10:11:43Z</time><name>PT1546</name></trkpt>
<trkpt lat="52.856094" lon="-3.373582"><ele>348</ele><time>2020-01-18T10:11:44Z</time><name>PT1547</name></trkpt>
<trkpt lat="52.856098" lon="-3.373594"><ele>348</ele><time>2020-01-18T10:11:52Z</time><name>PT1548</name></trkpt>
<trkpt lat="52.856107" lon="-3.373614"><ele>348</ele><time>2020-01-18T10:11:53Z</time><name>PT1549</name></trkpt>
<trkpt lat="52.856116" lon="-3.373631"><ele>348</ele><time>2020-01-18T10:11:53Z</time><name>PT1550</name></trkpt>
<trkpt lat="52.856129" lon="-3.373647"><ele>348</ele><time>2020-01-18T10:11:55Z</time><name>PT1551</name></trkpt>
<trkpt lat="52.856139" lon="-3.373662"><ele>348</ele><time>2020-01-18T10:11:56Z</time><name>PT1552</name></trkpt>
<trkpt lat="52.856149" lon="-3.373670"><ele>348</ele><time>2020-01-18T10:11:57Z</time><name>PT1553</name></trkpt>
<trkpt lat="52.856158" lon="-3.373684"><ele>347</ele><time>2020-01-18T10:11:58Z</time><name>PT1554</name></trkpt>
<trkpt lat="52.856169" lon="-3.373702"><ele>347</ele><time>2020-01-18T10:11:59Z</time><name>PT1555</name></trkpt>
<trkpt lat="52.856179" lon="-3.373718"><ele>347</ele><time>2020-01-18T10:12:00Z</time><name>PT1556</name></trkpt>
<trkpt lat="52.856187" lon="-3.373738"><ele>347</ele><time>2020-01-18T10:12:01Z</time><name>PT1557</name></trkpt>
<trkpt lat="52.856195" lon="-3.373760"><ele>348</ele><time>2020-01-18T10:12:02Z</time><name>PT1558</name></trkpt>
<trkpt lat="52.856207" lon="-3.373770"><ele>348</ele><time>2020-01-18T10:12:03Z</time><name>PT1559</name></trkpt>
<trkpt lat="52.856216" lon="-3.373784"><ele>348</ele><time>2020-01-18T10:12:04Z</time><name>PT1560</name></trkpt>
<trkpt lat="52.856226" lon="-3.373800"><ele>349</ele><time>2020-01-18T10:12:05Z</time><name>PT1561</name></trkpt>
<trkpt lat="52.856237" lon="-3.373818"><ele>349</ele><time>2020-01-18T10:12:06Z</time><name>PT1562</name></trkpt>
<trkpt lat="52.856246" lon="-3.373829"><ele>349</ele><time>2020-01-18T10:12:07Z</time><name>PT1563</name></trkpt>
<trkpt lat="52.856257" lon="-3.373845"><ele>349</ele><time>2020-01-18T10:12:08Z</time><name>PT1564</name></trkpt>
<trkpt lat="52.856264" lon="-3.373861"><ele>350</ele><time>2020-01-18T10:12:08Z</time><name>PT1565</name></trkpt>
<trkpt lat="52.856274" lon="-3.373872"><ele>350</ele><time>2020-01-18T10:12:10Z</time><name>PT1566</name></trkpt>
<trkpt lat="52.856286" lon="-3.373888"><ele>350</ele><time>2020-01-18T10:12:11Z</time><name>PT1567</name></trkpt>
<trkpt lat="52.856302" lon="-3.373914"><ele>352</ele><time>2020-01-18T10:12:11Z</time><name>PT1568</name></trkpt>
<trkpt lat="52.856314" lon="-3.373936"><ele>353</ele><time>2020-01-18T10:12:13Z</time><name>PT1569</name></trkpt>
<trkpt lat="52.856326" lon="-3.373951"><ele>353</ele><time>2020-01-18T10:12:14Z</time><name>PT1570</name></trkpt>
<trkpt lat="52.856337" lon="-3.373971"><ele>354</ele><time>2020-01-18T10:12:14Z</time><name>PT1571</name></trkpt>
<trkpt lat="52.856349" lon="-3.373975"><ele>354</ele><time>2020-01-18T10:12:16Z</time><name>PT1572</name></trkpt>
<trkpt lat="52.856361" lon="-3.373977"><ele>354</ele><time>2020-01-18T10:12:17Z</time><name>PT1573</name></trkpt>
<trkpt lat="52.856371" lon="-3.373978"><ele>354</ele><time>2020-01-18T10:12:17Z</time><name>PT1574</name></trkpt>
<trkpt lat="52.856382" lon="-3.373991"><ele>354</ele><time>2020-01-18T10:12:19Z</time><name>PT1575</name></trkpt>
<trkpt lat="52.856395" lon="-3.374002"><ele>354</ele><time>2020-01-18T10:12:20Z</time><name>PT1576</name></trkpt>
<trkpt lat="52.856405" lon="-3.374013"><ele>354</ele><time>2020-01-18T10:12:20Z</time><name>PT1577</name></trkpt>
<trkpt lat="52.856416" lon="-3.374021"><ele>354</ele><time>2020-01-18T10:12:22Z</time><name>PT1578</name></trkpt>
<trkpt lat="52.856426" lon="-3.374036"><ele>354</ele><time>2020-01-18T10:12:23Z</time><name>PT1579</name></trkpt>
<trkpt lat="52.856440" lon="-3.374049"><ele>354</ele><time>2020-01-18T10:12:23Z</time><name>PT1580</name></trkpt>
<trkpt lat="52.856451" lon="-3.374054"><ele>354</ele><time>2020-01-18T10:12:25Z</time><name>PT1581</name></trkpt>
<trkpt lat="52.856463" lon="-3.374067"><ele>354</ele><time>2020-01-18T10:12:26Z</time><name>PT1582</name></trkpt>
<trkpt lat="52.856477" lon="-3.374080"><ele>355</ele><time>2020-01-18T10:12:27Z</time><name>PT1583</name></trkpt>
<trkpt lat="52.856487" lon="-3.374087"><ele>354</ele><time>2020-01-18T10:12:28Z</time><name>PT1584</name></trkpt>
<trkpt lat="52.856500" lon="-3.374100"><ele>355</ele><time>2020-01-18T10:12:29Z</time><name>PT1585</name></trkpt>
<trkpt lat="52.856510" lon="-3.374116"><ele>355</ele><time>2020-01-18T10:12:29Z</time><name>PT1586</name></trkpt>
<trkpt lat="52.856523" lon="-3.374133"><ele>357</ele><time>2020-01-18T10:12:31Z</time><name>PT1587</name></trkpt>
<trkpt lat="52.856536" lon="-3.374140"><ele>356</ele><time>2020-01-18T10:12:32Z</time><name>PT1588</name></trkpt>
<trkpt lat="52.856550" lon="-3.374150"><ele>356</ele><time>2020-01-18T10:12:32Z</time><name>PT1589</name></trkpt>
<trkpt lat="52.856560" lon="-3.374155"><ele>357</ele><time>2020-01-18T10:12:34Z</time><name>PT1590</name></trkpt>
<trkpt lat="52.856569" lon="-3.374164"><ele>357</ele><time>2020-01-18T10:12:35Z</time><name>PT1591</name></trkpt>
<trkpt lat="52.856580" lon="-3.374175"><ele>357</ele><time>2020-01-18T10:12:35Z</time><name>PT1592</name></trkpt>
<trkpt lat="52.856593" lon="-3.374184"><ele>357</ele><time>2020-01-18T10:12:37Z</time><name>PT1593</name></trkpt>
<trkpt lat="52.856600" lon="-3.374193"><ele>357</ele><time>2020-01-18T10:12:38Z</time><name>PT1594</name></trkpt>
<trkpt lat="52.856611" lon="-3.374196"><ele>357</ele><time>2020-01-18T10:12:38Z</time><name>PT1595</name></trkpt>
<trkpt lat="52.856621" lon="-3.374209"><ele>358</ele><time>2020-01-18T10:12:40Z</time><name>PT1596</name></trkpt>
<trkpt lat="52.856630" lon="-3.374214"><ele>357</ele><time>2020-01-18T10:12:41Z</time><name>PT1597</name></trkpt>
<trkpt lat="52.856643" lon="-3.374216"><ele>358</ele><time>2020-01-18T10:12:41Z</time><name>PT1598</name></trkpt>
<trkpt lat="52.856655" lon="-3.374215"><ele>357</ele><time>2020-01-18T10:12:43Z</time><name>PT1599</name></trkpt>
<trkpt lat="52.856667" lon="-3.374221"><ele>357</ele><time>2020-01-18T10:12:44Z</time><name>PT1600</name></trkpt>
<trkpt lat="52.856680" lon="-3.374225"><ele>357</ele><time>2020-01-18T10:12:44Z</time><name>PT1601</name></trkpt>
<trkpt lat="52.856692" lon="-3.374232"><ele>357</ele><time>2020-01-18T10:12:46Z</time><name>PT1602</name></trkpt>
<trkpt lat="52.856704" lon="-3.374235"><ele>357</ele><time>2020-01-18T10:12:47Z</time><name>PT1603</name></trkpt>
<trkpt lat="52.856718" lon="-3.374232"><ele>356</ele><time>2020-01-18T10:12:47Z</time><name>PT1604</name></trkpt>
<trkpt lat="52.856731" lon="-3.374233"><ele>357</ele><time>2020-01-18T10:12:49Z</time><name>PT1605</name></trkpt>
<trkpt lat="52.856741" lon="-3.374234"><ele>356</ele><time>2020-01-18T10:12:50Z</time><name>PT1606</name></trkpt>
<trkpt lat="52.856748" lon="-3.374233"><ele>356</ele><time>2020-01-18T10:12:50Z</time><name>PT1607</name></trkpt>
<trkpt lat="52.856765" lon="-3.374241"><ele>358</ele><time>2020-01-18T10:12:52Z</time><name>PT1608</name></trkpt>
<trkpt lat="52.856780" lon="-3.374242"><ele>358</ele><time>2020-01-18T10:12:53Z</time><name>PT1609</name></trkpt>
<trkpt lat="52.856791" lon="-3.374234"><ele>356</ele><time>2020-01-18T10:12:53Z</time><name>PT1610</name></trkpt>
<trkpt lat="52.856807" lon="-3.374231"><ele>356</ele><time>2020-01-18T10:12:55Z</time><name>PT1611</name></trkpt>
<trkpt lat="52.856819" lon="-3.374225"><ele>355</ele><time>2020-01-18T10:12:56Z</time><name>PT1612</name></trkpt>
<trkpt lat="52.856826" lon="-3.374217"><ele>354</ele><time>2020-01-18T10:12:56Z</time><name>PT1613</name></trkpt>
<trkpt lat="52.856836" lon="-3.374219"><ele>355</ele><time>2020-01-18T10:12:58Z</time><name>PT1614</name></trkpt>
<trkpt lat="52.856848" lon="-3.374218"><ele>354</ele><time>2020-01-18T10:12:59Z</time><name>PT1615</name></trkpt>
<trkpt lat="52.856862" lon="-3.374217"><ele>354</ele><time>2020-01-18T10:12:59Z</time><name>PT1616</name></trkpt>
<trkpt lat="52.856871" lon="-3.374216"><ele>353</ele><time>2020-01-18T10:13:01Z</time><name>PT1617</name></trkpt>
<trkpt lat="52.856884" lon="-3.374214"><ele>354</ele><time>2020-01-18T10:13:02Z</time><name>PT1618</name></trkpt>
<trkpt lat="52.856896" lon="-3.374213"><ele>353</ele><time>2020-01-18T10:13:02Z</time><name>PT1619</name></trkpt>
<trkpt lat="52.856899" lon="-3.374212"><ele>352</ele><time>2020-01-18T10:13:04Z</time><name>PT1620</name></trkpt>
<trkpt lat="52.856913" lon="-3.374216"><ele>353</ele><time>2020-01-18T10:13:05Z</time><name>PT1621</name></trkpt>
<trkpt lat="52.856925" lon="-3.374221"><ele>353</ele><time>2020-01-18T10:13:05Z</time><name>PT1622</name></trkpt>
<trkpt lat="52.856935" lon="-3.374221"><ele>352</ele><time>2020-01-18T10:13:07Z</time><name>PT1623</name></trkpt>
<trkpt lat="52.856943" lon="-3.374228"><ele>352</ele><time>2020-01-18T10:13:08Z</time><name>PT1624</name></trkpt>
<trkpt lat="52.856953" lon="-3.374232"><ele>351</ele><time>2020-01-18T10:13:09Z</time><name>PT1625</name></trkpt>
<trkpt lat="52.856964" lon="-3.374237"><ele>351</ele><time>2020-01-18T10:13:10Z</time><name>PT1626</name></trkpt>
<trkpt lat="52.856979" lon="-3.374244"><ele>351</ele><time>2020-01-18T10:13:11Z</time><name>PT1627</name></trkpt>
<trkpt lat="52.856992" lon="-3.374245"><ele>352</ele><time>2020-01-18T10:13:11Z</time><name>PT1628</name></trkpt>
<trkpt lat="52.857006" lon="-3.374251"><ele>352</ele><time>2020-01-18T10:13:13Z</time><name>PT1629</name></trkpt>
<trkpt lat="52.857020" lon="-3.374255"><ele>352</ele><time>2020-01-18T10:13:14Z</time><name>PT1630</name></trkpt>
<trkpt lat="52.857035" lon="-3.374262"><ele>352</ele><time>2020-01-18T10:13:14Z</time><name>PT1631</name></trkpt>
<trkpt lat="52.857050" lon="-3.374269"><ele>352</ele><time>2020-01-18T10:13:16Z</time><name>PT1632</name></trkpt>
<trkpt lat="52.857064" lon="-3.374270"><ele>351</ele><time>2020-01-18T10:13:17Z</time><name>PT1633</name></trkpt>
<trkpt lat="52.857078" lon="-3.374272"><ele>351</ele><time>2020-01-18T10:13:17Z</time><name>PT1634</name></trkpt>
<trkpt lat="52.857094" lon="-3.374277"><ele>351</ele><time>2020-01-18T10:13:19Z</time><name>PT1635</name></trkpt>
<trkpt lat="52.857108" lon="-3.374281"><ele>351</ele><time>2020-01-18T10:13:20Z</time><name>PT1636</name></trkpt>
<trkpt lat="52.857120" lon="-3.374288"><ele>350</ele><time>2020-01-18T10:13:20Z</time><name>PT1637</name></trkpt>
<trkpt lat="52.857132" lon="-3.374301"><ele>351</ele><time>2020-01-18T10:13:22Z</time><name>PT1638</name></trkpt>
<trkpt lat="52.857149" lon="-3.374306"><ele>352</ele><time>2020-01-18T10:13:23Z</time><name>PT1639</name></trkpt>
<trkpt lat="52.857163" lon="-3.374313"><ele>352</ele><time>2020-01-18T10:13:23Z</time><name>PT1640</name></trkpt>
<trkpt lat="52.857181" lon="-3.374333"><ele>354</ele><time>2020-01-18T10:13:25Z</time><name>PT1641</name></trkpt>
<trkpt lat="52.857196" lon="-3.374337"><ele>352</ele><time>2020-01-18T10:13:26Z</time><name>PT1642</name></trkpt>
<trkpt lat="52.857204" lon="-3.374342"><ele>352</ele><time>2020-01-18T10:13:27Z</time><name>PT1643</name></trkpt>
<trkpt lat="52.857213" lon="-3.374342"><ele>352</ele><time>2020-01-18T10:13:28Z</time><name>PT1644</name></trkpt>
<trkpt lat="52.857222" lon="-3.374345"><ele>352</ele><time>2020-01-18T10:13:29Z</time><name>PT1645</name></trkpt>
<trkpt lat="52.857236" lon="-3.374341"><ele>351</ele><time>2020-01-18T10:13:30Z</time><name>PT1646</name></trkpt>
<trkpt lat="52.857251" lon="-3.374348"><ele>351</ele><time>2020-01-18T10:13:31Z</time><name>PT1647</name></trkpt>
<trkpt lat="52.857265" lon="-3.374357"><ele>351</ele><time>2020-01-18T10:13:32Z</time><name>PT1648</name></trkpt>
<trkpt lat="52.857279" lon="-3.374368"><ele>352</ele><time>2020-01-18T10:13:33Z</time><name>PT1649</name></trkpt>
<trkpt lat="52.857289" lon="-3.374366"><ele>350</ele><time>2020-01-18T10:13:34Z</time><name>PT1650</name></trkpt>
<trkpt lat="52.857300" lon="-3.374368"><ele>350</ele><time>2020-01-18T10:13:35Z</time><name>PT1651</name></trkpt>
<trkpt lat="52.857315" lon="-3.374374"><ele>350</ele><time>2020-01-18T10:13:36Z</time><name>PT1652</name></trkpt>
<trkpt lat="52.857325" lon="-3.374379"><ele>350</ele><time>2020-01-18T10:13:37Z</time><name>PT1653</name></trkpt>
<trkpt lat="52.857337" lon="-3.374378"><ele>350</ele><time>2020-01-18T10:13:38Z</time><name>PT1654</name></trkpt>
<trkpt lat="52.857356" lon="-3.374378"><ele>351</ele><time>2020-01-18T10:13:39Z</time><name>PT1655</name></trkpt>
<trkpt lat="52.857369" lon="-3.374379"><ele>351</ele><time>2020-01-18T10:13:40Z</time><name>PT1656</name></trkpt>
<trkpt lat="52.857380" lon="-3.374381"><ele>351</ele><time>2020-01-18T10:13:41Z</time><name>PT1657</name></trkpt>
<trkpt lat="52.857386" lon="-3.374381"><ele>351</ele><time>2020-01-18T10:13:42Z</time><name>PT1658</name></trkpt>
<trkpt lat="52.857398" lon="-3.374382"><ele>352</ele><time>2020-01-18T10:13:43Z</time><name>PT1659</name></trkpt>
<trkpt lat="52.857405" lon="-3.374383"><ele>352</ele><time>2020-01-18T10:13:44Z</time><name>PT1660</name></trkpt>
<trkpt lat="52.857421" lon="-3.374385"><ele>353</ele><time>2020-01-18T10:13:45Z</time><name>PT1661</name></trkpt>
<trkpt lat="52.857437" lon="-3.374386"><ele>354</ele><time>2020-01-18T10:13:46Z</time><name>PT1662</name></trkpt>
<trkpt lat="52.857453" lon="-3.374385"><ele>354</ele><time>2020-01-18T10:13:47Z</time><name>PT1663</name></trkpt>
<trkpt lat="52.857469" lon="-3.374387"><ele>354</ele><time>2020-01-18T10:13:47Z</time><name>PT1664</name></trkpt>
<trkpt lat="52.857482" lon="-3.374388"><ele>355</ele><time>2020-01-18T10:13:49Z</time><name>PT1665</name></trkpt>
<trkpt lat="52.857493" lon="-3.374377"><ele>353</ele><time>2020-01-18T10:13:50Z</time><name>PT1666</name></trkpt>
<trkpt lat="52.857508" lon="-3.374377"><ele>355</ele><time>2020-01-18T10:13:50Z</time><name>PT1667</name></trkpt>
<trkpt lat="52.857522" lon="-3.374378"><ele>356</ele><time>2020-01-18T10:13:52Z</time><name>PT1668</name></trkpt>
<trkpt lat="52.857538" lon="-3.374365"><ele>355</ele><time>2020-01-18T10:13:53Z</time><name>PT1669</name></trkpt>
<trkpt lat="52.857551" lon="-3.374356"><ele>355</ele><time>2020-01-18T10:13:53Z</time><name>PT1670</name></trkpt>
<trkpt lat="52.857564" lon="-3.374348"><ele>355</ele><time>2020-01-18T10:13:55Z</time><name>PT1671</name></trkpt>
<trkpt lat="52.857575" lon="-3.374341"><ele>355</ele><time>2020-01-18T10:13:56Z</time><name>PT1672</name></trkpt>
<trkpt lat="52.857587" lon="-3.374326"><ele>355</ele><time>2020-01-18T10:13:56Z</time><name>PT1673</name></trkpt>
<trkpt lat="52.857599" lon="-3.374313"><ele>355</ele><time>2020-01-18T10:13:58Z</time><name>PT1674</name></trkpt>
<trkpt lat="52.857608" lon="-3.374303"><ele>355</ele><time>2020-01-18T10:13:59Z</time><name>PT1675</name></trkpt>
<trkpt lat="52.857618" lon="-3.374295"><ele>356</ele><time>2020-01-18T10:13:59Z</time><name>PT1676</name></trkpt>
<trkpt lat="52.857630" lon="-3.374287"><ele>356</ele><time>2020-01-18T10:14:01Z</time><name>PT1677</name></trkpt>
<trkpt lat="52.857641" lon="-3.374281"><ele>356</ele><time>2020-01-18T10:14:02Z</time><name>PT1678</name></trkpt>
<trkpt lat="52.857650" lon="-3.374279"><ele>356</ele><time>2020-01-18T10:14:02Z</time><name>PT1679</name></trkpt>
<trkpt lat="52.857659" lon="-3.374275"><ele>357</ele><time>2020-01-18T10:14:04Z</time><name>PT1680</name></trkpt>
<trkpt lat="52.857669" lon="-3.374273"><ele>357</ele><time>2020-01-18T10:14:05Z</time><name>PT1681</name></trkpt>
<trkpt lat="52.857679" lon="-3.374272"><ele>357</ele><time>2020-01-18T10:14:05Z</time><name>PT1682</name></trkpt>
<trkpt lat="52.857691" lon="-3.374266"><ele>357</ele><time>2020-01-18T10:14:07Z</time><name>PT1683</name></trkpt>
<trkpt lat="52.857705" lon="-3.374259"><ele>357</ele><time>2020-01-18T10:14:08Z</time><name>PT1684</name></trkpt>
<trkpt lat="52.857716" lon="-3.374259"><ele>358</ele><time>2020-01-18T10:14:08Z</time><name>PT1685</name></trkpt>
<trkpt lat="52.857727" lon="-3.374260"><ele>358</ele><time>2020-01-18T10:14:10Z</time><name>PT1686</name></trkpt>
<trkpt lat="52.857734" lon="-3.374255"><ele>358</ele><time>2020-01-18T10:14:11Z</time><name>PT1687</name></trkpt>
<trkpt lat="52.857742" lon="-3.374256"><ele>358</ele><time>2020-01-18T10:14:11Z</time><name>PT1688</name></trkpt>
<trkpt lat="52.857753" lon="-3.374252"><ele>358</ele><time>2020-01-18T10:14:13Z</time><name>PT1689</name></trkpt>
<trkpt lat="52.857759" lon="-3.374248"><ele>357</ele><time>2020-01-18T10:14:14Z</time><name>PT1690</name></trkpt>
<trkpt lat="52.857769" lon="-3.374237"><ele>358</ele><time>2020-01-18T10:14:14Z</time><name>PT1691</name></trkpt>
<trkpt lat="52.857780" lon="-3.374230"><ele>359</ele><time>2020-01-18T10:14:16Z</time><name>PT1692</name></trkpt>
<trkpt lat="52.857791" lon="-3.374225"><ele>359</ele><time>2020-01-18T10:14:17Z</time><name>PT1693</name></trkpt>
<trkpt lat="52.857799" lon="-3.374221"><ele>360</ele><time>2020-01-18T10:14:18Z</time><name>PT1694</name></trkpt>
<trkpt lat="52.857807" lon="-3.374217"><ele>360</ele><time>2020-01-18T10:14:19Z</time><name>PT1695</name></trkpt>
<trkpt lat="52.857812" lon="-3.374206"><ele>361</ele><time>2020-01-18T10:14:20Z</time><name>PT1696</name></trkpt>
<trkpt lat="52.857821" lon="-3.374202"><ele>361</ele><time>2020-01-18T10:14:21Z</time><name>PT1697</name></trkpt>
<trkpt lat="52.857836" lon="-3.374196"><ele>362</ele><time>2020-01-18T10:14:22Z</time><name>PT1698</name></trkpt>
<trkpt lat="52.857845" lon="-3.374188"><ele>363</ele><time>2020-01-18T10:14:23Z</time><name>PT1699</name></trkpt>
<trkpt lat="52.857855" lon="-3.374183"><ele>363</ele><time>2020-01-18T10:14:24Z</time><name>PT1700</name></trkpt>
<trkpt lat="52.857866" lon="-3.374178"><ele>364</ele><time>2020-01-18T10:14:25Z</time><name>PT1701</name></trkpt>
<trkpt lat="52.857875" lon="-3.374173"><ele>364</ele><time>2020-01-18T10:14:26Z</time><name>PT1702</name></trkpt>
<trkpt lat="52.857884" lon="-3.374166"><ele>364</ele><time>2020-01-18T10:14:27Z</time><name>PT1703</name></trkpt>
<trkpt lat="52.857894" lon="-3.374163"><ele>364</ele><time>2020-01-18T10:14:28Z</time><name>PT1704</name></trkpt>
<trkpt lat="52.857899" lon="-3.374148"><ele>364</ele><time>2020-01-18T10:14:29Z</time><name>PT1705</name></trkpt>
<trkpt lat="52.857905" lon="-3.374138"><ele>364</ele><time>2020-01-18T10:14:30Z</time><name>PT1706</name></trkpt>
<trkpt lat="52.857914" lon="-3.374131"><ele>364</ele><time>2020-01-18T10:14:31Z</time><name>PT1707</name></trkpt>
<trkpt lat="52.857922" lon="-3.374110"><ele>366</ele><time>2020-01-18T10:14:32Z</time><name>PT1708</name></trkpt>
<trkpt lat="52.857933" lon="-3.374099"><ele>366</ele><time>2020-01-18T10:14:33Z</time><name>PT1709</name></trkpt>
<trkpt lat="52.857943" lon="-3.374089"><ele>367</ele><time>2020-01-18T10:14:34Z</time><name>PT1710</name></trkpt>
<trkpt lat="52.857954" lon="-3.374082"><ele>367</ele><time>2020-01-18T10:14:35Z</time><name>PT1711</name></trkpt>
<trkpt lat="52.857961" lon="-3.374073"><ele>368</ele><time>2020-01-18T10:14:35Z</time><name>PT1712</name></trkpt>
<trkpt lat="52.857970" lon="-3.374063"><ele>368</ele><time>2020-01-18T10:14:37Z</time><name>PT1713</name></trkpt>
<trkpt lat="52.857977" lon="-3.374052"><ele>369</ele><time>2020-01-18T10:14:38Z</time><name>PT1714</name></trkpt>
<trkpt lat="52.857978" lon="-3.374039"><ele>369</ele><time>2020-01-18T10:14:38Z</time><name>PT1715</name></trkpt>
<trkpt lat="52.857985" lon="-3.374028"><ele>369</ele><time>2020-01-18T10:14:40Z</time><name>PT1716</name></trkpt>
<trkpt lat="52.857992" lon="-3.374020"><ele>369</ele><time>2020-01-18T10:14:41Z</time><name>PT1717</name></trkpt>
<trkpt lat="52.857998" lon="-3.374009"><ele>369</ele><time>2020-01-18T10:14:41Z</time><name>PT1718</name></trkpt>
<trkpt lat="52.858014" lon="-3.374008"><ele>369</ele><time>2020-01-18T10:14:43Z</time><name>PT1719</name></trkpt>
<trkpt lat="52.858022" lon="-3.374002"><ele>369</ele><time>2020-01-18T10:14:44Z</time><name>PT1720</name></trkpt>
<trkpt lat="52.858033" lon="-3.373995"><ele>369</ele><time>2020-01-18T10:14:45Z</time><name>PT1721</name></trkpt>
<trkpt lat="52.858041" lon="-3.373987"><ele>370</ele><time>2020-01-18T10:14:46Z</time><name>PT1722</name></trkpt>
<trkpt lat="52.858052" lon="-3.373982"><ele>370</ele><time>2020-01-18T10:14:47Z</time><name>PT1723</name></trkpt>
<trkpt lat="52.858061" lon="-3.373983"><ele>370</ele><time>2020-01-18T10:14:48Z</time><name>PT1724</name></trkpt>
<trkpt lat="52.858072" lon="-3.373974"><ele>370</ele><time>2020-01-18T10:14:49Z</time><name>PT1725</name></trkpt>
<trkpt lat="52.858086" lon="-3.373967"><ele>371</ele><time>2020-01-18T10:14:50Z</time><name>PT1726</name></trkpt>
<trkpt lat="52.858094" lon="-3.373947"><ele>370</ele><time>2020-01-18T10:14:51Z</time><name>PT1727</name></trkpt>
<trkpt lat="52.858104" lon="-3.373941"><ele>370</ele><time>2020-01-18T10:14:52Z</time><name>PT1728</name></trkpt>
<trkpt lat="52.858113" lon="-3.373936"><ele>370</ele><time>2020-01-18T10:14:53Z</time><name>PT1729</name></trkpt>
<trkpt lat="52.858122" lon="-3.373932"><ele>370</ele><time>2020-01-18T10:14:53Z</time><name>PT1730</name></trkpt>
<trkpt lat="52.858128" lon="-3.373927"><ele>370</ele><time>2020-01-18T10:14:55Z</time><name>PT1731</name></trkpt>
<trkpt lat="52.858138" lon="-3.373924"><ele>371</ele><time>2020-01-18T10:14:56Z</time><name>PT1732</name></trkpt>
<trkpt lat="52.858150" lon="-3.373923"><ele>371</ele><time>2020-01-18T10:14:57Z</time><name>PT1733</name></trkpt>
<trkpt lat="52.858158" lon="-3.373919"><ele>372</ele><time>2020-01-18T10:14:58Z</time><name>PT1734</name></trkpt>
<trkpt lat="52.858167" lon="-3.373912"><ele>372</ele><time>2020-01-18T10:14:59Z</time><name>PT1735</name></trkpt>
<trkpt lat="52.858176" lon="-3.373908"><ele>372</ele><time>2020-01-18T10:14:59Z</time><name>PT1736</name></trkpt>
<trkpt lat="52.858187" lon="-3.373907"><ele>373</ele><time>2020-01-18T10:15:01Z</time><name>PT1737</name></trkpt>
<trkpt lat="52.858200" lon="-3.373904"><ele>373</ele><time>2020-01-18T10:15:02Z</time><name>PT1738</name></trkpt>
<trkpt lat="52.858208" lon="-3.373901"><ele>373</ele><time>2020-01-18T10:15:02Z</time><name>PT1739</name></trkpt>
<trkpt lat="52.858217" lon="-3.373896"><ele>373</ele><time>2020-01-18T10:15:04Z</time><name>PT1740</name></trkpt>
<trkpt lat="52.858228" lon="-3.373893"><ele>373</ele><time>2020-01-18T10:15:05Z</time><name>PT1741</name></trkpt>
<trkpt lat="52.858241" lon="-3.373889"><ele>374</ele><time>2020-01-18T10:15:05Z</time><name>PT1742</name></trkpt>
<trkpt lat="52.858252" lon="-3.373886"><ele>374</ele><time>2020-01-18T10:15:07Z</time><name>PT1743</name></trkpt>
<trkpt lat="52.858260" lon="-3.373882"><ele>374</ele><time>2020-01-18T10:15:08Z</time><name>PT1744</name></trkpt>
<trkpt lat="52.858269" lon="-3.373879"><ele>374</ele><time>2020-01-18T10:15:09Z</time><name>PT1745</name></trkpt>
<trkpt lat="52.858275" lon="-3.373872"><ele>374</ele><time>2020-01-18T10:15:10Z</time><name>PT1746</name></trkpt>
<trkpt lat="52.858280" lon="-3.373857"><ele>375</ele><time>2020-01-18T10:15:11Z</time><name>PT1747</name></trkpt>
<trkpt lat="52.858289" lon="-3.373848"><ele>375</ele><time>2020-01-18T10:15:11Z</time><name>PT1748</name></trkpt>
<trkpt lat="52.858294" lon="-3.373843"><ele>375</ele><time>2020-01-18T10:15:13Z</time><name>PT1749</name></trkpt>
<trkpt lat="52.858300" lon="-3.373840"><ele>375</ele><time>2020-01-18T10:15:14Z</time><name>PT1750</name></trkpt>
<trkpt lat="52.858308" lon="-3.373833"><ele>375</ele><time>2020-01-18T10:15:14Z</time><name>PT1751</name></trkpt>
<trkpt lat="52.858315" lon="-3.373828"><ele>375</ele><time>2020-01-18T10:15:16Z</time><name>PT1752</name></trkpt>
<trkpt lat="52.858321" lon="-3.373826"><ele>375</ele><time>2020-01-18T10:15:17Z</time><name>PT1753</name></trkpt>
<trkpt lat="52.858329" lon="-3.373827"><ele>375</ele><time>2020-01-18T10:15:18Z</time><name>PT1754</name></trkpt>
<trkpt lat="52.858335" lon="-3.373821"><ele>375</ele><time>2020-01-18T10:15:19Z</time><name>PT1755</name></trkpt>
<trkpt lat="52.858341" lon="-3.373808"><ele>376</ele><time>2020-01-18T10:15:20Z</time><name>PT1756</name></trkpt>
<trkpt lat="52.858349" lon="-3.373802"><ele>376</ele><time>2020-01-18T10:15:21Z</time><name>PT1757</name></trkpt>
<trkpt lat="52.858357" lon="-3.373798"><ele>376</ele><time>2020-01-18T10:15:22Z</time><name>PT1758</name></trkpt>
<trkpt lat="52.858365" lon="-3.373795"><ele>376</ele><time>2020-01-18T10:15:23Z</time><name>PT1759</name></trkpt>
<trkpt lat="52.858373" lon="-3.373792"><ele>377</ele><time>2020-01-18T10:15:23Z</time><name>PT1760</name></trkpt>
<trkpt lat="52.858381" lon="-3.373788"><ele>377</ele><time>2020-01-18T10:15:25Z</time><name>PT1761</name></trkpt>
<trkpt lat="52.858390" lon="-3.373787"><ele>377</ele><time>2020-01-18T10:15:26Z</time><name>PT1762</name></trkpt>
<trkpt lat="52.858397" lon="-3.373786"><ele>378</ele><time>2020-01-18T10:15:26Z</time><name>PT1763</name></trkpt>
<trkpt lat="52.858407" lon="-3.373787"><ele>378</ele><time>2020-01-18T10:15:28Z</time><name>PT1764</name></trkpt>
<trkpt lat="52.858414" lon="-3.373784"><ele>378</ele><time>2020-01-18T10:15:29Z</time><name>PT1765</name></trkpt>
<trkpt lat="52.858420" lon="-3.373780"><ele>378</ele><time>2020-01-18T10:15:29Z</time><name>PT1766</name></trkpt>
<trkpt lat="52.858428" lon="-3.373775"><ele>378</ele><time>2020-01-18T10:15:31Z</time><name>PT1767</name></trkpt>
<trkpt lat="52.858438" lon="-3.373771"><ele>378</ele><time>2020-01-18T10:15:32Z</time><name>PT1768</name></trkpt>
<trkpt lat="52.858449" lon="-3.373768"><ele>379</ele><time>2020-01-18T10:15:32Z</time><name>PT1769</name></trkpt>
<trkpt lat="52.858460" lon="-3.373764"><ele>379</ele><time>2020-01-18T10:15:34Z</time><name>PT1770</name></trkpt>
<trkpt lat="52.858465" lon="-3.373759"><ele>379</ele><time>2020-01-18T10:15:35Z</time><name>PT1771</name></trkpt>
<trkpt lat="52.858474" lon="-3.373758"><ele>380</ele><time>2020-01-18T10:15:35Z</time><name>PT1772</name></trkpt>
<trkpt lat="52.858483" lon="-3.373752"><ele>380</ele><time>2020-01-18T10:15:37Z</time><name>PT1773</name></trkpt>
<trkpt lat="52.858487" lon="-3.373746"><ele>380</ele><time>2020-01-18T10:15:38Z</time><name>PT1774</name></trkpt>
<trkpt lat="52.858495" lon="-3.373742"><ele>379</ele><time>2020-01-18T10:15:38Z</time><name>PT1775</name></trkpt>
<trkpt lat="52.858503" lon="-3.373740"><ele>379</ele><time>2020-01-18T10:15:40Z</time><name>PT1776</name></trkpt>
<trkpt lat="52.858512" lon="-3.373738"><ele>380</ele><time>2020-01-18T10:15:41Z</time><name>PT1777</name></trkpt>
<trkpt lat="52.858520" lon="-3.373731"><ele>380</ele><time>2020-01-18T10:15:41Z</time><name>PT1778</name></trkpt>
<trkpt lat="52.858526" lon="-3.373725"><ele>380</ele><time>2020-01-18T10:15:43Z</time><name>PT1779</name></trkpt>
<trkpt lat="52.858534" lon="-3.373721"><ele>379</ele><time>2020-01-18T10:15:44Z</time><name>PT1780</name></trkpt>
<trkpt lat="52.858540" lon="-3.373716"><ele>379</ele><time>2020-01-18T10:15:44Z</time><name>PT1781</name></trkpt>
<trkpt lat="52.858547" lon="-3.373707"><ele>379</ele><time>2020-01-18T10:15:46Z</time><name>PT1782</name></trkpt>
<trkpt lat="52.858554" lon="-3.373701"><ele>380</ele><time>2020-01-18T10:15:47Z</time><name>PT1783</name></trkpt>
<trkpt lat="52.858564" lon="-3.373696"><ele>380</ele><time>2020-01-18T10:15:47Z</time><name>PT1784</name></trkpt>
<trkpt lat="52.858572" lon="-3.373692"><ele>381</ele><time>2020-01-18T10:15:49Z</time><name>PT1785</name></trkpt>
<trkpt lat="52.858579" lon="-3.373686"><ele>381</ele><time>2020-01-18T10:15:50Z</time><name>PT1786</name></trkpt>
<trkpt lat="52.858584" lon="-3.373679"><ele>381</ele><time>2020-01-18T10:15:50Z</time><name>PT1787</name></trkpt>
<trkpt lat="52.858592" lon="-3.373674"><ele>381</ele><time>2020-01-18T10:15:52Z</time><name>PT1788</name></trkpt>
<trkpt lat="52.858601" lon="-3.373669"><ele>381</ele><time>2020-01-18T10:15:53Z</time><name>PT1789</name></trkpt>
<trkpt lat="52.858609" lon="-3.373664"><ele>381</ele><time>2020-01-18T10:15:53Z</time><name>PT1790</name></trkpt>
<trkpt lat="52.858619" lon="-3.373657"><ele>381</ele><time>2020-01-18T10:15:55Z</time><name>PT1791</name></trkpt>
<trkpt lat="52.858628" lon="-3.373650"><ele>380</ele><time>2020-01-18T10:15:56Z</time><name>PT1792</name></trkpt>
<trkpt lat="52.858639" lon="-3.373647"><ele>381</ele><time>2020-01-18T10:15:56Z</time><name>PT1793</name></trkpt>
<trkpt lat="52.858647" lon="-3.373644"><ele>380</ele><time>2020-01-18T10:15:58Z</time><name>PT1794</name></trkpt>
<trkpt lat="52.858653" lon="-3.373640"><ele>380</ele><time>2020-01-18T10:15:59Z</time><name>PT1795</name></trkpt>
<trkpt lat="52.858660" lon="-3.373636"><ele>381</ele><time>2020-01-18T10:15:59Z</time><name>PT1796</name></trkpt>
<trkpt lat="52.858668" lon="-3.373631"><ele>381</ele><time>2020-01-18T10:16:01Z</time><name>PT1797</name></trkpt>
<trkpt lat="52.858679" lon="-3.373627"><ele>381</ele><time>2020-01-18T10:16:02Z</time><name>PT1798</name></trkpt>
<trkpt lat="52.858688" lon="-3.373621"><ele>382</ele><time>2020-01-18T10:16:02Z</time><name>PT1799</name></trkpt>
<trkpt lat="52.858694" lon="-3.373613"><ele>381</ele><time>2020-01-18T10:16:04Z</time><name>PT1800</name></trkpt>
<trkpt lat="52.858704" lon="-3.373607"><ele>381</ele><time>2020-01-18T10:16:05Z</time><name>PT1801</name></trkpt>
<trkpt lat="52.858714" lon="-3.373602"><ele>382</ele><time>2020-01-18T10:16:05Z</time><name>PT1802</name></trkpt>
<trkpt lat="52.858728" lon="-3.373597"><ele>383</ele><time>2020-01-18T10:16:07Z</time><name>PT1803</name></trkpt>
<trkpt lat="52.858738" lon="-3.373594"><ele>383</ele><time>2020-01-18T10:16:08Z</time><name>PT1804</name></trkpt>
<trkpt lat="52.858747" lon="-3.373589"><ele>383</ele><time>2020-01-18T10:16:08Z</time><name>PT1805</name></trkpt>
<trkpt lat="52.858760" lon="-3.373585"><ele>384</ele><time>2020-01-18T10:16:10Z</time><name>PT1806</name></trkpt>
<trkpt lat="52.858770" lon="-3.373583"><ele>384</ele><time>2020-01-18T10:16:11Z</time><name>PT1807</name></trkpt>
<trkpt lat="52.858780" lon="-3.373578"><ele>385</ele><time>2020-01-18T10:16:12Z</time><name>PT1808</name></trkpt>
<trkpt lat="52.858788" lon="-3.373571"><ele>384</ele><time>2020-01-18T10:16:13Z</time><name>PT1809</name></trkpt>
<trkpt lat="52.858795" lon="-3.373565"><ele>385</ele><time>2020-01-18T10:16:14Z</time><name>PT1810</name></trkpt>
<trkpt lat="52.858803" lon="-3.373560"><ele>385</ele><time>2020-01-18T10:16:15Z</time><name>PT1811</name></trkpt>
<trkpt lat="52.858810" lon="-3.373551"><ele>385</ele><time>2020-01-18T10:16:16Z</time><name>PT1812</name></trkpt>
<trkpt lat="52.858819" lon="-3.373547"><ele>386</ele><time>2020-01-18T10:16:17Z</time><name>PT1813</name></trkpt>
<trkpt lat="52.858827" lon="-3.373539"><ele>386</ele><time>2020-01-18T10:16:18Z</time><name>PT1814</name></trkpt>
<trkpt lat="52.858835" lon="-3.373533"><ele>386</ele><time>2020-01-18T10:16:19Z</time><name>PT1815</name></trkpt>
<trkpt lat="52.858844" lon="-3.373526"><ele>386</ele><time>2020-01-18T10:16:20Z</time><name>PT1816</name></trkpt>
<trkpt lat="52.858852" lon="-3.373519"><ele>386</ele><time>2020-01-18T10:16:21Z</time><name>PT1817</name></trkpt>
<trkpt lat="52.858861" lon="-3.373516"><ele>387</ele><time>2020-01-18T10:16:22Z</time><name>PT1818</name></trkpt>
<trkpt lat="52.858864" lon="-3.373505"><ele>387</ele><time>2020-01-18T10:16:23Z</time><name>PT1819</name></trkpt>
<trkpt lat="52.858872" lon="-3.373501"><ele>387</ele><time>2020-01-18T10:16:24Z</time><name>PT1820</name></trkpt>
<trkpt lat="52.858882" lon="-3.373497"><ele>387</ele><time>2020-01-18T10:16:25Z</time><name>PT1821</name></trkpt>
<trkpt lat="52.858891" lon="-3.373492"><ele>387</ele><time>2020-01-18T10:16:26Z</time><name>PT1822</name></trkpt>
<trkpt lat="52.858897" lon="-3.373480"><ele>387</ele><time>2020-01-18T10:16:26Z</time><name>PT1823</name></trkpt>
<trkpt lat="52.858903" lon="-3.373468"><ele>387</ele><time>2020-01-18T10:16:28Z</time><name>PT1824</name></trkpt>
<trkpt lat="52.858911" lon="-3.373462"><ele>387</ele><time>2020-01-18T10:16:29Z</time><name>PT1825</name></trkpt>
<trkpt lat="52.858920" lon="-3.373454"><ele>388</ele><time>2020-01-18T10:16:29Z</time><name>PT1826</name></trkpt>
<trkpt lat="52.858931" lon="-3.373451"><ele>389</ele><time>2020-01-18T10:16:31Z</time><name>PT1827</name></trkpt>
<trkpt lat="52.858939" lon="-3.373441"><ele>389</ele><time>2020-01-18T10:16:32Z</time><name>PT1828</name></trkpt>
<trkpt lat="52.858941" lon="-3.373430"><ele>388</ele><time>2020-01-18T10:16:32Z</time><name>PT1829</name></trkpt>
<trkpt lat="52.858950" lon="-3.373423"><ele>389</ele><time>2020-01-18T10:16:34Z</time><name>PT1830</name></trkpt>
<trkpt lat="52.858958" lon="-3.373418"><ele>389</ele><time>2020-01-18T10:16:35Z</time><name>PT1831</name></trkpt>
<trkpt lat="52.858968" lon="-3.373411"><ele>390</ele><time>2020-01-18T10:16:35Z</time><name>PT1832</name></trkpt>
<trkpt lat="52.858976" lon="-3.373403"><ele>390</ele><time>2020-01-18T10:16:37Z</time><name>PT1833</name></trkpt>
<trkpt lat="52.858984" lon="-3.373400"><ele>390</ele><time>2020-01-18T10:16:38Z</time><name>PT1834</name></trkpt>
<trkpt lat="52.858992" lon="-3.373397"><ele>390</ele><time>2020-01-18T10:16:38Z</time><name>PT1835</name></trkpt>
<trkpt lat="52.858999" lon="-3.373392"><ele>390</ele><time>2020-01-18T10:16:40Z</time><name>PT1836</name></trkpt>
<trkpt lat="52.859011" lon="-3.373377"><ele>392</ele><time>2020-01-18T10:16:41Z</time><name>PT1837</name></trkpt>
<trkpt lat="52.859021" lon="-3.373369"><ele>392</ele><time>2020-01-18T10:16:41Z</time><name>PT1838</name></trkpt>
<trkpt lat="52.859033" lon="-3.373363"><ele>392</ele><time>2020-01-18T10:16:43Z</time><name>PT1839</name></trkpt>
<trkpt lat="52.859042" lon="-3.373355"><ele>393</ele><time>2020-01-18T10:16:44Z</time><name>PT1840</name></trkpt>
<trkpt lat="52.859055" lon="-3.373352"><ele>394</ele><time>2020-01-18T10:16:44Z</time><name>PT1841</name></trkpt>
<trkpt lat="52.859064" lon="-3.373342"><ele>394</ele><time>2020-01-18T10:16:46Z</time><name>PT1842</name></trkpt>
<trkpt lat="52.859071" lon="-3.373332"><ele>394</ele><time>2020-01-18T10:16:47Z</time><name>PT1843</name></trkpt>
<trkpt lat="52.859078" lon="-3.373323"><ele>394</ele><time>2020-01-18T10:16:47Z</time><name>PT1844</name></trkpt>
<trkpt lat="52.859084" lon="-3.373313"><ele>394</ele><time>2020-01-18T10:16:49Z</time><name>PT1845</name></trkpt>
<trkpt lat="52.859096" lon="-3.373304"><ele>395</ele><time>2020-01-18T10:16:50Z</time><name>PT1846</name></trkpt>
<trkpt lat="52.859101" lon="-3.373294"><ele>395</ele><time>2020-01-18T10:16:50Z</time><name>PT1847</name></trkpt>
<trkpt lat="52.859113" lon="-3.373286"><ele>396</ele><time>2020-01-18T10:16:52Z</time><name>PT1848</name></trkpt>
<trkpt lat="52.859121" lon="-3.373275"><ele>396</ele><time>2020-01-18T10:16:53Z</time><name>PT1849</name></trkpt>
<trkpt lat="52.859132" lon="-3.373259"><ele>396</ele><time>2020-01-18T10:16:53Z</time><name>PT1850</name></trkpt>
<trkpt lat="52.859142" lon="-3.373247"><ele>397</ele><time>2020-01-18T10:16:55Z</time><name>PT1851</name></trkpt>
<trkpt lat="52.859138" lon="-3.373226"><ele>395</ele><time>2020-01-18T10:16:56Z</time><name>PT1852</name></trkpt>
<trkpt lat="52.859149" lon="-3.373217"><ele>396</ele><time>2020-01-18T10:16:56Z</time><name>PT1853</name></trkpt>
<trkpt lat="52.859157" lon="-3.373211"><ele>396</ele><time>2020-01-18T10:16:58Z</time><name>PT1854</name></trkpt>
<trkpt lat="52.859158" lon="-3.373201"><ele>395</ele><time>2020-01-18T10:16:59Z</time><name>PT1855</name></trkpt>
<trkpt lat="52.859165" lon="-3.373187"><ele>395</ele><time>2020-01-18T10:16:59Z</time><name>PT1856</name></trkpt>
<trkpt lat="52.859175" lon="-3.373180"><ele>396</ele><time>2020-01-18T10:17:01Z</time><name>PT1857</name></trkpt>
<trkpt lat="52.859189" lon="-3.373171"><ele>397</ele><time>2020-01-18T10:17:02Z</time><name>PT1858</name></trkpt>
<trkpt lat="52.859199" lon="-3.373165"><ele>397</ele><time>2020-01-18T10:17:03Z</time><name>PT1859</name></trkpt>
<trkpt lat="52.859207" lon="-3.373157"><ele>397</ele><time>2020-01-18T10:17:04Z</time><name>PT1860</name></trkpt>
<trkpt lat="52.859213" lon="-3.373149"><ele>397</ele><time>2020-01-18T10:17:05Z</time><name>PT1861</name></trkpt>
<trkpt lat="52.859219" lon="-3.373142"><ele>397</ele><time>2020-01-18T10:17:06Z</time><name>PT1862</name></trkpt>
<trkpt lat="52.859223" lon="-3.373134"><ele>397</ele><time>2020-01-18T10:17:07Z</time><name>PT1863</name></trkpt>
<trkpt lat="52.859230" lon="-3.373128"><ele>397</ele><time>2020-01-18T10:17:08Z</time><name>PT1864</name></trkpt>
<trkpt lat="52.859239" lon="-3.373117"><ele>397</ele><time>2020-01-18T10:17:09Z</time><name>PT1865</name></trkpt>
<trkpt lat="52.859248" lon="-3.373112"><ele>396</ele><time>2020-01-18T10:17:10Z</time><name>PT1866</name></trkpt>
<trkpt lat="52.859260" lon="-3.373108"><ele>397</ele><time>2020-01-18T10:17:11Z</time><name>PT1867</name></trkpt>
<trkpt lat="52.859267" lon="-3.373098"><ele>396</ele><time>2020-01-18T10:17:12Z</time><name>PT1868</name></trkpt>
<trkpt lat="52.859272" lon="-3.373085"><ele>396</ele><time>2020-01-18T10:17:13Z</time><name>PT1869</name></trkpt>
<trkpt lat="52.859279" lon="-3.373072"><ele>397</ele><time>2020-01-18T10:17:14Z</time><name>PT1870</name></trkpt>
<trkpt lat="52.859285" lon="-3.373064"><ele>397</ele><time>2020-01-18T10:17:15Z</time><name>PT1871</name></trkpt>
<trkpt lat="52.859291" lon="-3.373059"><ele>397</ele><time>2020-01-18T10:17:16Z</time><name>PT1872</name></trkpt>
<trkpt lat="52.859298" lon="-3.373052"><ele>397</ele><time>2020-01-18T10:17:17Z</time><name>PT1873</name></trkpt>
<trkpt lat="52.859303" lon="-3.373040"><ele>397</ele><time>2020-01-18T10:17:17Z</time><name>PT1874</name></trkpt>
<trkpt lat="52.859312" lon="-3.373033"><ele>398</ele><time>2020-01-18T10:17:19Z</time><name>PT1875</name></trkpt>
<trkpt lat="52.859318" lon="-3.373027"><ele>398</ele><time>2020-01-18T10:17:20Z</time><name>PT1876</name></trkpt>
<trkpt lat="52.859325" lon="-3.373020"><ele>398</ele><time>2020-01-18T10:17:20Z</time><name>PT1877</name></trkpt>
<trkpt lat="52.859329" lon="-3.373008"><ele>398</ele><time>2020-01-18T10:17:22Z</time><name>PT1878</name></trkpt>
<trkpt lat="52.859336" lon="-3.372997"><ele>398</ele><time>2020-01-18T10:17:23Z</time><name>PT1879</name></trkpt>
<trkpt lat="52.859346" lon="-3.372989"><ele>399</ele><time>2020-01-18T10:17:23Z</time><name>PT1880</name></trkpt>
<trkpt lat="52.859351" lon="-3.372978"><ele>398</ele><time>2020-01-18T10:17:25Z</time><name>PT1881</name></trkpt>
<trkpt lat="52.859365" lon="-3.372975"><ele>398</ele><time>2020-01-18T10:17:26Z</time><name>PT1882</name></trkpt>
<trkpt lat="52.859372" lon="-3.372970"><ele>399</ele><time>2020-01-18T10:17:26Z</time><name>PT1883</name></trkpt>
<trkpt lat="52.859379" lon="-3.372959"><ele>399</ele><time>2020-01-18T10:17:28Z</time><name>PT1884</name></trkpt>
<trkpt lat="52.859388" lon="-3.372955"><ele>400</ele><time>2020-01-18T10:17:29Z</time><name>PT1885</name></trkpt>
<trkpt lat="52.859395" lon="-3.372943"><ele>400</ele><time>2020-01-18T10:17:30Z</time><name>PT1886</name></trkpt>
<trkpt lat="52.859397" lon="-3.372934"><ele>399</ele><time>2020-01-18T10:17:31Z</time><name>PT1887</name></trkpt>
<trkpt lat="52.859404" lon="-3.372924"><ele>400</ele><time>2020-01-18T10:17:32Z</time><name>PT1888</name></trkpt>
<trkpt lat="52.859409" lon="-3.372914"><ele>401</ele><time>2020-01-18T10:17:32Z</time><name>PT1889</name></trkpt>
<trkpt lat="52.859416" lon="-3.372905"><ele>401</ele><time>2020-01-18T10:17:34Z</time><name>PT1890</name></trkpt>
<trkpt lat="52.859425" lon="-3.372896"><ele>401</ele><time>2020-01-18T10:17:35Z</time><name>PT1891</name></trkpt>
<trkpt lat="52.859431" lon="-3.372885"><ele>401</ele><time>2020-01-18T10:17:35Z</time><name>PT1892</name></trkpt>
<trkpt lat="52.859440" lon="-3.372877"><ele>402</ele><time>2020-01-18T10:17:37Z</time><name>PT1893</name></trkpt>
<trkpt lat="52.859451" lon="-3.372869"><ele>402</ele><time>2020-01-18T10:17:38Z</time><name>PT1894</name></trkpt>
<trkpt lat="52.859461" lon="-3.372862"><ele>403</ele><time>2020-01-18T10:17:39Z</time><name>PT1895</name></trkpt>
<trkpt lat="52.859469" lon="-3.372853"><ele>403</ele><time>2020-01-18T10:17:40Z</time><name>PT1896</name></trkpt>
<trkpt lat="52.859476" lon="-3.372844"><ele>404</ele><time>2020-01-18T10:17:41Z</time><name>PT1897</name></trkpt>
<trkpt lat="52.859484" lon="-3.372833"><ele>404</ele><time>2020-01-18T10:17:41Z</time><name>PT1898</name></trkpt>
<trkpt lat="52.859490" lon="-3.372821"><ele>404</ele><time>2020-01-18T10:17:43Z</time><name>PT1899</name></trkpt>
<trkpt lat="52.859497" lon="-3.372806"><ele>404</ele><time>2020-01-18T10:17:44Z</time><name>PT1900</name></trkpt>
<trkpt lat="52.859505" lon="-3.372795"><ele>404</ele><time>2020-01-18T10:17:44Z</time><name>PT1901</name></trkpt>
<trkpt lat="52.859512" lon="-3.372784"><ele>404</ele><time>2020-01-18T10:17:46Z</time><name>PT1902</name></trkpt>
<trkpt lat="52.859518" lon="-3.372774"><ele>405</ele><time>2020-01-18T10:17:47Z</time><name>PT1903</name></trkpt>
<trkpt lat="52.859523" lon="-3.372764"><ele>405</ele><time>2020-01-18T10:17:47Z</time><name>PT1904</name></trkpt>
<trkpt lat="52.859533" lon="-3.372754"><ele>405</ele><time>2020-01-18T10:17:49Z</time><name>PT1905</name></trkpt>
<trkpt lat="52.859540" lon="-3.372746"><ele>405</ele><time>2020-01-18T10:17:50Z</time><name>PT1906</name></trkpt>
<trkpt lat="52.859550" lon="-3.372738"><ele>406</ele><time>2020-01-18T10:17:50Z</time><name>PT1907</name></trkpt>
<trkpt lat="52.859560" lon="-3.372726"><ele>406</ele><time>2020-01-18T10:17:52Z</time><name>PT1908</name></trkpt>
<trkpt lat="52.859567" lon="-3.372716"><ele>406</ele><time>2020-01-18T10:17:53Z</time><name>PT1909</name></trkpt>
<trkpt lat="52.859578" lon="-3.372705"><ele>407</ele><time>2020-01-18T10:17:53Z</time><name>PT1910</name></trkpt>
<trkpt lat="52.859589" lon="-3.372701"><ele>407</ele><time>2020-01-18T10:17:55Z</time><name>PT1911</name></trkpt>
<trkpt lat="52.859596" lon="-3.372692"><ele>408</ele><time>2020-01-18T10:17:56Z</time><name>PT1912</name></trkpt>
<trkpt lat="52.859598" lon="-3.372683"><ele>407</ele><time>2020-01-18T10:17:56Z</time><name>PT1913</name></trkpt>
<trkpt lat="52.859603" lon="-3.372672"><ele>407</ele><time>2020-01-18T10:17:58Z</time><name>PT1914</name></trkpt>
<trkpt lat="52.859609" lon="-3.372662"><ele>407</ele><time>2020-01-18T10:17:59Z</time><name>PT1915</name></trkpt>
<trkpt lat="52.859619" lon="-3.372653"><ele>407</ele><time>2020-01-18T10:17:59Z</time><name>PT1916</name></trkpt>
<trkpt lat="52.859626" lon="-3.372642"><ele>408</ele><time>2020-01-18T10:18:01Z</time><name>PT1917</name></trkpt>
<trkpt lat="52.859636" lon="-3.372634"><ele>408</ele><time>2020-01-18T10:18:02Z</time><name>PT1918</name></trkpt>
<trkpt lat="52.859645" lon="-3.372624"><ele>408</ele><time>2020-01-18T10:18:03Z</time><name>PT1919</name></trkpt>
<trkpt lat="52.859651" lon="-3.372616"><ele>408</ele><time>2020-01-18T10:18:04Z</time><name>PT1920</name></trkpt>
<trkpt lat="52.859658" lon="-3.372607"><ele>408</ele><time>2020-01-18T10:18:05Z</time><name>PT1921</name></trkpt>
<trkpt lat="52.859661" lon="-3.372596"><ele>409</ele><time>2020-01-18T10:18:05Z</time><name>PT1922</name></trkpt>
<trkpt lat="52.859668" lon="-3.372587"><ele>409</ele><time>2020-01-18T10:18:07Z</time><name>PT1923</name></trkpt>
<trkpt lat="52.859675" lon="-3.372579"><ele>409</ele><time>2020-01-18T10:18:08Z</time><name>PT1924</name></trkpt>
<trkpt lat="52.859673" lon="-3.372568"><ele>407</ele><time>2020-01-18T10:18:08Z</time><name>PT1925</name></trkpt>
<trkpt lat="52.859681" lon="-3.372557"><ele>408</ele><time>2020-01-18T10:18:10Z</time><name>PT1926</name></trkpt>
<trkpt lat="52.859688" lon="-3.372546"><ele>408</ele><time>2020-01-18T10:18:11Z</time><name>PT1927</name></trkpt>
<trkpt lat="52.859695" lon="-3.372539"><ele>408</ele><time>2020-01-18T10:18:11Z</time><name>PT1928</name></trkpt>
<trkpt lat="52.859696" lon="-3.372527"><ele>408</ele><time>2020-01-18T10:18:13Z</time><name>PT1929</name></trkpt>
<trkpt lat="52.859702" lon="-3.372518"><ele>408</ele><time>2020-01-18T10:18:14Z</time><name>PT1930</name></trkpt>
<trkpt lat="52.859709" lon="-3.372509"><ele>409</ele><time>2020-01-18T10:18:15Z</time><name>PT1931</name></trkpt>
<trkpt lat="52.859717" lon="-3.372497"><ele>409</ele><time>2020-01-18T10:18:16Z</time><name>PT1932</name></trkpt>
<trkpt lat="52.859726" lon="-3.372490"><ele>409</ele><time>2020-01-18T10:18:17Z</time><name>PT1933</name></trkpt>
<trkpt lat="52.859736" lon="-3.372479"><ele>410</ele><time>2020-01-18T10:18:17Z</time><name>PT1934</name></trkpt>
<trkpt lat="52.859742" lon="-3.372468"><ele>410</ele><time>2020-01-18T10:18:19Z</time><name>PT1935</name></trkpt>
<trkpt lat="52.859748" lon="-3.372458"><ele>409</ele><time>2020-01-18T10:18:20Z</time><name>PT1936</name></trkpt>
<trkpt lat="52.859752" lon="-3.372449"><ele>410</ele><time>2020-01-18T10:18:20Z</time><name>PT1937</name></trkpt>
<trkpt lat="52.859757" lon="-3.372436"><ele>409</ele><time>2020-01-18T10:18:22Z</time><name>PT1938</name></trkpt>
<trkpt lat="52.859759" lon="-3.372423"><ele>409</ele><time>2020-01-18T10:18:23Z</time><name>PT1939</name></trkpt>
<trkpt lat="52.859761" lon="-3.372409"><ele>409</ele><time>2020-01-18T10:18:23Z</time><name>PT1940</name></trkpt>
<trkpt lat="52.859767" lon="-3.372394"><ele>410</ele><time>2020-01-18T10:18:25Z</time><name>PT1941</name></trkpt>
<trkpt lat="52.859770" lon="-3.372383"><ele>410</ele><time>2020-01-18T10:18:26Z</time><name>PT1942</name></trkpt>
<trkpt lat="52.859775" lon="-3.372375"><ele>410</ele><time>2020-01-18T10:18:26Z</time><name>PT1943</name></trkpt>
<trkpt lat="52.859778" lon="-3.372364"><ele>411</ele><time>2020-01-18T10:18:28Z</time><name>PT1944</name></trkpt>
<trkpt lat="52.859777" lon="-3.372350"><ele>410</ele><time>2020-01-18T10:18:29Z</time><name>PT1945</name></trkpt>
<trkpt lat="52.859777" lon="-3.372340"><ele>410</ele><time>2020-01-18T10:18:29Z</time><name>PT1946</name></trkpt>
<trkpt lat="52.859783" lon="-3.372336"><ele>410</ele><time>2020-01-18T10:18:31Z</time><name>PT1947</name></trkpt>
<trkpt lat="52.859788" lon="-3.372330"><ele>410</ele><time>2020-01-18T10:18:32Z</time><name>PT1948</name></trkpt>
<trkpt lat="52.859793" lon="-3.372329"><ele>410</ele><time>2020-01-18T10:18:32Z</time><name>PT1949</name></trkpt>
<trkpt lat="52.859794" lon="-3.372324"><ele>410</ele><time>2020-01-18T10:18:34Z</time><name>PT1950</name></trkpt>
<trkpt lat="52.859791" lon="-3.372314"><ele>410</ele><time>2020-01-18T10:18:35Z</time><name>PT1951</name></trkpt>
<trkpt lat="52.859792" lon="-3.372311"><ele>410</ele><time>2020-01-18T10:18:35Z</time><name>PT1952</name></trkpt>
<trkpt lat="52.859791" lon="-3.372311"><ele>410</ele><time>2020-01-18T10:18:37Z</time><name>PT1953</name></trkpt>
<trkpt lat="52.859787" lon="-3.372303"><ele>411</ele><time>2020-01-18T10:18:45Z</time><name>PT1954</name></trkpt>
<trkpt lat="52.859789" lon="-3.372292"><ele>411</ele><time>2020-01-18T10:18:46Z</time><name>PT1955</name></trkpt>
<trkpt lat="52.859791" lon="-3.372289"><ele>411</ele><time>2020-01-18T10:18:47Z</time><name>PT1956</name></trkpt>
<trkpt lat="52.859790" lon="-3.372291"><ele>411</ele><time>2020-01-18T10:18:47Z</time><name>PT1957</name></trkpt>
<trkpt lat="52.859794" lon="-3.372290"><ele>412</ele><time>2020-01-18T10:18:49Z</time><name>PT1958</name></trkpt>
<trkpt lat="52.859795" lon="-3.372290"><ele>411</ele><time>2020-01-18T10:18:53Z</time><name>PT1959</name></trkpt>
<trkpt lat="52.859805" lon="-3.372294"><ele>411</ele><time>2020-01-18T10:18:55Z</time><name>PT1960</name></trkpt>
<trkpt lat="52.859803" lon="-3.372293"><ele>411</ele><time>2020-01-18T10:18:56Z</time><name>PT1961</name></trkpt>
<trkpt lat="52.859806" lon="-3.372296"><ele>411</ele><time>2020-01-18T10:18:56Z</time><name>PT1962</name></trkpt>
<trkpt lat="52.859806" lon="-3.372299"><ele>411</ele><time>2020-01-18T10:18:58Z</time><name>PT1963</name></trkpt>
<trkpt lat="52.859804" lon="-3.372300"><ele>411</ele><time>2020-01-18T10:18:59Z</time><name>PT1964</name></trkpt>
<trkpt lat="52.859807" lon="-3.372305"><ele>411</ele><time>2020-01-18T10:18:59Z</time><name>PT1965</name></trkpt>
<trkpt lat="52.859822" lon="-3.372313"><ele>412</ele><time>2020-01-18T10:19:01Z</time><name>PT1966</name></trkpt>
<trkpt lat="52.859820" lon="-3.372300"><ele>411</ele><time>2020-01-18T10:19:02Z</time><name>PT1967</name></trkpt>
<trkpt lat="52.859823" lon="-3.372293"><ele>411</ele><time>2020-01-18T10:19:02Z</time><name>PT1968</name></trkpt>
<trkpt lat="52.859829" lon="-3.372284"><ele>411</ele><time>2020-01-18T10:19:04Z</time><name>PT1969</name></trkpt>
<trkpt lat="52.859838" lon="-3.372269"><ele>412</ele><time>2020-01-18T10:19:05Z</time><name>PT1970</name></trkpt>
<trkpt lat="52.859847" lon="-3.372249"><ele>411</ele><time>2020-01-18T10:19:05Z</time><name>PT1971</name></trkpt>
<trkpt lat="52.859854" lon="-3.372220"><ele>412</ele><time>2020-01-18T10:19:07Z</time><name>PT1972</name></trkpt>
<trkpt lat="52.859864" lon="-3.372208"><ele>412</ele><time>2020-01-18T10:19:08Z</time><name>PT1973</name></trkpt>
<trkpt lat="52.859873" lon="-3.372190"><ele>412</ele><time>2020-01-18T10:19:08Z</time><name>PT1974</name></trkpt>
<trkpt lat="52.859881" lon="-3.372174"><ele>412</ele><time>2020-01-18T10:19:10Z</time><name>PT1975</name></trkpt>
<trkpt lat="52.859888" lon="-3.372160"><ele>412</ele><time>2020-01-18T10:19:11Z</time><name>PT1976</name></trkpt>
<trkpt lat="52.859896" lon="-3.372145"><ele>413</ele><time>2020-01-18T10:19:11Z</time><name>PT1977</name></trkpt>
<trkpt lat="52.859902" lon="-3.372122"><ele>413</ele><time>2020-01-18T10:19:13Z</time><name>PT1978</name></trkpt>
<trkpt lat="52.859909" lon="-3.372107"><ele>413</ele><time>2020-01-18T10:19:14Z</time><name>PT1979</name></trkpt>
<trkpt lat="52.859918" lon="-3.372092"><ele>413</ele><time>2020-01-18T10:19:14Z</time><name>PT1980</name></trkpt>
<trkpt lat="52.859928" lon="-3.372080"><ele>413</ele><time>2020-01-18T10:19:16Z</time><name>PT1981</name></trkpt>
<trkpt lat="52.859937" lon="-3.372067"><ele>413</ele><time>2020-01-18T10:19:17Z</time><name>PT1982</name></trkpt>
<trkpt lat="52.859944" lon="-3.372067"><ele>414</ele><time>2020-01-18T10:19:17Z</time><name>PT1983</name></trkpt>
<trkpt lat="52.859952" lon="-3.372061"><ele>414</ele><time>2020-01-18T10:19:19Z</time><name>PT1984</name></trkpt>
<trkpt lat="52.859961" lon="-3.372055"><ele>415</ele><time>2020-01-18T10:19:20Z</time><name>PT1985</name></trkpt>
<trkpt lat="52.859970" lon="-3.372049"><ele>415</ele><time>2020-01-18T10:19:20Z</time><name>PT1986</name></trkpt>
<trkpt lat="52.859979" lon="-3.372041"><ele>416</ele><time>2020-01-18T10:19:22Z</time><name>PT1987</name></trkpt>
<trkpt lat="52.859987" lon="-3.372028"><ele>416</ele><time>2020-01-18T10:19:23Z</time><name>PT1988</name></trkpt>
<trkpt lat="52.859990" lon="-3.372019"><ele>417</ele><time>2020-01-18T10:19:23Z</time><name>PT1989</name></trkpt>
<trkpt lat="52.859997" lon="-3.372006"><ele>416</ele><time>2020-01-18T10:19:25Z</time><name>PT1990</name></trkpt>
<trkpt lat="52.860003" lon="-3.371994"><ele>417</ele><time>2020-01-18T10:19:26Z</time><name>PT1991</name></trkpt>
<trkpt lat="52.860007" lon="-3.371983"><ele>416</ele><time>2020-01-18T10:19:26Z</time><name>PT1992</name></trkpt>
<trkpt lat="52.860018" lon="-3.371976"><ele>416</ele><time>2020-01-18T10:19:28Z</time><name>PT1993</name></trkpt>
<trkpt lat="52.860027" lon="-3.371968"><ele>416</ele><time>2020-01-18T10:19:29Z</time><name>PT1994</name></trkpt>
<trkpt lat="52.860036" lon="-3.371960"><ele>417</ele><time>2020-01-18T10:19:29Z</time><name>PT1995</name></trkpt>
<trkpt lat="52.860042" lon="-3.371953"><ele>417</ele><time>2020-01-18T10:19:31Z</time><name>PT1996</name></trkpt>
<trkpt lat="52.860052" lon="-3.371948"><ele>417</ele><time>2020-01-18T10:19:32Z</time><name>PT1997</name></trkpt>
<trkpt lat="52.860058" lon="-3.371944"><ele>417</ele><time>2020-01-18T10:19:32Z</time><name>PT1998</name></trkpt>
<trkpt lat="52.860067" lon="-3.371940"><ele>417</ele><time>2020-01-18T10:19:34Z</time><name>PT1999</name></trkpt>
<trkpt lat="52.860076" lon="-3.371931"><ele>417</ele><time>2020-01-18T10:19:35Z</time><name>PT2000</name></trkpt>
<trkpt lat="52.860083" lon="-3.371924"><ele>417</ele><time>2020-01-18T10:19:35Z</time><name>PT2001</name></trkpt>
<trkpt lat="52.860090" lon="-3.371914"><ele>417</ele><time>2020-01-18T10:19:37Z</time><name>PT2002</name></trkpt>
<trkpt lat="52.860098" lon="-3.371905"><ele>418</ele><time>2020-01-18T10:19:38Z</time><name>PT2003</name></trkpt>
<trkpt lat="52.860106" lon="-3.371897"><ele>418</ele><time>2020-01-18T10:19:38Z</time><name>PT2004</name></trkpt>
<trkpt lat="52.860113" lon="-3.371885"><ele>418</ele><time>2020-01-18T10:19:40Z</time><name>PT2005</name></trkpt>
<trkpt lat="52.860120" lon="-3.371877"><ele>418</ele><time>2020-01-18T10:19:41Z</time><name>PT2006</name></trkpt>
<trkpt lat="52.860127" lon="-3.371867"><ele>418</ele><time>2020-01-18T10:19:42Z</time><name>PT2007</name></trkpt>
<trkpt lat="52.860134" lon="-3.371856"><ele>418</ele><time>2020-01-18T10:19:43Z</time><name>PT2008</name></trkpt>
<trkpt lat="52.860138" lon="-3.371846"><ele>418</ele><time>2020-01-18T10:19:44Z</time><name>PT2009</name></trkpt>
<trkpt lat="52.860148" lon="-3.371835"><ele>419</ele><time>2020-01-18T10:19:45Z</time><name>PT2010</name></trkpt>
<trkpt lat="52.860156" lon="-3.371821"><ele>420</ele><time>2020-01-18T10:19:46Z</time><name>PT2011</name></trkpt>
<trkpt lat="52.860166" lon="-3.371811"><ele>420</ele><time>2020-01-18T10:19:47Z</time><name>PT2012</name></trkpt>
<trkpt lat="52.860177" lon="-3.371800"><ele>420</ele><time>2020-01-18T10:19:47Z</time><name>PT2013</name></trkpt>
<trkpt lat="52.860186" lon="-3.371791"><ele>420</ele><time>2020-01-18T10:19:49Z</time><name>PT2014</name></trkpt>
<trkpt lat="52.860191" lon="-3.371780"><ele>420</ele><time>2020-01-18T10:19:50Z</time><name>PT2015</name></trkpt>
<trkpt lat="52.860198" lon="-3.371772"><ele>420</ele><time>2020-01-18T10:19:50Z</time><name>PT2016</name></trkpt>
<trkpt lat="52.860204" lon="-3.371761"><ele>420</ele><time>2020-01-18T10:19:52Z</time><name>PT2017</name></trkpt>
<trkpt lat="52.860214" lon="-3.371752"><ele>420</ele><time>2020-01-18T10:19:53Z</time><name>PT2018</name></trkpt>
<trkpt lat="52.860219" lon="-3.371742"><ele>421</ele><time>2020-01-18T10:19:53Z</time><name>PT2019</name></trkpt>
<trkpt lat="52.860226" lon="-3.371729"><ele>421</ele><time>2020-01-18T10:19:55Z</time><name>PT2020</name></trkpt>
<trkpt lat="52.860234" lon="-3.371720"><ele>420</ele><time>2020-01-18T10:19:56Z</time><name>PT2021</name></trkpt>
<trkpt lat="52.860239" lon="-3.371714"><ele>420</ele><time>2020-01-18T10:19:56Z</time><name>PT2022</name></trkpt>
<trkpt lat="52.860246" lon="-3.371705"><ele>420</ele><time>2020-01-18T10:19:58Z</time><name>PT2023</name></trkpt>
<trkpt lat="52.860254" lon="-3.371699"><ele>420</ele><time>2020-01-18T10:19:59Z</time><name>PT2024</name></trkpt>
<trkpt lat="52.860259" lon="-3.371691"><ele>420</ele><time>2020-01-18T10:19:59Z</time><name>PT2025</name></trkpt>
<trkpt lat="52.860270" lon="-3.371685"><ele>420</ele><time>2020-01-18T10:20:01Z</time><name>PT2026</name></trkpt>
<trkpt lat="52.860282" lon="-3.371680"><ele>421</ele><time>2020-01-18T10:20:02Z</time><name>PT2027</name></trkpt>
<trkpt lat="52.860291" lon="-3.371674"><ele>420</ele><time>2020-01-18T10:20:02Z</time><name>PT2028</name></trkpt>
<trkpt lat="52.860299" lon="-3.371667"><ele>420</ele><time>2020-01-18T10:20:04Z</time><name>PT2029</name></trkpt>
<trkpt lat="52.860311" lon="-3.371660"><ele>420</ele><time>2020-01-18T10:20:05Z</time><name>PT2030</name></trkpt>
<trkpt lat="52.860318" lon="-3.371650"><ele>420</ele><time>2020-01-18T10:20:05Z</time><name>PT2031</name></trkpt>
<trkpt lat="52.860325" lon="-3.371642"><ele>420</ele><time>2020-01-18T10:20:07Z</time><name>PT2032</name></trkpt>
<trkpt lat="52.860333" lon="-3.371635"><ele>420</ele><time>2020-01-18T10:20:08Z</time><name>PT2033</name></trkpt>
<trkpt lat="52.860343" lon="-3.371630"><ele>420</ele><time>2020-01-18T10:20:08Z</time><name>PT2034</name></trkpt>
<trkpt lat="52.860348" lon="-3.371626"><ele>420</ele><time>2020-01-18T10:20:10Z</time><name>PT2035</name></trkpt>
<trkpt lat="52.860364" lon="-3.371619"><ele>421</ele><time>2020-01-18T10:20:11Z</time><name>PT2036</name></trkpt>
<trkpt lat="52.860370" lon="-3.371608"><ele>422</ele><time>2020-01-18T10:20:11Z</time><name>PT2037</name></trkpt>
<trkpt lat="52.860375" lon="-3.371598"><ele>422</ele><time>2020-01-18T10:20:13Z</time><name>PT2038</name></trkpt>
<trkpt lat="52.860381" lon="-3.371591"><ele>422</ele><time>2020-01-18T10:20:14Z</time><name>PT2039</name></trkpt>
<trkpt lat="52.860390" lon="-3.371585"><ele>422</ele><time>2020-01-18T10:20:14Z</time><name>PT2040</name></trkpt>
<trkpt lat="52.860396" lon="-3.371578"><ele>422</ele><time>2020-01-18T10:20:16Z</time><name>PT2041</name></trkpt>
<trkpt lat="52.860406" lon="-3.371573"><ele>423</ele><time>2020-01-18T10:20:17Z</time><name>PT2042</name></trkpt>
<trkpt lat="52.860412" lon="-3.371565"><ele>423</ele><time>2020-01-18T10:20:18Z</time><name>PT2043</name></trkpt>
<trkpt lat="52.860420" lon="-3.371556"><ele>423</ele><time>2020-01-18T10:20:19Z</time><name>PT2044</name></trkpt>
<trkpt lat="52.860429" lon="-3.371550"><ele>423</ele><time>2020-01-18T10:20:20Z</time><name>PT2045</name></trkpt>
<trkpt lat="52.860440" lon="-3.371547"><ele>423</ele><time>2020-01-18T10:20:20Z</time><name>PT2046</name></trkpt>
<trkpt lat="52.860449" lon="-3.371544"><ele>423</ele><time>2020-01-18T10:20:22Z</time><name>PT2047</name></trkpt>
<trkpt lat="52.860459" lon="-3.371541"><ele>424</ele><time>2020-01-18T10:20:23Z</time><name>PT2048</name></trkpt>
<trkpt lat="52.860470" lon="-3.371534"><ele>424</ele><time>2020-01-18T10:20:23Z</time><name>PT2049</name></trkpt>
<trkpt lat="52.860475" lon="-3.371527"><ele>424</ele><time>2020-01-18T10:20:25Z</time><name>PT2050</name></trkpt>
<trkpt lat="52.860486" lon="-3.371525"><ele>423</ele><time>2020-01-18T10:20:26Z</time><name>PT2051</name></trkpt>
<trkpt lat="52.860495" lon="-3.371519"><ele>424</ele><time>2020-01-18T10:20:26Z</time><name>PT2052</name></trkpt>
<trkpt lat="52.860505" lon="-3.371516"><ele>424</ele><time>2020-01-18T10:20:28Z</time><name>PT2053</name></trkpt>
<trkpt lat="52.860511" lon="-3.371509"><ele>424</ele><time>2020-01-18T10:20:29Z</time><name>PT2054</name></trkpt>
<trkpt lat="52.860521" lon="-3.371504"><ele>424</ele><time>2020-01-18T10:20:29Z</time><name>PT2055</name></trkpt>
<trkpt lat="52.860534" lon="-3.371508"><ele>425</ele><time>2020-01-18T10:20:31Z</time><name>PT2056</name></trkpt>
<trkpt lat="52.860545" lon="-3.371509"><ele>425</ele><time>2020-01-18T10:20:32Z</time><name>PT2057</name></trkpt>
<trkpt lat="52.860557" lon="-3.371505"><ele>425</ele><time>2020-01-18T10:20:32Z</time><name>PT2058</name></trkpt>
<trkpt lat="52.860565" lon="-3.371504"><ele>426</ele><time>2020-01-18T10:20:34Z</time><name>PT2059</name></trkpt>
<trkpt lat="52.860575" lon="-3.371498"><ele>426</ele><time>2020-01-18T10:20:35Z</time><name>PT2060</name></trkpt>
<trkpt lat="52.860587" lon="-3.371491"><ele>427</ele><time>2020-01-18T10:20:35Z</time><name>PT2061</name></trkpt>
<trkpt lat="52.860598" lon="-3.371486"><ele>427</ele><time>2020-01-18T10:20:37Z</time><name>PT2062</name></trkpt>
<trkpt lat="52.860609" lon="-3.371483"><ele>427</ele><time>2020-01-18T10:20:38Z</time><name>PT2063</name></trkpt>
<trkpt lat="52.860617" lon="-3.371481"><ele>428</ele><time>2020-01-18T10:20:38Z</time><name>PT2064</name></trkpt>
<trkpt lat="52.860628" lon="-3.371479"><ele>428</ele><time>2020-01-18T10:20:40Z</time><name>PT2065</name></trkpt>
<trkpt lat="52.860640" lon="-3.371474"><ele>428</ele><time>2020-01-18T10:20:41Z</time><name>PT2066</name></trkpt>
<trkpt lat="52.860649" lon="-3.371469"><ele>428</ele><time>2020-01-18T10:20:41Z</time><name>PT2067</name></trkpt>
<trkpt lat="52.860661" lon="-3.371465"><ele>429</ele><time>2020-01-18T10:20:43Z</time><name>PT2068</name></trkpt>
<trkpt lat="52.860671" lon="-3.371460"><ele>428</ele><time>2020-01-18T10:20:44Z</time><name>PT2069</name></trkpt>
<trkpt lat="52.860673" lon="-3.371450"><ele>428</ele><time>2020-01-18T10:20:44Z</time><name>PT2070</name></trkpt>
<trkpt lat="52.860680" lon="-3.371444"><ele>428</ele><time>2020-01-18T10:20:46Z</time><name>PT2071</name></trkpt>
<trkpt lat="52.860687" lon="-3.371444"><ele>428</ele><time>2020-01-18T10:20:47Z</time><name>PT2072</name></trkpt>
<trkpt lat="52.860696" lon="-3.371446"><ele>428</ele><time>2020-01-18T10:20:47Z</time><name>PT2073</name></trkpt>
<trkpt lat="52.860707" lon="-3.371447"><ele>428</ele><time>2020-01-18T10:20:49Z</time><name>PT2074</name></trkpt>
<trkpt lat="52.860716" lon="-3.371443"><ele>428</ele><time>2020-01-18T10:20:50Z</time><name>PT2075</name></trkpt>
<trkpt lat="52.860719" lon="-3.371437"><ele>428</ele><time>2020-01-18T10:20:50Z</time><name>PT2076</name></trkpt>
<trkpt lat="52.860730" lon="-3.371435"><ele>427</ele><time>2020-01-18T10:20:52Z</time><name>PT2077</name></trkpt>
<trkpt lat="52.860742" lon="-3.371431"><ele>428</ele><time>2020-01-18T10:20:53Z</time><name>PT2078</name></trkpt>
<trkpt lat="52.860753" lon="-3.371426"><ele>427</ele><time>2020-01-18T10:20:53Z</time><name>PT2079</name></trkpt>
<trkpt lat="52.860765" lon="-3.371425"><ele>428</ele><time>2020-01-18T10:20:55Z</time><name>PT2080</name></trkpt>
<trkpt lat="52.860775" lon="-3.371421"><ele>428</ele><time>2020-01-18T10:20:56Z</time><name>PT2081</name></trkpt>
<trkpt lat="52.860784" lon="-3.371418"><ele>428</ele><time>2020-01-18T10:20:56Z</time><name>PT2082</name></trkpt>
<trkpt lat="52.860794" lon="-3.371417"><ele>428</ele><time>2020-01-18T10:20:58Z</time><name>PT2083</name></trkpt>
<trkpt lat="52.860801" lon="-3.371417"><ele>427</ele><time>2020-01-18T10:20:59Z</time><name>PT2084</name></trkpt>
<trkpt lat="52.860809" lon="-3.371417"><ele>427</ele><time>2020-01-18T10:20:59Z</time><name>PT2085</name></trkpt>
<trkpt lat="52.860817" lon="-3.371412"><ele>427</ele><time>2020-01-18T10:21:01Z</time><name>PT2086</name></trkpt>
<trkpt lat="52.860825" lon="-3.371411"><ele>427</ele><time>2020-01-18T10:21:02Z</time><name>PT2087</name></trkpt>
<trkpt lat="52.860837" lon="-3.371409"><ele>427</ele><time>2020-01-18T10:21:02Z</time><name>PT2088</name></trkpt>
<trkpt lat="52.860848" lon="-3.371405"><ele>428</ele><time>2020-01-18T10:21:04Z</time><name>PT2089</name></trkpt>
<trkpt lat="52.860859" lon="-3.371404"><ele>428</ele><time>2020-01-18T10:21:05Z</time><name>PT2090</name></trkpt>
<trkpt lat="52.860867" lon="-3.371400"><ele>428</ele><time>2020-01-18T10:21:06Z</time><name>PT2091</name></trkpt>
<trkpt lat="52.860874" lon="-3.371392"><ele>428</ele><time>2020-01-18T10:21:07Z</time><name>PT2092</name></trkpt>
<trkpt lat="52.860880" lon="-3.371386"><ele>428</ele><time>2020-01-18T10:21:08Z</time><name>PT2093</name></trkpt>
<trkpt lat="52.860891" lon="-3.371382"><ele>428</ele><time>2020-01-18T10:21:09Z</time><name>PT2094</name></trkpt>
<trkpt lat="52.860900" lon="-3.371378"><ele>427</ele><time>2020-01-18T10:21:10Z</time><name>PT2095</name></trkpt>
<trkpt lat="52.860909" lon="-3.371373"><ele>427</ele><time>2020-01-18T10:21:11Z</time><name>PT2096</name></trkpt>
<trkpt lat="52.860916" lon="-3.371369"><ele>427</ele><time>2020-01-18T10:21:11Z</time><name>PT2097</name></trkpt>
<trkpt lat="52.860927" lon="-3.371368"><ele>428</ele><time>2020-01-18T10:21:13Z</time><name>PT2098</name></trkpt>
<trkpt lat="52.860938" lon="-3.371368"><ele>428</ele><time>2020-01-18T10:21:14Z</time><name>PT2099</name></trkpt>
<trkpt lat="52.860945" lon="-3.371365"><ele>428</ele><time>2020-01-18T10:21:15Z</time><name>PT2100</name></trkpt>
<trkpt lat="52.860957" lon="-3.371359"><ele>429</ele><time>2020-01-18T10:21:16Z</time><name>PT2101</name></trkpt>
<trkpt lat="52.860964" lon="-3.371356"><ele>429</ele><time>2020-01-18T10:21:17Z</time><name>PT2102</name></trkpt>
<trkpt lat="52.860975" lon="-3.371354"><ele>429</ele><time>2020-01-18T10:21:18Z</time><name>PT2103</name></trkpt>
<trkpt lat="52.860986" lon="-3.371352"><ele>428</ele><time>2020-01-18T10:21:19Z</time><name>PT2104</name></trkpt>
<trkpt lat="52.860994" lon="-3.371345"><ele>428</ele><time>2020-01-18T10:21:20Z</time><name>PT2105</name></trkpt>
<trkpt lat="52.860999" lon="-3.371343"><ele>429</ele><time>2020-01-18T10:21:21Z</time><name>PT2106</name></trkpt>
<trkpt lat="52.861010" lon="-3.371340"><ele>429</ele><time>2020-01-18T10:21:22Z</time><name>PT2107</name></trkpt>
<trkpt lat="52.861019" lon="-3.371336"><ele>429</ele><time>2020-01-18T10:21:23Z</time><name>PT2108</name></trkpt>
<trkpt lat="52.861031" lon="-3.371333"><ele>430</ele><time>2020-01-18T10:21:24Z</time><name>PT2109</name></trkpt>
<trkpt lat="52.861045" lon="-3.371326"><ele>430</ele><time>2020-01-18T10:21:25Z</time><name>PT2110</name></trkpt>
<trkpt lat="52.861051" lon="-3.371319"><ele>430</ele><time>2020-01-18T10:21:26Z</time><name>PT2111</name></trkpt>
<trkpt lat="52.861061" lon="-3.371316"><ele>430</ele><time>2020-01-18T10:21:26Z</time><name>PT2112</name></trkpt>
<trkpt lat="52.861073" lon="-3.371315"><ele>431</ele><time>2020-01-18T10:21:28Z</time><name>PT2113</name></trkpt>
<trkpt lat="52.861077" lon="-3.371313"><ele>430</ele><time>2020-01-18T10:21:29Z</time><name>PT2114</name></trkpt>
<trkpt lat="52.861092" lon="-3.371309"><ele>431</ele><time>2020-01-18T10:21:29Z</time><name>PT2115</name></trkpt>
<trkpt lat="52.861103" lon="-3.371305"><ele>432</ele><time>2020-01-18T10:21:31Z</time><name>PT2116</name></trkpt>
<trkpt lat="52.861115" lon="-3.371303"><ele>432</ele><time>2020-01-18T10:21:32Z</time><name>PT2117</name></trkpt>
<trkpt lat="52.861125" lon="-3.371301"><ele>431</ele><time>2020-01-18T10:21:32Z</time><name>PT2118</name></trkpt>
<trkpt lat="52.861136" lon="-3.371298"><ele>432</ele><time>2020-01-18T10:21:34Z</time><name>PT2119</name></trkpt>
<trkpt lat="52.861145" lon="-3.371292"><ele>432</ele><time>2020-01-18T10:21:35Z</time><name>PT2120</name></trkpt>
<trkpt lat="52.861154" lon="-3.371284"><ele>432</ele><time>2020-01-18T10:21:36Z</time><name>PT2121</name></trkpt>
<trkpt lat="52.861165" lon="-3.371279"><ele>432</ele><time>2020-01-18T10:21:37Z</time><name>PT2122</name></trkpt>
<trkpt lat="52.861176" lon="-3.371276"><ele>432</ele><time>2020-01-18T10:21:38Z</time><name>PT2123</name></trkpt>
<trkpt lat="52.861185" lon="-3.371274"><ele>433</ele><time>2020-01-18T10:21:39Z</time><name>PT2124</name></trkpt>
<trkpt lat="52.861194" lon="-3.371269"><ele>433</ele><time>2020-01-18T10:21:40Z</time><name>PT2125</name></trkpt>
<trkpt lat="52.861201" lon="-3.371262"><ele>434</ele><time>2020-01-18T10:21:41Z</time><name>PT2126</name></trkpt>
<trkpt lat="52.861212" lon="-3.371259"><ele>434</ele><time>2020-01-18T10:21:41Z</time><name>PT2127</name></trkpt>
<trkpt lat="52.861219" lon="-3.371256"><ele>434</ele><time>2020-01-18T10:21:43Z</time><name>PT2128</name></trkpt>
<trkpt lat="52.861226" lon="-3.371250"><ele>434</ele><time>2020-01-18T10:21:44Z</time><name>PT2129</name></trkpt>
<trkpt lat="52.861235" lon="-3.371245"><ele>434</ele><time>2020-01-18T10:21:45Z</time><name>PT2130</name></trkpt>
<trkpt lat="52.861245" lon="-3.371243"><ele>434</ele><time>2020-01-18T10:21:46Z</time><name>PT2131</name></trkpt>
<trkpt lat="52.861251" lon="-3.371241"><ele>434</ele><time>2020-01-18T10:21:47Z</time><name>PT2132</name></trkpt>
<trkpt lat="52.861249" lon="-3.371236"><ele>433</ele><time>2020-01-18T10:21:48Z</time><name>PT2133</name></trkpt>
<trkpt lat="52.861257" lon="-3.371228"><ele>433</ele><time>2020-01-18T10:21:49Z</time><name>PT2134</name></trkpt>
<trkpt lat="52.861266" lon="-3.371224"><ele>432</ele><time>2020-01-18T10:21:50Z</time><name>PT2135</name></trkpt>
<trkpt lat="52.861277" lon="-3.371221"><ele>432</ele><time>2020-01-18T10:21:51Z</time><name>PT2136</name></trkpt>
<trkpt lat="52.861286" lon="-3.371216"><ele>431</ele><time>2020-01-18T10:21:52Z</time><name>PT2137</name></trkpt>
<trkpt lat="52.861296" lon="-3.371208"><ele>431</ele><time>2020-01-18T10:21:53Z</time><name>PT2138</name></trkpt>
<trkpt lat="52.861305" lon="-3.371204"><ele>431</ele><time>2020-01-18T10:21:54Z</time><name>PT2139</name></trkpt>
<trkpt lat="52.861315" lon="-3.371201"><ele>430</ele><time>2020-01-18T10:21:55Z</time><name>PT2140</name></trkpt>
<trkpt lat="52.861326" lon="-3.371198"><ele>430</ele><time>2020-01-18T10:21:56Z</time><name>PT2141</name></trkpt>
<trkpt lat="52.861331" lon="-3.371193"><ele>430</ele><time>2020-01-18T10:21:57Z</time><name>PT2142</name></trkpt>
<trkpt lat="52.861338" lon="-3.371190"><ele>430</ele><time>2020-01-18T10:21:58Z</time><name>PT2143</name></trkpt>
<trkpt lat="52.861348" lon="-3.371187"><ele>430</ele><time>2020-01-18T10:21:59Z</time><name>PT2144</name></trkpt>
<trkpt lat="52.861361" lon="-3.371184"><ele>429</ele><time>2020-01-18T10:21:59Z</time><name>PT2145</name></trkpt>
<trkpt lat="52.861374" lon="-3.371185"><ele>430</ele><time>2020-01-18T10:22:01Z</time><name>PT2146</name></trkpt>
<trkpt lat="52.861384" lon="-3.371184"><ele>430</ele><time>2020-01-18T10:22:02Z</time><name>PT2147</name></trkpt>
<trkpt lat="52.861397" lon="-3.371185"><ele>430</ele><time>2020-01-18T10:22:02Z</time><name>PT2148</name></trkpt>
<trkpt lat="52.861406" lon="-3.371187"><ele>430</ele><time>2020-01-18T10:22:04Z</time><name>PT2149</name></trkpt>
<trkpt lat="52.861416" lon="-3.371184"><ele>430</ele><time>2020-01-18T10:22:05Z</time><name>PT2150</name></trkpt>
<trkpt lat="52.861426" lon="-3.371181"><ele>430</ele><time>2020-01-18T10:22:05Z</time><name>PT2151</name></trkpt>
<trkpt lat="52.861430" lon="-3.371176"><ele>430</ele><time>2020-01-18T10:22:07Z</time><name>PT2152</name></trkpt>
<trkpt lat="52.861439" lon="-3.371172"><ele>430</ele><time>2020-01-18T10:22:08Z</time><name>PT2153</name></trkpt>
<trkpt lat="52.861447" lon="-3.371168"><ele>430</ele><time>2020-01-18T10:22:08Z</time><name>PT2154</name></trkpt>
<trkpt lat="52.861453" lon="-3.371164"><ele>430</ele><time>2020-01-18T10:22:10Z</time><name>PT2155</name></trkpt>
<trkpt lat="52.861462" lon="-3.371158"><ele>430</ele><time>2020-01-18T10:22:11Z</time><name>PT2156</name></trkpt>
<trkpt lat="52.861469" lon="-3.371149"><ele>429</ele><time>2020-01-18T10:22:11Z</time><name>PT2157</name></trkpt>
<trkpt lat="52.861483" lon="-3.371146"><ele>430</ele><time>2020-01-18T10:22:13Z</time><name>PT2158</name></trkpt>
<trkpt lat="52.861495" lon="-3.371141"><ele>430</ele><time>2020-01-18T10:22:14Z</time><name>PT2159</name></trkpt>
<trkpt lat="52.861505" lon="-3.371140"><ele>430</ele><time>2020-01-18T10:22:14Z</time><name>PT2160</name></trkpt>
<trkpt lat="52.861517" lon="-3.371136"><ele>431</ele><time>2020-01-18T10:22:16Z</time><name>PT2161</name></trkpt>
<trkpt lat="52.861528" lon="-3.371135"><ele>432</ele><time>2020-01-18T10:22:17Z</time><name>PT2162</name></trkpt>
<trkpt lat="52.861535" lon="-3.371131"><ele>431</ele><time>2020-01-18T10:22:17Z</time><name>PT2163</name></trkpt>
<trkpt lat="52.861546" lon="-3.371135"><ele>431</ele><time>2020-01-18T10:22:19Z</time><name>PT2164</name></trkpt>
<trkpt lat="52.861556" lon="-3.371130"><ele>431</ele><time>2020-01-18T10:22:20Z</time><name>PT2165</name></trkpt>
<trkpt lat="52.861565" lon="-3.371124"><ele>431</ele><time>2020-01-18T10:22:20Z</time><name>PT2166</name></trkpt>
<trkpt lat="52.861576" lon="-3.371119"><ele>430</ele><time>2020-01-18T10:22:22Z</time><name>PT2167</name></trkpt>
<trkpt lat="52.861589" lon="-3.371116"><ele>431</ele><time>2020-01-18T10:22:23Z</time><name>PT2168</name></trkpt>
<trkpt lat="52.861607" lon="-3.371117"><ele>431</ele><time>2020-01-18T10:22:24Z</time><name>PT2169</name></trkpt>
<trkpt lat="52.861618" lon="-3.371119"><ele>431</ele><time>2020-01-18T10:22:25Z</time><name>PT2170</name></trkpt>
<trkpt lat="52.861628" lon="-3.371116"><ele>431</ele><time>2020-01-18T10:22:26Z</time><name>PT2171</name></trkpt>
<trkpt lat="52.861639" lon="-3.371113"><ele>432</ele><time>2020-01-18T10:22:27Z</time><name>PT2172</name></trkpt>
<trkpt lat="52.861650" lon="-3.371108"><ele>432</ele><time>2020-01-18T10:22:28Z</time><name>PT2173</name></trkpt>
<trkpt lat="52.861658" lon="-3.371109"><ele>432</ele><time>2020-01-18T10:22:29Z</time><name>PT2174</name></trkpt>
<trkpt lat="52.861667" lon="-3.371109"><ele>432</ele><time>2020-01-18T10:22:29Z</time><name>PT2175</name></trkpt>
<trkpt lat="52.861676" lon="-3.371109"><ele>432</ele><time>2020-01-18T10:22:31Z</time><name>PT2176</name></trkpt>
<trkpt lat="52.861683" lon="-3.371106"><ele>432</ele><time>2020-01-18T10:22:32Z</time><name>PT2177</name></trkpt>
<trkpt lat="52.861693" lon="-3.371109"><ele>433</ele><time>2020-01-18T10:22:32Z</time><name>PT2178</name></trkpt>
<trkpt lat="52.861704" lon="-3.371113"><ele>434</ele><time>2020-01-18T10:22:34Z</time><name>PT2179</name></trkpt>
<trkpt lat="52.861713" lon="-3.371117"><ele>434</ele><time>2020-01-18T10:22:35Z</time><name>PT2180</name></trkpt>
<trkpt lat="52.861724" lon="-3.371115"><ele>435</ele><time>2020-01-18T10:22:35Z</time><name>PT2181</name></trkpt>
<trkpt lat="52.861734" lon="-3.371114"><ele>435</ele><time>2020-01-18T10:22:37Z</time><name>PT2182</name></trkpt>
<trkpt lat="52.861743" lon="-3.371113"><ele>435</ele><time>2020-01-18T10:22:38Z</time><name>PT2183</name></trkpt>
<trkpt lat="52.861752" lon="-3.371113"><ele>435</ele><time>2020-01-18T10:22:38Z</time><name>PT2184</name></trkpt>
<trkpt lat="52.861760" lon="-3.371115"><ele>435</ele><time>2020-01-18T10:22:40Z</time><name>PT2185</name></trkpt>
<trkpt lat="52.861769" lon="-3.371117"><ele>436</ele><time>2020-01-18T10:22:41Z</time><name>PT2186</name></trkpt>
<trkpt lat="52.861777" lon="-3.371121"><ele>436</ele><time>2020-01-18T10:22:41Z</time><name>PT2187</name></trkpt>
<trkpt lat="52.861790" lon="-3.371123"><ele>436</ele><time>2020-01-18T10:22:43Z</time><name>PT2188</name></trkpt>
<trkpt lat="52.861802" lon="-3.371124"><ele>436</ele><time>2020-01-18T10:22:44Z</time><name>PT2189</name></trkpt>
<trkpt lat="52.861814" lon="-3.371126"><ele>436</ele><time>2020-01-18T10:22:44Z</time><name>PT2190</name></trkpt>
<trkpt lat="52.861821" lon="-3.371130"><ele>436</ele><time>2020-01-18T10:22:46Z</time><name>PT2191</name></trkpt>
<trkpt lat="52.861825" lon="-3.371129"><ele>436</ele><time>2020-01-18T10:22:47Z</time><name>PT2192</name></trkpt>
<trkpt lat="52.861830" lon="-3.371138"><ele>438</ele><time>2020-01-18T10:22:47Z</time><name>PT2193</name></trkpt>
<trkpt lat="52.861840" lon="-3.371140"><ele>438</ele><time>2020-01-18T10:22:49Z</time><name>PT2194</name></trkpt>
<trkpt lat="52.861848" lon="-3.371141"><ele>438</ele><time>2020-01-18T10:22:50Z</time><name>PT2195</name></trkpt>
<trkpt lat="52.861858" lon="-3.371137"><ele>438</ele><time>2020-01-18T10:22:50Z</time><name>PT2196</name></trkpt>
<trkpt lat="52.861869" lon="-3.371133"><ele>438</ele><time>2020-01-18T10:22:52Z</time><name>PT2197</name></trkpt>
<trkpt lat="52.861875" lon="-3.371120"><ele>436</ele><time>2020-01-18T10:22:53Z</time><name>PT2198</name></trkpt>
<trkpt lat="52.861881" lon="-3.371115"><ele>435</ele><time>2020-01-18T10:22:54Z</time><name>PT2199</name></trkpt>
<trkpt lat="52.861889" lon="-3.371113"><ele>435</ele><time>2020-01-18T10:22:55Z</time><name>PT2200</name></trkpt>
<trkpt lat="52.861892" lon="-3.371122"><ele>437</ele><time>2020-01-18T10:22:56Z</time><name>PT2201</name></trkpt>
<trkpt lat="52.861903" lon="-3.371118"><ele>437</ele><time>2020-01-18T10:22:56Z</time><name>PT2202</name></trkpt>
<trkpt lat="52.861912" lon="-3.371113"><ele>437</ele><time>2020-01-18T10:22:58Z</time><name>PT2203</name></trkpt>
<trkpt lat="52.861921" lon="-3.371111"><ele>437</ele><time>2020-01-18T10:22:59Z</time><name>PT2204</name></trkpt>
<trkpt lat="52.861933" lon="-3.371108"><ele>437</ele><time>2020-01-18T10:22:59Z</time><name>PT2205</name></trkpt>
<trkpt lat="52.861946" lon="-3.371105"><ele>438</ele><time>2020-01-18T10:23:01Z</time><name>PT2206</name></trkpt>
<trkpt lat="52.861956" lon="-3.371101"><ele>438</ele><time>2020-01-18T10:23:02Z</time><name>PT2207</name></trkpt>
<trkpt lat="52.861969" lon="-3.371098"><ele>438</ele><time>2020-01-18T10:23:02Z</time><name>PT2208</name></trkpt>
<trkpt lat="52.861976" lon="-3.371094"><ele>438</ele><time>2020-01-18T10:23:04Z</time><name>PT2209</name></trkpt>
<trkpt lat="52.861987" lon="-3.371096"><ele>438</ele><time>2020-01-18T10:23:05Z</time><name>PT2210</name></trkpt>
<trkpt lat="52.862000" lon="-3.371094"><ele>438</ele><time>2020-01-18T10:23:05Z</time><name>PT2211</name></trkpt>
<trkpt lat="52.862011" lon="-3.371089"><ele>439</ele><time>2020-01-18T10:23:07Z</time><name>PT2212</name></trkpt>
<trkpt lat="52.862020" lon="-3.371082"><ele>439</ele><time>2020-01-18T10:23:08Z</time><name>PT2213</name></trkpt>
<trkpt lat="52.862032" lon="-3.371078"><ele>439</ele><time>2020-01-18T10:23:08Z</time><name>PT2214</name></trkpt>
<trkpt lat="52.862042" lon="-3.371075"><ele>439</ele><time>2020-01-18T10:23:10Z</time><name>PT2215</name></trkpt>
<trkpt lat="52.862051" lon="-3.371071"><ele>439</ele><time>2020-01-18T10:23:11Z</time><name>PT2216</name></trkpt>
<trkpt lat="52.862062" lon="-3.371064"><ele>440</ele><time>2020-01-18T10:23:11Z</time><name>PT2217</name></trkpt>
<trkpt lat="52.862067" lon="-3.371049"><ele>438</ele><time>2020-01-18T10:23:13Z</time><name>PT2218</name></trkpt>
<trkpt lat="52.862076" lon="-3.371041"><ele>437</ele><time>2020-01-18T10:23:14Z</time><name>PT2219</name></trkpt>
<trkpt lat="52.862084" lon="-3.371037"><ele>437</ele><time>2020-01-18T10:23:14Z</time><name>PT2220</name></trkpt>
<trkpt lat="52.862090" lon="-3.371036"><ele>436</ele><time>2020-01-18T10:23:16Z</time><name>PT2221</name></trkpt>
<trkpt lat="52.862103" lon="-3.371032"><ele>438</ele><time>2020-01-18T10:23:17Z</time><name>PT2222</name></trkpt>
<trkpt lat="52.862115" lon="-3.371025"><ele>438</ele><time>2020-01-18T10:23:17Z</time><name>PT2223</name></trkpt>
<trkpt lat="52.862127" lon="-3.371021"><ele>438</ele><time>2020-01-18T10:23:19Z</time><name>PT2224</name></trkpt>
<trkpt lat="52.862139" lon="-3.371023"><ele>439</ele><time>2020-01-18T10:23:20Z</time><name>PT2225</name></trkpt>
<trkpt lat="52.862147" lon="-3.371022"><ele>438</ele><time>2020-01-18T10:23:20Z</time><name>PT2226</name></trkpt>
<trkpt lat="52.862158" lon="-3.371021"><ele>439</ele><time>2020-01-18T10:23:22Z</time><name>PT2227</name></trkpt>
<trkpt lat="52.862170" lon="-3.371014"><ele>439</ele><time>2020-01-18T10:23:23Z</time><name>PT2228</name></trkpt>
<trkpt lat="52.862178" lon="-3.371010"><ele>439</ele><time>2020-01-18T10:23:24Z</time><name>PT2229</name></trkpt>
<trkpt lat="52.862192" lon="-3.371011"><ele>440</ele><time>2020-01-18T10:23:25Z</time><name>PT2230</name></trkpt>
<trkpt lat="52.862206" lon="-3.371006"><ele>440</ele><time>2020-01-18T10:23:26Z</time><name>PT2231</name></trkpt>
<trkpt lat="52.862224" lon="-3.371002"><ele>441</ele><time>2020-01-18T10:23:27Z</time><name>PT2232</name></trkpt>
<trkpt lat="52.862233" lon="-3.371002"><ele>441</ele><time>2020-01-18T10:23:28Z</time><name>PT2233</name></trkpt>
<trkpt lat="52.862238" lon="-3.371003"><ele>440</ele><time>2020-01-18T10:23:29Z</time><name>PT2234</name></trkpt>
<trkpt lat="52.862247" lon="-3.371003"><ele>440</ele><time>2020-01-18T10:23:30Z</time><name>PT2235</name></trkpt>
<trkpt lat="52.862256" lon="-3.371002"><ele>440</ele><time>2020-01-18T10:23:31Z</time><name>PT2236</name></trkpt>
<trkpt lat="52.862266" lon="-3.371001"><ele>440</ele><time>2020-01-18T10:23:32Z</time><name>PT2237</name></trkpt>
<trkpt lat="52.862275" lon="-3.371004"><ele>440</ele><time>2020-01-18T10:23:32Z</time><name>PT2238</name></trkpt>
<trkpt lat="52.862279" lon="-3.371008"><ele>441</ele><time>2020-01-18T10:23:34Z</time><name>PT2239</name></trkpt>
<trkpt lat="52.862282" lon="-3.371009"><ele>441</ele><time>2020-01-18T10:23:35Z</time><name>PT2240</name></trkpt>
<trkpt lat="52.862280" lon="-3.370998"><ele>440</ele><time>2020-01-18T10:23:44Z</time><name>PT2241</name></trkpt>
<trkpt lat="52.862275" lon="-3.370999"><ele>442</ele><time>2020-01-18T10:23:44Z</time><name>PT2242</name></trkpt>
<trkpt lat="52.862279" lon="-3.370994"><ele>441</ele><time>2020-01-18T10:23:46Z</time><name>PT2243</name></trkpt>
<trkpt lat="52.862287" lon="-3.371008"><ele>441</ele><time>2020-01-18T10:23:47Z</time><name>PT2244</name></trkpt>
<trkpt lat="52.862291" lon="-3.371019"><ele>441</ele><time>2020-01-18T10:23:47Z</time><name>PT2245</name></trkpt>
<trkpt lat="52.862297" lon="-3.371025"><ele>441</ele><time>2020-01-18T10:23:49Z</time><name>PT2246</name></trkpt>
<trkpt lat="52.862302" lon="-3.371018"><ele>441</ele><time>2020-01-18T10:23:50Z</time><name>PT2247</name></trkpt>
<trkpt lat="52.862317" lon="-3.370996"><ele>440</ele><time>2020-01-18T10:23:50Z</time><name>PT2248</name></trkpt>
<trkpt lat="52.862320" lon="-3.370997"><ele>441</ele><time>2020-01-18T10:23:52Z</time><name>PT2249</name></trkpt>
<trkpt lat="52.862329" lon="-3.370993"><ele>441</ele><time>2020-01-18T10:23:53Z</time><name>PT2250</name></trkpt>
<trkpt lat="52.862333" lon="-3.370984"><ele>441</ele><time>2020-01-18T10:23:53Z</time><name>PT2251</name></trkpt>
<trkpt lat="52.862336" lon="-3.370984"><ele>441</ele><time>2020-01-18T10:23:55Z</time><name>PT2252</name></trkpt>
<trkpt lat="52.862333" lon="-3.370982"><ele>441</ele><time>2020-01-18T10:23:56Z</time><name>PT2253</name></trkpt>
<trkpt lat="52.862336" lon="-3.370966"><ele>439</ele><time>2020-01-18T10:23:56Z</time><name>PT2254</name></trkpt>
<trkpt lat="52.862320" lon="-3.370957"><ele>438</ele><time>2020-01-18T10:23:58Z</time><name>PT2255</name></trkpt>
<trkpt lat="52.862319" lon="-3.370956"><ele>438</ele><time>2020-01-18T10:23:59Z</time><name>PT2256</name></trkpt>
<trkpt lat="52.862319" lon="-3.370954"><ele>438</ele><time>2020-01-18T10:23:59Z</time><name>PT2257</name></trkpt>
<trkpt lat="52.862320" lon="-3.370951"><ele>438</ele><time>2020-01-18T10:24:01Z</time><name>PT2258</name></trkpt>
<trkpt lat="52.862326" lon="-3.370957"><ele>438</ele><time>2020-01-18T10:24:02Z</time><name>PT2259</name></trkpt>
<trkpt lat="52.862329" lon="-3.370960"><ele>438</ele><time>2020-01-18T10:24:02Z</time><name>PT2260</name></trkpt>
<trkpt lat="52.862336" lon="-3.370965"><ele>439</ele><time>2020-01-18T10:24:04Z</time><name>PT2261</name></trkpt>
<trkpt lat="52.862342" lon="-3.370964"><ele>439</ele><time>2020-01-18T10:24:05Z</time><name>PT2262</name></trkpt>
<trkpt lat="52.862353" lon="-3.370968"><ele>439</ele><time>2020-01-18T10:24:06Z</time><name>PT2263</name></trkpt>
<trkpt lat="52.862363" lon="-3.370970"><ele>439</ele><time>2020-01-18T10:24:07Z</time><name>PT2264</name></trkpt>
<trkpt lat="52.862375" lon="-3.370970"><ele>439</ele><time>2020-01-18T10:24:08Z</time><name>PT2265</name></trkpt>
<trkpt lat="52.862386" lon="-3.370971"><ele>439</ele><time>2020-01-18T10:24:09Z</time><name>PT2266</name></trkpt>
<trkpt lat="52.862400" lon="-3.370970"><ele>440</ele><time>2020-01-18T10:24:10Z</time><name>PT2267</name></trkpt>
<trkpt lat="52.862412" lon="-3.370969"><ele>440</ele><time>2020-01-18T10:24:11Z</time><name>PT2268</name></trkpt>
<trkpt lat="52.862422" lon="-3.370974"><ele>440</ele><time>2020-01-18T10:24:11Z</time><name>PT2269</name></trkpt>
<trkpt lat="52.862431" lon="-3.370976"><ele>440</ele><time>2020-01-18T10:24:13Z</time><name>PT2270</name></trkpt>
<trkpt lat="52.862440" lon="-3.370980"><ele>441</ele><time>2020-01-18T10:24:14Z</time><name>PT2271</name></trkpt>
<trkpt lat="52.862451" lon="-3.370981"><ele>441</ele><time>2020-01-18T10:24:14Z</time><name>PT2272</name></trkpt>
<trkpt lat="52.862463" lon="-3.370986"><ele>441</ele><time>2020-01-18T10:24:16Z</time><name>PT2273</name></trkpt>
<trkpt lat="52.862473" lon="-3.370980"><ele>441</ele><time>2020-01-18T10:24:17Z</time><name>PT2274</name></trkpt>
<trkpt lat="52.862490" lon="-3.370976"><ele>441</ele><time>2020-01-18T10:24:17Z</time><name>PT2275</name></trkpt>
<trkpt lat="52.862504" lon="-3.370978"><ele>441</ele><time>2020-01-18T10:24:19Z</time><name>PT2276</name></trkpt>
<trkpt lat="52.862514" lon="-3.370981"><ele>441</ele><time>2020-01-18T10:24:20Z</time><name>PT2277</name></trkpt>
<trkpt lat="52.862524" lon="-3.370980"><ele>441</ele><time>2020-01-18T10:24:20Z</time><name>PT2278</name></trkpt>
<trkpt lat="52.862533" lon="-3.370982"><ele>441</ele><time>2020-01-18T10:24:22Z</time><name>PT2279</name></trkpt>
<trkpt lat="52.862540" lon="-3.370980"><ele>441</ele><time>2020-01-18T10:24:23Z</time><name>PT2280</name></trkpt>
<trkpt lat="52.862547" lon="-3.370981"><ele>441</ele><time>2020-01-18T10:24:23Z</time><name>PT2281</name></trkpt>
<trkpt lat="52.862554" lon="-3.370979"><ele>441</ele><time>2020-01-18T10:24:25Z</time><name>PT2282</name></trkpt>
<trkpt lat="52.862563" lon="-3.370976"><ele>442</ele><time>2020-01-18T10:24:26Z</time><name>PT2283</name></trkpt>
<trkpt lat="52.862576" lon="-3.370974"><ele>442</ele><time>2020-01-18T10:24:27Z</time><name>PT2284</name></trkpt>
<trkpt lat="52.862586" lon="-3.370976"><ele>442</ele><time>2020-01-18T10:24:28Z</time><name>PT2285</name></trkpt>
<trkpt lat="52.862594" lon="-3.370976"><ele>442</ele><time>2020-01-18T10:24:29Z</time><name>PT2286</name></trkpt>
<trkpt lat="52.862603" lon="-3.370977"><ele>441</ele><time>2020-01-18T10:24:29Z</time><name>PT2287</name></trkpt>
<trkpt lat="52.862613" lon="-3.370971"><ele>441</ele><time>2020-01-18T10:24:31Z</time><name>PT2288</name></trkpt>
<trkpt lat="52.862626" lon="-3.370973"><ele>442</ele><time>2020-01-18T10:24:32Z</time><name>PT2289</name></trkpt>
<trkpt lat="52.862641" lon="-3.370969"><ele>443</ele><time>2020-01-18T10:24:32Z</time><name>PT2290</name></trkpt>
<trkpt lat="52.862650" lon="-3.370969"><ele>442</ele><time>2020-01-18T10:24:34Z</time><name>PT2291</name></trkpt>
<trkpt lat="52.862659" lon="-3.370968"><ele>442</ele><time>2020-01-18T10:24:35Z</time><name>PT2292</name></trkpt>
<trkpt lat="52.862664" lon="-3.370966"><ele>443</ele><time>2020-01-18T10:24:35Z</time><name>PT2293</name></trkpt>
<trkpt lat="52.862672" lon="-3.370966"><ele>443</ele><time>2020-01-18T10:24:37Z</time><name>PT2294</name></trkpt>
<trkpt lat="52.862682" lon="-3.370967"><ele>443</ele><time>2020-01-18T10:24:38Z</time><name>PT2295</name></trkpt>
<trkpt lat="52.862692" lon="-3.370970"><ele>444</ele><time>2020-01-18T10:24:38Z</time><name>PT2296</name></trkpt>
<trkpt lat="52.862702" lon="-3.370968"><ele>444</ele><time>2020-01-18T10:24:40Z</time><name>PT2297</name></trkpt>
<trkpt lat="52.862715" lon="-3.370963"><ele>444</ele><time>2020-01-18T10:24:41Z</time><name>PT2298</name></trkpt>
<trkpt lat="52.862724" lon="-3.370957"><ele>444</ele><time>2020-01-18T10:24:41Z</time><name>PT2299</name></trkpt>
<trkpt lat="52.862733" lon="-3.370954"><ele>444</ele><time>2020-01-18T10:24:43Z</time><name>PT2300</name></trkpt>
<trkpt lat="52.862749" lon="-3.370954"><ele>445</ele><time>2020-01-18T10:24:44Z</time><name>PT2301</name></trkpt>
<trkpt lat="52.862757" lon="-3.370953"><ele>446</ele><time>2020-01-18T10:24:44Z</time><name>PT2302</name></trkpt>
<trkpt lat="52.862769" lon="-3.370953"><ele>446</ele><time>2020-01-18T10:24:46Z</time><name>PT2303</name></trkpt>
<trkpt lat="52.862782" lon="-3.370951"><ele>446</ele><time>2020-01-18T10:24:47Z</time><name>PT2304</name></trkpt>
<trkpt lat="52.862794" lon="-3.370944"><ele>446</ele><time>2020-01-18T10:24:47Z</time><name>PT2305</name></trkpt>
<trkpt lat="52.862810" lon="-3.370942"><ele>448</ele><time>2020-01-18T10:24:49Z</time><name>PT2306</name></trkpt>
<trkpt lat="52.862822" lon="-3.370947"><ele>448</ele><time>2020-01-18T10:24:50Z</time><name>PT2307</name></trkpt>
<trkpt lat="52.862832" lon="-3.370947"><ele>448</ele><time>2020-01-18T10:24:50Z</time><name>PT2308</name></trkpt>
<trkpt lat="52.862839" lon="-3.370943"><ele>448</ele><time>2020-01-18T10:24:52Z</time><name>PT2309</name></trkpt>
<trkpt lat="52.862850" lon="-3.370941"><ele>448</ele><time>2020-01-18T10:24:53Z</time><name>PT2310</name></trkpt>
<trkpt lat="52.862861" lon="-3.370938"><ele>449</ele><time>2020-01-18T10:24:53Z</time><name>PT2311</name></trkpt>
<trkpt lat="52.862869" lon="-3.370937"><ele>449</ele><time>2020-01-18T10:24:55Z</time><name>PT2312</name></trkpt>
<trkpt lat="52.862883" lon="-3.370940"><ele>450</ele><time>2020-01-18T10:24:56Z</time><name>PT2313</name></trkpt>
<trkpt lat="52.862894" lon="-3.370940"><ele>450</ele><time>2020-01-18T10:24:56Z</time><name>PT2314</name></trkpt>
<trkpt lat="52.862902" lon="-3.370940"><ele>450</ele><time>2020-01-18T10:24:58Z</time><name>PT2315</name></trkpt>
<trkpt lat="52.862914" lon="-3.370949"><ele>450</ele><time>2020-01-18T10:24:59Z</time><name>PT2316</name></trkpt>
<trkpt lat="52.862929" lon="-3.370957"><ele>450</ele><time>2020-01-18T10:24:59Z</time><name>PT2317</name></trkpt>
<trkpt lat="52.862939" lon="-3.370962"><ele>450</ele><time>2020-01-18T10:25:01Z</time><name>PT2318</name></trkpt>
<trkpt lat="52.862949" lon="-3.370964"><ele>450</ele><time>2020-01-18T10:25:02Z</time><name>PT2319</name></trkpt>
<trkpt lat="52.862959" lon="-3.370967"><ele>450</ele><time>2020-01-18T10:25:02Z</time><name>PT2320</name></trkpt>
<trkpt lat="52.862971" lon="-3.370972"><ele>451</ele><time>2020-01-18T10:25:04Z</time><name>PT2321</name></trkpt>
<trkpt lat="52.862983" lon="-3.370957"><ele>449</ele><time>2020-01-18T10:25:05Z</time><name>PT2322</name></trkpt>
<trkpt lat="52.862992" lon="-3.370958"><ele>450</ele><time>2020-01-18T10:25:05Z</time><name>PT2323</name></trkpt>
<trkpt lat="52.862995" lon="-3.370960"><ele>449</ele><time>2020-01-18T10:25:07Z</time><name>PT2324</name></trkpt>
<trkpt lat="52.863005" lon="-3.370963"><ele>449</ele><time>2020-01-18T10:25:08Z</time><name>PT2325</name></trkpt>
<trkpt lat="52.863019" lon="-3.370968"><ele>450</ele><time>2020-01-18T10:25:08Z</time><name>PT2326</name></trkpt>
<trkpt lat="52.863030" lon="-3.370971"><ele>450</ele><time>2020-01-18T10:25:10Z</time><name>PT2327</name></trkpt>
<trkpt lat="52.863042" lon="-3.370969"><ele>450</ele><time>2020-01-18T10:25:11Z</time><name>PT2328</name></trkpt>
<trkpt lat="52.863054" lon="-3.370969"><ele>450</ele><time>2020-01-18T10:25:11Z</time><name>PT2329</name></trkpt>
<trkpt lat="52.863064" lon="-3.370977"><ele>451</ele><time>2020-01-18T10:25:13Z</time><name>PT2330</name></trkpt>
<trkpt lat="52.863072" lon="-3.370974"><ele>451</ele><time>2020-01-18T10:25:14Z</time><name>PT2331</name></trkpt>
<trkpt lat="52.863082" lon="-3.370977"><ele>452</ele><time>2020-01-18T10:25:15Z</time><name>PT2332</name></trkpt>
<trkpt lat="52.863093" lon="-3.370978"><ele>452</ele><time>2020-01-18T10:25:16Z</time><name>PT2333</name></trkpt>
<trkpt lat="52.863100" lon="-3.370980"><ele>451</ele><time>2020-01-18T10:25:17Z</time><name>PT2334</name></trkpt>
<trkpt lat="52.863111" lon="-3.370989"><ele>452</ele><time>2020-01-18T10:25:18Z</time><name>PT2335</name></trkpt>
<trkpt lat="52.863122" lon="-3.370992"><ele>452</ele><time>2020-01-18T10:25:19Z</time><name>PT2336</name></trkpt>
<trkpt lat="52.863133" lon="-3.370998"><ele>452</ele><time>2020-01-18T10:25:20Z</time><name>PT2337</name></trkpt>
<trkpt lat="52.863142" lon="-3.371007"><ele>453</ele><time>2020-01-18T10:25:21Z</time><name>PT2338</name></trkpt>
<trkpt lat="52.863151" lon="-3.371012"><ele>453</ele><time>2020-01-18T10:25:22Z</time><name>PT2339</name></trkpt>
<trkpt lat="52.863160" lon="-3.371020"><ele>453</ele><time>2020-01-18T10:25:23Z</time><name>PT2340</name></trkpt>
<trkpt lat="52.863167" lon="-3.371033"><ele>453</ele><time>2020-01-18T10:25:24Z</time><name>PT2341</name></trkpt>
<trkpt lat="52.863176" lon="-3.371037"><ele>453</ele><time>2020-01-18T10:25:25Z</time><name>PT2342</name></trkpt>
<trkpt lat="52.863182" lon="-3.371035"><ele>453</ele><time>2020-01-18T10:25:26Z</time><name>PT2343</name></trkpt>
<trkpt lat="52.863190" lon="-3.371045"><ele>454</ele><time>2020-01-18T10:25:26Z</time><name>PT2344</name></trkpt>
<trkpt lat="52.863196" lon="-3.371058"><ele>455</ele><time>2020-01-18T10:25:28Z</time><name>PT2345</name></trkpt>
<trkpt lat="52.863201" lon="-3.371056"><ele>455</ele><time>2020-01-18T10:25:29Z</time><name>PT2346</name></trkpt>
<trkpt lat="52.863210" lon="-3.371059"><ele>454</ele><time>2020-01-18T10:25:30Z</time><name>PT2347</name></trkpt>
<trkpt lat="52.863217" lon="-3.371064"><ele>454</ele><time>2020-01-18T10:25:31Z</time><name>PT2348</name></trkpt>
<trkpt lat="52.863227" lon="-3.371073"><ele>455</ele><time>2020-01-18T10:25:32Z</time><name>PT2349</name></trkpt>
<trkpt lat="52.863240" lon="-3.371075"><ele>454</ele><time>2020-01-18T10:25:32Z</time><name>PT2350</name></trkpt>
<trkpt lat="52.863247" lon="-3.371077"><ele>455</ele><time>2020-01-18T10:25:34Z</time><name>PT2351</name></trkpt>
<trkpt lat="52.863256" lon="-3.371073"><ele>455</ele><time>2020-01-18T10:25:35Z</time><name>PT2352</name></trkpt>
<trkpt lat="52.863266" lon="-3.371072"><ele>455</ele><time>2020-01-18T10:25:35Z</time><name>PT2353</name></trkpt>
<trkpt lat="52.863273" lon="-3.371073"><ele>455</ele><time>2020-01-18T10:25:37Z</time><name>PT2354</name></trkpt>
<trkpt lat="52.863282" lon="-3.371079"><ele>456</ele><time>2020-01-18T10:25:38Z</time><name>PT2355</name></trkpt>
<trkpt lat="52.863296" lon="-3.371086"><ele>456</ele><time>2020-01-18T10:25:38Z</time><name>PT2356</name></trkpt>
<trkpt lat="52.863303" lon="-3.371090"><ele>457</ele><time>2020-01-18T10:25:40Z</time><name>PT2357</name></trkpt>
<trkpt lat="52.863310" lon="-3.371092"><ele>457</ele><time>2020-01-18T10:25:41Z</time><name>PT2358</name></trkpt>
<trkpt lat="52.863316" lon="-3.371093"><ele>456</ele><time>2020-01-18T10:25:41Z</time><name>PT2359</name></trkpt>
<trkpt lat="52.863326" lon="-3.371093"><ele>457</ele><time>2020-01-18T10:25:43Z</time><name>PT2360</name></trkpt>
<trkpt lat="52.863334" lon="-3.371096"><ele>457</ele><time>2020-01-18T10:25:44Z</time><name>PT2361</name></trkpt>
<trkpt lat="52.863341" lon="-3.371097"><ele>456</ele><time>2020-01-18T10:25:45Z</time><name>PT2362</name></trkpt>
<trkpt lat="52.863348" lon="-3.371098"><ele>456</ele><time>2020-01-18T10:25:46Z</time><name>PT2363</name></trkpt>
<trkpt lat="52.863357" lon="-3.371095"><ele>456</ele><time>2020-01-18T10:25:47Z</time><name>PT2364</name></trkpt>
<trkpt lat="52.863363" lon="-3.371096"><ele>456</ele><time>2020-01-18T10:25:48Z</time><name>PT2365</name></trkpt>
<trkpt lat="52.863370" lon="-3.371098"><ele>456</ele><time>2020-01-18T10:25:49Z</time><name>PT2366</name></trkpt>
<trkpt lat="52.863377" lon="-3.371097"><ele>455</ele><time>2020-01-18T10:25:50Z</time><name>PT2367</name></trkpt>
<trkpt lat="52.863384" lon="-3.371095"><ele>456</ele><time>2020-01-18T10:25:51Z</time><name>PT2368</name></trkpt>
<trkpt lat="52.863392" lon="-3.371091"><ele>455</ele><time>2020-01-18T10:25:52Z</time><name>PT2369</name></trkpt>
<trkpt lat="52.863404" lon="-3.371087"><ele>455</ele><time>2020-01-18T10:25:53Z</time><name>PT2370</name></trkpt>
<trkpt lat="52.863417" lon="-3.371091"><ele>454</ele><time>2020-01-18T10:25:54Z</time><name>PT2371</name></trkpt>
<trkpt lat="52.863427" lon="-3.371087"><ele>454</ele><time>2020-01-18T10:25:55Z</time><name>PT2372</name></trkpt>
<trkpt lat="52.863440" lon="-3.371086"><ele>455</ele><time>2020-01-18T10:25:56Z</time><name>PT2373</name></trkpt>
<trkpt lat="52.863451" lon="-3.371083"><ele>454</ele><time>2020-01-18T10:25:57Z</time><name>PT2374</name></trkpt>
<trkpt lat="52.863455" lon="-3.371083"><ele>454</ele><time>2020-01-18T10:25:58Z</time><name>PT2375</name></trkpt>
<trkpt lat="52.863460" lon="-3.371082"><ele>453</ele><time>2020-01-18T10:25:59Z</time><name>PT2376</name></trkpt>
<trkpt lat="52.863467" lon="-3.371089"><ele>454</ele><time>2020-01-18T10:25:59Z</time><name>PT2377</name></trkpt>
<trkpt lat="52.863474" lon="-3.371092"><ele>454</ele><time>2020-01-18T10:26:01Z</time><name>PT2378</name></trkpt>
<trkpt lat="52.863483" lon="-3.371095"><ele>454</ele><time>2020-01-18T10:26:02Z</time><name>PT2379</name></trkpt>
<trkpt lat="52.863492" lon="-3.371094"><ele>454</ele><time>2020-01-18T10:26:02Z</time><name>PT2380</name></trkpt>
<trkpt lat="52.863502" lon="-3.371097"><ele>454</ele><time>2020-01-18T10:26:04Z</time><name>PT2381</name></trkpt>
<trkpt lat="52.863508" lon="-3.371101"><ele>453</ele><time>2020-01-18T10:26:05Z</time><name>PT2382</name></trkpt>
<trkpt lat="52.863515" lon="-3.371099"><ele>453</ele><time>2020-01-18T10:26:05Z</time><name>PT2383</name></trkpt>
<trkpt lat="52.863529" lon="-3.371103"><ele>454</ele><time>2020-01-18T10:26:07Z</time><name>PT2384</name></trkpt>
<trkpt lat="52.863536" lon="-3.371104"><ele>455</ele><time>2020-01-18T10:26:08Z</time><name>PT2385</name></trkpt>
<trkpt lat="52.863548" lon="-3.371111"><ele>455</ele><time>2020-01-18T10:26:08Z</time><name>PT2386</name></trkpt>
<trkpt lat="52.863556" lon="-3.371114"><ele>455</ele><time>2020-01-18T10:26:10Z</time><name>PT2387</name></trkpt>
<trkpt lat="52.863567" lon="-3.371114"><ele>456</ele><time>2020-01-18T10:26:11Z</time><name>PT2388</name></trkpt>
<trkpt lat="52.863575" lon="-3.371110"><ele>455</ele><time>2020-01-18T10:26:11Z</time><name>PT2389</name></trkpt>
<trkpt lat="52.863581" lon="-3.371107"><ele>455</ele><time>2020-01-18T10:26:13Z</time><name>PT2390</name></trkpt>
<trkpt lat="52.863590" lon="-3.371107"><ele>454</ele><time>2020-01-18T10:26:14Z</time><name>PT2391</name></trkpt>
<trkpt lat="52.863599" lon="-3.371107"><ele>454</ele><time>2020-01-18T10:26:15Z</time><name>PT2392</name></trkpt>
<trkpt lat="52.863612" lon="-3.371106"><ele>454</ele><time>2020-01-18T10:26:16Z</time><name>PT2393</name></trkpt>
<trkpt lat="52.863620" lon="-3.371107"><ele>454</ele><time>2020-01-18T10:26:17Z</time><name>PT2394</name></trkpt>
<trkpt lat="52.863625" lon="-3.371110"><ele>454</ele><time>2020-01-18T10:26:18Z</time><name>PT2395</name></trkpt>
<trkpt lat="52.863635" lon="-3.371107"><ele>454</ele><time>2020-01-18T10:26:19Z</time><name>PT2396</name></trkpt>
<trkpt lat="52.863648" lon="-3.371106"><ele>454</ele><time>2020-01-18T10:26:20Z</time><name>PT2397</name></trkpt>
<trkpt lat="52.863657" lon="-3.371106"><ele>454</ele><time>2020-01-18T10:26:21Z</time><name>PT2398</name></trkpt>
<trkpt lat="52.863664" lon="-3.371106"><ele>454</ele><time>2020-01-18T10:26:22Z</time><name>PT2399</name></trkpt>
<trkpt lat="52.863675" lon="-3.371105"><ele>454</ele><time>2020-01-18T10:26:23Z</time><name>PT2400</name></trkpt>
<trkpt lat="52.863685" lon="-3.371104"><ele>454</ele><time>2020-01-18T10:26:24Z</time><name>PT2401</name></trkpt>
<trkpt lat="52.863697" lon="-3.371107"><ele>454</ele><time>2020-01-18T10:26:25Z</time><name>PT2402</name></trkpt>
<trkpt lat="52.863708" lon="-3.371105"><ele>454</ele><time>2020-01-18T10:26:26Z</time><name>PT2403</name></trkpt>
<trkpt lat="52.863720" lon="-3.371109"><ele>455</ele><time>2020-01-18T10:26:26Z</time><name>PT2404</name></trkpt>
<trkpt lat="52.863733" lon="-3.371108"><ele>455</ele><time>2020-01-18T10:26:28Z</time><name>PT2405</name></trkpt>
<trkpt lat="52.863738" lon="-3.371107"><ele>454</ele><time>2020-01-18T10:26:29Z</time><name>PT2406</name></trkpt>
<trkpt lat="52.863744" lon="-3.371108"><ele>455</ele><time>2020-01-18T10:26:29Z</time><name>PT2407</name></trkpt>
<trkpt lat="52.863751" lon="-3.371122"><ele>455</ele><time>2020-01-18T10:26:31Z</time><name>PT2408</name></trkpt>
<trkpt lat="52.863760" lon="-3.371125"><ele>455</ele><time>2020-01-18T10:26:32Z</time><name>PT2409</name></trkpt>
<trkpt lat="52.863769" lon="-3.371128"><ele>456</ele><time>2020-01-18T10:26:32Z</time><name>PT2410</name></trkpt>
<trkpt lat="52.863780" lon="-3.371125"><ele>456</ele><time>2020-01-18T10:26:34Z</time><name>PT2411</name></trkpt>
<trkpt lat="52.863787" lon="-3.371129"><ele>455</ele><time>2020-01-18T10:26:35Z</time><name>PT2412</name></trkpt>
<trkpt lat="52.863796" lon="-3.371128"><ele>456</ele><time>2020-01-18T10:26:35Z</time><name>PT2413</name></trkpt>
<trkpt lat="52.863806" lon="-3.371125"><ele>456</ele><time>2020-01-18T10:26:37Z</time><name>PT2414</name></trkpt>
<trkpt lat="52.863816" lon="-3.371121"><ele>455</ele><time>2020-01-18T10:26:38Z</time><name>PT2415</name></trkpt>
<trkpt lat="52.863821" lon="-3.371133"><ele>456</ele><time>2020-01-18T10:26:38Z</time><name>PT2416</name></trkpt>
<trkpt lat="52.863827" lon="-3.371138"><ele>455</ele><time>2020-01-18T10:26:40Z</time><name>PT2417</name></trkpt>
<trkpt lat="52.863835" lon="-3.371135"><ele>455</ele><time>2020-01-18T10:26:41Z</time><name>PT2418</name></trkpt>
<trkpt lat="52.863844" lon="-3.371132"><ele>455</ele><time>2020-01-18T10:26:41Z</time><name>PT2419</name></trkpt>
<trkpt lat="52.863857" lon="-3.371133"><ele>455</ele><time>2020-01-18T10:26:43Z</time><name>PT2420</name></trkpt>
<trkpt lat="52.863868" lon="-3.371134"><ele>455</ele><time>2020-01-18T10:26:44Z</time><name>PT2421</name></trkpt>
<trkpt lat="52.863878" lon="-3.371138"><ele>455</ele><time>2020-01-18T10:26:44Z</time><name>PT2422</name></trkpt>
<trkpt lat="52.863888" lon="-3.371140"><ele>455</ele><time>2020-01-18T10:26:46Z</time><name>PT2423</name></trkpt>
<trkpt lat="52.863904" lon="-3.371145"><ele>456</ele><time>2020-01-18T10:26:47Z</time><name>PT2424</name></trkpt>
<trkpt lat="52.863915" lon="-3.371148"><ele>456</ele><time>2020-01-18T10:26:47Z</time><name>PT2425</name></trkpt>
<trkpt lat="52.863922" lon="-3.371150"><ele>456</ele><time>2020-01-18T10:26:49Z</time><name>PT2426</name></trkpt>
<trkpt lat="52.863933" lon="-3.371159"><ele>456</ele><time>2020-01-18T10:26:50Z</time><name>PT2427</name></trkpt>
<trkpt lat="52.863943" lon="-3.371165"><ele>456</ele><time>2020-01-18T10:26:51Z</time><name>PT2428</name></trkpt>
<trkpt lat="52.863951" lon="-3.371163"><ele>457</ele><time>2020-01-18T10:26:52Z</time><name>PT2429</name></trkpt>
<trkpt lat="52.863964" lon="-3.371163"><ele>457</ele><time>2020-01-18T10:26:53Z</time><name>PT2430</name></trkpt>
<trkpt lat="52.863977" lon="-3.371163"><ele>457</ele><time>2020-01-18T10:26:54Z</time><name>PT2431</name></trkpt>
<trkpt lat="52.863989" lon="-3.371165"><ele>457</ele><time>2020-01-18T10:26:55Z</time><name>PT2432</name></trkpt>
<trkpt lat="52.863997" lon="-3.371170"><ele>457</ele><time>2020-01-18T10:26:56Z</time><name>PT2433</name></trkpt>
<trkpt lat="52.864008" lon="-3.371169"><ele>457</ele><time>2020-01-18T10:26:57Z</time><name>PT2434</name></trkpt>
<trkpt lat="52.864019" lon="-3.371169"><ele>457</ele><time>2020-01-18T10:26:58Z</time><name>PT2435</name></trkpt>
<trkpt lat="52.864025" lon="-3.371173"><ele>457</ele><time>2020-01-18T10:26:59Z</time><name>PT2436</name></trkpt>
<trkpt lat="52.864031" lon="-3.371177"><ele>457</ele><time>2020-01-18T10:27:00Z</time><name>PT2437</name></trkpt>
<trkpt lat="52.864037" lon="-3.371180"><ele>457</ele><time>2020-01-18T10:27:01Z</time><name>PT2438</name></trkpt>
<trkpt lat="52.864045" lon="-3.371181"><ele>457</ele><time>2020-01-18T10:27:02Z</time><name>PT2439</name></trkpt>
<trkpt lat="52.864052" lon="-3.371187"><ele>457</ele><time>2020-01-18T10:27:03Z</time><name>PT2440</name></trkpt>
<trkpt lat="52.864057" lon="-3.371194"><ele>457</ele><time>2020-01-18T10:27:04Z</time><name>PT2441</name></trkpt>
<trkpt lat="52.864071" lon="-3.371195"><ele>458</ele><time>2020-01-18T10:27:05Z</time><name>PT2442</name></trkpt>
<trkpt lat="52.864078" lon="-3.371202"><ele>458</ele><time>2020-01-18T10:27:06Z</time><name>PT2443</name></trkpt>
<trkpt lat="52.864087" lon="-3.371206"><ele>459</ele><time>2020-01-18T10:27:07Z</time><name>PT2444</name></trkpt>
<trkpt lat="52.864098" lon="-3.371209"><ele>459</ele><time>2020-01-18T10:27:08Z</time><name>PT2445</name></trkpt>
<trkpt lat="52.864110" lon="-3.371212"><ele>459</ele><time>2020-01-18T10:27:08Z</time><name>PT2446</name></trkpt>
<trkpt lat="52.864121" lon="-3.371218"><ele>460</ele><time>2020-01-18T10:27:10Z</time><name>PT2447</name></trkpt>
<trkpt lat="52.864131" lon="-3.371223"><ele>460</ele><time>2020-01-18T10:27:11Z</time><name>PT2448</name></trkpt>
<trkpt lat="52.864144" lon="-3.371216"><ele>459</ele><time>2020-01-18T10:27:11Z</time><name>PT2449</name></trkpt>
<trkpt lat="52.864154" lon="-3.371217"><ele>459</ele><time>2020-01-18T10:27:13Z</time><name>PT2450</name></trkpt>
<trkpt lat="52.864162" lon="-3.371222"><ele>460</ele><time>2020-01-18T10:27:14Z</time><name>PT2451</name></trkpt>
<trkpt lat="52.864171" lon="-3.371226"><ele>460</ele><time>2020-01-18T10:27:14Z</time><name>PT2452</name></trkpt>
<trkpt lat="52.864180" lon="-3.371228"><ele>459</ele><time>2020-01-18T10:27:16Z</time><name>PT2453</name></trkpt>
<trkpt lat="52.864189" lon="-3.371226"><ele>459</ele><time>2020-01-18T10:27:17Z</time><name>PT2454</name></trkpt>
<trkpt lat="52.864196" lon="-3.371226"><ele>459</ele><time>2020-01-18T10:27:17Z</time><name>PT2455</name></trkpt>
<trkpt lat="52.864205" lon="-3.371227"><ele>459</ele><time>2020-01-18T10:27:19Z</time><name>PT2456</name></trkpt>
<trkpt lat="52.864211" lon="-3.371225"><ele>458</ele><time>2020-01-18T10:27:20Z</time><name>PT2457</name></trkpt>
<trkpt lat="52.864222" lon="-3.371224"><ele>458</ele><time>2020-01-18T10:27:21Z</time><name>PT2458</name></trkpt>
<trkpt lat="52.864232" lon="-3.371225"><ele>458</ele><time>2020-01-18T10:27:22Z</time><name>PT2459</name></trkpt>
<trkpt lat="52.864243" lon="-3.371228"><ele>458</ele><time>2020-01-18T10:27:23Z</time><name>PT2460</name></trkpt>
<trkpt lat="52.864250" lon="-3.371231"><ele>458</ele><time>2020-01-18T10:27:23Z</time><name>PT2461</name></trkpt>
<trkpt lat="52.864255" lon="-3.371232"><ele>458</ele><time>2020-01-18T10:27:25Z</time><name>PT2462</name></trkpt>
<trkpt lat="52.864259" lon="-3.371235"><ele>458</ele><time>2020-01-18T10:27:26Z</time><name>PT2463</name></trkpt>
<trkpt lat="52.864260" lon="-3.371244"><ele>460</ele><time>2020-01-18T10:27:27Z</time><name>PT2464</name></trkpt>
<trkpt lat="52.864260" lon="-3.371244"><ele>460</ele><time>2020-01-18T10:27:28Z</time><name>PT2465</name></trkpt>
<trkpt lat="52.864260" lon="-3.371246"><ele>460</ele><time>2020-01-18T10:27:29Z</time><name>PT2466</name></trkpt>
<trkpt lat="52.864262" lon="-3.371251"><ele>461</ele><time>2020-01-18T10:27:30Z</time><name>PT2467</name></trkpt>
<trkpt lat="52.864264" lon="-3.371251"><ele>461</ele><time>2020-01-18T10:27:31Z</time><name>PT2468</name></trkpt>
<trkpt lat="52.864271" lon="-3.371254"><ele>462</ele><time>2020-01-18T10:27:32Z</time><name>PT2469</name></trkpt>
<trkpt lat="52.864275" lon="-3.371256"><ele>462</ele><time>2020-01-18T10:27:33Z</time><name>PT2470</name></trkpt>
<trkpt lat="52.864282" lon="-3.371254"><ele>463</ele><time>2020-01-18T10:27:34Z</time><name>PT2471</name></trkpt>
<trkpt lat="52.864288" lon="-3.371252"><ele>463</ele><time>2020-01-18T10:27:35Z</time><name>PT2472</name></trkpt>
<trkpt lat="52.864295" lon="-3.371251"><ele>463</ele><time>2020-01-18T10:27:35Z</time><name>PT2473</name></trkpt>
<trkpt lat="52.864309" lon="-3.371249"><ele>463</ele><time>2020-01-18T10:27:37Z</time><name>PT2474</name></trkpt>
<trkpt lat="52.864321" lon="-3.371248"><ele>463</ele><time>2020-01-18T10:27:38Z</time><name>PT2475</name></trkpt>
<trkpt lat="52.864333" lon="-3.371247"><ele>463</ele><time>2020-01-18T10:27:38Z</time><name>PT2476</name></trkpt>
<trkpt lat="52.864343" lon="-3.371249"><ele>462</ele><time>2020-01-18T10:27:40Z</time><name>PT2477</name></trkpt>
<trkpt lat="52.864353" lon="-3.371250"><ele>461</ele><time>2020-01-18T10:27:41Z</time><name>PT2478</name></trkpt>
<trkpt lat="52.864369" lon="-3.371253"><ele>463</ele><time>2020-01-18T10:27:42Z</time><name>PT2479</name></trkpt>
<trkpt lat="52.864386" lon="-3.371256"><ele>464</ele><time>2020-01-18T10:27:43Z</time><name>PT2480</name></trkpt>
<trkpt lat="52.864394" lon="-3.371257"><ele>463</ele><time>2020-01-18T10:27:44Z</time><name>PT2481</name></trkpt>
<trkpt lat="52.864401" lon="-3.371258"><ele>463</ele><time>2020-01-18T10:27:44Z</time><name>PT2482</name></trkpt>
<trkpt lat="52.864408" lon="-3.371265"><ele>463</ele><time>2020-01-18T10:27:46Z</time><name>PT2483</name></trkpt>
<trkpt lat="52.864417" lon="-3.371276"><ele>462</ele><time>2020-01-18T10:27:47Z</time><name>PT2484</name></trkpt>
<trkpt lat="52.864426" lon="-3.371287"><ele>462</ele><time>2020-01-18T10:27:47Z</time><name>PT2485</name></trkpt>
<trkpt lat="52.864434" lon="-3.371283"><ele>462</ele><time>2020-01-18T10:27:49Z</time><name>PT2486</name></trkpt>
<trkpt lat="52.864443" lon="-3.371282"><ele>462</ele><time>2020-01-18T10:27:50Z</time><name>PT2487</name></trkpt>
<trkpt lat="52.864449" lon="-3.371281"><ele>463</ele><time>2020-01-18T10:27:50Z</time><name>PT2488</name></trkpt>
<trkpt lat="52.864456" lon="-3.371283"><ele>462</ele><time>2020-01-18T10:27:52Z</time><name>PT2489</name></trkpt>
<trkpt lat="52.864462" lon="-3.371282"><ele>462</ele><time>2020-01-18T10:27:53Z</time><name>PT2490</name></trkpt>
<trkpt lat="52.864468" lon="-3.371285"><ele>463</ele><time>2020-01-18T10:27:53Z</time><name>PT2491</name></trkpt>
<trkpt lat="52.864480" lon="-3.371286"><ele>463</ele><time>2020-01-18T10:27:55Z</time><name>PT2492</name></trkpt>
<trkpt lat="52.864490" lon="-3.371298"><ele>464</ele><time>2020-01-18T10:27:56Z</time><name>PT2493</name></trkpt>
<trkpt lat="52.864498" lon="-3.371305"><ele>464</ele><time>2020-01-18T10:27:57Z</time><name>PT2494</name></trkpt>
<trkpt lat="52.864511" lon="-3.371305"><ele>464</ele><time>2020-01-18T10:27:58Z</time><name>PT2495</name></trkpt>
<trkpt lat="52.864518" lon="-3.371311"><ele>464</ele><time>2020-01-18T10:27:59Z</time><name>PT2496</name></trkpt>
<trkpt lat="52.864528" lon="-3.371317"><ele>465</ele><time>2020-01-18T10:27:59Z</time><name>PT2497</name></trkpt>
<trkpt lat="52.864538" lon="-3.371325"><ele>465</ele><time>2020-01-18T10:28:01Z</time><name>PT2498</name></trkpt>
<trkpt lat="52.864547" lon="-3.371332"><ele>465</ele><time>2020-01-18T10:28:02Z</time><name>PT2499</name></trkpt>
<trkpt lat="52.864556" lon="-3.371339"><ele>466</ele><time>2020-01-18T10:28:02Z</time><name>PT2500</name></trkpt>
<trkpt lat="52.864570" lon="-3.371340"><ele>467</ele><time>2020-01-18T10:28:04Z</time><name>PT2501</name></trkpt>
<trkpt lat="52.864578" lon="-3.371339"><ele>468</ele><time>2020-01-18T10:28:05Z</time><name>PT2502</name></trkpt>
<trkpt lat="52.864586" lon="-3.371339"><ele>468</ele><time>2020-01-18T10:28:05Z</time><name>PT2503</name></trkpt>
<trkpt lat="52.864594" lon="-3.371345"><ele>468</ele><time>2020-01-18T10:28:07Z</time><name>PT2504</name></trkpt>
<trkpt lat="52.864600" lon="-3.371346"><ele>468</ele><time>2020-01-18T10:28:08Z</time><name>PT2505</name></trkpt>
<trkpt lat="52.864604" lon="-3.371342"><ele>468</ele><time>2020-01-18T10:28:08Z</time><name>PT2506</name></trkpt>
<trkpt lat="52.864608" lon="-3.371340"><ele>468</ele><time>2020-01-18T10:28:10Z</time><name>PT2507</name></trkpt>
<trkpt lat="52.864613" lon="-3.371347"><ele>468</ele><time>2020-01-18T10:28:11Z</time><name>PT2508</name></trkpt>
<trkpt lat="52.864621" lon="-3.371353"><ele>468</ele><time>2020-01-18T10:28:11Z</time><name>PT2509</name></trkpt>
<trkpt lat="52.864628" lon="-3.371343"><ele>468</ele><time>2020-01-18T10:28:13Z</time><name>PT2510</name></trkpt>
<trkpt lat="52.864639" lon="-3.371346"><ele>468</ele><time>2020-01-18T10:28:14Z</time><name>PT2511</name></trkpt>
<trkpt lat="52.864651" lon="-3.371352"><ele>469</ele><time>2020-01-18T10:28:14Z</time><name>PT2512</name></trkpt>
<trkpt lat="52.864661" lon="-3.371359"><ele>469</ele><time>2020-01-18T10:28:16Z</time><name>PT2513</name></trkpt>
<trkpt lat="52.864666" lon="-3.371357"><ele>467</ele><time>2020-01-18T10:28:17Z</time><name>PT2514</name></trkpt>
<trkpt lat="52.864676" lon="-3.371362"><ele>467</ele><time>2020-01-18T10:28:17Z</time><name>PT2515</name></trkpt>
<trkpt lat="52.864684" lon="-3.371369"><ele>468</ele><time>2020-01-18T10:28:19Z</time><name>PT2516</name></trkpt>
<trkpt lat="52.864689" lon="-3.371374"><ele>467</ele><time>2020-01-18T10:28:20Z</time><name>PT2517</name></trkpt>
<trkpt lat="52.864695" lon="-3.371383"><ele>467</ele><time>2020-01-18T10:28:20Z</time><name>PT2518</name></trkpt>
<trkpt lat="52.864705" lon="-3.371383"><ele>468</ele><time>2020-01-18T10:28:22Z</time><name>PT2519</name></trkpt>
<trkpt lat="52.864708" lon="-3.371382"><ele>467</ele><time>2020-01-18T10:28:23Z</time><name>PT2520</name></trkpt>
<trkpt lat="52.864716" lon="-3.371387"><ele>468</ele><time>2020-01-18T10:28:23Z</time><name>PT2521</name></trkpt>
<trkpt lat="52.864725" lon="-3.371387"><ele>468</ele><time>2020-01-18T10:28:25Z</time><name>PT2522</name></trkpt>
<trkpt lat="52.864731" lon="-3.371391"><ele>468</ele><time>2020-01-18T10:28:26Z</time><name>PT2523</name></trkpt>
<trkpt lat="52.864744" lon="-3.371396"><ele>469</ele><time>2020-01-18T10:28:26Z</time><name>PT2524</name></trkpt>
<trkpt lat="52.864756" lon="-3.371401"><ele>470</ele><time>2020-01-18T10:28:28Z</time><name>PT2525</name></trkpt>
<trkpt lat="52.864765" lon="-3.371405"><ele>470</ele><time>2020-01-18T10:28:29Z</time><name>PT2526</name></trkpt>
<trkpt lat="52.864771" lon="-3.371412"><ele>471</ele><time>2020-01-18T10:28:29Z</time><name>PT2527</name></trkpt>
<trkpt lat="52.864776" lon="-3.371416"><ele>471</ele><time>2020-01-18T10:28:31Z</time><name>PT2528</name></trkpt>
<trkpt lat="52.864782" lon="-3.371419"><ele>470</ele><time>2020-01-18T10:28:32Z</time><name>PT2529</name></trkpt>
<trkpt lat="52.864794" lon="-3.371424"><ele>470</ele><time>2020-01-18T10:28:32Z</time><name>PT2530</name></trkpt>
<trkpt lat="52.864802" lon="-3.371428"><ele>470</ele><time>2020-01-18T10:28:34Z</time><name>PT2531</name></trkpt>
<trkpt lat="52.864812" lon="-3.371432"><ele>470</ele><time>2020-01-18T10:28:35Z</time><name>PT2532</name></trkpt>
<trkpt lat="52.864822" lon="-3.371439"><ele>471</ele><time>2020-01-18T10:28:35Z</time><name>PT2533</name></trkpt>
<trkpt lat="52.864832" lon="-3.371446"><ele>471</ele><time>2020-01-18T10:28:37Z</time><name>PT2534</name></trkpt>
<trkpt lat="52.864842" lon="-3.371453"><ele>471</ele><time>2020-01-18T10:28:38Z</time><name>PT2535</name></trkpt>
<trkpt lat="52.864850" lon="-3.371458"><ele>471</ele><time>2020-01-18T10:28:38Z</time><name>PT2536</name></trkpt>
<trkpt lat="52.864858" lon="-3.371464"><ele>471</ele><time>2020-01-18T10:28:40Z</time><name>PT2537</name></trkpt>
<trkpt lat="52.864867" lon="-3.371462"><ele>471</ele><time>2020-01-18T10:28:41Z</time><name>PT2538</name></trkpt>
<trkpt lat="52.864878" lon="-3.371470"><ele>472</ele><time>2020-01-18T10:28:41Z</time><name>PT2539</name></trkpt>
<trkpt lat="52.864888" lon="-3.371477"><ele>472</ele><time>2020-01-18T10:28:43Z</time><name>PT2540</name></trkpt>
<trkpt lat="52.864898" lon="-3.371483"><ele>472</ele><time>2020-01-18T10:28:44Z</time><name>PT2541</name></trkpt>
<trkpt lat="52.864906" lon="-3.371480"><ele>471</ele><time>2020-01-18T10:28:44Z</time><name>PT2542</name></trkpt>
<trkpt lat="52.864915" lon="-3.371484"><ele>471</ele><time>2020-01-18T10:28:46Z</time><name>PT2543</name></trkpt>
<trkpt lat="52.864926" lon="-3.371490"><ele>471</ele><time>2020-01-18T10:28:47Z</time><name>PT2544</name></trkpt>
<trkpt lat="52.864933" lon="-3.371492"><ele>470</ele><time>2020-01-18T10:28:48Z</time><name>PT2545</name></trkpt>
<trkpt lat="52.864940" lon="-3.371498"><ele>470</ele><time>2020-01-18T10:28:49Z</time><name>PT2546</name></trkpt>
<trkpt lat="52.864950" lon="-3.371499"><ele>470</ele><time>2020-01-18T10:28:50Z</time><name>PT2547</name></trkpt>
<trkpt lat="52.864958" lon="-3.371508"><ele>471</ele><time>2020-01-18T10:28:51Z</time><name>PT2548</name></trkpt>
<trkpt lat="52.864968" lon="-3.371515"><ele>471</ele><time>2020-01-18T10:28:52Z</time><name>PT2549</name></trkpt>
<trkpt lat="52.864974" lon="-3.371516"><ele>471</ele><time>2020-01-18T10:28:53Z</time><name>PT2550</name></trkpt>
<trkpt lat="52.864981" lon="-3.371516"><ele>471</ele><time>2020-01-18T10:28:54Z</time><name>PT2551</name></trkpt>
<trkpt lat="52.864985" lon="-3.371517"><ele>470</ele><time>2020-01-18T10:28:55Z</time><name>PT2552</name></trkpt>
<trkpt lat="52.864995" lon="-3.371523"><ele>470</ele><time>2020-01-18T10:28:56Z</time><name>PT2553</name></trkpt>
<trkpt lat="52.865005" lon="-3.371528"><ele>470</ele><time>2020-01-18T10:28:57Z</time><name>PT2554</name></trkpt>
<trkpt lat="52.865005" lon="-3.371529"><ele>471</ele><time>2020-01-18T10:28:58Z</time><name>PT2555</name></trkpt>
<trkpt lat="52.865008" lon="-3.371530"><ele>472</ele><time>2020-01-18T10:28:59Z</time><name>PT2556</name></trkpt>
<trkpt lat="52.865020" lon="-3.371537"><ele>472</ele><time>2020-01-18T10:29:00Z</time><name>PT2557</name></trkpt>
<trkpt lat="52.865031" lon="-3.371541"><ele>472</ele><time>2020-01-18T10:29:01Z</time><name>PT2558</name></trkpt>
<trkpt lat="52.865037" lon="-3.371544"><ele>472</ele><time>2020-01-18T10:29:02Z</time><name>PT2559</name></trkpt>
<trkpt lat="52.865047" lon="-3.371548"><ele>472</ele><time>2020-01-18T10:29:02Z</time><name>PT2560</name></trkpt>
<trkpt lat="52.865054" lon="-3.371549"><ele>472</ele><time>2020-01-18T10:29:04Z</time><name>PT2561</name></trkpt>
<trkpt lat="52.865064" lon="-3.371554"><ele>472</ele><time>2020-01-18T10:29:05Z</time><name>PT2562</name></trkpt>
<trkpt lat="52.865073" lon="-3.371560"><ele>472</ele><time>2020-01-18T10:29:05Z</time><name>PT2563</name></trkpt>
<trkpt lat="52.865085" lon="-3.371567"><ele>473</ele><time>2020-01-18T10:29:07Z</time><name>PT2564</name></trkpt>
<trkpt lat="52.865096" lon="-3.371574"><ele>473</ele><time>2020-01-18T10:29:08Z</time><name>PT2565</name></trkpt>
<trkpt lat="52.865107" lon="-3.371581"><ele>474</ele><time>2020-01-18T10:29:08Z</time><name>PT2566</name></trkpt>
<trkpt lat="52.865115" lon="-3.371591"><ele>474</ele><time>2020-01-18T10:29:10Z</time><name>PT2567</name></trkpt>
<trkpt lat="52.865124" lon="-3.371596"><ele>474</ele><time>2020-01-18T10:29:11Z</time><name>PT2568</name></trkpt>
<trkpt lat="52.865134" lon="-3.371604"><ele>474</ele><time>2020-01-18T10:29:11Z</time><name>PT2569</name></trkpt>
<trkpt lat="52.865143" lon="-3.371611"><ele>474</ele><time>2020-01-18T10:29:13Z</time><name>PT2570</name></trkpt>
<trkpt lat="52.865153" lon="-3.371618"><ele>475</ele><time>2020-01-18T10:29:14Z</time><name>PT2571</name></trkpt>
<trkpt lat="52.865163" lon="-3.371625"><ele>475</ele><time>2020-01-18T10:29:15Z</time><name>PT2572</name></trkpt>
<trkpt lat="52.865175" lon="-3.371624"><ele>475</ele><time>2020-01-18T10:29:16Z</time><name>PT2573</name></trkpt>
<trkpt lat="52.865186" lon="-3.371625"><ele>476</ele><time>2020-01-18T10:29:17Z</time><name>PT2574</name></trkpt>
<trkpt lat="52.865195" lon="-3.371630"><ele>475</ele><time>2020-01-18T10:29:17Z</time><name>PT2575</name></trkpt>
<trkpt lat="52.865204" lon="-3.371640"><ele>475</ele><time>2020-01-18T10:29:19Z</time><name>PT2576</name></trkpt>
<trkpt lat="52.865210" lon="-3.371648"><ele>475</ele><time>2020-01-18T10:29:20Z</time><name>PT2577</name></trkpt>
<trkpt lat="52.865213" lon="-3.371645"><ele>474</ele><time>2020-01-18T10:29:20Z</time><name>PT2578</name></trkpt>
<trkpt lat="52.865219" lon="-3.371648"><ele>474</ele><time>2020-01-18T10:29:22Z</time><name>PT2579</name></trkpt>
<trkpt lat="52.865225" lon="-3.371650"><ele>474</ele><time>2020-01-18T10:29:23Z</time><name>PT2580</name></trkpt>
<trkpt lat="52.865232" lon="-3.371654"><ele>474</ele><time>2020-01-18T10:29:23Z</time><name>PT2581</name></trkpt>
<trkpt lat="52.865240" lon="-3.371663"><ele>473</ele><time>2020-01-18T10:29:25Z</time><name>PT2582</name></trkpt>
<trkpt lat="52.865250" lon="-3.371671"><ele>474</ele><time>2020-01-18T10:29:26Z</time><name>PT2583</name></trkpt>
<trkpt lat="52.865257" lon="-3.371678"><ele>474</ele><time>2020-01-18T10:29:26Z</time><name>PT2584</name></trkpt>
<trkpt lat="52.865265" lon="-3.371682"><ele>474</ele><time>2020-01-18T10:29:28Z</time><name>PT2585</name></trkpt>
<trkpt lat="52.865275" lon="-3.371690"><ele>475</ele><time>2020-01-18T10:29:29Z</time><name>PT2586</name></trkpt>
<trkpt lat="52.865282" lon="-3.371700"><ele>475</ele><time>2020-01-18T10:29:29Z</time><name>PT2587</name></trkpt>
<trkpt lat="52.865295" lon="-3.371710"><ele>476</ele><time>2020-01-18T10:29:31Z</time><name>PT2588</name></trkpt>
<trkpt lat="52.865300" lon="-3.371713"><ele>475</ele><time>2020-01-18T10:29:32Z</time><name>PT2589</name></trkpt>
<trkpt lat="52.865302" lon="-3.371716"><ele>475</ele><time>2020-01-18T10:29:33Z</time><name>PT2590</name></trkpt>
<trkpt lat="52.865311" lon="-3.371722"><ele>475</ele><time>2020-01-18T10:29:34Z</time><name>PT2591</name></trkpt>
<trkpt lat="52.865320" lon="-3.371723"><ele>475</ele><time>2020-01-18T10:29:35Z</time><name>PT2592</name></trkpt>
<trkpt lat="52.865331" lon="-3.371729"><ele>475</ele><time>2020-01-18T10:29:36Z</time><name>PT2593</name></trkpt>
<trkpt lat="52.865340" lon="-3.371728"><ele>475</ele><time>2020-01-18T10:29:37Z</time><name>PT2594</name></trkpt>
<trkpt lat="52.865348" lon="-3.371734"><ele>475</ele><time>2020-01-18T10:29:38Z</time><name>PT2595</name></trkpt>
<trkpt lat="52.865360" lon="-3.371740"><ele>475</ele><time>2020-01-18T10:29:39Z</time><name>PT2596</name></trkpt>
<trkpt lat="52.865368" lon="-3.371744"><ele>474</ele><time>2020-01-18T10:29:40Z</time><name>PT2597</name></trkpt>
<trkpt lat="52.865376" lon="-3.371755"><ele>476</ele><time>2020-01-18T10:29:41Z</time><name>PT2598</name></trkpt>
<trkpt lat="52.865385" lon="-3.371757"><ele>475</ele><time>2020-01-18T10:29:42Z</time><name>PT2599</name></trkpt>
<trkpt lat="52.865393" lon="-3.371766"><ele>475</ele><time>2020-01-18T10:29:43Z</time><name>PT2600</name></trkpt>
<trkpt lat="52.865403" lon="-3.371776"><ele>475</ele><time>2020-01-18T10:29:44Z</time><name>PT2601</name></trkpt>
<trkpt lat="52.865415" lon="-3.371784"><ele>476</ele><time>2020-01-18T10:29:45Z</time><name>PT2602</name></trkpt>
<trkpt lat="52.865424" lon="-3.371786"><ele>476</ele><time>2020-01-18T10:29:46Z</time><name>PT2603</name></trkpt>
<trkpt lat="52.865437" lon="-3.371783"><ele>476</ele><time>2020-01-18T10:29:47Z</time><name>PT2604</name></trkpt>
<trkpt lat="52.865448" lon="-3.371787"><ele>476</ele><time>2020-01-18T10:29:48Z</time><name>PT2605</name></trkpt>
<trkpt lat="52.865459" lon="-3.371789"><ele>476</ele><time>2020-01-18T10:29:49Z</time><name>PT2606</name></trkpt>
<trkpt lat="52.865473" lon="-3.371793"><ele>476</ele><time>2020-01-18T10:29:50Z</time><name>PT2607</name></trkpt>
<trkpt lat="52.865486" lon="-3.371797"><ele>476</ele><time>2020-01-18T10:29:51Z</time><name>PT2608</name></trkpt>
<trkpt lat="52.865497" lon="-3.371795"><ele>476</ele><time>2020-01-18T10:29:52Z</time><name>PT2609</name></trkpt>
<trkpt lat="52.865505" lon="-3.371795"><ele>476</ele><time>2020-01-18T10:29:53Z</time><name>PT2610</name></trkpt>
<trkpt lat="52.865514" lon="-3.371795"><ele>475</ele><time>2020-01-18T10:29:53Z</time><name>PT2611</name></trkpt>
<trkpt lat="52.865525" lon="-3.371798"><ele>476</ele><time>2020-01-18T10:29:55Z</time><name>PT2612</name></trkpt>
<trkpt lat="52.865535" lon="-3.371805"><ele>476</ele><time>2020-01-18T10:29:56Z</time><name>PT2613</name></trkpt>
<trkpt lat="52.865546" lon="-3.371811"><ele>476</ele><time>2020-01-18T10:29:56Z</time><name>PT2614</name></trkpt>
<trkpt lat="52.865557" lon="-3.371819"><ele>477</ele><time>2020-01-18T10:29:58Z</time><name>PT2615</name></trkpt>
<trkpt lat="52.865564" lon="-3.371828"><ele>477</ele><time>2020-01-18T10:29:59Z</time><name>PT2616</name></trkpt>
<trkpt lat="52.865573" lon="-3.371837"><ele>477</ele><time>2020-01-18T10:29:59Z</time><name>PT2617</name></trkpt>
<trkpt lat="52.865581" lon="-3.371836"><ele>477</ele><time>2020-01-18T10:30:01Z</time><name>PT2618</name></trkpt>
<trkpt lat="52.865589" lon="-3.371841"><ele>477</ele><time>2020-01-18T10:30:02Z</time><name>PT2619</name></trkpt>
<trkpt lat="52.865597" lon="-3.371848"><ele>478</ele><time>2020-01-18T10:30:02Z</time><name>PT2620</name></trkpt>
<trkpt lat="52.865604" lon="-3.371852"><ele>478</ele><time>2020-01-18T10:30:04Z</time><name>PT2621</name></trkpt>
<trkpt lat="52.865612" lon="-3.371856"><ele>479</ele><time>2020-01-18T10:30:05Z</time><name>PT2622</name></trkpt>
<trkpt lat="52.865624" lon="-3.371861"><ele>479</ele><time>2020-01-18T10:30:05Z</time><name>PT2623</name></trkpt>
<trkpt lat="52.865632" lon="-3.371867"><ele>479</ele><time>2020-01-18T10:30:07Z</time><name>PT2624</name></trkpt>
<trkpt lat="52.865639" lon="-3.371871"><ele>479</ele><time>2020-01-18T10:30:08Z</time><name>PT2625</name></trkpt>
<trkpt lat="52.865648" lon="-3.371874"><ele>480</ele><time>2020-01-18T10:30:08Z</time><name>PT2626</name></trkpt>
<trkpt lat="52.865655" lon="-3.371879"><ele>479</ele><time>2020-01-18T10:30:10Z</time><name>PT2627</name></trkpt>
<trkpt lat="52.865663" lon="-3.371888"><ele>480</ele><time>2020-01-18T10:30:11Z</time><name>PT2628</name></trkpt>
<trkpt lat="52.865672" lon="-3.371895"><ele>480</ele><time>2020-01-18T10:30:11Z</time><name>PT2629</name></trkpt>
<trkpt lat="52.865680" lon="-3.371898"><ele>479</ele><time>2020-01-18T10:30:13Z</time><name>PT2630</name></trkpt>
<trkpt lat="52.865688" lon="-3.371902"><ele>479</ele><time>2020-01-18T10:30:14Z</time><name>PT2631</name></trkpt>
<trkpt lat="52.865695" lon="-3.371906"><ele>479</ele><time>2020-01-18T10:30:15Z</time><name>PT2632</name></trkpt>
<trkpt lat="52.865705" lon="-3.371911"><ele>480</ele><time>2020-01-18T10:30:16Z</time><name>PT2633</name></trkpt>
<trkpt lat="52.865712" lon="-3.371920"><ele>480</ele><time>2020-01-18T10:30:17Z</time><name>PT2634</name></trkpt>
<trkpt lat="52.865721" lon="-3.371925"><ele>480</ele><time>2020-01-18T10:30:18Z</time><name>PT2635</name></trkpt>
<trkpt lat="52.865733" lon="-3.371932"><ele>481</ele><time>2020-01-18T10:30:19Z</time><name>PT2636</name></trkpt>
<trkpt lat="52.865743" lon="-3.371939"><ele>481</ele><time>2020-01-18T10:30:20Z</time><name>PT2637</name></trkpt>
<trkpt lat="52.865756" lon="-3.371945"><ele>481</ele><time>2020-01-18T10:30:21Z</time><name>PT2638</name></trkpt>
<trkpt lat="52.865765" lon="-3.371951"><ele>482</ele><time>2020-01-18T10:30:22Z</time><name>PT2639</name></trkpt>
<trkpt lat="52.865773" lon="-3.371958"><ele>482</ele><time>2020-01-18T10:30:23Z</time><name>PT2640</name></trkpt>
<trkpt lat="52.865782" lon="-3.371966"><ele>481</ele><time>2020-01-18T10:30:24Z</time><name>PT2641</name></trkpt>
<trkpt lat="52.865790" lon="-3.371972"><ele>481</ele><time>2020-01-18T10:30:25Z</time><name>PT2642</name></trkpt>
<trkpt lat="52.865799" lon="-3.371975"><ele>481</ele><time>2020-01-18T10:30:26Z</time><name>PT2643</name></trkpt>
<trkpt lat="52.865807" lon="-3.371982"><ele>481</ele><time>2020-01-18T10:30:26Z</time><name>PT2644</name></trkpt>
<trkpt lat="52.865814" lon="-3.371985"><ele>481</ele><time>2020-01-18T10:30:28Z</time><name>PT2645</name></trkpt>
<trkpt lat="52.865823" lon="-3.371989"><ele>481</ele><time>2020-01-18T10:30:29Z</time><name>PT2646</name></trkpt>
<trkpt lat="52.865833" lon="-3.371991"><ele>481</ele><time>2020-01-18T10:30:29Z</time><name>PT2647</name></trkpt>
<trkpt lat="52.865841" lon="-3.371989"><ele>481</ele><time>2020-01-18T10:30:31Z</time><name>PT2648</name></trkpt>
<trkpt lat="52.865851" lon="-3.371989"><ele>481</ele><time>2020-01-18T10:30:32Z</time><name>PT2649</name></trkpt>
<trkpt lat="52.865861" lon="-3.371992"><ele>481</ele><time>2020-01-18T10:30:32Z</time><name>PT2650</name></trkpt>
<trkpt lat="52.865874" lon="-3.371996"><ele>480</ele><time>2020-01-18T10:30:34Z</time><name>PT2651</name></trkpt>
<trkpt lat="52.865880" lon="-3.372015"><ele>483</ele><time>2020-01-18T10:30:35Z</time><name>PT2652</name></trkpt>
<trkpt lat="52.865885" lon="-3.372018"><ele>482</ele><time>2020-01-18T10:30:35Z</time><name>PT2653</name></trkpt>
<trkpt lat="52.865896" lon="-3.372016"><ele>482</ele><time>2020-01-18T10:30:37Z</time><name>PT2654</name></trkpt>
<trkpt lat="52.865911" lon="-3.372010"><ele>481</ele><time>2020-01-18T10:30:38Z</time><name>PT2655</name></trkpt>
<trkpt lat="52.865924" lon="-3.372014"><ele>483</ele><time>2020-01-18T10:30:38Z</time><name>PT2656</name></trkpt>
<trkpt lat="52.865932" lon="-3.372014"><ele>482</ele><time>2020-01-18T10:30:40Z</time><name>PT2657</name></trkpt>
<trkpt lat="52.865939" lon="-3.372015"><ele>482</ele><time>2020-01-18T10:30:41Z</time><name>PT2658</name></trkpt>
<trkpt lat="52.865944" lon="-3.372019"><ele>482</ele><time>2020-01-18T10:30:41Z</time><name>PT2659</name></trkpt>
<trkpt lat="52.865951" lon="-3.372020"><ele>482</ele><time>2020-01-18T10:30:43Z</time><name>PT2660</name></trkpt>
<trkpt lat="52.865962" lon="-3.372024"><ele>482</ele><time>2020-01-18T10:30:44Z</time><name>PT2661</name></trkpt>
<trkpt lat="52.865974" lon="-3.372032"><ele>483</ele><time>2020-01-18T10:30:44Z</time><name>PT2662</name></trkpt>
<trkpt lat="52.865985" lon="-3.372036"><ele>483</ele><time>2020-01-18T10:30:46Z</time><name>PT2663</name></trkpt>
<trkpt lat="52.865993" lon="-3.372042"><ele>483</ele><time>2020-01-18T10:30:47Z</time><name>PT2664</name></trkpt>
<trkpt lat="52.866006" lon="-3.372050"><ele>484</ele><time>2020-01-18T10:30:48Z</time><name>PT2665</name></trkpt>
<trkpt lat="52.866016" lon="-3.372055"><ele>484</ele><time>2020-01-18T10:30:49Z</time><name>PT2666</name></trkpt>
<trkpt lat="52.866024" lon="-3.372053"><ele>485</ele><time>2020-01-18T10:30:50Z</time><name>PT2667</name></trkpt>
<trkpt lat="52.866029" lon="-3.372050"><ele>484</ele><time>2020-01-18T10:30:50Z</time><name>PT2668</name></trkpt>
<trkpt lat="52.866038" lon="-3.372057"><ele>484</ele><time>2020-01-18T10:30:52Z</time><name>PT2669</name></trkpt>
<trkpt lat="52.866045" lon="-3.372064"><ele>484</ele><time>2020-01-18T10:30:53Z</time><name>PT2670</name></trkpt>
<trkpt lat="52.866054" lon="-3.372071"><ele>485</ele><time>2020-01-18T10:30:53Z</time><name>PT2671</name></trkpt>
<trkpt lat="52.866064" lon="-3.372074"><ele>485</ele><time>2020-01-18T10:30:55Z</time><name>PT2672</name></trkpt>
<trkpt lat="52.866077" lon="-3.372075"><ele>485</ele><time>2020-01-18T10:30:56Z</time><name>PT2673</name></trkpt>
<trkpt lat="52.866090" lon="-3.372080"><ele>484</ele><time>2020-01-18T10:30:56Z</time><name>PT2674</name></trkpt>
<trkpt lat="52.866100" lon="-3.372086"><ele>485</ele><time>2020-01-18T10:30:58Z</time><name>PT2675</name></trkpt>
<trkpt lat="52.866108" lon="-3.372085"><ele>485</ele><time>2020-01-18T10:30:59Z</time><name>PT2676</name></trkpt>
<trkpt lat="52.866117" lon="-3.372087"><ele>485</ele><time>2020-01-18T10:31:00Z</time><name>PT2677</name></trkpt>
<trkpt lat="52.866132" lon="-3.372086"><ele>486</ele><time>2020-01-18T10:31:01Z</time><name>PT2678</name></trkpt>
<trkpt lat="52.866141" lon="-3.372087"><ele>487</ele><time>2020-01-18T10:31:02Z</time><name>PT2679</name></trkpt>
<trkpt lat="52.866151" lon="-3.372093"><ele>487</ele><time>2020-01-18T10:31:02Z</time><name>PT2680</name></trkpt>
<trkpt lat="52.866153" lon="-3.372102"><ele>487</ele><time>2020-01-18T10:31:04Z</time><name>PT2681</name></trkpt>
<trkpt lat="52.866162" lon="-3.372104"><ele>487</ele><time>2020-01-18T10:31:05Z</time><name>PT2682</name></trkpt>
<trkpt lat="52.866175" lon="-3.372100"><ele>487</ele><time>2020-01-18T10:31:05Z</time><name>PT2683</name></trkpt>
<trkpt lat="52.866186" lon="-3.372092"><ele>487</ele><time>2020-01-18T10:31:07Z</time><name>PT2684</name></trkpt>
<trkpt lat="52.866196" lon="-3.372083"><ele>487</ele><time>2020-01-18T10:31:08Z</time><name>PT2685</name></trkpt>
<trkpt lat="52.866202" lon="-3.372079"><ele>487</ele><time>2020-01-18T10:31:08Z</time><name>PT2686</name></trkpt>
<trkpt lat="52.866211" lon="-3.372070"><ele>487</ele><time>2020-01-18T10:31:10Z</time><name>PT2687</name></trkpt>
<trkpt lat="52.866218" lon="-3.372063"><ele>486</ele><time>2020-01-18T10:31:11Z</time><name>PT2688</name></trkpt>
<trkpt lat="52.866226" lon="-3.372059"><ele>487</ele><time>2020-01-18T10:31:11Z</time><name>PT2689</name></trkpt>
<trkpt lat="52.866234" lon="-3.372054"><ele>487</ele><time>2020-01-18T10:31:13Z</time><name>PT2690</name></trkpt>
<trkpt lat="52.866240" lon="-3.372047"><ele>486</ele><time>2020-01-18T10:31:14Z</time><name>PT2691</name></trkpt>
<trkpt lat="52.866242" lon="-3.372047"><ele>485</ele><time>2020-01-18T10:31:14Z</time><name>PT2692</name></trkpt>
<trkpt lat="52.866245" lon="-3.372048"><ele>485</ele><time>2020-01-18T10:31:16Z</time><name>PT2693</name></trkpt>
<trkpt lat="52.866250" lon="-3.372046"><ele>486</ele><time>2020-01-18T10:31:17Z</time><name>PT2694</name></trkpt>
<trkpt lat="52.866256" lon="-3.372047"><ele>486</ele><time>2020-01-18T10:31:17Z</time><name>PT2695</name></trkpt>
<trkpt lat="52.866261" lon="-3.372048"><ele>486</ele><time>2020-01-18T10:31:19Z</time><name>PT2696</name></trkpt>
<trkpt lat="52.866266" lon="-3.372047"><ele>486</ele><time>2020-01-18T10:31:20Z</time><name>PT2697</name></trkpt>
<trkpt lat="52.866275" lon="-3.372049"><ele>486</ele><time>2020-01-18T10:31:20Z</time><name>PT2698</name></trkpt>
<trkpt lat="52.866283" lon="-3.372054"><ele>486</ele><time>2020-01-18T10:31:22Z</time><name>PT2699</name></trkpt>
<trkpt lat="52.866294" lon="-3.372055"><ele>485</ele><time>2020-01-18T10:31:23Z</time><name>PT2700</name></trkpt>
<trkpt lat="52.866308" lon="-3.372052"><ele>486</ele><time>2020-01-18T10:31:23Z</time><name>PT2701</name></trkpt>
<trkpt lat="52.866316" lon="-3.372055"><ele>486</ele><time>2020-01-18T10:31:25Z</time><name>PT2702</name></trkpt>
<trkpt lat="52.866315" lon="-3.372063"><ele>486</ele><time>2020-01-18T10:31:26Z</time><name>PT2703</name></trkpt>
<trkpt lat="52.866321" lon="-3.372071"><ele>486</ele><time>2020-01-18T10:31:26Z</time><name>PT2704</name></trkpt>
<trkpt lat="52.866329" lon="-3.372076"><ele>486</ele><time>2020-01-18T10:31:28Z</time><name>PT2705</name></trkpt>
<trkpt lat="52.866338" lon="-3.372088"><ele>486</ele><time>2020-01-18T10:31:29Z</time><name>PT2706</name></trkpt>
<trkpt lat="52.866347" lon="-3.372100"><ele>486</ele><time>2020-01-18T10:31:29Z</time><name>PT2707</name></trkpt>
<trkpt lat="52.866351" lon="-3.372104"><ele>486</ele><time>2020-01-18T10:31:31Z</time><name>PT2708</name></trkpt>
<trkpt lat="52.866356" lon="-3.372114"><ele>486</ele><time>2020-01-18T10:31:32Z</time><name>PT2709</name></trkpt>
<trkpt lat="52.866361" lon="-3.372127"><ele>486</ele><time>2020-01-18T10:31:32Z</time><name>PT2710</name></trkpt>
<trkpt lat="52.866365" lon="-3.372144"><ele>486</ele><time>2020-01-18T10:31:34Z</time><name>PT2711</name></trkpt>
<trkpt lat="52.866368" lon="-3.372161"><ele>486</ele><time>2020-01-18T10:31:35Z</time><name>PT2712</name></trkpt>
<trkpt lat="52.866372" lon="-3.372176"><ele>486</ele><time>2020-01-18T10:31:35Z</time><name>PT2713</name></trkpt>
<trkpt lat="52.866377" lon="-3.372188"><ele>486</ele><time>2020-01-18T10:31:37Z</time><name>PT2714</name></trkpt>
<trkpt lat="52.866383" lon="-3.372199"><ele>486</ele><time>2020-01-18T10:31:38Z</time><name>PT2715</name></trkpt>
<trkpt lat="52.866393" lon="-3.372202"><ele>486</ele><time>2020-01-18T10:31:38Z</time><name>PT2716</name></trkpt>
<trkpt lat="52.866404" lon="-3.372208"><ele>486</ele><time>2020-01-18T10:31:40Z</time><name>PT2717</name></trkpt>
<trkpt lat="52.866413" lon="-3.372216"><ele>486</ele><time>2020-01-18T10:31:41Z</time><name>PT2718</name></trkpt>
<trkpt lat="52.866422" lon="-3.372230"><ele>485</ele><time>2020-01-18T10:31:41Z</time><name>PT2719</name></trkpt>
<trkpt lat="52.866433" lon="-3.372247"><ele>486</ele><time>2020-01-18T10:31:43Z</time><name>PT2720</name></trkpt>
<trkpt lat="52.866443" lon="-3.372261"><ele>486</ele><time>2020-01-18T10:31:44Z</time><name>PT2721</name></trkpt>
<trkpt lat="52.866452" lon="-3.372270"><ele>486</ele><time>2020-01-18T10:31:45Z</time><name>PT2722</name></trkpt>
<trkpt lat="52.866462" lon="-3.372276"><ele>486</ele><time>2020-01-18T10:31:46Z</time><name>PT2723</name></trkpt>
<trkpt lat="52.866473" lon="-3.372284"><ele>486</ele><time>2020-01-18T10:31:47Z</time><name>PT2724</name></trkpt>
<trkpt lat="52.866481" lon="-3.372294"><ele>486</ele><time>2020-01-18T10:31:47Z</time><name>PT2725</name></trkpt>
<trkpt lat="52.866490" lon="-3.372304"><ele>486</ele><time>2020-01-18T10:31:49Z</time><name>PT2726</name></trkpt>
<trkpt lat="52.866502" lon="-3.372316"><ele>486</ele><time>2020-01-18T10:31:50Z</time><name>PT2727</name></trkpt>
<trkpt lat="52.866514" lon="-3.372325"><ele>486</ele><time>2020-01-18T10:31:50Z</time><name>PT2728</name></trkpt>
<trkpt lat="52.866524" lon="-3.372337"><ele>487</ele><time>2020-01-18T10:31:52Z</time><name>PT2729</name></trkpt>
<trkpt lat="52.866533" lon="-3.372347"><ele>486</ele><time>2020-01-18T10:31:53Z</time><name>PT2730</name></trkpt>
<trkpt lat="52.866544" lon="-3.372359"><ele>486</ele><time>2020-01-18T10:31:53Z</time><name>PT2731</name></trkpt>
<trkpt lat="52.866554" lon="-3.372365"><ele>486</ele><time>2020-01-18T10:31:55Z</time><name>PT2732</name></trkpt>
<trkpt lat="52.866566" lon="-3.372370"><ele>486</ele><time>2020-01-18T10:31:56Z</time><name>PT2733</name></trkpt>
<trkpt lat="52.866574" lon="-3.372380"><ele>486</ele><time>2020-01-18T10:31:56Z</time><name>PT2734</name></trkpt>
<trkpt lat="52.866585" lon="-3.372384"><ele>486</ele><time>2020-01-18T10:31:58Z</time><name>PT2735</name></trkpt>
<trkpt lat="52.866593" lon="-3.372398"><ele>486</ele><time>2020-01-18T10:31:59Z</time><name>PT2736</name></trkpt>
<trkpt lat="52.866603" lon="-3.372411"><ele>486</ele><time>2020-01-18T10:31:59Z</time><name>PT2737</name></trkpt>
<trkpt lat="52.866608" lon="-3.372421"><ele>486</ele><time>2020-01-18T10:32:01Z</time><name>PT2738</name></trkpt>
<trkpt lat="52.866615" lon="-3.372435"><ele>487</ele><time>2020-01-18T10:32:02Z</time><name>PT2739</name></trkpt>
<trkpt lat="52.866623" lon="-3.372444"><ele>487</ele><time>2020-01-18T10:32:02Z</time><name>PT2740</name></trkpt>
<trkpt lat="52.866629" lon="-3.372454"><ele>488</ele><time>2020-01-18T10:32:04Z</time><name>PT2741</name></trkpt>
<trkpt lat="52.866638" lon="-3.372458"><ele>488</ele><time>2020-01-18T10:32:05Z</time><name>PT2742</name></trkpt>
<trkpt lat="52.866647" lon="-3.372468"><ele>488</ele><time>2020-01-18T10:32:05Z</time><name>PT2743</name></trkpt>
<trkpt lat="52.866655" lon="-3.372475"><ele>488</ele><time>2020-01-18T10:32:07Z</time><name>PT2744</name></trkpt>
<trkpt lat="52.866665" lon="-3.372488"><ele>488</ele><time>2020-01-18T10:32:08Z</time><name>PT2745</name></trkpt>
<trkpt lat="52.866675" lon="-3.372495"><ele>488</ele><time>2020-01-18T10:32:09Z</time><name>PT2746</name></trkpt>
<trkpt lat="52.866686" lon="-3.372500"><ele>489</ele><time>2020-01-18T10:32:10Z</time><name>PT2747</name></trkpt>
<trkpt lat="52.866697" lon="-3.372503"><ele>489</ele><time>2020-01-18T10:32:11Z</time><name>PT2748</name></trkpt>
<trkpt lat="52.866705" lon="-3.372506"><ele>489</ele><time>2020-01-18T10:32:11Z</time><name>PT2749</name></trkpt>
<trkpt lat="52.866712" lon="-3.372514"><ele>488</ele><time>2020-01-18T10:32:13Z</time><name>PT2750</name></trkpt>
<trkpt lat="52.866719" lon="-3.372523"><ele>488</ele><time>2020-01-18T10:32:14Z</time><name>PT2751</name></trkpt>
<trkpt lat="52.866728" lon="-3.372525"><ele>488</ele><time>2020-01-18T10:32:15Z</time><name>PT2752</name></trkpt>
<trkpt lat="52.866739" lon="-3.372534"><ele>488</ele><time>2020-01-18T10:32:16Z</time><name>PT2753</name></trkpt>
<trkpt lat="52.866744" lon="-3.372539"><ele>487</ele><time>2020-01-18T10:32:17Z</time><name>PT2754</name></trkpt>
<trkpt lat="52.866750" lon="-3.372552"><ele>487</ele><time>2020-01-18T10:32:18Z</time><name>PT2755</name></trkpt>
<trkpt lat="52.866758" lon="-3.372565"><ele>487</ele><time>2020-01-18T10:32:19Z</time><name>PT2756</name></trkpt>
<trkpt lat="52.866769" lon="-3.372575"><ele>486</ele><time>2020-01-18T10:32:20Z</time><name>PT2757</name></trkpt>
<trkpt lat="52.866778" lon="-3.372585"><ele>486</ele><time>2020-01-18T10:32:20Z</time><name>PT2758</name></trkpt>
<trkpt lat="52.866788" lon="-3.372588"><ele>486</ele><time>2020-01-18T10:32:22Z</time><name>PT2759</name></trkpt>
<trkpt lat="52.866796" lon="-3.372596"><ele>486</ele><time>2020-01-18T10:32:23Z</time><name>PT2760</name></trkpt>
<trkpt lat="52.866805" lon="-3.372609"><ele>486</ele><time>2020-01-18T10:32:24Z</time><name>PT2761</name></trkpt>
<trkpt lat="52.866814" lon="-3.372622"><ele>486</ele><time>2020-01-18T10:32:25Z</time><name>PT2762</name></trkpt>
<trkpt lat="52.866820" lon="-3.372632"><ele>487</ele><time>2020-01-18T10:32:26Z</time><name>PT2763</name></trkpt>
<trkpt lat="52.866827" lon="-3.372635"><ele>487</ele><time>2020-01-18T10:32:27Z</time><name>PT2764</name></trkpt>
<trkpt lat="52.866834" lon="-3.372648"><ele>488</ele><time>2020-01-18T10:32:28Z</time><name>PT2765</name></trkpt>
<trkpt lat="52.866843" lon="-3.372662"><ele>488</ele><time>2020-01-18T10:32:29Z</time><name>PT2766</name></trkpt>
<trkpt lat="52.866853" lon="-3.372667"><ele>487</ele><time>2020-01-18T10:32:29Z</time><name>PT2767</name></trkpt>
<trkpt lat="52.866861" lon="-3.372673"><ele>487</ele><time>2020-01-18T10:32:31Z</time><name>PT2768</name></trkpt>
<trkpt lat="52.866870" lon="-3.372676"><ele>487</ele><time>2020-01-18T10:32:32Z</time><name>PT2769</name></trkpt>
<trkpt lat="52.866879" lon="-3.372682"><ele>488</ele><time>2020-01-18T10:32:32Z</time><name>PT2770</name></trkpt>
<trkpt lat="52.866885" lon="-3.372687"><ele>488</ele><time>2020-01-18T10:32:34Z</time><name>PT2771</name></trkpt>
<trkpt lat="52.866892" lon="-3.372697"><ele>488</ele><time>2020-01-18T10:32:35Z</time><name>PT2772</name></trkpt>
<trkpt lat="52.866900" lon="-3.372706"><ele>488</ele><time>2020-01-18T10:32:35Z</time><name>PT2773</name></trkpt>
<trkpt lat="52.866906" lon="-3.372711"><ele>488</ele><time>2020-01-18T10:32:37Z</time><name>PT2774</name></trkpt>
<trkpt lat="52.866915" lon="-3.372716"><ele>488</ele><time>2020-01-18T10:32:38Z</time><name>PT2775</name></trkpt>
<trkpt lat="52.866925" lon="-3.372725"><ele>488</ele><time>2020-01-18T10:32:38Z</time><name>PT2776</name></trkpt>
<trkpt lat="52.866933" lon="-3.372736"><ele>488</ele><time>2020-01-18T10:32:40Z</time><name>PT2777</name></trkpt>
<trkpt lat="52.866946" lon="-3.372742"><ele>487</ele><time>2020-01-18T10:32:41Z</time><name>PT2778</name></trkpt>
<trkpt lat="52.866955" lon="-3.372751"><ele>487</ele><time>2020-01-18T10:32:41Z</time><name>PT2779</name></trkpt>
<trkpt lat="52.866963" lon="-3.372759"><ele>488</ele><time>2020-01-18T10:32:43Z</time><name>PT2780</name></trkpt>
<trkpt lat="52.866972" lon="-3.372768"><ele>488</ele><time>2020-01-18T10:32:44Z</time><name>PT2781</name></trkpt>
<trkpt lat="52.866979" lon="-3.372777"><ele>488</ele><time>2020-01-18T10:32:44Z</time><name>PT2782</name></trkpt>
<trkpt lat="52.866983" lon="-3.372781"><ele>487</ele><time>2020-01-18T10:32:46Z</time><name>PT2783</name></trkpt>
<trkpt lat="52.866990" lon="-3.372786"><ele>487</ele><time>2020-01-18T10:32:47Z</time><name>PT2784</name></trkpt>
<trkpt lat="52.866999" lon="-3.372796"><ele>487</ele><time>2020-01-18T10:32:47Z</time><name>PT2785</name></trkpt>
<trkpt lat="52.867007" lon="-3.372804"><ele>487</ele><time>2020-01-18T10:32:49Z</time><name>PT2786</name></trkpt>
<trkpt lat="52.867013" lon="-3.372819"><ele>487</ele><time>2020-01-18T10:32:50Z</time><name>PT2787</name></trkpt>
<trkpt lat="52.867018" lon="-3.372831"><ele>487</ele><time>2020-01-18T10:32:50Z</time><name>PT2788</name></trkpt>
<trkpt lat="52.867025" lon="-3.372839"><ele>487</ele><time>2020-01-18T10:32:52Z</time><name>PT2789</name></trkpt>
<trkpt lat="52.867030" lon="-3.372847"><ele>486</ele><time>2020-01-18T10:32:53Z</time><name>PT2790</name></trkpt>
<trkpt lat="52.867038" lon="-3.372856"><ele>486</ele><time>2020-01-18T10:32:53Z</time><name>PT2791</name></trkpt>
<trkpt lat="52.867047" lon="-3.372861"><ele>486</ele><time>2020-01-18T10:32:55Z</time><name>PT2792</name></trkpt>
<trkpt lat="52.867052" lon="-3.372866"><ele>485</ele><time>2020-01-18T10:32:56Z</time><name>PT2793</name></trkpt>
<trkpt lat="52.867055" lon="-3.372870"><ele>485</ele><time>2020-01-18T10:32:56Z</time><name>PT2794</name></trkpt>
<trkpt lat="52.867059" lon="-3.372882"><ele>486</ele><time>2020-01-18T10:32:58Z</time><name>PT2795</name></trkpt>
<trkpt lat="52.867064" lon="-3.372896"><ele>486</ele><time>2020-01-18T10:32:59Z</time><name>PT2796</name></trkpt>
<trkpt lat="52.867072" lon="-3.372909"><ele>487</ele><time>2020-01-18T10:33:00Z</time><name>PT2797</name></trkpt>
<trkpt lat="52.867080" lon="-3.372918"><ele>487</ele><time>2020-01-18T10:33:01Z</time><name>PT2798</name></trkpt>
<trkpt lat="52.867087" lon="-3.372922"><ele>487</ele><time>2020-01-18T10:33:02Z</time><name>PT2799</name></trkpt>
<trkpt lat="52.867090" lon="-3.372932"><ele>487</ele><time>2020-01-18T10:33:03Z</time><name>PT2800</name></trkpt>
<trkpt lat="52.867093" lon="-3.372931"><ele>487</ele><time>2020-01-18T10:33:04Z</time><name>PT2801</name></trkpt>
<trkpt lat="52.867099" lon="-3.372940"><ele>487</ele><time>2020-01-18T10:33:05Z</time><name>PT2802</name></trkpt>
<trkpt lat="52.867107" lon="-3.372949"><ele>487</ele><time>2020-01-18T10:33:05Z</time><name>PT2803</name></trkpt>
<trkpt lat="52.867113" lon="-3.372957"><ele>487</ele><time>2020-01-18T10:33:07Z</time><name>PT2804</name></trkpt>
<trkpt lat="52.867122" lon="-3.372963"><ele>487</ele><time>2020-01-18T10:33:08Z</time><name>PT2805</name></trkpt>
<trkpt lat="52.867132" lon="-3.372970"><ele>487</ele><time>2020-01-18T10:33:08Z</time><name>PT2806</name></trkpt>
<trkpt lat="52.867142" lon="-3.372977"><ele>487</ele><time>2020-01-18T10:33:10Z</time><name>PT2807</name></trkpt>
<trkpt lat="52.867151" lon="-3.372986"><ele>487</ele><time>2020-01-18T10:33:11Z</time><name>PT2808</name></trkpt>
<trkpt lat="52.867164" lon="-3.372994"><ele>488</ele><time>2020-01-18T10:33:11Z</time><name>PT2809</name></trkpt>
<trkpt lat="52.867177" lon="-3.373003"><ele>488</ele><time>2020-01-18T10:33:13Z</time><name>PT2810</name></trkpt>
<trkpt lat="52.867185" lon="-3.373010"><ele>488</ele><time>2020-01-18T10:33:14Z</time><name>PT2811</name></trkpt>
<trkpt lat="52.867194" lon="-3.373023"><ele>489</ele><time>2020-01-18T10:33:14Z</time><name>PT2812</name></trkpt>
<trkpt lat="52.867204" lon="-3.373036"><ele>489</ele><time>2020-01-18T10:33:16Z</time><name>PT2813</name></trkpt>
<trkpt lat="52.867211" lon="-3.373043"><ele>488</ele><time>2020-01-18T10:33:17Z</time><name>PT2814</name></trkpt>
<trkpt lat="52.867223" lon="-3.373050"><ele>488</ele><time>2020-01-18T10:33:17Z</time><name>PT2815</name></trkpt>
<trkpt lat="52.867234" lon="-3.373057"><ele>489</ele><time>2020-01-18T10:33:19Z</time><name>PT2816</name></trkpt>
<trkpt lat="52.867243" lon="-3.373065"><ele>489</ele><time>2020-01-18T10:33:20Z</time><name>PT2817</name></trkpt>
<trkpt lat="52.867256" lon="-3.373074"><ele>489</ele><time>2020-01-18T10:33:20Z</time><name>PT2818</name></trkpt>
<trkpt lat="52.867267" lon="-3.373086"><ele>490</ele><time>2020-01-18T10:33:22Z</time><name>PT2819</name></trkpt>
<trkpt lat="52.867277" lon="-3.373099"><ele>490</ele><time>2020-01-18T10:33:23Z</time><name>PT2820</name></trkpt>
<trkpt lat="52.867286" lon="-3.373107"><ele>491</ele><time>2020-01-18T10:33:23Z</time><name>PT2821</name></trkpt>
<trkpt lat="52.867296" lon="-3.373116"><ele>491</ele><time>2020-01-18T10:33:25Z</time><name>PT2822</name></trkpt>
<trkpt lat="52.867306" lon="-3.373115"><ele>491</ele><time>2020-01-18T10:33:26Z</time><name>PT2823</name></trkpt>
<trkpt lat="52.867318" lon="-3.373121"><ele>491</ele><time>2020-01-18T10:33:26Z</time><name>PT2824</name></trkpt>
<trkpt lat="52.867325" lon="-3.373125"><ele>491</ele><time>2020-01-18T10:33:28Z</time><name>PT2825</name></trkpt>
<trkpt lat="52.867330" lon="-3.373130"><ele>491</ele><time>2020-01-18T10:33:29Z</time><name>PT2826</name></trkpt>
<trkpt lat="52.867331" lon="-3.373130"><ele>491</ele><time>2020-01-18T10:33:30Z</time><name>PT2827</name></trkpt>
<trkpt lat="52.867333" lon="-3.373129"><ele>491</ele><time>2020-01-18T10:33:31Z</time><name>PT2828</name></trkpt>
<trkpt lat="52.867335" lon="-3.373127"><ele>490</ele><time>2020-01-18T10:33:32Z</time><name>PT2829</name></trkpt>
<trkpt lat="52.867336" lon="-3.373132"><ele>490</ele><time>2020-01-18T10:33:39Z</time><name>PT2830</name></trkpt>
<trkpt lat="52.867349" lon="-3.373150"><ele>491</ele><time>2020-01-18T10:33:40Z</time><name>PT2831</name></trkpt>
<trkpt lat="52.867358" lon="-3.373168"><ele>491</ele><time>2020-01-18T10:33:41Z</time><name>PT2832</name></trkpt>
<trkpt lat="52.867365" lon="-3.373184"><ele>491</ele><time>2020-01-18T10:33:42Z</time><name>PT2833</name></trkpt>
<trkpt lat="52.867370" lon="-3.373201"><ele>491</ele><time>2020-01-18T10:33:43Z</time><name>PT2834</name></trkpt>
<trkpt lat="52.867380" lon="-3.373219"><ele>492</ele><time>2020-01-18T10:33:44Z</time><name>PT2835</name></trkpt>
<trkpt lat="52.867387" lon="-3.373231"><ele>492</ele><time>2020-01-18T10:33:45Z</time><name>PT2836</name></trkpt>
<trkpt lat="52.867394" lon="-3.373240"><ele>493</ele><time>2020-01-18T10:33:46Z</time><name>PT2837</name></trkpt>
<trkpt lat="52.867404" lon="-3.373249"><ele>493</ele><time>2020-01-18T10:33:47Z</time><name>PT2838</name></trkpt>
<trkpt lat="52.867416" lon="-3.373257"><ele>493</ele><time>2020-01-18T10:33:47Z</time><name>PT2839</name></trkpt>
<trkpt lat="52.867425" lon="-3.373273"><ele>494</ele><time>2020-01-18T10:33:49Z</time><name>PT2840</name></trkpt>
<trkpt lat="52.867436" lon="-3.373277"><ele>494</ele><time>2020-01-18T10:33:50Z</time><name>PT2841</name></trkpt>
<trkpt lat="52.867444" lon="-3.373289"><ele>494</ele><time>2020-01-18T10:33:50Z</time><name>PT2842</name></trkpt>
<trkpt lat="52.867452" lon="-3.373299"><ele>495</ele><time>2020-01-18T10:33:52Z</time><name>PT2843</name></trkpt>
<trkpt lat="52.867461" lon="-3.373302"><ele>495</ele><time>2020-01-18T10:33:53Z</time><name>PT2844</name></trkpt>
<trkpt lat="52.867470" lon="-3.373301"><ele>495</ele><time>2020-01-18T10:33:53Z</time><name>PT2845</name></trkpt>
<trkpt lat="52.867476" lon="-3.373308"><ele>495</ele><time>2020-01-18T10:33:55Z</time><name>PT2846</name></trkpt>
<trkpt lat="52.867487" lon="-3.373321"><ele>495</ele><time>2020-01-18T10:33:56Z</time><name>PT2847</name></trkpt>
<trkpt lat="52.867497" lon="-3.373334"><ele>495</ele><time>2020-01-18T10:33:57Z</time><name>PT2848</name></trkpt>
<trkpt lat="52.867509" lon="-3.373347"><ele>495</ele><time>2020-01-18T10:33:58Z</time><name>PT2849</name></trkpt>
<trkpt lat="52.867518" lon="-3.373359"><ele>495</ele><time>2020-01-18T10:33:59Z</time><name>PT2850</name></trkpt>
<trkpt lat="52.867527" lon="-3.373371"><ele>494</ele><time>2020-01-18T10:34:00Z</time><name>PT2851</name></trkpt>
<trkpt lat="52.867537" lon="-3.373388"><ele>494</ele><time>2020-01-18T10:34:01Z</time><name>PT2852</name></trkpt>
<trkpt lat="52.867545" lon="-3.373395"><ele>494</ele><time>2020-01-18T10:34:02Z</time><name>PT2853</name></trkpt>
<trkpt lat="52.867559" lon="-3.373404"><ele>494</ele><time>2020-01-18T10:34:03Z</time><name>PT2854</name></trkpt>
<trkpt lat="52.867574" lon="-3.373413"><ele>494</ele><time>2020-01-18T10:34:04Z</time><name>PT2855</name></trkpt>
<trkpt lat="52.867584" lon="-3.373418"><ele>494</ele><time>2020-01-18T10:34:05Z</time><name>PT2856</name></trkpt>
<trkpt lat="52.867591" lon="-3.373428"><ele>494</ele><time>2020-01-18T10:34:05Z</time><name>PT2857</name></trkpt>
<trkpt lat="52.867596" lon="-3.373442"><ele>494</ele><time>2020-01-18T10:34:07Z</time><name>PT2858</name></trkpt>
<trkpt lat="52.867605" lon="-3.373449"><ele>494</ele><time>2020-01-18T10:34:08Z</time><name>PT2859</name></trkpt>
<trkpt lat="52.867613" lon="-3.373453"><ele>493</ele><time>2020-01-18T10:34:09Z</time><name>PT2860</name></trkpt>
<trkpt lat="52.867625" lon="-3.373462"><ele>493</ele><time>2020-01-18T10:34:10Z</time><name>PT2861</name></trkpt>
<trkpt lat="52.867636" lon="-3.373467"><ele>493</ele><time>2020-01-18T10:34:11Z</time><name>PT2862</name></trkpt>
<trkpt lat="52.867648" lon="-3.373467"><ele>493</ele><time>2020-01-18T10:34:12Z</time><name>PT2863</name></trkpt>
<trkpt lat="52.867659" lon="-3.373474"><ele>493</ele><time>2020-01-18T10:34:13Z</time><name>PT2864</name></trkpt>
<trkpt lat="52.867666" lon="-3.373477"><ele>492</ele><time>2020-01-18T10:34:14Z</time><name>PT2865</name></trkpt>
<trkpt lat="52.867677" lon="-3.373486"><ele>492</ele><time>2020-01-18T10:34:15Z</time><name>PT2866</name></trkpt>
<trkpt lat="52.867687" lon="-3.373499"><ele>492</ele><time>2020-01-18T10:34:16Z</time><name>PT2867</name></trkpt>
<trkpt lat="52.867694" lon="-3.373504"><ele>493</ele><time>2020-01-18T10:34:17Z</time><name>PT2868</name></trkpt>
<trkpt lat="52.867705" lon="-3.373518"><ele>494</ele><time>2020-01-18T10:34:17Z</time><name>PT2869</name></trkpt>
<trkpt lat="52.867707" lon="-3.373517"><ele>494</ele><time>2020-01-18T10:34:19Z</time><name>PT2870</name></trkpt>
<trkpt lat="52.867707" lon="-3.373521"><ele>494</ele><time>2020-01-18T10:34:20Z</time><name>PT2871</name></trkpt>
<trkpt lat="52.867711" lon="-3.373526"><ele>494</ele><time>2020-01-18T10:34:20Z</time><name>PT2872</name></trkpt>
<trkpt lat="52.867714" lon="-3.373525"><ele>495</ele><time>2020-01-18T10:34:22Z</time><name>PT2873</name></trkpt>
<trkpt lat="52.867717" lon="-3.373522"><ele>495</ele><time>2020-01-18T10:34:23Z</time><name>PT2874</name></trkpt>
<trkpt lat="52.867715" lon="-3.373523"><ele>494</ele><time>2020-01-18T10:34:23Z</time><name>PT2875</name></trkpt>
<trkpt lat="52.867718" lon="-3.373521"><ele>495</ele><time>2020-01-18T10:34:25Z</time><name>PT2876</name></trkpt>
<trkpt lat="52.867718" lon="-3.373519"><ele>496</ele><time>2020-01-18T10:34:26Z</time><name>PT2877</name></trkpt>
<trkpt lat="52.867720" lon="-3.373513"><ele>496</ele><time>2020-01-18T10:34:26Z</time><name>PT2878</name></trkpt>
<trkpt lat="52.867722" lon="-3.373510"><ele>496</ele><time>2020-01-18T10:34:28Z</time><name>PT2879</name></trkpt>
<trkpt lat="52.867724" lon="-3.373507"><ele>495</ele><time>2020-01-18T10:34:29Z</time><name>PT2880</name></trkpt>
<trkpt lat="52.867727" lon="-3.373505"><ele>495</ele><time>2020-01-18T10:34:40Z</time><name>PT2881</name></trkpt>
<trkpt lat="52.867720" lon="-3.373494"><ele>495</ele><time>2020-01-18T10:34:41Z</time><name>PT2882</name></trkpt>
<trkpt lat="52.867719" lon="-3.373486"><ele>495</ele><time>2020-01-18T10:34:41Z</time><name>PT2883</name></trkpt>
<trkpt lat="52.867712" lon="-3.373474"><ele>496</ele><time>2020-01-18T10:34:43Z</time><name>PT2884</name></trkpt>
<trkpt lat="52.867717" lon="-3.373468"><ele>496</ele><time>2020-01-18T10:34:44Z</time><name>PT2885</name></trkpt>
<trkpt lat="52.867717" lon="-3.373468"><ele>496</ele><time>2020-01-18T10:34:44Z</time><name>PT2886</name></trkpt>
<trkpt lat="52.867719" lon="-3.373468"><ele>496</ele><time>2020-01-18T10:34:46Z</time><name>PT2887</name></trkpt>
<trkpt lat="52.867723" lon="-3.373457"><ele>495</ele><time>2020-01-18T10:34:47Z</time><name>PT2888</name></trkpt>
<trkpt lat="52.867724" lon="-3.373452"><ele>495</ele><time>2020-01-18T10:34:47Z</time><name>PT2889</name></trkpt>
<trkpt lat="52.867726" lon="-3.373451"><ele>495</ele><time>2020-01-18T10:34:49Z</time><name>PT2890</name></trkpt>
<trkpt lat="52.867731" lon="-3.373450"><ele>495</ele><time>2020-01-18T10:34:50Z</time><name>PT2891</name></trkpt>
<trkpt lat="52.867735" lon="-3.373449"><ele>495</ele><time>2020-01-18T10:34:50Z</time><name>PT2892</name></trkpt>
<trkpt lat="52.867736" lon="-3.373445"><ele>495</ele><time>2020-01-18T10:35:11Z</time><name>PT2893</name></trkpt>
<trkpt lat="52.867739" lon="-3.373448"><ele>495</ele><time>2020-01-18T10:35:13Z</time><name>PT2894</name></trkpt>
<trkpt lat="52.867741" lon="-3.373452"><ele>495</ele><time>2020-01-18T10:35:14Z</time><name>PT2895</name></trkpt>
<trkpt lat="52.867743" lon="-3.373455"><ele>495</ele><time>2020-01-18T10:35:14Z</time><name>PT2896</name></trkpt>
<trkpt lat="52.867746" lon="-3.373455"><ele>495</ele><time>2020-01-18T10:35:16Z</time><name>PT2897</name></trkpt>
<trkpt lat="52.867746" lon="-3.373455"><ele>495</ele><time>2020-01-18T10:35:49Z</time><name>PT2898</name></trkpt>
<trkpt lat="52.867747" lon="-3.373455"><ele>495</ele><time>2020-01-18T10:35:50Z</time><name>PT2899</name></trkpt>
<trkpt lat="52.867749" lon="-3.373455"><ele>495</ele><time>2020-01-18T10:35:58Z</time><name>PT2900</name></trkpt>
<trkpt lat="52.867751" lon="-3.373453"><ele>496</ele><time>2020-01-18T10:35:59Z</time><name>PT2901</name></trkpt>
<trkpt lat="52.867751" lon="-3.373452"><ele>496</ele><time>2020-01-18T10:35:59Z</time><name>PT2902</name></trkpt>
<trkpt lat="52.867742" lon="-3.373447"><ele>497</ele><time>2020-01-18T10:36:01Z</time><name>PT2903</name></trkpt>
<trkpt lat="52.867748" lon="-3.373459"><ele>497</ele><time>2020-01-18T10:36:20Z</time><name>PT2904</name></trkpt>
<trkpt lat="52.867755" lon="-3.373465"><ele>496</ele><time>2020-01-18T10:36:20Z</time><name>PT2905</name></trkpt>
<trkpt lat="52.867764" lon="-3.373475"><ele>496</ele><time>2020-01-18T10:36:22Z</time><name>PT2906</name></trkpt>
<trkpt lat="52.867777" lon="-3.373483"><ele>496</ele><time>2020-01-18T10:36:23Z</time><name>PT2907</name></trkpt>
<trkpt lat="52.867789" lon="-3.373492"><ele>496</ele><time>2020-01-18T10:36:23Z</time><name>PT2908</name></trkpt>
<trkpt lat="52.867801" lon="-3.373501"><ele>496</ele><time>2020-01-18T10:36:25Z</time><name>PT2909</name></trkpt>
<trkpt lat="52.867810" lon="-3.373508"><ele>495</ele><time>2020-01-18T10:36:26Z</time><name>PT2910</name></trkpt>
<trkpt lat="52.867821" lon="-3.373519"><ele>495</ele><time>2020-01-18T10:36:26Z</time><name>PT2911</name></trkpt>
<trkpt lat="52.867827" lon="-3.373534"><ele>496</ele><time>2020-01-18T10:36:28Z</time><name>PT2912</name></trkpt>
<trkpt lat="52.867835" lon="-3.373536"><ele>495</ele><time>2020-01-18T10:36:29Z</time><name>PT2913</name></trkpt>
<trkpt lat="52.867850" lon="-3.373544"><ele>495</ele><time>2020-01-18T10:36:30Z</time><name>PT2914</name></trkpt>
<trkpt lat="52.867861" lon="-3.373551"><ele>496</ele><time>2020-01-18T10:36:31Z</time><name>PT2915</name></trkpt>
<trkpt lat="52.867870" lon="-3.373560"><ele>496</ele><time>2020-01-18T10:36:32Z</time><name>PT2916</name></trkpt>
<trkpt lat="52.867880" lon="-3.373573"><ele>496</ele><time>2020-01-18T10:36:33Z</time><name>PT2917</name></trkpt>
<trkpt lat="52.867893" lon="-3.373583"><ele>497</ele><time>2020-01-18T10:36:34Z</time><name>PT2918</name></trkpt>
<trkpt lat="52.867903" lon="-3.373603"><ele>497</ele><time>2020-01-18T10:36:35Z</time><name>PT2919</name></trkpt>
<trkpt lat="52.867914" lon="-3.373609"><ele>497</ele><time>2020-01-18T10:36:36Z</time><name>PT2920</name></trkpt>
<trkpt lat="52.867921" lon="-3.373620"><ele>498</ele><time>2020-01-18T10:36:37Z</time><name>PT2921</name></trkpt>
<trkpt lat="52.867932" lon="-3.373631"><ele>498</ele><time>2020-01-18T10:36:38Z</time><name>PT2922</name></trkpt>
<trkpt lat="52.867944" lon="-3.373641"><ele>498</ele><time>2020-01-18T10:36:39Z</time><name>PT2923</name></trkpt>
<trkpt lat="52.867957" lon="-3.373656"><ele>498</ele><time>2020-01-18T10:36:40Z</time><name>PT2924</name></trkpt>
<trkpt lat="52.867971" lon="-3.373665"><ele>498</ele><time>2020-01-18T10:36:41Z</time><name>PT2925</name></trkpt>
<trkpt lat="52.867976" lon="-3.373676"><ele>498</ele><time>2020-01-18T10:36:41Z</time><name>PT2926</name></trkpt>
<trkpt lat="52.867982" lon="-3.373682"><ele>498</ele><time>2020-01-18T10:36:43Z</time><name>PT2927</name></trkpt>
<trkpt lat="52.867991" lon="-3.373690"><ele>498</ele><time>2020-01-18T10:36:44Z</time><name>PT2928</name></trkpt>
<trkpt lat="52.868004" lon="-3.373707"><ele>498</ele><time>2020-01-18T10:36:44Z</time><name>PT2929</name></trkpt>
<trkpt lat="52.868019" lon="-3.373719"><ele>499</ele><time>2020-01-18T10:36:46Z</time><name>PT2930</name></trkpt>
<trkpt lat="52.868030" lon="-3.373730"><ele>499</ele><time>2020-01-18T10:36:47Z</time><name>PT2931</name></trkpt>
<trkpt lat="52.868042" lon="-3.373739"><ele>499</ele><time>2020-01-18T10:36:47Z</time><name>PT2932</name></trkpt>
<trkpt lat="52.868054" lon="-3.373747"><ele>499</ele><time>2020-01-18T10:36:49Z</time><name>PT2933</name></trkpt>
<trkpt lat="52.868067" lon="-3.373755"><ele>499</ele><time>2020-01-18T10:36:50Z</time><name>PT2934</name></trkpt>
<trkpt lat="52.868077" lon="-3.373767"><ele>500</ele><time>2020-01-18T10:36:50Z</time><name>PT2935</name></trkpt>
<trkpt lat="52.868087" lon="-3.373778"><ele>500</ele><time>2020-01-18T10:36:52Z</time><name>PT2936</name></trkpt>
<trkpt lat="52.868100" lon="-3.373791"><ele>501</ele><time>2020-01-18T10:36:53Z</time><name>PT2937</name></trkpt>
<trkpt lat="52.868111" lon="-3.373796"><ele>500</ele><time>2020-01-18T10:36:53Z</time><name>PT2938</name></trkpt>
<trkpt lat="52.868121" lon="-3.373802"><ele>500</ele><time>2020-01-18T10:36:55Z</time><name>PT2939</name></trkpt>
<trkpt lat="52.868131" lon="-3.373816"><ele>501</ele><time>2020-01-18T10:36:56Z</time><name>PT2940</name></trkpt>
<trkpt lat="52.868140" lon="-3.373827"><ele>501</ele><time>2020-01-18T10:36:57Z</time><name>PT2941</name></trkpt>
<trkpt lat="52.868148" lon="-3.373838"><ele>501</ele><time>2020-01-18T10:36:58Z</time><name>PT2942</name></trkpt>
<trkpt lat="52.868157" lon="-3.373847"><ele>501</ele><time>2020-01-18T10:36:59Z</time><name>PT2943</name></trkpt>
<trkpt lat="52.868167" lon="-3.373857"><ele>500</ele><time>2020-01-18T10:36:59Z</time><name>PT2944</name></trkpt>
<trkpt lat="52.868177" lon="-3.373869"><ele>500</ele><time>2020-01-18T10:37:01Z</time><name>PT2945</name></trkpt>
<trkpt lat="52.868189" lon="-3.373875"><ele>501</ele><time>2020-01-18T10:37:02Z</time><name>PT2946</name></trkpt>
<trkpt lat="52.868201" lon="-3.373884"><ele>500</ele><time>2020-01-18T10:37:02Z</time><name>PT2947</name></trkpt>
<trkpt lat="52.868213" lon="-3.373895"><ele>501</ele><time>2020-01-18T10:37:04Z</time><name>PT2948</name></trkpt>
<trkpt lat="52.868226" lon="-3.373908"><ele>501</ele><time>2020-01-18T10:37:05Z</time><name>PT2949</name></trkpt>
<trkpt lat="52.868239" lon="-3.373917"><ele>502</ele><time>2020-01-18T10:37:06Z</time><name>PT2950</name></trkpt>
<trkpt lat="52.868253" lon="-3.373921"><ele>502</ele><time>2020-01-18T10:37:07Z</time><name>PT2951</name></trkpt>
<trkpt lat="52.868263" lon="-3.373922"><ele>502</ele><time>2020-01-18T10:37:08Z</time><name>PT2952</name></trkpt>
<trkpt lat="52.868280" lon="-3.373918"><ele>501</ele><time>2020-01-18T10:37:08Z</time><name>PT2953</name></trkpt>
<trkpt lat="52.868290" lon="-3.373920"><ele>501</ele><time>2020-01-18T10:37:10Z</time><name>PT2954</name></trkpt>
<trkpt lat="52.868298" lon="-3.373923"><ele>501</ele><time>2020-01-18T10:37:11Z</time><name>PT2955</name></trkpt>
<trkpt lat="52.868308" lon="-3.373927"><ele>502</ele><time>2020-01-18T10:37:11Z</time><name>PT2956</name></trkpt>
<trkpt lat="52.868317" lon="-3.373931"><ele>502</ele><time>2020-01-18T10:37:13Z</time><name>PT2957</name></trkpt>
<trkpt lat="52.868326" lon="-3.373932"><ele>501</ele><time>2020-01-18T10:37:14Z</time><name>PT2958</name></trkpt>
<trkpt lat="52.868338" lon="-3.373943"><ele>502</ele><time>2020-01-18T10:37:15Z</time><name>PT2959</name></trkpt>
<trkpt lat="52.868346" lon="-3.373951"><ele>502</ele><time>2020-01-18T10:37:16Z</time><name>PT2960</name></trkpt>
<trkpt lat="52.868354" lon="-3.373942"><ele>502</ele><time>2020-01-18T10:37:17Z</time><name>PT2961</name></trkpt>
<trkpt lat="52.868356" lon="-3.373940"><ele>502</ele><time>2020-01-18T10:37:17Z</time><name>PT2962</name></trkpt>
<trkpt lat="52.868356" lon="-3.373935"><ele>502</ele><time>2020-01-18T10:37:19Z</time><name>PT2963</name></trkpt>
<trkpt lat="52.868357" lon="-3.373933"><ele>501</ele><time>2020-01-18T10:37:20Z</time><name>PT2964</name></trkpt>
<trkpt lat="52.868359" lon="-3.373930"><ele>501</ele><time>2020-01-18T10:37:20Z</time><name>PT2965</name></trkpt>
<trkpt lat="52.868367" lon="-3.373925"><ele>501</ele><time>2020-01-18T10:37:22Z</time><name>PT2966</name></trkpt>
<trkpt lat="52.868374" lon="-3.373920"><ele>501</ele><time>2020-01-18T10:37:23Z</time><name>PT2967</name></trkpt>
<trkpt lat="52.868380" lon="-3.373917"><ele>501</ele><time>2020-01-18T10:37:23Z</time><name>PT2968</name></trkpt>
<trkpt lat="52.868382" lon="-3.373918"><ele>501</ele><time>2020-01-18T10:37:25Z</time><name>PT2969</name></trkpt>
<trkpt lat="52.868391" lon="-3.373915"><ele>500</ele><time>2020-01-18T10:37:26Z</time><name>PT2970</name></trkpt>
<trkpt lat="52.868400" lon="-3.373911"><ele>499</ele><time>2020-01-18T10:37:26Z</time><name>PT2971</name></trkpt>
<trkpt lat="52.868404" lon="-3.373910"><ele>499</ele><time>2020-01-18T10:37:28Z</time><name>PT2972</name></trkpt>
<trkpt lat="52.868411" lon="-3.373908"><ele>498</ele><time>2020-01-18T10:37:29Z</time><name>PT2973</name></trkpt>
<trkpt lat="52.868420" lon="-3.373906"><ele>498</ele><time>2020-01-18T10:37:29Z</time><name>PT2974</name></trkpt>
<trkpt lat="52.868429" lon="-3.373904"><ele>498</ele><time>2020-01-18T10:37:31Z</time><name>PT2975</name></trkpt>
<trkpt lat="52.868435" lon="-3.373901"><ele>498</ele><time>2020-01-18T10:37:32Z</time><name>PT2976</name></trkpt>
<trkpt lat="52.868437" lon="-3.373901"><ele>498</ele><time>2020-01-18T10:37:33Z</time><name>PT2977</name></trkpt>
<trkpt lat="52.868437" lon="-3.373904"><ele>498</ele><time>2020-01-18T10:37:34Z</time><name>PT2978</name></trkpt>
<trkpt lat="52.868438" lon="-3.373900"><ele>498</ele><time>2020-01-18T10:37:35Z</time><name>PT2979</name></trkpt>
<trkpt lat="52.868442" lon="-3.373898"><ele>498</ele><time>2020-01-18T10:37:36Z</time><name>PT2980</name></trkpt>
<trkpt lat="52.868446" lon="-3.373893"><ele>499</ele><time>2020-01-18T10:37:37Z</time><name>PT2981</name></trkpt>
<trkpt lat="52.868449" lon="-3.373887"><ele>498</ele><time>2020-01-18T10:37:38Z</time><name>PT2982</name></trkpt>
<trkpt lat="52.868452" lon="-3.373883"><ele>499</ele><time>2020-01-18T10:37:38Z</time><name>PT2983</name></trkpt>
<trkpt lat="52.868455" lon="-3.373879"><ele>499</ele><time>2020-01-18T10:37:40Z</time><name>PT2984</name></trkpt>
<trkpt lat="52.868461" lon="-3.373880"><ele>501</ele><time>2020-01-18T10:37:41Z</time><name>PT2985</name></trkpt>
<trkpt lat="52.868465" lon="-3.373871"><ele>501</ele><time>2020-01-18T10:37:42Z</time><name>PT2986</name></trkpt>
<trkpt lat="52.868470" lon="-3.373865"><ele>501</ele><time>2020-01-18T10:37:43Z</time><name>PT2987</name></trkpt>
<trkpt lat="52.868474" lon="-3.373865"><ele>501</ele><time>2020-01-18T10:37:44Z</time><name>PT2988</name></trkpt>
<trkpt lat="52.868474" lon="-3.373862"><ele>501</ele><time>2020-01-18T10:37:45Z</time><name>PT2989</name></trkpt>
<trkpt lat="52.868479" lon="-3.373860"><ele>502</ele><time>2020-01-18T10:37:46Z</time><name>PT2990</name></trkpt>
<trkpt lat="52.868481" lon="-3.373853"><ele>501</ele><time>2020-01-18T10:37:47Z</time><name>PT2991</name></trkpt>
<trkpt lat="52.868485" lon="-3.373844"><ele>501</ele><time>2020-01-18T10:37:47Z</time><name>PT2992</name></trkpt>
<trkpt lat="52.868489" lon="-3.373833"><ele>501</ele><time>2020-01-18T10:37:49Z</time><name>PT2993</name></trkpt>
<trkpt lat="52.868493" lon="-3.373825"><ele>501</ele><time>2020-01-18T10:37:50Z</time><name>PT2994</name></trkpt>
<trkpt lat="52.868495" lon="-3.373816"><ele>501</ele><time>2020-01-18T10:37:50Z</time><name>PT2995</name></trkpt>
<trkpt lat="52.868503" lon="-3.373809"><ele>502</ele><time>2020-01-18T10:37:52Z</time><name>PT2996</name></trkpt>
<trkpt lat="52.868510" lon="-3.373803"><ele>502</ele><time>2020-01-18T10:37:53Z</time><name>PT2997</name></trkpt>
<trkpt lat="52.868518" lon="-3.373799"><ele>503</ele><time>2020-01-18T10:37:53Z</time><name>PT2998</name></trkpt>
<trkpt lat="52.868524" lon="-3.373799"><ele>503</ele><time>2020-01-18T10:37:55Z</time><name>PT2999</name></trkpt>
<trkpt lat="52.868532" lon="-3.373800"><ele>504</ele><time>2020-01-18T10:37:56Z</time><name>PT3000</name></trkpt>
<trkpt lat="52.868540" lon="-3.373798"><ele>504</ele><time>2020-01-18T10:37:56Z</time><name>PT3001</name></trkpt>
<trkpt lat="52.868545" lon="-3.373795"><ele>504</ele><time>2020-01-18T10:37:58Z</time><name>PT3002</name></trkpt>
<trkpt lat="52.868554" lon="-3.373795"><ele>504</ele><time>2020-01-18T10:37:59Z</time><name>PT3003</name></trkpt>
<trkpt lat="52.868563" lon="-3.373792"><ele>504</ele><time>2020-01-18T10:37:59Z</time><name>PT3004</name></trkpt>
<trkpt lat="52.868571" lon="-3.373788"><ele>505</ele><time>2020-01-18T10:38:01Z</time><name>PT3005</name></trkpt>
<trkpt lat="52.868580" lon="-3.373781"><ele>504</ele><time>2020-01-18T10:38:02Z</time><name>PT3006</name></trkpt>
<trkpt lat="52.868589" lon="-3.373775"><ele>505</ele><time>2020-01-18T10:38:02Z</time><name>PT3007</name></trkpt>
<trkpt lat="52.868595" lon="-3.373770"><ele>505</ele><time>2020-01-18T10:38:04Z</time><name>PT3008</name></trkpt>
<trkpt lat="52.868603" lon="-3.373764"><ele>505</ele><time>2020-01-18T10:38:05Z</time><name>PT3009</name></trkpt>
<trkpt lat="52.868611" lon="-3.373760"><ele>506</ele><time>2020-01-18T10:38:05Z</time><name>PT3010</name></trkpt>
<trkpt lat="52.868614" lon="-3.373756"><ele>506</ele><time>2020-01-18T10:38:07Z</time><name>PT3011</name></trkpt>
<trkpt lat="52.868615" lon="-3.373752"><ele>505</ele><time>2020-01-18T10:38:08Z</time><name>PT3012</name></trkpt>
<trkpt lat="52.868625" lon="-3.373749"><ele>506</ele><time>2020-01-18T10:38:08Z</time><name>PT3013</name></trkpt>
<trkpt lat="52.868635" lon="-3.373748"><ele>506</ele><time>2020-01-18T10:38:10Z</time><name>PT3014</name></trkpt>
<trkpt lat="52.868644" lon="-3.373746"><ele>507</ele><time>2020-01-18T10:38:11Z</time><name>PT3015</name></trkpt>
<trkpt lat="52.868648" lon="-3.373734"><ele>507</ele><time>2020-01-18T10:38:11Z</time><name>PT3016</name></trkpt>
<trkpt lat="52.868658" lon="-3.373735"><ele>507</ele><time>2020-01-18T10:38:13Z</time><name>PT3017</name></trkpt>
<trkpt lat="52.868660" lon="-3.373726"><ele>507</ele><time>2020-01-18T10:38:14Z</time><name>PT3018</name></trkpt>
<trkpt lat="52.868666" lon="-3.373724"><ele>507</ele><time>2020-01-18T10:38:14Z</time><name>PT3019</name></trkpt>
<trkpt lat="52.868671" lon="-3.373728"><ele>506</ele><time>2020-01-18T10:38:16Z</time><name>PT3020</name></trkpt>
<trkpt lat="52.868684" lon="-3.373723"><ele>506</ele><time>2020-01-18T10:38:17Z</time><name>PT3021</name></trkpt>
<trkpt lat="52.868696" lon="-3.373725"><ele>506</ele><time>2020-01-18T10:38:17Z</time><name>PT3022</name></trkpt>
<trkpt lat="52.868708" lon="-3.373725"><ele>507</ele><time>2020-01-18T10:38:19Z</time><name>PT3023</name></trkpt>
<trkpt lat="52.868718" lon="-3.373721"><ele>506</ele><time>2020-01-18T10:38:20Z</time><name>PT3024</name></trkpt>
<trkpt lat="52.868722" lon="-3.373717"><ele>506</ele><time>2020-01-18T10:38:21Z</time><name>PT3025</name></trkpt>
<trkpt lat="52.868732" lon="-3.373712"><ele>507</ele><time>2020-01-18T10:38:22Z</time><name>PT3026</name></trkpt>
<trkpt lat="52.868738" lon="-3.373711"><ele>507</ele><time>2020-01-18T10:38:23Z</time><name>PT3027</name></trkpt>
<trkpt lat="52.868745" lon="-3.373714"><ele>507</ele><time>2020-01-18T10:38:24Z</time><name>PT3028</name></trkpt>
<trkpt lat="52.868752" lon="-3.373716"><ele>507</ele><time>2020-01-18T10:38:25Z</time><name>PT3029</name></trkpt>
<trkpt lat="52.868754" lon="-3.373715"><ele>508</ele><time>2020-01-18T10:38:26Z</time><name>PT3030</name></trkpt>
<trkpt lat="52.868751" lon="-3.373717"><ele>507</ele><time>2020-01-18T10:38:27Z</time><name>PT3031</name></trkpt>
<trkpt lat="52.868754" lon="-3.373717"><ele>507</ele><time>2020-01-18T10:38:28Z</time><name>PT3032</name></trkpt>
<trkpt lat="52.868761" lon="-3.373715"><ele>506</ele><time>2020-01-18T10:38:29Z</time><name>PT3033</name></trkpt>
<trkpt lat="52.868769" lon="-3.373715"><ele>506</ele><time>2020-01-18T10:38:30Z</time><name>PT3034</name></trkpt>
<trkpt lat="52.868781" lon="-3.373712"><ele>507</ele><time>2020-01-18T10:38:31Z</time><name>PT3035</name></trkpt>
<trkpt lat="52.868790" lon="-3.373715"><ele>507</ele><time>2020-01-18T10:38:32Z</time><name>PT3036</name></trkpt>
<trkpt lat="52.868791" lon="-3.373714"><ele>507</ele><time>2020-01-18T10:38:33Z</time><name>PT3037</name></trkpt>
<trkpt lat="52.868796" lon="-3.373714"><ele>508</ele><time>2020-01-18T10:38:34Z</time><name>PT3038</name></trkpt>
<trkpt lat="52.868804" lon="-3.373718"><ele>508</ele><time>2020-01-18T10:38:35Z</time><name>PT3039</name></trkpt>
<trkpt lat="52.868812" lon="-3.373726"><ele>508</ele><time>2020-01-18T10:38:36Z</time><name>PT3040</name></trkpt>
<trkpt lat="52.868819" lon="-3.373727"><ele>508</ele><time>2020-01-18T10:38:37Z</time><name>PT3041</name></trkpt>
<trkpt lat="52.868821" lon="-3.373736"><ele>508</ele><time>2020-01-18T10:38:38Z</time><name>PT3042</name></trkpt>
<trkpt lat="52.868821" lon="-3.373740"><ele>507</ele><time>2020-01-18T10:38:39Z</time><name>PT3043</name></trkpt>
<trkpt lat="52.868824" lon="-3.373747"><ele>508</ele><time>2020-01-18T10:38:40Z</time><name>PT3044</name></trkpt>
<trkpt lat="52.868826" lon="-3.373746"><ele>508</ele><time>2020-01-18T10:38:41Z</time><name>PT3045</name></trkpt>
<trkpt lat="52.868826" lon="-3.373746"><ele>508</ele><time>2020-01-18T10:38:42Z</time><name>PT3046</name></trkpt>
<trkpt lat="52.868827" lon="-3.373746"><ele>508</ele><time>2020-01-18T10:38:43Z</time><name>PT3047</name></trkpt>
<trkpt lat="52.868827" lon="-3.373733"><ele>509</ele><time>2020-01-18T10:38:47Z</time><name>PT3048</name></trkpt>
<trkpt lat="52.868832" lon="-3.373719"><ele>509</ele><time>2020-01-18T10:38:49Z</time><name>PT3049</name></trkpt>
<trkpt lat="52.868838" lon="-3.373703"><ele>509</ele><time>2020-01-18T10:38:50Z</time><name>PT3050</name></trkpt>
<trkpt lat="52.868846" lon="-3.373698"><ele>509</ele><time>2020-01-18T10:38:50Z</time><name>PT3051</name></trkpt>
<trkpt lat="52.868854" lon="-3.373690"><ele>508</ele><time>2020-01-18T10:38:52Z</time><name>PT3052</name></trkpt>
<trkpt lat="52.868859" lon="-3.373693"><ele>508</ele><time>2020-01-18T10:38:53Z</time><name>PT3053</name></trkpt>
<trkpt lat="52.868863" lon="-3.373699"><ele>508</ele><time>2020-01-18T10:38:53Z</time><name>PT3054</name></trkpt>
<trkpt lat="52.868867" lon="-3.373700"><ele>508</ele><time>2020-01-18T10:38:55Z</time><name>PT3055</name></trkpt>
<trkpt lat="52.868871" lon="-3.373698"><ele>507</ele><time>2020-01-18T10:38:56Z</time><name>PT3056</name></trkpt>
<trkpt lat="52.868875" lon="-3.373696"><ele>507</ele><time>2020-01-18T10:38:56Z</time><name>PT3057</name></trkpt>
<trkpt lat="52.868876" lon="-3.373700"><ele>507</ele><time>2020-01-18T10:38:58Z</time><name>PT3058</name></trkpt>
<trkpt lat="52.868877" lon="-3.373703"><ele>506</ele><time>2020-01-18T10:39:02Z</time><name>PT3059</name></trkpt>
<trkpt lat="52.868881" lon="-3.373703"><ele>506</ele><time>2020-01-18T10:39:04Z</time><name>PT3060</name></trkpt>
<trkpt lat="52.868882" lon="-3.373707"><ele>505</ele><time>2020-01-18T10:39:05Z</time><name>PT3061</name></trkpt>
<trkpt lat="52.868882" lon="-3.373717"><ele>505</ele><time>2020-01-18T10:39:05Z</time><name>PT3062</name></trkpt>
<trkpt lat="52.868889" lon="-3.373718"><ele>504</ele><time>2020-01-18T10:39:07Z</time><name>PT3063</name></trkpt>
<trkpt lat="52.868897" lon="-3.373717"><ele>503</ele><time>2020-01-18T10:39:08Z</time><name>PT3064</name></trkpt>
<trkpt lat="52.868901" lon="-3.373722"><ele>503</ele><time>2020-01-18T10:39:08Z</time><name>PT3065</name></trkpt>
<trkpt lat="52.868904" lon="-3.373732"><ele>503</ele><time>2020-01-18T10:39:10Z</time><name>PT3066</name></trkpt>
<trkpt lat="52.868905" lon="-3.373739"><ele>504</ele><time>2020-01-18T10:39:11Z</time><name>PT3067</name></trkpt>
<trkpt lat="52.868908" lon="-3.373741"><ele>504</ele><time>2020-01-18T10:39:11Z</time><name>PT3068</name></trkpt>
<trkpt lat="52.868911" lon="-3.373740"><ele>504</ele><time>2020-01-18T10:39:13Z</time><name>PT3069</name></trkpt>
<trkpt lat="52.868912" lon="-3.373737"><ele>504</ele><time>2020-01-18T10:39:14Z</time><name>PT3070</name></trkpt>
<trkpt lat="52.868916" lon="-3.373725"><ele>504</ele><time>2020-01-18T10:39:14Z</time><name>PT3071</name></trkpt>
<trkpt lat="52.868916" lon="-3.373717"><ele>504</ele><time>2020-01-18T10:39:16Z</time><name>PT3072</name></trkpt>
<trkpt lat="52.868915" lon="-3.373715"><ele>504</ele><time>2020-01-18T10:39:17Z</time><name>PT3073</name></trkpt>
<trkpt lat="52.868918" lon="-3.373715"><ele>504</ele><time>2020-01-18T10:39:17Z</time><name>PT3074</name></trkpt>
<trkpt lat="52.868918" lon="-3.373716"><ele>504</ele><time>2020-01-18T10:39:19Z</time><name>PT3075</name></trkpt>
<trkpt lat="52.868921" lon="-3.373712"><ele>504</ele><time>2020-01-18T10:39:20Z</time><name>PT3076</name></trkpt>
<trkpt lat="52.868924" lon="-3.373714"><ele>504</ele><time>2020-01-18T10:39:20Z</time><name>PT3077</name></trkpt>
<trkpt lat="52.868927" lon="-3.373713"><ele>504</ele><time>2020-01-18T10:39:22Z</time><name>PT3078</name></trkpt>
<trkpt lat="52.868928" lon="-3.373705"><ele>504</ele><time>2020-01-18T10:39:23Z</time><name>PT3079</name></trkpt>
<trkpt lat="52.868933" lon="-3.373701"><ele>504</ele><time>2020-01-18T10:39:23Z</time><name>PT3080</name></trkpt>
<trkpt lat="52.868937" lon="-3.373704"><ele>504</ele><time>2020-01-18T10:39:25Z</time><name>PT3081</name></trkpt>
<trkpt lat="52.868938" lon="-3.373704"><ele>504</ele><time>2020-01-18T10:39:26Z</time><name>PT3082</name></trkpt>
<trkpt lat="52.868940" lon="-3.373704"><ele>504</ele><time>2020-01-18T10:39:26Z</time><name>PT3083</name></trkpt>
<trkpt lat="52.868943" lon="-3.373695"><ele>504</ele><time>2020-01-18T10:39:29Z</time><name>PT3084</name></trkpt>
<trkpt lat="52.868954" lon="-3.373693"><ele>504</ele><time>2020-01-18T10:39:31Z</time><name>PT3085</name></trkpt>
<trkpt lat="52.868960" lon="-3.373697"><ele>504</ele><time>2020-01-18T10:39:32Z</time><name>PT3086</name></trkpt>
<trkpt lat="52.868961" lon="-3.373710"><ele>505</ele><time>2020-01-18T10:39:32Z</time><name>PT3087</name></trkpt>
<trkpt lat="52.868958" lon="-3.373715"><ele>504</ele><time>2020-01-18T10:39:34Z</time><name>PT3088</name></trkpt>
<trkpt lat="52.868957" lon="-3.373713"><ele>504</ele><time>2020-01-18T10:39:35Z</time><name>PT3089</name></trkpt>
<trkpt lat="52.868956" lon="-3.373715"><ele>503</ele><time>2020-01-18T10:39:36Z</time><name>PT3090</name></trkpt>
<trkpt lat="52.868957" lon="-3.373713"><ele>503</ele><time>2020-01-18T10:39:37Z</time><name>PT3091</name></trkpt>
<trkpt lat="52.868962" lon="-3.373713"><ele>503</ele><time>2020-01-18T10:39:38Z</time><name>PT3092</name></trkpt>
<trkpt lat="52.868965" lon="-3.373705"><ele>502</ele><time>2020-01-18T10:39:39Z</time><name>PT3093</name></trkpt>
<trkpt lat="52.868976" lon="-3.373702"><ele>502</ele><time>2020-01-18T10:39:40Z</time><name>PT3094</name></trkpt>
<trkpt lat="52.868988" lon="-3.373703"><ele>503</ele><time>2020-01-18T10:39:41Z</time><name>PT3095</name></trkpt>
<trkpt lat="52.868997" lon="-3.373711"><ele>504</ele><time>2020-01-18T10:39:42Z</time><name>PT3096</name></trkpt>
<trkpt lat="52.869004" lon="-3.373710"><ele>504</ele><time>2020-01-18T10:39:43Z</time><name>PT3097</name></trkpt>
<trkpt lat="52.869009" lon="-3.373711"><ele>504</ele><time>2020-01-18T10:39:44Z</time><name>PT3098</name></trkpt>
<trkpt lat="52.869013" lon="-3.373716"><ele>504</ele><time>2020-01-18T10:39:44Z</time><name>PT3099</name></trkpt>
<trkpt lat="52.869016" lon="-3.373722"><ele>504</ele><time>2020-01-18T10:39:46Z</time><name>PT3100</name></trkpt>
<trkpt lat="52.869022" lon="-3.373727"><ele>504</ele><time>2020-01-18T10:39:47Z</time><name>PT3101</name></trkpt>
<trkpt lat="52.869026" lon="-3.373733"><ele>504</ele><time>2020-01-18T10:39:48Z</time><name>PT3102</name></trkpt>
<trkpt lat="52.869027" lon="-3.373737"><ele>504</ele><time>2020-01-18T10:39:49Z</time><name>PT3103</name></trkpt>
<trkpt lat="52.869031" lon="-3.373740"><ele>504</ele><time>2020-01-18T10:39:50Z</time><name>PT3104</name></trkpt>
<trkpt lat="52.869032" lon="-3.373750"><ele>505</ele><time>2020-01-18T10:39:51Z</time><name>PT3105</name></trkpt>
<trkpt lat="52.869033" lon="-3.373756"><ele>505</ele><time>2020-01-18T10:39:52Z</time><name>PT3106</name></trkpt>
<trkpt lat="52.869039" lon="-3.373764"><ele>505</ele><time>2020-01-18T10:39:53Z</time><name>PT3107</name></trkpt>
<trkpt lat="52.869038" lon="-3.373776"><ele>505</ele><time>2020-01-18T10:39:53Z</time><name>PT3108</name></trkpt>
<trkpt lat="52.869041" lon="-3.373794"><ele>506</ele><time>2020-01-18T10:39:55Z</time><name>PT3109</name></trkpt>
<trkpt lat="52.869046" lon="-3.373800"><ele>505</ele><time>2020-01-18T10:39:56Z</time><name>PT3110</name></trkpt>
<trkpt lat="52.869051" lon="-3.373802"><ele>504</ele><time>2020-01-18T10:39:56Z</time><name>PT3111</name></trkpt>
<trkpt lat="52.869054" lon="-3.373806"><ele>504</ele><time>2020-01-18T10:39:58Z</time><name>PT3112</name></trkpt>
<trkpt lat="52.869048" lon="-3.373810"><ele>504</ele><time>2020-01-18T10:39:59Z</time><name>PT3113</name></trkpt>
<trkpt lat="52.869046" lon="-3.373814"><ele>504</ele><time>2020-01-18T10:39:59Z</time><name>PT3114</name></trkpt>
<trkpt lat="52.869047" lon="-3.373820"><ele>505</ele><time>2020-01-18T10:40:01Z</time><name>PT3115</name></trkpt>
<trkpt lat="52.869049" lon="-3.373826"><ele>505</ele><time>2020-01-18T10:40:02Z</time><name>PT3116</name></trkpt>
<trkpt lat="52.869050" lon="-3.373840"><ele>505</ele><time>2020-01-18T10:40:02Z</time><name>PT3117</name></trkpt>
<trkpt lat="52.869054" lon="-3.373860"><ele>505</ele><time>2020-01-18T10:40:04Z</time><name>PT3118</name></trkpt>
<trkpt lat="52.869058" lon="-3.373863"><ele>505</ele><time>2020-01-18T10:40:05Z</time><name>PT3119</name></trkpt>
<trkpt lat="52.869062" lon="-3.373862"><ele>506</ele><time>2020-01-18T10:40:05Z</time><name>PT3120</name></trkpt>
<trkpt lat="52.869065" lon="-3.373859"><ele>505</ele><time>2020-01-18T10:40:07Z</time><name>PT3121</name></trkpt>
<trkpt lat="52.869068" lon="-3.373859"><ele>505</ele><time>2020-01-18T10:40:08Z</time><name>PT3122</name></trkpt>
<trkpt lat="52.869076" lon="-3.373856"><ele>504</ele><time>2020-01-18T10:40:09Z</time><name>PT3123</name></trkpt>
<trkpt lat="52.869079" lon="-3.373851"><ele>504</ele><time>2020-01-18T10:40:10Z</time><name>PT3124</name></trkpt>
<trkpt lat="52.869085" lon="-3.373840"><ele>504</ele><time>2020-01-18T10:40:11Z</time><name>PT3125</name></trkpt>
<trkpt lat="52.869092" lon="-3.373839"><ele>505</ele><time>2020-01-18T10:40:12Z</time><name>PT3126</name></trkpt>
<trkpt lat="52.869101" lon="-3.373836"><ele>505</ele><time>2020-01-18T10:40:13Z</time><name>PT3127</name></trkpt>
<trkpt lat="52.869115" lon="-3.373829"><ele>505</ele><time>2020-01-18T10:40:14Z</time><name>PT3128</name></trkpt>
<trkpt lat="52.869125" lon="-3.373822"><ele>506</ele><time>2020-01-18T10:40:15Z</time><name>PT3129</name></trkpt>
<trkpt lat="52.869135" lon="-3.373820"><ele>507</ele><time>2020-01-18T10:40:16Z</time><name>PT3130</name></trkpt>
<trkpt lat="52.869144" lon="-3.373820"><ele>507</ele><time>2020-01-18T10:40:17Z</time><name>PT3131</name></trkpt>
<trkpt lat="52.869154" lon="-3.373818"><ele>508</ele><time>2020-01-18T10:40:18Z</time><name>PT3132</name></trkpt>
<trkpt lat="52.869163" lon="-3.373816"><ele>508</ele><time>2020-01-18T10:40:19Z</time><name>PT3133</name></trkpt>
<trkpt lat="52.869174" lon="-3.373812"><ele>508</ele><time>2020-01-18T10:40:20Z</time><name>PT3134</name></trkpt>
<trkpt lat="52.869187" lon="-3.373809"><ele>510</ele><time>2020-01-18T10:40:21Z</time><name>PT3135</name></trkpt>
<trkpt lat="52.869191" lon="-3.373807"><ele>509</ele><time>2020-01-18T10:40:22Z</time><name>PT3136</name></trkpt>
<trkpt lat="52.869197" lon="-3.373807"><ele>510</ele><time>2020-01-18T10:40:23Z</time><name>PT3137</name></trkpt>
<trkpt lat="52.869207" lon="-3.373810"><ele>511</ele><time>2020-01-18T10:40:24Z</time><name>PT3138</name></trkpt>
<trkpt lat="52.869213" lon="-3.373808"><ele>510</ele><time>2020-01-18T10:40:25Z</time><name>PT3139</name></trkpt>
<trkpt lat="52.869220" lon="-3.373807"><ele>510</ele><time>2020-01-18T10:40:26Z</time><name>PT3140</name></trkpt>
<trkpt lat="52.869230" lon="-3.373805"><ele>509</ele><time>2020-01-18T10:40:26Z</time><name>PT3141</name></trkpt>
<trkpt lat="52.869236" lon="-3.373809"><ele>509</ele><time>2020-01-18T10:40:28Z</time><name>PT3142</name></trkpt>
<trkpt lat="52.869239" lon="-3.373808"><ele>509</ele><time>2020-01-18T10:40:29Z</time><name>PT3143</name></trkpt>
<trkpt lat="52.869242" lon="-3.373801"><ele>508</ele><time>2020-01-18T10:40:29Z</time><name>PT3144</name></trkpt>
<trkpt lat="52.869247" lon="-3.373800"><ele>509</ele><time>2020-01-18T10:40:31Z</time><name>PT3145</name></trkpt>
<trkpt lat="52.869253" lon="-3.373800"><ele>509</ele><time>2020-01-18T10:40:32Z</time><name>PT3146</name></trkpt>
<trkpt lat="52.869260" lon="-3.373801"><ele>509</ele><time>2020-01-18T10:40:32Z</time><name>PT3147</name></trkpt>
<trkpt lat="52.869265" lon="-3.373802"><ele>509</ele><time>2020-01-18T10:40:34Z</time><name>PT3148</name></trkpt>
<trkpt lat="52.869267" lon="-3.373802"><ele>508</ele><time>2020-01-18T10:40:35Z</time><name>PT3149</name></trkpt>
<trkpt lat="52.869272" lon="-3.373804"><ele>509</ele><time>2020-01-18T10:40:36Z</time><name>PT3150</name></trkpt>
<trkpt lat="52.869282" lon="-3.373809"><ele>508</ele><time>2020-01-18T10:40:37Z</time><name>PT3151</name></trkpt>
<trkpt lat="52.869288" lon="-3.373814"><ele>508</ele><time>2020-01-18T10:40:38Z</time><name>PT3152</name></trkpt>
<trkpt lat="52.869287" lon="-3.373818"><ele>507</ele><time>2020-01-18T10:40:38Z</time><name>PT3153</name></trkpt>
<trkpt lat="52.869294" lon="-3.373821"><ele>507</ele><time>2020-01-18T10:40:40Z</time><name>PT3154</name></trkpt>
<trkpt lat="52.869300" lon="-3.373823"><ele>508</ele><time>2020-01-18T10:40:41Z</time><name>PT3155</name></trkpt>
<trkpt lat="52.869304" lon="-3.373828"><ele>509</ele><time>2020-01-18T10:40:41Z</time><name>PT3156</name></trkpt>
<trkpt lat="52.869308" lon="-3.373836"><ele>510</ele><time>2020-01-18T10:40:43Z</time><name>PT3157</name></trkpt>
<trkpt lat="52.869317" lon="-3.373842"><ele>510</ele><time>2020-01-18T10:40:44Z</time><name>PT3158</name></trkpt>
<trkpt lat="52.869325" lon="-3.373841"><ele>511</ele><time>2020-01-18T10:40:45Z</time><name>PT3159</name></trkpt>
<trkpt lat="52.869332" lon="-3.373839"><ele>510</ele><time>2020-01-18T10:40:46Z</time><name>PT3160</name></trkpt>
<trkpt lat="52.869338" lon="-3.373842"><ele>511</ele><time>2020-01-18T10:40:47Z</time><name>PT3161</name></trkpt>
<trkpt lat="52.869345" lon="-3.373840"><ele>511</ele><time>2020-01-18T10:40:47Z</time><name>PT3162</name></trkpt>
<trkpt lat="52.869348" lon="-3.373836"><ele>511</ele><time>2020-01-18T10:40:49Z</time><name>PT3163</name></trkpt>
<trkpt lat="52.869355" lon="-3.373836"><ele>511</ele><time>2020-01-18T10:40:50Z</time><name>PT3164</name></trkpt>
<trkpt lat="52.869362" lon="-3.373842"><ele>512</ele><time>2020-01-18T10:40:50Z</time><name>PT3165</name></trkpt>
<trkpt lat="52.869370" lon="-3.373843"><ele>512</ele><time>2020-01-18T10:40:52Z</time><name>PT3166</name></trkpt>
<trkpt lat="52.869378" lon="-3.373847"><ele>513</ele><time>2020-01-18T10:40:53Z</time><name>PT3167</name></trkpt>
<trkpt lat="52.869384" lon="-3.373849"><ele>513</ele><time>2020-01-18T10:40:53Z</time><name>PT3168</name></trkpt>
<trkpt lat="52.869394" lon="-3.373850"><ele>515</ele><time>2020-01-18T10:40:55Z</time><name>PT3169</name></trkpt>
<trkpt lat="52.869403" lon="-3.373852"><ele>515</ele><time>2020-01-18T10:40:56Z</time><name>PT3170</name></trkpt>
<trkpt lat="52.869411" lon="-3.373845"><ele>515</ele><time>2020-01-18T10:40:56Z</time><name>PT3171</name></trkpt>
<trkpt lat="52.869420" lon="-3.373838"><ele>515</ele><time>2020-01-18T10:40:58Z</time><name>PT3172</name></trkpt>
<trkpt lat="52.869429" lon="-3.373834"><ele>515</ele><time>2020-01-18T10:40:59Z</time><name>PT3173</name></trkpt>
<trkpt lat="52.869436" lon="-3.373832"><ele>515</ele><time>2020-01-18T10:40:59Z</time><name>PT3174</name></trkpt>
<trkpt lat="52.869443" lon="-3.373836"><ele>515</ele><time>2020-01-18T10:41:01Z</time><name>PT3175</name></trkpt>
<trkpt lat="52.869451" lon="-3.373839"><ele>515</ele><time>2020-01-18T10:41:02Z</time><name>PT3176</name></trkpt>
<trkpt lat="52.869460" lon="-3.373848"><ele>516</ele><time>2020-01-18T10:41:02Z</time><name>PT3177</name></trkpt>
<trkpt lat="52.869467" lon="-3.373853"><ele>515</ele><time>2020-01-18T10:41:04Z</time><name>PT3178</name></trkpt>
<trkpt lat="52.869474" lon="-3.373857"><ele>516</ele><time>2020-01-18T10:41:05Z</time><name>PT3179</name></trkpt>
<trkpt lat="52.869482" lon="-3.373863"><ele>517</ele><time>2020-01-18T10:41:06Z</time><name>PT3180</name></trkpt>
<trkpt lat="52.869490" lon="-3.373861"><ele>517</ele><time>2020-01-18T10:41:07Z</time><name>PT3181</name></trkpt>
<trkpt lat="52.869497" lon="-3.373860"><ele>517</ele><time>2020-01-18T10:41:08Z</time><name>PT3182</name></trkpt>
<trkpt lat="52.869504" lon="-3.373865"><ele>517</ele><time>2020-01-18T10:41:08Z</time><name>PT3183</name></trkpt>
<trkpt lat="52.869516" lon="-3.373872"><ele>517</ele><time>2020-01-18T10:41:10Z</time><name>PT3184</name></trkpt>
<trkpt lat="52.869526" lon="-3.373873"><ele>518</ele><time>2020-01-18T10:41:11Z</time><name>PT3185</name></trkpt>
<trkpt lat="52.869536" lon="-3.373874"><ele>518</ele><time>2020-01-18T10:41:11Z</time><name>PT3186</name></trkpt>
<trkpt lat="52.869546" lon="-3.373878"><ele>518</ele><time>2020-01-18T10:41:13Z</time><name>PT3187</name></trkpt>
<trkpt lat="52.869556" lon="-3.373882"><ele>519</ele><time>2020-01-18T10:41:14Z</time><name>PT3188</name></trkpt>
<trkpt lat="52.869562" lon="-3.373881"><ele>519</ele><time>2020-01-18T10:41:14Z</time><name>PT3189</name></trkpt>
<trkpt lat="52.869566" lon="-3.373882"><ele>520</ele><time>2020-01-18T10:41:16Z</time><name>PT3190</name></trkpt>
<trkpt lat="52.869573" lon="-3.373884"><ele>521</ele><time>2020-01-18T10:41:17Z</time><name>PT3191</name></trkpt>
<trkpt lat="52.869579" lon="-3.373885"><ele>521</ele><time>2020-01-18T10:41:17Z</time><name>PT3192</name></trkpt>
<trkpt lat="52.869586" lon="-3.373887"><ele>522</ele><time>2020-01-18T10:41:19Z</time><name>PT3193</name></trkpt>
<trkpt lat="52.869593" lon="-3.373887"><ele>522</ele><time>2020-01-18T10:41:20Z</time><name>PT3194</name></trkpt>
<trkpt lat="52.869603" lon="-3.373891"><ele>523</ele><time>2020-01-18T10:41:20Z</time><name>PT3195</name></trkpt>
<trkpt lat="52.869609" lon="-3.373894"><ele>524</ele><time>2020-01-18T10:41:22Z</time><name>PT3196</name></trkpt>
<trkpt lat="52.869615" lon="-3.373893"><ele>523</ele><time>2020-01-18T10:41:23Z</time><name>PT3197</name></trkpt>
<trkpt lat="52.869623" lon="-3.373898"><ele>524</ele><time>2020-01-18T10:41:24Z</time><name>PT3198</name></trkpt>
<trkpt lat="52.869630" lon="-3.373900"><ele>524</ele><time>2020-01-18T10:41:25Z</time><name>PT3199</name></trkpt>
<trkpt lat="52.869631" lon="-3.373905"><ele>524</ele><time>2020-01-18T10:41:26Z</time><name>PT3200</name></trkpt>
<trkpt lat="52.869638" lon="-3.373911"><ele>525</ele><time>2020-01-18T10:41:27Z</time><name>PT3201</name></trkpt>
<trkpt lat="52.869645" lon="-3.373916"><ele>525</ele><time>2020-01-18T10:41:28Z</time><name>PT3202</name></trkpt>
<trkpt lat="52.869651" lon="-3.373920"><ele>526</ele><time>2020-01-18T10:41:29Z</time><name>PT3203</name></trkpt>
<trkpt lat="52.869658" lon="-3.373923"><ele>526</ele><time>2020-01-18T10:41:29Z</time><name>PT3204</name></trkpt>
<trkpt lat="52.869665" lon="-3.373926"><ele>526</ele><time>2020-01-18T10:41:31Z</time><name>PT3205</name></trkpt>
<trkpt lat="52.869670" lon="-3.373926"><ele>527</ele><time>2020-01-18T10:41:32Z</time><name>PT3206</name></trkpt>
<trkpt lat="52.869677" lon="-3.373927"><ele>527</ele><time>2020-01-18T10:41:32Z</time><name>PT3207</name></trkpt>
<trkpt lat="52.869676" lon="-3.373927"><ele>526</ele><time>2020-01-18T10:41:34Z</time><name>PT3208</name></trkpt>
<trkpt lat="52.869677" lon="-3.373930"><ele>526</ele><time>2020-01-18T10:41:35Z</time><name>PT3209</name></trkpt>
<trkpt lat="52.869687" lon="-3.373932"><ele>527</ele><time>2020-01-18T10:41:35Z</time><name>PT3210</name></trkpt>
<trkpt lat="52.869695" lon="-3.373931"><ele>527</ele><time>2020-01-18T10:41:37Z</time><name>PT3211</name></trkpt>
<trkpt lat="52.869702" lon="-3.373933"><ele>527</ele><time>2020-01-18T10:41:38Z</time><name>PT3212</name></trkpt>
<trkpt lat="52.869708" lon="-3.373935"><ele>527</ele><time>2020-01-18T10:41:38Z</time><name>PT3213</name></trkpt>
<trkpt lat="52.869715" lon="-3.373939"><ele>527</ele><time>2020-01-18T10:41:40Z</time><name>PT3214</name></trkpt>
<trkpt lat="52.869723" lon="-3.373940"><ele>527</ele><time>2020-01-18T10:41:41Z</time><name>PT3215</name></trkpt>
<trkpt lat="52.869732" lon="-3.373945"><ele>527</ele><time>2020-01-18T10:41:41Z</time><name>PT3216</name></trkpt>
<trkpt lat="52.869739" lon="-3.373950"><ele>528</ele><time>2020-01-18T10:41:43Z</time><name>PT3217</name></trkpt>
<trkpt lat="52.869747" lon="-3.373947"><ele>528</ele><time>2020-01-18T10:41:44Z</time><name>PT3218</name></trkpt>
<trkpt lat="52.869748" lon="-3.373946"><ele>527</ele><time>2020-01-18T10:41:44Z</time><name>PT3219</name></trkpt>
<trkpt lat="52.869754" lon="-3.373945"><ele>527</ele><time>2020-01-18T10:41:46Z</time><name>PT3220</name></trkpt>
<trkpt lat="52.869760" lon="-3.373947"><ele>527</ele><time>2020-01-18T10:41:47Z</time><name>PT3221</name></trkpt>
<trkpt lat="52.869767" lon="-3.373948"><ele>527</ele><time>2020-01-18T10:41:47Z</time><name>PT3222</name></trkpt>
<trkpt lat="52.869774" lon="-3.373951"><ele>527</ele><time>2020-01-18T10:41:49Z</time><name>PT3223</name></trkpt>
<trkpt lat="52.869778" lon="-3.373955"><ele>526</ele><time>2020-01-18T10:41:50Z</time><name>PT3224</name></trkpt>
<trkpt lat="52.869787" lon="-3.373955"><ele>526</ele><time>2020-01-18T10:41:50Z</time><name>PT3225</name></trkpt>
<trkpt lat="52.869795" lon="-3.373954"><ele>527</ele><time>2020-01-18T10:41:52Z</time><name>PT3226</name></trkpt>
<trkpt lat="52.869800" lon="-3.373951"><ele>527</ele><time>2020-01-18T10:41:53Z</time><name>PT3227</name></trkpt>
<trkpt lat="52.869803" lon="-3.373947"><ele>526</ele><time>2020-01-18T10:41:53Z</time><name>PT3228</name></trkpt>
<trkpt lat="52.869807" lon="-3.373946"><ele>526</ele><time>2020-01-18T10:41:55Z</time><name>PT3229</name></trkpt>
<trkpt lat="52.869810" lon="-3.373949"><ele>525</ele><time>2020-01-18T10:41:56Z</time><name>PT3230</name></trkpt>
<trkpt lat="52.869812" lon="-3.373951"><ele>525</ele><time>2020-01-18T10:41:56Z</time><name>PT3231</name></trkpt>
<trkpt lat="52.869817" lon="-3.373954"><ele>525</ele><time>2020-01-18T10:41:58Z</time><name>PT3232</name></trkpt>
<trkpt lat="52.869824" lon="-3.373958"><ele>525</ele><time>2020-01-18T10:41:59Z</time><name>PT3233</name></trkpt>
<trkpt lat="52.869832" lon="-3.373964"><ele>525</ele><time>2020-01-18T10:41:59Z</time><name>PT3234</name></trkpt>
<trkpt lat="52.869839" lon="-3.373972"><ele>526</ele><time>2020-01-18T10:42:01Z</time><name>PT3235</name></trkpt>
<trkpt lat="52.869846" lon="-3.373971"><ele>526</ele><time>2020-01-18T10:42:02Z</time><name>PT3236</name></trkpt>
<trkpt lat="52.869856" lon="-3.373972"><ele>526</ele><time>2020-01-18T10:42:02Z</time><name>PT3237</name></trkpt>
<trkpt lat="52.869864" lon="-3.373975"><ele>526</ele><time>2020-01-18T10:42:04Z</time><name>PT3238</name></trkpt>
<trkpt lat="52.869869" lon="-3.373977"><ele>526</ele><time>2020-01-18T10:42:05Z</time><name>PT3239</name></trkpt>
<trkpt lat="52.869876" lon="-3.373985"><ele>527</ele><time>2020-01-18T10:42:05Z</time><name>PT3240</name></trkpt>
<trkpt lat="52.869883" lon="-3.373988"><ele>527</ele><time>2020-01-18T10:42:07Z</time><name>PT3241</name></trkpt>
<trkpt lat="52.869889" lon="-3.373997"><ele>527</ele><time>2020-01-18T10:42:08Z</time><name>PT3242</name></trkpt>
<trkpt lat="52.869893" lon="-3.374001"><ele>527</ele><time>2020-01-18T10:42:08Z</time><name>PT3243</name></trkpt>
<trkpt lat="52.869898" lon="-3.374001"><ele>527</ele><time>2020-01-18T10:42:10Z</time><name>PT3244</name></trkpt>
<trkpt lat="52.869902" lon="-3.374002"><ele>527</ele><time>2020-01-18T10:42:11Z</time><name>PT3245</name></trkpt>
<trkpt lat="52.869907" lon="-3.374006"><ele>527</ele><time>2020-01-18T10:42:11Z</time><name>PT3246</name></trkpt>
<trkpt lat="52.869916" lon="-3.374006"><ele>528</ele><time>2020-01-18T10:42:13Z</time><name>PT3247</name></trkpt>
<trkpt lat="52.869924" lon="-3.374006"><ele>527</ele><time>2020-01-18T10:42:14Z</time><name>PT3248</name></trkpt>
<trkpt lat="52.869932" lon="-3.374008"><ele>528</ele><time>2020-01-18T10:42:14Z</time><name>PT3249</name></trkpt>
<trkpt lat="52.869938" lon="-3.374009"><ele>528</ele><time>2020-01-18T10:42:16Z</time><name>PT3250</name></trkpt>
<trkpt lat="52.869943" lon="-3.374011"><ele>528</ele><time>2020-01-18T10:42:17Z</time><name>PT3251</name></trkpt>
<trkpt lat="52.869949" lon="-3.374019"><ele>528</ele><time>2020-01-18T10:42:18Z</time><name>PT3252</name></trkpt>
<trkpt lat="52.869956" lon="-3.374024"><ele>528</ele><time>2020-01-18T10:42:19Z</time><name>PT3253</name></trkpt>
<trkpt lat="52.869963" lon="-3.374025"><ele>527</ele><time>2020-01-18T10:42:20Z</time><name>PT3254</name></trkpt>
<trkpt lat="52.869970" lon="-3.374032"><ele>528</ele><time>2020-01-18T10:42:20Z</time><name>PT3255</name></trkpt>
<trkpt lat="52.869976" lon="-3.374037"><ele>528</ele><time>2020-01-18T10:42:22Z</time><name>PT3256</name></trkpt>
<trkpt lat="52.869979" lon="-3.374040"><ele>528</ele><time>2020-01-18T10:42:23Z</time><name>PT3257</name></trkpt>
<trkpt lat="52.869980" lon="-3.374047"><ele>528</ele><time>2020-01-18T10:42:24Z</time><name>PT3258</name></trkpt>
<trkpt lat="52.869989" lon="-3.374049"><ele>528</ele><time>2020-01-18T10:42:25Z</time><name>PT3259</name></trkpt>
<trkpt lat="52.869995" lon="-3.374060"><ele>529</ele><time>2020-01-18T10:42:26Z</time><name>PT3260</name></trkpt>
<trkpt lat="52.870001" lon="-3.374064"><ele>529</ele><time>2020-01-18T10:42:27Z</time><name>PT3261</name></trkpt>
<trkpt lat="52.870009" lon="-3.374071"><ele>530</ele><time>2020-01-18T10:42:28Z</time><name>PT3262</name></trkpt>
<trkpt lat="52.870015" lon="-3.374076"><ele>530</ele><time>2020-01-18T10:42:29Z</time><name>PT3263</name></trkpt>
<trkpt lat="52.870022" lon="-3.374077"><ele>530</ele><time>2020-01-18T10:42:30Z</time><name>PT3264</name></trkpt>
<trkpt lat="52.870030" lon="-3.374080"><ele>531</ele><time>2020-01-18T10:42:31Z</time><name>PT3265</name></trkpt>
<trkpt lat="52.870035" lon="-3.374091"><ele>532</ele><time>2020-01-18T10:42:32Z</time><name>PT3266</name></trkpt>
<trkpt lat="52.870041" lon="-3.374100"><ele>533</ele><time>2020-01-18T10:42:32Z</time><name>PT3267</name></trkpt>
<trkpt lat="52.870044" lon="-3.374103"><ele>533</ele><time>2020-01-18T10:42:34Z</time><name>PT3268</name></trkpt>
<trkpt lat="52.870053" lon="-3.374104"><ele>533</ele><time>2020-01-18T10:42:35Z</time><name>PT3269</name></trkpt>
<trkpt lat="52.870059" lon="-3.374113"><ele>534</ele><time>2020-01-18T10:42:35Z</time><name>PT3270</name></trkpt>
<trkpt lat="52.870064" lon="-3.374121"><ele>534</ele><time>2020-01-18T10:42:37Z</time><name>PT3271</name></trkpt>
<trkpt lat="52.870066" lon="-3.374127"><ele>535</ele><time>2020-01-18T10:42:38Z</time><name>PT3272</name></trkpt>
<trkpt lat="52.870072" lon="-3.374125"><ele>534</ele><time>2020-01-18T10:42:38Z</time><name>PT3273</name></trkpt>
<trkpt lat="52.870079" lon="-3.374130"><ele>534</ele><time>2020-01-18T10:42:40Z</time><name>PT3274</name></trkpt>
<trkpt lat="52.870084" lon="-3.374138"><ele>534</ele><time>2020-01-18T10:42:41Z</time><name>PT3275</name></trkpt>
<trkpt lat="52.870086" lon="-3.374156"><ele>535</ele><time>2020-01-18T10:42:41Z</time><name>PT3276</name></trkpt>
<trkpt lat="52.870091" lon="-3.374166"><ele>535</ele><time>2020-01-18T10:42:43Z</time><name>PT3277</name></trkpt>
<trkpt lat="52.870094" lon="-3.374174"><ele>536</ele><time>2020-01-18T10:42:44Z</time><name>PT3278</name></trkpt>
<trkpt lat="52.870099" lon="-3.374182"><ele>536</ele><time>2020-01-18T10:42:44Z</time><name>PT3279</name></trkpt>
<trkpt lat="52.870104" lon="-3.374194"><ele>536</ele><time>2020-01-18T10:42:46Z</time><name>PT3280</name></trkpt>
<trkpt lat="52.870111" lon="-3.374201"><ele>537</ele><time>2020-01-18T10:42:47Z</time><name>PT3281</name></trkpt>
<trkpt lat="52.870116" lon="-3.374205"><ele>537</ele><time>2020-01-18T10:42:47Z</time><name>PT3282</name></trkpt>
<trkpt lat="52.870124" lon="-3.374211"><ele>537</ele><time>2020-01-18T10:42:49Z</time><name>PT3283</name></trkpt>
<trkpt lat="52.870131" lon="-3.374218"><ele>537</ele><time>2020-01-18T10:42:50Z</time><name>PT3284</name></trkpt>
<trkpt lat="52.870137" lon="-3.374224"><ele>537</ele><time>2020-01-18T10:42:50Z</time><name>PT3285</name></trkpt>
<trkpt lat="52.870142" lon="-3.374230"><ele>537</ele><time>2020-01-18T10:42:52Z</time><name>PT3286</name></trkpt>
<trkpt lat="52.870149" lon="-3.374233"><ele>537</ele><time>2020-01-18T10:42:53Z</time><name>PT3287</name></trkpt>
<trkpt lat="52.870150" lon="-3.374237"><ele>537</ele><time>2020-01-18T10:42:53Z</time><name>PT3288</name></trkpt>
<trkpt lat="52.870150" lon="-3.374241"><ele>537</ele><time>2020-01-18T10:42:55Z</time><name>PT3289</name></trkpt>
<trkpt lat="52.870153" lon="-3.374249"><ele>537</ele><time>2020-01-18T10:42:56Z</time><name>PT3290</name></trkpt>
<trkpt lat="52.870154" lon="-3.374253"><ele>537</ele><time>2020-01-18T10:42:56Z</time><name>PT3291</name></trkpt>
<trkpt lat="52.870156" lon="-3.374263"><ele>538</ele><time>2020-01-18T10:42:58Z</time><name>PT3292</name></trkpt>
<trkpt lat="52.870157" lon="-3.374262"><ele>537</ele><time>2020-01-18T10:42:59Z</time><name>PT3293</name></trkpt>
<trkpt lat="52.870154" lon="-3.374257"><ele>536</ele><time>2020-01-18T10:42:59Z</time><name>PT3294</name></trkpt>
<trkpt lat="52.870152" lon="-3.374257"><ele>536</ele><time>2020-01-18T10:43:01Z</time><name>PT3295</name></trkpt>
<trkpt lat="52.870155" lon="-3.374254"><ele>536</ele><time>2020-01-18T10:43:02Z</time><name>PT3296</name></trkpt>
<trkpt lat="52.870155" lon="-3.374249"><ele>536</ele><time>2020-01-18T10:43:02Z</time><name>PT3297</name></trkpt>
<trkpt lat="52.870155" lon="-3.374247"><ele>535</ele><time>2020-01-18T10:43:04Z</time><name>PT3298</name></trkpt>
<trkpt lat="52.870158" lon="-3.374247"><ele>536</ele><time>2020-01-18T10:43:05Z</time><name>PT3299</name></trkpt>
<trkpt lat="52.870157" lon="-3.374245"><ele>536</ele><time>2020-01-18T10:43:05Z</time><name>PT3300</name></trkpt>
<trkpt lat="52.870158" lon="-3.374243"><ele>535</ele><time>2020-01-18T10:43:07Z</time><name>PT3301</name></trkpt>
<trkpt lat="52.870156" lon="-3.374242"><ele>535</ele><time>2020-01-18T10:43:08Z</time><name>PT3302</name></trkpt>
<trkpt lat="52.870156" lon="-3.374237"><ele>535</ele><time>2020-01-18T10:43:08Z</time><name>PT3303</name></trkpt>
<trkpt lat="52.870158" lon="-3.374241"><ele>535</ele><time>2020-01-18T10:43:10Z</time><name>PT3304</name></trkpt>
<trkpt lat="52.870158" lon="-3.374240"><ele>535</ele><time>2020-01-18T10:43:11Z</time><name>PT3305</name></trkpt>
<trkpt lat="52.870160" lon="-3.374241"><ele>535</ele><time>2020-01-18T10:43:11Z</time><name>PT3306</name></trkpt>
<trkpt lat="52.870163" lon="-3.374246"><ele>535</ele><time>2020-01-18T10:43:13Z</time><name>PT3307</name></trkpt>
<trkpt lat="52.870167" lon="-3.374255"><ele>535</ele><time>2020-01-18T10:43:14Z</time><name>PT3308</name></trkpt>
<trkpt lat="52.870170" lon="-3.374268"><ele>536</ele><time>2020-01-18T10:43:15Z</time><name>PT3309</name></trkpt>
<trkpt lat="52.870174" lon="-3.374275"><ele>535</ele><time>2020-01-18T10:43:16Z</time><name>PT3310</name></trkpt>
<trkpt lat="52.870179" lon="-3.374280"><ele>535</ele><time>2020-01-18T10:43:17Z</time><name>PT3311</name></trkpt>
<trkpt lat="52.870183" lon="-3.374290"><ele>536</ele><time>2020-01-18T10:43:18Z</time><name>PT3312</name></trkpt>
<trkpt lat="52.870186" lon="-3.374289"><ele>535</ele><time>2020-01-18T10:43:19Z</time><name>PT3313</name></trkpt>
<trkpt lat="52.870188" lon="-3.374292"><ele>535</ele><time>2020-01-18T10:43:20Z</time><name>PT3314</name></trkpt>
<trkpt lat="52.870193" lon="-3.374297"><ele>535</ele><time>2020-01-18T10:43:21Z</time><name>PT3315</name></trkpt>
<trkpt lat="52.870197" lon="-3.374301"><ele>534</ele><time>2020-01-18T10:43:22Z</time><name>PT3316</name></trkpt>
<trkpt lat="52.870199" lon="-3.374303"><ele>534</ele><time>2020-01-18T10:43:23Z</time><name>PT3317</name></trkpt>
<trkpt lat="52.870199" lon="-3.374307"><ele>533</ele><time>2020-01-18T10:43:23Z</time><name>PT3318</name></trkpt>
<trkpt lat="52.870199" lon="-3.374323"><ele>534</ele><time>2020-01-18T10:43:25Z</time><name>PT3319</name></trkpt>
<trkpt lat="52.870198" lon="-3.374331"><ele>533</ele><time>2020-01-18T10:43:26Z</time><name>PT3320</name></trkpt>
<trkpt lat="52.870203" lon="-3.374336"><ele>534</ele><time>2020-01-18T10:43:26Z</time><name>PT3321</name></trkpt>
<trkpt lat="52.870207" lon="-3.374344"><ele>534</ele><time>2020-01-18T10:43:28Z</time><name>PT3322</name></trkpt>
<trkpt lat="52.870211" lon="-3.374352"><ele>534</ele><time>2020-01-18T10:43:29Z</time><name>PT3323</name></trkpt>
<trkpt lat="52.870214" lon="-3.374362"><ele>535</ele><time>2020-01-18T10:43:30Z</time><name>PT3324</name></trkpt>
<trkpt lat="52.870215" lon="-3.374372"><ele>535</ele><time>2020-01-18T10:43:31Z</time><name>PT3325</name></trkpt>
<trkpt lat="52.870219" lon="-3.374380"><ele>535</ele><time>2020-01-18T10:43:32Z</time><name>PT3326</name></trkpt>
<trkpt lat="52.870222" lon="-3.374383"><ele>535</ele><time>2020-01-18T10:43:33Z</time><name>PT3327</name></trkpt>
<trkpt lat="52.870223" lon="-3.374390"><ele>535</ele><time>2020-01-18T10:43:34Z</time><name>PT3328</name></trkpt>
<trkpt lat="52.870228" lon="-3.374398"><ele>535</ele><time>2020-01-18T10:43:35Z</time><name>PT3329</name></trkpt>
<trkpt lat="52.870230" lon="-3.374408"><ele>535</ele><time>2020-01-18T10:43:35Z</time><name>PT3330</name></trkpt>
<trkpt lat="52.870233" lon="-3.374414"><ele>535</ele><time>2020-01-18T10:43:37Z</time><name>PT3331</name></trkpt>
<trkpt lat="52.870234" lon="-3.374419"><ele>534</ele><time>2020-01-18T10:43:38Z</time><name>PT3332</name></trkpt>
<trkpt lat="52.870237" lon="-3.374429"><ele>535</ele><time>2020-01-18T10:43:38Z</time><name>PT3333</name></trkpt>
<trkpt lat="52.870241" lon="-3.374432"><ele>535</ele><time>2020-01-18T10:43:40Z</time><name>PT3334</name></trkpt>
<trkpt lat="52.870243" lon="-3.374429"><ele>534</ele><time>2020-01-18T10:43:41Z</time><name>PT3335</name></trkpt>
<trkpt lat="52.870246" lon="-3.374430"><ele>533</ele><time>2020-01-18T10:43:41Z</time><name>PT3336</name></trkpt>
<trkpt lat="52.870248" lon="-3.374435"><ele>532</ele><time>2020-01-18T10:43:43Z</time><name>PT3337</name></trkpt>
<trkpt lat="52.870253" lon="-3.374442"><ele>533</ele><time>2020-01-18T10:43:44Z</time><name>PT3338</name></trkpt>
<trkpt lat="52.870262" lon="-3.374450"><ele>533</ele><time>2020-01-18T10:43:45Z</time><name>PT3339</name></trkpt>
<trkpt lat="52.870270" lon="-3.374453"><ele>533</ele><time>2020-01-18T10:43:46Z</time><name>PT3340</name></trkpt>
<trkpt lat="52.870275" lon="-3.374460"><ele>533</ele><time>2020-01-18T10:43:47Z</time><name>PT3341</name></trkpt>
<trkpt lat="52.870280" lon="-3.374472"><ele>534</ele><time>2020-01-18T10:43:48Z</time><name>PT3342</name></trkpt>
<trkpt lat="52.870287" lon="-3.374476"><ele>534</ele><time>2020-01-18T10:43:48Z</time><name>PT3343</name></trkpt>
<trkpt lat="52.870291" lon="-3.374487"><ele>535</ele><time>2020-01-18T10:43:50Z</time><name>PT3344</name></trkpt>
<trkpt lat="52.870297" lon="-3.374494"><ele>535</ele><time>2020-01-18T10:43:50Z</time><name>PT3345</name></trkpt>
<trkpt lat="52.870306" lon="-3.374499"><ele>535</ele><time>2020-01-18T10:43:52Z</time><name>PT3346</name></trkpt>
<trkpt lat="52.870312" lon="-3.374504"><ele>535</ele><time>2020-01-18T10:43:53Z</time><name>PT3347</name></trkpt>
<trkpt lat="52.870319" lon="-3.374517"><ele>536</ele><time>2020-01-18T10:43:53Z</time><name>PT3348</name></trkpt>
<trkpt lat="52.870324" lon="-3.374522"><ele>536</ele><time>2020-01-18T10:43:55Z</time><name>PT3349</name></trkpt>
<trkpt lat="52.870331" lon="-3.374529"><ele>536</ele><time>2020-01-18T10:43:56Z</time><name>PT3350</name></trkpt>
<trkpt lat="52.870339" lon="-3.374535"><ele>537</ele><time>2020-01-18T10:43:56Z</time><name>PT3351</name></trkpt>
<trkpt lat="52.870344" lon="-3.374539"><ele>536</ele><time>2020-01-18T10:43:58Z</time><name>PT3352</name></trkpt>
<trkpt lat="52.870350" lon="-3.374540"><ele>536</ele><time>2020-01-18T10:43:59Z</time><name>PT3353</name></trkpt>
<trkpt lat="52.870355" lon="-3.374544"><ele>536</ele><time>2020-01-18T10:43:59Z</time><name>PT3354</name></trkpt>
<trkpt lat="52.870360" lon="-3.374546"><ele>536</ele><time>2020-01-18T10:44:01Z</time><name>PT3355</name></trkpt>
<trkpt lat="52.870366" lon="-3.374547"><ele>536</ele><time>2020-01-18T10:44:02Z</time><name>PT3356</name></trkpt>
<trkpt lat="52.870375" lon="-3.374552"><ele>537</ele><time>2020-01-18T10:44:02Z</time><name>PT3357</name></trkpt>
<trkpt lat="52.870380" lon="-3.374563"><ele>537</ele><time>2020-01-18T10:44:04Z</time><name>PT3358</name></trkpt>
<trkpt lat="52.870388" lon="-3.374579"><ele>538</ele><time>2020-01-18T10:44:05Z</time><name>PT3359</name></trkpt>
<trkpt lat="52.870391" lon="-3.374589"><ele>538</ele><time>2020-01-18T10:44:06Z</time><name>PT3360</name></trkpt>
<trkpt lat="52.870394" lon="-3.374595"><ele>538</ele><time>2020-01-18T10:44:07Z</time><name>PT3361</name></trkpt>
<trkpt lat="52.870398" lon="-3.374611"><ele>539</ele><time>2020-01-18T10:44:08Z</time><name>PT3362</name></trkpt>
<trkpt lat="52.870405" lon="-3.374621"><ele>539</ele><time>2020-01-18T10:44:08Z</time><name>PT3363</name></trkpt>
<trkpt lat="52.870410" lon="-3.374638"><ele>540</ele><time>2020-01-18T10:44:10Z</time><name>PT3364</name></trkpt>
<trkpt lat="52.870416" lon="-3.374648"><ele>540</ele><time>2020-01-18T10:44:11Z</time><name>PT3365</name></trkpt>
<trkpt lat="52.870418" lon="-3.374657"><ele>540</ele><time>2020-01-18T10:44:11Z</time><name>PT3366</name></trkpt>
<trkpt lat="52.870425" lon="-3.374664"><ele>540</ele><time>2020-01-18T10:44:13Z</time><name>PT3367</name></trkpt>
<trkpt lat="52.870433" lon="-3.374671"><ele>541</ele><time>2020-01-18T10:44:14Z</time><name>PT3368</name></trkpt>
<trkpt lat="52.870439" lon="-3.374682"><ele>541</ele><time>2020-01-18T10:44:14Z</time><name>PT3369</name></trkpt>
<trkpt lat="52.870449" lon="-3.374691"><ele>541</ele><time>2020-01-18T10:44:16Z</time><name>PT3370</name></trkpt>
<trkpt lat="52.870456" lon="-3.374696"><ele>541</ele><time>2020-01-18T10:44:17Z</time><name>PT3371</name></trkpt>
<trkpt lat="52.870462" lon="-3.374704"><ele>541</ele><time>2020-01-18T10:44:17Z</time><name>PT3372</name></trkpt>
<trkpt lat="52.870466" lon="-3.374712"><ele>541</ele><time>2020-01-18T10:44:19Z</time><name>PT3373</name></trkpt>
<trkpt lat="52.870472" lon="-3.374717"><ele>541</ele><time>2020-01-18T10:44:20Z</time><name>PT3374</name></trkpt>
<trkpt lat="52.870475" lon="-3.374721"><ele>541</ele><time>2020-01-18T10:44:20Z</time><name>PT3375</name></trkpt>
<trkpt lat="52.870477" lon="-3.374721"><ele>541</ele><time>2020-01-18T10:44:22Z</time><name>PT3376</name></trkpt>
<trkpt lat="52.870485" lon="-3.374717"><ele>541</ele><time>2020-01-18T10:44:23Z</time><name>PT3377</name></trkpt>
<trkpt lat="52.870487" lon="-3.374726"><ele>541</ele><time>2020-01-18T10:44:23Z</time><name>PT3378</name></trkpt>
<trkpt lat="52.870493" lon="-3.374738"><ele>541</ele><time>2020-01-18T10:44:25Z</time><name>PT3379</name></trkpt>
<trkpt lat="52.870498" lon="-3.374745"><ele>541</ele><time>2020-01-18T10:44:26Z</time><name>PT3380</name></trkpt>
<trkpt lat="52.870506" lon="-3.374755"><ele>542</ele><time>2020-01-18T10:44:26Z</time><name>PT3381</name></trkpt>
<trkpt lat="52.870511" lon="-3.374759"><ele>542</ele><time>2020-01-18T10:44:28Z</time><name>PT3382</name></trkpt>
<trkpt lat="52.870519" lon="-3.374760"><ele>542</ele><time>2020-01-18T10:44:29Z</time><name>PT3383</name></trkpt>
<trkpt lat="52.870527" lon="-3.374774"><ele>542</ele><time>2020-01-18T10:44:29Z</time><name>PT3384</name></trkpt>
<trkpt lat="52.870535" lon="-3.374781"><ele>543</ele><time>2020-01-18T10:44:30Z</time><name>PT3385</name></trkpt>
<trkpt lat="52.870543" lon="-3.374781"><ele>543</ele><time>2020-01-18T10:44:32Z</time><name>PT3386</name></trkpt>
<trkpt lat="52.870548" lon="-3.374783"><ele>544</ele><time>2020-01-18T10:44:33Z</time><name>PT3387</name></trkpt>
<trkpt lat="52.870554" lon="-3.374793"><ele>544</ele><time>2020-01-18T10:44:34Z</time><name>PT3388</name></trkpt>
<trkpt lat="52.870559" lon="-3.374799"><ele>544</ele><time>2020-01-18T10:44:35Z</time><name>PT3389</name></trkpt>
<trkpt lat="52.870567" lon="-3.374802"><ele>545</ele><time>2020-01-18T10:44:35Z</time><name>PT3390</name></trkpt>
<trkpt lat="52.870575" lon="-3.374807"><ele>545</ele><time>2020-01-18T10:44:37Z</time><name>PT3391</name></trkpt>
<trkpt lat="52.870581" lon="-3.374816"><ele>545</ele><time>2020-01-18T10:44:38Z</time><name>PT3392</name></trkpt>
<trkpt lat="52.870589" lon="-3.374822"><ele>545</ele><time>2020-01-18T10:44:38Z</time><name>PT3393</name></trkpt>
<trkpt lat="52.870598" lon="-3.374826"><ele>545</ele><time>2020-01-18T10:44:40Z</time><name>PT3394</name></trkpt>
<trkpt lat="52.870608" lon="-3.374832"><ele>545</ele><time>2020-01-18T10:44:41Z</time><name>PT3395</name></trkpt>
<trkpt lat="52.870615" lon="-3.374834"><ele>545</ele><time>2020-01-18T10:44:41Z</time><name>PT3396</name></trkpt>
<trkpt lat="52.870623" lon="-3.374841"><ele>546</ele><time>2020-01-18T10:44:43Z</time><name>PT3397</name></trkpt>
<trkpt lat="52.870632" lon="-3.374848"><ele>546</ele><time>2020-01-18T10:44:44Z</time><name>PT3398</name></trkpt>
<trkpt lat="52.870642" lon="-3.374853"><ele>546</ele><time>2020-01-18T10:44:44Z</time><name>PT3399</name></trkpt>
<trkpt lat="52.870648" lon="-3.374858"><ele>546</ele><time>2020-01-18T10:44:46Z</time><name>PT3400</name></trkpt>
<trkpt lat="52.870654" lon="-3.374861"><ele>546</ele><time>2020-01-18T10:44:47Z</time><name>PT3401</name></trkpt>
<trkpt lat="52.870662" lon="-3.374864"><ele>546</ele><time>2020-01-18T10:44:47Z</time><name>PT3402</name></trkpt>
<trkpt lat="52.870672" lon="-3.374865"><ele>547</ele><time>2020-01-18T10:44:48Z</time><name>PT3403</name></trkpt>
<trkpt lat="52.870683" lon="-3.374863"><ele>547</ele><time>2020-01-18T10:44:50Z</time><name>PT3404</name></trkpt>
<trkpt lat="52.870692" lon="-3.374859"><ele>547</ele><time>2020-01-18T10:44:50Z</time><name>PT3405</name></trkpt>
<trkpt lat="52.870696" lon="-3.374854"><ele>546</ele><time>2020-01-18T10:44:52Z</time><name>PT3406</name></trkpt>
<trkpt lat="52.870704" lon="-3.374856"><ele>546</ele><time>2020-01-18T10:44:53Z</time><name>PT3407</name></trkpt>
<trkpt lat="52.870714" lon="-3.374852"><ele>546</ele><time>2020-01-18T10:44:53Z</time><name>PT3408</name></trkpt>
<trkpt lat="52.870725" lon="-3.374848"><ele>546</ele><time>2020-01-18T10:44:55Z</time><name>PT3409</name></trkpt>
<trkpt lat="52.870731" lon="-3.374846"><ele>546</ele><time>2020-01-18T10:44:56Z</time><name>PT3410</name></trkpt>
<trkpt lat="52.870741" lon="-3.374843"><ele>546</ele><time>2020-01-18T10:44:56Z</time><name>PT3411</name></trkpt>
<trkpt lat="52.870751" lon="-3.374841"><ele>546</ele><time>2020-01-18T10:44:57Z</time><name>PT3412</name></trkpt>
<trkpt lat="52.870763" lon="-3.374844"><ele>547</ele><time>2020-01-18T10:44:59Z</time><name>PT3413</name></trkpt>
<trkpt lat="52.870771" lon="-3.374847"><ele>546</ele><time>2020-01-18T10:44:59Z</time><name>PT3414</name></trkpt>
<trkpt lat="52.870779" lon="-3.374847"><ele>546</ele><time>2020-01-18T10:45:01Z</time><name>PT3415</name></trkpt>
<trkpt lat="52.870782" lon="-3.374847"><ele>545</ele><time>2020-01-18T10:45:02Z</time><name>PT3416</name></trkpt>
<trkpt lat="52.870787" lon="-3.374859"><ele>546</ele><time>2020-01-18T10:45:02Z</time><name>PT3417</name></trkpt>
<trkpt lat="52.870793" lon="-3.374867"><ele>546</ele><time>2020-01-18T10:45:04Z</time><name>PT3418</name></trkpt>
<trkpt lat="52.870799" lon="-3.374878"><ele>547</ele><time>2020-01-18T10:45:05Z</time><name>PT3419</name></trkpt>
<trkpt lat="52.870817" lon="-3.374886"><ele>546</ele><time>2020-01-18T10:45:05Z</time><name>PT3420</name></trkpt>
<trkpt lat="52.870827" lon="-3.374890"><ele>546</ele><time>2020-01-18T10:45:07Z</time><name>PT3421</name></trkpt>
<trkpt lat="52.870834" lon="-3.374892"><ele>546</ele><time>2020-01-18T10:45:08Z</time><name>PT3422</name></trkpt>
<trkpt lat="52.870840" lon="-3.374901"><ele>545</ele><time>2020-01-18T10:45:09Z</time><name>PT3423</name></trkpt>
<trkpt lat="52.870848" lon="-3.374896"><ele>545</ele><time>2020-01-18T10:45:10Z</time><name>PT3424</name></trkpt>
<trkpt lat="52.870854" lon="-3.374903"><ele>544</ele><time>2020-01-18T10:45:11Z</time><name>PT3425</name></trkpt>
<trkpt lat="52.870862" lon="-3.374913"><ele>545</ele><time>2020-01-18T10:45:11Z</time><name>PT3426</name></trkpt>
<trkpt lat="52.870868" lon="-3.374929"><ele>545</ele><time>2020-01-18T10:45:13Z</time><name>PT3427</name></trkpt>
<trkpt lat="52.870872" lon="-3.374939"><ele>546</ele><time>2020-01-18T10:45:14Z</time><name>PT3428</name></trkpt>
<trkpt lat="52.870878" lon="-3.374944"><ele>546</ele><time>2020-01-18T10:45:14Z</time><name>PT3429</name></trkpt>
<trkpt lat="52.870885" lon="-3.374951"><ele>546</ele><time>2020-01-18T10:45:16Z</time><name>PT3430</name></trkpt>
<trkpt lat="52.870888" lon="-3.374962"><ele>546</ele><time>2020-01-18T10:45:17Z</time><name>PT3431</name></trkpt>
<trkpt lat="52.870896" lon="-3.374984"><ele>547</ele><time>2020-01-18T10:45:17Z</time><name>PT3432</name></trkpt>
<trkpt lat="52.870906" lon="-3.374997"><ele>547</ele><time>2020-01-18T10:45:19Z</time><name>PT3433</name></trkpt>
<trkpt lat="52.870913" lon="-3.375007"><ele>547</ele><time>2020-01-18T10:45:20Z</time><name>PT3434</name></trkpt>
<trkpt lat="52.870920" lon="-3.375020"><ele>547</ele><time>2020-01-18T10:45:20Z</time><name>PT3435</name></trkpt>
<trkpt lat="52.870929" lon="-3.375025"><ele>547</ele><time>2020-01-18T10:45:22Z</time><name>PT3436</name></trkpt>
<trkpt lat="52.870937" lon="-3.375037"><ele>547</ele><time>2020-01-18T10:45:23Z</time><name>PT3437</name></trkpt>
<trkpt lat="52.870943" lon="-3.375045"><ele>548</ele><time>2020-01-18T10:45:23Z</time><name>PT3438</name></trkpt>
<trkpt lat="52.870952" lon="-3.375054"><ele>548</ele><time>2020-01-18T10:45:25Z</time><name>PT3439</name></trkpt>
<trkpt lat="52.870961" lon="-3.375058"><ele>548</ele><time>2020-01-18T10:45:26Z</time><name>PT3440</name></trkpt>
<trkpt lat="52.870969" lon="-3.375065"><ele>548</ele><time>2020-01-18T10:45:27Z</time><name>PT3441</name></trkpt>
<trkpt lat="52.870978" lon="-3.375074"><ele>548</ele><time>2020-01-18T10:45:28Z</time><name>PT3442</name></trkpt>
<trkpt lat="52.870987" lon="-3.375081"><ele>548</ele><time>2020-01-18T10:45:29Z</time><name>PT3443</name></trkpt>
<trkpt lat="52.870996" lon="-3.375089"><ele>549</ele><time>2020-01-18T10:45:30Z</time><name>PT3444</name></trkpt>
<trkpt lat="52.871006" lon="-3.375093"><ele>549</ele><time>2020-01-18T10:45:31Z</time><name>PT3445</name></trkpt>
<trkpt lat="52.871013" lon="-3.375095"><ele>549</ele><time>2020-01-18T10:45:32Z</time><name>PT3446</name></trkpt>
<trkpt lat="52.871024" lon="-3.375098"><ele>549</ele><time>2020-01-18T10:45:33Z</time><name>PT3447</name></trkpt>
<trkpt lat="52.871033" lon="-3.375105"><ele>550</ele><time>2020-01-18T10:45:34Z</time><name>PT3448</name></trkpt>
<trkpt lat="52.871041" lon="-3.375108"><ele>550</ele><time>2020-01-18T10:45:35Z</time><name>PT3449</name></trkpt>
<trkpt lat="52.871050" lon="-3.375108"><ele>550</ele><time>2020-01-18T10:45:36Z</time><name>PT3450</name></trkpt>
<trkpt lat="52.871059" lon="-3.375108"><ele>550</ele><time>2020-01-18T10:45:37Z</time><name>PT3451</name></trkpt>
<trkpt lat="52.871067" lon="-3.375115"><ele>550</ele><time>2020-01-18T10:45:38Z</time><name>PT3452</name></trkpt>
<trkpt lat="52.871075" lon="-3.375123"><ele>550</ele><time>2020-01-18T10:45:39Z</time><name>PT3453</name></trkpt>
<trkpt lat="52.871084" lon="-3.375127"><ele>550</ele><time>2020-01-18T10:45:40Z</time><name>PT3454</name></trkpt>
<trkpt lat="52.871095" lon="-3.375132"><ele>551</ele><time>2020-01-18T10:45:41Z</time><name>PT3455</name></trkpt>
<trkpt lat="52.871104" lon="-3.375137"><ele>551</ele><time>2020-01-18T10:45:42Z</time><name>PT3456</name></trkpt>
<trkpt lat="52.871113" lon="-3.375139"><ele>551</ele><time>2020-01-18T10:45:43Z</time><name>PT3457</name></trkpt>
<trkpt lat="52.871121" lon="-3.375141"><ele>552</ele><time>2020-01-18T10:45:44Z</time><name>PT3458</name></trkpt>
<trkpt lat="52.871128" lon="-3.375142"><ele>552</ele><time>2020-01-18T10:45:44Z</time><name>PT3459</name></trkpt>
<trkpt lat="52.871135" lon="-3.375148"><ele>552</ele><time>2020-01-18T10:45:46Z</time><name>PT3460</name></trkpt>
<trkpt lat="52.871144" lon="-3.375154"><ele>552</ele><time>2020-01-18T10:45:47Z</time><name>PT3461</name></trkpt>
<trkpt lat="52.871153" lon="-3.375155"><ele>552</ele><time>2020-01-18T10:45:47Z</time><name>PT3462</name></trkpt>
<trkpt lat="52.871161" lon="-3.375156"><ele>552</ele><time>2020-01-18T10:45:49Z</time><name>PT3463</name></trkpt>
<trkpt lat="52.871168" lon="-3.375161"><ele>553</ele><time>2020-01-18T10:45:50Z</time><name>PT3464</name></trkpt>
<trkpt lat="52.871173" lon="-3.375163"><ele>553</ele><time>2020-01-18T10:45:50Z</time><name>PT3465</name></trkpt>
<trkpt lat="52.871182" lon="-3.375164"><ele>553</ele><time>2020-01-18T10:45:52Z</time><name>PT3466</name></trkpt>
<trkpt lat="52.871190" lon="-3.375166"><ele>553</ele><time>2020-01-18T10:45:53Z</time><name>PT3467</name></trkpt>
<trkpt lat="52.871198" lon="-3.375171"><ele>553</ele><time>2020-01-18T10:45:53Z</time><name>PT3468</name></trkpt>
<trkpt lat="52.871202" lon="-3.375176"><ele>554</ele><time>2020-01-18T10:45:55Z</time><name>PT3469</name></trkpt>
<trkpt lat="52.871209" lon="-3.375183"><ele>554</ele><time>2020-01-18T10:45:56Z</time><name>PT3470</name></trkpt>
<trkpt lat="52.871218" lon="-3.375194"><ele>555</ele><time>2020-01-18T10:45:56Z</time><name>PT3471</name></trkpt>
<trkpt lat="52.871226" lon="-3.375198"><ele>555</ele><time>2020-01-18T10:45:58Z</time><name>PT3472</name></trkpt>
<trkpt lat="52.871231" lon="-3.375201"><ele>556</ele><time>2020-01-18T10:45:59Z</time><name>PT3473</name></trkpt>
<trkpt lat="52.871235" lon="-3.375205"><ele>556</ele><time>2020-01-18T10:45:59Z</time><name>PT3474</name></trkpt>
<trkpt lat="52.871242" lon="-3.375207"><ele>555</ele><time>2020-01-18T10:46:01Z</time><name>PT3475</name></trkpt>
<trkpt lat="52.871248" lon="-3.375209"><ele>555</ele><time>2020-01-18T10:46:02Z</time><name>PT3476</name></trkpt>
<trkpt lat="52.871255" lon="-3.375211"><ele>555</ele><time>2020-01-18T10:46:02Z</time><name>PT3477</name></trkpt>
<trkpt lat="52.871263" lon="-3.375210"><ele>555</ele><time>2020-01-18T10:46:04Z</time><name>PT3478</name></trkpt>
<trkpt lat="52.871271" lon="-3.375210"><ele>555</ele><time>2020-01-18T10:46:05Z</time><name>PT3479</name></trkpt>
<trkpt lat="52.871276" lon="-3.375209"><ele>555</ele><time>2020-01-18T10:46:05Z</time><name>PT3480</name></trkpt>
<trkpt lat="52.871278" lon="-3.375209"><ele>555</ele><time>2020-01-18T10:46:06Z</time><name>PT3481</name></trkpt>
<trkpt lat="52.871285" lon="-3.375211"><ele>555</ele><time>2020-01-18T10:46:08Z</time><name>PT3482</name></trkpt>
<trkpt lat="52.871292" lon="-3.375209"><ele>555</ele><time>2020-01-18T10:46:08Z</time><name>PT3483</name></trkpt>
<trkpt lat="52.871300" lon="-3.375208"><ele>555</ele><time>2020-01-18T10:46:10Z</time><name>PT3484</name></trkpt>
<trkpt lat="52.871308" lon="-3.375208"><ele>555</ele><time>2020-01-18T10:46:11Z</time><name>PT3485</name></trkpt>
<trkpt lat="52.871315" lon="-3.375209"><ele>556</ele><time>2020-01-18T10:46:12Z</time><name>PT3486</name></trkpt>
<trkpt lat="52.871321" lon="-3.375203"><ele>555</ele><time>2020-01-18T10:46:13Z</time><name>PT3487</name></trkpt>
<trkpt lat="52.871332" lon="-3.375202"><ele>556</ele><time>2020-01-18T10:46:14Z</time><name>PT3488</name></trkpt>
<trkpt lat="52.871337" lon="-3.375218"><ele>556</ele><time>2020-01-18T10:46:15Z</time><name>PT3489</name></trkpt>
<trkpt lat="52.871344" lon="-3.375222"><ele>556</ele><time>2020-01-18T10:46:16Z</time><name>PT3490</name></trkpt>
<trkpt lat="52.871355" lon="-3.375217"><ele>555</ele><time>2020-01-18T10:46:17Z</time><name>PT3491</name></trkpt>
<trkpt lat="52.871363" lon="-3.375218"><ele>555</ele><time>2020-01-18T10:46:18Z</time><name>PT3492</name></trkpt>
<trkpt lat="52.871374" lon="-3.375222"><ele>556</ele><time>2020-01-18T10:46:19Z</time><name>PT3493</name></trkpt>
<trkpt lat="52.871382" lon="-3.375223"><ele>556</ele><time>2020-01-18T10:46:20Z</time><name>PT3494</name></trkpt>
<trkpt lat="52.871389" lon="-3.375226"><ele>556</ele><time>2020-01-18T10:46:21Z</time><name>PT3495</name></trkpt>
<trkpt lat="52.871399" lon="-3.375226"><ele>556</ele><time>2020-01-18T10:46:22Z</time><name>PT3496</name></trkpt>
<trkpt lat="52.871406" lon="-3.375223"><ele>556</ele><time>2020-01-18T10:46:23Z</time><name>PT3497</name></trkpt>
<trkpt lat="52.871416" lon="-3.375228"><ele>556</ele><time>2020-01-18T10:46:24Z</time><name>PT3498</name></trkpt>
<trkpt lat="52.871430" lon="-3.375233"><ele>556</ele><time>2020-01-18T10:46:24Z</time><name>PT3499</name></trkpt>
<trkpt lat="52.871438" lon="-3.375237"><ele>557</ele><time>2020-01-18T10:46:26Z</time><name>PT3500</name></trkpt>
<trkpt lat="52.871445" lon="-3.375234"><ele>557</ele><time>2020-01-18T10:46:26Z</time><name>PT3501</name></trkpt>
<trkpt lat="52.871451" lon="-3.375238"><ele>557</ele><time>2020-01-18T10:46:28Z</time><name>PT3502</name></trkpt>
<trkpt lat="52.871455" lon="-3.375240"><ele>557</ele><time>2020-01-18T10:46:29Z</time><name>PT3503</name></trkpt>
<trkpt lat="52.871459" lon="-3.375244"><ele>558</ele><time>2020-01-18T10:46:29Z</time><name>PT3504</name></trkpt>
<trkpt lat="52.871468" lon="-3.375246"><ele>558</ele><time>2020-01-18T10:46:31Z</time><name>PT3505</name></trkpt>
<trkpt lat="52.871479" lon="-3.375247"><ele>558</ele><time>2020-01-18T10:46:32Z</time><name>PT3506</name></trkpt>
<trkpt lat="52.871491" lon="-3.375247"><ele>558</ele><time>2020-01-18T10:46:32Z</time><name>PT3507</name></trkpt>
<trkpt lat="52.871499" lon="-3.375251"><ele>559</ele><time>2020-01-18T10:46:34Z</time><name>PT3508</name></trkpt>
<trkpt lat="52.871510" lon="-3.375251"><ele>558</ele><time>2020-01-18T10:46:35Z</time><name>PT3509</name></trkpt>
<trkpt lat="52.871517" lon="-3.375252"><ele>558</ele><time>2020-01-18T10:46:35Z</time><name>PT3510</name></trkpt>
<trkpt lat="52.871527" lon="-3.375255"><ele>558</ele><time>2020-01-18T10:46:37Z</time><name>PT3511</name></trkpt>
<trkpt lat="52.871529" lon="-3.375257"><ele>558</ele><time>2020-01-18T10:46:38Z</time><name>PT3512</name></trkpt>
<trkpt lat="52.871539" lon="-3.375259"><ele>558</ele><time>2020-01-18T10:46:38Z</time><name>PT3513</name></trkpt>
<trkpt lat="52.871547" lon="-3.375266"><ele>559</ele><time>2020-01-18T10:46:40Z</time><name>PT3514</name></trkpt>
<trkpt lat="52.871554" lon="-3.375269"><ele>559</ele><time>2020-01-18T10:46:41Z</time><name>PT3515</name></trkpt>
<trkpt lat="52.871559" lon="-3.375276"><ele>560</ele><time>2020-01-18T10:46:41Z</time><name>PT3516</name></trkpt>
<trkpt lat="52.871566" lon="-3.375281"><ele>560</ele><time>2020-01-18T10:46:43Z</time><name>PT3517</name></trkpt>
<trkpt lat="52.871569" lon="-3.375284"><ele>559</ele><time>2020-01-18T10:46:44Z</time><name>PT3518</name></trkpt>
<trkpt lat="52.871576" lon="-3.375291"><ele>560</ele><time>2020-01-18T10:46:44Z</time><name>PT3519</name></trkpt>
<trkpt lat="52.871584" lon="-3.375294"><ele>560</ele><time>2020-01-18T10:46:46Z</time><name>PT3520</name></trkpt>
<trkpt lat="52.871592" lon="-3.375296"><ele>560</ele><time>2020-01-18T10:46:47Z</time><name>PT3521</name></trkpt>
<trkpt lat="52.871601" lon="-3.375302"><ele>561</ele><time>2020-01-18T10:46:47Z</time><name>PT3522</name></trkpt>
<trkpt lat="52.871612" lon="-3.375314"><ele>562</ele><time>2020-01-18T10:46:49Z</time><name>PT3523</name></trkpt>
<trkpt lat="52.871619" lon="-3.375319"><ele>562</ele><time>2020-01-18T10:46:50Z</time><name>PT3524</name></trkpt>
<trkpt lat="52.871630" lon="-3.375320"><ele>562</ele><time>2020-01-18T10:46:51Z</time><name>PT3525</name></trkpt>
<trkpt lat="52.871636" lon="-3.375324"><ele>563</ele><time>2020-01-18T10:46:52Z</time><name>PT3526</name></trkpt>
<trkpt lat="52.871643" lon="-3.375327"><ele>563</ele><time>2020-01-18T10:46:53Z</time><name>PT3527</name></trkpt>
<trkpt lat="52.871651" lon="-3.375334"><ele>564</ele><time>2020-01-18T10:46:54Z</time><name>PT3528</name></trkpt>
<trkpt lat="52.871658" lon="-3.375338"><ele>564</ele><time>2020-01-18T10:46:55Z</time><name>PT3529</name></trkpt>
<trkpt lat="52.871666" lon="-3.375342"><ele>564</ele><time>2020-01-18T10:46:56Z</time><name>PT3530</name></trkpt>
<trkpt lat="52.871676" lon="-3.375348"><ele>565</ele><time>2020-01-18T10:46:57Z</time><name>PT3531</name></trkpt>
<trkpt lat="52.871681" lon="-3.375350"><ele>565</ele><time>2020-01-18T10:46:58Z</time><name>PT3532</name></trkpt>
<trkpt lat="52.871684" lon="-3.375355"><ele>565</ele><time>2020-01-18T10:46:59Z</time><name>PT3533</name></trkpt>
<trkpt lat="52.871689" lon="-3.375362"><ele>565</ele><time>2020-01-18T10:46:59Z</time><name>PT3534</name></trkpt>
<trkpt lat="52.871697" lon="-3.375367"><ele>565</ele><time>2020-01-18T10:47:01Z</time><name>PT3535</name></trkpt>
<trkpt lat="52.871703" lon="-3.375373"><ele>565</ele><time>2020-01-18T10:47:02Z</time><name>PT3536</name></trkpt>
<trkpt lat="52.871706" lon="-3.375378"><ele>565</ele><time>2020-01-18T10:47:03Z</time><name>PT3537</name></trkpt>
<trkpt lat="52.871715" lon="-3.375386"><ele>565</ele><time>2020-01-18T10:47:04Z</time><name>PT3538</name></trkpt>
<trkpt lat="52.871722" lon="-3.375386"><ele>566</ele><time>2020-01-18T10:47:05Z</time><name>PT3539</name></trkpt>
<trkpt lat="52.871733" lon="-3.375391"><ele>566</ele><time>2020-01-18T10:47:06Z</time><name>PT3540</name></trkpt>
<trkpt lat="52.871741" lon="-3.375396"><ele>566</ele><time>2020-01-18T10:47:07Z</time><name>PT3541</name></trkpt>
<trkpt lat="52.871747" lon="-3.375400"><ele>566</ele><time>2020-01-18T10:47:08Z</time><name>PT3542</name></trkpt>
<trkpt lat="52.871756" lon="-3.375408"><ele>567</ele><time>2020-01-18T10:47:08Z</time><name>PT3543</name></trkpt>
<trkpt lat="52.871766" lon="-3.375415"><ele>567</ele><time>2020-01-18T10:47:10Z</time><name>PT3544</name></trkpt>
<trkpt lat="52.871775" lon="-3.375422"><ele>568</ele><time>2020-01-18T10:47:11Z</time><name>PT3545</name></trkpt>
<trkpt lat="52.871783" lon="-3.375427"><ele>568</ele><time>2020-01-18T10:47:11Z</time><name>PT3546</name></trkpt>
<trkpt lat="52.871790" lon="-3.375433"><ele>568</ele><time>2020-01-18T10:47:13Z</time><name>PT3547</name></trkpt>
<trkpt lat="52.871801" lon="-3.375437"><ele>568</ele><time>2020-01-18T10:47:14Z</time><name>PT3548</name></trkpt>
<trkpt lat="52.871808" lon="-3.375445"><ele>569</ele><time>2020-01-18T10:47:14Z</time><name>PT3549</name></trkpt>
<trkpt lat="52.871816" lon="-3.375447"><ele>569</ele><time>2020-01-18T10:47:16Z</time><name>PT3550</name></trkpt>
<trkpt lat="52.871822" lon="-3.375452"><ele>569</ele><time>2020-01-18T10:47:17Z</time><name>PT3551</name></trkpt>
<trkpt lat="52.871827" lon="-3.375460"><ele>569</ele><time>2020-01-18T10:47:17Z</time><name>PT3552</name></trkpt>
<trkpt lat="52.871834" lon="-3.375463"><ele>569</ele><time>2020-01-18T10:47:19Z</time><name>PT3553</name></trkpt>
<trkpt lat="52.871842" lon="-3.375469"><ele>569</ele><time>2020-01-18T10:47:20Z</time><name>PT3554</name></trkpt>
<trkpt lat="52.871852" lon="-3.375476"><ele>568</ele><time>2020-01-18T10:47:20Z</time><name>PT3555</name></trkpt>
<trkpt lat="52.871855" lon="-3.375484"><ele>568</ele><time>2020-01-18T10:47:22Z</time><name>PT3556</name></trkpt>
<trkpt lat="52.871862" lon="-3.375486"><ele>569</ele><time>2020-01-18T10:47:23Z</time><name>PT3557</name></trkpt>
<trkpt lat="52.871866" lon="-3.375489"><ele>569</ele><time>2020-01-18T10:47:23Z</time><name>PT3558</name></trkpt>
<trkpt lat="52.871872" lon="-3.375491"><ele>568</ele><time>2020-01-18T10:47:25Z</time><name>PT3559</name></trkpt>
<trkpt lat="52.871879" lon="-3.375497"><ele>568</ele><time>2020-01-18T10:47:26Z</time><name>PT3560</name></trkpt>
<trkpt lat="52.871885" lon="-3.375507"><ele>568</ele><time>2020-01-18T10:47:26Z</time><name>PT3561</name></trkpt>
<trkpt lat="52.871892" lon="-3.375514"><ele>568</ele><time>2020-01-18T10:47:28Z</time><name>PT3562</name></trkpt>
<trkpt lat="52.871897" lon="-3.375520"><ele>568</ele><time>2020-01-18T10:47:29Z</time><name>PT3563</name></trkpt>
<trkpt lat="52.871903" lon="-3.375529"><ele>568</ele><time>2020-01-18T10:47:30Z</time><name>PT3564</name></trkpt>
<trkpt lat="52.871909" lon="-3.375534"><ele>568</ele><time>2020-01-18T10:47:31Z</time><name>PT3565</name></trkpt>
<trkpt lat="52.871916" lon="-3.375539"><ele>568</ele><time>2020-01-18T10:47:32Z</time><name>PT3566</name></trkpt>
<trkpt lat="52.871925" lon="-3.375541"><ele>568</ele><time>2020-01-18T10:47:32Z</time><name>PT3567</name></trkpt>
<trkpt lat="52.871934" lon="-3.375549"><ele>568</ele><time>2020-01-18T10:47:34Z</time><name>PT3568</name></trkpt>
<trkpt lat="52.871940" lon="-3.375565"><ele>569</ele><time>2020-01-18T10:47:35Z</time><name>PT3569</name></trkpt>
<trkpt lat="52.871942" lon="-3.375573"><ele>568</ele><time>2020-01-18T10:47:35Z</time><name>PT3570</name></trkpt>
<trkpt lat="52.871947" lon="-3.375582"><ele>569</ele><time>2020-01-18T10:47:37Z</time><name>PT3571</name></trkpt>
<trkpt lat="52.871957" lon="-3.375596"><ele>570</ele><time>2020-01-18T10:47:38Z</time><name>PT3572</name></trkpt>
<trkpt lat="52.871966" lon="-3.375604"><ele>570</ele><time>2020-01-18T10:47:38Z</time><name>PT3573</name></trkpt>
<trkpt lat="52.871974" lon="-3.375608"><ele>570</ele><time>2020-01-18T10:47:40Z</time><name>PT3574</name></trkpt>
<trkpt lat="52.871976" lon="-3.375608"><ele>570</ele><time>2020-01-18T10:47:41Z</time><name>PT3575</name></trkpt>
<trkpt lat="52.871980" lon="-3.375611"><ele>570</ele><time>2020-01-18T10:47:41Z</time><name>PT3576</name></trkpt>
<trkpt lat="52.871984" lon="-3.375611"><ele>569</ele><time>2020-01-18T10:47:43Z</time><name>PT3577</name></trkpt>
<trkpt lat="52.871991" lon="-3.375613"><ele>569</ele><time>2020-01-18T10:47:44Z</time><name>PT3578</name></trkpt>
<trkpt lat="52.871997" lon="-3.375619"><ele>569</ele><time>2020-01-18T10:47:45Z</time><name>PT3579</name></trkpt>
<trkpt lat="52.872006" lon="-3.375622"><ele>569</ele><time>2020-01-18T10:47:46Z</time><name>PT3580</name></trkpt>
<trkpt lat="52.872016" lon="-3.375634"><ele>570</ele><time>2020-01-18T10:47:47Z</time><name>PT3581</name></trkpt>
<trkpt lat="52.872021" lon="-3.375640"><ele>570</ele><time>2020-01-18T10:47:48Z</time><name>PT3582</name></trkpt>
<trkpt lat="52.872027" lon="-3.375647"><ele>570</ele><time>2020-01-18T10:47:49Z</time><name>PT3583</name></trkpt>
<trkpt lat="52.872037" lon="-3.375652"><ele>571</ele><time>2020-01-18T10:47:50Z</time><name>PT3584</name></trkpt>
<trkpt lat="52.872042" lon="-3.375657"><ele>571</ele><time>2020-01-18T10:47:51Z</time><name>PT3585</name></trkpt>
<trkpt lat="52.872049" lon="-3.375663"><ele>571</ele><time>2020-01-18T10:47:52Z</time><name>PT3586</name></trkpt>
<trkpt lat="52.872057" lon="-3.375667"><ele>571</ele><time>2020-01-18T10:47:53Z</time><name>PT3587</name></trkpt>
<trkpt lat="52.872064" lon="-3.375673"><ele>572</ele><time>2020-01-18T10:47:53Z</time><name>PT3588</name></trkpt>
<trkpt lat="52.872071" lon="-3.375677"><ele>572</ele><time>2020-01-18T10:47:55Z</time><name>PT3589</name></trkpt>
<trkpt lat="52.872078" lon="-3.375688"><ele>572</ele><time>2020-01-18T10:47:56Z</time><name>PT3590</name></trkpt>
<trkpt lat="52.872084" lon="-3.375699"><ele>573</ele><time>2020-01-18T10:47:57Z</time><name>PT3591</name></trkpt>
<trkpt lat="52.872091" lon="-3.375702"><ele>573</ele><time>2020-01-18T10:47:58Z</time><name>PT3592</name></trkpt>
<trkpt lat="52.872098" lon="-3.375710"><ele>573</ele><time>2020-01-18T10:47:59Z</time><name>PT3593</name></trkpt>
<trkpt lat="52.872107" lon="-3.375720"><ele>574</ele><time>2020-01-18T10:48:00Z</time><name>PT3594</name></trkpt>
<trkpt lat="52.872112" lon="-3.375719"><ele>573</ele><time>2020-01-18T10:48:01Z</time><name>PT3595</name></trkpt>
<trkpt lat="52.872120" lon="-3.375723"><ele>573</ele><time>2020-01-18T10:48:02Z</time><name>PT3596</name></trkpt>
<trkpt lat="52.872132" lon="-3.375727"><ele>574</ele><time>2020-01-18T10:48:02Z</time><name>PT3597</name></trkpt>
<trkpt lat="52.872138" lon="-3.375735"><ele>574</ele><time>2020-01-18T10:48:04Z</time><name>PT3598</name></trkpt>
<trkpt lat="52.872142" lon="-3.375747"><ele>574</ele><time>2020-01-18T10:48:05Z</time><name>PT3599</name></trkpt>
<trkpt lat="52.872149" lon="-3.375756"><ele>574</ele><time>2020-01-18T10:48:05Z</time><name>PT3600</name></trkpt>
<trkpt lat="52.872157" lon="-3.375761"><ele>574</ele><time>2020-01-18T10:48:07Z</time><name>PT3601</name></trkpt>
<trkpt lat="52.872165" lon="-3.375765"><ele>574</ele><time>2020-01-18T10:48:08Z</time><name>PT3602</name></trkpt>
<trkpt lat="52.872170" lon="-3.375768"><ele>574</ele><time>2020-01-18T10:48:08Z</time><name>PT3603</name></trkpt>
<trkpt lat="52.872178" lon="-3.375768"><ele>574</ele><time>2020-01-18T10:48:10Z</time><name>PT3604</name></trkpt>
<trkpt lat="52.872187" lon="-3.375774"><ele>574</ele><time>2020-01-18T10:48:11Z</time><name>PT3605</name></trkpt>
<trkpt lat="52.872195" lon="-3.375777"><ele>574</ele><time>2020-01-18T10:48:11Z</time><name>PT3606</name></trkpt>
<trkpt lat="52.872197" lon="-3.375783"><ele>575</ele><time>2020-01-18T10:48:13Z</time><name>PT3607</name></trkpt>
<trkpt lat="52.872204" lon="-3.375786"><ele>575</ele><time>2020-01-18T10:48:14Z</time><name>PT3608</name></trkpt>
<trkpt lat="52.872211" lon="-3.375789"><ele>575</ele><time>2020-01-18T10:48:14Z</time><name>PT3609</name></trkpt>
<trkpt lat="52.872218" lon="-3.375796"><ele>576</ele><time>2020-01-18T10:48:16Z</time><name>PT3610</name></trkpt>
<trkpt lat="52.872222" lon="-3.375802"><ele>576</ele><time>2020-01-18T10:48:17Z</time><name>PT3611</name></trkpt>
<trkpt lat="52.872225" lon="-3.375803"><ele>576</ele><time>2020-01-18T10:48:17Z</time><name>PT3612</name></trkpt>
<trkpt lat="52.872230" lon="-3.375806"><ele>576</ele><time>2020-01-18T10:48:19Z</time><name>PT3613</name></trkpt>
<trkpt lat="52.872234" lon="-3.375802"><ele>576</ele><time>2020-01-18T10:48:20Z</time><name>PT3614</name></trkpt>
<trkpt lat="52.872239" lon="-3.375808"><ele>576</ele><time>2020-01-18T10:48:20Z</time><name>PT3615</name></trkpt>
<trkpt lat="52.872242" lon="-3.375814"><ele>576</ele><time>2020-01-18T10:48:22Z</time><name>PT3616</name></trkpt>
<trkpt lat="52.872246" lon="-3.375818"><ele>576</ele><time>2020-01-18T10:48:23Z</time><name>PT3617</name></trkpt>
<trkpt lat="52.872249" lon="-3.375826"><ele>576</ele><time>2020-01-18T10:48:26Z</time><name>PT3618</name></trkpt>
<trkpt lat="52.872255" lon="-3.375837"><ele>576</ele><time>2020-01-18T10:48:26Z</time><name>PT3619</name></trkpt>
<trkpt lat="52.872258" lon="-3.375844"><ele>576</ele><time>2020-01-18T10:48:28Z</time><name>PT3620</name></trkpt>
<trkpt lat="52.872260" lon="-3.375846"><ele>576</ele><time>2020-01-18T10:48:29Z</time><name>PT3621</name></trkpt>
<trkpt lat="52.872264" lon="-3.375855"><ele>576</ele><time>2020-01-18T10:48:29Z</time><name>PT3622</name></trkpt>
<trkpt lat="52.872268" lon="-3.375861"><ele>576</ele><time>2020-01-18T10:48:30Z</time><name>PT3623</name></trkpt>
<trkpt lat="52.872270" lon="-3.375866"><ele>576</ele><time>2020-01-18T10:48:32Z</time><name>PT3624</name></trkpt>
<trkpt lat="52.872271" lon="-3.375872"><ele>576</ele><time>2020-01-18T10:48:33Z</time><name>PT3625</name></trkpt>
<trkpt lat="52.872274" lon="-3.375885"><ele>576</ele><time>2020-01-18T10:48:34Z</time><name>PT3626</name></trkpt>
<trkpt lat="52.872273" lon="-3.375891"><ele>576</ele><time>2020-01-18T10:48:35Z</time><name>PT3627</name></trkpt>
<trkpt lat="52.872276" lon="-3.375893"><ele>577</ele><time>2020-01-18T10:48:36Z</time><name>PT3628</name></trkpt>
<trkpt lat="52.872279" lon="-3.375897"><ele>577</ele><time>2020-01-18T10:48:37Z</time><name>PT3629</name></trkpt>
<trkpt lat="52.872278" lon="-3.375898"><ele>576</ele><time>2020-01-18T10:48:38Z</time><name>PT3630</name></trkpt>
<trkpt lat="52.872283" lon="-3.375908"><ele>577</ele><time>2020-01-18T10:48:40Z</time><name>PT3631</name></trkpt>
<trkpt lat="52.872285" lon="-3.375923"><ele>577</ele><time>2020-01-18T10:48:41Z</time><name>PT3632</name></trkpt>
<trkpt lat="52.872292" lon="-3.375922"><ele>577</ele><time>2020-01-18T10:48:41Z</time><name>PT3633</name></trkpt>
<trkpt lat="52.872307" lon="-3.375900"><ele>578</ele><time>2020-01-18T10:48:43Z</time><name>PT3634</name></trkpt>
<trkpt lat="52.872309" lon="-3.375887"><ele>576</ele><time>2020-01-18T10:48:44Z</time><name>PT3635</name></trkpt>
<trkpt lat="52.872308" lon="-3.375880"><ele>576</ele><time>2020-01-18T10:48:44Z</time><name>PT3636</name></trkpt>
<trkpt lat="52.872306" lon="-3.375880"><ele>576</ele><time>2020-01-18T10:48:46Z</time><name>PT3637</name></trkpt>
<trkpt lat="52.872301" lon="-3.375879"><ele>577</ele><time>2020-01-18T10:48:49Z</time><name>PT3638</name></trkpt>
<trkpt lat="52.872302" lon="-3.375870"><ele>577</ele><time>2020-01-18T10:48:50Z</time><name>PT3639</name></trkpt>
<trkpt lat="52.872308" lon="-3.375871"><ele>576</ele><time>2020-01-18T10:48:50Z</time><name>PT3640</name></trkpt>
<trkpt lat="52.872309" lon="-3.375874"><ele>576</ele><time>2020-01-18T10:48:52Z</time><name>PT3641</name></trkpt>
<trkpt lat="52.872312" lon="-3.375875"><ele>577</ele><time>2020-01-18T10:48:53Z</time><name>PT3642</name></trkpt>
<trkpt lat="52.872314" lon="-3.375872"><ele>577</ele><time>2020-01-18T10:49:14Z</time><name>PT3643</name></trkpt>
<trkpt lat="52.872316" lon="-3.375877"><ele>577</ele><time>2020-01-18T10:49:14Z</time><name>PT3644</name></trkpt>
<trkpt lat="52.872317" lon="-3.375878"><ele>577</ele><time>2020-01-18T10:49:16Z</time><name>PT3645</name></trkpt>
<trkpt lat="52.872318" lon="-3.375877"><ele>577</ele><time>2020-01-18T10:49:17Z</time><name>PT3646</name></trkpt>
<trkpt lat="52.872318" lon="-3.375879"><ele>578</ele><time>2020-01-18T10:49:17Z</time><name>PT3647</name></trkpt>
<trkpt lat="52.872318" lon="-3.375879"><ele>577</ele><time>2020-01-18T10:49:32Z</time><name>PT3648</name></trkpt>
<trkpt lat="52.872317" lon="-3.375878"><ele>577</ele><time>2020-01-18T10:49:33Z</time><name>PT3649</name></trkpt>
<trkpt lat="52.872316" lon="-3.375877"><ele>577</ele><time>2020-01-18T10:49:34Z</time><name>PT3650</name></trkpt>
<trkpt lat="52.872314" lon="-3.375878"><ele>577</ele><time>2020-01-18T10:49:35Z</time><name>PT3651</name></trkpt>
<trkpt lat="52.872315" lon="-3.375874"><ele>577</ele><time>2020-01-18T10:49:44Z</time><name>PT3652</name></trkpt>
<trkpt lat="52.872315" lon="-3.375872"><ele>577</ele><time>2020-01-18T10:49:44Z</time><name>PT3653</name></trkpt>
<trkpt lat="52.872315" lon="-3.375872"><ele>577</ele><time>2020-01-18T10:50:04Z</time><name>PT3654</name></trkpt>
<trkpt lat="52.872315" lon="-3.375872"><ele>578</ele><time>2020-01-18T10:50:05Z</time><name>PT3655</name></trkpt>
<trkpt lat="52.872318" lon="-3.375868"><ele>578</ele><time>2020-01-18T10:50:06Z</time><name>PT3656</name></trkpt>
<trkpt lat="52.872319" lon="-3.375874"><ele>578</ele><time>2020-01-18T10:50:07Z</time><name>PT3657</name></trkpt>
<trkpt lat="52.872321" lon="-3.375874"><ele>578</ele><time>2020-01-18T10:50:08Z</time><name>PT3658</name></trkpt>
<trkpt lat="52.872323" lon="-3.375877"><ele>578</ele><time>2020-01-18T10:50:09Z</time><name>PT3659</name></trkpt>
<trkpt lat="52.872324" lon="-3.375875"><ele>578</ele><time>2020-01-18T10:50:10Z</time><name>PT3660</name></trkpt>
<trkpt lat="52.872326" lon="-3.375885"><ele>579</ele><time>2020-01-18T10:50:12Z</time><name>PT3661</name></trkpt>
<trkpt lat="52.872330" lon="-3.375907"><ele>578</ele><time>2020-01-18T10:50:13Z</time><name>PT3662</name></trkpt>
<trkpt lat="52.872329" lon="-3.375902"><ele>578</ele><time>2020-01-18T10:50:14Z</time><name>PT3663</name></trkpt>
<trkpt lat="52.872332" lon="-3.375903"><ele>578</ele><time>2020-01-18T10:50:14Z</time><name>PT3664</name></trkpt>
<trkpt lat="52.872337" lon="-3.375901"><ele>578</ele><time>2020-01-18T10:50:15Z</time><name>PT3665</name></trkpt>
<trkpt lat="52.872342" lon="-3.375893"><ele>577</ele><time>2020-01-18T10:50:17Z</time><name>PT3666</name></trkpt>
<trkpt lat="52.872347" lon="-3.375887"><ele>577</ele><time>2020-01-18T10:50:17Z</time><name>PT3667</name></trkpt>
<trkpt lat="52.872351" lon="-3.375885"><ele>577</ele><time>2020-01-18T10:50:19Z</time><name>PT3668</name></trkpt>
<trkpt lat="52.872352" lon="-3.375889"><ele>577</ele><time>2020-01-18T10:50:20Z</time><name>PT3669</name></trkpt>
<trkpt lat="52.872356" lon="-3.375893"><ele>578</ele><time>2020-01-18T10:50:21Z</time><name>PT3670</name></trkpt>
<trkpt lat="52.872361" lon="-3.375896"><ele>577</ele><time>2020-01-18T10:50:22Z</time><name>PT3671</name></trkpt>
<trkpt lat="52.872368" lon="-3.375904"><ele>578</ele><time>2020-01-18T10:50:23Z</time><name>PT3672</name></trkpt>
<trkpt lat="52.872381" lon="-3.375914"><ele>578</ele><time>2020-01-18T10:50:24Z</time><name>PT3673</name></trkpt>
<trkpt lat="52.872387" lon="-3.375916"><ele>577</ele><time>2020-01-18T10:50:25Z</time><name>PT3674</name></trkpt>
<trkpt lat="52.872390" lon="-3.375918"><ele>577</ele><time>2020-01-18T10:50:26Z</time><name>PT3675</name></trkpt>
<trkpt lat="52.872393" lon="-3.375921"><ele>577</ele><time>2020-01-18T10:50:27Z</time><name>PT3676</name></trkpt>
<trkpt lat="52.872399" lon="-3.375919"><ele>577</ele><time>2020-01-18T10:50:28Z</time><name>PT3677</name></trkpt>
<trkpt lat="52.872403" lon="-3.375918"><ele>578</ele><time>2020-01-18T10:50:29Z</time><name>PT3678</name></trkpt>
<trkpt lat="52.872406" lon="-3.375920"><ele>577</ele><time>2020-01-18T10:50:30Z</time><name>PT3679</name></trkpt>
<trkpt lat="52.872412" lon="-3.375917"><ele>577</ele><time>2020-01-18T10:50:31Z</time><name>PT3680</name></trkpt>
<trkpt lat="52.872418" lon="-3.375921"><ele>578</ele><time>2020-01-18T10:50:32Z</time><name>PT3681</name></trkpt>
<trkpt lat="52.872422" lon="-3.375921"><ele>578</ele><time>2020-01-18T10:50:32Z</time><name>PT3682</name></trkpt>
<trkpt lat="52.872427" lon="-3.375919"><ele>578</ele><time>2020-01-18T10:50:34Z</time><name>PT3683</name></trkpt>
<trkpt lat="52.872435" lon="-3.375926"><ele>579</ele><time>2020-01-18T10:50:35Z</time><name>PT3684</name></trkpt>
<trkpt lat="52.872440" lon="-3.375926"><ele>579</ele><time>2020-01-18T10:50:35Z</time><name>PT3685</name></trkpt>
<trkpt lat="52.872447" lon="-3.375928"><ele>579</ele><time>2020-01-18T10:50:37Z</time><name>PT3686</name></trkpt>
<trkpt lat="52.872453" lon="-3.375928"><ele>579</ele><time>2020-01-18T10:50:38Z</time><name>PT3687</name></trkpt>
<trkpt lat="52.872460" lon="-3.375928"><ele>579</ele><time>2020-01-18T10:50:38Z</time><name>PT3688</name></trkpt>
<trkpt lat="52.872466" lon="-3.375928"><ele>579</ele><time>2020-01-18T10:50:40Z</time><name>PT3689</name></trkpt>
<trkpt lat="52.872470" lon="-3.375929"><ele>579</ele><time>2020-01-18T10:50:41Z</time><name>PT3690</name></trkpt>
<trkpt lat="52.872480" lon="-3.375927"><ele>580</ele><time>2020-01-18T10:50:41Z</time><name>PT3691</name></trkpt>
<trkpt lat="52.872490" lon="-3.375925"><ele>580</ele><time>2020-01-18T10:50:43Z</time><name>PT3692</name></trkpt>
<trkpt lat="52.872497" lon="-3.375926"><ele>581</ele><time>2020-01-18T10:50:44Z</time><name>PT3693</name></trkpt>
<trkpt lat="52.872500" lon="-3.375924"><ele>581</ele><time>2020-01-18T10:50:45Z</time><name>PT3694</name></trkpt>
<trkpt lat="52.872505" lon="-3.375923"><ele>581</ele><time>2020-01-18T10:50:46Z</time><name>PT3695</name></trkpt>
<trkpt lat="52.872511" lon="-3.375923"><ele>582</ele><time>2020-01-18T10:50:47Z</time><name>PT3696</name></trkpt>
<trkpt lat="52.872515" lon="-3.375923"><ele>582</ele><time>2020-01-18T10:50:48Z</time><name>PT3697</name></trkpt>
<trkpt lat="52.872521" lon="-3.375923"><ele>583</ele><time>2020-01-18T10:50:49Z</time><name>PT3698</name></trkpt>
<trkpt lat="52.872526" lon="-3.375924"><ele>583</ele><time>2020-01-18T10:50:50Z</time><name>PT3699</name></trkpt>
<trkpt lat="52.872531" lon="-3.375922"><ele>583</ele><time>2020-01-18T10:50:50Z</time><name>PT3700</name></trkpt>
<trkpt lat="52.872540" lon="-3.375915"><ele>583</ele><time>2020-01-18T10:50:52Z</time><name>PT3701</name></trkpt>
<trkpt lat="52.872549" lon="-3.375912"><ele>583</ele><time>2020-01-18T10:50:53Z</time><name>PT3702</name></trkpt>
<trkpt lat="52.872558" lon="-3.375910"><ele>584</ele><time>2020-01-18T10:50:53Z</time><name>PT3703</name></trkpt>
<trkpt lat="52.872562" lon="-3.375912"><ele>585</ele><time>2020-01-18T10:50:55Z</time><name>PT3704</name></trkpt>
<trkpt lat="52.872567" lon="-3.375913"><ele>585</ele><time>2020-01-18T10:50:56Z</time><name>PT3705</name></trkpt>
<trkpt lat="52.872571" lon="-3.375914"><ele>585</ele><time>2020-01-18T10:50:56Z</time><name>PT3706</name></trkpt>
<trkpt lat="52.872574" lon="-3.375912"><ele>584</ele><time>2020-01-18T10:50:58Z</time><name>PT3707</name></trkpt>
<trkpt lat="52.872576" lon="-3.375913"><ele>585</ele><time>2020-01-18T10:50:59Z</time><name>PT3708</name></trkpt>
<trkpt lat="52.872577" lon="-3.375915"><ele>585</ele><time>2020-01-18T10:50:59Z</time><name>PT3709</name></trkpt>
<trkpt lat="52.872580" lon="-3.375922"><ele>585</ele><time>2020-01-18T10:51:00Z</time><name>PT3710</name></trkpt>
<trkpt lat="52.872585" lon="-3.375928"><ele>586</ele><time>2020-01-18T10:51:02Z</time><name>PT3711</name></trkpt>
<trkpt lat="52.872586" lon="-3.375933"><ele>585</ele><time>2020-01-18T10:51:02Z</time><name>PT3712</name></trkpt>
<trkpt lat="52.872589" lon="-3.375941"><ele>585</ele><time>2020-01-18T10:51:04Z</time><name>PT3713</name></trkpt>
<trkpt lat="52.872594" lon="-3.375951"><ele>586</ele><time>2020-01-18T10:51:05Z</time><name>PT3714</name></trkpt>
<trkpt lat="52.872598" lon="-3.375955"><ele>585</ele><time>2020-01-18T10:51:06Z</time><name>PT3715</name></trkpt>
<trkpt lat="52.872600" lon="-3.375953"><ele>585</ele><time>2020-01-18T10:51:07Z</time><name>PT3716</name></trkpt>
<trkpt lat="52.872604" lon="-3.375952"><ele>585</ele><time>2020-01-18T10:51:08Z</time><name>PT3717</name></trkpt>
<trkpt lat="52.872607" lon="-3.375949"><ele>585</ele><time>2020-01-18T10:51:08Z</time><name>PT3718</name></trkpt>
<trkpt lat="52.872607" lon="-3.375948"><ele>585</ele><time>2020-01-18T10:51:14Z</time><name>PT3719</name></trkpt>
<trkpt lat="52.872611" lon="-3.375962"><ele>585</ele><time>2020-01-18T10:51:14Z</time><name>PT3720</name></trkpt>
<trkpt lat="52.872612" lon="-3.375960"><ele>585</ele><time>2020-01-18T10:51:16Z</time><name>PT3721</name></trkpt>
<trkpt lat="52.872610" lon="-3.375956"><ele>585</ele><time>2020-01-18T10:51:17Z</time><name>PT3722</name></trkpt>
<trkpt lat="52.872611" lon="-3.375962"><ele>585</ele><time>2020-01-18T10:51:17Z</time><name>PT3723</name></trkpt>
<trkpt lat="52.872618" lon="-3.375969"><ele>586</ele><time>2020-01-18T10:51:19Z</time><name>PT3724</name></trkpt>
<trkpt lat="52.872634" lon="-3.375974"><ele>586</ele><time>2020-01-18T10:51:20Z</time><name>PT3725</name></trkpt>
<trkpt lat="52.872631" lon="-3.375974"><ele>587</ele><time>2020-01-18T10:51:20Z</time><name>PT3726</name></trkpt>
<trkpt lat="52.872632" lon="-3.375978"><ele>587</ele><time>2020-01-18T10:51:22Z</time><name>PT3727</name></trkpt>
<trkpt lat="52.872635" lon="-3.375980"><ele>587</ele><time>2020-01-18T10:51:23Z</time><name>PT3728</name></trkpt>
<trkpt lat="52.872641" lon="-3.375983"><ele>587</ele><time>2020-01-18T10:51:23Z</time><name>PT3729</name></trkpt>
<trkpt lat="52.872648" lon="-3.375988"><ele>587</ele><time>2020-01-18T10:51:25Z</time><name>PT3730</name></trkpt>
<trkpt lat="52.872653" lon="-3.375994"><ele>587</ele><time>2020-01-18T10:51:26Z</time><name>PT3731</name></trkpt>
<trkpt lat="52.872658" lon="-3.375996"><ele>588</ele><time>2020-01-18T10:51:26Z</time><name>PT3732</name></trkpt>
<trkpt lat="52.872665" lon="-3.376001"><ele>589</ele><time>2020-01-18T10:51:28Z</time><name>PT3733</name></trkpt>
<trkpt lat="52.872673" lon="-3.376010"><ele>590</ele><time>2020-01-18T10:51:29Z</time><name>PT3734</name></trkpt>
<trkpt lat="52.872677" lon="-3.376018"><ele>590</ele><time>2020-01-18T10:51:30Z</time><name>PT3735</name></trkpt>
<trkpt lat="52.872683" lon="-3.376024"><ele>590</ele><time>2020-01-18T10:51:31Z</time><name>PT3736</name></trkpt>
<trkpt lat="52.872689" lon="-3.376027"><ele>590</ele><time>2020-01-18T10:51:32Z</time><name>PT3737</name></trkpt>
<trkpt lat="52.872694" lon="-3.376030"><ele>590</ele><time>2020-01-18T10:51:32Z</time><name>PT3738</name></trkpt>
<trkpt lat="52.872696" lon="-3.376036"><ele>590</ele><time>2020-01-18T10:51:34Z</time><name>PT3739</name></trkpt>
<trkpt lat="52.872697" lon="-3.376038"><ele>590</ele><time>2020-01-18T10:51:35Z</time><name>PT3740</name></trkpt>
<trkpt lat="52.872696" lon="-3.376039"><ele>590</ele><time>2020-01-18T10:51:36Z</time><name>PT3741</name></trkpt>
<trkpt lat="52.872696" lon="-3.376039"><ele>589</ele><time>2020-01-18T10:51:37Z</time><name>PT3742</name></trkpt>
<trkpt lat="52.872697" lon="-3.376038"><ele>588</ele><time>2020-01-18T10:51:38Z</time><name>PT3743</name></trkpt>
<trkpt lat="52.872700" lon="-3.376034"><ele>588</ele><time>2020-01-18T10:51:38Z</time><name>PT3744</name></trkpt>
<trkpt lat="52.872702" lon="-3.376034"><ele>588</ele><time>2020-01-18T10:51:40Z</time><name>PT3745</name></trkpt>
<trkpt lat="52.872706" lon="-3.376035"><ele>588</ele><time>2020-01-18T10:51:41Z</time><name>PT3746</name></trkpt>
<trkpt lat="52.872709" lon="-3.376036"><ele>588</ele><time>2020-01-18T10:51:41Z</time><name>PT3747</name></trkpt>
<trkpt lat="52.872713" lon="-3.376032"><ele>589</ele><time>2020-01-18T10:51:43Z</time><name>PT3748</name></trkpt>
<trkpt lat="52.872718" lon="-3.376030"><ele>589</ele><time>2020-01-18T10:51:44Z</time><name>PT3749</name></trkpt>
<trkpt lat="52.872722" lon="-3.376039"><ele>589</ele><time>2020-01-18T10:51:44Z</time><name>PT3750</name></trkpt>
<trkpt lat="52.872727" lon="-3.376040"><ele>589</ele><time>2020-01-18T10:51:46Z</time><name>PT3751</name></trkpt>
<trkpt lat="52.872731" lon="-3.376040"><ele>589</ele><time>2020-01-18T10:51:47Z</time><name>PT3752</name></trkpt>
<trkpt lat="52.872734" lon="-3.376043"><ele>589</ele><time>2020-01-18T10:51:48Z</time><name>PT3753</name></trkpt>
<trkpt lat="52.872740" lon="-3.376045"><ele>589</ele><time>2020-01-18T10:51:49Z</time><name>PT3754</name></trkpt>
<trkpt lat="52.872745" lon="-3.376049"><ele>589</ele><time>2020-01-18T10:51:50Z</time><name>PT3755</name></trkpt>
<trkpt lat="52.872750" lon="-3.376051"><ele>589</ele><time>2020-01-18T10:51:51Z</time><name>PT3756</name></trkpt>
<trkpt lat="52.872752" lon="-3.376050"><ele>589</ele><time>2020-01-18T10:51:52Z</time><name>PT3757</name></trkpt>
<trkpt lat="52.872756" lon="-3.376051"><ele>589</ele><time>2020-01-18T10:51:53Z</time><name>PT3758</name></trkpt>
<trkpt lat="52.872760" lon="-3.376047"><ele>589</ele><time>2020-01-18T10:51:53Z</time><name>PT3759</name></trkpt>
<trkpt lat="52.872764" lon="-3.376052"><ele>589</ele><time>2020-01-18T10:51:55Z</time><name>PT3760</name></trkpt>
<trkpt lat="52.872768" lon="-3.376060"><ele>590</ele><time>2020-01-18T10:51:56Z</time><name>PT3761</name></trkpt>
<trkpt lat="52.872773" lon="-3.376064"><ele>590</ele><time>2020-01-18T10:51:56Z</time><name>PT3762</name></trkpt>
<trkpt lat="52.872774" lon="-3.376071"><ele>590</ele><time>2020-01-18T10:51:58Z</time><name>PT3763</name></trkpt>
<trkpt lat="52.872776" lon="-3.376078"><ele>590</ele><time>2020-01-18T10:51:59Z</time><name>PT3764</name></trkpt>
<trkpt lat="52.872780" lon="-3.376085"><ele>591</ele><time>2020-01-18T10:51:59Z</time><name>PT3765</name></trkpt>
<trkpt lat="52.872782" lon="-3.376086"><ele>591</ele><time>2020-01-18T10:52:01Z</time><name>PT3766</name></trkpt>
<trkpt lat="52.872784" lon="-3.376115"><ele>591</ele><time>2020-01-18T10:52:10Z</time><name>PT3767</name></trkpt>
<trkpt lat="52.872789" lon="-3.376117"><ele>591</ele><time>2020-01-18T10:52:11Z</time><name>PT3768</name></trkpt>
<trkpt lat="52.872792" lon="-3.376119"><ele>591</ele><time>2020-01-18T10:52:12Z</time><name>PT3769</name></trkpt>
<trkpt lat="52.872795" lon="-3.376125"><ele>591</ele><time>2020-01-18T10:52:13Z</time><name>PT3770</name></trkpt>
<trkpt lat="52.872799" lon="-3.376129"><ele>591</ele><time>2020-01-18T10:52:14Z</time><name>PT3771</name></trkpt>
<trkpt lat="52.872802" lon="-3.376139"><ele>592</ele><time>2020-01-18T10:52:15Z</time><name>PT3772</name></trkpt>
<trkpt lat="52.872807" lon="-3.376146"><ele>592</ele><time>2020-01-18T10:52:16Z</time><name>PT3773</name></trkpt>
<trkpt lat="52.872811" lon="-3.376150"><ele>591</ele><time>2020-01-18T10:52:17Z</time><name>PT3774</name></trkpt>
<trkpt lat="52.872814" lon="-3.376152"><ele>591</ele><time>2020-01-18T10:52:18Z</time><name>PT3775</name></trkpt>
<trkpt lat="52.872817" lon="-3.376160"><ele>592</ele><time>2020-01-18T10:52:19Z</time><name>PT3776</name></trkpt>
<trkpt lat="52.872821" lon="-3.376162"><ele>592</ele><time>2020-01-18T10:52:20Z</time><name>PT3777</name></trkpt>
<trkpt lat="52.872824" lon="-3.376162"><ele>591</ele><time>2020-01-18T10:52:21Z</time><name>PT3778</name></trkpt>
<trkpt lat="52.872827" lon="-3.376165"><ele>592</ele><time>2020-01-18T10:52:22Z</time><name>PT3779</name></trkpt>
<trkpt lat="52.872830" lon="-3.376169"><ele>592</ele><time>2020-01-18T10:52:23Z</time><name>PT3780</name></trkpt>
<trkpt lat="52.872831" lon="-3.376173"><ele>592</ele><time>2020-01-18T10:52:24Z</time><name>PT3781</name></trkpt>
<trkpt lat="52.872836" lon="-3.376173"><ele>593</ele><time>2020-01-18T10:52:25Z</time><name>PT3782</name></trkpt>
<trkpt lat="52.872844" lon="-3.376177"><ele>594</ele><time>2020-01-18T10:52:26Z</time><name>PT3783</name></trkpt>
<trkpt lat="52.872852" lon="-3.376180"><ele>594</ele><time>2020-01-18T10:52:26Z</time><name>PT3784</name></trkpt>
<trkpt lat="52.872856" lon="-3.376185"><ele>594</ele><time>2020-01-18T10:52:28Z</time><name>PT3785</name></trkpt>
<trkpt lat="52.872862" lon="-3.376186"><ele>594</ele><time>2020-01-18T10:52:29Z</time><name>PT3786</name></trkpt>
<trkpt lat="52.872870" lon="-3.376186"><ele>595</ele><time>2020-01-18T10:52:29Z</time><name>PT3787</name></trkpt>
<trkpt lat="52.872875" lon="-3.376189"><ele>595</ele><time>2020-01-18T10:52:31Z</time><name>PT3788</name></trkpt>
<trkpt lat="52.872878" lon="-3.376187"><ele>595</ele><time>2020-01-18T10:52:32Z</time><name>PT3789</name></trkpt>
<trkpt lat="52.872882" lon="-3.376187"><ele>595</ele><time>2020-01-18T10:52:32Z</time><name>PT3790</name></trkpt>
<trkpt lat="52.872888" lon="-3.376184"><ele>595</ele><time>2020-01-18T10:52:34Z</time><name>PT3791</name></trkpt>
<trkpt lat="52.872893" lon="-3.376184"><ele>596</ele><time>2020-01-18T10:52:35Z</time><name>PT3792</name></trkpt>
<trkpt lat="52.872899" lon="-3.376184"><ele>596</ele><time>2020-01-18T10:52:36Z</time><name>PT3793</name></trkpt>
<trkpt lat="52.872902" lon="-3.376189"><ele>596</ele><time>2020-01-18T10:52:37Z</time><name>PT3794</name></trkpt>
<trkpt lat="52.872907" lon="-3.376184"><ele>596</ele><time>2020-01-18T10:52:38Z</time><name>PT3795</name></trkpt>
<trkpt lat="52.872912" lon="-3.376186"><ele>596</ele><time>2020-01-18T10:52:38Z</time><name>PT3796</name></trkpt>
<trkpt lat="52.872918" lon="-3.376188"><ele>596</ele><time>2020-01-18T10:52:40Z</time><name>PT3797</name></trkpt>
<trkpt lat="52.872923" lon="-3.376190"><ele>595</ele><time>2020-01-18T10:52:41Z</time><name>PT3798</name></trkpt>
<trkpt lat="52.872926" lon="-3.376193"><ele>595</ele><time>2020-01-18T10:52:42Z</time><name>PT3799</name></trkpt>
<trkpt lat="52.872929" lon="-3.376190"><ele>595</ele><time>2020-01-18T10:52:43Z</time><name>PT3800</name></trkpt>
<trkpt lat="52.872932" lon="-3.376191"><ele>595</ele><time>2020-01-18T10:52:44Z</time><name>PT3801</name></trkpt>
<trkpt lat="52.872935" lon="-3.376193"><ele>595</ele><time>2020-01-18T10:52:45Z</time><name>PT3802</name></trkpt>
<trkpt lat="52.872938" lon="-3.376195"><ele>595</ele><time>2020-01-18T10:52:46Z</time><name>PT3803</name></trkpt>
<trkpt lat="52.872941" lon="-3.376196"><ele>595</ele><time>2020-01-18T10:52:47Z</time><name>PT3804</name></trkpt>
<trkpt lat="52.872945" lon="-3.376196"><ele>595</ele><time>2020-01-18T10:52:48Z</time><name>PT3805</name></trkpt>
<trkpt lat="52.872952" lon="-3.376204"><ele>595</ele><time>2020-01-18T10:52:49Z</time><name>PT3806</name></trkpt>
<trkpt lat="52.872959" lon="-3.376210"><ele>596</ele><time>2020-01-18T10:52:50Z</time><name>PT3807</name></trkpt>
<trkpt lat="52.872965" lon="-3.376220"><ele>596</ele><time>2020-01-18T10:52:51Z</time><name>PT3808</name></trkpt>
<trkpt lat="52.872971" lon="-3.376230"><ele>596</ele><time>2020-01-18T10:52:52Z</time><name>PT3809</name></trkpt>
<trkpt lat="52.872977" lon="-3.376234"><ele>597</ele><time>2020-01-18T10:52:53Z</time><name>PT3810</name></trkpt>
<trkpt lat="52.872981" lon="-3.376238"><ele>597</ele><time>2020-01-18T10:52:53Z</time><name>PT3811</name></trkpt>
<trkpt lat="52.872987" lon="-3.376241"><ele>597</ele><time>2020-01-18T10:52:55Z</time><name>PT3812</name></trkpt>
<trkpt lat="52.872992" lon="-3.376240"><ele>597</ele><time>2020-01-18T10:52:56Z</time><name>PT3813</name></trkpt>
<trkpt lat="52.872996" lon="-3.376246"><ele>596</ele><time>2020-01-18T10:52:57Z</time><name>PT3814</name></trkpt>
<trkpt lat="52.872999" lon="-3.376250"><ele>596</ele><time>2020-01-18T10:52:58Z</time><name>PT3815</name></trkpt>
<trkpt lat="52.873001" lon="-3.376254"><ele>597</ele><time>2020-01-18T10:52:59Z</time><name>PT3816</name></trkpt>
<trkpt lat="52.873004" lon="-3.376256"><ele>597</ele><time>2020-01-18T10:52:59Z</time><name>PT3817</name></trkpt>
<trkpt lat="52.873008" lon="-3.376258"><ele>597</ele><time>2020-01-18T10:53:01Z</time><name>PT3818</name></trkpt>
<trkpt lat="52.873013" lon="-3.376266"><ele>597</ele><time>2020-01-18T10:53:02Z</time><name>PT3819</name></trkpt>
<trkpt lat="52.873020" lon="-3.376272"><ele>598</ele><time>2020-01-18T10:53:02Z</time><name>PT3820</name></trkpt>
<trkpt lat="52.873026" lon="-3.376272"><ele>598</ele><time>2020-01-18T10:53:04Z</time><name>PT3821</name></trkpt>
<trkpt lat="52.873029" lon="-3.376277"><ele>598</ele><time>2020-01-18T10:53:05Z</time><name>PT3822</name></trkpt>
<trkpt lat="52.873031" lon="-3.376286"><ele>598</ele><time>2020-01-18T10:53:06Z</time><name>PT3823</name></trkpt>
<trkpt lat="52.873032" lon="-3.376288"><ele>597</ele><time>2020-01-18T10:53:07Z</time><name>PT3824</name></trkpt>
<trkpt lat="52.873035" lon="-3.376293"><ele>598</ele><time>2020-01-18T10:53:08Z</time><name>PT3825</name></trkpt>
<trkpt lat="52.873039" lon="-3.376300"><ele>598</ele><time>2020-01-18T10:53:08Z</time><name>PT3826</name></trkpt>
<trkpt lat="52.873041" lon="-3.376302"><ele>598</ele><time>2020-01-18T10:53:10Z</time><name>PT3827</name></trkpt>
<trkpt lat="52.873046" lon="-3.376300"><ele>597</ele><time>2020-01-18T10:53:11Z</time><name>PT3828</name></trkpt>
<trkpt lat="52.873049" lon="-3.376304"><ele>597</ele><time>2020-01-18T10:53:12Z</time><name>PT3829</name></trkpt>
<trkpt lat="52.873051" lon="-3.376309"><ele>597</ele><time>2020-01-18T10:53:13Z</time><name>PT3830</name></trkpt>
<trkpt lat="52.873055" lon="-3.376322"><ele>598</ele><time>2020-01-18T10:53:22Z</time><name>PT3831</name></trkpt>
<trkpt lat="52.873063" lon="-3.376338"><ele>598</ele><time>2020-01-18T10:53:23Z</time><name>PT3832</name></trkpt>
<trkpt lat="52.873068" lon="-3.376343"><ele>598</ele><time>2020-01-18T10:53:23Z</time><name>PT3833</name></trkpt>
<trkpt lat="52.873075" lon="-3.376350"><ele>598</ele><time>2020-01-18T10:53:25Z</time><name>PT3834</name></trkpt>
<trkpt lat="52.873079" lon="-3.376361"><ele>599</ele><time>2020-01-18T10:53:26Z</time><name>PT3835</name></trkpt>
<trkpt lat="52.873084" lon="-3.376367"><ele>599</ele><time>2020-01-18T10:53:26Z</time><name>PT3836</name></trkpt>
<trkpt lat="52.873092" lon="-3.376375"><ele>599</ele><time>2020-01-18T10:53:28Z</time><name>PT3837</name></trkpt>
<trkpt lat="52.873097" lon="-3.376384"><ele>599</ele><time>2020-01-18T10:53:29Z</time><name>PT3838</name></trkpt>
<trkpt lat="52.873099" lon="-3.376386"><ele>599</ele><time>2020-01-18T10:53:30Z</time><name>PT3839</name></trkpt>
<trkpt lat="52.873100" lon="-3.376386"><ele>599</ele><time>2020-01-18T10:53:31Z</time><name>PT3840</name></trkpt>
<trkpt lat="52.873100" lon="-3.376380"><ele>599</ele><time>2020-01-18T10:53:35Z</time><name>PT3841</name></trkpt>
<trkpt lat="52.873109" lon="-3.376381"><ele>599</ele><time>2020-01-18T10:53:37Z</time><name>PT3842</name></trkpt>
<trkpt lat="52.873114" lon="-3.376378"><ele>599</ele><time>2020-01-18T10:53:38Z</time><name>PT3843</name></trkpt>
<trkpt lat="52.873119" lon="-3.376386"><ele>599</ele><time>2020-01-18T10:53:38Z</time><name>PT3844</name></trkpt>
<trkpt lat="52.873127" lon="-3.376394"><ele>599</ele><time>2020-01-18T10:53:40Z</time><name>PT3845</name></trkpt>
<trkpt lat="52.873132" lon="-3.376398"><ele>598</ele><time>2020-01-18T10:53:41Z</time><name>PT3846</name></trkpt>
<trkpt lat="52.873134" lon="-3.376398"><ele>598</ele><time>2020-01-18T10:53:41Z</time><name>PT3847</name></trkpt>
<trkpt lat="52.873138" lon="-3.376401"><ele>598</ele><time>2020-01-18T10:53:43Z</time><name>PT3848</name></trkpt>
<trkpt lat="52.873140" lon="-3.376405"><ele>598</ele><time>2020-01-18T10:53:50Z</time><name>PT3849</name></trkpt>
<trkpt lat="52.873144" lon="-3.376407"><ele>598</ele><time>2020-01-18T10:53:50Z</time><name>PT3850</name></trkpt>
<trkpt lat="52.873148" lon="-3.376417"><ele>597</ele><time>2020-01-18T10:53:52Z</time><name>PT3851</name></trkpt>
<trkpt lat="52.873150" lon="-3.376423"><ele>598</ele><time>2020-01-18T10:53:53Z</time><name>PT3852</name></trkpt>
<trkpt lat="52.873154" lon="-3.376428"><ele>598</ele><time>2020-01-18T10:53:53Z</time><name>PT3853</name></trkpt>
<trkpt lat="52.873158" lon="-3.376433"><ele>598</ele><time>2020-01-18T10:53:55Z</time><name>PT3854</name></trkpt>
<trkpt lat="52.873158" lon="-3.376431"><ele>598</ele><time>2020-01-18T10:53:56Z</time><name>PT3855</name></trkpt>
<trkpt lat="52.873158" lon="-3.376430"><ele>598</ele><time>2020-01-18T10:53:56Z</time><name>PT3856</name></trkpt>
<trkpt lat="52.873159" lon="-3.376431"><ele>598</ele><time>2020-01-18T10:53:58Z</time><name>PT3857</name></trkpt>
<trkpt lat="52.873159" lon="-3.376433"><ele>599</ele><time>2020-01-18T10:53:59Z</time><name>PT3858</name></trkpt>
<trkpt lat="52.873160" lon="-3.376434"><ele>599</ele><time>2020-01-18T10:53:59Z</time><name>PT3859</name></trkpt>
<trkpt lat="52.873160" lon="-3.376435"><ele>599</ele><time>2020-01-18T10:54:01Z</time><name>PT3860</name></trkpt>
<trkpt lat="52.873162" lon="-3.376442"><ele>599</ele><time>2020-01-18T10:54:04Z</time><name>PT3861</name></trkpt>
<trkpt lat="52.873164" lon="-3.376446"><ele>599</ele><time>2020-01-18T10:54:05Z</time><name>PT3862</name></trkpt>
<trkpt lat="52.873167" lon="-3.376446"><ele>600</ele><time>2020-01-18T10:54:05Z</time><name>PT3863</name></trkpt>
<trkpt lat="52.873170" lon="-3.376447"><ele>599</ele><time>2020-01-18T10:54:07Z</time><name>PT3864</name></trkpt>
<trkpt lat="52.873169" lon="-3.376450"><ele>599</ele><time>2020-01-18T10:54:08Z</time><name>PT3865</name></trkpt>
<trkpt lat="52.873173" lon="-3.376448"><ele>599</ele><time>2020-01-18T10:54:08Z</time><name>PT3866</name></trkpt>
<trkpt lat="52.873178" lon="-3.376446"><ele>600</ele><time>2020-01-18T10:54:10Z</time><name>PT3867</name></trkpt>
<trkpt lat="52.873183" lon="-3.376450"><ele>600</ele><time>2020-01-18T10:54:11Z</time><name>PT3868</name></trkpt>
<trkpt lat="52.873185" lon="-3.376452"><ele>600</ele><time>2020-01-18T10:54:11Z</time><name>PT3869</name></trkpt>
<trkpt lat="52.873189" lon="-3.376455"><ele>601</ele><time>2020-01-18T10:54:13Z</time><name>PT3870</name></trkpt>
<trkpt lat="52.873198" lon="-3.376454"><ele>601</ele><time>2020-01-18T10:54:14Z</time><name>PT3871</name></trkpt>
<trkpt lat="52.873203" lon="-3.376459"><ele>601</ele><time>2020-01-18T10:54:14Z</time><name>PT3872</name></trkpt>
<trkpt lat="52.873206" lon="-3.376465"><ele>601</ele><time>2020-01-18T10:54:16Z</time><name>PT3873</name></trkpt>
<trkpt lat="52.873212" lon="-3.376467"><ele>601</ele><time>2020-01-18T10:54:17Z</time><name>PT3874</name></trkpt>
<trkpt lat="52.873219" lon="-3.376467"><ele>601</ele><time>2020-01-18T10:54:17Z</time><name>PT3875</name></trkpt>
<trkpt lat="52.873223" lon="-3.376463"><ele>600</ele><time>2020-01-18T10:54:19Z</time><name>PT3876</name></trkpt>
<trkpt lat="52.873229" lon="-3.376459"><ele>600</ele><time>2020-01-18T10:54:20Z</time><name>PT3877</name></trkpt>
<trkpt lat="52.873231" lon="-3.376454"><ele>600</ele><time>2020-01-18T10:54:20Z</time><name>PT3878</name></trkpt>
<trkpt lat="52.873225" lon="-3.376452"><ele>600</ele><time>2020-01-18T10:54:22Z</time><name>PT3879</name></trkpt>
<trkpt lat="52.873232" lon="-3.376451"><ele>600</ele><time>2020-01-18T10:54:23Z</time><name>PT3880</name></trkpt>
<trkpt lat="52.873238" lon="-3.376453"><ele>600</ele><time>2020-01-18T10:54:23Z</time><name>PT3881</name></trkpt>
<trkpt lat="52.873245" lon="-3.376454"><ele>600</ele><time>2020-01-18T10:54:25Z</time><name>PT3882</name></trkpt>
<trkpt lat="52.873250" lon="-3.376458"><ele>600</ele><time>2020-01-18T10:54:26Z</time><name>PT3883</name></trkpt>
<trkpt lat="52.873255" lon="-3.376458"><ele>601</ele><time>2020-01-18T10:54:26Z</time><name>PT3884</name></trkpt>
<trkpt lat="52.873261" lon="-3.376460"><ele>601</ele><time>2020-01-18T10:54:28Z</time><name>PT3885</name></trkpt>
<trkpt lat="52.873265" lon="-3.376464"><ele>601</ele><time>2020-01-18T10:54:29Z</time><name>PT3886</name></trkpt>
<trkpt lat="52.873271" lon="-3.376467"><ele>601</ele><time>2020-01-18T10:54:30Z</time><name>PT3887</name></trkpt>
<trkpt lat="52.873279" lon="-3.376479"><ele>601</ele><time>2020-01-18T10:54:31Z</time><name>PT3888</name></trkpt>
<trkpt lat="52.873281" lon="-3.376484"><ele>601</ele><time>2020-01-18T10:54:32Z</time><name>PT3889</name></trkpt>
<trkpt lat="52.873284" lon="-3.376489"><ele>602</ele><time>2020-01-18T10:54:32Z</time><name>PT3890</name></trkpt>
<trkpt lat="52.873292" lon="-3.376500"><ele>602</ele><time>2020-01-18T10:54:34Z</time><name>PT3891</name></trkpt>
<trkpt lat="52.873298" lon="-3.376503"><ele>602</ele><time>2020-01-18T10:54:35Z</time><name>PT3892</name></trkpt>
<trkpt lat="52.873297" lon="-3.376502"><ele>602</ele><time>2020-01-18T10:54:35Z</time><name>PT3893</name></trkpt>
<trkpt lat="52.873294" lon="-3.376497"><ele>602</ele><time>2020-01-18T10:54:37Z</time><name>PT3894</name></trkpt>
<trkpt lat="52.873290" lon="-3.376499"><ele>602</ele><time>2020-01-18T10:54:38Z</time><name>PT3895</name></trkpt>
<trkpt lat="52.873292" lon="-3.376503"><ele>602</ele><time>2020-01-18T10:54:39Z</time><name>PT3896</name></trkpt>
<trkpt lat="52.873296" lon="-3.376506"><ele>602</ele><time>2020-01-18T10:54:40Z</time><name>PT3897</name></trkpt>
<trkpt lat="52.873300" lon="-3.376504"><ele>602</ele><time>2020-01-18T10:54:41Z</time><name>PT3898</name></trkpt>
<trkpt lat="52.873302" lon="-3.376506"><ele>602</ele><time>2020-01-18T10:54:42Z</time><name>PT3899</name></trkpt>
<trkpt lat="52.873305" lon="-3.376510"><ele>602</ele><time>2020-01-18T10:54:43Z</time><name>PT3900</name></trkpt>
<trkpt lat="52.873306" lon="-3.376508"><ele>602</ele><time>2020-01-18T10:54:44Z</time><name>PT3901</name></trkpt>
<trkpt lat="52.873306" lon="-3.376506"><ele>602</ele><time>2020-01-18T10:54:45Z</time><name>PT3902</name></trkpt>
<trkpt lat="52.873307" lon="-3.376508"><ele>602</ele><time>2020-01-18T10:54:46Z</time><name>PT3903</name></trkpt>
<trkpt lat="52.873307" lon="-3.376515"><ele>603</ele><time>2020-01-18T10:54:52Z</time><name>PT3904</name></trkpt>
<trkpt lat="52.873310" lon="-3.376522"><ele>603</ele><time>2020-01-18T10:54:53Z</time><name>PT3905</name></trkpt>
<trkpt lat="52.873311" lon="-3.376529"><ele>603</ele><time>2020-01-18T10:54:54Z</time><name>PT3906</name></trkpt>
<trkpt lat="52.873315" lon="-3.376542"><ele>603</ele><time>2020-01-18T10:54:55Z</time><name>PT3907</name></trkpt>
<trkpt lat="52.873319" lon="-3.376559"><ele>604</ele><time>2020-01-18T10:54:56Z</time><name>PT3908</name></trkpt>
<trkpt lat="52.873322" lon="-3.376570"><ele>604</ele><time>2020-01-18T10:54:56Z</time><name>PT3909</name></trkpt>
<trkpt lat="52.873327" lon="-3.376577"><ele>603</ele><time>2020-01-18T10:54:58Z</time><name>PT3910</name></trkpt>
<trkpt lat="52.873330" lon="-3.376580"><ele>604</ele><time>2020-01-18T10:54:59Z</time><name>PT3911</name></trkpt>
<trkpt lat="52.873333" lon="-3.376582"><ele>604</ele><time>2020-01-18T10:54:59Z</time><name>PT3912</name></trkpt>
<trkpt lat="52.873336" lon="-3.376585"><ele>604</ele><time>2020-01-18T10:55:01Z</time><name>PT3913</name></trkpt>
<trkpt lat="52.873338" lon="-3.376588"><ele>605</ele><time>2020-01-18T10:55:02Z</time><name>PT3914</name></trkpt>
<trkpt lat="52.873340" lon="-3.376596"><ele>605</ele><time>2020-01-18T10:55:02Z</time><name>PT3915</name></trkpt>
<trkpt lat="52.873345" lon="-3.376599"><ele>605</ele><time>2020-01-18T10:55:04Z</time><name>PT3916</name></trkpt>
<trkpt lat="52.873348" lon="-3.376603"><ele>606</ele><time>2020-01-18T10:55:05Z</time><name>PT3917</name></trkpt>
<trkpt lat="52.873354" lon="-3.376604"><ele>606</ele><time>2020-01-18T10:55:05Z</time><name>PT3918</name></trkpt>
<trkpt lat="52.873356" lon="-3.376609"><ele>606</ele><time>2020-01-18T10:55:07Z</time><name>PT3919</name></trkpt>
<trkpt lat="52.873363" lon="-3.376611"><ele>607</ele><time>2020-01-18T10:55:08Z</time><name>PT3920</name></trkpt>
<trkpt lat="52.873367" lon="-3.376618"><ele>606</ele><time>2020-01-18T10:55:09Z</time><name>PT3921</name></trkpt>
<trkpt lat="52.873371" lon="-3.376623"><ele>607</ele><time>2020-01-18T10:55:10Z</time><name>PT3922</name></trkpt>
<trkpt lat="52.873371" lon="-3.376630"><ele>607</ele><time>2020-01-18T10:55:11Z</time><name>PT3923</name></trkpt>
<trkpt lat="52.873368" lon="-3.376631"><ele>606</ele><time>2020-01-18T10:55:11Z</time><name>PT3924</name></trkpt>
<trkpt lat="52.873369" lon="-3.376629"><ele>606</ele><time>2020-01-18T10:55:13Z</time><name>PT3925</name></trkpt>
<trkpt lat="52.873371" lon="-3.376629"><ele>606</ele><time>2020-01-18T10:55:14Z</time><name>PT3926</name></trkpt>
<trkpt lat="52.873368" lon="-3.376649"><ele>606</ele><time>2020-01-18T10:55:17Z</time><name>PT3927</name></trkpt>
<trkpt lat="52.873370" lon="-3.376650"><ele>606</ele><time>2020-01-18T10:55:18Z</time><name>PT3928</name></trkpt>
<trkpt lat="52.873373" lon="-3.376653"><ele>606</ele><time>2020-01-18T10:55:19Z</time><name>PT3929</name></trkpt>
<trkpt lat="52.873376" lon="-3.376656"><ele>606</ele><time>2020-01-18T10:55:20Z</time><name>PT3930</name></trkpt>
<trkpt lat="52.873378" lon="-3.376658"><ele>606</ele><time>2020-01-18T10:55:20Z</time><name>PT3931</name></trkpt>
<trkpt lat="52.873382" lon="-3.376665"><ele>606</ele><time>2020-01-18T10:55:22Z</time><name>PT3932</name></trkpt>
<trkpt lat="52.873384" lon="-3.376668"><ele>605</ele><time>2020-01-18T10:55:23Z</time><name>PT3933</name></trkpt>
<trkpt lat="52.873388" lon="-3.376673"><ele>606</ele><time>2020-01-18T10:55:24Z</time><name>PT3934</name></trkpt>
<trkpt lat="52.873388" lon="-3.376676"><ele>606</ele><time>2020-01-18T10:55:25Z</time><name>PT3935</name></trkpt>
<trkpt lat="52.873389" lon="-3.376678"><ele>606</ele><time>2020-01-18T10:55:26Z</time><name>PT3936</name></trkpt>
<trkpt lat="52.873399" lon="-3.376681"><ele>606</ele><time>2020-01-18T10:55:27Z</time><name>PT3937</name></trkpt>
<trkpt lat="52.873403" lon="-3.376683"><ele>605</ele><time>2020-01-18T10:55:28Z</time><name>PT3938</name></trkpt>
<trkpt lat="52.873407" lon="-3.376689"><ele>606</ele><time>2020-01-18T10:55:29Z</time><name>PT3939</name></trkpt>
<trkpt lat="52.873410" lon="-3.376694"><ele>606</ele><time>2020-01-18T10:55:30Z</time><name>PT3940</name></trkpt>
<trkpt lat="52.873408" lon="-3.376690"><ele>605</ele><time>2020-01-18T10:55:31Z</time><name>PT3941</name></trkpt>
<trkpt lat="52.873412" lon="-3.376693"><ele>605</ele><time>2020-01-18T10:55:32Z</time><name>PT3942</name></trkpt>
<trkpt lat="52.873420" lon="-3.376703"><ele>606</ele><time>2020-01-18T10:55:32Z</time><name>PT3943</name></trkpt>
<trkpt lat="52.873422" lon="-3.376716"><ele>605</ele><time>2020-01-18T10:55:34Z</time><name>PT3944</name></trkpt>
<trkpt lat="52.873428" lon="-3.376721"><ele>605</ele><time>2020-01-18T10:55:35Z</time><name>PT3945</name></trkpt>
<trkpt lat="52.873432" lon="-3.376725"><ele>605</ele><time>2020-01-18T10:55:35Z</time><name>PT3946</name></trkpt>
<trkpt lat="52.873435" lon="-3.376726"><ele>605</ele><time>2020-01-18T10:55:36Z</time><name>PT3947</name></trkpt>
<trkpt lat="52.873439" lon="-3.376725"><ele>605</ele><time>2020-01-18T10:55:38Z</time><name>PT3948</name></trkpt>
<trkpt lat="52.873442" lon="-3.376734"><ele>606</ele><time>2020-01-18T10:55:38Z</time><name>PT3949</name></trkpt>
<trkpt lat="52.873443" lon="-3.376736"><ele>605</ele><time>2020-01-18T10:55:39Z</time><name>PT3950</name></trkpt>
<trkpt lat="52.873448" lon="-3.376737"><ele>605</ele><time>2020-01-18T10:55:41Z</time><name>PT3951</name></trkpt>
<trkpt lat="52.873452" lon="-3.376742"><ele>606</ele><time>2020-01-18T10:55:42Z</time><name>PT3952</name></trkpt>
<trkpt lat="52.873455" lon="-3.376751"><ele>606</ele><time>2020-01-18T10:55:44Z</time><name>PT3953</name></trkpt>
<trkpt lat="52.873464" lon="-3.376775"><ele>606</ele><time>2020-01-18T10:55:46Z</time><name>PT3954</name></trkpt>
<trkpt lat="52.873464" lon="-3.376776"><ele>606</ele><time>2020-01-18T10:55:47Z</time><name>PT3955</name></trkpt>
<trkpt lat="52.873470" lon="-3.376777"><ele>606</ele><time>2020-01-18T10:55:48Z</time><name>PT3956</name></trkpt>
<trkpt lat="52.873471" lon="-3.376788"><ele>606</ele><time>2020-01-18T10:55:49Z</time><name>PT3957</name></trkpt>
<trkpt lat="52.873476" lon="-3.376800"><ele>606</ele><time>2020-01-18T10:55:50Z</time><name>PT3958</name></trkpt>
<trkpt lat="52.873478" lon="-3.376808"><ele>607</ele><time>2020-01-18T10:55:51Z</time><name>PT3959</name></trkpt>
<trkpt lat="52.873483" lon="-3.376814"><ele>607</ele><time>2020-01-18T10:55:52Z</time><name>PT3960</name></trkpt>
<trkpt lat="52.873484" lon="-3.376820"><ele>606</ele><time>2020-01-18T10:55:53Z</time><name>PT3961</name></trkpt>
<trkpt lat="52.873487" lon="-3.376823"><ele>607</ele><time>2020-01-18T10:55:53Z</time><name>PT3962</name></trkpt>
<trkpt lat="52.873484" lon="-3.376830"><ele>606</ele><time>2020-01-18T10:55:55Z</time><name>PT3963</name></trkpt>
<trkpt lat="52.873487" lon="-3.376833"><ele>606</ele><time>2020-01-18T10:55:56Z</time><name>PT3964</name></trkpt>
<trkpt lat="52.873494" lon="-3.376838"><ele>606</ele><time>2020-01-18T10:55:56Z</time><name>PT3965</name></trkpt>
<trkpt lat="52.873500" lon="-3.376847"><ele>606</ele><time>2020-01-18T10:55:58Z</time><name>PT3966</name></trkpt>
<trkpt lat="52.873504" lon="-3.376852"><ele>606</ele><time>2020-01-18T10:55:59Z</time><name>PT3967</name></trkpt>
<trkpt lat="52.873503" lon="-3.376860"><ele>605</ele><time>2020-01-18T10:55:59Z</time><name>PT3968</name></trkpt>
<trkpt lat="52.873507" lon="-3.376871"><ele>606</ele><time>2020-01-18T10:56:01Z</time><name>PT3969</name></trkpt>
<trkpt lat="52.873510" lon="-3.376878"><ele>607</ele><time>2020-01-18T10:56:02Z</time><name>PT3970</name></trkpt>
<trkpt lat="52.873517" lon="-3.376885"><ele>607</ele><time>2020-01-18T10:56:02Z</time><name>PT3971</name></trkpt>
<trkpt lat="52.873524" lon="-3.376895"><ele>608</ele><time>2020-01-18T10:56:03Z</time><name>PT3972</name></trkpt>
<trkpt lat="52.873529" lon="-3.376902"><ele>609</ele><time>2020-01-18T10:56:05Z</time><name>PT3973</name></trkpt>
<trkpt lat="52.873530" lon="-3.376904"><ele>608</ele><time>2020-01-18T10:56:05Z</time><name>PT3974</name></trkpt>
<trkpt lat="52.873531" lon="-3.376906"><ele>608</ele><time>2020-01-18T10:56:07Z</time><name>PT3975</name></trkpt>
<trkpt lat="52.873534" lon="-3.376907"><ele>608</ele><time>2020-01-18T10:56:08Z</time><name>PT3976</name></trkpt>
<trkpt lat="52.873536" lon="-3.376911"><ele>608</ele><time>2020-01-18T10:56:08Z</time><name>PT3977</name></trkpt>
<trkpt lat="52.873538" lon="-3.376912"><ele>608</ele><time>2020-01-18T10:56:10Z</time><name>PT3978</name></trkpt>
<trkpt lat="52.873539" lon="-3.376919"><ele>608</ele><time>2020-01-18T10:56:12Z</time><name>PT3979</name></trkpt>
<trkpt lat="52.873542" lon="-3.376928"><ele>608</ele><time>2020-01-18T10:56:13Z</time><name>PT3980</name></trkpt>
<trkpt lat="52.873547" lon="-3.376934"><ele>608</ele><time>2020-01-18T10:56:14Z</time><name>PT3981</name></trkpt>
<trkpt lat="52.873544" lon="-3.376940"><ele>608</ele><time>2020-01-18T10:56:14Z</time><name>PT3982</name></trkpt>
<trkpt lat="52.873552" lon="-3.376943"><ele>608</ele><time>2020-01-18T10:56:16Z</time><name>PT3983</name></trkpt>
<trkpt lat="52.873554" lon="-3.376961"><ele>608</ele><time>2020-01-18T10:56:17Z</time><name>PT3984</name></trkpt>
<trkpt lat="52.873559" lon="-3.376967"><ele>608</ele><time>2020-01-18T10:56:17Z</time><name>PT3985</name></trkpt>
<trkpt lat="52.873560" lon="-3.376972"><ele>608</ele><time>2020-01-18T10:56:19Z</time><name>PT3986</name></trkpt>
<trkpt lat="52.873564" lon="-3.376978"><ele>608</ele><time>2020-01-18T10:56:20Z</time><name>PT3987</name></trkpt>
<trkpt lat="52.873568" lon="-3.376986"><ele>609</ele><time>2020-01-18T10:56:20Z</time><name>PT3988</name></trkpt>
<trkpt lat="52.873569" lon="-3.376989"><ele>610</ele><time>2020-01-18T10:56:22Z</time><name>PT3989</name></trkpt>
<trkpt lat="52.873570" lon="-3.376990"><ele>610</ele><time>2020-01-18T10:56:23Z</time><name>PT3990</name></trkpt>
<trkpt lat="52.873575" lon="-3.376996"><ele>610</ele><time>2020-01-18T10:56:23Z</time><name>PT3991</name></trkpt>
<trkpt lat="52.873580" lon="-3.376998"><ele>610</ele><time>2020-01-18T10:56:25Z</time><name>PT3992</name></trkpt>
<trkpt lat="52.873580" lon="-3.377002"><ele>609</ele><time>2020-01-18T10:56:26Z</time><name>PT3993</name></trkpt>
<trkpt lat="52.873584" lon="-3.377008"><ele>609</ele><time>2020-01-18T10:56:26Z</time><name>PT3994</name></trkpt>
<trkpt lat="52.873586" lon="-3.377019"><ele>610</ele><time>2020-01-18T10:56:27Z</time><name>PT3995</name></trkpt>
<trkpt lat="52.873592" lon="-3.377029"><ele>611</ele><time>2020-01-18T10:56:29Z</time><name>PT3996</name></trkpt>
<trkpt lat="52.873593" lon="-3.377031"><ele>611</ele><time>2020-01-18T10:56:29Z</time><name>PT3997</name></trkpt>
<trkpt lat="52.873594" lon="-3.377032"><ele>610</ele><time>2020-01-18T10:56:31Z</time><name>PT3998</name></trkpt>
<trkpt lat="52.873596" lon="-3.377036"><ele>610</ele><time>2020-01-18T10:56:32Z</time><name>PT3999</name></trkpt>
<trkpt lat="52.873599" lon="-3.377042"><ele>610</ele><time>2020-01-18T10:56:32Z</time><name>PT4000</name></trkpt>
<trkpt lat="52.873600" lon="-3.377048"><ele>610</ele><time>2020-01-18T10:56:34Z</time><name>PT4001</name></trkpt>
<trkpt lat="52.873601" lon="-3.377056"><ele>610</ele><time>2020-01-18T10:56:35Z</time><name>PT4002</name></trkpt>
<trkpt lat="52.873599" lon="-3.377060"><ele>610</ele><time>2020-01-18T10:56:35Z</time><name>PT4003</name></trkpt>
<trkpt lat="52.873600" lon="-3.377069"><ele>611</ele><time>2020-01-18T10:56:37Z</time><name>PT4004</name></trkpt>
<trkpt lat="52.873601" lon="-3.377074"><ele>610</ele><time>2020-01-18T10:56:38Z</time><name>PT4005</name></trkpt>
<trkpt lat="52.873607" lon="-3.377066"><ele>610</ele><time>2020-01-18T10:56:38Z</time><name>PT4006</name></trkpt>
<trkpt lat="52.873606" lon="-3.377067"><ele>610</ele><time>2020-01-18T10:56:39Z</time><name>PT4007</name></trkpt>
<trkpt lat="52.873603" lon="-3.377074"><ele>610</ele><time>2020-01-18T10:56:41Z</time><name>PT4008</name></trkpt>
<trkpt lat="52.873606" lon="-3.377082"><ele>610</ele><time>2020-01-18T10:56:42Z</time><name>PT4009</name></trkpt>
<trkpt lat="52.873607" lon="-3.377076"><ele>610</ele><time>2020-01-18T10:56:44Z</time><name>PT4010</name></trkpt>
<trkpt lat="52.873606" lon="-3.377073"><ele>609</ele><time>2020-01-18T10:56:44Z</time><name>PT4011</name></trkpt>
<trkpt lat="52.873607" lon="-3.377076"><ele>609</ele><time>2020-01-18T10:56:50Z</time><name>PT4012</name></trkpt>
<trkpt lat="52.873609" lon="-3.377078"><ele>609</ele><time>2020-01-18T10:56:50Z</time><name>PT4013</name></trkpt>
<trkpt lat="52.873607" lon="-3.377086"><ele>609</ele><time>2020-01-18T10:56:58Z</time><name>PT4014</name></trkpt>
<trkpt lat="52.873610" lon="-3.377087"><ele>609</ele><time>2020-01-18T10:56:59Z</time><name>PT4015</name></trkpt>
<trkpt lat="52.873611" lon="-3.377088"><ele>609</ele><time>2020-01-18T10:57:00Z</time><name>PT4016</name></trkpt>
<trkpt lat="52.873597" lon="-3.377063"><ele>608</ele><time>2020-01-18T10:57:02Z</time><name>PT4017</name></trkpt>
<trkpt lat="52.873605" lon="-3.377059"><ele>609</ele><time>2020-01-18T10:57:04Z</time><name>PT4018</name></trkpt>
<trkpt lat="52.873601" lon="-3.377054"><ele>609</ele><time>2020-01-18T10:57:05Z</time><name>PT4019</name></trkpt>
<trkpt lat="52.873605" lon="-3.377055"><ele>609</ele><time>2020-01-18T10:57:11Z</time><name>PT4020</name></trkpt>
<trkpt lat="52.873605" lon="-3.377056"><ele>609</ele><time>2020-01-18T10:57:11Z</time><name>PT4021</name></trkpt>
<trkpt lat="52.873607" lon="-3.377057"><ele>609</ele><time>2020-01-18T10:57:13Z</time><name>PT4022</name></trkpt>
<trkpt lat="52.873609" lon="-3.377059"><ele>609</ele><time>2020-01-18T10:57:14Z</time><name>PT4023</name></trkpt>
<trkpt lat="52.873609" lon="-3.377063"><ele>609</ele><time>2020-01-18T10:57:14Z</time><name>PT4024</name></trkpt>
<trkpt lat="52.873605" lon="-3.377064"><ele>609</ele><time>2020-01-18T10:57:16Z</time><name>PT4025</name></trkpt>
<trkpt lat="52.873607" lon="-3.377065"><ele>609</ele><time>2020-01-18T10:57:17Z</time><name>PT4026</name></trkpt>
<trkpt lat="52.873610" lon="-3.377076"><ele>608</ele><time>2020-01-18T10:57:19Z</time><name>PT4027</name></trkpt>
<trkpt lat="52.873612" lon="-3.377079"><ele>608</ele><time>2020-01-18T10:57:20Z</time><name>PT4028</name></trkpt>
<trkpt lat="52.873612" lon="-3.377087"><ele>608</ele><time>2020-01-18T10:57:20Z</time><name>PT4029</name></trkpt>
<trkpt lat="52.873611" lon="-3.377089"><ele>609</ele><time>2020-01-18T10:57:23Z</time><name>PT4030</name></trkpt>
<trkpt lat="52.873609" lon="-3.377080"><ele>608</ele><time>2020-01-18T10:57:23Z</time><name>PT4031</name></trkpt>
<trkpt lat="52.873610" lon="-3.377087"><ele>608</ele><time>2020-01-18T10:57:25Z</time><name>PT4032</name></trkpt>
<trkpt lat="52.873609" lon="-3.377091"><ele>608</ele><time>2020-01-18T10:57:26Z</time><name>PT4033</name></trkpt>
<trkpt lat="52.873614" lon="-3.377102"><ele>608</ele><time>2020-01-18T10:57:26Z</time><name>PT4034</name></trkpt>
<trkpt lat="52.873619" lon="-3.377110"><ele>608</ele><time>2020-01-18T10:57:28Z</time><name>PT4035</name></trkpt>
<trkpt lat="52.873622" lon="-3.377116"><ele>608</ele><time>2020-01-18T10:57:29Z</time><name>PT4036</name></trkpt>
<trkpt lat="52.873620" lon="-3.377116"><ele>608</ele><time>2020-01-18T10:57:30Z</time><name>PT4037</name></trkpt>
<trkpt lat="52.873620" lon="-3.377117"><ele>608</ele><time>2020-01-18T10:57:31Z</time><name>PT4038</name></trkpt>
<trkpt lat="52.873622" lon="-3.377120"><ele>608</ele><time>2020-01-18T10:57:32Z</time><name>PT4039</name></trkpt>
<trkpt lat="52.873622" lon="-3.377122"><ele>608</ele><time>2020-01-18T10:57:33Z</time><name>PT4040</name></trkpt>
<trkpt lat="52.873622" lon="-3.377120"><ele>609</ele><time>2020-01-18T10:57:56Z</time><name>PT4041</name></trkpt>
<trkpt lat="52.873621" lon="-3.377116"><ele>609</ele><time>2020-01-18T10:57:56Z</time><name>PT4042</name></trkpt>
<trkpt lat="52.873615" lon="-3.377119"><ele>609</ele><time>2020-01-18T10:58:35Z</time><name>PT4043</name></trkpt>
<trkpt lat="52.873608" lon="-3.377135"><ele>609</ele><time>2020-01-18T10:58:35Z</time><name>PT4044</name></trkpt>
<trkpt lat="52.873609" lon="-3.377149"><ele>609</ele><time>2020-01-18T10:58:37Z</time><name>PT4045</name></trkpt>
<trkpt lat="52.873609" lon="-3.377167"><ele>610</ele><time>2020-01-18T10:58:38Z</time><name>PT4046</name></trkpt>
<trkpt lat="52.873613" lon="-3.377178"><ele>611</ele><time>2020-01-18T10:58:38Z</time><name>PT4047</name></trkpt>
<trkpt lat="52.873617" lon="-3.377188"><ele>611</ele><time>2020-01-18T10:58:40Z</time><name>PT4048</name></trkpt>
<trkpt lat="52.873621" lon="-3.377196"><ele>611</ele><time>2020-01-18T10:58:41Z</time><name>PT4049</name></trkpt>
<trkpt lat="52.873622" lon="-3.377196"><ele>611</ele><time>2020-01-18T10:58:42Z</time><name>PT4050</name></trkpt>
<trkpt lat="52.873622" lon="-3.377201"><ele>611</ele><time>2020-01-18T10:58:43Z</time><name>PT4051</name></trkpt>
<trkpt lat="52.873620" lon="-3.377211"><ele>611</ele><time>2020-01-18T10:58:44Z</time><name>PT4052</name></trkpt>
<trkpt lat="52.873616" lon="-3.377222"><ele>611</ele><time>2020-01-18T10:58:44Z</time><name>PT4053</name></trkpt>
<trkpt lat="52.873614" lon="-3.377237"><ele>612</ele><time>2020-01-18T10:58:46Z</time><name>PT4054</name></trkpt>
<trkpt lat="52.873614" lon="-3.377242"><ele>612</ele><time>2020-01-18T10:58:47Z</time><name>PT4055</name></trkpt>
<trkpt lat="52.873607" lon="-3.377246"><ele>611</ele><time>2020-01-18T10:58:47Z</time><name>PT4056</name></trkpt>
<trkpt lat="52.873604" lon="-3.377256"><ele>611</ele><time>2020-01-18T10:58:48Z</time><name>PT4057</name></trkpt>
<trkpt lat="52.873600" lon="-3.377261"><ele>612</ele><time>2020-01-18T10:58:50Z</time><name>PT4058</name></trkpt>
<trkpt lat="52.873598" lon="-3.377267"><ele>611</ele><time>2020-01-18T10:58:50Z</time><name>PT4059</name></trkpt>
<trkpt lat="52.873596" lon="-3.377274"><ele>611</ele><time>2020-01-18T10:58:52Z</time><name>PT4060</name></trkpt>
<trkpt lat="52.873592" lon="-3.377279"><ele>611</ele><time>2020-01-18T10:58:53Z</time><name>PT4061</name></trkpt>
<trkpt lat="52.873588" lon="-3.377288"><ele>611</ele><time>2020-01-18T10:58:53Z</time><name>PT4062</name></trkpt>
<trkpt lat="52.873587" lon="-3.377298"><ele>611</ele><time>2020-01-18T10:58:55Z</time><name>PT4063</name></trkpt>
<trkpt lat="52.873588" lon="-3.377308"><ele>611</ele><time>2020-01-18T10:58:56Z</time><name>PT4064</name></trkpt>
<trkpt lat="52.873586" lon="-3.377318"><ele>611</ele><time>2020-01-18T10:58:57Z</time><name>PT4065</name></trkpt>
<trkpt lat="52.873584" lon="-3.377331"><ele>610</ele><time>2020-01-18T10:58:58Z</time><name>PT4066</name></trkpt>
<trkpt lat="52.873584" lon="-3.377348"><ele>610</ele><time>2020-01-18T10:58:59Z</time><name>PT4067</name></trkpt>
<trkpt lat="52.873585" lon="-3.377361"><ele>610</ele><time>2020-01-18T10:58:59Z</time><name>PT4068</name></trkpt>
<trkpt lat="52.873582" lon="-3.377366"><ele>610</ele><time>2020-01-18T10:59:00Z</time><name>PT4069</name></trkpt>
<trkpt lat="52.873582" lon="-3.377376"><ele>610</ele><time>2020-01-18T10:59:02Z</time><name>PT4070</name></trkpt>
<trkpt lat="52.873582" lon="-3.377384"><ele>610</ele><time>2020-01-18T10:59:02Z</time><name>PT4071</name></trkpt>
<trkpt lat="52.873584" lon="-3.377389"><ele>610</ele><time>2020-01-18T10:59:04Z</time><name>PT4072</name></trkpt>
<trkpt lat="52.873581" lon="-3.377394"><ele>610</ele><time>2020-01-18T10:59:05Z</time><name>PT4073</name></trkpt>
<trkpt lat="52.873582" lon="-3.377403"><ele>611</ele><time>2020-01-18T10:59:06Z</time><name>PT4074</name></trkpt>
<trkpt lat="52.873582" lon="-3.377412"><ele>610</ele><time>2020-01-18T10:59:07Z</time><name>PT4075</name></trkpt>
<trkpt lat="52.873587" lon="-3.377418"><ele>610</ele><time>2020-01-18T10:59:08Z</time><name>PT4076</name></trkpt>
<trkpt lat="52.873588" lon="-3.377423"><ele>610</ele><time>2020-01-18T10:59:08Z</time><name>PT4077</name></trkpt>
<trkpt lat="52.873589" lon="-3.377430"><ele>609</ele><time>2020-01-18T10:59:10Z</time><name>PT4078</name></trkpt>
<trkpt lat="52.873587" lon="-3.377439"><ele>609</ele><time>2020-01-18T10:59:11Z</time><name>PT4079</name></trkpt>
<trkpt lat="52.873587" lon="-3.377448"><ele>609</ele><time>2020-01-18T10:59:11Z</time><name>PT4080</name></trkpt>
<trkpt lat="52.873588" lon="-3.377456"><ele>608</ele><time>2020-01-18T10:59:12Z</time><name>PT4081</name></trkpt>
<trkpt lat="52.873590" lon="-3.377464"><ele>608</ele><time>2020-01-18T10:59:14Z</time><name>PT4082</name></trkpt>
<trkpt lat="52.873592" lon="-3.377473"><ele>608</ele><time>2020-01-18T10:59:15Z</time><name>PT4083</name></trkpt>
<trkpt lat="52.873588" lon="-3.377491"><ele>609</ele><time>2020-01-18T10:59:17Z</time><name>PT4084</name></trkpt>
<trkpt lat="52.873586" lon="-3.377507"><ele>608</ele><time>2020-01-18T10:59:17Z</time><name>PT4085</name></trkpt>
<trkpt lat="52.873589" lon="-3.377515"><ele>608</ele><time>2020-01-18T10:59:19Z</time><name>PT4086</name></trkpt>
<trkpt lat="52.873591" lon="-3.377525"><ele>608</ele><time>2020-01-18T10:59:20Z</time><name>PT4087</name></trkpt>
<trkpt lat="52.873588" lon="-3.377542"><ele>608</ele><time>2020-01-18T10:59:21Z</time><name>PT4088</name></trkpt>
<trkpt lat="52.873588" lon="-3.377543"><ele>607</ele><time>2020-01-18T10:59:22Z</time><name>PT4089</name></trkpt>
<trkpt lat="52.873589" lon="-3.377550"><ele>607</ele><time>2020-01-18T10:59:23Z</time><name>PT4090</name></trkpt>
<trkpt lat="52.873592" lon="-3.377565"><ele>608</ele><time>2020-01-18T10:59:23Z</time><name>PT4091</name></trkpt>
<trkpt lat="52.873591" lon="-3.377582"><ele>607</ele><time>2020-01-18T10:59:25Z</time><name>PT4092</name></trkpt>
<trkpt lat="52.873586" lon="-3.377599"><ele>608</ele><time>2020-01-18T10:59:26Z</time><name>PT4093</name></trkpt>
<trkpt lat="52.873586" lon="-3.377610"><ele>608</ele><time>2020-01-18T10:59:27Z</time><name>PT4094</name></trkpt>
<trkpt lat="52.873588" lon="-3.377625"><ele>608</ele><time>2020-01-18T10:59:28Z</time><name>PT4095</name></trkpt>
<trkpt lat="52.873589" lon="-3.377634"><ele>609</ele><time>2020-01-18T10:59:29Z</time><name>PT4096</name></trkpt>
<trkpt lat="52.873589" lon="-3.377644"><ele>609</ele><time>2020-01-18T10:59:29Z</time><name>PT4097</name></trkpt>
<trkpt lat="52.873586" lon="-3.377656"><ele>609</ele><time>2020-01-18T10:59:31Z</time><name>PT4098</name></trkpt>
<trkpt lat="52.873584" lon="-3.377664"><ele>609</ele><time>2020-01-18T10:59:32Z</time><name>PT4099</name></trkpt>
<trkpt lat="52.873576" lon="-3.377679"><ele>609</ele><time>2020-01-18T10:59:32Z</time><name>PT4100</name></trkpt>
<trkpt lat="52.873567" lon="-3.377684"><ele>611</ele><time>2020-01-18T10:59:34Z</time><name>PT4101</name></trkpt>
<trkpt lat="52.873562" lon="-3.377691"><ele>610</ele><time>2020-01-18T10:59:35Z</time><name>PT4102</name></trkpt>
<trkpt lat="52.873558" lon="-3.377699"><ele>611</ele><time>2020-01-18T10:59:35Z</time><name>PT4103</name></trkpt>
<trkpt lat="52.873558" lon="-3.377707"><ele>611</ele><time>2020-01-18T10:59:37Z</time><name>PT4104</name></trkpt>
<trkpt lat="52.873550" lon="-3.377716"><ele>611</ele><time>2020-01-18T10:59:38Z</time><name>PT4105</name></trkpt>
<trkpt lat="52.873547" lon="-3.377723"><ele>612</ele><time>2020-01-18T10:59:38Z</time><name>PT4106</name></trkpt>
<trkpt lat="52.873552" lon="-3.377733"><ele>612</ele><time>2020-01-18T10:59:40Z</time><name>PT4107</name></trkpt>
<trkpt lat="52.873550" lon="-3.377743"><ele>611</ele><time>2020-01-18T10:59:41Z</time><name>PT4108</name></trkpt>
<trkpt lat="52.873547" lon="-3.377751"><ele>612</ele><time>2020-01-18T10:59:41Z</time><name>PT4109</name></trkpt>
<trkpt lat="52.873542" lon="-3.377759"><ele>612</ele><time>2020-01-18T10:59:42Z</time><name>PT4110</name></trkpt>
<trkpt lat="52.873537" lon="-3.377771"><ele>612</ele><time>2020-01-18T10:59:44Z</time><name>PT4111</name></trkpt>
<trkpt lat="52.873533" lon="-3.377781"><ele>612</ele><time>2020-01-18T10:59:45Z</time><name>PT4112</name></trkpt>
<trkpt lat="52.873526" lon="-3.377792"><ele>612</ele><time>2020-01-18T10:59:46Z</time><name>PT4113</name></trkpt>
<trkpt lat="52.873517" lon="-3.377794"><ele>612</ele><time>2020-01-18T10:59:47Z</time><name>PT4114</name></trkpt>
<trkpt lat="52.873511" lon="-3.377799"><ele>612</ele><time>2020-01-18T10:59:48Z</time><name>PT4115</name></trkpt>
<trkpt lat="52.873509" lon="-3.377800"><ele>612</ele><time>2020-01-18T10:59:49Z</time><name>PT4116</name></trkpt>
<trkpt lat="52.873507" lon="-3.377804"><ele>612</ele><time>2020-01-18T10:59:50Z</time><name>PT4117</name></trkpt>
<trkpt lat="52.873505" lon="-3.377809"><ele>612</ele><time>2020-01-18T10:59:51Z</time><name>PT4118</name></trkpt>
<trkpt lat="52.873502" lon="-3.377818"><ele>612</ele><time>2020-01-18T10:59:52Z</time><name>PT4119</name></trkpt>
<trkpt lat="52.873502" lon="-3.377827"><ele>612</ele><time>2020-01-18T10:59:53Z</time><name>PT4120</name></trkpt>
<trkpt lat="52.873504" lon="-3.377830"><ele>612</ele><time>2020-01-18T10:59:54Z</time><name>PT4121</name></trkpt>
<trkpt lat="52.873502" lon="-3.377839"><ele>611</ele><time>2020-01-18T10:59:55Z</time><name>PT4122</name></trkpt>
<trkpt lat="52.873501" lon="-3.377844"><ele>610</ele><time>2020-01-18T10:59:56Z</time><name>PT4123</name></trkpt>
<trkpt lat="52.873500" lon="-3.377847"><ele>610</ele><time>2020-01-18T10:59:57Z</time><name>PT4124</name></trkpt>
<trkpt lat="52.873498" lon="-3.377846"><ele>611</ele><time>2020-01-18T10:59:58Z</time><name>PT4125</name></trkpt>
<trkpt lat="52.873496" lon="-3.377853"><ele>611</ele><time>2020-01-18T10:59:59Z</time><name>PT4126</name></trkpt>
<trkpt lat="52.873496" lon="-3.377856"><ele>611</ele><time>2020-01-18T10:59:59Z</time><name>PT4127</name></trkpt>
<trkpt lat="52.873495" lon="-3.377858"><ele>610</ele><time>2020-01-18T11:00:01Z</time><name>PT4128</name></trkpt>
<trkpt lat="52.873495" lon="-3.377861"><ele>610</ele><time>2020-01-18T11:00:02Z</time><name>PT4129</name></trkpt>
<trkpt lat="52.873494" lon="-3.377870"><ele>610</ele><time>2020-01-18T11:00:02Z</time><name>PT4130</name></trkpt>
<trkpt lat="52.873492" lon="-3.377881"><ele>610</ele><time>2020-01-18T11:00:04Z</time><name>PT4131</name></trkpt>
<trkpt lat="52.873493" lon="-3.377891"><ele>610</ele><time>2020-01-18T11:00:05Z</time><name>PT4132</name></trkpt>
<trkpt lat="52.873494" lon="-3.377896"><ele>609</ele><time>2020-01-18T11:00:05Z</time><name>PT4133</name></trkpt>
<trkpt lat="52.873495" lon="-3.377902"><ele>609</ele><time>2020-01-18T11:00:07Z</time><name>PT4134</name></trkpt>
<trkpt lat="52.873498" lon="-3.377913"><ele>609</ele><time>2020-01-18T11:00:08Z</time><name>PT4135</name></trkpt>
<trkpt lat="52.873497" lon="-3.377926"><ele>608</ele><time>2020-01-18T11:00:08Z</time><name>PT4136</name></trkpt>
<trkpt lat="52.873498" lon="-3.377939"><ele>609</ele><time>2020-01-18T11:00:10Z</time><name>PT4137</name></trkpt>
<trkpt lat="52.873497" lon="-3.377945"><ele>608</ele><time>2020-01-18T11:00:11Z</time><name>PT4138</name></trkpt>
<trkpt lat="52.873495" lon="-3.377951"><ele>609</ele><time>2020-01-18T11:00:11Z</time><name>PT4139</name></trkpt>
<trkpt lat="52.873496" lon="-3.377955"><ele>608</ele><time>2020-01-18T11:00:12Z</time><name>PT4140</name></trkpt>
<trkpt lat="52.873506" lon="-3.377954"><ele>609</ele><time>2020-01-18T11:00:16Z</time><name>PT4141</name></trkpt>
<trkpt lat="52.873508" lon="-3.377955"><ele>609</ele><time>2020-01-18T11:00:17Z</time><name>PT4142</name></trkpt>
<trkpt lat="52.873504" lon="-3.377955"><ele>609</ele><time>2020-01-18T11:00:17Z</time><name>PT4143</name></trkpt>
<trkpt lat="52.873501" lon="-3.377960"><ele>609</ele><time>2020-01-18T11:00:18Z</time><name>PT4144</name></trkpt>
<trkpt lat="52.873500" lon="-3.377967"><ele>609</ele><time>2020-01-18T11:00:20Z</time><name>PT4145</name></trkpt>
<trkpt lat="52.873497" lon="-3.377976"><ele>609</ele><time>2020-01-18T11:00:20Z</time><name>PT4146</name></trkpt>
<trkpt lat="52.873496" lon="-3.377981"><ele>608</ele><time>2020-01-18T11:00:21Z</time><name>PT4147</name></trkpt>
<trkpt lat="52.873492" lon="-3.377987"><ele>608</ele><time>2020-01-18T11:00:23Z</time><name>PT4148</name></trkpt>
<trkpt lat="52.873491" lon="-3.377990"><ele>607</ele><time>2020-01-18T11:00:23Z</time><name>PT4149</name></trkpt>
<trkpt lat="52.873490" lon="-3.378000"><ele>607</ele><time>2020-01-18T11:00:25Z</time><name>PT4150</name></trkpt>
<trkpt lat="52.873488" lon="-3.378005"><ele>607</ele><time>2020-01-18T11:00:26Z</time><name>PT4151</name></trkpt>
<trkpt lat="52.873489" lon="-3.378006"><ele>607</ele><time>2020-01-18T11:00:26Z</time><name>PT4152</name></trkpt>
<trkpt lat="52.873488" lon="-3.378004"><ele>607</ele><time>2020-01-18T11:00:27Z</time><name>PT4153</name></trkpt>
<trkpt lat="52.873487" lon="-3.378006"><ele>606</ele><time>2020-01-18T11:00:36Z</time><name>PT4154</name></trkpt>
<trkpt lat="52.873482" lon="-3.378005"><ele>606</ele><time>2020-01-18T11:00:38Z</time><name>PT4155</name></trkpt>
<trkpt lat="52.873478" lon="-3.378014"><ele>606</ele><time>2020-01-18T11:00:38Z</time><name>PT4156</name></trkpt>
<trkpt lat="52.873471" lon="-3.378024"><ele>606</ele><time>2020-01-18T11:00:40Z</time><name>PT4157</name></trkpt>
<trkpt lat="52.873473" lon="-3.378036"><ele>607</ele><time>2020-01-18T11:00:41Z</time><name>PT4158</name></trkpt>
<trkpt lat="52.873476" lon="-3.378042"><ele>607</ele><time>2020-01-18T11:00:41Z</time><name>PT4159</name></trkpt>
<trkpt lat="52.873472" lon="-3.378047"><ele>608</ele><time>2020-01-18T11:00:42Z</time><name>PT4160</name></trkpt>
<trkpt lat="52.873466" lon="-3.378050"><ele>608</ele><time>2020-01-18T11:00:44Z</time><name>PT4161</name></trkpt>
<trkpt lat="52.873467" lon="-3.378056"><ele>607</ele><time>2020-01-18T11:00:45Z</time><name>PT4162</name></trkpt>
<trkpt lat="52.873470" lon="-3.378062"><ele>608</ele><time>2020-01-18T11:00:46Z</time><name>PT4163</name></trkpt>
<trkpt lat="52.873467" lon="-3.378069"><ele>607</ele><time>2020-01-18T11:00:47Z</time><name>PT4164</name></trkpt>
<trkpt lat="52.873465" lon="-3.378075"><ele>608</ele><time>2020-01-18T11:00:47Z</time><name>PT4165</name></trkpt>
<trkpt lat="52.873464" lon="-3.378079"><ele>608</ele><time>2020-01-18T11:00:49Z</time><name>PT4166</name></trkpt>
<trkpt lat="52.873457" lon="-3.378089"><ele>609</ele><time>2020-01-18T11:00:50Z</time><name>PT4167</name></trkpt>
<trkpt lat="52.873449" lon="-3.378097"><ele>609</ele><time>2020-01-18T11:00:51Z</time><name>PT4168</name></trkpt>
<trkpt lat="52.873445" lon="-3.378103"><ele>609</ele><time>2020-01-18T11:00:52Z</time><name>PT4169</name></trkpt>
<trkpt lat="52.873442" lon="-3.378109"><ele>609</ele><time>2020-01-18T11:00:53Z</time><name>PT4170</name></trkpt>
<trkpt lat="52.873443" lon="-3.378114"><ele>609</ele><time>2020-01-18T11:00:54Z</time><name>PT4171</name></trkpt>
<trkpt lat="52.873442" lon="-3.378121"><ele>609</ele><time>2020-01-18T11:00:55Z</time><name>PT4172</name></trkpt>
<trkpt lat="52.873441" lon="-3.378129"><ele>609</ele><time>2020-01-18T11:00:56Z</time><name>PT4173</name></trkpt>
<trkpt lat="52.873434" lon="-3.378133"><ele>609</ele><time>2020-01-18T11:00:56Z</time><name>PT4174</name></trkpt>
<trkpt lat="52.873432" lon="-3.378138"><ele>609</ele><time>2020-01-18T11:00:58Z</time><name>PT4175</name></trkpt>
<trkpt lat="52.873430" lon="-3.378143"><ele>609</ele><time>2020-01-18T11:00:59Z</time><name>PT4176</name></trkpt>
<trkpt lat="52.873429" lon="-3.378150"><ele>609</ele><time>2020-01-18T11:01:00Z</time><name>PT4177</name></trkpt>
<trkpt lat="52.873427" lon="-3.378155"><ele>609</ele><time>2020-01-18T11:01:01Z</time><name>PT4178</name></trkpt>
<trkpt lat="52.873424" lon="-3.378156"><ele>609</ele><time>2020-01-18T11:01:02Z</time><name>PT4179</name></trkpt>
<trkpt lat="52.873421" lon="-3.378157"><ele>609</ele><time>2020-01-18T11:01:02Z</time><name>PT4180</name></trkpt>
<trkpt lat="52.873419" lon="-3.378161"><ele>609</ele><time>2020-01-18T11:01:04Z</time><name>PT4181</name></trkpt>
<trkpt lat="52.873417" lon="-3.378169"><ele>609</ele><time>2020-01-18T11:01:05Z</time><name>PT4182</name></trkpt>
<trkpt lat="52.873411" lon="-3.378169"><ele>609</ele><time>2020-01-18T11:01:05Z</time><name>PT4183</name></trkpt>
<trkpt lat="52.873408" lon="-3.378172"><ele>609</ele><time>2020-01-18T11:01:07Z</time><name>PT4184</name></trkpt>
<trkpt lat="52.873406" lon="-3.378181"><ele>609</ele><time>2020-01-18T11:01:08Z</time><name>PT4185</name></trkpt>
<trkpt lat="52.873405" lon="-3.378187"><ele>608</ele><time>2020-01-18T11:01:08Z</time><name>PT4186</name></trkpt>
<trkpt lat="52.873399" lon="-3.378185"><ele>609</ele><time>2020-01-18T11:01:10Z</time><name>PT4187</name></trkpt>
<trkpt lat="52.873399" lon="-3.378189"><ele>609</ele><time>2020-01-18T11:01:11Z</time><name>PT4188</name></trkpt>
<trkpt lat="52.873399" lon="-3.378197"><ele>609</ele><time>2020-01-18T11:01:11Z</time><name>PT4189</name></trkpt>
<trkpt lat="52.873399" lon="-3.378201"><ele>609</ele><time>2020-01-18T11:01:13Z</time><name>PT4190</name></trkpt>
<trkpt lat="52.873397" lon="-3.378202"><ele>609</ele><time>2020-01-18T11:01:14Z</time><name>PT4191</name></trkpt>
<trkpt lat="52.873393" lon="-3.378205"><ele>609</ele><time>2020-01-18T11:01:14Z</time><name>PT4192</name></trkpt>
<trkpt lat="52.873392" lon="-3.378203"><ele>609</ele><time>2020-01-18T11:01:16Z</time><name>PT4193</name></trkpt>
<trkpt lat="52.873392" lon="-3.378209"><ele>609</ele><time>2020-01-18T11:01:17Z</time><name>PT4194</name></trkpt>
<trkpt lat="52.873389" lon="-3.378209"><ele>609</ele><time>2020-01-18T11:01:17Z</time><name>PT4195</name></trkpt>
<trkpt lat="52.873386" lon="-3.378208"><ele>610</ele><time>2020-01-18T11:01:18Z</time><name>PT4196</name></trkpt>
<trkpt lat="52.873383" lon="-3.378205"><ele>610</ele><time>2020-01-18T11:01:20Z</time><name>PT4197</name></trkpt>
<trkpt lat="52.873376" lon="-3.378197"><ele>610</ele><time>2020-01-18T11:01:20Z</time><name>PT4198</name></trkpt>
<trkpt lat="52.873377" lon="-3.378208"><ele>610</ele><time>2020-01-18T11:01:21Z</time><name>PT4199</name></trkpt>
<trkpt lat="52.873373" lon="-3.378205"><ele>610</ele><time>2020-01-18T11:01:23Z</time><name>PT4200</name></trkpt>
<trkpt lat="52.873371" lon="-3.378205"><ele>610</ele><time>2020-01-18T11:01:23Z</time><name>PT4201</name></trkpt>
<trkpt lat="52.873365" lon="-3.378202"><ele>610</ele><time>2020-01-18T11:01:25Z</time><name>PT4202</name></trkpt>
<trkpt lat="52.873356" lon="-3.378188"><ele>609</ele><time>2020-01-18T11:02:00Z</time><name>PT4203</name></trkpt>
<trkpt lat="52.873350" lon="-3.378194"><ele>609</ele><time>2020-01-18T11:02:02Z</time><name>PT4204</name></trkpt>
<trkpt lat="52.873347" lon="-3.378192"><ele>608</ele><time>2020-01-18T11:02:37Z</time><name>PT4205</name></trkpt>
<trkpt lat="52.873343" lon="-3.378190"><ele>609</ele><time>2020-01-18T11:02:38Z</time><name>PT4206</name></trkpt>
<trkpt lat="52.873342" lon="-3.378192"><ele>609</ele><time>2020-01-18T11:02:39Z</time><name>PT4207</name></trkpt>
<trkpt lat="52.873339" lon="-3.378199"><ele>609</ele><time>2020-01-18T11:02:40Z</time><name>PT4208</name></trkpt>
<trkpt lat="52.873336" lon="-3.378201"><ele>609</ele><time>2020-01-18T11:02:41Z</time><name>PT4209</name></trkpt>
<trkpt lat="52.873334" lon="-3.378207"><ele>609</ele><time>2020-01-18T11:03:00Z</time><name>PT4210</name></trkpt>
<trkpt lat="52.873333" lon="-3.378213"><ele>609</ele><time>2020-01-18T11:03:00Z</time><name>PT4211</name></trkpt>
<trkpt lat="52.873333" lon="-3.378214"><ele>609</ele><time>2020-01-18T11:03:02Z</time><name>PT4212</name></trkpt>
<trkpt lat="52.873333" lon="-3.378216"><ele>609</ele><time>2020-01-18T11:03:02Z</time><name>PT4213</name></trkpt>
<trkpt lat="52.873331" lon="-3.378216"><ele>610</ele><time>2020-01-18T11:03:03Z</time><name>PT4214</name></trkpt>
<trkpt lat="52.873331" lon="-3.378221"><ele>610</ele><time>2020-01-18T11:03:10Z</time><name>PT4215</name></trkpt>
<trkpt lat="52.873333" lon="-3.378217"><ele>610</ele><time>2020-01-18T11:03:11Z</time><name>PT4216</name></trkpt>
<trkpt lat="52.873330" lon="-3.378216"><ele>610</ele><time>2020-01-18T11:03:11Z</time><name>PT4217</name></trkpt>
<trkpt lat="52.873330" lon="-3.378217"><ele>610</ele><time>2020-01-18T11:03:13Z</time><name>PT4218</name></trkpt>
<trkpt lat="52.873327" lon="-3.378215"><ele>610</ele><time>2020-01-18T11:03:14Z</time><name>PT4219</name></trkpt>
<trkpt lat="52.873325" lon="-3.378212"><ele>610</ele><time>2020-01-18T11:03:14Z</time><name>PT4220</name></trkpt>
<trkpt lat="52.873322" lon="-3.378219"><ele>611</ele><time>2020-01-18T11:03:16Z</time><name>PT4221</name></trkpt>
<trkpt lat="52.873321" lon="-3.378226"><ele>611</ele><time>2020-01-18T11:03:17Z</time><name>PT4222</name></trkpt>
<trkpt lat="52.873319" lon="-3.378218"><ele>611</ele><time>2020-01-18T11:03:17Z</time><name>PT4223</name></trkpt>
<trkpt lat="52.873322" lon="-3.378219"><ele>610</ele><time>2020-01-18T11:03:19Z</time><name>PT4224</name></trkpt>
<trkpt lat="52.873319" lon="-3.378223"><ele>610</ele><time>2020-01-18T11:03:20Z</time><name>PT4225</name></trkpt>
<trkpt lat="52.873318" lon="-3.378224"><ele>610</ele><time>2020-01-18T11:03:21Z</time><name>PT4226</name></trkpt>
<trkpt lat="52.873320" lon="-3.378232"><ele>611</ele><time>2020-01-18T11:03:26Z</time><name>PT4227</name></trkpt>
<trkpt lat="52.873321" lon="-3.378243"><ele>611</ele><time>2020-01-18T11:03:27Z</time><name>PT4228</name></trkpt>
<trkpt lat="52.873327" lon="-3.378253"><ele>611</ele><time>2020-01-18T11:03:28Z</time><name>PT4229</name></trkpt>
<trkpt lat="52.873330" lon="-3.378272"><ele>611</ele><time>2020-01-18T11:03:29Z</time><name>PT4230</name></trkpt>
<trkpt lat="52.873332" lon="-3.378281"><ele>611</ele><time>2020-01-18T11:03:29Z</time><name>PT4231</name></trkpt>
<trkpt lat="52.873337" lon="-3.378288"><ele>611</ele><time>2020-01-18T11:03:31Z</time><name>PT4232</name></trkpt>
<trkpt lat="52.873338" lon="-3.378300"><ele>611</ele><time>2020-01-18T11:03:32Z</time><name>PT4233</name></trkpt>
<trkpt lat="52.873340" lon="-3.378312"><ele>611</ele><time>2020-01-18T11:03:32Z</time><name>PT4234</name></trkpt>
<trkpt lat="52.873343" lon="-3.378323"><ele>611</ele><time>2020-01-18T11:03:33Z</time><name>PT4235</name></trkpt>
<trkpt lat="52.873338" lon="-3.378338"><ele>611</ele><time>2020-01-18T11:03:35Z</time><name>PT4236</name></trkpt>
<trkpt lat="52.873338" lon="-3.378346"><ele>611</ele><time>2020-01-18T11:03:35Z</time><name>PT4237</name></trkpt>
<trkpt lat="52.873341" lon="-3.378360"><ele>612</ele><time>2020-01-18T11:03:37Z</time><name>PT4238</name></trkpt>
<trkpt lat="52.873341" lon="-3.378370"><ele>611</ele><time>2020-01-18T11:03:38Z</time><name>PT4239</name></trkpt>
<trkpt lat="52.873341" lon="-3.378380"><ele>611</ele><time>2020-01-18T11:03:39Z</time><name>PT4240</name></trkpt>
<trkpt lat="52.873343" lon="-3.378392"><ele>611</ele><time>2020-01-18T11:03:40Z</time><name>PT4241</name></trkpt>
<trkpt lat="52.873349" lon="-3.378404"><ele>611</ele><time>2020-01-18T11:03:41Z</time><name>PT4242</name></trkpt>
<trkpt lat="52.873353" lon="-3.378417"><ele>611</ele><time>2020-01-18T11:03:41Z</time><name>PT4243</name></trkpt>
<trkpt lat="52.873354" lon="-3.378430"><ele>611</ele><time>2020-01-18T11:03:43Z</time><name>PT4244</name></trkpt>
<trkpt lat="52.873354" lon="-3.378444"><ele>611</ele><time>2020-01-18T11:03:44Z</time><name>PT4245</name></trkpt>
<trkpt lat="52.873357" lon="-3.378459"><ele>611</ele><time>2020-01-18T11:03:44Z</time><name>PT4246</name></trkpt>
<trkpt lat="52.873359" lon="-3.378473"><ele>611</ele><time>2020-01-18T11:03:45Z</time><name>PT4247</name></trkpt>
<trkpt lat="52.873357" lon="-3.378482"><ele>611</ele><time>2020-01-18T11:03:47Z</time><name>PT4248</name></trkpt>
<trkpt lat="52.873360" lon="-3.378493"><ele>611</ele><time>2020-01-18T11:03:47Z</time><name>PT4249</name></trkpt>
<trkpt lat="52.873360" lon="-3.378501"><ele>610</ele><time>2020-01-18T11:03:49Z</time><name>PT4250</name></trkpt>
<trkpt lat="52.873359" lon="-3.378514"><ele>610</ele><time>2020-01-18T11:03:50Z</time><name>PT4251</name></trkpt>
<trkpt lat="52.873360" lon="-3.378531"><ele>610</ele><time>2020-01-18T11:03:50Z</time><name>PT4252</name></trkpt>
<trkpt lat="52.873356" lon="-3.378548"><ele>610</ele><time>2020-01-18T11:03:52Z</time><name>PT4253</name></trkpt>
<trkpt lat="52.873351" lon="-3.378564"><ele>609</ele><time>2020-01-18T11:03:53Z</time><name>PT4254</name></trkpt>
<trkpt lat="52.873350" lon="-3.378581"><ele>609</ele><time>2020-01-18T11:03:53Z</time><name>PT4255</name></trkpt>
<trkpt lat="52.873346" lon="-3.378599"><ele>609</ele><time>2020-01-18T11:03:55Z</time><name>PT4256</name></trkpt>
<trkpt lat="52.873344" lon="-3.378615"><ele>610</ele><time>2020-01-18T11:03:56Z</time><name>PT4257</name></trkpt>
<trkpt lat="52.873342" lon="-3.378627"><ele>610</ele><time>2020-01-18T11:03:56Z</time><name>PT4258</name></trkpt>
<trkpt lat="52.873342" lon="-3.378640"><ele>610</ele><time>2020-01-18T11:03:58Z</time><name>PT4259</name></trkpt>
<trkpt lat="52.873344" lon="-3.378652"><ele>610</ele><time>2020-01-18T11:03:59Z</time><name>PT4260</name></trkpt>
<trkpt lat="52.873341" lon="-3.378661"><ele>610</ele><time>2020-01-18T11:03:59Z</time><name>PT4261</name></trkpt>
<trkpt lat="52.873339" lon="-3.378675"><ele>610</ele><time>2020-01-18T11:04:00Z</time><name>PT4262</name></trkpt>
<trkpt lat="52.873337" lon="-3.378686"><ele>610</ele><time>2020-01-18T11:04:02Z</time><name>PT4263</name></trkpt>
<trkpt lat="52.873340" lon="-3.378692"><ele>611</ele><time>2020-01-18T11:04:02Z</time><name>PT4264</name></trkpt>
<trkpt lat="52.873344" lon="-3.378705"><ele>611</ele><time>2020-01-18T11:04:04Z</time><name>PT4265</name></trkpt>
<trkpt lat="52.873347" lon="-3.378715"><ele>611</ele><time>2020-01-18T11:04:05Z</time><name>PT4266</name></trkpt>
<trkpt lat="52.873351" lon="-3.378727"><ele>612</ele><time>2020-01-18T11:04:06Z</time><name>PT4267</name></trkpt>
<trkpt lat="52.873352" lon="-3.378738"><ele>612</ele><time>2020-01-18T11:04:07Z</time><name>PT4268</name></trkpt>
<trkpt lat="52.873356" lon="-3.378754"><ele>612</ele><time>2020-01-18T11:04:08Z</time><name>PT4269</name></trkpt>
<trkpt lat="52.873358" lon="-3.378766"><ele>612</ele><time>2020-01-18T11:04:08Z</time><name>PT4270</name></trkpt>
<trkpt lat="52.873358" lon="-3.378782"><ele>612</ele><time>2020-01-18T11:04:09Z</time><name>PT4271</name></trkpt>
<trkpt lat="52.873357" lon="-3.378793"><ele>611</ele><time>2020-01-18T11:04:11Z</time><name>PT4272</name></trkpt>
<trkpt lat="52.873357" lon="-3.378805"><ele>612</ele><time>2020-01-18T11:04:11Z</time><name>PT4273</name></trkpt>
<trkpt lat="52.873359" lon="-3.378817"><ele>611</ele><time>2020-01-18T11:04:12Z</time><name>PT4274</name></trkpt>
<trkpt lat="52.873361" lon="-3.378827"><ele>611</ele><time>2020-01-18T11:04:14Z</time><name>PT4275</name></trkpt>
<trkpt lat="52.873365" lon="-3.378838"><ele>611</ele><time>2020-01-18T11:04:14Z</time><name>PT4276</name></trkpt>
<trkpt lat="52.873365" lon="-3.378847"><ele>611</ele><time>2020-01-18T11:04:15Z</time><name>PT4277</name></trkpt>
<trkpt lat="52.873364" lon="-3.378863"><ele>610</ele><time>2020-01-18T11:04:17Z</time><name>PT4278</name></trkpt>
<trkpt lat="52.873363" lon="-3.378875"><ele>610</ele><time>2020-01-18T11:04:17Z</time><name>PT4279</name></trkpt>
<trkpt lat="52.873366" lon="-3.378894"><ele>610</ele><time>2020-01-18T11:04:18Z</time><name>PT4280</name></trkpt>
<trkpt lat="52.873364" lon="-3.378910"><ele>610</ele><time>2020-01-18T11:04:20Z</time><name>PT4281</name></trkpt>
<trkpt lat="52.873361" lon="-3.378928"><ele>611</ele><time>2020-01-18T11:04:20Z</time><name>PT4282</name></trkpt>
<trkpt lat="52.873361" lon="-3.378940"><ele>611</ele><time>2020-01-18T11:04:21Z</time><name>PT4283</name></trkpt>
<trkpt lat="52.873360" lon="-3.378951"><ele>610</ele><time>2020-01-18T11:04:23Z</time><name>PT4284</name></trkpt>
<trkpt lat="52.873362" lon="-3.378964"><ele>611</ele><time>2020-01-18T11:04:23Z</time><name>PT4285</name></trkpt>
<trkpt lat="52.873363" lon="-3.378972"><ele>611</ele><time>2020-01-18T11:04:24Z</time><name>PT4286</name></trkpt>
<trkpt lat="52.873362" lon="-3.378981"><ele>611</ele><time>2020-01-18T11:04:26Z</time><name>PT4287</name></trkpt>
<trkpt lat="52.873365" lon="-3.378992"><ele>612</ele><time>2020-01-18T11:04:26Z</time><name>PT4288</name></trkpt>
<trkpt lat="52.873366" lon="-3.379008"><ele>613</ele><time>2020-01-18T11:04:27Z</time><name>PT4289</name></trkpt>
<trkpt lat="52.873369" lon="-3.379020"><ele>613</ele><time>2020-01-18T11:04:29Z</time><name>PT4290</name></trkpt>
<trkpt lat="52.873372" lon="-3.379038"><ele>614</ele><time>2020-01-18T11:04:29Z</time><name>PT4291</name></trkpt>
<trkpt lat="52.873374" lon="-3.379056"><ele>614</ele><time>2020-01-18T11:04:30Z</time><name>PT4292</name></trkpt>
<trkpt lat="52.873373" lon="-3.379071"><ele>614</ele><time>2020-01-18T11:04:32Z</time><name>PT4293</name></trkpt>
<trkpt lat="52.873373" lon="-3.379084"><ele>614</ele><time>2020-01-18T11:04:32Z</time><name>PT4294</name></trkpt>
<trkpt lat="52.873375" lon="-3.379097"><ele>615</ele><time>2020-01-18T11:04:33Z</time><name>PT4295</name></trkpt>
<trkpt lat="52.873374" lon="-3.379110"><ele>615</ele><time>2020-01-18T11:04:35Z</time><name>PT4296</name></trkpt>
<trkpt lat="52.873377" lon="-3.379124"><ele>615</ele><time>2020-01-18T11:04:35Z</time><name>PT4297</name></trkpt>
<trkpt lat="52.873376" lon="-3.379138"><ele>616</ele><time>2020-01-18T11:04:36Z</time><name>PT4298</name></trkpt>
<trkpt lat="52.873377" lon="-3.379147"><ele>616</ele><time>2020-01-18T11:04:38Z</time><name>PT4299</name></trkpt>
<trkpt lat="52.873379" lon="-3.379158"><ele>617</ele><time>2020-01-18T11:04:38Z</time><name>PT4300</name></trkpt>
<trkpt lat="52.873381" lon="-3.379171"><ele>616</ele><time>2020-01-18T11:04:40Z</time><name>PT4301</name></trkpt>
<trkpt lat="52.873381" lon="-3.379183"><ele>616</ele><time>2020-01-18T11:04:41Z</time><name>PT4302</name></trkpt>
<trkpt lat="52.873379" lon="-3.379198"><ele>615</ele><time>2020-01-18T11:04:41Z</time><name>PT4303</name></trkpt>
<trkpt lat="52.873375" lon="-3.379207"><ele>615</ele><time>2020-01-18T11:04:42Z</time><name>PT4304</name></trkpt>
<trkpt lat="52.873376" lon="-3.379219"><ele>616</ele><time>2020-01-18T11:04:44Z</time><name>PT4305</name></trkpt>
<trkpt lat="52.873376" lon="-3.379231"><ele>616</ele><time>2020-01-18T11:04:45Z</time><name>PT4306</name></trkpt>
<trkpt lat="52.873372" lon="-3.379240"><ele>615</ele><time>2020-01-18T11:04:45Z</time><name>PT4307</name></trkpt>
<trkpt lat="52.873368" lon="-3.379250"><ele>615</ele><time>2020-01-18T11:04:47Z</time><name>PT4308</name></trkpt>
<trkpt lat="52.873364" lon="-3.379263"><ele>616</ele><time>2020-01-18T11:04:47Z</time><name>PT4309</name></trkpt>
<trkpt lat="52.873362" lon="-3.379273"><ele>616</ele><time>2020-01-18T11:04:48Z</time><name>PT4310</name></trkpt>
<trkpt lat="52.873362" lon="-3.379287"><ele>616</ele><time>2020-01-18T11:04:50Z</time><name>PT4311</name></trkpt>
<trkpt lat="52.873360" lon="-3.379306"><ele>616</ele><time>2020-01-18T11:04:50Z</time><name>PT4312</name></trkpt>
<trkpt lat="52.873363" lon="-3.379324"><ele>616</ele><time>2020-01-18T11:04:52Z</time><name>PT4313</name></trkpt>
<trkpt lat="52.873364" lon="-3.379339"><ele>616</ele><time>2020-01-18T11:04:53Z</time><name>PT4314</name></trkpt>
<trkpt lat="52.873365" lon="-3.379352"><ele>615</ele><time>2020-01-18T11:04:54Z</time><name>PT4315</name></trkpt>
<trkpt lat="52.873371" lon="-3.379360"><ele>615</ele><time>2020-01-18T11:04:55Z</time><name>PT4316</name></trkpt>
<trkpt lat="52.873378" lon="-3.379372"><ele>614</ele><time>2020-01-18T11:04:56Z</time><name>PT4317</name></trkpt>
<trkpt lat="52.873383" lon="-3.379390"><ele>615</ele><time>2020-01-18T11:04:57Z</time><name>PT4318</name></trkpt>
<trkpt lat="52.873379" lon="-3.379410"><ele>614</ele><time>2020-01-18T11:04:58Z</time><name>PT4319</name></trkpt>
<trkpt lat="52.873379" lon="-3.379423"><ele>614</ele><time>2020-01-18T11:04:59Z</time><name>PT4320</name></trkpt>
<trkpt lat="52.873377" lon="-3.379437"><ele>614</ele><time>2020-01-18T11:05:00Z</time><name>PT4321</name></trkpt>
<trkpt lat="52.873377" lon="-3.379452"><ele>614</ele><time>2020-01-18T11:05:01Z</time><name>PT4322</name></trkpt>
<trkpt lat="52.873378" lon="-3.379462"><ele>615</ele><time>2020-01-18T11:05:02Z</time><name>PT4323</name></trkpt>
<trkpt lat="52.873378" lon="-3.379479"><ele>615</ele><time>2020-01-18T11:05:02Z</time><name>PT4324</name></trkpt>
<trkpt lat="52.873372" lon="-3.379492"><ele>615</ele><time>2020-01-18T11:05:04Z</time><name>PT4325</name></trkpt>
<trkpt lat="52.873366" lon="-3.379503"><ele>614</ele><time>2020-01-18T11:05:05Z</time><name>PT4326</name></trkpt>
<trkpt lat="52.873367" lon="-3.379517"><ele>615</ele><time>2020-01-18T11:05:05Z</time><name>PT4327</name></trkpt>
<trkpt lat="52.873366" lon="-3.379530"><ele>616</ele><time>2020-01-18T11:05:07Z</time><name>PT4328</name></trkpt>
<trkpt lat="52.873363" lon="-3.379540"><ele>615</ele><time>2020-01-18T11:05:08Z</time><name>PT4329</name></trkpt>
<trkpt lat="52.873360" lon="-3.379553"><ele>616</ele><time>2020-01-18T11:05:08Z</time><name>PT4330</name></trkpt>
<trkpt lat="52.873357" lon="-3.379563"><ele>616</ele><time>2020-01-18T11:05:09Z</time><name>PT4331</name></trkpt>
<trkpt lat="52.873356" lon="-3.379573"><ele>616</ele><time>2020-01-18T11:05:11Z</time><name>PT4332</name></trkpt>
<trkpt lat="52.873349" lon="-3.379580"><ele>616</ele><time>2020-01-18T11:05:11Z</time><name>PT4333</name></trkpt>
<trkpt lat="52.873349" lon="-3.379582"><ele>615</ele><time>2020-01-18T11:05:13Z</time><name>PT4334</name></trkpt>
<trkpt lat="52.873344" lon="-3.379583"><ele>614</ele><time>2020-01-18T11:05:14Z</time><name>PT4335</name></trkpt>
<trkpt lat="52.873343" lon="-3.379588"><ele>615</ele><time>2020-01-18T11:05:14Z</time><name>PT4336</name></trkpt>
<trkpt lat="52.873344" lon="-3.379597"><ele>616</ele><time>2020-01-18T11:05:15Z</time><name>PT4337</name></trkpt>
<trkpt lat="52.873343" lon="-3.379598"><ele>616</ele><time>2020-01-18T11:05:17Z</time><name>PT4338</name></trkpt>
<trkpt lat="52.873340" lon="-3.379600"><ele>615</ele><time>2020-01-18T11:05:17Z</time><name>PT4339</name></trkpt>
<trkpt lat="52.873326" lon="-3.379608"><ele>614</ele><time>2020-01-18T11:05:18Z</time><name>PT4340</name></trkpt>
<trkpt lat="52.873325" lon="-3.379618"><ele>615</ele><time>2020-01-18T11:05:20Z</time><name>PT4341</name></trkpt>
<trkpt lat="52.873321" lon="-3.379631"><ele>615</ele><time>2020-01-18T11:05:20Z</time><name>PT4342</name></trkpt>
<trkpt lat="52.873314" lon="-3.379638"><ele>615</ele><time>2020-01-18T11:05:21Z</time><name>PT4343</name></trkpt>
<trkpt lat="52.873316" lon="-3.379649"><ele>615</ele><time>2020-01-18T11:05:23Z</time><name>PT4344</name></trkpt>
<trkpt lat="52.873314" lon="-3.379662"><ele>616</ele><time>2020-01-18T11:05:23Z</time><name>PT4345</name></trkpt>
<trkpt lat="52.873314" lon="-3.379675"><ele>615</ele><time>2020-01-18T11:05:24Z</time><name>PT4346</name></trkpt>
<trkpt lat="52.873317" lon="-3.379686"><ele>615</ele><time>2020-01-18T11:05:26Z</time><name>PT4347</name></trkpt>
<trkpt lat="52.873320" lon="-3.379698"><ele>615</ele><time>2020-01-18T11:05:26Z</time><name>PT4348</name></trkpt>
<trkpt lat="52.873324" lon="-3.379711"><ele>616</ele><time>2020-01-18T11:05:27Z</time><name>PT4349</name></trkpt>
<trkpt lat="52.873326" lon="-3.379728"><ele>616</ele><time>2020-01-18T11:05:29Z</time><name>PT4350</name></trkpt>
<trkpt lat="52.873328" lon="-3.379735"><ele>616</ele><time>2020-01-18T11:05:29Z</time><name>PT4351</name></trkpt>
<trkpt lat="52.873330" lon="-3.379748"><ele>616</ele><time>2020-01-18T11:05:30Z</time><name>PT4352</name></trkpt>
<trkpt lat="52.873335" lon="-3.379759"><ele>615</ele><time>2020-01-18T11:05:32Z</time><name>PT4353</name></trkpt>
<trkpt lat="52.873338" lon="-3.379765"><ele>615</ele><time>2020-01-18T11:05:32Z</time><name>PT4354</name></trkpt>
<trkpt lat="52.873345" lon="-3.379773"><ele>615</ele><time>2020-01-18T11:05:33Z</time><name>PT4355</name></trkpt>
<trkpt lat="52.873348" lon="-3.379783"><ele>615</ele><time>2020-01-18T11:05:35Z</time><name>PT4356</name></trkpt>
<trkpt lat="52.873339" lon="-3.379791"><ele>614</ele><time>2020-01-18T11:05:36Z</time><name>PT4357</name></trkpt>
<trkpt lat="52.873339" lon="-3.379796"><ele>614</ele><time>2020-01-18T11:05:36Z</time><name>PT4358</name></trkpt>
<trkpt lat="52.873341" lon="-3.379803"><ele>614</ele><time>2020-01-18T11:05:38Z</time><name>PT4359</name></trkpt>
<trkpt lat="52.873341" lon="-3.379808"><ele>613</ele><time>2020-01-18T11:05:38Z</time><name>PT4360</name></trkpt>
<trkpt lat="52.873345" lon="-3.379818"><ele>613</ele><time>2020-01-18T11:05:40Z</time><name>PT4361</name></trkpt>
<trkpt lat="52.873343" lon="-3.379833"><ele>612</ele><time>2020-01-18T11:05:41Z</time><name>PT4362</name></trkpt>
<trkpt lat="52.873340" lon="-3.379849"><ele>611</ele><time>2020-01-18T11:05:42Z</time><name>PT4363</name></trkpt>
<trkpt lat="52.873339" lon="-3.379864"><ele>610</ele><time>2020-01-18T11:05:43Z</time><name>PT4364</name></trkpt>
<trkpt lat="52.873338" lon="-3.379883"><ele>611</ele><time>2020-01-18T11:05:44Z</time><name>PT4365</name></trkpt>
<trkpt lat="52.873333" lon="-3.379901"><ele>612</ele><time>2020-01-18T11:05:45Z</time><name>PT4366</name></trkpt>
<trkpt lat="52.873329" lon="-3.379920"><ele>611</ele><time>2020-01-18T11:05:45Z</time><name>PT4367</name></trkpt>
<trkpt lat="52.873327" lon="-3.379933"><ele>612</ele><time>2020-01-18T11:05:47Z</time><name>PT4368</name></trkpt>
<trkpt lat="52.873325" lon="-3.379946"><ele>611</ele><time>2020-01-18T11:05:48Z</time><name>PT4369</name></trkpt>
<trkpt lat="52.873324" lon="-3.379959"><ele>612</ele><time>2020-01-18T11:05:49Z</time><name>PT4370</name></trkpt>
<trkpt lat="52.873324" lon="-3.379974"><ele>611</ele><time>2020-01-18T11:05:50Z</time><name>PT4371</name></trkpt>
<trkpt lat="52.873322" lon="-3.379988"><ele>612</ele><time>2020-01-18T11:05:50Z</time><name>PT4372</name></trkpt>
<trkpt lat="52.873322" lon="-3.380001"><ele>612</ele><time>2020-01-18T11:05:51Z</time><name>PT4373</name></trkpt>
<trkpt lat="52.873324" lon="-3.380011"><ele>613</ele><time>2020-01-18T11:05:53Z</time><name>PT4374</name></trkpt>
<trkpt lat="52.873327" lon="-3.380019"><ele>614</ele><time>2020-01-18T11:05:53Z</time><name>PT4375</name></trkpt>
<trkpt lat="52.873327" lon="-3.380026"><ele>614</ele><time>2020-01-18T11:05:54Z</time><name>PT4376</name></trkpt>
<trkpt lat="52.873328" lon="-3.380038"><ele>614</ele><time>2020-01-18T11:05:56Z</time><name>PT4377</name></trkpt>
<trkpt lat="52.873325" lon="-3.380056"><ele>613</ele><time>2020-01-18T11:05:57Z</time><name>PT4378</name></trkpt>
<trkpt lat="52.873323" lon="-3.380061"><ele>613</ele><time>2020-01-18T11:05:58Z</time><name>PT4379</name></trkpt>
<trkpt lat="52.873327" lon="-3.380074"><ele>615</ele><time>2020-01-18T11:05:59Z</time><name>PT4380</name></trkpt>
<trkpt lat="52.873326" lon="-3.380085"><ele>614</ele><time>2020-01-18T11:05:59Z</time><name>PT4381</name></trkpt>
<trkpt lat="52.873326" lon="-3.380096"><ele>614</ele><time>2020-01-18T11:06:00Z</time><name>PT4382</name></trkpt>
<trkpt lat="52.873327" lon="-3.380108"><ele>615</ele><time>2020-01-18T11:06:02Z</time><name>PT4383</name></trkpt>
<trkpt lat="52.873328" lon="-3.380122"><ele>615</ele><time>2020-01-18T11:06:02Z</time><name>PT4384</name></trkpt>
<trkpt lat="52.873329" lon="-3.380132"><ele>615</ele><time>2020-01-18T11:06:03Z</time><name>PT4385</name></trkpt>
<trkpt lat="52.873334" lon="-3.380143"><ele>616</ele><time>2020-01-18T11:06:05Z</time><name>PT4386</name></trkpt>
<trkpt lat="52.873337" lon="-3.380156"><ele>615</ele><time>2020-01-18T11:06:05Z</time><name>PT4387</name></trkpt>
<trkpt lat="52.873342" lon="-3.380168"><ele>615</ele><time>2020-01-18T11:06:06Z</time><name>PT4388</name></trkpt>
<trkpt lat="52.873340" lon="-3.380180"><ele>616</ele><time>2020-01-18T11:06:08Z</time><name>PT4389</name></trkpt>
<trkpt lat="52.873342" lon="-3.380186"><ele>616</ele><time>2020-01-18T11:06:08Z</time><name>PT4390</name></trkpt>
<trkpt lat="52.873347" lon="-3.380189"><ele>617</ele><time>2020-01-18T11:06:09Z</time><name>PT4391</name></trkpt>
<trkpt lat="52.873355" lon="-3.380201"><ele>617</ele><time>2020-01-18T11:06:11Z</time><name>PT4392</name></trkpt>
<trkpt lat="52.873357" lon="-3.380210"><ele>617</ele><time>2020-01-18T11:06:11Z</time><name>PT4393</name></trkpt>
<trkpt lat="52.873359" lon="-3.380221"><ele>616</ele><time>2020-01-18T11:06:12Z</time><name>PT4394</name></trkpt>
<trkpt lat="52.873356" lon="-3.380234"><ele>617</ele><time>2020-01-18T11:06:14Z</time><name>PT4395</name></trkpt>
<trkpt lat="52.873355" lon="-3.380247"><ele>617</ele><time>2020-01-18T11:06:14Z</time><name>PT4396</name></trkpt>
<trkpt lat="52.873353" lon="-3.380259"><ele>618</ele><time>2020-01-18T11:06:16Z</time><name>PT4397</name></trkpt>
<trkpt lat="52.873353" lon="-3.380270"><ele>618</ele><time>2020-01-18T11:06:17Z</time><name>PT4398</name></trkpt>
<trkpt lat="52.873359" lon="-3.380278"><ele>617</ele><time>2020-01-18T11:06:18Z</time><name>PT4399</name></trkpt>
<trkpt lat="52.873355" lon="-3.380288"><ele>617</ele><time>2020-01-18T11:06:19Z</time><name>PT4400</name></trkpt>
<trkpt lat="52.873350" lon="-3.380299"><ele>617</ele><time>2020-01-18T11:06:20Z</time><name>PT4401</name></trkpt>
<trkpt lat="52.873348" lon="-3.380304"><ele>617</ele><time>2020-01-18T11:06:21Z</time><name>PT4402</name></trkpt>
<trkpt lat="52.873347" lon="-3.380313"><ele>616</ele><time>2020-01-18T11:06:22Z</time><name>PT4403</name></trkpt>
<trkpt lat="52.873347" lon="-3.380323"><ele>616</ele><time>2020-01-18T11:06:23Z</time><name>PT4404</name></trkpt>
<trkpt lat="52.873344" lon="-3.380334"><ele>616</ele><time>2020-01-18T11:06:23Z</time><name>PT4405</name></trkpt>
<trkpt lat="52.873343" lon="-3.380343"><ele>616</ele><time>2020-01-18T11:06:25Z</time><name>PT4406</name></trkpt>
<trkpt lat="52.873344" lon="-3.380348"><ele>615</ele><time>2020-01-18T11:06:26Z</time><name>PT4407</name></trkpt>
<trkpt lat="52.873346" lon="-3.380352"><ele>615</ele><time>2020-01-18T11:06:26Z</time><name>PT4408</name></trkpt>
<trkpt lat="52.873343" lon="-3.380359"><ele>615</ele><time>2020-01-18T11:06:27Z</time><name>PT4409</name></trkpt>
<trkpt lat="52.873344" lon="-3.380367"><ele>615</ele><time>2020-01-18T11:06:29Z</time><name>PT4410</name></trkpt>
<trkpt lat="52.873343" lon="-3.380371"><ele>616</ele><time>2020-01-18T11:06:29Z</time><name>PT4411</name></trkpt>
<trkpt lat="52.873340" lon="-3.380374"><ele>616</ele><time>2020-01-18T11:06:31Z</time><name>PT4412</name></trkpt>
<trkpt lat="52.873338" lon="-3.380380"><ele>616</ele><time>2020-01-18T11:06:32Z</time><name>PT4413</name></trkpt>
<trkpt lat="52.873341" lon="-3.380394"><ele>618</ele><time>2020-01-18T11:06:35Z</time><name>PT4414</name></trkpt>
<trkpt lat="52.873372" lon="-3.380425"><ele>616</ele><time>2020-01-18T11:06:35Z</time><name>PT4415</name></trkpt>
<trkpt lat="52.873378" lon="-3.380454"><ele>616</ele><time>2020-01-18T11:06:38Z</time><name>PT4416</name></trkpt>
<trkpt lat="52.873379" lon="-3.380471"><ele>616</ele><time>2020-01-18T11:06:39Z</time><name>PT4417</name></trkpt>
<trkpt lat="52.873379" lon="-3.380486"><ele>616</ele><time>2020-01-18T11:06:39Z</time><name>PT4418</name></trkpt>
<trkpt lat="52.873369" lon="-3.380500"><ele>616</ele><time>2020-01-18T11:06:41Z</time><name>PT4419</name></trkpt>
<trkpt lat="52.873363" lon="-3.380513"><ele>616</ele><time>2020-01-18T11:06:41Z</time><name>PT4420</name></trkpt>
<trkpt lat="52.873360" lon="-3.380519"><ele>617</ele><time>2020-01-18T11:06:43Z</time><name>PT4421</name></trkpt>
<trkpt lat="52.873356" lon="-3.380521"><ele>617</ele><time>2020-01-18T11:06:44Z</time><name>PT4422</name></trkpt>
<trkpt lat="52.873345" lon="-3.380527"><ele>618</ele><time>2020-01-18T11:06:44Z</time><name>PT4423</name></trkpt>
<trkpt lat="52.873336" lon="-3.380533"><ele>618</ele><time>2020-01-18T11:06:45Z</time><name>PT4424</name></trkpt>
<trkpt lat="52.873328" lon="-3.380545"><ele>618</ele><time>2020-01-18T11:06:47Z</time><name>PT4425</name></trkpt>
<trkpt lat="52.873321" lon="-3.380558"><ele>618</ele><time>2020-01-18T11:06:47Z</time><name>PT4426</name></trkpt>
<trkpt lat="52.873318" lon="-3.380564"><ele>619</ele><time>2020-01-18T11:06:49Z</time><name>PT4427</name></trkpt>
<trkpt lat="52.873314" lon="-3.380565"><ele>618</ele><time>2020-01-18T11:06:50Z</time><name>PT4428</name></trkpt>
<trkpt lat="52.873311" lon="-3.380571"><ele>618</ele><time>2020-01-18T11:06:50Z</time><name>PT4429</name></trkpt>
<trkpt lat="52.873308" lon="-3.380575"><ele>618</ele><time>2020-01-18T11:06:51Z</time><name>PT4430</name></trkpt>
<trkpt lat="52.873305" lon="-3.380576"><ele>619</ele><time>2020-01-18T11:06:53Z</time><name>PT4431</name></trkpt>
<trkpt lat="52.873300" lon="-3.380584"><ele>619</ele><time>2020-01-18T11:06:53Z</time><name>PT4432</name></trkpt>
<trkpt lat="52.873297" lon="-3.380590"><ele>619</ele><time>2020-01-18T11:06:55Z</time><name>PT4433</name></trkpt>
<trkpt lat="52.873294" lon="-3.380600"><ele>619</ele><time>2020-01-18T11:06:56Z</time><name>PT4434</name></trkpt>
<trkpt lat="52.873295" lon="-3.380608"><ele>620</ele><time>2020-01-18T11:06:56Z</time><name>PT4435</name></trkpt>
<trkpt lat="52.873295" lon="-3.380614"><ele>621</ele><time>2020-01-18T11:06:57Z</time><name>PT4436</name></trkpt>
<trkpt lat="52.873292" lon="-3.380624"><ele>622</ele><time>2020-01-18T11:06:59Z</time><name>PT4437</name></trkpt>
<trkpt lat="52.873290" lon="-3.380634"><ele>622</ele><time>2020-01-18T11:06:59Z</time><name>PT4438</name></trkpt>
<trkpt lat="52.873292" lon="-3.380642"><ele>622</ele><time>2020-01-18T11:07:00Z</time><name>PT4439</name></trkpt>
<trkpt lat="52.873291" lon="-3.380651"><ele>623</ele><time>2020-01-18T11:07:02Z</time><name>PT4440</name></trkpt>
<trkpt lat="52.873291" lon="-3.380661"><ele>623</ele><time>2020-01-18T11:07:02Z</time><name>PT4441</name></trkpt>
<trkpt lat="52.873291" lon="-3.380670"><ele>623</ele><time>2020-01-18T11:07:03Z</time><name>PT4442</name></trkpt>
<trkpt lat="52.873288" lon="-3.380677"><ele>624</ele><time>2020-01-18T11:07:05Z</time><name>PT4443</name></trkpt>
<trkpt lat="52.873284" lon="-3.380680"><ele>624</ele><time>2020-01-18T11:07:05Z</time><name>PT4444</name></trkpt>
<trkpt lat="52.873278" lon="-3.380684"><ele>625</ele><time>2020-01-18T11:07:06Z</time><name>PT4445</name></trkpt>
<trkpt lat="52.873276" lon="-3.380689"><ele>625</ele><time>2020-01-18T11:07:08Z</time><name>PT4446</name></trkpt>
<trkpt lat="52.873273" lon="-3.380694"><ele>625</ele><time>2020-01-18T11:07:08Z</time><name>PT4447</name></trkpt>
<trkpt lat="52.873271" lon="-3.380698"><ele>625</ele><time>2020-01-18T11:07:09Z</time><name>PT4448</name></trkpt>
<trkpt lat="52.873272" lon="-3.380705"><ele>626</ele><time>2020-01-18T11:07:12Z</time><name>PT4449</name></trkpt>
<trkpt lat="52.873269" lon="-3.380716"><ele>626</ele><time>2020-01-18T11:07:14Z</time><name>PT4450</name></trkpt>
<trkpt lat="52.873261" lon="-3.380727"><ele>626</ele><time>2020-01-18T11:07:14Z</time><name>PT4451</name></trkpt>
<trkpt lat="52.873260" lon="-3.380731"><ele>627</ele><time>2020-01-18T11:07:15Z</time><name>PT4452</name></trkpt>
<trkpt lat="52.873257" lon="-3.380742"><ele>627</ele><time>2020-01-18T11:07:17Z</time><name>PT4453</name></trkpt>
<trkpt lat="52.873247" lon="-3.380753"><ele>627</ele><time>2020-01-18T11:07:18Z</time><name>PT4454</name></trkpt>
<trkpt lat="52.873243" lon="-3.380759"><ele>626</ele><time>2020-01-18T11:07:19Z</time><name>PT4455</name></trkpt>
<trkpt lat="52.873240" lon="-3.380766"><ele>627</ele><time>2020-01-18T11:07:20Z</time><name>PT4456</name></trkpt>
<trkpt lat="52.873234" lon="-3.380775"><ele>627</ele><time>2020-01-18T11:07:21Z</time><name>PT4457</name></trkpt>
<trkpt lat="52.873227" lon="-3.380777"><ele>627</ele><time>2020-01-18T11:07:21Z</time><name>PT4458</name></trkpt>
<trkpt lat="52.873226" lon="-3.380782"><ele>628</ele><time>2020-01-18T11:07:23Z</time><name>PT4459</name></trkpt>
<trkpt lat="52.873222" lon="-3.380796"><ele>628</ele><time>2020-01-18T11:07:24Z</time><name>PT4460</name></trkpt>
<trkpt lat="52.873219" lon="-3.380807"><ele>628</ele><time>2020-01-18T11:07:25Z</time><name>PT4461</name></trkpt>
<trkpt lat="52.873217" lon="-3.380814"><ele>628</ele><time>2020-01-18T11:07:26Z</time><name>PT4462</name></trkpt>
<trkpt lat="52.873215" lon="-3.380820"><ele>627</ele><time>2020-01-18T11:07:27Z</time><name>PT4463</name></trkpt>
<trkpt lat="52.873212" lon="-3.380826"><ele>627</ele><time>2020-01-18T11:07:27Z</time><name>PT4464</name></trkpt>
<trkpt lat="52.873208" lon="-3.380831"><ele>626</ele><time>2020-01-18T11:07:29Z</time><name>PT4465</name></trkpt>
<trkpt lat="52.873205" lon="-3.380834"><ele>626</ele><time>2020-01-18T11:07:30Z</time><name>PT4466</name></trkpt>
<trkpt lat="52.873204" lon="-3.380842"><ele>626</ele><time>2020-01-18T11:07:31Z</time><name>PT4467</name></trkpt>
<trkpt lat="52.873199" lon="-3.380852"><ele>626</ele><time>2020-01-18T11:07:32Z</time><name>PT4468</name></trkpt>
<trkpt lat="52.873195" lon="-3.380862"><ele>626</ele><time>2020-01-18T11:07:33Z</time><name>PT4469</name></trkpt>
<trkpt lat="52.873192" lon="-3.380868"><ele>626</ele><time>2020-01-18T11:07:33Z</time><name>PT4470</name></trkpt>
<trkpt lat="52.873193" lon="-3.380877"><ele>626</ele><time>2020-01-18T11:07:35Z</time><name>PT4471</name></trkpt>
<trkpt lat="52.873188" lon="-3.380882"><ele>626</ele><time>2020-01-18T11:07:36Z</time><name>PT4472</name></trkpt>
<trkpt lat="52.873180" lon="-3.380888"><ele>626</ele><time>2020-01-18T11:07:37Z</time><name>PT4473</name></trkpt>
<trkpt lat="52.873179" lon="-3.380895"><ele>626</ele><time>2020-01-18T11:07:38Z</time><name>PT4474</name></trkpt>
<trkpt lat="52.873174" lon="-3.380904"><ele>626</ele><time>2020-01-18T11:07:38Z</time><name>PT4475</name></trkpt>
<trkpt lat="52.873170" lon="-3.380914"><ele>627</ele><time>2020-01-18T11:07:39Z</time><name>PT4476</name></trkpt>
<trkpt lat="52.873169" lon="-3.380924"><ele>627</ele><time>2020-01-18T11:07:41Z</time><name>PT4477</name></trkpt>
<trkpt lat="52.873169" lon="-3.380931"><ele>628</ele><time>2020-01-18T11:07:41Z</time><name>PT4478</name></trkpt>
<trkpt lat="52.873170" lon="-3.380943"><ele>629</ele><time>2020-01-18T11:07:42Z</time><name>PT4479</name></trkpt>
<trkpt lat="52.873164" lon="-3.380949"><ele>629</ele><time>2020-01-18T11:07:44Z</time><name>PT4480</name></trkpt>
<trkpt lat="52.873160" lon="-3.380961"><ele>629</ele><time>2020-01-18T11:07:44Z</time><name>PT4481</name></trkpt>
<trkpt lat="52.873155" lon="-3.380968"><ele>629</ele><time>2020-01-18T11:07:45Z</time><name>PT4482</name></trkpt>
<trkpt lat="52.873150" lon="-3.380976"><ele>629</ele><time>2020-01-18T11:07:47Z</time><name>PT4483</name></trkpt>
<trkpt lat="52.873149" lon="-3.380989"><ele>629</ele><time>2020-01-18T11:07:47Z</time><name>PT4484</name></trkpt>
<trkpt lat="52.873152" lon="-3.381000"><ele>629</ele><time>2020-01-18T11:07:49Z</time><name>PT4485</name></trkpt>
<trkpt lat="52.873153" lon="-3.381012"><ele>629</ele><time>2020-01-18T11:07:50Z</time><name>PT4486</name></trkpt>
<trkpt lat="52.873150" lon="-3.381022"><ele>630</ele><time>2020-01-18T11:07:50Z</time><name>PT4487</name></trkpt>
<trkpt lat="52.873153" lon="-3.381027"><ele>630</ele><time>2020-01-18T11:07:52Z</time><name>PT4488</name></trkpt>
<trkpt lat="52.873153" lon="-3.381035"><ele>630</ele><time>2020-01-18T11:07:53Z</time><name>PT4489</name></trkpt>
<trkpt lat="52.873155" lon="-3.381040"><ele>629</ele><time>2020-01-18T11:07:53Z</time><name>PT4490</name></trkpt>
<trkpt lat="52.873158" lon="-3.381046"><ele>630</ele><time>2020-01-18T11:07:54Z</time><name>PT4491</name></trkpt>
<trkpt lat="52.873155" lon="-3.381056"><ele>630</ele><time>2020-01-18T11:07:56Z</time><name>PT4492</name></trkpt>
<trkpt lat="52.873152" lon="-3.381060"><ele>631</ele><time>2020-01-18T11:07:56Z</time><name>PT4493</name></trkpt>
<trkpt lat="52.873148" lon="-3.381068"><ele>632</ele><time>2020-01-18T11:07:58Z</time><name>PT4494</name></trkpt>
<trkpt lat="52.873148" lon="-3.381070"><ele>633</ele><time>2020-01-18T11:07:59Z</time><name>PT4495</name></trkpt>
<trkpt lat="52.873148" lon="-3.381081"><ele>633</ele><time>2020-01-18T11:07:59Z</time><name>PT4496</name></trkpt>
<trkpt lat="52.873148" lon="-3.381088"><ele>634</ele><time>2020-01-18T11:08:00Z</time><name>PT4497</name></trkpt>
<trkpt lat="52.873148" lon="-3.381099"><ele>635</ele><time>2020-01-18T11:08:02Z</time><name>PT4498</name></trkpt>
<trkpt lat="52.873148" lon="-3.381109"><ele>635</ele><time>2020-01-18T11:08:03Z</time><name>PT4499</name></trkpt>
<trkpt lat="52.873149" lon="-3.381115"><ele>635</ele><time>2020-01-18T11:08:03Z</time><name>PT4500</name></trkpt>
<trkpt lat="52.873151" lon="-3.381121"><ele>635</ele><time>2020-01-18T11:08:05Z</time><name>PT4501</name></trkpt>
<trkpt lat="52.873152" lon="-3.381127"><ele>635</ele><time>2020-01-18T11:08:06Z</time><name>PT4502</name></trkpt>
<trkpt lat="52.873150" lon="-3.381130"><ele>634</ele><time>2020-01-18T11:08:08Z</time><name>PT4503</name></trkpt>
<trkpt lat="52.873148" lon="-3.381144"><ele>634</ele><time>2020-01-18T11:08:09Z</time><name>PT4504</name></trkpt>
<trkpt lat="52.873147" lon="-3.381157"><ele>634</ele><time>2020-01-18T11:08:11Z</time><name>PT4505</name></trkpt>
<trkpt lat="52.873150" lon="-3.381170"><ele>634</ele><time>2020-01-18T11:08:11Z</time><name>PT4506</name></trkpt>
<trkpt lat="52.873150" lon="-3.381183"><ele>635</ele><time>2020-01-18T11:08:13Z</time><name>PT4507</name></trkpt>
<trkpt lat="52.873140" lon="-3.381192"><ele>634</ele><time>2020-01-18T11:08:14Z</time><name>PT4508</name></trkpt>
<trkpt lat="52.873136" lon="-3.381202"><ele>634</ele><time>2020-01-18T11:08:14Z</time><name>PT4509</name></trkpt>
<trkpt lat="52.873135" lon="-3.381210"><ele>633</ele><time>2020-01-18T11:08:16Z</time><name>PT4510</name></trkpt>
<trkpt lat="52.873135" lon="-3.381218"><ele>633</ele><time>2020-01-18T11:08:17Z</time><name>PT4511</name></trkpt>
<trkpt lat="52.873131" lon="-3.381236"><ele>634</ele><time>2020-01-18T11:08:20Z</time><name>PT4512</name></trkpt>
<trkpt lat="52.873136" lon="-3.381252"><ele>634</ele><time>2020-01-18T11:08:21Z</time><name>PT4513</name></trkpt>
<trkpt lat="52.873141" lon="-3.381259"><ele>634</ele><time>2020-01-18T11:08:22Z</time><name>PT4514</name></trkpt>
<trkpt lat="52.873144" lon="-3.381274"><ele>634</ele><time>2020-01-18T11:08:23Z</time><name>PT4515</name></trkpt>
<trkpt lat="52.873143" lon="-3.381288"><ele>633</ele><time>2020-01-18T11:08:24Z</time><name>PT4516</name></trkpt>
<trkpt lat="52.873145" lon="-3.381294"><ele>634</ele><time>2020-01-18T11:08:24Z</time><name>PT4517</name></trkpt>
<trkpt lat="52.873148" lon="-3.381300"><ele>634</ele><time>2020-01-18T11:08:26Z</time><name>PT4518</name></trkpt>
<trkpt lat="52.873146" lon="-3.381305"><ele>634</ele><time>2020-01-18T11:08:26Z</time><name>PT4519</name></trkpt>
<trkpt lat="52.873145" lon="-3.381309"><ele>634</ele><time>2020-01-18T11:08:28Z</time><name>PT4520</name></trkpt>
<trkpt lat="52.873146" lon="-3.381307"><ele>634</ele><time>2020-01-18T11:08:29Z</time><name>PT4521</name></trkpt>
<trkpt lat="52.873140" lon="-3.381317"><ele>634</ele><time>2020-01-18T11:08:33Z</time><name>PT4522</name></trkpt>
<trkpt lat="52.873137" lon="-3.381327"><ele>635</ele><time>2020-01-18T11:08:35Z</time><name>PT4523</name></trkpt>
<trkpt lat="52.873141" lon="-3.381346"><ele>634</ele><time>2020-01-18T11:08:35Z</time><name>PT4524</name></trkpt>
<trkpt lat="52.873141" lon="-3.381358"><ele>634</ele><time>2020-01-18T11:08:37Z</time><name>PT4525</name></trkpt>
<trkpt lat="52.873137" lon="-3.381377"><ele>634</ele><time>2020-01-18T11:08:38Z</time><name>PT4526</name></trkpt>
<trkpt lat="52.873136" lon="-3.381393"><ele>634</ele><time>2020-01-18T11:08:38Z</time><name>PT4527</name></trkpt>
<trkpt lat="52.873133" lon="-3.381407"><ele>634</ele><time>2020-01-18T11:08:40Z</time><name>PT4528</name></trkpt>
<trkpt lat="52.873128" lon="-3.381418"><ele>634</ele><time>2020-01-18T11:08:41Z</time><name>PT4529</name></trkpt>
<trkpt lat="52.873128" lon="-3.381432"><ele>635</ele><time>2020-01-18T11:08:42Z</time><name>PT4530</name></trkpt>
<trkpt lat="52.873129" lon="-3.381444"><ele>635</ele><time>2020-01-18T11:08:43Z</time><name>PT4531</name></trkpt>
<trkpt lat="52.873126" lon="-3.381457"><ele>635</ele><time>2020-01-18T11:08:44Z</time><name>PT4532</name></trkpt>
<trkpt lat="52.873127" lon="-3.381467"><ele>636</ele><time>2020-01-18T11:08:44Z</time><name>PT4533</name></trkpt>
<trkpt lat="52.873129" lon="-3.381478"><ele>637</ele><time>2020-01-18T11:08:46Z</time><name>PT4534</name></trkpt>
<trkpt lat="52.873130" lon="-3.381489"><ele>637</ele><time>2020-01-18T11:08:47Z</time><name>PT4535</name></trkpt>
<trkpt lat="52.873130" lon="-3.381502"><ele>637</ele><time>2020-01-18T11:08:47Z</time><name>PT4536</name></trkpt>
<trkpt lat="52.873133" lon="-3.381512"><ele>637</ele><time>2020-01-18T11:08:48Z</time><name>PT4537</name></trkpt>
<trkpt lat="52.873136" lon="-3.381524"><ele>637</ele><time>2020-01-18T11:08:50Z</time><name>PT4538</name></trkpt>
<trkpt lat="52.873138" lon="-3.381537"><ele>637</ele><time>2020-01-18T11:08:50Z</time><name>PT4539</name></trkpt>
<trkpt lat="52.873139" lon="-3.381551"><ele>638</ele><time>2020-01-18T11:08:52Z</time><name>PT4540</name></trkpt>
<trkpt lat="52.873138" lon="-3.381559"><ele>638</ele><time>2020-01-18T11:08:53Z</time><name>PT4541</name></trkpt>
<trkpt lat="52.873144" lon="-3.381567"><ele>638</ele><time>2020-01-18T11:08:54Z</time><name>PT4542</name></trkpt>
<trkpt lat="52.873146" lon="-3.381578"><ele>638</ele><time>2020-01-18T11:08:54Z</time><name>PT4543</name></trkpt>
<trkpt lat="52.873155" lon="-3.381582"><ele>638</ele><time>2020-01-18T11:08:56Z</time><name>PT4544</name></trkpt>
<trkpt lat="52.873158" lon="-3.381592"><ele>638</ele><time>2020-01-18T11:08:56Z</time><name>PT4545</name></trkpt>
<trkpt lat="52.873160" lon="-3.381605"><ele>638</ele><time>2020-01-18T11:08:58Z</time><name>PT4546</name></trkpt>
<trkpt lat="52.873163" lon="-3.381616"><ele>638</ele><time>2020-01-18T11:08:59Z</time><name>PT4547</name></trkpt>
<trkpt lat="52.873162" lon="-3.381624"><ele>638</ele><time>2020-01-18T11:08:59Z</time><name>PT4548</name></trkpt>
<trkpt lat="52.873159" lon="-3.381635"><ele>638</ele><time>2020-01-18T11:09:00Z</time><name>PT4549</name></trkpt>
<trkpt lat="52.873154" lon="-3.381640"><ele>637</ele><time>2020-01-18T11:09:02Z</time><name>PT4550</name></trkpt>
<trkpt lat="52.873154" lon="-3.381649"><ele>637</ele><time>2020-01-18T11:09:02Z</time><name>PT4551</name></trkpt>
<trkpt lat="52.873155" lon="-3.381664"><ele>638</ele><time>2020-01-18T11:09:04Z</time><name>PT4552</name></trkpt>
<trkpt lat="52.873157" lon="-3.381676"><ele>637</ele><time>2020-01-18T11:09:05Z</time><name>PT4553</name></trkpt>
<trkpt lat="52.873158" lon="-3.381689"><ele>638</ele><time>2020-01-18T11:09:05Z</time><name>PT4554</name></trkpt>
<trkpt lat="52.873157" lon="-3.381698"><ele>638</ele><time>2020-01-18T11:09:06Z</time><name>PT4555</name></trkpt>
<trkpt lat="52.873158" lon="-3.381709"><ele>638</ele><time>2020-01-18T11:09:08Z</time><name>PT4556</name></trkpt>
<trkpt lat="52.873159" lon="-3.381719"><ele>638</ele><time>2020-01-18T11:09:08Z</time><name>PT4557</name></trkpt>
<trkpt lat="52.873157" lon="-3.381729"><ele>639</ele><time>2020-01-18T11:09:10Z</time><name>PT4558</name></trkpt>
<trkpt lat="52.873156" lon="-3.381746"><ele>640</ele><time>2020-01-18T11:09:11Z</time><name>PT4559</name></trkpt>
<trkpt lat="52.873157" lon="-3.381757"><ele>640</ele><time>2020-01-18T11:09:11Z</time><name>PT4560</name></trkpt>
<trkpt lat="52.873152" lon="-3.381769"><ele>640</ele><time>2020-01-18T11:09:13Z</time><name>PT4561</name></trkpt>
<trkpt lat="52.873161" lon="-3.381780"><ele>644</ele><time>2020-01-18T11:09:14Z</time><name>PT4562</name></trkpt>
<trkpt lat="52.873165" lon="-3.381787"><ele>643</ele><time>2020-01-18T11:09:15Z</time><name>PT4563</name></trkpt>
<trkpt lat="52.873163" lon="-3.381795"><ele>644</ele><time>2020-01-18T11:09:15Z</time><name>PT4564</name></trkpt>
<trkpt lat="52.873164" lon="-3.381802"><ele>644</ele><time>2020-01-18T11:09:17Z</time><name>PT4565</name></trkpt>
<trkpt lat="52.873163" lon="-3.381814"><ele>644</ele><time>2020-01-18T11:09:18Z</time><name>PT4566</name></trkpt>
<trkpt lat="52.873162" lon="-3.381825"><ele>644</ele><time>2020-01-18T11:09:19Z</time><name>PT4567</name></trkpt>
<trkpt lat="52.873161" lon="-3.381822"><ele>646</ele><time>2020-01-18T11:09:20Z</time><name>PT4568</name></trkpt>
<trkpt lat="52.873157" lon="-3.381820"><ele>647</ele><time>2020-01-18T11:09:20Z</time><name>PT4569</name></trkpt>
<trkpt lat="52.873150" lon="-3.381825"><ele>647</ele><time>2020-01-18T11:09:22Z</time><name>PT4570</name></trkpt>
<trkpt lat="52.873146" lon="-3.381829"><ele>647</ele><time>2020-01-18T11:09:23Z</time><name>PT4571</name></trkpt>
<trkpt lat="52.873147" lon="-3.381828"><ele>647</ele><time>2020-01-18T11:09:23Z</time><name>PT4572</name></trkpt>
<trkpt lat="52.873144" lon="-3.381829"><ele>648</ele><time>2020-01-18T11:09:25Z</time><name>PT4573</name></trkpt>
<trkpt lat="52.873142" lon="-3.381832"><ele>648</ele><time>2020-01-18T11:09:26Z</time><name>PT4574</name></trkpt>
<trkpt lat="52.873135" lon="-3.381834"><ele>649</ele><time>2020-01-18T11:09:26Z</time><name>PT4575</name></trkpt>
<trkpt lat="52.873132" lon="-3.381842"><ele>650</ele><time>2020-01-18T11:09:28Z</time><name>PT4576</name></trkpt>
<trkpt lat="52.873132" lon="-3.381853"><ele>650</ele><time>2020-01-18T11:09:29Z</time><name>PT4577</name></trkpt>
<trkpt lat="52.873128" lon="-3.381859"><ele>650</ele><time>2020-01-18T11:09:29Z</time><name>PT4578</name></trkpt>
<trkpt lat="52.873128" lon="-3.381860"><ele>649</ele><time>2020-01-18T11:09:30Z</time><name>PT4579</name></trkpt>
<trkpt lat="52.873129" lon="-3.381865"><ele>649</ele><time>2020-01-18T11:09:32Z</time><name>PT4580</name></trkpt>
<trkpt lat="52.873125" lon="-3.381865"><ele>649</ele><time>2020-01-18T11:09:32Z</time><name>PT4581</name></trkpt>
<trkpt lat="52.873119" lon="-3.381872"><ele>649</ele><time>2020-01-18T11:09:33Z</time><name>PT4582</name></trkpt>
<trkpt lat="52.873117" lon="-3.381886"><ele>649</ele><time>2020-01-18T11:09:35Z</time><name>PT4583</name></trkpt>
<trkpt lat="52.873115" lon="-3.381893"><ele>649</ele><time>2020-01-18T11:09:36Z</time><name>PT4584</name></trkpt>
<trkpt lat="52.873114" lon="-3.381898"><ele>649</ele><time>2020-01-18T11:09:36Z</time><name>PT4585</name></trkpt>
<trkpt lat="52.873113" lon="-3.381899"><ele>648</ele><time>2020-01-18T11:09:38Z</time><name>PT4586</name></trkpt>
<trkpt lat="52.873115" lon="-3.381901"><ele>649</ele><time>2020-01-18T11:09:39Z</time><name>PT4587</name></trkpt>
<trkpt lat="52.873113" lon="-3.381909"><ele>649</ele><time>2020-01-18T11:09:40Z</time><name>PT4588</name></trkpt>
<trkpt lat="52.873115" lon="-3.381919"><ele>649</ele><time>2020-01-18T11:09:41Z</time><name>PT4589</name></trkpt>
<trkpt lat="52.873114" lon="-3.381926"><ele>649</ele><time>2020-01-18T11:09:41Z</time><name>PT4590</name></trkpt>
<trkpt lat="52.873113" lon="-3.381935"><ele>648</ele><time>2020-01-18T11:09:42Z</time><name>PT4591</name></trkpt>
<trkpt lat="52.873112" lon="-3.381946"><ele>649</ele><time>2020-01-18T11:09:44Z</time><name>PT4592</name></trkpt>
<trkpt lat="52.873112" lon="-3.381958"><ele>649</ele><time>2020-01-18T11:09:44Z</time><name>PT4593</name></trkpt>
<trkpt lat="52.873104" lon="-3.381974"><ele>649</ele><time>2020-01-18T11:09:45Z</time><name>PT4594</name></trkpt>
<trkpt lat="52.873102" lon="-3.381971"><ele>650</ele><time>2020-01-18T11:09:47Z</time><name>PT4595</name></trkpt>
<trkpt lat="52.873098" lon="-3.381980"><ele>650</ele><time>2020-01-18T11:09:47Z</time><name>PT4596</name></trkpt>
<trkpt lat="52.873096" lon="-3.381997"><ele>651</ele><time>2020-01-18T11:09:48Z</time><name>PT4597</name></trkpt>
<trkpt lat="52.873092" lon="-3.382010"><ele>652</ele><time>2020-01-18T11:09:50Z</time><name>PT4598</name></trkpt>
<trkpt lat="52.873088" lon="-3.382022"><ele>651</ele><time>2020-01-18T11:09:50Z</time><name>PT4599</name></trkpt>
<trkpt lat="52.873084" lon="-3.382029"><ele>651</ele><time>2020-01-18T11:09:52Z</time><name>PT4600</name></trkpt>
<trkpt lat="52.873078" lon="-3.382032"><ele>651</ele><time>2020-01-18T11:09:53Z</time><name>PT4601</name></trkpt>
<trkpt lat="52.873073" lon="-3.382030"><ele>652</ele><time>2020-01-18T11:09:54Z</time><name>PT4602</name></trkpt>
<trkpt lat="52.873068" lon="-3.382032"><ele>652</ele><time>2020-01-18T11:09:54Z</time><name>PT4603</name></trkpt>
<trkpt lat="52.873065" lon="-3.382041"><ele>652</ele><time>2020-01-18T11:09:56Z</time><name>PT4604</name></trkpt>
<trkpt lat="52.873061" lon="-3.382045"><ele>653</ele><time>2020-01-18T11:09:57Z</time><name>PT4605</name></trkpt>
<trkpt lat="52.873062" lon="-3.382051"><ele>653</ele><time>2020-01-18T11:09:58Z</time><name>PT4606</name></trkpt>
<trkpt lat="52.873065" lon="-3.382057"><ele>655</ele><time>2020-01-18T11:09:59Z</time><name>PT4607</name></trkpt>
<trkpt lat="52.873064" lon="-3.382062"><ele>656</ele><time>2020-01-18T11:09:59Z</time><name>PT4608</name></trkpt>
<trkpt lat="52.873060" lon="-3.382067"><ele>658</ele><time>2020-01-18T11:10:01Z</time><name>PT4609</name></trkpt>
<trkpt lat="52.873059" lon="-3.382076"><ele>659</ele><time>2020-01-18T11:10:11Z</time><name>PT4610</name></trkpt>
<trkpt lat="52.873062" lon="-3.382088"><ele>659</ele><time>2020-01-18T11:10:12Z</time><name>PT4611</name></trkpt>
<trkpt lat="52.873055" lon="-3.382097"><ele>659</ele><time>2020-01-18T11:10:14Z</time><name>PT4612</name></trkpt>
<trkpt lat="52.873048" lon="-3.382097"><ele>659</ele><time>2020-01-18T11:10:14Z</time><name>PT4613</name></trkpt>
<trkpt lat="52.873046" lon="-3.382100"><ele>658</ele><time>2020-01-18T11:10:15Z</time><name>PT4614</name></trkpt>
<trkpt lat="52.873044" lon="-3.382120"><ele>658</ele><time>2020-01-18T11:10:17Z</time><name>PT4615</name></trkpt>
<trkpt lat="52.873043" lon="-3.382122"><ele>658</ele><time>2020-01-18T11:10:17Z</time><name>PT4616</name></trkpt>
<trkpt lat="52.873045" lon="-3.382125"><ele>658</ele><time>2020-01-18T11:10:18Z</time><name>PT4617</name></trkpt>
<trkpt lat="52.873047" lon="-3.382132"><ele>658</ele><time>2020-01-18T11:10:20Z</time><name>PT4618</name></trkpt>
<trkpt lat="52.873049" lon="-3.382137"><ele>658</ele><time>2020-01-18T11:10:20Z</time><name>PT4619</name></trkpt>
<trkpt lat="52.873050" lon="-3.382141"><ele>658</ele><time>2020-01-18T11:10:21Z</time><name>PT4620</name></trkpt>
<trkpt lat="52.873049" lon="-3.382148"><ele>658</ele><time>2020-01-18T11:10:23Z</time><name>PT4621</name></trkpt>
<trkpt lat="52.873047" lon="-3.382156"><ele>658</ele><time>2020-01-18T11:10:23Z</time><name>PT4622</name></trkpt>
<trkpt lat="52.873047" lon="-3.382160"><ele>659</ele><time>2020-01-18T11:10:25Z</time><name>PT4623</name></trkpt>
<trkpt lat="52.873047" lon="-3.382167"><ele>659</ele><time>2020-01-18T11:10:26Z</time><name>PT4624</name></trkpt>
<trkpt lat="52.873047" lon="-3.382174"><ele>659</ele><time>2020-01-18T11:10:26Z</time><name>PT4625</name></trkpt>
<trkpt lat="52.873048" lon="-3.382181"><ele>658</ele><time>2020-01-18T11:10:28Z</time><name>PT4626</name></trkpt>
<trkpt lat="52.873048" lon="-3.382186"><ele>659</ele><time>2020-01-18T11:10:29Z</time><name>PT4627</name></trkpt>
<trkpt lat="52.873052" lon="-3.382182"><ele>659</ele><time>2020-01-18T11:10:32Z</time><name>PT4628</name></trkpt>
<trkpt lat="52.873056" lon="-3.382198"><ele>659</ele><time>2020-01-18T11:10:33Z</time><name>PT4629</name></trkpt>
<trkpt lat="52.873057" lon="-3.382202"><ele>660</ele><time>2020-01-18T11:10:35Z</time><name>PT4630</name></trkpt>
<trkpt lat="52.873062" lon="-3.382206"><ele>659</ele><time>2020-01-18T11:10:35Z</time><name>PT4631</name></trkpt>
<trkpt lat="52.873059" lon="-3.382204"><ele>659</ele><time>2020-01-18T11:10:36Z</time><name>PT4632</name></trkpt>
<trkpt lat="52.873059" lon="-3.382204"><ele>659</ele><time>2020-01-18T11:10:44Z</time><name>PT4633</name></trkpt>
<trkpt lat="52.873057" lon="-3.382208"><ele>659</ele><time>2020-01-18T11:10:44Z</time><name>PT4634</name></trkpt>
<trkpt lat="52.873053" lon="-3.382236"><ele>658</ele><time>2020-01-18T11:10:45Z</time><name>PT4635</name></trkpt>
<trkpt lat="52.873047" lon="-3.382246"><ele>658</ele><time>2020-01-18T11:10:47Z</time><name>PT4636</name></trkpt>
<trkpt lat="52.873046" lon="-3.382255"><ele>659</ele><time>2020-01-18T11:10:47Z</time><name>PT4637</name></trkpt>
<trkpt lat="52.873045" lon="-3.382258"><ele>659</ele><time>2020-01-18T11:10:48Z</time><name>PT4638</name></trkpt>
<trkpt lat="52.873044" lon="-3.382259"><ele>659</ele><time>2020-01-18T11:10:50Z</time><name>PT4639</name></trkpt>
<trkpt lat="52.873041" lon="-3.382269"><ele>659</ele><time>2020-01-18T11:10:50Z</time><name>PT4640</name></trkpt>
<trkpt lat="52.873044" lon="-3.382272"><ele>659</ele><time>2020-01-18T11:10:51Z</time><name>PT4641</name></trkpt>
<trkpt lat="52.873047" lon="-3.382274"><ele>659</ele><time>2020-01-18T11:10:53Z</time><name>PT4642</name></trkpt>
<trkpt lat="52.873040" lon="-3.382277"><ele>659</ele><time>2020-01-18T11:10:53Z</time><name>PT4643</name></trkpt>
<trkpt lat="52.873044" lon="-3.382281"><ele>660</ele><time>2020-01-18T11:10:54Z</time><name>PT4644</name></trkpt>
<trkpt lat="52.873041" lon="-3.382292"><ele>659</ele><time>2020-01-18T11:10:56Z</time><name>PT4645</name></trkpt>
<trkpt lat="52.873035" lon="-3.382294"><ele>659</ele><time>2020-01-18T11:10:57Z</time><name>PT4646</name></trkpt>
<trkpt lat="52.873027" lon="-3.382300"><ele>659</ele><time>2020-01-18T11:10:58Z</time><name>PT4647</name></trkpt>
<trkpt lat="52.873021" lon="-3.382306"><ele>659</ele><time>2020-01-18T11:10:59Z</time><name>PT4648</name></trkpt>
<trkpt lat="52.873015" lon="-3.382313"><ele>659</ele><time>2020-01-18T11:11:00Z</time><name>PT4649</name></trkpt>
<trkpt lat="52.873011" lon="-3.382325"><ele>659</ele><time>2020-01-18T11:11:01Z</time><name>PT4650</name></trkpt>
<trkpt lat="52.873008" lon="-3.382331"><ele>659</ele><time>2020-01-18T11:11:02Z</time><name>PT4651</name></trkpt>
<trkpt lat="52.873001" lon="-3.382355"><ele>657</ele><time>2020-01-18T11:11:02Z</time><name>PT4652</name></trkpt>
<trkpt lat="52.873002" lon="-3.382376"><ele>657</ele><time>2020-01-18T11:11:04Z</time><name>PT4653</name></trkpt>
<trkpt lat="52.873002" lon="-3.382378"><ele>657</ele><time>2020-01-18T11:11:05Z</time><name>PT4654</name></trkpt>
<trkpt lat="52.873004" lon="-3.382375"><ele>656</ele><time>2020-01-18T11:11:05Z</time><name>PT4655</name></trkpt>
<trkpt lat="52.873010" lon="-3.382381"><ele>656</ele><time>2020-01-18T11:11:06Z</time><name>PT4656</name></trkpt>
<trkpt lat="52.873014" lon="-3.382385"><ele>656</ele><time>2020-01-18T11:11:08Z</time><name>PT4657</name></trkpt>
<trkpt lat="52.873020" lon="-3.382390"><ele>656</ele><time>2020-01-18T11:11:08Z</time><name>PT4658</name></trkpt>
<trkpt lat="52.873026" lon="-3.382392"><ele>656</ele><time>2020-01-18T11:11:09Z</time><name>PT4659</name></trkpt>
<trkpt lat="52.873029" lon="-3.382396"><ele>658</ele><time>2020-01-18T11:11:11Z</time><name>PT4660</name></trkpt>
<trkpt lat="52.873031" lon="-3.382400"><ele>658</ele><time>2020-01-18T11:11:11Z</time><name>PT4661</name></trkpt>
<trkpt lat="52.873035" lon="-3.382407"><ele>658</ele><time>2020-01-18T11:11:12Z</time><name>PT4662</name></trkpt>
<trkpt lat="52.873041" lon="-3.382417"><ele>659</ele><time>2020-01-18T11:11:14Z</time><name>PT4663</name></trkpt>
<trkpt lat="52.873048" lon="-3.382419"><ele>659</ele><time>2020-01-18T11:11:14Z</time><name>PT4664</name></trkpt>
<trkpt lat="52.873050" lon="-3.382415"><ele>659</ele><time>2020-01-18T11:11:15Z</time><name>PT4665</name></trkpt>
<trkpt lat="52.873050" lon="-3.382412"><ele>659</ele><time>2020-01-18T11:11:17Z</time><name>PT4666</name></trkpt>
<trkpt lat="52.873047" lon="-3.382423"><ele>660</ele><time>2020-01-18T11:11:17Z</time><name>PT4667</name></trkpt>
<trkpt lat="52.873044" lon="-3.382433"><ele>660</ele><time>2020-01-18T11:11:18Z</time><name>PT4668</name></trkpt>
<trkpt lat="52.873043" lon="-3.382439"><ele>659</ele><time>2020-01-18T11:11:20Z</time><name>PT4669</name></trkpt>
<trkpt lat="52.873046" lon="-3.382453"><ele>661</ele><time>2020-01-18T11:11:20Z</time><name>PT4670</name></trkpt>
<trkpt lat="52.873049" lon="-3.382458"><ele>661</ele><time>2020-01-18T11:11:21Z</time><name>PT4671</name></trkpt>
<trkpt lat="52.873050" lon="-3.382462"><ele>661</ele><time>2020-01-18T11:11:23Z</time><name>PT4672</name></trkpt>
<trkpt lat="52.873052" lon="-3.382463"><ele>661</ele><time>2020-01-18T11:11:24Z</time><name>PT4673</name></trkpt>
<trkpt lat="52.873054" lon="-3.382467"><ele>661</ele><time>2020-01-18T11:11:25Z</time><name>PT4674</name></trkpt>
<trkpt lat="52.873056" lon="-3.382468"><ele>660</ele><time>2020-01-18T11:11:26Z</time><name>PT4675</name></trkpt>
<trkpt lat="52.873058" lon="-3.382470"><ele>661</ele><time>2020-01-18T11:11:27Z</time><name>PT4676</name></trkpt>
<trkpt lat="52.873059" lon="-3.382473"><ele>661</ele><time>2020-01-18T11:11:30Z</time><name>PT4677</name></trkpt>
<trkpt lat="52.873057" lon="-3.382481"><ele>662</ele><time>2020-01-18T11:11:31Z</time><name>PT4678</name></trkpt>
<trkpt lat="52.873057" lon="-3.382486"><ele>662</ele><time>2020-01-18T11:11:32Z</time><name>PT4679</name></trkpt>
<trkpt lat="52.873054" lon="-3.382484"><ele>662</ele><time>2020-01-18T11:11:32Z</time><name>PT4680</name></trkpt>
<trkpt lat="52.873057" lon="-3.382485"><ele>663</ele><time>2020-01-18T11:11:33Z</time><name>PT4681</name></trkpt>
<trkpt lat="52.873056" lon="-3.382488"><ele>663</ele><time>2020-01-18T11:11:35Z</time><name>PT4682</name></trkpt>
<trkpt lat="52.873056" lon="-3.382482"><ele>662</ele><time>2020-01-18T11:11:35Z</time><name>PT4683</name></trkpt>
<trkpt lat="52.873066" lon="-3.382486"><ele>663</ele><time>2020-01-18T11:11:36Z</time><name>PT4684</name></trkpt>
<trkpt lat="52.873065" lon="-3.382485"><ele>663</ele><time>2020-01-18T11:11:38Z</time><name>PT4685</name></trkpt>
<trkpt lat="52.873066" lon="-3.382489"><ele>663</ele><time>2020-01-18T11:11:38Z</time><name>PT4686</name></trkpt>
<trkpt lat="52.873072" lon="-3.382489"><ele>664</ele><time>2020-01-18T11:11:39Z</time><name>PT4687</name></trkpt>
<trkpt lat="52.873074" lon="-3.382491"><ele>664</ele><time>2020-01-18T11:11:41Z</time><name>PT4688</name></trkpt>
<trkpt lat="52.873064" lon="-3.382503"><ele>666</ele><time>2020-01-18T11:11:41Z</time><name>PT4689</name></trkpt>
<trkpt lat="52.873063" lon="-3.382501"><ele>669</ele><time>2020-01-18T11:11:42Z</time><name>PT4690</name></trkpt>
<trkpt lat="52.873061" lon="-3.382499"><ele>669</ele><time>2020-01-18T11:11:44Z</time><name>PT4691</name></trkpt>
<trkpt lat="52.873063" lon="-3.382491"><ele>668</ele><time>2020-01-18T11:11:44Z</time><name>PT4692</name></trkpt>
<trkpt lat="52.873071" lon="-3.382473"><ele>667</ele><time>2020-01-18T11:11:45Z</time><name>PT4693</name></trkpt>
<trkpt lat="52.873057" lon="-3.382466"><ele>668</ele><time>2020-01-18T11:11:47Z</time><name>PT4694</name></trkpt>
<trkpt lat="52.873056" lon="-3.382452"><ele>669</ele><time>2020-01-18T11:11:47Z</time><name>PT4695</name></trkpt>
<trkpt lat="52.873054" lon="-3.382456"><ele>668</ele><time>2020-01-18T11:11:48Z</time><name>PT4696</name></trkpt>
<trkpt lat="52.873054" lon="-3.382457"><ele>669</ele><time>2020-01-18T11:11:50Z</time><name>PT4697</name></trkpt>
<trkpt lat="52.873054" lon="-3.382455"><ele>669</ele><time>2020-01-18T11:11:50Z</time><name>PT4698</name></trkpt>
<trkpt lat="52.873049" lon="-3.382459"><ele>670</ele><time>2020-01-18T11:11:51Z</time><name>PT4699</name></trkpt>
<trkpt lat="52.873048" lon="-3.382460"><ele>670</ele><time>2020-01-18T11:11:53Z</time><name>PT4700</name></trkpt>
<trkpt lat="52.873059" lon="-3.382476"><ele>670</ele><time>2020-01-18T11:11:55Z</time><name>PT4701</name></trkpt>
<trkpt lat="52.873065" lon="-3.382496"><ele>669</ele><time>2020-01-18T11:11:56Z</time><name>PT4702</name></trkpt>
<trkpt lat="52.873066" lon="-3.382503"><ele>669</ele><time>2020-01-18T11:11:57Z</time><name>PT4703</name></trkpt>
<trkpt lat="52.873074" lon="-3.382513"><ele>669</ele><time>2020-01-18T11:11:58Z</time><name>PT4704</name></trkpt>
<trkpt lat="52.873079" lon="-3.382518"><ele>669</ele><time>2020-01-18T11:11:59Z</time><name>PT4705</name></trkpt>
<trkpt lat="52.873080" lon="-3.382519"><ele>669</ele><time>2020-01-18T11:12:00Z</time><name>PT4706</name></trkpt>
<trkpt lat="52.873084" lon="-3.382516"><ele>670</ele><time>2020-01-18T11:12:01Z</time><name>PT4707</name></trkpt>
<trkpt lat="52.873087" lon="-3.382511"><ele>670</ele><time>2020-01-18T11:12:02Z</time><name>PT4708</name></trkpt>
<trkpt lat="52.873086" lon="-3.382512"><ele>669</ele><time>2020-01-18T11:12:03Z</time><name>PT4709</name></trkpt>
<trkpt lat="52.873084" lon="-3.382517"><ele>669</ele><time>2020-01-18T11:12:04Z</time><name>PT4710</name></trkpt>
<trkpt lat="52.873090" lon="-3.382507"><ele>669</ele><time>2020-01-18T11:12:05Z</time><name>PT4711</name></trkpt>
<trkpt lat="52.873096" lon="-3.382500"><ele>669</ele><time>2020-01-18T11:12:05Z</time><name>PT4712</name></trkpt>
<trkpt lat="52.873098" lon="-3.382500"><ele>669</ele><time>2020-01-18T11:12:06Z</time><name>PT4713</name></trkpt>
<trkpt lat="52.873100" lon="-3.382498"><ele>669</ele><time>2020-01-18T11:12:08Z</time><name>PT4714</name></trkpt>
<trkpt lat="52.873099" lon="-3.382498"><ele>669</ele><time>2020-01-18T11:12:08Z</time><name>PT4715</name></trkpt>
<trkpt lat="52.873097" lon="-3.382502"><ele>667</ele><time>2020-01-18T11:12:09Z</time><name>PT4716</name></trkpt>
<trkpt lat="52.873096" lon="-3.382504"><ele>668</ele><time>2020-01-18T11:12:11Z</time><name>PT4717</name></trkpt>
<trkpt lat="52.873093" lon="-3.382513"><ele>667</ele><time>2020-01-18T11:12:12Z</time><name>PT4718</name></trkpt>
<trkpt lat="52.873090" lon="-3.382520"><ele>667</ele><time>2020-01-18T11:12:14Z</time><name>PT4719</name></trkpt>
<trkpt lat="52.873090" lon="-3.382513"><ele>668</ele><time>2020-01-18T11:12:14Z</time><name>PT4720</name></trkpt>
<trkpt lat="52.873093" lon="-3.382518"><ele>668</ele><time>2020-01-18T11:12:15Z</time><name>PT4721</name></trkpt>
<trkpt lat="52.873078" lon="-3.382542"><ele>668</ele><time>2020-01-18T11:12:17Z</time><name>PT4722</name></trkpt>
<trkpt lat="52.873067" lon="-3.382563"><ele>668</ele><time>2020-01-18T11:12:18Z</time><name>PT4723</name></trkpt>
<trkpt lat="52.873064" lon="-3.382565"><ele>668</ele><time>2020-01-18T11:12:18Z</time><name>PT4724</name></trkpt>
<trkpt lat="52.873069" lon="-3.382551"><ele>669</ele><time>2020-01-18T11:12:20Z</time><name>PT4725</name></trkpt>
<trkpt lat="52.873061" lon="-3.382543"><ele>670</ele><time>2020-01-18T11:12:20Z</time><name>PT4726</name></trkpt>
<trkpt lat="52.873062" lon="-3.382543"><ele>669</ele><time>2020-01-18T11:13:02Z</time><name>PT4727</name></trkpt>
<trkpt lat="52.873065" lon="-3.382541"><ele>669</ele><time>2020-01-18T11:13:03Z</time><name>PT4728</name></trkpt>
<trkpt lat="52.873063" lon="-3.382541"><ele>668</ele><time>2020-01-18T11:13:05Z</time><name>PT4729</name></trkpt>
<trkpt lat="52.873064" lon="-3.382540"><ele>668</ele><time>2020-01-18T11:13:05Z</time><name>PT4730</name></trkpt>
<trkpt lat="52.873066" lon="-3.382538"><ele>668</ele><time>2020-01-18T11:13:06Z</time><name>PT4731</name></trkpt>
<trkpt lat="52.873074" lon="-3.382521"><ele>669</ele><time>2020-01-18T11:21:25Z</time><name>PT4732</name></trkpt>
<trkpt lat="52.873075" lon="-3.382508"><ele>668</ele><time>2020-01-18T11:21:26Z</time><name>PT4733</name></trkpt>
<trkpt lat="52.873077" lon="-3.382508"><ele>668</ele><time>2020-01-18T11:21:26Z</time><name>PT4734</name></trkpt>
<trkpt lat="52.873082" lon="-3.382502"><ele>668</ele><time>2020-01-18T11:21:27Z</time><name>PT4735</name></trkpt>
<trkpt lat="52.873077" lon="-3.382502"><ele>666</ele><time>2020-01-18T11:21:29Z</time><name>PT4736</name></trkpt>
<trkpt lat="52.873076" lon="-3.382508"><ele>666</ele><time>2020-01-18T11:21:29Z</time><name>PT4737</name></trkpt>
<trkpt lat="52.873074" lon="-3.382512"><ele>666</ele><time>2020-01-18T11:21:30Z</time><name>PT4738</name></trkpt>
<trkpt lat="52.873076" lon="-3.382517"><ele>666</ele><time>2020-01-18T11:21:40Z</time><name>PT4739</name></trkpt>
<trkpt lat="52.873076" lon="-3.382519"><ele>666</ele><time>2020-01-18T11:21:41Z</time><name>PT4740</name></trkpt>
<trkpt lat="52.873077" lon="-3.382520"><ele>666</ele><time>2020-01-18T11:21:42Z</time><name>PT4741</name></trkpt>
<trkpt lat="52.873079" lon="-3.382522"><ele>666</ele><time>2020-01-18T11:21:43Z</time><name>PT4742</name></trkpt>
<trkpt lat="52.873080" lon="-3.382521"><ele>666</ele><time>2020-01-18T11:21:47Z</time><name>PT4743</name></trkpt>
<trkpt lat="52.873084" lon="-3.382516"><ele>665</ele><time>2020-01-18T11:21:47Z</time><name>PT4744</name></trkpt>
<trkpt lat="52.873085" lon="-3.382521"><ele>666</ele><time>2020-01-18T11:21:59Z</time><name>PT4745</name></trkpt>
<trkpt lat="52.873087" lon="-3.382533"><ele>666</ele><time>2020-01-18T11:22:00Z</time><name>PT4746</name></trkpt>
<trkpt lat="52.873090" lon="-3.382533"><ele>667</ele><time>2020-01-18T11:22:02Z</time><name>PT4747</name></trkpt>
<trkpt lat="52.873089" lon="-3.382521"><ele>667</ele><time>2020-01-18T11:22:02Z</time><name>PT4748</name></trkpt>
<trkpt lat="52.873089" lon="-3.382513"><ele>668</ele><time>2020-01-18T11:22:03Z</time><name>PT4749</name></trkpt>
<trkpt lat="52.873097" lon="-3.382515"><ele>668</ele><time>2020-01-18T11:22:05Z</time><name>PT4750</name></trkpt>
<trkpt lat="52.873096" lon="-3.382504"><ele>669</ele><time>2020-01-18T11:22:05Z</time><name>PT4751</name></trkpt>
<trkpt lat="52.873099" lon="-3.382504"><ele>669</ele><time>2020-01-18T11:22:44Z</time><name>PT4752</name></trkpt>
<trkpt lat="52.873107" lon="-3.382495"><ele>670</ele><time>2020-01-18T11:22:45Z</time><name>PT4753</name></trkpt>
<trkpt lat="52.873106" lon="-3.382495"><ele>669</ele><time>2020-01-18T11:22:47Z</time><name>PT4754</name></trkpt>
<trkpt lat="52.873103" lon="-3.382498"><ele>669</ele><time>2020-01-18T11:22:56Z</time><name>PT4755</name></trkpt>
<trkpt lat="52.873097" lon="-3.382501"><ele>669</ele><time>2020-01-18T11:22:57Z</time><name>PT4756</name></trkpt>
<trkpt lat="52.873098" lon="-3.382514"><ele>669</ele><time>2020-01-18T11:23:42Z</time><name>PT4757</name></trkpt>
<trkpt lat="52.873099" lon="-3.382516"><ele>668</ele><time>2020-01-18T11:23:43Z</time><name>PT4758</name></trkpt>
<trkpt lat="52.873097" lon="-3.382516"><ele>669</ele><time>2020-01-18T11:23:44Z</time><name>PT4759</name></trkpt>
<trkpt lat="52.873097" lon="-3.382515"><ele>669</ele><time>2020-01-18T11:23:45Z</time><name>PT4760</name></trkpt>
<trkpt lat="52.873099" lon="-3.382511"><ele>669</ele><time>2020-01-18T11:23:46Z</time><name>PT4761</name></trkpt>
<trkpt lat="52.873098" lon="-3.382508"><ele>669</ele><time>2020-01-18T11:24:20Z</time><name>PT4762</name></trkpt>
<trkpt lat="52.873099" lon="-3.382505"><ele>669</ele><time>2020-01-18T11:24:21Z</time><name>PT4763</name></trkpt>
<trkpt lat="52.873100" lon="-3.382506"><ele>669</ele><time>2020-01-18T11:24:23Z</time><name>PT4764</name></trkpt>
<trkpt lat="52.873102" lon="-3.382515"><ele>669</ele><time>2020-01-18T11:24:30Z</time><name>PT4765</name></trkpt>
<trkpt lat="52.873105" lon="-3.382519"><ele>669</ele><time>2020-01-18T11:24:32Z</time><name>PT4766</name></trkpt>
<trkpt lat="52.873102" lon="-3.382523"><ele>669</ele><time>2020-01-18T11:24:32Z</time><name>PT4767</name></trkpt>
<trkpt lat="52.873099" lon="-3.382524"><ele>669</ele><time>2020-01-18T11:24:33Z</time><name>PT4768</name></trkpt>
<trkpt lat="52.873099" lon="-3.382523"><ele>669</ele><time>2020-01-18T11:24:35Z</time><name>PT4769</name></trkpt>
<trkpt lat="52.873104" lon="-3.382527"><ele>669</ele><time>2020-01-18T11:24:35Z</time><name>PT4770</name></trkpt>
<trkpt lat="52.873106" lon="-3.382527"><ele>669</ele><time>2020-01-18T11:24:36Z</time><name>PT4771</name></trkpt>
<trkpt lat="52.873108" lon="-3.382528"><ele>669</ele><time>2020-01-18T11:24:39Z</time><name>PT4772</name></trkpt>
<trkpt lat="52.873105" lon="-3.382531"><ele>669</ele><time>2020-01-18T11:24:41Z</time><name>PT4773</name></trkpt>
<trkpt lat="52.873104" lon="-3.382530"><ele>669</ele><time>2020-01-18T11:24:41Z</time><name>PT4774</name></trkpt>
<trkpt lat="52.873105" lon="-3.382518"><ele>669</ele><time>2020-01-18T11:24:56Z</time><name>PT4775</name></trkpt>
<trkpt lat="52.873100" lon="-3.382509"><ele>669</ele><time>2020-01-18T11:24:57Z</time><name>PT4776</name></trkpt>
<trkpt lat="52.873095" lon="-3.382505"><ele>669</ele><time>2020-01-18T11:24:58Z</time><name>PT4777</name></trkpt>
<trkpt lat="52.873092" lon="-3.382507"><ele>669</ele><time>2020-01-18T11:24:59Z</time><name>PT4778</name></trkpt>
<trkpt lat="52.873091" lon="-3.382504"><ele>670</ele><time>2020-01-18T11:25:00Z</time><name>PT4779</name></trkpt>
<trkpt lat="52.873090" lon="-3.382508"><ele>670</ele><time>2020-01-18T11:25:02Z</time><name>PT4780</name></trkpt>
<trkpt lat="52.873090" lon="-3.382508"><ele>670</ele><time>2020-01-18T11:25:02Z</time><name>PT4781</name></trkpt>
<trkpt lat="52.873091" lon="-3.382509"><ele>670</ele><time>2020-01-18T11:25:03Z</time><name>PT4782</name></trkpt>
<trkpt lat="52.873091" lon="-3.382508"><ele>670</ele><time>2020-01-18T11:25:05Z</time><name>PT4783</name></trkpt>
<trkpt lat="52.873088" lon="-3.382513"><ele>670</ele><time>2020-01-18T11:25:08Z</time><name>PT4784</name></trkpt>
<trkpt lat="52.873083" lon="-3.382523"><ele>669</ele><time>2020-01-18T11:25:10Z</time><name>PT4785</name></trkpt>
<trkpt lat="52.873073" lon="-3.382529"><ele>669</ele><time>2020-01-18T11:25:24Z</time><name>PT4786</name></trkpt>
<trkpt lat="52.873066" lon="-3.382534"><ele>669</ele><time>2020-01-18T11:25:25Z</time><name>PT4787</name></trkpt>
<trkpt lat="52.873063" lon="-3.382541"><ele>669</ele><time>2020-01-18T11:25:26Z</time><name>PT4788</name></trkpt>
<trkpt lat="52.873064" lon="-3.382550"><ele>669</ele><time>2020-01-18T11:25:27Z</time><name>PT4789</name></trkpt>
<trkpt lat="52.873067" lon="-3.382552"><ele>669</ele><time>2020-01-18T11:25:28Z</time><name>PT4790</name></trkpt>
<trkpt lat="52.873068" lon="-3.382549"><ele>669</ele><time>2020-01-18T11:25:29Z</time><name>PT4791</name></trkpt>
<trkpt lat="52.873074" lon="-3.382539"><ele>670</ele><time>2020-01-18T11:25:33Z</time><name>PT4792</name></trkpt>
<trkpt lat="52.873077" lon="-3.382534"><ele>670</ele><time>2020-01-18T11:25:34Z</time><name>PT4793</name></trkpt>
<trkpt lat="52.873081" lon="-3.382525"><ele>670</ele><time>2020-01-18T11:25:45Z</time><name>PT4794</name></trkpt>
<trkpt lat="52.873082" lon="-3.382522"><ele>669</ele><time>2020-01-18T11:25:47Z</time><name>PT4795</name></trkpt>
<trkpt lat="52.873081" lon="-3.382519"><ele>669</ele><time>2020-01-18T11:25:47Z</time><name>PT4796</name></trkpt>
<trkpt lat="52.873078" lon="-3.382517"><ele>669</ele><time>2020-01-18T11:25:49Z</time><name>PT4797</name></trkpt>
<trkpt lat="52.873072" lon="-3.382533"><ele>669</ele><time>2020-01-18T11:25:50Z</time><name>PT4798</name></trkpt>
<trkpt lat="52.873066" lon="-3.382547"><ele>668</ele><time>2020-01-18T11:25:50Z</time><name>PT4799</name></trkpt>
<trkpt lat="52.873074" lon="-3.382547"><ele>668</ele><time>2020-01-18T11:25:51Z</time><name>PT4800</name></trkpt>
<trkpt lat="52.873079" lon="-3.382544"><ele>667</ele><time>2020-01-18T11:25:53Z</time><name>PT4801</name></trkpt>
<trkpt lat="52.873084" lon="-3.382543"><ele>668</ele><time>2020-01-18T11:25:54Z</time><name>PT4802</name></trkpt>
<trkpt lat="52.873084" lon="-3.382537"><ele>667</ele><time>2020-01-18T11:25:54Z</time><name>PT4803</name></trkpt>
<trkpt lat="52.873084" lon="-3.382533"><ele>667</ele><time>2020-01-18T11:25:56Z</time><name>PT4804</name></trkpt>
<trkpt lat="52.873082" lon="-3.382533"><ele>667</ele><time>2020-01-18T11:25:56Z</time><name>PT4805</name></trkpt>
<trkpt lat="52.873081" lon="-3.382529"><ele>668</ele><time>2020-01-18T11:26:03Z</time><name>PT4806</name></trkpt>
<trkpt lat="52.873082" lon="-3.382530"><ele>668</ele><time>2020-01-18T11:26:05Z</time><name>PT4807</name></trkpt>
<trkpt lat="52.873085" lon="-3.382534"><ele>668</ele><time>2020-01-18T11:26:06Z</time><name>PT4808</name></trkpt>
<trkpt lat="52.873087" lon="-3.382534"><ele>668</ele><time>2020-01-18T11:26:07Z</time><name>PT4809</name></trkpt>
<trkpt lat="52.873087" lon="-3.382536"><ele>668</ele><time>2020-01-18T11:26:08Z</time><name>PT4810</name></trkpt>
<trkpt lat="52.873088" lon="-3.382536"><ele>667</ele><time>2020-01-18T11:26:08Z</time><name>PT4811</name></trkpt>
<trkpt lat="52.873092" lon="-3.382537"><ele>667</ele><time>2020-01-18T11:26:09Z</time><name>PT4812</name></trkpt>
<trkpt lat="52.873094" lon="-3.382541"><ele>668</ele><time>2020-01-18T11:26:14Z</time><name>PT4813</name></trkpt>
<trkpt lat="52.873095" lon="-3.382548"><ele>668</ele><time>2020-01-18T11:26:15Z</time><name>PT4814</name></trkpt>
<trkpt lat="52.873098" lon="-3.382551"><ele>668</ele><time>2020-01-18T11:26:17Z</time><name>PT4815</name></trkpt>
<trkpt lat="52.873104" lon="-3.382554"><ele>668</ele><time>2020-01-18T11:26:18Z</time><name>PT4816</name></trkpt>
<trkpt lat="52.873107" lon="-3.382553"><ele>668</ele><time>2020-01-18T11:26:18Z</time><name>PT4817</name></trkpt>
<trkpt lat="52.873111" lon="-3.382557"><ele>668</ele><time>2020-01-18T11:26:20Z</time><name>PT4818</name></trkpt>
<trkpt lat="52.873118" lon="-3.382562"><ele>668</ele><time>2020-01-18T11:26:20Z</time><name>PT4819</name></trkpt>
<trkpt lat="52.873119" lon="-3.382570"><ele>668</ele><time>2020-01-18T11:26:22Z</time><name>PT4820</name></trkpt>
<trkpt lat="52.873121" lon="-3.382576"><ele>669</ele><time>2020-01-18T11:26:23Z</time><name>PT4821</name></trkpt>
<trkpt lat="52.873120" lon="-3.382582"><ele>669</ele><time>2020-01-18T11:26:24Z</time><name>PT4822</name></trkpt>
<trkpt lat="52.873120" lon="-3.382588"><ele>669</ele><time>2020-01-18T11:26:25Z</time><name>PT4823</name></trkpt>
<trkpt lat="52.873118" lon="-3.382593"><ele>670</ele><time>2020-01-18T11:26:26Z</time><name>PT4824</name></trkpt>
<trkpt lat="52.873116" lon="-3.382590"><ele>669</ele><time>2020-01-18T11:26:28Z</time><name>PT4825</name></trkpt>
<trkpt lat="52.873115" lon="-3.382597"><ele>669</ele><time>2020-01-18T11:26:29Z</time><name>PT4826</name></trkpt>
<trkpt lat="52.873114" lon="-3.382600"><ele>670</ele><time>2020-01-18T11:26:29Z</time><name>PT4827</name></trkpt>
<trkpt lat="52.873107" lon="-3.382604"><ele>671</ele><time>2020-01-18T11:26:30Z</time><name>PT4828</name></trkpt>
<trkpt lat="52.873110" lon="-3.382623"><ele>670</ele><time>2020-01-18T11:26:32Z</time><name>PT4829</name></trkpt>
<trkpt lat="52.873112" lon="-3.382634"><ele>671</ele><time>2020-01-18T11:26:32Z</time><name>PT4830</name></trkpt>
<trkpt lat="52.873113" lon="-3.382641"><ele>670</ele><time>2020-01-18T11:26:33Z</time><name>PT4831</name></trkpt>
<trkpt lat="52.873113" lon="-3.382648"><ele>670</ele><time>2020-01-18T11:26:35Z</time><name>PT4832</name></trkpt>
<trkpt lat="52.873115" lon="-3.382653"><ele>670</ele><time>2020-01-18T11:26:35Z</time><name>PT4833</name></trkpt>
<trkpt lat="52.873119" lon="-3.382659"><ele>670</ele><time>2020-01-18T11:26:36Z</time><name>PT4834</name></trkpt>
<trkpt lat="52.873120" lon="-3.382663"><ele>669</ele><time>2020-01-18T11:26:38Z</time><name>PT4835</name></trkpt>
<trkpt lat="52.873122" lon="-3.382670"><ele>670</ele><time>2020-01-18T11:26:38Z</time><name>PT4836</name></trkpt>
<trkpt lat="52.873122" lon="-3.382683"><ele>670</ele><time>2020-01-18T11:26:39Z</time><name>PT4837</name></trkpt>
<trkpt lat="52.873123" lon="-3.382691"><ele>670</ele><time>2020-01-18T11:26:41Z</time><name>PT4838</name></trkpt>
<trkpt lat="52.873123" lon="-3.382697"><ele>670</ele><time>2020-01-18T11:26:42Z</time><name>PT4839</name></trkpt>
<trkpt lat="52.873125" lon="-3.382711"><ele>669</ele><time>2020-01-18T11:26:43Z</time><name>PT4840</name></trkpt>
<trkpt lat="52.873125" lon="-3.382723"><ele>669</ele><time>2020-01-18T11:26:44Z</time><name>PT4841</name></trkpt>
<trkpt lat="52.873126" lon="-3.382727"><ele>669</ele><time>2020-01-18T11:26:44Z</time><name>PT4842</name></trkpt>
<trkpt lat="52.873128" lon="-3.382732"><ele>669</ele><time>2020-01-18T11:26:45Z</time><name>PT4843</name></trkpt>
<trkpt lat="52.873133" lon="-3.382744"><ele>669</ele><time>2020-01-18T11:26:47Z</time><name>PT4844</name></trkpt>
<trkpt lat="52.873136" lon="-3.382752"><ele>669</ele><time>2020-01-18T11:26:47Z</time><name>PT4845</name></trkpt>
<trkpt lat="52.873138" lon="-3.382758"><ele>669</ele><time>2020-01-18T11:26:48Z</time><name>PT4846</name></trkpt>
<trkpt lat="52.873140" lon="-3.382768"><ele>668</ele><time>2020-01-18T11:26:50Z</time><name>PT4847</name></trkpt>
<trkpt lat="52.873143" lon="-3.382777"><ele>668</ele><time>2020-01-18T11:26:50Z</time><name>PT4848</name></trkpt>
<trkpt lat="52.873143" lon="-3.382787"><ele>668</ele><time>2020-01-18T11:26:51Z</time><name>PT4849</name></trkpt>
<trkpt lat="52.873144" lon="-3.382795"><ele>668</ele><time>2020-01-18T11:26:53Z</time><name>PT4850</name></trkpt>
<trkpt lat="52.873148" lon="-3.382804"><ele>668</ele><time>2020-01-18T11:26:53Z</time><name>PT4851</name></trkpt>
<trkpt lat="52.873151" lon="-3.382809"><ele>668</ele><time>2020-01-18T11:26:54Z</time><name>PT4852</name></trkpt>
<trkpt lat="52.873152" lon="-3.382817"><ele>669</ele><time>2020-01-18T11:26:56Z</time><name>PT4853</name></trkpt>
<trkpt lat="52.873158" lon="-3.382821"><ele>669</ele><time>2020-01-18T11:26:56Z</time><name>PT4854</name></trkpt>
<trkpt lat="52.873160" lon="-3.382825"><ele>669</ele><time>2020-01-18T11:26:57Z</time><name>PT4855</name></trkpt>
<trkpt lat="52.873161" lon="-3.382829"><ele>669</ele><time>2020-01-18T11:26:59Z</time><name>PT4856</name></trkpt>
<trkpt lat="52.873164" lon="-3.382836"><ele>670</ele><time>2020-01-18T11:26:59Z</time><name>PT4857</name></trkpt>
<trkpt lat="52.873172" lon="-3.382848"><ele>669</ele><time>2020-01-18T11:27:00Z</time><name>PT4858</name></trkpt>
<trkpt lat="52.873175" lon="-3.382858"><ele>670</ele><time>2020-01-18T11:27:02Z</time><name>PT4859</name></trkpt>
<trkpt lat="52.873176" lon="-3.382870"><ele>670</ele><time>2020-01-18T11:27:02Z</time><name>PT4860</name></trkpt>
<trkpt lat="52.873177" lon="-3.382879"><ele>670</ele><time>2020-01-18T11:27:03Z</time><name>PT4861</name></trkpt>
<trkpt lat="52.873179" lon="-3.382888"><ele>670</ele><time>2020-01-18T11:27:05Z</time><name>PT4862</name></trkpt>
<trkpt lat="52.873181" lon="-3.382899"><ele>670</ele><time>2020-01-18T11:27:05Z</time><name>PT4863</name></trkpt>
<trkpt lat="52.873179" lon="-3.382908"><ele>670</ele><time>2020-01-18T11:27:06Z</time><name>PT4864</name></trkpt>
<trkpt lat="52.873183" lon="-3.382915"><ele>670</ele><time>2020-01-18T11:27:08Z</time><name>PT4865</name></trkpt>
<trkpt lat="52.873184" lon="-3.382925"><ele>670</ele><time>2020-01-18T11:27:08Z</time><name>PT4866</name></trkpt>
<trkpt lat="52.873187" lon="-3.382933"><ele>670</ele><time>2020-01-18T11:27:09Z</time><name>PT4867</name></trkpt>
<trkpt lat="52.873186" lon="-3.382942"><ele>670</ele><time>2020-01-18T11:27:11Z</time><name>PT4868</name></trkpt>
<trkpt lat="52.873190" lon="-3.382947"><ele>670</ele><time>2020-01-18T11:27:11Z</time><name>PT4869</name></trkpt>
<trkpt lat="52.873186" lon="-3.382956"><ele>669</ele><time>2020-01-18T11:27:12Z</time><name>PT4870</name></trkpt>
<trkpt lat="52.873186" lon="-3.382964"><ele>670</ele><time>2020-01-18T11:27:14Z</time><name>PT4871</name></trkpt>
<trkpt lat="52.873187" lon="-3.382972"><ele>670</ele><time>2020-01-18T11:27:14Z</time><name>PT4872</name></trkpt>
<trkpt lat="52.873190" lon="-3.382984"><ele>670</ele><time>2020-01-18T11:27:15Z</time><name>PT4873</name></trkpt>
<trkpt lat="52.873189" lon="-3.382990"><ele>671</ele><time>2020-01-18T11:27:17Z</time><name>PT4874</name></trkpt>
<trkpt lat="52.873185" lon="-3.382999"><ele>669</ele><time>2020-01-18T11:27:17Z</time><name>PT4875</name></trkpt>
<trkpt lat="52.873186" lon="-3.383008"><ele>669</ele><time>2020-01-18T11:27:18Z</time><name>PT4876</name></trkpt>
<trkpt lat="52.873187" lon="-3.383016"><ele>669</ele><time>2020-01-18T11:27:20Z</time><name>PT4877</name></trkpt>
<trkpt lat="52.873191" lon="-3.383023"><ele>669</ele><time>2020-01-18T11:27:20Z</time><name>PT4878</name></trkpt>
<trkpt lat="52.873192" lon="-3.383030"><ele>670</ele><time>2020-01-18T11:27:21Z</time><name>PT4879</name></trkpt>
<trkpt lat="52.873193" lon="-3.383036"><ele>670</ele><time>2020-01-18T11:27:23Z</time><name>PT4880</name></trkpt>
<trkpt lat="52.873193" lon="-3.383040"><ele>670</ele><time>2020-01-18T11:27:23Z</time><name>PT4881</name></trkpt>
<trkpt lat="52.873195" lon="-3.383047"><ele>670</ele><time>2020-01-18T11:27:24Z</time><name>PT4882</name></trkpt>
<trkpt lat="52.873196" lon="-3.383066"><ele>669</ele><time>2020-01-18T11:27:26Z</time><name>PT4883</name></trkpt>
<trkpt lat="52.873195" lon="-3.383081"><ele>670</ele><time>2020-01-18T11:27:26Z</time><name>PT4884</name></trkpt>
<trkpt lat="52.873196" lon="-3.383094"><ele>669</ele><time>2020-01-18T11:27:27Z</time><name>PT4885</name></trkpt>
<trkpt lat="52.873197" lon="-3.383106"><ele>670</ele><time>2020-01-18T11:27:29Z</time><name>PT4886</name></trkpt>
<trkpt lat="52.873197" lon="-3.383116"><ele>670</ele><time>2020-01-18T11:27:29Z</time><name>PT4887</name></trkpt>
<trkpt lat="52.873196" lon="-3.383128"><ele>670</ele><time>2020-01-18T11:27:30Z</time><name>PT4888</name></trkpt>
<trkpt lat="52.873199" lon="-3.383139"><ele>670</ele><time>2020-01-18T11:27:32Z</time><name>PT4889</name></trkpt>
<trkpt lat="52.873200" lon="-3.383146"><ele>670</ele><time>2020-01-18T11:27:32Z</time><name>PT4890</name></trkpt>
<trkpt lat="52.873201" lon="-3.383155"><ele>670</ele><time>2020-01-18T11:27:33Z</time><name>PT4891</name></trkpt>
<trkpt lat="52.873203" lon="-3.383165"><ele>671</ele><time>2020-01-18T11:27:35Z</time><name>PT4892</name></trkpt>
<trkpt lat="52.873201" lon="-3.383172"><ele>671</ele><time>2020-01-18T11:27:35Z</time><name>PT4893</name></trkpt>
<trkpt lat="52.873203" lon="-3.383179"><ele>671</ele><time>2020-01-18T11:27:36Z</time><name>PT4894</name></trkpt>
<trkpt lat="52.873204" lon="-3.383190"><ele>671</ele><time>2020-01-18T11:27:38Z</time><name>PT4895</name></trkpt>
<trkpt lat="52.873205" lon="-3.383196"><ele>671</ele><time>2020-01-18T11:27:38Z</time><name>PT4896</name></trkpt>
<trkpt lat="52.873206" lon="-3.383205"><ele>672</ele><time>2020-01-18T11:27:39Z</time><name>PT4897</name></trkpt>
<trkpt lat="52.873204" lon="-3.383219"><ele>671</ele><time>2020-01-18T11:27:41Z</time><name>PT4898</name></trkpt>
<trkpt lat="52.873203" lon="-3.383226"><ele>672</ele><time>2020-01-18T11:27:41Z</time><name>PT4899</name></trkpt>
<trkpt lat="52.873199" lon="-3.383234"><ele>672</ele><time>2020-01-18T11:27:42Z</time><name>PT4900</name></trkpt>
<trkpt lat="52.873199" lon="-3.383241"><ele>672</ele><time>2020-01-18T11:27:44Z</time><name>PT4901</name></trkpt>
<trkpt lat="52.873198" lon="-3.383247"><ele>672</ele><time>2020-01-18T11:27:44Z</time><name>PT4902</name></trkpt>
<trkpt lat="52.873197" lon="-3.383257"><ele>673</ele><time>2020-01-18T11:27:45Z</time><name>PT4903</name></trkpt>
<trkpt lat="52.873198" lon="-3.383265"><ele>673</ele><time>2020-01-18T11:27:47Z</time><name>PT4904</name></trkpt>
<trkpt lat="52.873201" lon="-3.383272"><ele>673</ele><time>2020-01-18T11:27:47Z</time><name>PT4905</name></trkpt>
<trkpt lat="52.873203" lon="-3.383277"><ele>674</ele><time>2020-01-18T11:27:49Z</time><name>PT4906</name></trkpt>
<trkpt lat="52.873205" lon="-3.383283"><ele>674</ele><time>2020-01-18T11:27:50Z</time><name>PT4907</name></trkpt>
<trkpt lat="52.873200" lon="-3.383304"><ele>675</ele><time>2020-01-18T11:27:58Z</time><name>PT4908</name></trkpt>
<trkpt lat="52.873207" lon="-3.383318"><ele>674</ele><time>2020-01-18T11:27:59Z</time><name>PT4909</name></trkpt>
<trkpt lat="52.873205" lon="-3.383332"><ele>675</ele><time>2020-01-18T11:28:00Z</time><name>PT4910</name></trkpt>
<trkpt lat="52.873207" lon="-3.383345"><ele>675</ele><time>2020-01-18T11:28:01Z</time><name>PT4911</name></trkpt>
<trkpt lat="52.873209" lon="-3.383352"><ele>675</ele><time>2020-01-18T11:28:02Z</time><name>PT4912</name></trkpt>
<trkpt lat="52.873212" lon="-3.383354"><ele>676</ele><time>2020-01-18T11:28:02Z</time><name>PT4913</name></trkpt>
<trkpt lat="52.873218" lon="-3.383378"><ele>676</ele><time>2020-01-18T11:28:03Z</time><name>PT4914</name></trkpt>
<trkpt lat="52.873219" lon="-3.383376"><ele>677</ele><time>2020-01-18T11:28:05Z</time><name>PT4915</name></trkpt>
<trkpt lat="52.873218" lon="-3.383382"><ele>677</ele><time>2020-01-18T11:28:05Z</time><name>PT4916</name></trkpt>
<trkpt lat="52.873219" lon="-3.383395"><ele>677</ele><time>2020-01-18T11:28:06Z</time><name>PT4917</name></trkpt>
<trkpt lat="52.873218" lon="-3.383403"><ele>677</ele><time>2020-01-18T11:28:08Z</time><name>PT4918</name></trkpt>
<trkpt lat="52.873216" lon="-3.383414"><ele>677</ele><time>2020-01-18T11:28:08Z</time><name>PT4919</name></trkpt>
<trkpt lat="52.873214" lon="-3.383426"><ele>676</ele><time>2020-01-18T11:28:09Z</time><name>PT4920</name></trkpt>
<trkpt lat="52.873212" lon="-3.383436"><ele>677</ele><time>2020-01-18T11:28:11Z</time><name>PT4921</name></trkpt>
<trkpt lat="52.873210" lon="-3.383446"><ele>676</ele><time>2020-01-18T11:28:11Z</time><name>PT4922</name></trkpt>
<trkpt lat="52.873213" lon="-3.383455"><ele>676</ele><time>2020-01-18T11:28:12Z</time><name>PT4923</name></trkpt>
<trkpt lat="52.873213" lon="-3.383464"><ele>677</ele><time>2020-01-18T11:28:14Z</time><name>PT4924</name></trkpt>
<trkpt lat="52.873213" lon="-3.383474"><ele>677</ele><time>2020-01-18T11:28:14Z</time><name>PT4925</name></trkpt>
<trkpt lat="52.873212" lon="-3.383483"><ele>678</ele><time>2020-01-18T11:28:15Z</time><name>PT4926</name></trkpt>
<trkpt lat="52.873212" lon="-3.383489"><ele>678</ele><time>2020-01-18T11:28:17Z</time><name>PT4927</name></trkpt>
<trkpt lat="52.873209" lon="-3.383494"><ele>678</ele><time>2020-01-18T11:28:18Z</time><name>PT4928</name></trkpt>
<trkpt lat="52.873212" lon="-3.383505"><ele>678</ele><time>2020-01-18T11:28:20Z</time><name>PT4929</name></trkpt>
<trkpt lat="52.873212" lon="-3.383514"><ele>678</ele><time>2020-01-18T11:28:20Z</time><name>PT4930</name></trkpt>
<trkpt lat="52.873208" lon="-3.383516"><ele>679</ele><time>2020-01-18T11:28:21Z</time><name>PT4931</name></trkpt>
<trkpt lat="52.873210" lon="-3.383516"><ele>679</ele><time>2020-01-18T11:28:23Z</time><name>PT4932</name></trkpt>
<trkpt lat="52.873215" lon="-3.383498"><ele>679</ele><time>2020-01-18T11:28:23Z</time><name>PT4933</name></trkpt>
<trkpt lat="52.873218" lon="-3.383500"><ele>679</ele><time>2020-01-18T11:28:24Z</time><name>PT4934</name></trkpt>
<trkpt lat="52.873218" lon="-3.383506"><ele>679</ele><time>2020-01-18T11:28:26Z</time><name>PT4935</name></trkpt>
<trkpt lat="52.873218" lon="-3.383516"><ele>680</ele><time>2020-01-18T11:28:26Z</time><name>PT4936</name></trkpt>
<trkpt lat="52.873220" lon="-3.383524"><ele>680</ele><time>2020-01-18T11:28:27Z</time><name>PT4937</name></trkpt>
<trkpt lat="52.873221" lon="-3.383532"><ele>681</ele><time>2020-01-18T11:28:29Z</time><name>PT4938</name></trkpt>
<trkpt lat="52.873223" lon="-3.383537"><ele>681</ele><time>2020-01-18T11:28:29Z</time><name>PT4939</name></trkpt>
<trkpt lat="52.873220" lon="-3.383549"><ele>681</ele><time>2020-01-18T11:28:31Z</time><name>PT4940</name></trkpt>
<trkpt lat="52.873218" lon="-3.383562"><ele>681</ele><time>2020-01-18T11:28:32Z</time><name>PT4941</name></trkpt>
<trkpt lat="52.873218" lon="-3.383570"><ele>681</ele><time>2020-01-18T11:28:32Z</time><name>PT4942</name></trkpt>
<trkpt lat="52.873219" lon="-3.383577"><ele>681</ele><time>2020-01-18T11:28:34Z</time><name>PT4943</name></trkpt>
<trkpt lat="52.873224" lon="-3.383583"><ele>681</ele><time>2020-01-18T11:28:35Z</time><name>PT4944</name></trkpt>
<trkpt lat="52.873226" lon="-3.383587"><ele>681</ele><time>2020-01-18T11:28:35Z</time><name>PT4945</name></trkpt>
<trkpt lat="52.873227" lon="-3.383592"><ele>682</ele><time>2020-01-18T11:28:36Z</time><name>PT4946</name></trkpt>
<trkpt lat="52.873230" lon="-3.383593"><ele>682</ele><time>2020-01-18T11:28:38Z</time><name>PT4947</name></trkpt>
<trkpt lat="52.873229" lon="-3.383602"><ele>682</ele><time>2020-01-18T11:28:39Z</time><name>PT4948</name></trkpt>
<trkpt lat="52.873232" lon="-3.383606"><ele>682</ele><time>2020-01-18T11:28:39Z</time><name>PT4949</name></trkpt>
<trkpt lat="52.873234" lon="-3.383606"><ele>683</ele><time>2020-01-18T11:28:41Z</time><name>PT4950</name></trkpt>
<trkpt lat="52.873228" lon="-3.383611"><ele>683</ele><time>2020-01-18T11:28:41Z</time><name>PT4951</name></trkpt>
<trkpt lat="52.873223" lon="-3.383621"><ele>683</ele><time>2020-01-18T11:28:42Z</time><name>PT4952</name></trkpt>
<trkpt lat="52.873218" lon="-3.383628"><ele>683</ele><time>2020-01-18T11:28:44Z</time><name>PT4953</name></trkpt>
<trkpt lat="52.873212" lon="-3.383638"><ele>683</ele><time>2020-01-18T11:28:45Z</time><name>PT4954</name></trkpt>
<trkpt lat="52.873209" lon="-3.383645"><ele>683</ele><time>2020-01-18T11:28:46Z</time><name>PT4955</name></trkpt>
<trkpt lat="52.873206" lon="-3.383655"><ele>683</ele><time>2020-01-18T11:28:47Z</time><name>PT4956</name></trkpt>
<trkpt lat="52.873205" lon="-3.383662"><ele>684</ele><time>2020-01-18T11:28:47Z</time><name>PT4957</name></trkpt>
<trkpt lat="52.873206" lon="-3.383665"><ele>684</ele><time>2020-01-18T11:28:49Z</time><name>PT4958</name></trkpt>
<trkpt lat="52.873207" lon="-3.383670"><ele>685</ele><time>2020-01-18T11:28:50Z</time><name>PT4959</name></trkpt>
<trkpt lat="52.873206" lon="-3.383678"><ele>686</ele><time>2020-01-18T11:28:50Z</time><name>PT4960</name></trkpt>
<trkpt lat="52.873205" lon="-3.383684"><ele>687</ele><time>2020-01-18T11:28:51Z</time><name>PT4961</name></trkpt>
<trkpt lat="52.873204" lon="-3.383690"><ele>687</ele><time>2020-01-18T11:28:53Z</time><name>PT4962</name></trkpt>
<trkpt lat="52.873203" lon="-3.383698"><ele>688</ele><time>2020-01-18T11:28:53Z</time><name>PT4963</name></trkpt>
<trkpt lat="52.873200" lon="-3.383712"><ele>688</ele><time>2020-01-18T11:28:54Z</time><name>PT4964</name></trkpt>
<trkpt lat="52.873198" lon="-3.383720"><ele>688</ele><time>2020-01-18T11:28:56Z</time><name>PT4965</name></trkpt>
<trkpt lat="52.873198" lon="-3.383726"><ele>689</ele><time>2020-01-18T11:28:56Z</time><name>PT4966</name></trkpt>
<trkpt lat="52.873199" lon="-3.383733"><ele>689</ele><time>2020-01-18T11:28:57Z</time><name>PT4967</name></trkpt>
<trkpt lat="52.873200" lon="-3.383735"><ele>690</ele><time>2020-01-18T11:29:02Z</time><name>PT4968</name></trkpt>
<trkpt lat="52.873196" lon="-3.383753"><ele>691</ele><time>2020-01-18T11:29:03Z</time><name>PT4969</name></trkpt>
<trkpt lat="52.873195" lon="-3.383767"><ele>691</ele><time>2020-01-18T11:29:05Z</time><name>PT4970</name></trkpt>
<trkpt lat="52.873196" lon="-3.383782"><ele>692</ele><time>2020-01-18T11:29:05Z</time><name>PT4971</name></trkpt>
<trkpt lat="52.873195" lon="-3.383790"><ele>692</ele><time>2020-01-18T11:29:06Z</time><name>PT4972</name></trkpt>
<trkpt lat="52.873195" lon="-3.383794"><ele>692</ele><time>2020-01-18T11:29:08Z</time><name>PT4973</name></trkpt>
<trkpt lat="52.873193" lon="-3.383797"><ele>692</ele><time>2020-01-18T11:29:08Z</time><name>PT4974</name></trkpt>
<trkpt lat="52.873191" lon="-3.383804"><ele>692</ele><time>2020-01-18T11:29:09Z</time><name>PT4975</name></trkpt>
<trkpt lat="52.873194" lon="-3.383810"><ele>692</ele><time>2020-01-18T11:29:11Z</time><name>PT4976</name></trkpt>
<trkpt lat="52.873197" lon="-3.383816"><ele>693</ele><time>2020-01-18T11:29:11Z</time><name>PT4977</name></trkpt>
<trkpt lat="52.873200" lon="-3.383821"><ele>692</ele><time>2020-01-18T11:29:12Z</time><name>PT4978</name></trkpt>
<trkpt lat="52.873203" lon="-3.383826"><ele>692</ele><time>2020-01-18T11:29:17Z</time><name>PT4979</name></trkpt>
<trkpt lat="52.873199" lon="-3.383838"><ele>693</ele><time>2020-01-18T11:29:18Z</time><name>PT4980</name></trkpt>
<trkpt lat="52.873198" lon="-3.383849"><ele>692</ele><time>2020-01-18T11:29:20Z</time><name>PT4981</name></trkpt>
<trkpt lat="52.873193" lon="-3.383863"><ele>692</ele><time>2020-01-18T11:29:20Z</time><name>PT4982</name></trkpt>
<trkpt lat="52.873199" lon="-3.383872"><ele>693</ele><time>2020-01-18T11:29:21Z</time><name>PT4983</name></trkpt>
<trkpt lat="52.873198" lon="-3.383880"><ele>693</ele><time>2020-01-18T11:29:23Z</time><name>PT4984</name></trkpt>
<trkpt lat="52.873197" lon="-3.383878"><ele>692</ele><time>2020-01-18T11:29:23Z</time><name>PT4985</name></trkpt>
<trkpt lat="52.873196" lon="-3.383882"><ele>692</ele><time>2020-01-18T11:29:24Z</time><name>PT4986</name></trkpt>
<trkpt lat="52.873196" lon="-3.383889"><ele>692</ele><time>2020-01-18T11:29:26Z</time><name>PT4987</name></trkpt>
<trkpt lat="52.873196" lon="-3.383897"><ele>691</ele><time>2020-01-18T11:29:26Z</time><name>PT4988</name></trkpt>
<trkpt lat="52.873195" lon="-3.383914"><ele>692</ele><time>2020-01-18T11:29:30Z</time><name>PT4989</name></trkpt>
<trkpt lat="52.873194" lon="-3.383913"><ele>693</ele><time>2020-01-18T11:29:32Z</time><name>PT4990</name></trkpt>
<trkpt lat="52.873194" lon="-3.383914"><ele>693</ele><time>2020-01-18T11:29:32Z</time><name>PT4991</name></trkpt>
<trkpt lat="52.873197" lon="-3.383919"><ele>692</ele><time>2020-01-18T11:29:33Z</time><name>PT4992</name></trkpt>
<trkpt lat="52.873198" lon="-3.383923"><ele>692</ele><time>2020-01-18T11:29:35Z</time><name>PT4993</name></trkpt>
<trkpt lat="52.873203" lon="-3.383932"><ele>692</ele><time>2020-01-18T11:29:35Z</time><name>PT4994</name></trkpt>
<trkpt lat="52.873203" lon="-3.383937"><ele>692</ele><time>2020-01-18T11:29:36Z</time><name>PT4995</name></trkpt>
<trkpt lat="52.873204" lon="-3.383950"><ele>692</ele><time>2020-01-18T11:29:38Z</time><name>PT4996</name></trkpt>
<trkpt lat="52.873203" lon="-3.383955"><ele>693</ele><time>2020-01-18T11:29:38Z</time><name>PT4997</name></trkpt>
<trkpt lat="52.873205" lon="-3.383961"><ele>693</ele><time>2020-01-18T11:29:39Z</time><name>PT4998</name></trkpt>
<trkpt lat="52.873209" lon="-3.383961"><ele>693</ele><time>2020-01-18T11:29:41Z</time><name>PT4999</name></trkpt>
<trkpt lat="52.873212" lon="-3.383965"><ele>693</ele><time>2020-01-18T11:29:41Z</time><name>PT5000</name></trkpt>
<trkpt lat="52.873212" lon="-3.383962"><ele>693</ele><time>2020-01-18T11:29:42Z</time><name>PT5001</name></trkpt>
<trkpt lat="52.873213" lon="-3.383967"><ele>694</ele><time>2020-01-18T11:29:44Z</time><name>PT5002</name></trkpt>
<trkpt lat="52.873212" lon="-3.383971"><ele>693</ele><time>2020-01-18T11:29:44Z</time><name>PT5003</name></trkpt>
<trkpt lat="52.873212" lon="-3.383978"><ele>693</ele><time>2020-01-18T11:29:46Z</time><name>PT5004</name></trkpt>
<trkpt lat="52.873211" lon="-3.383985"><ele>694</ele><time>2020-01-18T11:29:47Z</time><name>PT5005</name></trkpt>
<trkpt lat="52.873214" lon="-3.383992"><ele>694</ele><time>2020-01-18T11:29:48Z</time><name>PT5006</name></trkpt>
<trkpt lat="52.873218" lon="-3.383992"><ele>695</ele><time>2020-01-18T11:29:49Z</time><name>PT5007</name></trkpt>
<trkpt lat="52.873221" lon="-3.383997"><ele>696</ele><time>2020-01-18T11:29:50Z</time><name>PT5008</name></trkpt>
<trkpt lat="52.873220" lon="-3.384002"><ele>696</ele><time>2020-01-18T11:29:51Z</time><name>PT5009</name></trkpt>
<trkpt lat="52.873221" lon="-3.384013"><ele>696</ele><time>2020-01-18T11:29:52Z</time><name>PT5010</name></trkpt>
<trkpt lat="52.873225" lon="-3.384024"><ele>697</ele><time>2020-01-18T11:29:53Z</time><name>PT5011</name></trkpt>
<trkpt lat="52.873227" lon="-3.384030"><ele>697</ele><time>2020-01-18T11:29:54Z</time><name>PT5012</name></trkpt>
<trkpt lat="52.873229" lon="-3.384035"><ele>698</ele><time>2020-01-18T11:29:55Z</time><name>PT5013</name></trkpt>
<trkpt lat="52.873230" lon="-3.384040"><ele>699</ele><time>2020-01-18T11:29:56Z</time><name>PT5014</name></trkpt>
<trkpt lat="52.873227" lon="-3.384050"><ele>699</ele><time>2020-01-18T11:30:06Z</time><name>PT5015</name></trkpt>
<trkpt lat="52.873226" lon="-3.384061"><ele>699</ele><time>2020-01-18T11:30:08Z</time><name>PT5016</name></trkpt>
<trkpt lat="52.873225" lon="-3.384067"><ele>699</ele><time>2020-01-18T11:30:08Z</time><name>PT5017</name></trkpt>
<trkpt lat="52.873225" lon="-3.384072"><ele>699</ele><time>2020-01-18T11:30:09Z</time><name>PT5018</name></trkpt>
<trkpt lat="52.873225" lon="-3.384069"><ele>699</ele><time>2020-01-18T11:30:11Z</time><name>PT5019</name></trkpt>
<trkpt lat="52.873225" lon="-3.384070"><ele>699</ele><time>2020-01-18T11:30:11Z</time><name>PT5020</name></trkpt>
<trkpt lat="52.873225" lon="-3.384073"><ele>700</ele><time>2020-01-18T11:30:13Z</time><name>PT5021</name></trkpt>
<trkpt lat="52.873224" lon="-3.384073"><ele>700</ele><time>2020-01-18T11:30:14Z</time><name>PT5022</name></trkpt>
<trkpt lat="52.873224" lon="-3.384083"><ele>700</ele><time>2020-01-18T11:30:14Z</time><name>PT5023</name></trkpt>
<trkpt lat="52.873224" lon="-3.384093"><ele>699</ele><time>2020-01-18T11:30:15Z</time><name>PT5024</name></trkpt>
<trkpt lat="52.873224" lon="-3.384094"><ele>699</ele><time>2020-01-18T11:30:17Z</time><name>PT5025</name></trkpt>
<trkpt lat="52.873225" lon="-3.384099"><ele>700</ele><time>2020-01-18T11:30:17Z</time><name>PT5026</name></trkpt>
<trkpt lat="52.873226" lon="-3.384107"><ele>700</ele><time>2020-01-18T11:30:18Z</time><name>PT5027</name></trkpt>
<trkpt lat="52.873227" lon="-3.384110"><ele>701</ele><time>2020-01-18T11:30:20Z</time><name>PT5028</name></trkpt>
<trkpt lat="52.873228" lon="-3.384116"><ele>700</ele><time>2020-01-18T11:30:20Z</time><name>PT5029</name></trkpt>
<trkpt lat="52.873231" lon="-3.384125"><ele>700</ele><time>2020-01-18T11:30:21Z</time><name>PT5030</name></trkpt>
<trkpt lat="52.873231" lon="-3.384137"><ele>700</ele><time>2020-01-18T11:30:23Z</time><name>PT5031</name></trkpt>
<trkpt lat="52.873222" lon="-3.384147"><ele>699</ele><time>2020-01-18T11:30:23Z</time><name>PT5032</name></trkpt>
<trkpt lat="52.873219" lon="-3.384160"><ele>698</ele><time>2020-01-18T11:30:24Z</time><name>PT5033</name></trkpt>
<trkpt lat="52.873219" lon="-3.384164"><ele>699</ele><time>2020-01-18T11:30:26Z</time><name>PT5034</name></trkpt>
<trkpt lat="52.873221" lon="-3.384172"><ele>699</ele><time>2020-01-18T11:30:26Z</time><name>PT5035</name></trkpt>
<trkpt lat="52.873227" lon="-3.384176"><ele>700</ele><time>2020-01-18T11:30:27Z</time><name>PT5036</name></trkpt>
<trkpt lat="52.873230" lon="-3.384179"><ele>700</ele><time>2020-01-18T11:30:29Z</time><name>PT5037</name></trkpt>
<trkpt lat="52.873235" lon="-3.384183"><ele>701</ele><time>2020-01-18T11:30:29Z</time><name>PT5038</name></trkpt>
<trkpt lat="52.873238" lon="-3.384192"><ele>702</ele><time>2020-01-18T11:30:30Z</time><name>PT5039</name></trkpt>
<trkpt lat="52.873236" lon="-3.384195"><ele>702</ele><time>2020-01-18T11:30:32Z</time><name>PT5040</name></trkpt>
<trkpt lat="52.873238" lon="-3.384199"><ele>703</ele><time>2020-01-18T11:30:32Z</time><name>PT5041</name></trkpt>
<trkpt lat="52.873240" lon="-3.384207"><ele>704</ele><time>2020-01-18T11:30:33Z</time><name>PT5042</name></trkpt>
<trkpt lat="52.873243" lon="-3.384217"><ele>704</ele><time>2020-01-18T11:30:35Z</time><name>PT5043</name></trkpt>
<trkpt lat="52.873245" lon="-3.384224"><ele>705</ele><time>2020-01-18T11:30:35Z</time><name>PT5044</name></trkpt>
<trkpt lat="52.873247" lon="-3.384230"><ele>705</ele><time>2020-01-18T11:30:36Z</time><name>PT5045</name></trkpt>
<trkpt lat="52.873248" lon="-3.384232"><ele>704</ele><time>2020-01-18T11:30:38Z</time><name>PT5046</name></trkpt>
<trkpt lat="52.873249" lon="-3.384234"><ele>704</ele><time>2020-01-18T11:30:38Z</time><name>PT5047</name></trkpt>
<trkpt lat="52.873248" lon="-3.384246"><ele>705</ele><time>2020-01-18T11:30:43Z</time><name>PT5048</name></trkpt>
<trkpt lat="52.873253" lon="-3.384255"><ele>705</ele><time>2020-01-18T11:30:44Z</time><name>PT5049</name></trkpt>
<trkpt lat="52.873254" lon="-3.384263"><ele>705</ele><time>2020-01-18T11:30:44Z</time><name>PT5050</name></trkpt>
<trkpt lat="52.873258" lon="-3.384273"><ele>705</ele><time>2020-01-18T11:30:45Z</time><name>PT5051</name></trkpt>
<trkpt lat="52.873262" lon="-3.384289"><ele>705</ele><time>2020-01-18T11:30:47Z</time><name>PT5052</name></trkpt>
<trkpt lat="52.873264" lon="-3.384306"><ele>705</ele><time>2020-01-18T11:30:47Z</time><name>PT5053</name></trkpt>
<trkpt lat="52.873266" lon="-3.384318"><ele>705</ele><time>2020-01-18T11:30:49Z</time><name>PT5054</name></trkpt>
<trkpt lat="52.873269" lon="-3.384326"><ele>705</ele><time>2020-01-18T11:30:50Z</time><name>PT5055</name></trkpt>
<trkpt lat="52.873275" lon="-3.384338"><ele>705</ele><time>2020-01-18T11:30:50Z</time><name>PT5056</name></trkpt>
<trkpt lat="52.873282" lon="-3.384346"><ele>705</ele><time>2020-01-18T11:30:52Z</time><name>PT5057</name></trkpt>
<trkpt lat="52.873288" lon="-3.384348"><ele>705</ele><time>2020-01-18T11:30:53Z</time><name>PT5058</name></trkpt>
<trkpt lat="52.873293" lon="-3.384354"><ele>706</ele><time>2020-01-18T11:30:53Z</time><name>PT5059</name></trkpt>
<trkpt lat="52.873299" lon="-3.384355"><ele>706</ele><time>2020-01-18T11:30:54Z</time><name>PT5060</name></trkpt>
<trkpt lat="52.873306" lon="-3.384359"><ele>707</ele><time>2020-01-18T11:30:56Z</time><name>PT5061</name></trkpt>
<trkpt lat="52.873310" lon="-3.384366"><ele>707</ele><time>2020-01-18T11:30:56Z</time><name>PT5062</name></trkpt>
<trkpt lat="52.873315" lon="-3.384379"><ele>707</ele><time>2020-01-18T11:30:57Z</time><name>PT5063</name></trkpt>
<trkpt lat="52.873319" lon="-3.384383"><ele>707</ele><time>2020-01-18T11:30:59Z</time><name>PT5064</name></trkpt>
<trkpt lat="52.873321" lon="-3.384385"><ele>707</ele><time>2020-01-18T11:30:59Z</time><name>PT5065</name></trkpt>
<trkpt lat="52.873322" lon="-3.384392"><ele>708</ele><time>2020-01-18T11:31:00Z</time><name>PT5066</name></trkpt>
<trkpt lat="52.873326" lon="-3.384402"><ele>708</ele><time>2020-01-18T11:31:02Z</time><name>PT5067</name></trkpt>
<trkpt lat="52.873331" lon="-3.384409"><ele>709</ele><time>2020-01-18T11:31:02Z</time><name>PT5068</name></trkpt>
<trkpt lat="52.873333" lon="-3.384417"><ele>709</ele><time>2020-01-18T11:31:03Z</time><name>PT5069</name></trkpt>
<trkpt lat="52.873337" lon="-3.384426"><ele>709</ele><time>2020-01-18T11:31:05Z</time><name>PT5070</name></trkpt>
<trkpt lat="52.873342" lon="-3.384429"><ele>710</ele><time>2020-01-18T11:31:05Z</time><name>PT5071</name></trkpt>
<trkpt lat="52.873344" lon="-3.384438"><ele>710</ele><time>2020-01-18T11:31:06Z</time><name>PT5072</name></trkpt>
<trkpt lat="52.873344" lon="-3.384443"><ele>710</ele><time>2020-01-18T11:31:08Z</time><name>PT5073</name></trkpt>
<trkpt lat="52.873344" lon="-3.384449"><ele>710</ele><time>2020-01-18T11:31:08Z</time><name>PT5074</name></trkpt>
<trkpt lat="52.873346" lon="-3.384457"><ele>711</ele><time>2020-01-18T11:31:09Z</time><name>PT5075</name></trkpt>
<trkpt lat="52.873348" lon="-3.384467"><ele>711</ele><time>2020-01-18T11:31:11Z</time><name>PT5076</name></trkpt>
<trkpt lat="52.873350" lon="-3.384471"><ele>711</ele><time>2020-01-18T11:31:11Z</time><name>PT5077</name></trkpt>
<trkpt lat="52.873351" lon="-3.384482"><ele>712</ele><time>2020-01-18T11:31:12Z</time><name>PT5078</name></trkpt>
<trkpt lat="52.873352" lon="-3.384491"><ele>712</ele><time>2020-01-18T11:31:14Z</time><name>PT5079</name></trkpt>
<trkpt lat="52.873352" lon="-3.384495"><ele>712</ele><time>2020-01-18T11:31:14Z</time><name>PT5080</name></trkpt>
<trkpt lat="52.873354" lon="-3.384503"><ele>712</ele><time>2020-01-18T11:31:15Z</time><name>PT5081</name></trkpt>
<trkpt lat="52.873355" lon="-3.384511"><ele>712</ele><time>2020-01-18T11:31:17Z</time><name>PT5082</name></trkpt>
<trkpt lat="52.873356" lon="-3.384520"><ele>712</ele><time>2020-01-18T11:31:17Z</time><name>PT5083</name></trkpt>
<trkpt lat="52.873358" lon="-3.384526"><ele>712</ele><time>2020-01-18T11:31:18Z</time><name>PT5084</name></trkpt>
<trkpt lat="52.873361" lon="-3.384530"><ele>712</ele><time>2020-01-18T11:31:20Z</time><name>PT5085</name></trkpt>
<trkpt lat="52.873362" lon="-3.384539"><ele>712</ele><time>2020-01-18T11:31:21Z</time><name>PT5086</name></trkpt>
<trkpt lat="52.873371" lon="-3.384544"><ele>712</ele><time>2020-01-18T11:31:23Z</time><name>PT5087</name></trkpt>
<trkpt lat="52.873374" lon="-3.384565"><ele>712</ele><time>2020-01-18T11:31:23Z</time><name>PT5088</name></trkpt>
<trkpt lat="52.873375" lon="-3.384575"><ele>712</ele><time>2020-01-18T11:31:24Z</time><name>PT5089</name></trkpt>
<trkpt lat="52.873378" lon="-3.384589"><ele>711</ele><time>2020-01-18T11:31:26Z</time><name>PT5090</name></trkpt>
<trkpt lat="52.873387" lon="-3.384595"><ele>711</ele><time>2020-01-18T11:31:26Z</time><name>PT5091</name></trkpt>
<trkpt lat="52.873391" lon="-3.384604"><ele>711</ele><time>2020-01-18T11:31:27Z</time><name>PT5092</name></trkpt>
<trkpt lat="52.873393" lon="-3.384612"><ele>711</ele><time>2020-01-18T11:31:29Z</time><name>PT5093</name></trkpt>
<trkpt lat="52.873393" lon="-3.384618"><ele>711</ele><time>2020-01-18T11:31:29Z</time><name>PT5094</name></trkpt>
<trkpt lat="52.873396" lon="-3.384630"><ele>711</ele><time>2020-01-18T11:31:30Z</time><name>PT5095</name></trkpt>
<trkpt lat="52.873397" lon="-3.384644"><ele>711</ele><time>2020-01-18T11:31:32Z</time><name>PT5096</name></trkpt>
<trkpt lat="52.873402" lon="-3.384653"><ele>711</ele><time>2020-01-18T11:31:32Z</time><name>PT5097</name></trkpt>
<trkpt lat="52.873405" lon="-3.384666"><ele>711</ele><time>2020-01-18T11:31:33Z</time><name>PT5098</name></trkpt>
<trkpt lat="52.873406" lon="-3.384675"><ele>711</ele><time>2020-01-18T11:31:35Z</time><name>PT5099</name></trkpt>
<trkpt lat="52.873410" lon="-3.384679"><ele>711</ele><time>2020-01-18T11:31:35Z</time><name>PT5100</name></trkpt>
<trkpt lat="52.873412" lon="-3.384686"><ele>711</ele><time>2020-01-18T11:31:36Z</time><name>PT5101</name></trkpt>
<trkpt lat="52.873424" lon="-3.384686"><ele>713</ele><time>2020-01-18T11:31:38Z</time><name>PT5102</name></trkpt>
<trkpt lat="52.873432" lon="-3.384684"><ele>713</ele><time>2020-01-18T11:31:38Z</time><name>PT5103</name></trkpt>
<trkpt lat="52.873438" lon="-3.384685"><ele>713</ele><time>2020-01-18T11:31:39Z</time><name>PT5104</name></trkpt>
<trkpt lat="52.873447" lon="-3.384686"><ele>713</ele><time>2020-01-18T11:31:41Z</time><name>PT5105</name></trkpt>
<trkpt lat="52.873459" lon="-3.384685"><ele>713</ele><time>2020-01-18T11:31:41Z</time><name>PT5106</name></trkpt>
<trkpt lat="52.873462" lon="-3.384686"><ele>713</ele><time>2020-01-18T11:31:42Z</time><name>PT5107</name></trkpt>
<trkpt lat="52.873471" lon="-3.384690"><ele>713</ele><time>2020-01-18T11:31:44Z</time><name>PT5108</name></trkpt>
<trkpt lat="52.873482" lon="-3.384695"><ele>714</ele><time>2020-01-18T11:31:44Z</time><name>PT5109</name></trkpt>
<trkpt lat="52.873487" lon="-3.384693"><ele>714</ele><time>2020-01-18T11:31:45Z</time><name>PT5110</name></trkpt>
<trkpt lat="52.873494" lon="-3.384693"><ele>714</ele><time>2020-01-18T11:31:47Z</time><name>PT5111</name></trkpt>
<trkpt lat="52.873499" lon="-3.384698"><ele>714</ele><time>2020-01-18T11:31:47Z</time><name>PT5112</name></trkpt>
<trkpt lat="52.873506" lon="-3.384703"><ele>714</ele><time>2020-01-18T11:31:48Z</time><name>PT5113</name></trkpt>
<trkpt lat="52.873513" lon="-3.384708"><ele>714</ele><time>2020-01-18T11:31:50Z</time><name>PT5114</name></trkpt>
<trkpt lat="52.873517" lon="-3.384712"><ele>715</ele><time>2020-01-18T11:31:50Z</time><name>PT5115</name></trkpt>
<trkpt lat="52.873521" lon="-3.384716"><ele>715</ele><time>2020-01-18T11:31:52Z</time><name>PT5116</name></trkpt>
<trkpt lat="52.873528" lon="-3.384720"><ele>715</ele><time>2020-01-18T11:31:53Z</time><name>PT5117</name></trkpt>
<trkpt lat="52.873532" lon="-3.384724"><ele>716</ele><time>2020-01-18T11:31:53Z</time><name>PT5118</name></trkpt>
<trkpt lat="52.873536" lon="-3.384730"><ele>716</ele><time>2020-01-18T11:31:54Z</time><name>PT5119</name></trkpt>
<trkpt lat="52.873539" lon="-3.384737"><ele>716</ele><time>2020-01-18T11:31:56Z</time><name>PT5120</name></trkpt>
<trkpt lat="52.873539" lon="-3.384742"><ele>716</ele><time>2020-01-18T11:31:56Z</time><name>PT5121</name></trkpt>
<trkpt lat="52.873544" lon="-3.384750"><ele>717</ele><time>2020-01-18T11:31:57Z</time><name>PT5122</name></trkpt>
<trkpt lat="52.873547" lon="-3.384757"><ele>717</ele><time>2020-01-18T11:31:59Z</time><name>PT5123</name></trkpt>
<trkpt lat="52.873555" lon="-3.384763"><ele>717</ele><time>2020-01-18T11:31:59Z</time><name>PT5124</name></trkpt>
<trkpt lat="52.873557" lon="-3.384769"><ele>717</ele><time>2020-01-18T11:32:00Z</time><name>PT5125</name></trkpt>
<trkpt lat="52.873558" lon="-3.384770"><ele>717</ele><time>2020-01-18T11:32:02Z</time><name>PT5126</name></trkpt>
<trkpt lat="52.873562" lon="-3.384777"><ele>718</ele><time>2020-01-18T11:32:03Z</time><name>PT5127</name></trkpt>
<trkpt lat="52.873566" lon="-3.384791"><ele>717</ele><time>2020-01-18T11:32:04Z</time><name>PT5128</name></trkpt>
<trkpt lat="52.873566" lon="-3.384799"><ele>717</ele><time>2020-01-18T11:32:05Z</time><name>PT5129</name></trkpt>
<trkpt lat="52.873567" lon="-3.384803"><ele>718</ele><time>2020-01-18T11:32:06Z</time><name>PT5130</name></trkpt>
<trkpt lat="52.873571" lon="-3.384805"><ele>718</ele><time>2020-01-18T11:32:07Z</time><name>PT5131</name></trkpt>
<trkpt lat="52.873575" lon="-3.384809"><ele>718</ele><time>2020-01-18T11:32:08Z</time><name>PT5132</name></trkpt>
<trkpt lat="52.873578" lon="-3.384816"><ele>718</ele><time>2020-01-18T11:32:09Z</time><name>PT5133</name></trkpt>
<trkpt lat="52.873579" lon="-3.384816"><ele>719</ele><time>2020-01-18T11:32:10Z</time><name>PT5134</name></trkpt>
<trkpt lat="52.873582" lon="-3.384825"><ele>719</ele><time>2020-01-18T11:32:11Z</time><name>PT5135</name></trkpt>
<trkpt lat="52.873595" lon="-3.384836"><ele>719</ele><time>2020-01-18T11:32:12Z</time><name>PT5136</name></trkpt>
<trkpt lat="52.873605" lon="-3.384843"><ele>719</ele><time>2020-01-18T11:32:13Z</time><name>PT5137</name></trkpt>
<trkpt lat="52.873609" lon="-3.384854"><ele>720</ele><time>2020-01-18T11:32:14Z</time><name>PT5138</name></trkpt>
<trkpt lat="52.873613" lon="-3.384859"><ele>719</ele><time>2020-01-18T11:32:14Z</time><name>PT5139</name></trkpt>
<trkpt lat="52.873610" lon="-3.384870"><ele>718</ele><time>2020-01-18T11:32:15Z</time><name>PT5140</name></trkpt>
<trkpt lat="52.873617" lon="-3.384878"><ele>719</ele><time>2020-01-18T11:32:17Z</time><name>PT5141</name></trkpt>
<trkpt lat="52.873629" lon="-3.384886"><ele>719</ele><time>2020-01-18T11:32:17Z</time><name>PT5142</name></trkpt>
<trkpt lat="52.873633" lon="-3.384899"><ele>720</ele><time>2020-01-18T11:32:18Z</time><name>PT5143</name></trkpt>
<trkpt lat="52.873633" lon="-3.384910"><ele>720</ele><time>2020-01-18T11:32:20Z</time><name>PT5144</name></trkpt>
<trkpt lat="52.873640" lon="-3.384920"><ele>720</ele><time>2020-01-18T11:32:20Z</time><name>PT5145</name></trkpt>
<trkpt lat="52.873644" lon="-3.384927"><ele>720</ele><time>2020-01-18T11:32:21Z</time><name>PT5146</name></trkpt>
<trkpt lat="52.873647" lon="-3.384936"><ele>720</ele><time>2020-01-18T11:32:23Z</time><name>PT5147</name></trkpt>
<trkpt lat="52.873648" lon="-3.384942"><ele>720</ele><time>2020-01-18T11:32:23Z</time><name>PT5148</name></trkpt>
<trkpt lat="52.873649" lon="-3.384946"><ele>721</ele><time>2020-01-18T11:32:25Z</time><name>PT5149</name></trkpt>
<trkpt lat="52.873653" lon="-3.384953"><ele>720</ele><time>2020-01-18T11:32:26Z</time><name>PT5150</name></trkpt>
<trkpt lat="52.873656" lon="-3.384954"><ele>721</ele><time>2020-01-18T11:32:26Z</time><name>PT5151</name></trkpt>
<trkpt lat="52.873655" lon="-3.384959"><ele>721</ele><time>2020-01-18T11:32:28Z</time><name>PT5152</name></trkpt>
<trkpt lat="52.873657" lon="-3.384965"><ele>721</ele><time>2020-01-18T11:32:29Z</time><name>PT5153</name></trkpt>
<trkpt lat="52.873657" lon="-3.384972"><ele>722</ele><time>2020-01-18T11:32:29Z</time><name>PT5154</name></trkpt>
<trkpt lat="52.873655" lon="-3.384978"><ele>723</ele><time>2020-01-18T11:32:31Z</time><name>PT5155</name></trkpt>
<trkpt lat="52.873648" lon="-3.384984"><ele>722</ele><time>2020-01-18T11:32:32Z</time><name>PT5156</name></trkpt>
<trkpt lat="52.873647" lon="-3.384991"><ele>723</ele><time>2020-01-18T11:32:33Z</time><name>PT5157</name></trkpt>
<trkpt lat="52.873649" lon="-3.384999"><ele>723</ele><time>2020-01-18T11:32:34Z</time><name>PT5158</name></trkpt>
<trkpt lat="52.873653" lon="-3.385006"><ele>724</ele><time>2020-01-18T11:32:35Z</time><name>PT5159</name></trkpt>
<trkpt lat="52.873657" lon="-3.385012"><ele>724</ele><time>2020-01-18T11:32:35Z</time><name>PT5160</name></trkpt>
<trkpt lat="52.873658" lon="-3.385018"><ele>725</ele><time>2020-01-18T11:32:36Z</time><name>PT5161</name></trkpt>
<trkpt lat="52.873657" lon="-3.385027"><ele>725</ele><time>2020-01-18T11:32:38Z</time><name>PT5162</name></trkpt>
<trkpt lat="52.873659" lon="-3.385030"><ele>725</ele><time>2020-01-18T11:32:39Z</time><name>PT5163</name></trkpt>
<trkpt lat="52.873663" lon="-3.385036"><ele>725</ele><time>2020-01-18T11:32:40Z</time><name>PT5164</name></trkpt>
<trkpt lat="52.873664" lon="-3.385039"><ele>725</ele><time>2020-01-18T11:32:41Z</time><name>PT5165</name></trkpt>
<trkpt lat="52.873662" lon="-3.385046"><ele>726</ele><time>2020-01-18T11:32:42Z</time><name>PT5166</name></trkpt>
<trkpt lat="52.873664" lon="-3.385050"><ele>725</ele><time>2020-01-18T11:32:43Z</time><name>PT5167</name></trkpt>
<trkpt lat="52.873662" lon="-3.385056"><ele>725</ele><time>2020-01-18T11:32:44Z</time><name>PT5168</name></trkpt>
<trkpt lat="52.873661" lon="-3.385062"><ele>725</ele><time>2020-01-18T11:32:44Z</time><name>PT5169</name></trkpt>
<trkpt lat="52.873660" lon="-3.385069"><ele>725</ele><time>2020-01-18T11:32:45Z</time><name>PT5170</name></trkpt>
<trkpt lat="52.873660" lon="-3.385071"><ele>725</ele><time>2020-01-18T11:32:48Z</time><name>PT5171</name></trkpt>
<trkpt lat="52.873666" lon="-3.385082"><ele>725</ele><time>2020-01-18T11:32:50Z</time><name>PT5172</name></trkpt>
<trkpt lat="52.873674" lon="-3.385078"><ele>724</ele><time>2020-01-18T11:32:50Z</time><name>PT5173</name></trkpt>
<trkpt lat="52.873681" lon="-3.385082"><ele>724</ele><time>2020-01-18T11:32:51Z</time><name>PT5174</name></trkpt>
<trkpt lat="52.873686" lon="-3.385089"><ele>724</ele><time>2020-01-18T11:32:53Z</time><name>PT5175</name></trkpt>
<trkpt lat="52.873688" lon="-3.385095"><ele>725</ele><time>2020-01-18T11:32:53Z</time><name>PT5176</name></trkpt>
<trkpt lat="52.873691" lon="-3.385098"><ele>724</ele><time>2020-01-18T11:32:54Z</time><name>PT5177</name></trkpt>
<trkpt lat="52.873697" lon="-3.385107"><ele>724</ele><time>2020-01-18T11:32:56Z</time><name>PT5178</name></trkpt>
<trkpt lat="52.873703" lon="-3.385115"><ele>724</ele><time>2020-01-18T11:32:56Z</time><name>PT5179</name></trkpt>
<trkpt lat="52.873708" lon="-3.385113"><ele>724</ele><time>2020-01-18T11:32:57Z</time><name>PT5180</name></trkpt>
<trkpt lat="52.873712" lon="-3.385124"><ele>724</ele><time>2020-01-18T11:32:59Z</time><name>PT5181</name></trkpt>
<trkpt lat="52.873718" lon="-3.385129"><ele>724</ele><time>2020-01-18T11:32:59Z</time><name>PT5182</name></trkpt>
<trkpt lat="52.873721" lon="-3.385127"><ele>725</ele><time>2020-01-18T11:33:00Z</time><name>PT5183</name></trkpt>
<trkpt lat="52.873723" lon="-3.385132"><ele>725</ele><time>2020-01-18T11:33:02Z</time><name>PT5184</name></trkpt>
<trkpt lat="52.873727" lon="-3.385137"><ele>725</ele><time>2020-01-18T11:33:02Z</time><name>PT5185</name></trkpt>
<trkpt lat="52.873734" lon="-3.385140"><ele>725</ele><time>2020-01-18T11:33:03Z</time><name>PT5186</name></trkpt>
<trkpt lat="52.873739" lon="-3.385141"><ele>726</ele><time>2020-01-18T11:33:05Z</time><name>PT5187</name></trkpt>
<trkpt lat="52.873738" lon="-3.385142"><ele>725</ele><time>2020-01-18T11:33:05Z</time><name>PT5188</name></trkpt>
<trkpt lat="52.873738" lon="-3.385148"><ele>724</ele><time>2020-01-18T11:33:06Z</time><name>PT5189</name></trkpt>
<trkpt lat="52.873741" lon="-3.385155"><ele>724</ele><time>2020-01-18T11:33:08Z</time><name>PT5190</name></trkpt>
<trkpt lat="52.873747" lon="-3.385161"><ele>725</ele><time>2020-01-18T11:33:08Z</time><name>PT5191</name></trkpt>
<trkpt lat="52.873752" lon="-3.385167"><ele>725</ele><time>2020-01-18T11:33:09Z</time><name>PT5192</name></trkpt>
<trkpt lat="52.873752" lon="-3.385172"><ele>725</ele><time>2020-01-18T11:33:11Z</time><name>PT5193</name></trkpt>
<trkpt lat="52.873759" lon="-3.385179"><ele>724</ele><time>2020-01-18T11:33:11Z</time><name>PT5194</name></trkpt>
<trkpt lat="52.873766" lon="-3.385187"><ele>725</ele><time>2020-01-18T11:33:12Z</time><name>PT5195</name></trkpt>
<trkpt lat="52.873772" lon="-3.385194"><ele>726</ele><time>2020-01-18T11:33:14Z</time><name>PT5196</name></trkpt>
<trkpt lat="52.873778" lon="-3.385206"><ele>726</ele><time>2020-01-18T11:33:14Z</time><name>PT5197</name></trkpt>
<trkpt lat="52.873781" lon="-3.385214"><ele>726</ele><time>2020-01-18T11:33:15Z</time><name>PT5198</name></trkpt>
<trkpt lat="52.873784" lon="-3.385224"><ele>726</ele><time>2020-01-18T11:33:17Z</time><name>PT5199</name></trkpt>
<trkpt lat="52.873787" lon="-3.385235"><ele>727</ele><time>2020-01-18T11:33:17Z</time><name>PT5200</name></trkpt>
<trkpt lat="52.873794" lon="-3.385244"><ele>727</ele><time>2020-01-18T11:33:18Z</time><name>PT5201</name></trkpt>
<trkpt lat="52.873799" lon="-3.385254"><ele>727</ele><time>2020-01-18T11:33:20Z</time><name>PT5202</name></trkpt>
<trkpt lat="52.873801" lon="-3.385259"><ele>727</ele><time>2020-01-18T11:33:20Z</time><name>PT5203</name></trkpt>
<trkpt lat="52.873805" lon="-3.385264"><ele>727</ele><time>2020-01-18T11:33:21Z</time><name>PT5204</name></trkpt>
<trkpt lat="52.873807" lon="-3.385272"><ele>727</ele><time>2020-01-18T11:33:23Z</time><name>PT5205</name></trkpt>
<trkpt lat="52.873803" lon="-3.385288"><ele>728</ele><time>2020-01-18T11:33:23Z</time><name>PT5206</name></trkpt>
<trkpt lat="52.873806" lon="-3.385303"><ele>728</ele><time>2020-01-18T11:33:24Z</time><name>PT5207</name></trkpt>
<trkpt lat="52.873809" lon="-3.385310"><ele>729</ele><time>2020-01-18T11:33:26Z</time><name>PT5208</name></trkpt>
<trkpt lat="52.873813" lon="-3.385318"><ele>729</ele><time>2020-01-18T11:33:27Z</time><name>PT5209</name></trkpt>
<trkpt lat="52.873822" lon="-3.385321"><ele>729</ele><time>2020-01-18T11:33:28Z</time><name>PT5210</name></trkpt>
<trkpt lat="52.873824" lon="-3.385324"><ele>729</ele><time>2020-01-18T11:33:29Z</time><name>PT5211</name></trkpt>
<trkpt lat="52.873829" lon="-3.385329"><ele>730</ele><time>2020-01-18T11:33:30Z</time><name>PT5212</name></trkpt>
<trkpt lat="52.873830" lon="-3.385338"><ele>731</ele><time>2020-01-18T11:33:31Z</time><name>PT5213</name></trkpt>
<trkpt lat="52.873832" lon="-3.385347"><ele>730</ele><time>2020-01-18T11:33:32Z</time><name>PT5214</name></trkpt>
<trkpt lat="52.873835" lon="-3.385347"><ele>731</ele><time>2020-01-18T11:33:33Z</time><name>PT5215</name></trkpt>
<trkpt lat="52.873834" lon="-3.385343"><ele>730</ele><time>2020-01-18T11:33:34Z</time><name>PT5216</name></trkpt>
<trkpt lat="52.873841" lon="-3.385344"><ele>731</ele><time>2020-01-18T11:33:35Z</time><name>PT5217</name></trkpt>
<trkpt lat="52.873846" lon="-3.385344"><ele>731</ele><time>2020-01-18T11:33:36Z</time><name>PT5218</name></trkpt>
<trkpt lat="52.873849" lon="-3.385343"><ele>731</ele><time>2020-01-18T11:33:37Z</time><name>PT5219</name></trkpt>
<trkpt lat="52.873854" lon="-3.385342"><ele>731</ele><time>2020-01-18T11:33:38Z</time><name>PT5220</name></trkpt>
<trkpt lat="52.873856" lon="-3.385346"><ele>732</ele><time>2020-01-18T11:33:38Z</time><name>PT5221</name></trkpt>
<trkpt lat="52.873856" lon="-3.385357"><ele>732</ele><time>2020-01-18T11:33:39Z</time><name>PT5222</name></trkpt>
<trkpt lat="52.873860" lon="-3.385367"><ele>732</ele><time>2020-01-18T11:33:41Z</time><name>PT5223</name></trkpt>
<trkpt lat="52.873866" lon="-3.385375"><ele>733</ele><time>2020-01-18T11:33:41Z</time><name>PT5224</name></trkpt>
<trkpt lat="52.873870" lon="-3.385382"><ele>733</ele><time>2020-01-18T11:33:42Z</time><name>PT5225</name></trkpt>
<trkpt lat="52.873873" lon="-3.385393"><ele>734</ele><time>2020-01-18T11:33:44Z</time><name>PT5226</name></trkpt>
<trkpt lat="52.873875" lon="-3.385396"><ele>734</ele><time>2020-01-18T11:33:44Z</time><name>PT5227</name></trkpt>
<trkpt lat="52.873879" lon="-3.385399"><ele>735</ele><time>2020-01-18T11:33:45Z</time><name>PT5228</name></trkpt>
<trkpt lat="52.873880" lon="-3.385407"><ele>735</ele><time>2020-01-18T11:33:47Z</time><name>PT5229</name></trkpt>
<trkpt lat="52.873881" lon="-3.385415"><ele>735</ele><time>2020-01-18T11:33:47Z</time><name>PT5230</name></trkpt>
<trkpt lat="52.873883" lon="-3.385424"><ele>735</ele><time>2020-01-18T11:33:49Z</time><name>PT5231</name></trkpt>
<trkpt lat="52.873887" lon="-3.385434"><ele>736</ele><time>2020-01-18T11:33:50Z</time><name>PT5232</name></trkpt>
<trkpt lat="52.873890" lon="-3.385435"><ele>736</ele><time>2020-01-18T11:33:50Z</time><name>PT5233</name></trkpt>
<trkpt lat="52.873896" lon="-3.385446"><ele>737</ele><time>2020-01-18T11:33:52Z</time><name>PT5234</name></trkpt>
<trkpt lat="52.873900" lon="-3.385453"><ele>737</ele><time>2020-01-18T11:33:53Z</time><name>PT5235</name></trkpt>
<trkpt lat="52.873903" lon="-3.385461"><ele>737</ele><time>2020-01-18T11:33:53Z</time><name>PT5236</name></trkpt>
<trkpt lat="52.873905" lon="-3.385465"><ele>737</ele><time>2020-01-18T11:33:54Z</time><name>PT5237</name></trkpt>
<trkpt lat="52.873907" lon="-3.385468"><ele>736</ele><time>2020-01-18T11:33:56Z</time><name>PT5238</name></trkpt>
<trkpt lat="52.873910" lon="-3.385475"><ele>736</ele><time>2020-01-18T11:33:56Z</time><name>PT5239</name></trkpt>
<trkpt lat="52.873914" lon="-3.385482"><ele>736</ele><time>2020-01-18T11:33:57Z</time><name>PT5240</name></trkpt>
<trkpt lat="52.873916" lon="-3.385486"><ele>736</ele><time>2020-01-18T11:33:59Z</time><name>PT5241</name></trkpt>
<trkpt lat="52.873919" lon="-3.385492"><ele>737</ele><time>2020-01-18T11:33:59Z</time><name>PT5242</name></trkpt>
<trkpt lat="52.873915" lon="-3.385499"><ele>737</ele><time>2020-01-18T11:34:01Z</time><name>PT5243</name></trkpt>
<trkpt lat="52.873919" lon="-3.385504"><ele>738</ele><time>2020-01-18T11:34:02Z</time><name>PT5244</name></trkpt>
<trkpt lat="52.873924" lon="-3.385507"><ele>737</ele><time>2020-01-18T11:34:03Z</time><name>PT5245</name></trkpt>
<trkpt lat="52.873926" lon="-3.385515"><ele>739</ele><time>2020-01-18T11:34:04Z</time><name>PT5246</name></trkpt>
<trkpt lat="52.873925" lon="-3.385524"><ele>739</ele><time>2020-01-18T11:34:05Z</time><name>PT5247</name></trkpt>
<trkpt lat="52.873919" lon="-3.385535"><ele>741</ele><time>2020-01-18T11:34:06Z</time><name>PT5248</name></trkpt>
<trkpt lat="52.873921" lon="-3.385538"><ele>740</ele><time>2020-01-18T11:34:07Z</time><name>PT5249</name></trkpt>
<trkpt lat="52.873925" lon="-3.385539"><ele>741</ele><time>2020-01-18T11:34:08Z</time><name>PT5250</name></trkpt>
<trkpt lat="52.873932" lon="-3.385539"><ele>741</ele><time>2020-01-18T11:34:08Z</time><name>PT5251</name></trkpt>
<trkpt lat="52.873961" lon="-3.385533"><ele>742</ele><time>2020-01-18T11:34:09Z</time><name>PT5252</name></trkpt>
<trkpt lat="52.873974" lon="-3.385528"><ele>743</ele><time>2020-01-18T11:34:11Z</time><name>PT5253</name></trkpt>
<trkpt lat="52.873980" lon="-3.385525"><ele>743</ele><time>2020-01-18T11:34:11Z</time><name>PT5254</name></trkpt>
<trkpt lat="52.873983" lon="-3.385516"><ele>743</ele><time>2020-01-18T11:34:12Z</time><name>PT5255</name></trkpt>
<trkpt lat="52.873984" lon="-3.385505"><ele>742</ele><time>2020-01-18T11:34:14Z</time><name>PT5256</name></trkpt>
<trkpt lat="52.873989" lon="-3.385497"><ele>742</ele><time>2020-01-18T11:34:14Z</time><name>PT5257</name></trkpt>
<trkpt lat="52.873994" lon="-3.385491"><ele>741</ele><time>2020-01-18T11:34:16Z</time><name>PT5258</name></trkpt>
<trkpt lat="52.873993" lon="-3.385488"><ele>741</ele><time>2020-01-18T11:34:17Z</time><name>PT5259</name></trkpt>
<trkpt lat="52.873996" lon="-3.385488"><ele>741</ele><time>2020-01-18T11:34:17Z</time><name>PT5260</name></trkpt>
<trkpt lat="52.874004" lon="-3.385486"><ele>741</ele><time>2020-01-18T11:34:18Z</time><name>PT5261</name></trkpt>
<trkpt lat="52.874013" lon="-3.385483"><ele>741</ele><time>2020-01-18T11:34:20Z</time><name>PT5262</name></trkpt>
<trkpt lat="52.874020" lon="-3.385485"><ele>741</ele><time>2020-01-18T11:34:20Z</time><name>PT5263</name></trkpt>
<trkpt lat="52.874029" lon="-3.385486"><ele>741</ele><time>2020-01-18T11:34:22Z</time><name>PT5264</name></trkpt>
<trkpt lat="52.874038" lon="-3.385490"><ele>742</ele><time>2020-01-18T11:34:23Z</time><name>PT5265</name></trkpt>
<trkpt lat="52.874044" lon="-3.385491"><ele>742</ele><time>2020-01-18T11:34:23Z</time><name>PT5266</name></trkpt>
<trkpt lat="52.874052" lon="-3.385493"><ele>742</ele><time>2020-01-18T11:34:24Z</time><name>PT5267</name></trkpt>
<trkpt lat="52.874057" lon="-3.385497"><ele>741</ele><time>2020-01-18T11:34:26Z</time><name>PT5268</name></trkpt>
<trkpt lat="52.874068" lon="-3.385500"><ele>742</ele><time>2020-01-18T11:34:26Z</time><name>PT5269</name></trkpt>
<trkpt lat="52.874077" lon="-3.385502"><ele>742</ele><time>2020-01-18T11:34:27Z</time><name>PT5270</name></trkpt>
<trkpt lat="52.874085" lon="-3.385505"><ele>742</ele><time>2020-01-18T11:34:29Z</time><name>PT5271</name></trkpt>
<trkpt lat="52.874087" lon="-3.385504"><ele>742</ele><time>2020-01-18T11:34:29Z</time><name>PT5272</name></trkpt>
<trkpt lat="52.874093" lon="-3.385506"><ele>742</ele><time>2020-01-18T11:34:30Z</time><name>PT5273</name></trkpt>
<trkpt lat="52.874100" lon="-3.385509"><ele>743</ele><time>2020-01-18T11:34:32Z</time><name>PT5274</name></trkpt>
<trkpt lat="52.874102" lon="-3.385511"><ele>742</ele><time>2020-01-18T11:34:32Z</time><name>PT5275</name></trkpt>
<trkpt lat="52.874109" lon="-3.385514"><ele>743</ele><time>2020-01-18T11:34:33Z</time><name>PT5276</name></trkpt>
<trkpt lat="52.874117" lon="-3.385513"><ele>743</ele><time>2020-01-18T11:34:35Z</time><name>PT5277</name></trkpt>
<trkpt lat="52.874125" lon="-3.385510"><ele>744</ele><time>2020-01-18T11:34:35Z</time><name>PT5278</name></trkpt>
<trkpt lat="52.874130" lon="-3.385508"><ele>745</ele><time>2020-01-18T11:34:36Z</time><name>PT5279</name></trkpt>
<trkpt lat="52.874130" lon="-3.385504"><ele>744</ele><time>2020-01-18T11:34:38Z</time><name>PT5280</name></trkpt>
<trkpt lat="52.874143" lon="-3.385500"><ele>745</ele><time>2020-01-18T11:34:38Z</time><name>PT5281</name></trkpt>
<trkpt lat="52.874150" lon="-3.385497"><ele>745</ele><time>2020-01-18T11:34:39Z</time><name>PT5282</name></trkpt>
<trkpt lat="52.874156" lon="-3.385497"><ele>745</ele><time>2020-01-18T11:34:41Z</time><name>PT5283</name></trkpt>
<trkpt lat="52.874162" lon="-3.385499"><ele>745</ele><time>2020-01-18T11:34:41Z</time><name>PT5284</name></trkpt>
<trkpt lat="52.874164" lon="-3.385500"><ele>745</ele><time>2020-01-18T11:34:42Z</time><name>PT5285</name></trkpt>
<trkpt lat="52.874171" lon="-3.385502"><ele>745</ele><time>2020-01-18T11:34:44Z</time><name>PT5286</name></trkpt>
<trkpt lat="52.874175" lon="-3.385504"><ele>745</ele><time>2020-01-18T11:34:44Z</time><name>PT5287</name></trkpt>
<trkpt lat="52.874179" lon="-3.385504"><ele>745</ele><time>2020-01-18T11:34:45Z</time><name>PT5288</name></trkpt>
<trkpt lat="52.874186" lon="-3.385510"><ele>745</ele><time>2020-01-18T11:34:47Z</time><name>PT5289</name></trkpt>
<trkpt lat="52.874194" lon="-3.385516"><ele>746</ele><time>2020-01-18T11:34:47Z</time><name>PT5290</name></trkpt>
<trkpt lat="52.874203" lon="-3.385511"><ele>748</ele><time>2020-01-18T11:34:48Z</time><name>PT5291</name></trkpt>
<trkpt lat="52.874207" lon="-3.385521"><ele>748</ele><time>2020-01-18T11:34:50Z</time><name>PT5292</name></trkpt>
<trkpt lat="52.874206" lon="-3.385525"><ele>747</ele><time>2020-01-18T11:34:50Z</time><name>PT5293</name></trkpt>
<trkpt lat="52.874215" lon="-3.385528"><ele>748</ele><time>2020-01-18T11:34:51Z</time><name>PT5294</name></trkpt>
<trkpt lat="52.874219" lon="-3.385530"><ele>748</ele><time>2020-01-18T11:34:53Z</time><name>PT5295</name></trkpt>
<trkpt lat="52.874223" lon="-3.385531"><ele>748</ele><time>2020-01-18T11:34:53Z</time><name>PT5296</name></trkpt>
<trkpt lat="52.874221" lon="-3.385532"><ele>748</ele><time>2020-01-18T11:34:54Z</time><name>PT5297</name></trkpt>
<trkpt lat="52.874222" lon="-3.385538"><ele>749</ele><time>2020-01-18T11:34:56Z</time><name>PT5298</name></trkpt>
<trkpt lat="52.874219" lon="-3.385546"><ele>747</ele><time>2020-01-18T11:34:56Z</time><name>PT5299</name></trkpt>
<trkpt lat="52.874219" lon="-3.385551"><ele>748</ele><time>2020-01-18T11:34:58Z</time><name>PT5300</name></trkpt>
<trkpt lat="52.874222" lon="-3.385552"><ele>748</ele><time>2020-01-18T11:34:59Z</time><name>PT5301</name></trkpt>
<trkpt lat="52.874224" lon="-3.385544"><ele>749</ele><time>2020-01-18T11:34:59Z</time><name>PT5302</name></trkpt>
<trkpt lat="52.874228" lon="-3.385544"><ele>749</ele><time>2020-01-18T11:35:01Z</time><name>PT5303</name></trkpt>
<trkpt lat="52.874231" lon="-3.385542"><ele>749</ele><time>2020-01-18T11:35:02Z</time><name>PT5304</name></trkpt>
<trkpt lat="52.874237" lon="-3.385537"><ele>748</ele><time>2020-01-18T11:35:02Z</time><name>PT5305</name></trkpt>
<trkpt lat="52.874246" lon="-3.385528"><ele>749</ele><time>2020-01-18T11:35:03Z</time><name>PT5306</name></trkpt>
<trkpt lat="52.874254" lon="-3.385524"><ele>749</ele><time>2020-01-18T11:35:05Z</time><name>PT5307</name></trkpt>
<trkpt lat="52.874261" lon="-3.385527"><ele>749</ele><time>2020-01-18T11:35:05Z</time><name>PT5308</name></trkpt>
<trkpt lat="52.874262" lon="-3.385530"><ele>749</ele><time>2020-01-18T11:35:06Z</time><name>PT5309</name></trkpt>
<trkpt lat="52.874264" lon="-3.385536"><ele>749</ele><time>2020-01-18T11:35:08Z</time><name>PT5310</name></trkpt>
<trkpt lat="52.874269" lon="-3.385540"><ele>749</ele><time>2020-01-18T11:35:08Z</time><name>PT5311</name></trkpt>
<trkpt lat="52.874270" lon="-3.385540"><ele>749</ele><time>2020-01-18T11:35:09Z</time><name>PT5312</name></trkpt>
<trkpt lat="52.874272" lon="-3.385540"><ele>749</ele><time>2020-01-18T11:35:11Z</time><name>PT5313</name></trkpt>
<trkpt lat="52.874271" lon="-3.385545"><ele>749</ele><time>2020-01-18T11:35:11Z</time><name>PT5314</name></trkpt>
<trkpt lat="52.874272" lon="-3.385551"><ele>750</ele><time>2020-01-18T11:35:13Z</time><name>PT5315</name></trkpt>
<trkpt lat="52.874274" lon="-3.385556"><ele>750</ele><time>2020-01-18T11:35:14Z</time><name>PT5316</name></trkpt>
<trkpt lat="52.874275" lon="-3.385564"><ele>751</ele><time>2020-01-18T11:35:14Z</time><name>PT5317</name></trkpt>
<trkpt lat="52.874277" lon="-3.385569"><ele>751</ele><time>2020-01-18T11:35:15Z</time><name>PT5318</name></trkpt>
<trkpt lat="52.874279" lon="-3.385576"><ele>751</ele><time>2020-01-18T11:35:17Z</time><name>PT5319</name></trkpt>
<trkpt lat="52.874283" lon="-3.385584"><ele>751</ele><time>2020-01-18T11:35:18Z</time><name>PT5320</name></trkpt>
<trkpt lat="52.874285" lon="-3.385588"><ele>751</ele><time>2020-01-18T11:35:19Z</time><name>PT5321</name></trkpt>
<trkpt lat="52.874293" lon="-3.385588"><ele>752</ele><time>2020-01-18T11:35:20Z</time><name>PT5322</name></trkpt>
<trkpt lat="52.874296" lon="-3.385588"><ele>752</ele><time>2020-01-18T11:35:20Z</time><name>PT5323</name></trkpt>
<trkpt lat="52.874305" lon="-3.385591"><ele>753</ele><time>2020-01-18T11:35:22Z</time><name>PT5324</name></trkpt>
<trkpt lat="52.874313" lon="-3.385594"><ele>754</ele><time>2020-01-18T11:35:23Z</time><name>PT5325</name></trkpt>
<trkpt lat="52.874309" lon="-3.385598"><ele>753</ele><time>2020-01-18T11:35:24Z</time><name>PT5326</name></trkpt>
<trkpt lat="52.874312" lon="-3.385604"><ele>753</ele><time>2020-01-18T11:35:25Z</time><name>PT5327</name></trkpt>
<trkpt lat="52.874315" lon="-3.385606"><ele>753</ele><time>2020-01-18T11:35:26Z</time><name>PT5328</name></trkpt>
<trkpt lat="52.874315" lon="-3.385605"><ele>753</ele><time>2020-01-18T11:35:27Z</time><name>PT5329</name></trkpt>
<trkpt lat="52.874319" lon="-3.385608"><ele>752</ele><time>2020-01-18T11:35:28Z</time><name>PT5330</name></trkpt>
<trkpt lat="52.874324" lon="-3.385615"><ele>752</ele><time>2020-01-18T11:35:29Z</time><name>PT5331</name></trkpt>
<trkpt lat="52.874331" lon="-3.385616"><ele>753</ele><time>2020-01-18T11:35:29Z</time><name>PT5332</name></trkpt>
<trkpt lat="52.874339" lon="-3.385620"><ele>753</ele><time>2020-01-18T11:35:30Z</time><name>PT5333</name></trkpt>
<trkpt lat="52.874342" lon="-3.385620"><ele>753</ele><time>2020-01-18T11:35:32Z</time><name>PT5334</name></trkpt>
<trkpt lat="52.874343" lon="-3.385615"><ele>752</ele><time>2020-01-18T11:35:32Z</time><name>PT5335</name></trkpt>
<trkpt lat="52.874344" lon="-3.385617"><ele>752</ele><time>2020-01-18T11:35:33Z</time><name>PT5336</name></trkpt>
<trkpt lat="52.874346" lon="-3.385615"><ele>752</ele><time>2020-01-18T11:35:35Z</time><name>PT5337</name></trkpt>
<trkpt lat="52.874353" lon="-3.385614"><ele>752</ele><time>2020-01-18T11:35:35Z</time><name>PT5338</name></trkpt>
<trkpt lat="52.874357" lon="-3.385606"><ele>753</ele><time>2020-01-18T11:35:36Z</time><name>PT5339</name></trkpt>
<trkpt lat="52.874364" lon="-3.385599"><ele>753</ele><time>2020-01-18T11:35:38Z</time><name>PT5340</name></trkpt>
<trkpt lat="52.874369" lon="-3.385597"><ele>753</ele><time>2020-01-18T11:35:38Z</time><name>PT5341</name></trkpt>
<trkpt lat="52.874374" lon="-3.385598"><ele>754</ele><time>2020-01-18T11:35:39Z</time><name>PT5342</name></trkpt>
<trkpt lat="52.874380" lon="-3.385598"><ele>754</ele><time>2020-01-18T11:35:41Z</time><name>PT5343</name></trkpt>
<trkpt lat="52.874383" lon="-3.385601"><ele>754</ele><time>2020-01-18T11:35:41Z</time><name>PT5344</name></trkpt>
<trkpt lat="52.874389" lon="-3.385605"><ele>754</ele><time>2020-01-18T11:35:42Z</time><name>PT5345</name></trkpt>
<trkpt lat="52.874393" lon="-3.385605"><ele>754</ele><time>2020-01-18T11:35:44Z</time><name>PT5346</name></trkpt>
<trkpt lat="52.874399" lon="-3.385607"><ele>754</ele><time>2020-01-18T11:35:44Z</time><name>PT5347</name></trkpt>
<trkpt lat="52.874405" lon="-3.385609"><ele>755</ele><time>2020-01-18T11:35:45Z</time><name>PT5348</name></trkpt>
<trkpt lat="52.874407" lon="-3.385612"><ele>755</ele><time>2020-01-18T11:35:47Z</time><name>PT5349</name></trkpt>
<trkpt lat="52.874412" lon="-3.385613"><ele>755</ele><time>2020-01-18T11:35:47Z</time><name>PT5350</name></trkpt>
<trkpt lat="52.874417" lon="-3.385615"><ele>755</ele><time>2020-01-18T11:35:48Z</time><name>PT5351</name></trkpt>
<trkpt lat="52.874427" lon="-3.385614"><ele>756</ele><time>2020-01-18T11:35:50Z</time><name>PT5352</name></trkpt>
<trkpt lat="52.874431" lon="-3.385616"><ele>755</ele><time>2020-01-18T11:35:50Z</time><name>PT5353</name></trkpt>
<trkpt lat="52.874443" lon="-3.385617"><ele>757</ele><time>2020-01-18T11:35:51Z</time><name>PT5354</name></trkpt>
<trkpt lat="52.874449" lon="-3.385624"><ele>757</ele><time>2020-01-18T11:35:53Z</time><name>PT5355</name></trkpt>
<trkpt lat="52.874456" lon="-3.385628"><ele>757</ele><time>2020-01-18T11:35:53Z</time><name>PT5356</name></trkpt>
<trkpt lat="52.874465" lon="-3.385621"><ele>757</ele><time>2020-01-18T11:35:56Z</time><name>PT5357</name></trkpt>
<trkpt lat="52.874472" lon="-3.385617"><ele>757</ele><time>2020-01-18T11:35:56Z</time><name>PT5358</name></trkpt>
<trkpt lat="52.874476" lon="-3.385625"><ele>758</ele><time>2020-01-18T11:35:57Z</time><name>PT5359</name></trkpt>
<trkpt lat="52.874476" lon="-3.385648"><ele>757</ele><time>2020-01-18T11:35:59Z</time><name>PT5360</name></trkpt>
<trkpt lat="52.874482" lon="-3.385648"><ele>757</ele><time>2020-01-18T11:35:59Z</time><name>PT5361</name></trkpt>
<trkpt lat="52.874487" lon="-3.385652"><ele>757</ele><time>2020-01-18T11:36:00Z</time><name>PT5362</name></trkpt>
<trkpt lat="52.874490" lon="-3.385656"><ele>757</ele><time>2020-01-18T11:36:02Z</time><name>PT5363</name></trkpt>
<trkpt lat="52.874495" lon="-3.385657"><ele>758</ele><time>2020-01-18T11:36:02Z</time><name>PT5364</name></trkpt>
<trkpt lat="52.874497" lon="-3.385656"><ele>758</ele><time>2020-01-18T11:36:04Z</time><name>PT5365</name></trkpt>
<trkpt lat="52.874504" lon="-3.385654"><ele>758</ele><time>2020-01-18T11:36:05Z</time><name>PT5366</name></trkpt>
<trkpt lat="52.874511" lon="-3.385655"><ele>758</ele><time>2020-01-18T11:36:05Z</time><name>PT5367</name></trkpt>
<trkpt lat="52.874522" lon="-3.385657"><ele>758</ele><time>2020-01-18T11:36:07Z</time><name>PT5368</name></trkpt>
<trkpt lat="52.874529" lon="-3.385662"><ele>759</ele><time>2020-01-18T11:36:08Z</time><name>PT5369</name></trkpt>
<trkpt lat="52.874535" lon="-3.385666"><ele>758</ele><time>2020-01-18T11:36:09Z</time><name>PT5370</name></trkpt>
<trkpt lat="52.874542" lon="-3.385666"><ele>759</ele><time>2020-01-18T11:36:10Z</time><name>PT5371</name></trkpt>
<trkpt lat="52.874548" lon="-3.385669"><ele>759</ele><time>2020-01-18T11:36:11Z</time><name>PT5372</name></trkpt>
<trkpt lat="52.874554" lon="-3.385671"><ele>759</ele><time>2020-01-18T11:36:12Z</time><name>PT5373</name></trkpt>
<trkpt lat="52.874552" lon="-3.385678"><ele>758</ele><time>2020-01-18T11:36:13Z</time><name>PT5374</name></trkpt>
<trkpt lat="52.874558" lon="-3.385684"><ele>758</ele><time>2020-01-18T11:36:14Z</time><name>PT5375</name></trkpt>
<trkpt lat="52.874562" lon="-3.385686"><ele>758</ele><time>2020-01-18T11:36:14Z</time><name>PT5376</name></trkpt>
<trkpt lat="52.874566" lon="-3.385688"><ele>758</ele><time>2020-01-18T11:36:15Z</time><name>PT5377</name></trkpt>
<trkpt lat="52.874573" lon="-3.385694"><ele>759</ele><time>2020-01-18T11:36:17Z</time><name>PT5378</name></trkpt>
<trkpt lat="52.874576" lon="-3.385696"><ele>760</ele><time>2020-01-18T11:36:17Z</time><name>PT5379</name></trkpt>
<trkpt lat="52.874580" lon="-3.385694"><ele>760</ele><time>2020-01-18T11:36:18Z</time><name>PT5380</name></trkpt>
<trkpt lat="52.874585" lon="-3.385691"><ele>760</ele><time>2020-01-18T11:36:20Z</time><name>PT5381</name></trkpt>
<trkpt lat="52.874594" lon="-3.385692"><ele>760</ele><time>2020-01-18T11:36:20Z</time><name>PT5382</name></trkpt>
<trkpt lat="52.874603" lon="-3.385702"><ele>760</ele><time>2020-01-18T11:36:21Z</time><name>PT5383</name></trkpt>
<trkpt lat="52.874607" lon="-3.385707"><ele>761</ele><time>2020-01-18T11:36:23Z</time><name>PT5384</name></trkpt>
<trkpt lat="52.874612" lon="-3.385715"><ele>761</ele><time>2020-01-18T11:36:23Z</time><name>PT5385</name></trkpt>
<trkpt lat="52.874616" lon="-3.385719"><ele>761</ele><time>2020-01-18T11:36:24Z</time><name>PT5386</name></trkpt>
<trkpt lat="52.874620" lon="-3.385718"><ele>761</ele><time>2020-01-18T11:36:26Z</time><name>PT5387</name></trkpt>
<trkpt lat="52.874620" lon="-3.385718"><ele>761</ele><time>2020-01-18T11:36:27Z</time><name>PT5388</name></trkpt>
<trkpt lat="52.874618" lon="-3.385717"><ele>762</ele><time>2020-01-18T11:36:28Z</time><name>PT5389</name></trkpt>
<trkpt lat="52.874618" lon="-3.385719"><ele>763</ele><time>2020-01-18T11:36:29Z</time><name>PT5390</name></trkpt>
<trkpt lat="52.874621" lon="-3.385725"><ele>763</ele><time>2020-01-18T11:36:29Z</time><name>PT5391</name></trkpt>
<trkpt lat="52.874622" lon="-3.385730"><ele>763</ele><time>2020-01-18T11:36:30Z</time><name>PT5392</name></trkpt>
<trkpt lat="52.874623" lon="-3.385734"><ele>763</ele><time>2020-01-18T11:36:32Z</time><name>PT5393</name></trkpt>
<trkpt lat="52.874629" lon="-3.385734"><ele>763</ele><time>2020-01-18T11:36:32Z</time><name>PT5394</name></trkpt>
<trkpt lat="52.874635" lon="-3.385748"><ele>762</ele><time>2020-01-18T11:36:33Z</time><name>PT5395</name></trkpt>
<trkpt lat="52.874639" lon="-3.385749"><ele>763</ele><time>2020-01-18T11:36:35Z</time><name>PT5396</name></trkpt>
<trkpt lat="52.874639" lon="-3.385744"><ele>762</ele><time>2020-01-18T11:36:35Z</time><name>PT5397</name></trkpt>
<trkpt lat="52.874643" lon="-3.385742"><ele>762</ele><time>2020-01-18T11:36:36Z</time><name>PT5398</name></trkpt>
<trkpt lat="52.874651" lon="-3.385739"><ele>762</ele><time>2020-01-18T11:36:38Z</time><name>PT5399</name></trkpt>
<trkpt lat="52.874656" lon="-3.385734"><ele>762</ele><time>2020-01-18T11:36:38Z</time><name>PT5400</name></trkpt>
<trkpt lat="52.874667" lon="-3.385729"><ele>763</ele><time>2020-01-18T11:36:39Z</time><name>PT5401</name></trkpt>
<trkpt lat="52.874670" lon="-3.385727"><ele>763</ele><time>2020-01-18T11:36:41Z</time><name>PT5402</name></trkpt>
<trkpt lat="52.874673" lon="-3.385724"><ele>762</ele><time>2020-01-18T11:36:41Z</time><name>PT5403</name></trkpt>
<trkpt lat="52.874679" lon="-3.385725"><ele>762</ele><time>2020-01-18T11:36:42Z</time><name>PT5404</name></trkpt>
<trkpt lat="52.874682" lon="-3.385725"><ele>762</ele><time>2020-01-18T11:36:44Z</time><name>PT5405</name></trkpt>
<trkpt lat="52.874688" lon="-3.385726"><ele>762</ele><time>2020-01-18T11:36:44Z</time><name>PT5406</name></trkpt>
<trkpt lat="52.874694" lon="-3.385728"><ele>762</ele><time>2020-01-18T11:36:45Z</time><name>PT5407</name></trkpt>
<trkpt lat="52.874697" lon="-3.385728"><ele>762</ele><time>2020-01-18T11:36:47Z</time><name>PT5408</name></trkpt>
<trkpt lat="52.874701" lon="-3.385726"><ele>762</ele><time>2020-01-18T11:36:47Z</time><name>PT5409</name></trkpt>
<trkpt lat="52.874698" lon="-3.385724"><ele>761</ele><time>2020-01-18T11:36:48Z</time><name>PT5410</name></trkpt>
<trkpt lat="52.874705" lon="-3.385724"><ele>762</ele><time>2020-01-18T11:36:50Z</time><name>PT5411</name></trkpt>
<trkpt lat="52.874710" lon="-3.385724"><ele>763</ele><time>2020-01-18T11:36:51Z</time><name>PT5412</name></trkpt>
<trkpt lat="52.874713" lon="-3.385726"><ele>763</ele><time>2020-01-18T11:36:51Z</time><name>PT5413</name></trkpt>
<trkpt lat="52.874715" lon="-3.385727"><ele>763</ele><time>2020-01-18T11:36:53Z</time><name>PT5414</name></trkpt>
<trkpt lat="52.874716" lon="-3.385732"><ele>762</ele><time>2020-01-18T11:36:54Z</time><name>PT5415</name></trkpt>
<trkpt lat="52.874720" lon="-3.385746"><ele>762</ele><time>2020-01-18T11:36:55Z</time><name>PT5416</name></trkpt>
<trkpt lat="52.874729" lon="-3.385755"><ele>763</ele><time>2020-01-18T11:36:56Z</time><name>PT5417</name></trkpt>
<trkpt lat="52.874732" lon="-3.385756"><ele>763</ele><time>2020-01-18T11:36:56Z</time><name>PT5418</name></trkpt>
<trkpt lat="52.874736" lon="-3.385764"><ele>763</ele><time>2020-01-18T11:36:57Z</time><name>PT5419</name></trkpt>
<trkpt lat="52.874741" lon="-3.385766"><ele>763</ele><time>2020-01-18T11:36:59Z</time><name>PT5420</name></trkpt>
<trkpt lat="52.874746" lon="-3.385762"><ele>764</ele><time>2020-01-18T11:36:59Z</time><name>PT5421</name></trkpt>
<trkpt lat="52.874751" lon="-3.385769"><ele>764</ele><time>2020-01-18T11:37:00Z</time><name>PT5422</name></trkpt>
<trkpt lat="52.874756" lon="-3.385774"><ele>764</ele><time>2020-01-18T11:37:02Z</time><name>PT5423</name></trkpt>
<trkpt lat="52.874758" lon="-3.385776"><ele>764</ele><time>2020-01-18T11:37:02Z</time><name>PT5424</name></trkpt>
<trkpt lat="52.874762" lon="-3.385781"><ele>764</ele><time>2020-01-18T11:37:03Z</time><name>PT5425</name></trkpt>
<trkpt lat="52.874766" lon="-3.385785"><ele>765</ele><time>2020-01-18T11:37:05Z</time><name>PT5426</name></trkpt>
<trkpt lat="52.874770" lon="-3.385788"><ele>765</ele><time>2020-01-18T11:37:05Z</time><name>PT5427</name></trkpt>
<trkpt lat="52.874773" lon="-3.385792"><ele>766</ele><time>2020-01-18T11:37:07Z</time><name>PT5428</name></trkpt>
<trkpt lat="52.874776" lon="-3.385783"><ele>766</ele><time>2020-01-18T11:37:09Z</time><name>PT5429</name></trkpt>
<trkpt lat="52.874780" lon="-3.385787"><ele>765</ele><time>2020-01-18T11:37:10Z</time><name>PT5430</name></trkpt>
<trkpt lat="52.874781" lon="-3.385786"><ele>765</ele><time>2020-01-18T11:37:11Z</time><name>PT5431</name></trkpt>
<trkpt lat="52.874787" lon="-3.385785"><ele>765</ele><time>2020-01-18T11:37:11Z</time><name>PT5432</name></trkpt>
<trkpt lat="52.874793" lon="-3.385779"><ele>765</ele><time>2020-01-18T11:37:14Z</time><name>PT5433</name></trkpt>
<trkpt lat="52.874799" lon="-3.385787"><ele>765</ele><time>2020-01-18T11:37:14Z</time><name>PT5434</name></trkpt>
<trkpt lat="52.874802" lon="-3.385789"><ele>765</ele><time>2020-01-18T11:37:15Z</time><name>PT5435</name></trkpt>
<trkpt lat="52.874809" lon="-3.385791"><ele>765</ele><time>2020-01-18T11:37:17Z</time><name>PT5436</name></trkpt>
<trkpt lat="52.874810" lon="-3.385795"><ele>765</ele><time>2020-01-18T11:37:17Z</time><name>PT5437</name></trkpt>
<trkpt lat="52.874811" lon="-3.385804"><ele>766</ele><time>2020-01-18T11:37:18Z</time><name>PT5438</name></trkpt>
<trkpt lat="52.874813" lon="-3.385810"><ele>766</ele><time>2020-01-18T11:37:20Z</time><name>PT5439</name></trkpt>
<trkpt lat="52.874816" lon="-3.385807"><ele>766</ele><time>2020-01-18T11:37:20Z</time><name>PT5440</name></trkpt>
<trkpt lat="52.874822" lon="-3.385805"><ele>766</ele><time>2020-01-18T11:37:22Z</time><name>PT5441</name></trkpt>
<trkpt lat="52.874830" lon="-3.385813"><ele>766</ele><time>2020-01-18T11:37:23Z</time><name>PT5442</name></trkpt>
<trkpt lat="52.874830" lon="-3.385814"><ele>765</ele><time>2020-01-18T11:37:23Z</time><name>PT5443</name></trkpt>
<trkpt lat="52.874839" lon="-3.385816"><ele>766</ele><time>2020-01-18T11:37:24Z</time><name>PT5444</name></trkpt>
<trkpt lat="52.874839" lon="-3.385819"><ele>766</ele><time>2020-01-18T11:37:26Z</time><name>PT5445</name></trkpt>
<trkpt lat="52.874845" lon="-3.385825"><ele>766</ele><time>2020-01-18T11:37:26Z</time><name>PT5446</name></trkpt>
<trkpt lat="52.874851" lon="-3.385829"><ele>766</ele><time>2020-01-18T11:37:27Z</time><name>PT5447</name></trkpt>
<trkpt lat="52.874858" lon="-3.385830"><ele>766</ele><time>2020-01-18T11:37:29Z</time><name>PT5448</name></trkpt>
<trkpt lat="52.874864" lon="-3.385832"><ele>766</ele><time>2020-01-18T11:37:29Z</time><name>PT5449</name></trkpt>
<trkpt lat="52.874871" lon="-3.385839"><ele>767</ele><time>2020-01-18T11:37:30Z</time><name>PT5450</name></trkpt>
<trkpt lat="52.874872" lon="-3.385846"><ele>768</ele><time>2020-01-18T11:37:32Z</time><name>PT5451</name></trkpt>
<trkpt lat="52.874870" lon="-3.385847"><ele>768</ele><time>2020-01-18T11:37:32Z</time><name>PT5452</name></trkpt>
<trkpt lat="52.874877" lon="-3.385847"><ele>769</ele><time>2020-01-18T11:37:33Z</time><name>PT5453</name></trkpt>
<trkpt lat="52.874878" lon="-3.385850"><ele>769</ele><time>2020-01-18T11:37:35Z</time><name>PT5454</name></trkpt>
<trkpt lat="52.874886" lon="-3.385855"><ele>770</ele><time>2020-01-18T11:37:35Z</time><name>PT5455</name></trkpt>
<trkpt lat="52.874890" lon="-3.385864"><ele>770</ele><time>2020-01-18T11:37:36Z</time><name>PT5456</name></trkpt>
<trkpt lat="52.874893" lon="-3.385868"><ele>770</ele><time>2020-01-18T11:37:38Z</time><name>PT5457</name></trkpt>
<trkpt lat="52.874897" lon="-3.385871"><ele>770</ele><time>2020-01-18T11:37:38Z</time><name>PT5458</name></trkpt>
<trkpt lat="52.874901" lon="-3.385869"><ele>771</ele><time>2020-01-18T11:37:39Z</time><name>PT5459</name></trkpt>
<trkpt lat="52.874901" lon="-3.385866"><ele>771</ele><time>2020-01-18T11:37:41Z</time><name>PT5460</name></trkpt>
<trkpt lat="52.874905" lon="-3.385873"><ele>772</ele><time>2020-01-18T11:37:42Z</time><name>PT5461</name></trkpt>
<trkpt lat="52.874909" lon="-3.385881"><ele>771</ele><time>2020-01-18T11:37:44Z</time><name>PT5462</name></trkpt>
<trkpt lat="52.874913" lon="-3.385885"><ele>771</ele><time>2020-01-18T11:37:44Z</time><name>PT5463</name></trkpt>
<trkpt lat="52.874915" lon="-3.385889"><ele>772</ele><time>2020-01-18T11:37:46Z</time><name>PT5464</name></trkpt>
<trkpt lat="52.874918" lon="-3.385889"><ele>772</ele><time>2020-01-18T11:37:47Z</time><name>PT5465</name></trkpt>
<trkpt lat="52.874921" lon="-3.385887"><ele>772</ele><time>2020-01-18T11:37:47Z</time><name>PT5466</name></trkpt>
<trkpt lat="52.874927" lon="-3.385892"><ele>773</ele><time>2020-01-18T11:37:48Z</time><name>PT5467</name></trkpt>
<trkpt lat="52.874932" lon="-3.385899"><ele>773</ele><time>2020-01-18T11:37:50Z</time><name>PT5468</name></trkpt>
<trkpt lat="52.874936" lon="-3.385897"><ele>773</ele><time>2020-01-18T11:37:50Z</time><name>PT5469</name></trkpt>
<trkpt lat="52.874935" lon="-3.385898"><ele>773</ele><time>2020-01-18T11:37:52Z</time><name>PT5470</name></trkpt>
<trkpt lat="52.874934" lon="-3.385900"><ele>772</ele><time>2020-01-18T11:37:53Z</time><name>PT5471</name></trkpt>
<trkpt lat="52.874938" lon="-3.385907"><ele>772</ele><time>2020-01-18T11:37:53Z</time><name>PT5472</name></trkpt>
<trkpt lat="52.874941" lon="-3.385911"><ele>773</ele><time>2020-01-18T11:37:54Z</time><name>PT5473</name></trkpt>
<trkpt lat="52.874943" lon="-3.385916"><ele>773</ele><time>2020-01-18T11:37:56Z</time><name>PT5474</name></trkpt>
<trkpt lat="52.874947" lon="-3.385919"><ele>772</ele><time>2020-01-18T11:37:56Z</time><name>PT5475</name></trkpt>
<trkpt lat="52.874948" lon="-3.385923"><ele>772</ele><time>2020-01-18T11:37:57Z</time><name>PT5476</name></trkpt>
<trkpt lat="52.874952" lon="-3.385926"><ele>773</ele><time>2020-01-18T11:37:59Z</time><name>PT5477</name></trkpt>
<trkpt lat="52.874956" lon="-3.385927"><ele>773</ele><time>2020-01-18T11:37:59Z</time><name>PT5478</name></trkpt>
<trkpt lat="52.874953" lon="-3.385927"><ele>772</ele><time>2020-01-18T11:38:00Z</time><name>PT5479</name></trkpt>
<trkpt lat="52.874956" lon="-3.385931"><ele>772</ele><time>2020-01-18T11:38:02Z</time><name>PT5480</name></trkpt>
<trkpt lat="52.874960" lon="-3.385934"><ele>773</ele><time>2020-01-18T11:38:02Z</time><name>PT5481</name></trkpt>
<trkpt lat="52.874961" lon="-3.385938"><ele>773</ele><time>2020-01-18T11:38:04Z</time><name>PT5482</name></trkpt>
<trkpt lat="52.874965" lon="-3.385943"><ele>773</ele><time>2020-01-18T11:38:05Z</time><name>PT5483</name></trkpt>
<trkpt lat="52.874967" lon="-3.385945"><ele>773</ele><time>2020-01-18T11:38:05Z</time><name>PT5484</name></trkpt>
<trkpt lat="52.874971" lon="-3.385947"><ele>774</ele><time>2020-01-18T11:38:07Z</time><name>PT5485</name></trkpt>
<trkpt lat="52.874975" lon="-3.385948"><ele>774</ele><time>2020-01-18T11:38:08Z</time><name>PT5486</name></trkpt>
<trkpt lat="52.874981" lon="-3.385950"><ele>775</ele><time>2020-01-18T11:38:08Z</time><name>PT5487</name></trkpt>
<trkpt lat="52.874986" lon="-3.385953"><ele>775</ele><time>2020-01-18T11:38:09Z</time><name>PT5488</name></trkpt>
<trkpt lat="52.874992" lon="-3.385960"><ele>775</ele><time>2020-01-18T11:38:11Z</time><name>PT5489</name></trkpt>
<trkpt lat="52.874997" lon="-3.385964"><ele>775</ele><time>2020-01-18T11:38:11Z</time><name>PT5490</name></trkpt>
<trkpt lat="52.875002" lon="-3.385970"><ele>776</ele><time>2020-01-18T11:38:12Z</time><name>PT5491</name></trkpt>
<trkpt lat="52.875007" lon="-3.385976"><ele>776</ele><time>2020-01-18T11:38:14Z</time><name>PT5492</name></trkpt>
<trkpt lat="52.875009" lon="-3.385982"><ele>776</ele><time>2020-01-18T11:38:14Z</time><name>PT5493</name></trkpt>
<trkpt lat="52.875016" lon="-3.385988"><ele>776</ele><time>2020-01-18T11:38:15Z</time><name>PT5494</name></trkpt>
<trkpt lat="52.875018" lon="-3.385989"><ele>776</ele><time>2020-01-18T11:38:17Z</time><name>PT5495</name></trkpt>
<trkpt lat="52.875023" lon="-3.385985"><ele>776</ele><time>2020-01-18T11:38:17Z</time><name>PT5496</name></trkpt>
<trkpt lat="52.875032" lon="-3.385986"><ele>777</ele><time>2020-01-18T11:38:19Z</time><name>PT5497</name></trkpt>
<trkpt lat="52.875035" lon="-3.385985"><ele>777</ele><time>2020-01-18T11:38:20Z</time><name>PT5498</name></trkpt>
<trkpt lat="52.875037" lon="-3.385985"><ele>777</ele><time>2020-01-18T11:38:20Z</time><name>PT5499</name></trkpt>
<trkpt lat="52.875044" lon="-3.385988"><ele>777</ele><time>2020-01-18T11:38:22Z</time><name>PT5500</name></trkpt>
<trkpt lat="52.875048" lon="-3.385989"><ele>777</ele><time>2020-01-18T11:38:23Z</time><name>PT5501</name></trkpt>
<trkpt lat="52.875052" lon="-3.385988"><ele>778</ele><time>2020-01-18T11:38:24Z</time><name>PT5502</name></trkpt>
<trkpt lat="52.875054" lon="-3.385987"><ele>778</ele><time>2020-01-18T11:38:25Z</time><name>PT5503</name></trkpt>
<trkpt lat="52.875060" lon="-3.385987"><ele>778</ele><time>2020-01-18T11:38:26Z</time><name>PT5504</name></trkpt>
<trkpt lat="52.875067" lon="-3.385987"><ele>779</ele><time>2020-01-18T11:38:27Z</time><name>PT5505</name></trkpt>
<trkpt lat="52.875067" lon="-3.385988"><ele>779</ele><time>2020-01-18T11:38:27Z</time><name>PT5506</name></trkpt>
<trkpt lat="52.875070" lon="-3.385996"><ele>779</ele><time>2020-01-18T11:38:29Z</time><name>PT5507</name></trkpt>
<trkpt lat="52.875073" lon="-3.385994"><ele>779</ele><time>2020-01-18T11:38:29Z</time><name>PT5508</name></trkpt>
<trkpt lat="52.875076" lon="-3.385995"><ele>780</ele><time>2020-01-18T11:38:30Z</time><name>PT5509</name></trkpt>
<trkpt lat="52.875081" lon="-3.386001"><ele>780</ele><time>2020-01-18T11:38:32Z</time><name>PT5510</name></trkpt>
<trkpt lat="52.875087" lon="-3.386003"><ele>781</ele><time>2020-01-18T11:38:32Z</time><name>PT5511</name></trkpt>
<trkpt lat="52.875089" lon="-3.386006"><ele>781</ele><time>2020-01-18T11:38:33Z</time><name>PT5512</name></trkpt>
<trkpt lat="52.875094" lon="-3.386007"><ele>781</ele><time>2020-01-18T11:38:35Z</time><name>PT5513</name></trkpt>
<trkpt lat="52.875097" lon="-3.386007"><ele>781</ele><time>2020-01-18T11:38:35Z</time><name>PT5514</name></trkpt>
<trkpt lat="52.875101" lon="-3.386009"><ele>781</ele><time>2020-01-18T11:38:36Z</time><name>PT5515</name></trkpt>
<trkpt lat="52.875104" lon="-3.386015"><ele>782</ele><time>2020-01-18T11:38:42Z</time><name>PT5516</name></trkpt>
<trkpt lat="52.875109" lon="-3.386020"><ele>782</ele><time>2020-01-18T11:38:44Z</time><name>PT5517</name></trkpt>
<trkpt lat="52.875114" lon="-3.386025"><ele>782</ele><time>2020-01-18T11:38:44Z</time><name>PT5518</name></trkpt>
<trkpt lat="52.875125" lon="-3.386033"><ele>782</ele><time>2020-01-18T11:38:45Z</time><name>PT5519</name></trkpt>
<trkpt lat="52.875131" lon="-3.386043"><ele>781</ele><time>2020-01-18T11:38:47Z</time><name>PT5520</name></trkpt>
<trkpt lat="52.875137" lon="-3.386051"><ele>781</ele><time>2020-01-18T11:38:47Z</time><name>PT5521</name></trkpt>
<trkpt lat="52.875148" lon="-3.386057"><ele>781</ele><time>2020-01-18T11:38:48Z</time><name>PT5522</name></trkpt>
<trkpt lat="52.875154" lon="-3.386067"><ele>782</ele><time>2020-01-18T11:38:50Z</time><name>PT5523</name></trkpt>
<trkpt lat="52.875158" lon="-3.386071"><ele>782</ele><time>2020-01-18T11:38:50Z</time><name>PT5524</name></trkpt>
<trkpt lat="52.875162" lon="-3.386078"><ele>782</ele><time>2020-01-18T11:38:51Z</time><name>PT5525</name></trkpt>
<trkpt lat="52.875166" lon="-3.386088"><ele>782</ele><time>2020-01-18T11:38:53Z</time><name>PT5526</name></trkpt>
<trkpt lat="52.875170" lon="-3.386097"><ele>783</ele><time>2020-01-18T11:38:54Z</time><name>PT5527</name></trkpt>
<trkpt lat="52.875177" lon="-3.386106"><ele>783</ele><time>2020-01-18T11:38:54Z</time><name>PT5528</name></trkpt>
<trkpt lat="52.875181" lon="-3.386112"><ele>784</ele><time>2020-01-18T11:38:56Z</time><name>PT5529</name></trkpt>
<trkpt lat="52.875185" lon="-3.386115"><ele>784</ele><time>2020-01-18T11:38:56Z</time><name>PT5530</name></trkpt>
<trkpt lat="52.875188" lon="-3.386115"><ele>784</ele><time>2020-01-18T11:38:58Z</time><name>PT5531</name></trkpt>
<trkpt lat="52.875191" lon="-3.386117"><ele>784</ele><time>2020-01-18T11:38:59Z</time><name>PT5532</name></trkpt>
<trkpt lat="52.875197" lon="-3.386107"><ele>784</ele><time>2020-01-18T11:39:08Z</time><name>PT5533</name></trkpt>
<trkpt lat="52.875201" lon="-3.386115"><ele>785</ele><time>2020-01-18T11:39:08Z</time><name>PT5534</name></trkpt>
<trkpt lat="52.875210" lon="-3.386114"><ele>785</ele><time>2020-01-18T11:39:09Z</time><name>PT5535</name></trkpt>
<trkpt lat="52.875218" lon="-3.386128"><ele>786</ele><time>2020-01-18T11:39:11Z</time><name>PT5536</name></trkpt>
<trkpt lat="52.875223" lon="-3.386132"><ele>785</ele><time>2020-01-18T11:39:11Z</time><name>PT5537</name></trkpt>
<trkpt lat="52.875228" lon="-3.386134"><ele>785</ele><time>2020-01-18T11:39:12Z</time><name>PT5538</name></trkpt>
<trkpt lat="52.875235" lon="-3.386133"><ele>785</ele><time>2020-01-18T11:39:14Z</time><name>PT5539</name></trkpt>
<trkpt lat="52.875241" lon="-3.386137"><ele>785</ele><time>2020-01-18T11:39:14Z</time><name>PT5540</name></trkpt>
<trkpt lat="52.875244" lon="-3.386139"><ele>785</ele><time>2020-01-18T11:39:15Z</time><name>PT5541</name></trkpt>
<trkpt lat="52.875251" lon="-3.386144"><ele>785</ele><time>2020-01-18T11:39:17Z</time><name>PT5542</name></trkpt>
<trkpt lat="52.875254" lon="-3.386149"><ele>785</ele><time>2020-01-18T11:39:18Z</time><name>PT5543</name></trkpt>
<trkpt lat="52.875267" lon="-3.386153"><ele>786</ele><time>2020-01-18T11:39:20Z</time><name>PT5544</name></trkpt>
<trkpt lat="52.875274" lon="-3.386153"><ele>786</ele><time>2020-01-18T11:39:20Z</time><name>PT5545</name></trkpt>
<trkpt lat="52.875282" lon="-3.386155"><ele>786</ele><time>2020-01-18T11:39:21Z</time><name>PT5546</name></trkpt>
<trkpt lat="52.875290" lon="-3.386154"><ele>787</ele><time>2020-01-18T11:39:23Z</time><name>PT5547</name></trkpt>
<trkpt lat="52.875300" lon="-3.386150"><ele>787</ele><time>2020-01-18T11:39:30Z</time><name>PT5548</name></trkpt>
<trkpt lat="52.875315" lon="-3.386161"><ele>788</ele><time>2020-01-18T11:39:32Z</time><name>PT5549</name></trkpt>
<trkpt lat="52.875323" lon="-3.386169"><ele>788</ele><time>2020-01-18T11:39:32Z</time><name>PT5550</name></trkpt>
<trkpt lat="52.875331" lon="-3.386167"><ele>788</ele><time>2020-01-18T11:39:33Z</time><name>PT5551</name></trkpt>
<trkpt lat="52.875337" lon="-3.386164"><ele>788</ele><time>2020-01-18T11:39:35Z</time><name>PT5552</name></trkpt>
<trkpt lat="52.875346" lon="-3.386166"><ele>788</ele><time>2020-01-18T11:39:35Z</time><name>PT5553</name></trkpt>
<trkpt lat="52.875349" lon="-3.386175"><ele>788</ele><time>2020-01-18T11:39:36Z</time><name>PT5554</name></trkpt>
<trkpt lat="52.875357" lon="-3.386179"><ele>788</ele><time>2020-01-18T11:39:38Z</time><name>PT5555</name></trkpt>
<trkpt lat="52.875365" lon="-3.386183"><ele>788</ele><time>2020-01-18T11:39:38Z</time><name>PT5556</name></trkpt>
<trkpt lat="52.875375" lon="-3.386189"><ele>789</ele><time>2020-01-18T11:39:39Z</time><name>PT5557</name></trkpt>
<trkpt lat="52.875380" lon="-3.386191"><ele>790</ele><time>2020-01-18T11:39:41Z</time><name>PT5558</name></trkpt>
<trkpt lat="52.875386" lon="-3.386187"><ele>790</ele><time>2020-01-18T11:39:42Z</time><name>PT5559</name></trkpt>
<trkpt lat="52.875388" lon="-3.386185"><ele>790</ele><time>2020-01-18T11:39:43Z</time><name>PT5560</name></trkpt>
<trkpt lat="52.875383" lon="-3.386185"><ele>789</ele><time>2020-01-18T11:39:44Z</time><name>PT5561</name></trkpt>
<trkpt lat="52.875388" lon="-3.386187"><ele>789</ele><time>2020-01-18T11:39:45Z</time><name>PT5562</name></trkpt>
<trkpt lat="52.875392" lon="-3.386186"><ele>789</ele><time>2020-01-18T11:39:46Z</time><name>PT5563</name></trkpt>
<trkpt lat="52.875400" lon="-3.386191"><ele>789</ele><time>2020-01-18T11:39:47Z</time><name>PT5564</name></trkpt>
<trkpt lat="52.875399" lon="-3.386207"><ele>788</ele><time>2020-01-18T11:39:47Z</time><name>PT5565</name></trkpt>
<trkpt lat="52.875403" lon="-3.386216"><ele>788</ele><time>2020-01-18T11:39:48Z</time><name>PT5566</name></trkpt>
<trkpt lat="52.875408" lon="-3.386222"><ele>788</ele><time>2020-01-18T11:39:50Z</time><name>PT5567</name></trkpt>
<trkpt lat="52.875419" lon="-3.386224"><ele>789</ele><time>2020-01-18T11:39:50Z</time><name>PT5568</name></trkpt>
<trkpt lat="52.875426" lon="-3.386223"><ele>789</ele><time>2020-01-18T11:39:51Z</time><name>PT5569</name></trkpt>
<trkpt lat="52.875434" lon="-3.386233"><ele>790</ele><time>2020-01-18T11:39:53Z</time><name>PT5570</name></trkpt>
<trkpt lat="52.875439" lon="-3.386232"><ele>790</ele><time>2020-01-18T11:39:53Z</time><name>PT5571</name></trkpt>
<trkpt lat="52.875446" lon="-3.386235"><ele>789</ele><time>2020-01-18T11:39:54Z</time><name>PT5572</name></trkpt>
<trkpt lat="52.875450" lon="-3.386240"><ele>790</ele><time>2020-01-18T11:39:56Z</time><name>PT5573</name></trkpt>
<trkpt lat="52.875455" lon="-3.386241"><ele>790</ele><time>2020-01-18T11:39:56Z</time><name>PT5574</name></trkpt>
<trkpt lat="52.875456" lon="-3.386243"><ele>790</ele><time>2020-01-18T11:39:57Z</time><name>PT5575</name></trkpt>
<trkpt lat="52.875460" lon="-3.386252"><ele>791</ele><time>2020-01-18T11:39:59Z</time><name>PT5576</name></trkpt>
<trkpt lat="52.875464" lon="-3.386252"><ele>791</ele><time>2020-01-18T11:39:59Z</time><name>PT5577</name></trkpt>
<trkpt lat="52.875469" lon="-3.386253"><ele>791</ele><time>2020-01-18T11:40:00Z</time><name>PT5578</name></trkpt>
<trkpt lat="52.875476" lon="-3.386261"><ele>792</ele><time>2020-01-18T11:40:02Z</time><name>PT5579</name></trkpt>
<trkpt lat="52.875483" lon="-3.386258"><ele>792</ele><time>2020-01-18T11:40:02Z</time><name>PT5580</name></trkpt>
<trkpt lat="52.875489" lon="-3.386255"><ele>793</ele><time>2020-01-18T11:40:04Z</time><name>PT5581</name></trkpt>
<trkpt lat="52.875499" lon="-3.386254"><ele>793</ele><time>2020-01-18T11:40:05Z</time><name>PT5582</name></trkpt>
<trkpt lat="52.875504" lon="-3.386255"><ele>793</ele><time>2020-01-18T11:40:05Z</time><name>PT5583</name></trkpt>
<trkpt lat="52.875511" lon="-3.386259"><ele>793</ele><time>2020-01-18T11:40:06Z</time><name>PT5584</name></trkpt>
<trkpt lat="52.875523" lon="-3.386263"><ele>794</ele><time>2020-01-18T11:40:08Z</time><name>PT5585</name></trkpt>
<trkpt lat="52.875532" lon="-3.386266"><ele>794</ele><time>2020-01-18T11:40:08Z</time><name>PT5586</name></trkpt>
<trkpt lat="52.875538" lon="-3.386266"><ele>795</ele><time>2020-01-18T11:40:09Z</time><name>PT5587</name></trkpt>
<trkpt lat="52.875544" lon="-3.386263"><ele>795</ele><time>2020-01-18T11:40:11Z</time><name>PT5588</name></trkpt>
<trkpt lat="52.875549" lon="-3.386260"><ele>795</ele><time>2020-01-18T11:40:12Z</time><name>PT5589</name></trkpt>
<trkpt lat="52.875552" lon="-3.386262"><ele>795</ele><time>2020-01-18T11:40:13Z</time><name>PT5590</name></trkpt>
<trkpt lat="52.875555" lon="-3.386269"><ele>795</ele><time>2020-01-18T11:40:14Z</time><name>PT5591</name></trkpt>
<trkpt lat="52.875558" lon="-3.386273"><ele>796</ele><time>2020-01-18T11:40:14Z</time><name>PT5592</name></trkpt>
<trkpt lat="52.875563" lon="-3.386277"><ele>796</ele><time>2020-01-18T11:40:16Z</time><name>PT5593</name></trkpt>
<trkpt lat="52.875569" lon="-3.386281"><ele>796</ele><time>2020-01-18T11:40:17Z</time><name>PT5594</name></trkpt>
<trkpt lat="52.875577" lon="-3.386284"><ele>796</ele><time>2020-01-18T11:40:17Z</time><name>PT5595</name></trkpt>
<trkpt lat="52.875586" lon="-3.386286"><ele>797</ele><time>2020-01-18T11:40:18Z</time><name>PT5596</name></trkpt>
<trkpt lat="52.875586" lon="-3.386285"><ele>796</ele><time>2020-01-18T11:40:20Z</time><name>PT5597</name></trkpt>
<trkpt lat="52.875590" lon="-3.386281"><ele>797</ele><time>2020-01-18T11:40:20Z</time><name>PT5598</name></trkpt>
<trkpt lat="52.875595" lon="-3.386279"><ele>797</ele><time>2020-01-18T11:40:21Z</time><name>PT5599</name></trkpt>
<trkpt lat="52.875599" lon="-3.386275"><ele>797</ele><time>2020-01-18T11:40:23Z</time><name>PT5600</name></trkpt>
<trkpt lat="52.875605" lon="-3.386272"><ele>797</ele><time>2020-01-18T11:40:23Z</time><name>PT5601</name></trkpt>
<trkpt lat="52.875611" lon="-3.386274"><ele>797</ele><time>2020-01-18T11:40:24Z</time><name>PT5602</name></trkpt>
<trkpt lat="52.875618" lon="-3.386273"><ele>797</ele><time>2020-01-18T11:40:26Z</time><name>PT5603</name></trkpt>
<trkpt lat="52.875625" lon="-3.386273"><ele>798</ele><time>2020-01-18T11:40:26Z</time><name>PT5604</name></trkpt>
<trkpt lat="52.875633" lon="-3.386274"><ele>798</ele><time>2020-01-18T11:40:27Z</time><name>PT5605</name></trkpt>
<trkpt lat="52.875639" lon="-3.386270"><ele>798</ele><time>2020-01-18T11:40:29Z</time><name>PT5606</name></trkpt>
<trkpt lat="52.875649" lon="-3.386268"><ele>799</ele><time>2020-01-18T11:40:30Z</time><name>PT5607</name></trkpt>
<trkpt lat="52.875656" lon="-3.386265"><ele>799</ele><time>2020-01-18T11:40:31Z</time><name>PT5608</name></trkpt>
<trkpt lat="52.875664" lon="-3.386262"><ele>800</ele><time>2020-01-18T11:40:32Z</time><name>PT5609</name></trkpt>
<trkpt lat="52.875672" lon="-3.386262"><ele>800</ele><time>2020-01-18T11:40:32Z</time><name>PT5610</name></trkpt>
<trkpt lat="52.875677" lon="-3.386259"><ele>800</ele><time>2020-01-18T11:40:34Z</time><name>PT5611</name></trkpt>
<trkpt lat="52.875688" lon="-3.386256"><ele>801</ele><time>2020-01-18T11:40:35Z</time><name>PT5612</name></trkpt>
<trkpt lat="52.875699" lon="-3.386254"><ele>802</ele><time>2020-01-18T11:40:36Z</time><name>PT5613</name></trkpt>
<trkpt lat="52.875706" lon="-3.386256"><ele>802</ele><time>2020-01-18T11:40:37Z</time><name>PT5614</name></trkpt>
<trkpt lat="52.875713" lon="-3.386256"><ele>802</ele><time>2020-01-18T11:40:38Z</time><name>PT5615</name></trkpt>
<trkpt lat="52.875717" lon="-3.386256"><ele>802</ele><time>2020-01-18T11:40:38Z</time><name>PT5616</name></trkpt>
<trkpt lat="52.875722" lon="-3.386257"><ele>803</ele><time>2020-01-18T11:40:39Z</time><name>PT5617</name></trkpt>
<trkpt lat="52.875723" lon="-3.386251"><ele>802</ele><time>2020-01-18T11:40:44Z</time><name>PT5618</name></trkpt>
<trkpt lat="52.875733" lon="-3.386248"><ele>802</ele><time>2020-01-18T11:40:44Z</time><name>PT5619</name></trkpt>
<trkpt lat="52.875742" lon="-3.386249"><ele>802</ele><time>2020-01-18T11:40:45Z</time><name>PT5620</name></trkpt>
<trkpt lat="52.875748" lon="-3.386250"><ele>802</ele><time>2020-01-18T11:40:47Z</time><name>PT5621</name></trkpt>
<trkpt lat="52.875755" lon="-3.386246"><ele>803</ele><time>2020-01-18T11:40:48Z</time><name>PT5622</name></trkpt>
<trkpt lat="52.875763" lon="-3.386251"><ele>803</ele><time>2020-01-18T11:40:50Z</time><name>PT5623</name></trkpt>
<trkpt lat="52.875777" lon="-3.386254"><ele>803</ele><time>2020-01-18T11:40:50Z</time><name>PT5624</name></trkpt>
<trkpt lat="52.875784" lon="-3.386257"><ele>803</ele><time>2020-01-18T11:40:51Z</time><name>PT5625</name></trkpt>
<trkpt lat="52.875793" lon="-3.386257"><ele>803</ele><time>2020-01-18T11:40:53Z</time><name>PT5626</name></trkpt>
<trkpt lat="52.875804" lon="-3.386260"><ele>803</ele><time>2020-01-18T11:40:53Z</time><name>PT5627</name></trkpt>
<trkpt lat="52.875813" lon="-3.386264"><ele>804</ele><time>2020-01-18T11:40:54Z</time><name>PT5628</name></trkpt>
<trkpt lat="52.875823" lon="-3.386260"><ele>804</ele><time>2020-01-18T11:40:56Z</time><name>PT5629</name></trkpt>
<trkpt lat="52.875835" lon="-3.386257"><ele>804</ele><time>2020-01-18T11:40:56Z</time><name>PT5630</name></trkpt>
<trkpt lat="52.875838" lon="-3.386253"><ele>803</ele><time>2020-01-18T11:40:58Z</time><name>PT5631</name></trkpt>
<trkpt lat="52.875849" lon="-3.386255"><ele>803</ele><time>2020-01-18T11:40:59Z</time><name>PT5632</name></trkpt>
<trkpt lat="52.875853" lon="-3.386252"><ele>802</ele><time>2020-01-18T11:40:59Z</time><name>PT5633</name></trkpt>
<trkpt lat="52.875860" lon="-3.386247"><ele>802</ele><time>2020-01-18T11:41:00Z</time><name>PT5634</name></trkpt>
<trkpt lat="52.875870" lon="-3.386243"><ele>802</ele><time>2020-01-18T11:41:02Z</time><name>PT5635</name></trkpt>
<trkpt lat="52.875884" lon="-3.386240"><ele>803</ele><time>2020-01-18T11:41:02Z</time><name>PT5636</name></trkpt>
<trkpt lat="52.875894" lon="-3.386241"><ele>802</ele><time>2020-01-18T11:41:03Z</time><name>PT5637</name></trkpt>
<trkpt lat="52.875902" lon="-3.386238"><ele>802</ele><time>2020-01-18T11:41:05Z</time><name>PT5638</name></trkpt>
<trkpt lat="52.875907" lon="-3.386233"><ele>802</ele><time>2020-01-18T11:41:05Z</time><name>PT5639</name></trkpt>
<trkpt lat="52.875915" lon="-3.386230"><ele>802</ele><time>2020-01-18T11:41:06Z</time><name>PT5640</name></trkpt>
<trkpt lat="52.875920" lon="-3.386227"><ele>802</ele><time>2020-01-18T11:41:08Z</time><name>PT5641</name></trkpt>
<trkpt lat="52.875924" lon="-3.386222"><ele>802</ele><time>2020-01-18T11:41:08Z</time><name>PT5642</name></trkpt>
<trkpt lat="52.875930" lon="-3.386220"><ele>801</ele><time>2020-01-18T11:41:09Z</time><name>PT5643</name></trkpt>
<trkpt lat="52.875940" lon="-3.386222"><ele>802</ele><time>2020-01-18T11:41:11Z</time><name>PT5644</name></trkpt>
<trkpt lat="52.875946" lon="-3.386223"><ele>801</ele><time>2020-01-18T11:41:11Z</time><name>PT5645</name></trkpt>
<trkpt lat="52.875953" lon="-3.386225"><ele>801</ele><time>2020-01-18T11:41:12Z</time><name>PT5646</name></trkpt>
<trkpt lat="52.875961" lon="-3.386225"><ele>801</ele><time>2020-01-18T11:41:14Z</time><name>PT5647</name></trkpt>
<trkpt lat="52.875972" lon="-3.386229"><ele>801</ele><time>2020-01-18T11:41:14Z</time><name>PT5648</name></trkpt>
<trkpt lat="52.875978" lon="-3.386232"><ele>801</ele><time>2020-01-18T11:41:15Z</time><name>PT5649</name></trkpt>
<trkpt lat="52.875992" lon="-3.386238"><ele>802</ele><time>2020-01-18T11:41:17Z</time><name>PT5650</name></trkpt>
<trkpt lat="52.875999" lon="-3.386246"><ele>802</ele><time>2020-01-18T11:41:17Z</time><name>PT5651</name></trkpt>
<trkpt lat="52.876009" lon="-3.386253"><ele>803</ele><time>2020-01-18T11:41:18Z</time><name>PT5652</name></trkpt>
<trkpt lat="52.876018" lon="-3.386255"><ele>803</ele><time>2020-01-18T11:41:20Z</time><name>PT5653</name></trkpt>
<trkpt lat="52.876025" lon="-3.386253"><ele>803</ele><time>2020-01-18T11:41:20Z</time><name>PT5654</name></trkpt>
<trkpt lat="52.876033" lon="-3.386252"><ele>803</ele><time>2020-01-18T11:41:21Z</time><name>PT5655</name></trkpt>
<trkpt lat="52.876045" lon="-3.386249"><ele>803</ele><time>2020-01-18T11:41:23Z</time><name>PT5656</name></trkpt>
<trkpt lat="52.876055" lon="-3.386251"><ele>804</ele><time>2020-01-18T11:41:23Z</time><name>PT5657</name></trkpt>
<trkpt lat="52.876061" lon="-3.386253"><ele>804</ele><time>2020-01-18T11:41:25Z</time><name>PT5658</name></trkpt>
<trkpt lat="52.876068" lon="-3.386252"><ele>804</ele><time>2020-01-18T11:41:26Z</time><name>PT5659</name></trkpt>
<trkpt lat="52.876083" lon="-3.386256"><ele>805</ele><time>2020-01-18T11:41:26Z</time><name>PT5660</name></trkpt>
<trkpt lat="52.876092" lon="-3.386257"><ele>804</ele><time>2020-01-18T11:41:27Z</time><name>PT5661</name></trkpt>
<trkpt lat="52.876103" lon="-3.386260"><ele>805</ele><time>2020-01-18T11:41:29Z</time><name>PT5662</name></trkpt>
<trkpt lat="52.876113" lon="-3.386270"><ele>805</ele><time>2020-01-18T11:41:29Z</time><name>PT5663</name></trkpt>
<trkpt lat="52.876120" lon="-3.386275"><ele>805</ele><time>2020-01-18T11:41:30Z</time><name>PT5664</name></trkpt>
<trkpt lat="52.876134" lon="-3.386278"><ele>806</ele><time>2020-01-18T11:41:32Z</time><name>PT5665</name></trkpt>
<trkpt lat="52.876145" lon="-3.386277"><ele>806</ele><time>2020-01-18T11:41:32Z</time><name>PT5666</name></trkpt>
<trkpt lat="52.876155" lon="-3.386278"><ele>806</ele><time>2020-01-18T11:41:33Z</time><name>PT5667</name></trkpt>
<trkpt lat="52.876163" lon="-3.386282"><ele>806</ele><time>2020-01-18T11:41:35Z</time><name>PT5668</name></trkpt>
<trkpt lat="52.876170" lon="-3.386282"><ele>806</ele><time>2020-01-18T11:41:35Z</time><name>PT5669</name></trkpt>
<trkpt lat="52.876182" lon="-3.386283"><ele>806</ele><time>2020-01-18T11:41:36Z</time><name>PT5670</name></trkpt>
<trkpt lat="52.876191" lon="-3.386285"><ele>807</ele><time>2020-01-18T11:41:38Z</time><name>PT5671</name></trkpt>
<trkpt lat="52.876200" lon="-3.386282"><ele>807</ele><time>2020-01-18T11:41:38Z</time><name>PT5672</name></trkpt>
<trkpt lat="52.876207" lon="-3.386281"><ele>807</ele><time>2020-01-18T11:41:39Z</time><name>PT5673</name></trkpt>
<trkpt lat="52.876216" lon="-3.386286"><ele>807</ele><time>2020-01-18T11:41:41Z</time><name>PT5674</name></trkpt>
<trkpt lat="52.876225" lon="-3.386290"><ele>807</ele><time>2020-01-18T11:41:41Z</time><name>PT5675</name></trkpt>
<trkpt lat="52.876232" lon="-3.386291"><ele>806</ele><time>2020-01-18T11:41:42Z</time><name>PT5676</name></trkpt>
<trkpt lat="52.876239" lon="-3.386293"><ele>807</ele><time>2020-01-18T11:41:44Z</time><name>PT5677</name></trkpt>
<trkpt lat="52.876246" lon="-3.386296"><ele>807</ele><time>2020-01-18T11:41:44Z</time><name>PT5678</name></trkpt>
<trkpt lat="52.876250" lon="-3.386300"><ele>807</ele><time>2020-01-18T11:41:45Z</time><name>PT5679</name></trkpt>
<trkpt lat="52.876259" lon="-3.386300"><ele>807</ele><time>2020-01-18T11:41:47Z</time><name>PT5680</name></trkpt>
<trkpt lat="52.876268" lon="-3.386300"><ele>808</ele><time>2020-01-18T11:41:47Z</time><name>PT5681</name></trkpt>
<trkpt lat="52.876279" lon="-3.386300"><ele>807</ele><time>2020-01-18T11:41:48Z</time><name>PT5682</name></trkpt>
<trkpt lat="52.876291" lon="-3.386301"><ele>808</ele><time>2020-01-18T11:41:50Z</time><name>PT5683</name></trkpt>
<trkpt lat="52.876302" lon="-3.386302"><ele>808</ele><time>2020-01-18T11:41:50Z</time><name>PT5684</name></trkpt>
<trkpt lat="52.876314" lon="-3.386305"><ele>809</ele><time>2020-01-18T11:41:51Z</time><name>PT5685</name></trkpt>
<trkpt lat="52.876326" lon="-3.386305"><ele>809</ele><time>2020-01-18T11:41:53Z</time><name>PT5686</name></trkpt>
<trkpt lat="52.876339" lon="-3.386305"><ele>809</ele><time>2020-01-18T11:41:53Z</time><name>PT5687</name></trkpt>
<trkpt lat="52.876347" lon="-3.386304"><ele>809</ele><time>2020-01-18T11:41:54Z</time><name>PT5688</name></trkpt>
<trkpt lat="52.876358" lon="-3.386299"><ele>810</ele><time>2020-01-18T11:41:56Z</time><name>PT5689</name></trkpt>
<trkpt lat="52.876366" lon="-3.386296"><ele>810</ele><time>2020-01-18T11:41:56Z</time><name>PT5690</name></trkpt>
<trkpt lat="52.876374" lon="-3.386294"><ele>810</ele><time>2020-01-18T11:41:57Z</time><name>PT5691</name></trkpt>
<trkpt lat="52.876382" lon="-3.386290"><ele>810</ele><time>2020-01-18T11:41:59Z</time><name>PT5692</name></trkpt>
<trkpt lat="52.876391" lon="-3.386287"><ele>811</ele><time>2020-01-18T11:41:59Z</time><name>PT5693</name></trkpt>
<trkpt lat="52.876402" lon="-3.386287"><ele>811</ele><time>2020-01-18T11:42:00Z</time><name>PT5694</name></trkpt>
<trkpt lat="52.876414" lon="-3.386291"><ele>812</ele><time>2020-01-18T11:42:02Z</time><name>PT5695</name></trkpt>
<trkpt lat="52.876426" lon="-3.386289"><ele>812</ele><time>2020-01-18T11:42:02Z</time><name>PT5696</name></trkpt>
<trkpt lat="52.876435" lon="-3.386287"><ele>813</ele><time>2020-01-18T11:42:03Z</time><name>PT5697</name></trkpt>
<trkpt lat="52.876444" lon="-3.386284"><ele>813</ele><time>2020-01-18T11:42:05Z</time><name>PT5698</name></trkpt>
<trkpt lat="52.876455" lon="-3.386279"><ele>813</ele><time>2020-01-18T11:42:05Z</time><name>PT5699</name></trkpt>
<trkpt lat="52.876461" lon="-3.386273"><ele>813</ele><time>2020-01-18T11:42:06Z</time><name>PT5700</name></trkpt>
<trkpt lat="52.876469" lon="-3.386274"><ele>813</ele><time>2020-01-18T11:42:08Z</time><name>PT5701</name></trkpt>
<trkpt lat="52.876475" lon="-3.386273"><ele>813</ele><time>2020-01-18T11:42:08Z</time><name>PT5702</name></trkpt>
<trkpt lat="52.876482" lon="-3.386273"><ele>813</ele><time>2020-01-18T11:42:09Z</time><name>PT5703</name></trkpt>
<trkpt lat="52.876490" lon="-3.386270"><ele>813</ele><time>2020-01-18T11:42:11Z</time><name>PT5704</name></trkpt>
<trkpt lat="52.876497" lon="-3.386266"><ele>813</ele><time>2020-01-18T11:42:11Z</time><name>PT5705</name></trkpt>
<trkpt lat="52.876502" lon="-3.386262"><ele>813</ele><time>2020-01-18T11:42:13Z</time><name>PT5706</name></trkpt>
<trkpt lat="52.876501" lon="-3.386260"><ele>812</ele><time>2020-01-18T11:42:14Z</time><name>PT5707</name></trkpt>
<trkpt lat="52.876507" lon="-3.386263"><ele>813</ele><time>2020-01-18T11:42:15Z</time><name>PT5708</name></trkpt>
<trkpt lat="52.876510" lon="-3.386263"><ele>813</ele><time>2020-01-18T11:42:16Z</time><name>PT5709</name></trkpt>
<trkpt lat="52.876509" lon="-3.386265"><ele>813</ele><time>2020-01-18T11:42:17Z</time><name>PT5710</name></trkpt>
<trkpt lat="52.876507" lon="-3.386258"><ele>813</ele><time>2020-01-18T11:42:18Z</time><name>PT5711</name></trkpt>
<trkpt lat="52.876512" lon="-3.386257"><ele>813</ele><time>2020-01-18T11:42:20Z</time><name>PT5712</name></trkpt>
<trkpt lat="52.876510" lon="-3.386260"><ele>814</ele><time>2020-01-18T11:42:21Z</time><name>PT5713</name></trkpt>
<trkpt lat="52.876525" lon="-3.386254"><ele>815</ele><time>2020-01-18T11:42:38Z</time><name>PT5714</name></trkpt>
<trkpt lat="52.876539" lon="-3.386257"><ele>814</ele><time>2020-01-18T11:42:38Z</time><name>PT5715</name></trkpt>
<trkpt lat="52.876552" lon="-3.386250"><ele>814</ele><time>2020-01-18T11:42:39Z</time><name>PT5716</name></trkpt>
<trkpt lat="52.876569" lon="-3.386247"><ele>814</ele><time>2020-01-18T11:42:41Z</time><name>PT5717</name></trkpt>
<trkpt lat="52.876586" lon="-3.386236"><ele>813</ele><time>2020-01-18T11:42:41Z</time><name>PT5718</name></trkpt>
<trkpt lat="52.876605" lon="-3.386232"><ele>813</ele><time>2020-01-18T11:42:42Z</time><name>PT5719</name></trkpt>
<trkpt lat="52.876617" lon="-3.386225"><ele>813</ele><time>2020-01-18T11:42:44Z</time><name>PT5720</name></trkpt>
<trkpt lat="52.876627" lon="-3.386222"><ele>813</ele><time>2020-01-18T11:42:44Z</time><name>PT5721</name></trkpt>
<trkpt lat="52.876636" lon="-3.386216"><ele>812</ele><time>2020-01-18T11:42:45Z</time><name>PT5722</name></trkpt>
<trkpt lat="52.876648" lon="-3.386209"><ele>812</ele><time>2020-01-18T11:42:47Z</time><name>PT5723</name></trkpt>
<trkpt lat="52.876664" lon="-3.386196"><ele>812</ele><time>2020-01-18T11:42:47Z</time><name>PT5724</name></trkpt>
<trkpt lat="52.876676" lon="-3.386186"><ele>812</ele><time>2020-01-18T11:42:48Z</time><name>PT5725</name></trkpt>
<trkpt lat="52.876689" lon="-3.386177"><ele>811</ele><time>2020-01-18T11:42:50Z</time><name>PT5726</name></trkpt>
<trkpt lat="52.876698" lon="-3.386169"><ele>811</ele><time>2020-01-18T11:42:50Z</time><name>PT5727</name></trkpt>
<trkpt lat="52.876707" lon="-3.386157"><ele>811</ele><time>2020-01-18T11:42:51Z</time><name>PT5728</name></trkpt>
<trkpt lat="52.876719" lon="-3.386148"><ele>811</ele><time>2020-01-18T11:42:53Z</time><name>PT5729</name></trkpt>
<trkpt lat="52.876735" lon="-3.386149"><ele>812</ele><time>2020-01-18T11:42:53Z</time><name>PT5730</name></trkpt>
<trkpt lat="52.876748" lon="-3.386145"><ele>812</ele><time>2020-01-18T11:42:54Z</time><name>PT5731</name></trkpt>
<trkpt lat="52.876757" lon="-3.386134"><ele>812</ele><time>2020-01-18T11:42:56Z</time><name>PT5732</name></trkpt>
<trkpt lat="52.876768" lon="-3.386124"><ele>812</ele><time>2020-01-18T11:42:56Z</time><name>PT5733</name></trkpt>
<trkpt lat="52.876779" lon="-3.386115"><ele>812</ele><time>2020-01-18T11:42:57Z</time><name>PT5734</name></trkpt>
<trkpt lat="52.876790" lon="-3.386112"><ele>812</ele><time>2020-01-18T11:42:59Z</time><name>PT5735</name></trkpt>
<trkpt lat="52.876802" lon="-3.386108"><ele>812</ele><time>2020-01-18T11:42:59Z</time><name>PT5736</name></trkpt>
<trkpt lat="52.876814" lon="-3.386104"><ele>813</ele><time>2020-01-18T11:43:00Z</time><name>PT5737</name></trkpt>
<trkpt lat="52.876818" lon="-3.386095"><ele>812</ele><time>2020-01-18T11:43:02Z</time><name>PT5738</name></trkpt>
<trkpt lat="52.876829" lon="-3.386088"><ele>812</ele><time>2020-01-18T11:43:02Z</time><name>PT5739</name></trkpt>
<trkpt lat="52.876841" lon="-3.386081"><ele>813</ele><time>2020-01-18T11:43:03Z</time><name>PT5740</name></trkpt>
<trkpt lat="52.876852" lon="-3.386076"><ele>813</ele><time>2020-01-18T11:43:05Z</time><name>PT5741</name></trkpt>
<trkpt lat="52.876862" lon="-3.386071"><ele>813</ele><time>2020-01-18T11:43:05Z</time><name>PT5742</name></trkpt>
<trkpt lat="52.876874" lon="-3.386068"><ele>813</ele><time>2020-01-18T11:43:07Z</time><name>PT5743</name></trkpt>
<trkpt lat="52.876882" lon="-3.386070"><ele>813</ele><time>2020-01-18T11:43:08Z</time><name>PT5744</name></trkpt>
<trkpt lat="52.876892" lon="-3.386067"><ele>813</ele><time>2020-01-18T11:43:09Z</time><name>PT5745</name></trkpt>
<trkpt lat="52.876904" lon="-3.386065"><ele>813</ele><time>2020-01-18T11:43:10Z</time><name>PT5746</name></trkpt>
<trkpt lat="52.876913" lon="-3.386064"><ele>813</ele><time>2020-01-18T11:43:11Z</time><name>PT5747</name></trkpt>
<trkpt lat="52.876928" lon="-3.386059"><ele>813</ele><time>2020-01-18T11:43:11Z</time><name>PT5748</name></trkpt>
<trkpt lat="52.876941" lon="-3.386051"><ele>813</ele><time>2020-01-18T11:43:13Z</time><name>PT5749</name></trkpt>
<trkpt lat="52.876955" lon="-3.386041"><ele>814</ele><time>2020-01-18T11:43:14Z</time><name>PT5750</name></trkpt>
<trkpt lat="52.876969" lon="-3.386033"><ele>814</ele><time>2020-01-18T11:43:15Z</time><name>PT5751</name></trkpt>
<trkpt lat="52.876984" lon="-3.386027"><ele>814</ele><time>2020-01-18T11:43:16Z</time><name>PT5752</name></trkpt>
<trkpt lat="52.876996" lon="-3.386015"><ele>814</ele><time>2020-01-18T11:43:17Z</time><name>PT5753</name></trkpt>
<trkpt lat="52.877011" lon="-3.386005"><ele>814</ele><time>2020-01-18T11:43:18Z</time><name>PT5754</name></trkpt>
<trkpt lat="52.877020" lon="-3.385994"><ele>814</ele><time>2020-01-18T11:43:19Z</time><name>PT5755</name></trkpt>
<trkpt lat="52.877031" lon="-3.385983"><ele>815</ele><time>2020-01-18T11:43:20Z</time><name>PT5756</name></trkpt>
<trkpt lat="52.877038" lon="-3.385972"><ele>814</ele><time>2020-01-18T11:43:20Z</time><name>PT5757</name></trkpt>
<trkpt lat="52.877049" lon="-3.385962"><ele>814</ele><time>2020-01-18T11:43:21Z</time><name>PT5758</name></trkpt>
<trkpt lat="52.877060" lon="-3.385951"><ele>815</ele><time>2020-01-18T11:43:23Z</time><name>PT5759</name></trkpt>
<trkpt lat="52.877074" lon="-3.385940"><ele>815</ele><time>2020-01-18T11:43:23Z</time><name>PT5760</name></trkpt>
<trkpt lat="52.877084" lon="-3.385930"><ele>815</ele><time>2020-01-18T11:43:24Z</time><name>PT5761</name></trkpt>
<trkpt lat="52.877093" lon="-3.385921"><ele>814</ele><time>2020-01-18T11:43:26Z</time><name>PT5762</name></trkpt>
<trkpt lat="52.877102" lon="-3.385908"><ele>814</ele><time>2020-01-18T11:43:26Z</time><name>PT5763</name></trkpt>
<trkpt lat="52.877110" lon="-3.385897"><ele>814</ele><time>2020-01-18T11:43:27Z</time><name>PT5764</name></trkpt>
<trkpt lat="52.877123" lon="-3.385887"><ele>814</ele><time>2020-01-18T11:43:29Z</time><name>PT5765</name></trkpt>
<trkpt lat="52.877135" lon="-3.385874"><ele>814</ele><time>2020-01-18T11:43:29Z</time><name>PT5766</name></trkpt>
<trkpt lat="52.877147" lon="-3.385860"><ele>814</ele><time>2020-01-18T11:43:30Z</time><name>PT5767</name></trkpt>
<trkpt lat="52.877157" lon="-3.385845"><ele>814</ele><time>2020-01-18T11:43:32Z</time><name>PT5768</name></trkpt>
<trkpt lat="52.877165" lon="-3.385835"><ele>814</ele><time>2020-01-18T11:43:32Z</time><name>PT5769</name></trkpt>
<trkpt lat="52.877171" lon="-3.385823"><ele>814</ele><time>2020-01-18T11:43:33Z</time><name>PT5770</name></trkpt>
<trkpt lat="52.877184" lon="-3.385812"><ele>814</ele><time>2020-01-18T11:43:35Z</time><name>PT5771</name></trkpt>
<trkpt lat="52.877194" lon="-3.385802"><ele>813</ele><time>2020-01-18T11:43:35Z</time><name>PT5772</name></trkpt>
<trkpt lat="52.877203" lon="-3.385789"><ele>813</ele><time>2020-01-18T11:43:37Z</time><name>PT5773</name></trkpt>
<trkpt lat="52.877209" lon="-3.385775"><ele>813</ele><time>2020-01-18T11:43:38Z</time><name>PT5774</name></trkpt>
<trkpt lat="52.877218" lon="-3.385765"><ele>813</ele><time>2020-01-18T11:43:38Z</time><name>PT5775</name></trkpt>
<trkpt lat="52.877226" lon="-3.385753"><ele>813</ele><time>2020-01-18T11:43:40Z</time><name>PT5776</name></trkpt>
<trkpt lat="52.877231" lon="-3.385740"><ele>813</ele><time>2020-01-18T11:43:41Z</time><name>PT5777</name></trkpt>
<trkpt lat="52.877234" lon="-3.385726"><ele>812</ele><time>2020-01-18T11:43:41Z</time><name>PT5778</name></trkpt>
<trkpt lat="52.877244" lon="-3.385713"><ele>812</ele><time>2020-01-18T11:43:43Z</time><name>PT5779</name></trkpt>
<trkpt lat="52.877255" lon="-3.385701"><ele>812</ele><time>2020-01-18T11:43:44Z</time><name>PT5780</name></trkpt>
<trkpt lat="52.877270" lon="-3.385690"><ele>812</ele><time>2020-01-18T11:43:45Z</time><name>PT5781</name></trkpt>
<trkpt lat="52.877280" lon="-3.385680"><ele>812</ele><time>2020-01-18T11:43:45Z</time><name>PT5782</name></trkpt>
<trkpt lat="52.877291" lon="-3.385668"><ele>812</ele><time>2020-01-18T11:43:47Z</time><name>PT5783</name></trkpt>
<trkpt lat="52.877299" lon="-3.385657"><ele>812</ele><time>2020-01-18T11:43:47Z</time><name>PT5784</name></trkpt>
<trkpt lat="52.877306" lon="-3.385644"><ele>811</ele><time>2020-01-18T11:43:48Z</time><name>PT5785</name></trkpt>
<trkpt lat="52.877313" lon="-3.385636"><ele>811</ele><time>2020-01-18T11:43:50Z</time><name>PT5786</name></trkpt>
<trkpt lat="52.877323" lon="-3.385626"><ele>811</ele><time>2020-01-18T11:43:50Z</time><name>PT5787</name></trkpt>
<trkpt lat="52.877332" lon="-3.385620"><ele>810</ele><time>2020-01-18T11:43:51Z</time><name>PT5788</name></trkpt>
<trkpt lat="52.877339" lon="-3.385614"><ele>810</ele><time>2020-01-18T11:43:53Z</time><name>PT5789</name></trkpt>
<trkpt lat="52.877339" lon="-3.385610"><ele>810</ele><time>2020-01-18T11:43:53Z</time><name>PT5790</name></trkpt>
<trkpt lat="52.877340" lon="-3.385608"><ele>810</ele><time>2020-01-18T11:43:54Z</time><name>PT5791</name></trkpt>
<trkpt lat="52.877341" lon="-3.385607"><ele>810</ele><time>2020-01-18T11:43:56Z</time><name>PT5792</name></trkpt>
<trkpt lat="52.877338" lon="-3.385612"><ele>809</ele><time>2020-01-18T11:43:56Z</time><name>PT5793</name></trkpt>
<trkpt lat="52.877345" lon="-3.385619"><ele>810</ele><time>2020-01-18T11:44:09Z</time><name>PT5794</name></trkpt>
<trkpt lat="52.877355" lon="-3.385611"><ele>810</ele><time>2020-01-18T11:44:11Z</time><name>PT5795</name></trkpt>
<trkpt lat="52.877363" lon="-3.385610"><ele>811</ele><time>2020-01-18T11:44:11Z</time><name>PT5796</name></trkpt>
<trkpt lat="52.877374" lon="-3.385591"><ele>811</ele><time>2020-01-18T11:44:12Z</time><name>PT5797</name></trkpt>
<trkpt lat="52.877376" lon="-3.385590"><ele>810</ele><time>2020-01-18T11:44:14Z</time><name>PT5798</name></trkpt>
<trkpt lat="52.877384" lon="-3.385589"><ele>810</ele><time>2020-01-18T11:44:14Z</time><name>PT5799</name></trkpt>
<trkpt lat="52.877392" lon="-3.385588"><ele>810</ele><time>2020-01-18T11:44:15Z</time><name>PT5800</name></trkpt>
<trkpt lat="52.877400" lon="-3.385587"><ele>810</ele><time>2020-01-18T11:44:17Z</time><name>PT5801</name></trkpt>
<trkpt lat="52.877407" lon="-3.385586"><ele>810</ele><time>2020-01-18T11:44:17Z</time><name>PT5802</name></trkpt>
<trkpt lat="52.877413" lon="-3.385586"><ele>809</ele><time>2020-01-18T11:44:19Z</time><name>PT5803</name></trkpt>
<trkpt lat="52.877418" lon="-3.385578"><ele>809</ele><time>2020-01-18T11:44:20Z</time><name>PT5804</name></trkpt>
<trkpt lat="52.877420" lon="-3.385576"><ele>809</ele><time>2020-01-18T11:44:20Z</time><name>PT5805</name></trkpt>
<trkpt lat="52.877424" lon="-3.385576"><ele>809</ele><time>2020-01-18T11:44:21Z</time><name>PT5806</name></trkpt>
<trkpt lat="52.877425" lon="-3.385577"><ele>809</ele><time>2020-01-18T11:44:23Z</time><name>PT5807</name></trkpt>
<trkpt lat="52.877432" lon="-3.385575"><ele>807</ele><time>2020-01-18T11:44:26Z</time><name>PT5808</name></trkpt>
<trkpt lat="52.877442" lon="-3.385566"><ele>807</ele><time>2020-01-18T11:44:26Z</time><name>PT5809</name></trkpt>
<trkpt lat="52.877447" lon="-3.385570"><ele>808</ele><time>2020-01-18T11:44:27Z</time><name>PT5810</name></trkpt>
<trkpt lat="52.877446" lon="-3.385572"><ele>808</ele><time>2020-01-18T11:44:35Z</time><name>PT5811</name></trkpt>
<trkpt lat="52.877450" lon="-3.385567"><ele>808</ele><time>2020-01-18T11:44:35Z</time><name>PT5812</name></trkpt>
<trkpt lat="52.877459" lon="-3.385571"><ele>808</ele><time>2020-01-18T11:44:36Z</time><name>PT5813</name></trkpt>
<trkpt lat="52.877467" lon="-3.385568"><ele>808</ele><time>2020-01-18T11:44:38Z</time><name>PT5814</name></trkpt>
<trkpt lat="52.877473" lon="-3.385559"><ele>808</ele><time>2020-01-18T11:44:38Z</time><name>PT5815</name></trkpt>
<trkpt lat="52.877482" lon="-3.385555"><ele>808</ele><time>2020-01-18T11:44:39Z</time><name>PT5816</name></trkpt>
<trkpt lat="52.877494" lon="-3.385554"><ele>808</ele><time>2020-01-18T11:44:41Z</time><name>PT5817</name></trkpt>
<trkpt lat="52.877506" lon="-3.385552"><ele>807</ele><time>2020-01-18T11:44:41Z</time><name>PT5818</name></trkpt>
<trkpt lat="52.877519" lon="-3.385549"><ele>807</ele><time>2020-01-18T11:44:42Z</time><name>PT5819</name></trkpt>
<trkpt lat="52.877529" lon="-3.385548"><ele>807</ele><time>2020-01-18T11:44:44Z</time><name>PT5820</name></trkpt>
<trkpt lat="52.877535" lon="-3.385543"><ele>806</ele><time>2020-01-18T11:44:44Z</time><name>PT5821</name></trkpt>
<trkpt lat="52.877543" lon="-3.385540"><ele>806</ele><time>2020-01-18T11:44:45Z</time><name>PT5822</name></trkpt>
<trkpt lat="52.877555" lon="-3.385542"><ele>806</ele><time>2020-01-18T11:44:47Z</time><name>PT5823</name></trkpt>
<trkpt lat="52.877566" lon="-3.385539"><ele>806</ele><time>2020-01-18T11:44:47Z</time><name>PT5824</name></trkpt>
<trkpt lat="52.877570" lon="-3.385538"><ele>805</ele><time>2020-01-18T11:44:48Z</time><name>PT5825</name></trkpt>
<trkpt lat="52.877576" lon="-3.385535"><ele>805</ele><time>2020-01-18T11:44:50Z</time><name>PT5826</name></trkpt>
<trkpt lat="52.877584" lon="-3.385533"><ele>805</ele><time>2020-01-18T11:44:50Z</time><name>PT5827</name></trkpt>
<trkpt lat="52.877595" lon="-3.385529"><ele>804</ele><time>2020-01-18T11:44:51Z</time><name>PT5828</name></trkpt>
<trkpt lat="52.877606" lon="-3.385528"><ele>805</ele><time>2020-01-18T11:44:53Z</time><name>PT5829</name></trkpt>
<trkpt lat="52.877617" lon="-3.385524"><ele>804</ele><time>2020-01-18T11:44:53Z</time><name>PT5830</name></trkpt>
<trkpt lat="52.877625" lon="-3.385520"><ele>804</ele><time>2020-01-18T11:44:54Z</time><name>PT5831</name></trkpt>
<trkpt lat="52.877635" lon="-3.385517"><ele>804</ele><time>2020-01-18T11:44:56Z</time><name>PT5832</name></trkpt>
<trkpt lat="52.877644" lon="-3.385512"><ele>804</ele><time>2020-01-18T11:44:56Z</time><name>PT5833</name></trkpt>
<trkpt lat="52.877653" lon="-3.385508"><ele>804</ele><time>2020-01-18T11:44:57Z</time><name>PT5834</name></trkpt>
<trkpt lat="52.877662" lon="-3.385504"><ele>804</ele><time>2020-01-18T11:44:59Z</time><name>PT5835</name></trkpt>
<trkpt lat="52.877672" lon="-3.385499"><ele>804</ele><time>2020-01-18T11:44:59Z</time><name>PT5836</name></trkpt>
<trkpt lat="52.877683" lon="-3.385494"><ele>804</ele><time>2020-01-18T11:45:00Z</time><name>PT5837</name></trkpt>
<trkpt lat="52.877692" lon="-3.385491"><ele>804</ele><time>2020-01-18T11:45:02Z</time><name>PT5838</name></trkpt>
<trkpt lat="52.877700" lon="-3.385488"><ele>804</ele><time>2020-01-18T11:45:02Z</time><name>PT5839</name></trkpt>
<trkpt lat="52.877708" lon="-3.385483"><ele>804</ele><time>2020-01-18T11:45:03Z</time><name>PT5840</name></trkpt>
<trkpt lat="52.877717" lon="-3.385475"><ele>804</ele><time>2020-01-18T11:45:05Z</time><name>PT5841</name></trkpt>
<trkpt lat="52.877725" lon="-3.385471"><ele>804</ele><time>2020-01-18T11:45:05Z</time><name>PT5842</name></trkpt>
<trkpt lat="52.877733" lon="-3.385468"><ele>804</ele><time>2020-01-18T11:45:06Z</time><name>PT5843</name></trkpt>
<trkpt lat="52.877740" lon="-3.385464"><ele>804</ele><time>2020-01-18T11:45:08Z</time><name>PT5844</name></trkpt>
<trkpt lat="52.877747" lon="-3.385456"><ele>804</ele><time>2020-01-18T11:45:08Z</time><name>PT5845</name></trkpt>
<trkpt lat="52.877758" lon="-3.385448"><ele>804</ele><time>2020-01-18T11:45:09Z</time><name>PT5846</name></trkpt>
<trkpt lat="52.877768" lon="-3.385444"><ele>804</ele><time>2020-01-18T11:45:11Z</time><name>PT5847</name></trkpt>
<trkpt lat="52.877776" lon="-3.385435"><ele>804</ele><time>2020-01-18T11:45:11Z</time><name>PT5848</name></trkpt>
<trkpt lat="52.877783" lon="-3.385427"><ele>804</ele><time>2020-01-18T11:45:12Z</time><name>PT5849</name></trkpt>
<trkpt lat="52.877790" lon="-3.385416"><ele>804</ele><time>2020-01-18T11:45:14Z</time><name>PT5850</name></trkpt>
<trkpt lat="52.877798" lon="-3.385408"><ele>804</ele><time>2020-01-18T11:45:14Z</time><name>PT5851</name></trkpt>
<trkpt lat="52.877805" lon="-3.385395"><ele>804</ele><time>2020-01-18T11:45:16Z</time><name>PT5852</name></trkpt>
<trkpt lat="52.877812" lon="-3.385386"><ele>804</ele><time>2020-01-18T11:45:17Z</time><name>PT5853</name></trkpt>
<trkpt lat="52.877817" lon="-3.385376"><ele>803</ele><time>2020-01-18T11:45:17Z</time><name>PT5854</name></trkpt>
<trkpt lat="52.877822" lon="-3.385366"><ele>803</ele><time>2020-01-18T11:45:18Z</time><name>PT5855</name></trkpt>
<trkpt lat="52.877829" lon="-3.385354"><ele>803</ele><time>2020-01-18T11:45:20Z</time><name>PT5856</name></trkpt>
<trkpt lat="52.877836" lon="-3.385345"><ele>803</ele><time>2020-01-18T11:45:20Z</time><name>PT5857</name></trkpt>
<trkpt lat="52.877843" lon="-3.385333"><ele>803</ele><time>2020-01-18T11:45:21Z</time><name>PT5858</name></trkpt>
<trkpt lat="52.877852" lon="-3.385322"><ele>803</ele><time>2020-01-18T11:45:23Z</time><name>PT5859</name></trkpt>
<trkpt lat="52.877860" lon="-3.385310"><ele>804</ele><time>2020-01-18T11:45:23Z</time><name>PT5860</name></trkpt>
<trkpt lat="52.877865" lon="-3.385298"><ele>804</ele><time>2020-01-18T11:45:24Z</time><name>PT5861</name></trkpt>
<trkpt lat="52.877871" lon="-3.385285"><ele>804</ele><time>2020-01-18T11:45:26Z</time><name>PT5862</name></trkpt>
<trkpt lat="52.877878" lon="-3.385271"><ele>803</ele><time>2020-01-18T11:45:27Z</time><name>PT5863</name></trkpt>
<trkpt lat="52.877882" lon="-3.385254"><ele>803</ele><time>2020-01-18T11:45:28Z</time><name>PT5864</name></trkpt>
<trkpt lat="52.877885" lon="-3.385241"><ele>803</ele><time>2020-01-18T11:45:29Z</time><name>PT5865</name></trkpt>
<trkpt lat="52.877889" lon="-3.385231"><ele>803</ele><time>2020-01-18T11:45:29Z</time><name>PT5866</name></trkpt>
<trkpt lat="52.877892" lon="-3.385217"><ele>803</ele><time>2020-01-18T11:45:31Z</time><name>PT5867</name></trkpt>
<trkpt lat="52.877895" lon="-3.385203"><ele>803</ele><time>2020-01-18T11:45:32Z</time><name>PT5868</name></trkpt>
<trkpt lat="52.877897" lon="-3.385187"><ele>804</ele><time>2020-01-18T11:45:32Z</time><name>PT5869</name></trkpt>
<trkpt lat="52.877900" lon="-3.385168"><ele>804</ele><time>2020-01-18T11:45:33Z</time><name>PT5870</name></trkpt>
<trkpt lat="52.877901" lon="-3.385150"><ele>804</ele><time>2020-01-18T11:45:35Z</time><name>PT5871</name></trkpt>
<trkpt lat="52.877903" lon="-3.385134"><ele>804</ele><time>2020-01-18T11:45:35Z</time><name>PT5872</name></trkpt>
<trkpt lat="52.877905" lon="-3.385122"><ele>804</ele><time>2020-01-18T11:45:36Z</time><name>PT5873</name></trkpt>
<trkpt lat="52.877907" lon="-3.385113"><ele>804</ele><time>2020-01-18T11:45:38Z</time><name>PT5874</name></trkpt>
<trkpt lat="52.877908" lon="-3.385104"><ele>804</ele><time>2020-01-18T11:45:38Z</time><name>PT5875</name></trkpt>
<trkpt lat="52.877908" lon="-3.385089"><ele>804</ele><time>2020-01-18T11:45:39Z</time><name>PT5876</name></trkpt>
<trkpt lat="52.877911" lon="-3.385071"><ele>804</ele><time>2020-01-18T11:45:41Z</time><name>PT5877</name></trkpt>
<trkpt lat="52.877916" lon="-3.385053"><ele>804</ele><time>2020-01-18T11:45:41Z</time><name>PT5878</name></trkpt>
<trkpt lat="52.877920" lon="-3.385038"><ele>804</ele><time>2020-01-18T11:45:42Z</time><name>PT5879</name></trkpt>
<trkpt lat="52.877924" lon="-3.385024"><ele>804</ele><time>2020-01-18T11:45:44Z</time><name>PT5880</name></trkpt>
<trkpt lat="52.877931" lon="-3.385010"><ele>804</ele><time>2020-01-18T11:45:44Z</time><name>PT5881</name></trkpt>
<trkpt lat="52.877934" lon="-3.384997"><ele>803</ele><time>2020-01-18T11:45:45Z</time><name>PT5882</name></trkpt>
<trkpt lat="52.877939" lon="-3.384985"><ele>803</ele><time>2020-01-18T11:45:47Z</time><name>PT5883</name></trkpt>
<trkpt lat="52.877944" lon="-3.384968"><ele>803</ele><time>2020-01-18T11:45:47Z</time><name>PT5884</name></trkpt>
<trkpt lat="52.877951" lon="-3.384952"><ele>803</ele><time>2020-01-18T11:45:48Z</time><name>PT5885</name></trkpt>
<trkpt lat="52.877954" lon="-3.384940"><ele>803</ele><time>2020-01-18T11:45:50Z</time><name>PT5886</name></trkpt>
<trkpt lat="52.877960" lon="-3.384926"><ele>802</ele><time>2020-01-18T11:45:50Z</time><name>PT5887</name></trkpt>
<trkpt lat="52.877968" lon="-3.384915"><ele>803</ele><time>2020-01-18T11:45:51Z</time><name>PT5888</name></trkpt>
<trkpt lat="52.877973" lon="-3.384905"><ele>803</ele><time>2020-01-18T11:45:53Z</time><name>PT5889</name></trkpt>
<trkpt lat="52.877977" lon="-3.384897"><ele>803</ele><time>2020-01-18T11:45:53Z</time><name>PT5890</name></trkpt>
<trkpt lat="52.877980" lon="-3.384890"><ele>802</ele><time>2020-01-18T11:45:54Z</time><name>PT5891</name></trkpt>
<trkpt lat="52.877986" lon="-3.384880"><ele>803</ele><time>2020-01-18T11:45:56Z</time><name>PT5892</name></trkpt>
<trkpt lat="52.877989" lon="-3.384872"><ele>803</ele><time>2020-01-18T11:45:56Z</time><name>PT5893</name></trkpt>
<trkpt lat="52.877993" lon="-3.384859"><ele>803</ele><time>2020-01-18T11:45:57Z</time><name>PT5894</name></trkpt>
<trkpt lat="52.877998" lon="-3.384843"><ele>802</ele><time>2020-01-18T11:45:59Z</time><name>PT5895</name></trkpt>
<trkpt lat="52.878005" lon="-3.384825"><ele>802</ele><time>2020-01-18T11:45:59Z</time><name>PT5896</name></trkpt>
<trkpt lat="52.878010" lon="-3.384807"><ele>802</ele><time>2020-01-18T11:46:00Z</time><name>PT5897</name></trkpt>
<trkpt lat="52.878016" lon="-3.384795"><ele>802</ele><time>2020-01-18T11:46:02Z</time><name>PT5898</name></trkpt>
<trkpt lat="52.878023" lon="-3.384783"><ele>802</ele><time>2020-01-18T11:46:02Z</time><name>PT5899</name></trkpt>
<trkpt lat="52.878029" lon="-3.384772"><ele>802</ele><time>2020-01-18T11:46:03Z</time><name>PT5900</name></trkpt>
<trkpt lat="52.878036" lon="-3.384764"><ele>802</ele><time>2020-01-18T11:46:05Z</time><name>PT5901</name></trkpt>
<trkpt lat="52.878043" lon="-3.384757"><ele>801</ele><time>2020-01-18T11:46:05Z</time><name>PT5902</name></trkpt>
<trkpt lat="52.878051" lon="-3.384748"><ele>801</ele><time>2020-01-18T11:46:06Z</time><name>PT5903</name></trkpt>
<trkpt lat="52.878060" lon="-3.384736"><ele>801</ele><time>2020-01-18T11:46:08Z</time><name>PT5904</name></trkpt>
<trkpt lat="52.878069" lon="-3.384724"><ele>801</ele><time>2020-01-18T11:46:08Z</time><name>PT5905</name></trkpt>
<trkpt lat="52.878077" lon="-3.384712"><ele>801</ele><time>2020-01-18T11:46:09Z</time><name>PT5906</name></trkpt>
<trkpt lat="52.878087" lon="-3.384704"><ele>801</ele><time>2020-01-18T11:46:11Z</time><name>PT5907</name></trkpt>
<trkpt lat="52.878095" lon="-3.384696"><ele>801</ele><time>2020-01-18T11:46:11Z</time><name>PT5908</name></trkpt>
<trkpt lat="52.878101" lon="-3.384687"><ele>801</ele><time>2020-01-18T11:46:12Z</time><name>PT5909</name></trkpt>
<trkpt lat="52.878109" lon="-3.384677"><ele>800</ele><time>2020-01-18T11:46:14Z</time><name>PT5910</name></trkpt>
<trkpt lat="52.878117" lon="-3.384667"><ele>800</ele><time>2020-01-18T11:46:14Z</time><name>PT5911</name></trkpt>
<trkpt lat="52.878124" lon="-3.384658"><ele>800</ele><time>2020-01-18T11:46:15Z</time><name>PT5912</name></trkpt>
<trkpt lat="52.878130" lon="-3.384647"><ele>800</ele><time>2020-01-18T11:46:17Z</time><name>PT5913</name></trkpt>
<trkpt lat="52.878138" lon="-3.384637"><ele>799</ele><time>2020-01-18T11:46:17Z</time><name>PT5914</name></trkpt>
<trkpt lat="52.878146" lon="-3.384627"><ele>799</ele><time>2020-01-18T11:46:18Z</time><name>PT5915</name></trkpt>
<trkpt lat="52.878154" lon="-3.384618"><ele>799</ele><time>2020-01-18T11:46:20Z</time><name>PT5916</name></trkpt>
<trkpt lat="52.878162" lon="-3.384607"><ele>799</ele><time>2020-01-18T11:46:21Z</time><name>PT5917</name></trkpt>
<trkpt lat="52.878169" lon="-3.384595"><ele>798</ele><time>2020-01-18T11:46:21Z</time><name>PT5918</name></trkpt>
<trkpt lat="52.878178" lon="-3.384583"><ele>798</ele><time>2020-01-18T11:46:23Z</time><name>PT5919</name></trkpt>
<trkpt lat="52.878188" lon="-3.384571"><ele>798</ele><time>2020-01-18T11:46:24Z</time><name>PT5920</name></trkpt>
<trkpt lat="52.878195" lon="-3.384559"><ele>798</ele><time>2020-01-18T11:46:24Z</time><name>PT5921</name></trkpt>
<trkpt lat="52.878203" lon="-3.384545"><ele>798</ele><time>2020-01-18T11:46:26Z</time><name>PT5922</name></trkpt>
<trkpt lat="52.878210" lon="-3.384531"><ele>798</ele><time>2020-01-18T11:46:27Z</time><name>PT5923</name></trkpt>
<trkpt lat="52.878218" lon="-3.384518"><ele>798</ele><time>2020-01-18T11:46:28Z</time><name>PT5924</name></trkpt>
<trkpt lat="52.878228" lon="-3.384504"><ele>798</ele><time>2020-01-18T11:46:29Z</time><name>PT5925</name></trkpt>
<trkpt lat="52.878239" lon="-3.384492"><ele>798</ele><time>2020-01-18T11:46:30Z</time><name>PT5926</name></trkpt>
<trkpt lat="52.878247" lon="-3.384480"><ele>798</ele><time>2020-01-18T11:46:31Z</time><name>PT5927</name></trkpt>
<trkpt lat="52.878256" lon="-3.384469"><ele>798</ele><time>2020-01-18T11:46:32Z</time><name>PT5928</name></trkpt>
<trkpt lat="52.878265" lon="-3.384457"><ele>798</ele><time>2020-01-18T11:46:33Z</time><name>PT5929</name></trkpt>
<trkpt lat="52.878273" lon="-3.384444"><ele>798</ele><time>2020-01-18T11:46:34Z</time><name>PT5930</name></trkpt>
<trkpt lat="52.878281" lon="-3.384433"><ele>797</ele><time>2020-01-18T11:46:35Z</time><name>PT5931</name></trkpt>
<trkpt lat="52.878289" lon="-3.384425"><ele>797</ele><time>2020-01-18T11:46:36Z</time><name>PT5932</name></trkpt>
<trkpt lat="52.878301" lon="-3.384415"><ele>798</ele><time>2020-01-18T11:46:37Z</time><name>PT5933</name></trkpt>
<trkpt lat="52.878312" lon="-3.384404"><ele>798</ele><time>2020-01-18T11:46:38Z</time><name>PT5934</name></trkpt>
<trkpt lat="52.878319" lon="-3.384390"><ele>798</ele><time>2020-01-18T11:46:38Z</time><name>PT5935</name></trkpt>
<trkpt lat="52.878324" lon="-3.384374"><ele>797</ele><time>2020-01-18T11:46:39Z</time><name>PT5936</name></trkpt>
<trkpt lat="52.878331" lon="-3.384360"><ele>797</ele><time>2020-01-18T11:46:41Z</time><name>PT5937</name></trkpt>
<trkpt lat="52.878338" lon="-3.384347"><ele>796</ele><time>2020-01-18T11:46:41Z</time><name>PT5938</name></trkpt>
<trkpt lat="52.878346" lon="-3.384330"><ele>796</ele><time>2020-01-18T11:46:42Z</time><name>PT5939</name></trkpt>
<trkpt lat="52.878353" lon="-3.384317"><ele>796</ele><time>2020-01-18T11:46:44Z</time><name>PT5940</name></trkpt>
<trkpt lat="52.878358" lon="-3.384305"><ele>796</ele><time>2020-01-18T11:46:44Z</time><name>PT5941</name></trkpt>
<trkpt lat="52.878367" lon="-3.384290"><ele>796</ele><time>2020-01-18T11:46:45Z</time><name>PT5942</name></trkpt>
<trkpt lat="52.878374" lon="-3.384277"><ele>795</ele><time>2020-01-18T11:46:47Z</time><name>PT5943</name></trkpt>
<trkpt lat="52.878382" lon="-3.384264"><ele>795</ele><time>2020-01-18T11:46:47Z</time><name>PT5944</name></trkpt>
<trkpt lat="52.878393" lon="-3.384251"><ele>795</ele><time>2020-01-18T11:46:48Z</time><name>PT5945</name></trkpt>
<trkpt lat="52.878402" lon="-3.384238"><ele>795</ele><time>2020-01-18T11:46:50Z</time><name>PT5946</name></trkpt>
<trkpt lat="52.878409" lon="-3.384225"><ele>795</ele><time>2020-01-18T11:46:50Z</time><name>PT5947</name></trkpt>
<trkpt lat="52.878419" lon="-3.384212"><ele>795</ele><time>2020-01-18T11:46:51Z</time><name>PT5948</name></trkpt>
<trkpt lat="52.878428" lon="-3.384201"><ele>795</ele><time>2020-01-18T11:46:53Z</time><name>PT5949</name></trkpt>
<trkpt lat="52.878439" lon="-3.384190"><ele>795</ele><time>2020-01-18T11:46:53Z</time><name>PT5950</name></trkpt>
<trkpt lat="52.878446" lon="-3.384176"><ele>795</ele><time>2020-01-18T11:46:54Z</time><name>PT5951</name></trkpt>
<trkpt lat="52.878453" lon="-3.384161"><ele>795</ele><time>2020-01-18T11:46:56Z</time><name>PT5952</name></trkpt>
<trkpt lat="52.878460" lon="-3.384145"><ele>795</ele><time>2020-01-18T11:46:56Z</time><name>PT5953</name></trkpt>
<trkpt lat="52.878467" lon="-3.384131"><ele>795</ele><time>2020-01-18T11:46:57Z</time><name>PT5954</name></trkpt>
<trkpt lat="52.878476" lon="-3.384118"><ele>795</ele><time>2020-01-18T11:46:59Z</time><name>PT5955</name></trkpt>
<trkpt lat="52.878485" lon="-3.384104"><ele>795</ele><time>2020-01-18T11:46:59Z</time><name>PT5956</name></trkpt>
<trkpt lat="52.878495" lon="-3.384092"><ele>795</ele><time>2020-01-18T11:47:00Z</time><name>PT5957</name></trkpt>
<trkpt lat="52.878505" lon="-3.384078"><ele>795</ele><time>2020-01-18T11:47:02Z</time><name>PT5958</name></trkpt>
<trkpt lat="52.878515" lon="-3.384065"><ele>795</ele><time>2020-01-18T11:47:02Z</time><name>PT5959</name></trkpt>
<trkpt lat="52.878524" lon="-3.384055"><ele>795</ele><time>2020-01-18T11:47:03Z</time><name>PT5960</name></trkpt>
<trkpt lat="52.878532" lon="-3.384044"><ele>795</ele><time>2020-01-18T11:47:05Z</time><name>PT5961</name></trkpt>
<trkpt lat="52.878543" lon="-3.384034"><ele>794</ele><time>2020-01-18T11:47:05Z</time><name>PT5962</name></trkpt>
<trkpt lat="52.878550" lon="-3.384022"><ele>794</ele><time>2020-01-18T11:47:06Z</time><name>PT5963</name></trkpt>
<trkpt lat="52.878560" lon="-3.384012"><ele>794</ele><time>2020-01-18T11:47:08Z</time><name>PT5964</name></trkpt>
<trkpt lat="52.878569" lon="-3.384003"><ele>794</ele><time>2020-01-18T11:47:08Z</time><name>PT5965</name></trkpt>
<trkpt lat="52.878578" lon="-3.383992"><ele>794</ele><time>2020-01-18T11:47:09Z</time><name>PT5966</name></trkpt>
<trkpt lat="52.878589" lon="-3.383982"><ele>794</ele><time>2020-01-18T11:47:11Z</time><name>PT5967</name></trkpt>
<trkpt lat="52.878596" lon="-3.383969"><ele>794</ele><time>2020-01-18T11:47:11Z</time><name>PT5968</name></trkpt>
<trkpt lat="52.878605" lon="-3.383957"><ele>794</ele><time>2020-01-18T11:47:12Z</time><name>PT5969</name></trkpt>
<trkpt lat="52.878614" lon="-3.383947"><ele>794</ele><time>2020-01-18T11:47:14Z</time><name>PT5970</name></trkpt>
<trkpt lat="52.878623" lon="-3.383941"><ele>795</ele><time>2020-01-18T11:47:14Z</time><name>PT5971</name></trkpt>
<trkpt lat="52.878634" lon="-3.383935"><ele>795</ele><time>2020-01-18T11:47:15Z</time><name>PT5972</name></trkpt>
<trkpt lat="52.878641" lon="-3.383932"><ele>795</ele><time>2020-01-18T11:47:17Z</time><name>PT5973</name></trkpt>
<trkpt lat="52.878649" lon="-3.383927"><ele>795</ele><time>2020-01-18T11:47:17Z</time><name>PT5974</name></trkpt>
<trkpt lat="52.878657" lon="-3.383917"><ele>795</ele><time>2020-01-18T11:47:18Z</time><name>PT5975</name></trkpt>
<trkpt lat="52.878664" lon="-3.383909"><ele>795</ele><time>2020-01-18T11:47:20Z</time><name>PT5976</name></trkpt>
<trkpt lat="52.878676" lon="-3.383902"><ele>796</ele><time>2020-01-18T11:47:20Z</time><name>PT5977</name></trkpt>
<trkpt lat="52.878680" lon="-3.383893"><ele>796</ele><time>2020-01-18T11:47:21Z</time><name>PT5978</name></trkpt>
<trkpt lat="52.878689" lon="-3.383883"><ele>796</ele><time>2020-01-18T11:47:23Z</time><name>PT5979</name></trkpt>
<trkpt lat="52.878697" lon="-3.383871"><ele>796</ele><time>2020-01-18T11:47:23Z</time><name>PT5980</name></trkpt>
<trkpt lat="52.878704" lon="-3.383858"><ele>796</ele><time>2020-01-18T11:47:24Z</time><name>PT5981</name></trkpt>
<trkpt lat="52.878710" lon="-3.383843"><ele>796</ele><time>2020-01-18T11:47:26Z</time><name>PT5982</name></trkpt>
<trkpt lat="52.878717" lon="-3.383831"><ele>796</ele><time>2020-01-18T11:47:26Z</time><name>PT5983</name></trkpt>
<trkpt lat="52.878727" lon="-3.383817"><ele>796</ele><time>2020-01-18T11:47:27Z</time><name>PT5984</name></trkpt>
<trkpt lat="52.878735" lon="-3.383804"><ele>796</ele><time>2020-01-18T11:47:29Z</time><name>PT5985</name></trkpt>
<trkpt lat="52.878744" lon="-3.383794"><ele>797</ele><time>2020-01-18T11:47:29Z</time><name>PT5986</name></trkpt>
<trkpt lat="52.878754" lon="-3.383782"><ele>797</ele><time>2020-01-18T11:47:30Z</time><name>PT5987</name></trkpt>
<trkpt lat="52.878767" lon="-3.383771"><ele>797</ele><time>2020-01-18T11:47:32Z</time><name>PT5988</name></trkpt>
<trkpt lat="52.878774" lon="-3.383759"><ele>797</ele><time>2020-01-18T11:47:32Z</time><name>PT5989</name></trkpt>
<trkpt lat="52.878781" lon="-3.383750"><ele>797</ele><time>2020-01-18T11:47:33Z</time><name>PT5990</name></trkpt>
<trkpt lat="52.878788" lon="-3.383743"><ele>797</ele><time>2020-01-18T11:47:35Z</time><name>PT5991</name></trkpt>
<trkpt lat="52.878798" lon="-3.383732"><ele>797</ele><time>2020-01-18T11:47:35Z</time><name>PT5992</name></trkpt>
<trkpt lat="52.878805" lon="-3.383723"><ele>797</ele><time>2020-01-18T11:47:37Z</time><name>PT5993</name></trkpt>
<trkpt lat="52.878816" lon="-3.383713"><ele>798</ele><time>2020-01-18T11:47:38Z</time><name>PT5994</name></trkpt>
<trkpt lat="52.878823" lon="-3.383704"><ele>798</ele><time>2020-01-18T11:47:39Z</time><name>PT5995</name></trkpt>
<trkpt lat="52.878829" lon="-3.383695"><ele>798</ele><time>2020-01-18T11:47:40Z</time><name>PT5996</name></trkpt>
<trkpt lat="52.878839" lon="-3.383686"><ele>798</ele><time>2020-01-18T11:47:41Z</time><name>PT5997</name></trkpt>
<trkpt lat="52.878848" lon="-3.383677"><ele>798</ele><time>2020-01-18T11:47:42Z</time><name>PT5998</name></trkpt>
<trkpt lat="52.878858" lon="-3.383666"><ele>799</ele><time>2020-01-18T11:47:42Z</time><name>PT5999</name></trkpt>
<trkpt lat="52.878866" lon="-3.383657"><ele>799</ele><time>2020-01-18T11:47:44Z</time><name>PT6000</name></trkpt>
<trkpt lat="52.878873" lon="-3.383648"><ele>798</ele><time>2020-01-18T11:47:44Z</time><name>PT6001</name></trkpt>
<trkpt lat="52.878878" lon="-3.383641"><ele>798</ele><time>2020-01-18T11:47:45Z</time><name>PT6002</name></trkpt>
<trkpt lat="52.878890" lon="-3.383631"><ele>798</ele><time>2020-01-18T11:47:47Z</time><name>PT6003</name></trkpt>
<trkpt lat="52.878898" lon="-3.383621"><ele>798</ele><time>2020-01-18T11:47:47Z</time><name>PT6004</name></trkpt>
<trkpt lat="52.878908" lon="-3.383608"><ele>799</ele><time>2020-01-18T11:47:48Z</time><name>PT6005</name></trkpt>
<trkpt lat="52.878919" lon="-3.383596"><ele>800</ele><time>2020-01-18T11:47:50Z</time><name>PT6006</name></trkpt>
<trkpt lat="52.878924" lon="-3.383588"><ele>799</ele><time>2020-01-18T11:47:50Z</time><name>PT6007</name></trkpt>
<trkpt lat="52.878933" lon="-3.383578"><ele>799</ele><time>2020-01-18T11:47:51Z</time><name>PT6008</name></trkpt>
<trkpt lat="52.878942" lon="-3.383567"><ele>799</ele><time>2020-01-18T11:47:53Z</time><name>PT6009</name></trkpt>
<trkpt lat="52.878952" lon="-3.383556"><ele>799</ele><time>2020-01-18T11:47:53Z</time><name>PT6010</name></trkpt>
<trkpt lat="52.878961" lon="-3.383546"><ele>799</ele><time>2020-01-18T11:47:54Z</time><name>PT6011</name></trkpt>
<trkpt lat="52.878971" lon="-3.383531"><ele>800</ele><time>2020-01-18T11:47:56Z</time><name>PT6012</name></trkpt>
<trkpt lat="52.878978" lon="-3.383520"><ele>800</ele><time>2020-01-18T11:47:56Z</time><name>PT6013</name></trkpt>
<trkpt lat="52.878986" lon="-3.383508"><ele>800</ele><time>2020-01-18T11:47:58Z</time><name>PT6014</name></trkpt>
<trkpt lat="52.878995" lon="-3.383494"><ele>800</ele><time>2020-01-18T11:47:59Z</time><name>PT6015</name></trkpt>
<trkpt lat="52.879003" lon="-3.383485"><ele>800</ele><time>2020-01-18T11:47:59Z</time><name>PT6016</name></trkpt>
<trkpt lat="52.879011" lon="-3.383474"><ele>800</ele><time>2020-01-18T11:48:00Z</time><name>PT6017</name></trkpt>
<trkpt lat="52.879020" lon="-3.383462"><ele>800</ele><time>2020-01-18T11:48:02Z</time><name>PT6018</name></trkpt>
<trkpt lat="52.879029" lon="-3.383450"><ele>800</ele><time>2020-01-18T11:48:02Z</time><name>PT6019</name></trkpt>
<trkpt lat="52.879036" lon="-3.383439"><ele>801</ele><time>2020-01-18T11:48:03Z</time><name>PT6020</name></trkpt>
<trkpt lat="52.879042" lon="-3.383430"><ele>801</ele><time>2020-01-18T11:48:05Z</time><name>PT6021</name></trkpt>
<trkpt lat="52.879052" lon="-3.383419"><ele>801</ele><time>2020-01-18T11:48:05Z</time><name>PT6022</name></trkpt>
<trkpt lat="52.879059" lon="-3.383407"><ele>801</ele><time>2020-01-18T11:48:06Z</time><name>PT6023</name></trkpt>
<trkpt lat="52.879065" lon="-3.383400"><ele>801</ele><time>2020-01-18T11:48:08Z</time><name>PT6024</name></trkpt>
<trkpt lat="52.879073" lon="-3.383392"><ele>801</ele><time>2020-01-18T11:48:08Z</time><name>PT6025</name></trkpt>
<trkpt lat="52.879082" lon="-3.383385"><ele>801</ele><time>2020-01-18T11:48:09Z</time><name>PT6026</name></trkpt>
<trkpt lat="52.879091" lon="-3.383380"><ele>801</ele><time>2020-01-18T11:48:11Z</time><name>PT6027</name></trkpt>
<trkpt lat="52.879101" lon="-3.383374"><ele>802</ele><time>2020-01-18T11:48:11Z</time><name>PT6028</name></trkpt>
<trkpt lat="52.879110" lon="-3.383368"><ele>802</ele><time>2020-01-18T11:48:12Z</time><name>PT6029</name></trkpt>
<trkpt lat="52.879119" lon="-3.383362"><ele>802</ele><time>2020-01-18T11:48:14Z</time><name>PT6030</name></trkpt>
<trkpt lat="52.879121" lon="-3.383356"><ele>801</ele><time>2020-01-18T11:48:14Z</time><name>PT6031</name></trkpt>
<trkpt lat="52.879127" lon="-3.383351"><ele>801</ele><time>2020-01-18T11:48:15Z</time><name>PT6032</name></trkpt>
<trkpt lat="52.879131" lon="-3.383345"><ele>801</ele><time>2020-01-18T11:48:17Z</time><name>PT6033</name></trkpt>
<trkpt lat="52.879138" lon="-3.383337"><ele>801</ele><time>2020-01-18T11:48:17Z</time><name>PT6034</name></trkpt>
<trkpt lat="52.879144" lon="-3.383324"><ele>801</ele><time>2020-01-18T11:48:18Z</time><name>PT6035</name></trkpt>
<trkpt lat="52.879150" lon="-3.383317"><ele>801</ele><time>2020-01-18T11:48:20Z</time><name>PT6036</name></trkpt>
<trkpt lat="52.879156" lon="-3.383309"><ele>802</ele><time>2020-01-18T11:48:20Z</time><name>PT6037</name></trkpt>
<trkpt lat="52.879162" lon="-3.383300"><ele>801</ele><time>2020-01-18T11:48:22Z</time><name>PT6038</name></trkpt>
<trkpt lat="52.879166" lon="-3.383290"><ele>801</ele><time>2020-01-18T11:48:23Z</time><name>PT6039</name></trkpt>
<trkpt lat="52.879178" lon="-3.383277"><ele>802</ele><time>2020-01-18T11:48:23Z</time><name>PT6040</name></trkpt>
<trkpt lat="52.879186" lon="-3.383266"><ele>802</ele><time>2020-01-18T11:48:24Z</time><name>PT6041</name></trkpt>
<trkpt lat="52.879193" lon="-3.383258"><ele>802</ele><time>2020-01-18T11:48:26Z</time><name>PT6042</name></trkpt>
<trkpt lat="52.879198" lon="-3.383248"><ele>802</ele><time>2020-01-18T11:48:26Z</time><name>PT6043</name></trkpt>
<trkpt lat="52.879204" lon="-3.383242"><ele>802</ele><time>2020-01-18T11:48:27Z</time><name>PT6044</name></trkpt>
<trkpt lat="52.879213" lon="-3.383237"><ele>802</ele><time>2020-01-18T11:48:29Z</time><name>PT6045</name></trkpt>
<trkpt lat="52.879223" lon="-3.383231"><ele>803</ele><time>2020-01-18T11:48:29Z</time><name>PT6046</name></trkpt>
<trkpt lat="52.879230" lon="-3.383222"><ele>803</ele><time>2020-01-18T11:48:30Z</time><name>PT6047</name></trkpt>
<trkpt lat="52.879236" lon="-3.383213"><ele>803</ele><time>2020-01-18T11:48:32Z</time><name>PT6048</name></trkpt>
<trkpt lat="52.879243" lon="-3.383205"><ele>803</ele><time>2020-01-18T11:48:32Z</time><name>PT6049</name></trkpt>
<trkpt lat="52.879250" lon="-3.383198"><ele>803</ele><time>2020-01-18T11:48:33Z</time><name>PT6050</name></trkpt>
<trkpt lat="52.879254" lon="-3.383189"><ele>803</ele><time>2020-01-18T11:48:35Z</time><name>PT6051</name></trkpt>
<trkpt lat="52.879260" lon="-3.383181"><ele>803</ele><time>2020-01-18T11:48:35Z</time><name>PT6052</name></trkpt>
<trkpt lat="52.879268" lon="-3.383171"><ele>803</ele><time>2020-01-18T11:48:36Z</time><name>PT6053</name></trkpt>
<trkpt lat="52.879275" lon="-3.383164"><ele>804</ele><time>2020-01-18T11:48:38Z</time><name>PT6054</name></trkpt>
<trkpt lat="52.879281" lon="-3.383155"><ele>804</ele><time>2020-01-18T11:48:39Z</time><name>PT6055</name></trkpt>
<trkpt lat="52.879286" lon="-3.383145"><ele>805</ele><time>2020-01-18T11:48:40Z</time><name>PT6056</name></trkpt>
<trkpt lat="52.879289" lon="-3.383136"><ele>805</ele><time>2020-01-18T11:48:41Z</time><name>PT6057</name></trkpt>
<trkpt lat="52.879292" lon="-3.383129"><ele>805</ele><time>2020-01-18T11:48:42Z</time><name>PT6058</name></trkpt>
<trkpt lat="52.879301" lon="-3.383118"><ele>805</ele><time>2020-01-18T11:48:43Z</time><name>PT6059</name></trkpt>
<trkpt lat="52.879309" lon="-3.383109"><ele>805</ele><time>2020-01-18T11:48:44Z</time><name>PT6060</name></trkpt>
<trkpt lat="52.879313" lon="-3.383101"><ele>805</ele><time>2020-01-18T11:48:45Z</time><name>PT6061</name></trkpt>
<trkpt lat="52.879318" lon="-3.383093"><ele>806</ele><time>2020-01-18T11:48:45Z</time><name>PT6062</name></trkpt>
<trkpt lat="52.879322" lon="-3.383083"><ele>806</ele><time>2020-01-18T11:48:47Z</time><name>PT6063</name></trkpt>
<trkpt lat="52.879328" lon="-3.383073"><ele>806</ele><time>2020-01-18T11:48:48Z</time><name>PT6064</name></trkpt>
<trkpt lat="52.879333" lon="-3.383064"><ele>806</ele><time>2020-01-18T11:48:49Z</time><name>PT6065</name></trkpt>
<trkpt lat="52.879339" lon="-3.383055"><ele>806</ele><time>2020-01-18T11:48:50Z</time><name>PT6066</name></trkpt>
<trkpt lat="52.879343" lon="-3.383046"><ele>806</ele><time>2020-01-18T11:48:50Z</time><name>PT6067</name></trkpt>
<trkpt lat="52.879349" lon="-3.383035"><ele>806</ele><time>2020-01-18T11:48:51Z</time><name>PT6068</name></trkpt>
<trkpt lat="52.879354" lon="-3.383025"><ele>807</ele><time>2020-01-18T11:48:53Z</time><name>PT6069</name></trkpt>
<trkpt lat="52.879359" lon="-3.383013"><ele>807</ele><time>2020-01-18T11:48:53Z</time><name>PT6070</name></trkpt>
<trkpt lat="52.879364" lon="-3.383002"><ele>807</ele><time>2020-01-18T11:48:54Z</time><name>PT6071</name></trkpt>
<trkpt lat="52.879369" lon="-3.382993"><ele>808</ele><time>2020-01-18T11:48:56Z</time><name>PT6072</name></trkpt>
<trkpt lat="52.879376" lon="-3.382983"><ele>808</ele><time>2020-01-18T11:48:56Z</time><name>PT6073</name></trkpt>
<trkpt lat="52.879378" lon="-3.382975"><ele>808</ele><time>2020-01-18T11:48:57Z</time><name>PT6074</name></trkpt>
<trkpt lat="52.879385" lon="-3.382965"><ele>808</ele><time>2020-01-18T11:48:59Z</time><name>PT6075</name></trkpt>
<trkpt lat="52.879391" lon="-3.382956"><ele>808</ele><time>2020-01-18T11:48:59Z</time><name>PT6076</name></trkpt>
<trkpt lat="52.879398" lon="-3.382945"><ele>808</ele><time>2020-01-18T11:49:00Z</time><name>PT6077</name></trkpt>
<trkpt lat="52.879405" lon="-3.382933"><ele>808</ele><time>2020-01-18T11:49:02Z</time><name>PT6078</name></trkpt>
<trkpt lat="52.879414" lon="-3.382922"><ele>809</ele><time>2020-01-18T11:49:02Z</time><name>PT6079</name></trkpt>
<trkpt lat="52.879420" lon="-3.382914"><ele>809</ele><time>2020-01-18T11:49:03Z</time><name>PT6080</name></trkpt>
<trkpt lat="52.879428" lon="-3.382904"><ele>809</ele><time>2020-01-18T11:49:05Z</time><name>PT6081</name></trkpt>
<trkpt lat="52.879433" lon="-3.382896"><ele>809</ele><time>2020-01-18T11:49:05Z</time><name>PT6082</name></trkpt>
<trkpt lat="52.879441" lon="-3.382887"><ele>809</ele><time>2020-01-18T11:49:06Z</time><name>PT6083</name></trkpt>
<trkpt lat="52.879447" lon="-3.382876"><ele>809</ele><time>2020-01-18T11:49:08Z</time><name>PT6084</name></trkpt>
<trkpt lat="52.879453" lon="-3.382867"><ele>809</ele><time>2020-01-18T11:49:08Z</time><name>PT6085</name></trkpt>
<trkpt lat="52.879461" lon="-3.382854"><ele>810</ele><time>2020-01-18T11:49:09Z</time><name>PT6086</name></trkpt>
<trkpt lat="52.879469" lon="-3.382845"><ele>810</ele><time>2020-01-18T11:49:11Z</time><name>PT6087</name></trkpt>
<trkpt lat="52.879478" lon="-3.382837"><ele>810</ele><time>2020-01-18T11:49:11Z</time><name>PT6088</name></trkpt>
<trkpt lat="52.879486" lon="-3.382828"><ele>810</ele><time>2020-01-18T11:49:12Z</time><name>PT6089</name></trkpt>
<trkpt lat="52.879494" lon="-3.382816"><ele>811</ele><time>2020-01-18T11:49:14Z</time><name>PT6090</name></trkpt>
<trkpt lat="52.879500" lon="-3.382806"><ele>811</ele><time>2020-01-18T11:49:14Z</time><name>PT6091</name></trkpt>
<trkpt lat="52.879507" lon="-3.382798"><ele>811</ele><time>2020-01-18T11:49:15Z</time><name>PT6092</name></trkpt>
<trkpt lat="52.879513" lon="-3.382791"><ele>811</ele><time>2020-01-18T11:49:17Z</time><name>PT6093</name></trkpt>
<trkpt lat="52.879519" lon="-3.382784"><ele>811</ele><time>2020-01-18T11:49:18Z</time><name>PT6094</name></trkpt>
<trkpt lat="52.879523" lon="-3.382775"><ele>811</ele><time>2020-01-18T11:49:18Z</time><name>PT6095</name></trkpt>
<trkpt lat="52.879528" lon="-3.382768"><ele>811</ele><time>2020-01-18T11:49:20Z</time><name>PT6096</name></trkpt>
<trkpt lat="52.879534" lon="-3.382763"><ele>810</ele><time>2020-01-18T11:49:20Z</time><name>PT6097</name></trkpt>
<trkpt lat="52.879539" lon="-3.382757"><ele>811</ele><time>2020-01-18T11:49:21Z</time><name>PT6098</name></trkpt>
<trkpt lat="52.879542" lon="-3.382748"><ele>810</ele><time>2020-01-18T11:49:23Z</time><name>PT6099</name></trkpt>
<trkpt lat="52.879547" lon="-3.382743"><ele>810</ele><time>2020-01-18T11:49:24Z</time><name>PT6100</name></trkpt>
<trkpt lat="52.879555" lon="-3.382736"><ele>810</ele><time>2020-01-18T11:49:25Z</time><name>PT6101</name></trkpt>
<trkpt lat="52.879560" lon="-3.382730"><ele>811</ele><time>2020-01-18T11:49:26Z</time><name>PT6102</name></trkpt>
<trkpt lat="52.879567" lon="-3.382726"><ele>811</ele><time>2020-01-18T11:49:26Z</time><name>PT6103</name></trkpt>
<trkpt lat="52.879567" lon="-3.382721"><ele>811</ele><time>2020-01-18T11:49:27Z</time><name>PT6104</name></trkpt>
<trkpt lat="52.879568" lon="-3.382720"><ele>811</ele><time>2020-01-18T11:49:29Z</time><name>PT6105</name></trkpt>
<trkpt lat="52.879567" lon="-3.382722"><ele>811</ele><time>2020-01-18T11:49:29Z</time><name>PT6106</name></trkpt>
<trkpt lat="52.879572" lon="-3.382704"><ele>810</ele><time>2020-01-18T11:49:35Z</time><name>PT6107</name></trkpt>
<trkpt lat="52.879580" lon="-3.382700"><ele>810</ele><time>2020-01-18T11:49:35Z</time><name>PT6108</name></trkpt>
<trkpt lat="52.879589" lon="-3.382691"><ele>810</ele><time>2020-01-18T11:49:36Z</time><name>PT6109</name></trkpt>
<trkpt lat="52.879594" lon="-3.382685"><ele>810</ele><time>2020-01-18T11:49:38Z</time><name>PT6110</name></trkpt>
<trkpt lat="52.879603" lon="-3.382675"><ele>811</ele><time>2020-01-18T11:49:38Z</time><name>PT6111</name></trkpt>
<trkpt lat="52.879608" lon="-3.382666"><ele>811</ele><time>2020-01-18T11:49:39Z</time><name>PT6112</name></trkpt>
<trkpt lat="52.879613" lon="-3.382653"><ele>812</ele><time>2020-01-18T11:49:41Z</time><name>PT6113</name></trkpt>
<trkpt lat="52.879619" lon="-3.382646"><ele>812</ele><time>2020-01-18T11:49:41Z</time><name>PT6114</name></trkpt>
<trkpt lat="52.879624" lon="-3.382641"><ele>812</ele><time>2020-01-18T11:49:42Z</time><name>PT6115</name></trkpt>
<trkpt lat="52.879632" lon="-3.382636"><ele>813</ele><time>2020-01-18T11:49:44Z</time><name>PT6116</name></trkpt>
<trkpt lat="52.879638" lon="-3.382630"><ele>813</ele><time>2020-01-18T11:49:44Z</time><name>PT6117</name></trkpt>
<trkpt lat="52.879645" lon="-3.382626"><ele>813</ele><time>2020-01-18T11:49:46Z</time><name>PT6118</name></trkpt>
<trkpt lat="52.879652" lon="-3.382623"><ele>814</ele><time>2020-01-18T11:49:47Z</time><name>PT6119</name></trkpt>
<trkpt lat="52.879657" lon="-3.382619"><ele>814</ele><time>2020-01-18T11:49:47Z</time><name>PT6120</name></trkpt>
<trkpt lat="52.879663" lon="-3.382615"><ele>814</ele><time>2020-01-18T11:49:49Z</time><name>PT6121</name></trkpt>
<trkpt lat="52.879668" lon="-3.382610"><ele>815</ele><time>2020-01-18T11:49:50Z</time><name>PT6122</name></trkpt>
<trkpt lat="52.879674" lon="-3.382606"><ele>815</ele><time>2020-01-18T11:49:50Z</time><name>PT6123</name></trkpt>
<trkpt lat="52.879679" lon="-3.382602"><ele>815</ele><time>2020-01-18T11:49:51Z</time><name>PT6124</name></trkpt>
<trkpt lat="52.879684" lon="-3.382595"><ele>815</ele><time>2020-01-18T11:49:53Z</time><name>PT6125</name></trkpt>
<trkpt lat="52.879690" lon="-3.382586"><ele>815</ele><time>2020-01-18T11:49:53Z</time><name>PT6126</name></trkpt>
<trkpt lat="52.879696" lon="-3.382575"><ele>816</ele><time>2020-01-18T11:49:54Z</time><name>PT6127</name></trkpt>
<trkpt lat="52.879703" lon="-3.382567"><ele>816</ele><time>2020-01-18T11:49:56Z</time><name>PT6128</name></trkpt>
<trkpt lat="52.879707" lon="-3.382557"><ele>816</ele><time>2020-01-18T11:49:56Z</time><name>PT6129</name></trkpt>
<trkpt lat="52.879714" lon="-3.382549"><ele>816</ele><time>2020-01-18T11:49:57Z</time><name>PT6130</name></trkpt>
<trkpt lat="52.879721" lon="-3.382540"><ele>816</ele><time>2020-01-18T11:49:59Z</time><name>PT6131</name></trkpt>
<trkpt lat="52.879727" lon="-3.382527"><ele>816</ele><time>2020-01-18T11:49:59Z</time><name>PT6132</name></trkpt>
<trkpt lat="52.879729" lon="-3.382514"><ele>816</ele><time>2020-01-18T11:50:00Z</time><name>PT6133</name></trkpt>
<trkpt lat="52.879736" lon="-3.382503"><ele>816</ele><time>2020-01-18T11:50:02Z</time><name>PT6134</name></trkpt>
<trkpt lat="52.879743" lon="-3.382494"><ele>816</ele><time>2020-01-18T11:50:02Z</time><name>PT6135</name></trkpt>
<trkpt lat="52.879748" lon="-3.382485"><ele>816</ele><time>2020-01-18T11:50:03Z</time><name>PT6136</name></trkpt>
<trkpt lat="52.879752" lon="-3.382471"><ele>816</ele><time>2020-01-18T11:50:05Z</time><name>PT6137</name></trkpt>
<trkpt lat="52.879762" lon="-3.382459"><ele>817</ele><time>2020-01-18T11:50:05Z</time><name>PT6138</name></trkpt>
<trkpt lat="52.879769" lon="-3.382446"><ele>817</ele><time>2020-01-18T11:50:06Z</time><name>PT6139</name></trkpt>
<trkpt lat="52.879776" lon="-3.382431"><ele>817</ele><time>2020-01-18T11:50:08Z</time><name>PT6140</name></trkpt>
<trkpt lat="52.879782" lon="-3.382416"><ele>817</ele><time>2020-01-18T11:50:08Z</time><name>PT6141</name></trkpt>
<trkpt lat="52.879784" lon="-3.382399"><ele>817</ele><time>2020-01-18T11:50:09Z</time><name>PT6142</name></trkpt>
<trkpt lat="52.879789" lon="-3.382382"><ele>817</ele><time>2020-01-18T11:50:11Z</time><name>PT6143</name></trkpt>
<trkpt lat="52.879793" lon="-3.382372"><ele>817</ele><time>2020-01-18T11:50:11Z</time><name>PT6144</name></trkpt>
<trkpt lat="52.879802" lon="-3.382361"><ele>817</ele><time>2020-01-18T11:50:12Z</time><name>PT6145</name></trkpt>
<trkpt lat="52.879808" lon="-3.382351"><ele>817</ele><time>2020-01-18T11:50:14Z</time><name>PT6146</name></trkpt>
<trkpt lat="52.879815" lon="-3.382339"><ele>817</ele><time>2020-01-18T11:50:14Z</time><name>PT6147</name></trkpt>
<trkpt lat="52.879825" lon="-3.382322"><ele>817</ele><time>2020-01-18T11:50:15Z</time><name>PT6148</name></trkpt>
<trkpt lat="52.879832" lon="-3.382309"><ele>817</ele><time>2020-01-18T11:50:17Z</time><name>PT6149</name></trkpt>
<trkpt lat="52.879842" lon="-3.382295"><ele>818</ele><time>2020-01-18T11:50:17Z</time><name>PT6150</name></trkpt>
<trkpt lat="52.879853" lon="-3.382279"><ele>818</ele><time>2020-01-18T11:50:18Z</time><name>PT6151</name></trkpt>
<trkpt lat="52.879860" lon="-3.382269"><ele>818</ele><time>2020-01-18T11:50:20Z</time><name>PT6152</name></trkpt>
<trkpt lat="52.879866" lon="-3.382257"><ele>818</ele><time>2020-01-18T11:50:20Z</time><name>PT6153</name></trkpt>
<trkpt lat="52.879873" lon="-3.382243"><ele>818</ele><time>2020-01-18T11:50:21Z</time><name>PT6154</name></trkpt>
<trkpt lat="52.879879" lon="-3.382231"><ele>818</ele><time>2020-01-18T11:50:23Z</time><name>PT6155</name></trkpt>
<trkpt lat="52.879888" lon="-3.382216"><ele>818</ele><time>2020-01-18T11:50:23Z</time><name>PT6156</name></trkpt>
<trkpt lat="52.879896" lon="-3.382199"><ele>819</ele><time>2020-01-18T11:50:24Z</time><name>PT6157</name></trkpt>
<trkpt lat="52.879903" lon="-3.382187"><ele>819</ele><time>2020-01-18T11:50:26Z</time><name>PT6158</name></trkpt>
<trkpt lat="52.879909" lon="-3.382175"><ele>819</ele><time>2020-01-18T11:50:26Z</time><name>PT6159</name></trkpt>
<trkpt lat="52.879920" lon="-3.382163"><ele>820</ele><time>2020-01-18T11:50:27Z</time><name>PT6160</name></trkpt>
<trkpt lat="52.879928" lon="-3.382154"><ele>820</ele><time>2020-01-18T11:50:29Z</time><name>PT6161</name></trkpt>
<trkpt lat="52.879937" lon="-3.382145"><ele>820</ele><time>2020-01-18T11:50:29Z</time><name>PT6162</name></trkpt>
<trkpt lat="52.879944" lon="-3.382134"><ele>820</ele><time>2020-01-18T11:50:30Z</time><name>PT6163</name></trkpt>
<trkpt lat="52.879952" lon="-3.382120"><ele>820</ele><time>2020-01-18T11:50:32Z</time><name>PT6164</name></trkpt>
<trkpt lat="52.879961" lon="-3.382106"><ele>820</ele><time>2020-01-18T11:50:32Z</time><name>PT6165</name></trkpt>
<trkpt lat="52.879969" lon="-3.382097"><ele>821</ele><time>2020-01-18T11:50:33Z</time><name>PT6166</name></trkpt>
<trkpt lat="52.879976" lon="-3.382085"><ele>821</ele><time>2020-01-18T11:50:35Z</time><name>PT6167</name></trkpt>
<trkpt lat="52.879984" lon="-3.382074"><ele>821</ele><time>2020-01-18T11:50:35Z</time><name>PT6168</name></trkpt>
<trkpt lat="52.879993" lon="-3.382061"><ele>821</ele><time>2020-01-18T11:50:36Z</time><name>PT6169</name></trkpt>
<trkpt lat="52.880002" lon="-3.382048"><ele>821</ele><time>2020-01-18T11:50:38Z</time><name>PT6170</name></trkpt>
<trkpt lat="52.880009" lon="-3.382036"><ele>821</ele><time>2020-01-18T11:50:38Z</time><name>PT6171</name></trkpt>
<trkpt lat="52.880017" lon="-3.382025"><ele>821</ele><time>2020-01-18T11:50:39Z</time><name>PT6172</name></trkpt>
<trkpt lat="52.880023" lon="-3.382012"><ele>821</ele><time>2020-01-18T11:50:41Z</time><name>PT6173</name></trkpt>
<trkpt lat="52.880028" lon="-3.382002"><ele>820</ele><time>2020-01-18T11:50:41Z</time><name>PT6174</name></trkpt>
<trkpt lat="52.880035" lon="-3.381991"><ele>821</ele><time>2020-01-18T11:50:43Z</time><name>PT6175</name></trkpt>
<trkpt lat="52.880044" lon="-3.381980"><ele>821</ele><time>2020-01-18T11:50:44Z</time><name>PT6176</name></trkpt>
<trkpt lat="52.880053" lon="-3.381969"><ele>821</ele><time>2020-01-18T11:50:44Z</time><name>PT6177</name></trkpt>
<trkpt lat="52.880060" lon="-3.381957"><ele>821</ele><time>2020-01-18T11:50:45Z</time><name>PT6178</name></trkpt>
<trkpt lat="52.880064" lon="-3.381948"><ele>820</ele><time>2020-01-18T11:50:47Z</time><name>PT6179</name></trkpt>
<trkpt lat="52.880071" lon="-3.381936"><ele>821</ele><time>2020-01-18T11:50:47Z</time><name>PT6180</name></trkpt>
<trkpt lat="52.880078" lon="-3.381927"><ele>821</ele><time>2020-01-18T11:50:48Z</time><name>PT6181</name></trkpt>
<trkpt lat="52.880081" lon="-3.381917"><ele>820</ele><time>2020-01-18T11:50:50Z</time><name>PT6182</name></trkpt>
<trkpt lat="52.880087" lon="-3.381911"><ele>820</ele><time>2020-01-18T11:50:50Z</time><name>PT6183</name></trkpt>
<trkpt lat="52.880096" lon="-3.381904"><ele>820</ele><time>2020-01-18T11:50:51Z</time><name>PT6184</name></trkpt>
<trkpt lat="52.880098" lon="-3.381896"><ele>820</ele><time>2020-01-18T11:50:53Z</time><name>PT6185</name></trkpt>
<trkpt lat="52.880104" lon="-3.381892"><ele>821</ele><time>2020-01-18T11:50:53Z</time><name>PT6186</name></trkpt>
<trkpt lat="52.880102" lon="-3.381889"><ele>821</ele><time>2020-01-18T11:50:54Z</time><name>PT6187</name></trkpt>
<trkpt lat="52.880101" lon="-3.381884"><ele>820</ele><time>2020-01-18T11:50:56Z</time><name>PT6188</name></trkpt>
<trkpt lat="52.880101" lon="-3.381881"><ele>820</ele><time>2020-01-18T11:50:56Z</time><name>PT6189</name></trkpt>
<trkpt lat="52.880105" lon="-3.381879"><ele>820</ele><time>2020-01-18T11:50:57Z</time><name>PT6190</name></trkpt>
<trkpt lat="52.880111" lon="-3.381866"><ele>820</ele><time>2020-01-18T11:50:59Z</time><name>PT6191</name></trkpt>
<trkpt lat="52.880115" lon="-3.381857"><ele>820</ele><time>2020-01-18T11:50:59Z</time><name>PT6192</name></trkpt>
<trkpt lat="52.880120" lon="-3.381859"><ele>821</ele><time>2020-01-18T11:51:00Z</time><name>PT6193</name></trkpt>
<trkpt lat="52.880122" lon="-3.381860"><ele>821</ele><time>2020-01-18T11:51:02Z</time><name>PT6194</name></trkpt>
<trkpt lat="52.880127" lon="-3.381855"><ele>821</ele><time>2020-01-18T11:51:03Z</time><name>PT6195</name></trkpt>
<trkpt lat="52.880133" lon="-3.381846"><ele>821</ele><time>2020-01-18T11:51:03Z</time><name>PT6196</name></trkpt>
<trkpt lat="52.880143" lon="-3.381838"><ele>822</ele><time>2020-01-18T11:51:05Z</time><name>PT6197</name></trkpt>
<trkpt lat="52.880152" lon="-3.381829"><ele>822</ele><time>2020-01-18T11:51:06Z</time><name>PT6198</name></trkpt>
<trkpt lat="52.880159" lon="-3.381819"><ele>822</ele><time>2020-01-18T11:51:07Z</time><name>PT6199</name></trkpt>
<trkpt lat="52.880167" lon="-3.381808"><ele>822</ele><time>2020-01-18T11:51:08Z</time><name>PT6200</name></trkpt>
<trkpt lat="52.880175" lon="-3.381797"><ele>822</ele><time>2020-01-18T11:51:09Z</time><name>PT6201</name></trkpt>
<trkpt lat="52.880180" lon="-3.381789"><ele>822</ele><time>2020-01-18T11:51:10Z</time><name>PT6202</name></trkpt>
<trkpt lat="52.880187" lon="-3.381779"><ele>822</ele><time>2020-01-18T11:51:11Z</time><name>PT6203</name></trkpt>
<trkpt lat="52.880196" lon="-3.381770"><ele>823</ele><time>2020-01-18T11:51:11Z</time><name>PT6204</name></trkpt>
<trkpt lat="52.880202" lon="-3.381762"><ele>822</ele><time>2020-01-18T11:51:13Z</time><name>PT6205</name></trkpt>
<trkpt lat="52.880210" lon="-3.381750"><ele>823</ele><time>2020-01-18T11:51:14Z</time><name>PT6206</name></trkpt>
<trkpt lat="52.880217" lon="-3.381737"><ele>823</ele><time>2020-01-18T11:51:14Z</time><name>PT6207</name></trkpt>
<trkpt lat="52.880223" lon="-3.381725"><ele>823</ele><time>2020-01-18T11:51:15Z</time><name>PT6208</name></trkpt>
<trkpt lat="52.880229" lon="-3.381714"><ele>823</ele><time>2020-01-18T11:51:17Z</time><name>PT6209</name></trkpt>
<trkpt lat="52.880231" lon="-3.381704"><ele>823</ele><time>2020-01-18T11:51:17Z</time><name>PT6210</name></trkpt>
<trkpt lat="52.880235" lon="-3.381695"><ele>823</ele><time>2020-01-18T11:51:18Z</time><name>PT6211</name></trkpt>
<trkpt lat="52.880239" lon="-3.381683"><ele>823</ele><time>2020-01-18T11:51:20Z</time><name>PT6212</name></trkpt>
<trkpt lat="52.880244" lon="-3.381671"><ele>823</ele><time>2020-01-18T11:51:20Z</time><name>PT6213</name></trkpt>
<trkpt lat="52.880249" lon="-3.381661"><ele>823</ele><time>2020-01-18T11:51:21Z</time><name>PT6214</name></trkpt>
<trkpt lat="52.880256" lon="-3.381651"><ele>823</ele><time>2020-01-18T11:51:23Z</time><name>PT6215</name></trkpt>
<trkpt lat="52.880260" lon="-3.381640"><ele>823</ele><time>2020-01-18T11:51:23Z</time><name>PT6216</name></trkpt>
<trkpt lat="52.880264" lon="-3.381632"><ele>823</ele><time>2020-01-18T11:51:24Z</time><name>PT6217</name></trkpt>
<trkpt lat="52.880269" lon="-3.381621"><ele>823</ele><time>2020-01-18T11:51:26Z</time><name>PT6218</name></trkpt>
<trkpt lat="52.880274" lon="-3.381610"><ele>823</ele><time>2020-01-18T11:51:26Z</time><name>PT6219</name></trkpt>
<trkpt lat="52.880281" lon="-3.381599"><ele>824</ele><time>2020-01-18T11:51:27Z</time><name>PT6220</name></trkpt>
<trkpt lat="52.880287" lon="-3.381587"><ele>824</ele><time>2020-01-18T11:51:29Z</time><name>PT6221</name></trkpt>
<trkpt lat="52.880290" lon="-3.381579"><ele>824</ele><time>2020-01-18T11:51:29Z</time><name>PT6222</name></trkpt>
<trkpt lat="52.880296" lon="-3.381569"><ele>825</ele><time>2020-01-18T11:51:30Z</time><name>PT6223</name></trkpt>
<trkpt lat="52.880301" lon="-3.381555"><ele>825</ele><time>2020-01-18T11:51:32Z</time><name>PT6224</name></trkpt>
<trkpt lat="52.880307" lon="-3.381542"><ele>825</ele><time>2020-01-18T11:51:32Z</time><name>PT6225</name></trkpt>
<trkpt lat="52.880309" lon="-3.381529"><ele>825</ele><time>2020-01-18T11:51:33Z</time><name>PT6226</name></trkpt>
<trkpt lat="52.880313" lon="-3.381519"><ele>826</ele><time>2020-01-18T11:51:35Z</time><name>PT6227</name></trkpt>
<trkpt lat="52.880319" lon="-3.381511"><ele>826</ele><time>2020-01-18T11:51:35Z</time><name>PT6228</name></trkpt>
<trkpt lat="52.880323" lon="-3.381499"><ele>826</ele><time>2020-01-18T11:51:36Z</time><name>PT6229</name></trkpt>
<trkpt lat="52.880326" lon="-3.381488"><ele>826</ele><time>2020-01-18T11:51:38Z</time><name>PT6230</name></trkpt>
<trkpt lat="52.880331" lon="-3.381479"><ele>826</ele><time>2020-01-18T11:51:38Z</time><name>PT6231</name></trkpt>
<trkpt lat="52.880338" lon="-3.381472"><ele>826</ele><time>2020-01-18T11:51:39Z</time><name>PT6232</name></trkpt>
<trkpt lat="52.880342" lon="-3.381463"><ele>826</ele><time>2020-01-18T11:51:41Z</time><name>PT6233</name></trkpt>
<trkpt lat="52.880346" lon="-3.381454"><ele>826</ele><time>2020-01-18T11:51:41Z</time><name>PT6234</name></trkpt>
<trkpt lat="52.880351" lon="-3.381444"><ele>827</ele><time>2020-01-18T11:51:42Z</time><name>PT6235</name></trkpt>
<trkpt lat="52.880358" lon="-3.381434"><ele>827</ele><time>2020-01-18T11:51:44Z</time><name>PT6236</name></trkpt>
<trkpt lat="52.880364" lon="-3.381428"><ele>828</ele><time>2020-01-18T11:51:44Z</time><name>PT6237</name></trkpt>
<trkpt lat="52.880371" lon="-3.381421"><ele>828</ele><time>2020-01-18T11:51:46Z</time><name>PT6238</name></trkpt>
<trkpt lat="52.880378" lon="-3.381412"><ele>829</ele><time>2020-01-18T11:51:47Z</time><name>PT6239</name></trkpt>
<trkpt lat="52.880383" lon="-3.381406"><ele>829</ele><time>2020-01-18T11:51:48Z</time><name>PT6240</name></trkpt>
<trkpt lat="52.880388" lon="-3.381398"><ele>829</ele><time>2020-01-18T11:51:49Z</time><name>PT6241</name></trkpt>
<trkpt lat="52.880393" lon="-3.381392"><ele>829</ele><time>2020-01-18T11:51:50Z</time><name>PT6242</name></trkpt>
<trkpt lat="52.880397" lon="-3.381383"><ele>829</ele><time>2020-01-18T11:51:50Z</time><name>PT6243</name></trkpt>
<trkpt lat="52.880403" lon="-3.381374"><ele>829</ele><time>2020-01-18T11:51:52Z</time><name>PT6244</name></trkpt>
<trkpt lat="52.880405" lon="-3.381365"><ele>829</ele><time>2020-01-18T11:51:53Z</time><name>PT6245</name></trkpt>
<trkpt lat="52.880408" lon="-3.381355"><ele>829</ele><time>2020-01-18T11:51:54Z</time><name>PT6246</name></trkpt>
<trkpt lat="52.880413" lon="-3.381344"><ele>829</ele><time>2020-01-18T11:51:55Z</time><name>PT6247</name></trkpt>
<trkpt lat="52.880416" lon="-3.381335"><ele>830</ele><time>2020-01-18T11:51:56Z</time><name>PT6248</name></trkpt>
<trkpt lat="52.880418" lon="-3.381324"><ele>830</ele><time>2020-01-18T11:51:56Z</time><name>PT6249</name></trkpt>
<trkpt lat="52.880422" lon="-3.381316"><ele>830</ele><time>2020-01-18T11:51:57Z</time><name>PT6250</name></trkpt>
<trkpt lat="52.880426" lon="-3.381305"><ele>830</ele><time>2020-01-18T11:51:59Z</time><name>PT6251</name></trkpt>
<trkpt lat="52.880428" lon="-3.381295"><ele>830</ele><time>2020-01-18T11:51:59Z</time><name>PT6252</name></trkpt>
<trkpt lat="52.880432" lon="-3.381286"><ele>831</ele><time>2020-01-18T11:52:00Z</time><name>PT6253</name></trkpt>
<trkpt lat="52.880433" lon="-3.381275"><ele>831</ele><time>2020-01-18T11:52:02Z</time><name>PT6254</name></trkpt>
<trkpt lat="52.880434" lon="-3.381267"><ele>831</ele><time>2020-01-18T11:52:02Z</time><name>PT6255</name></trkpt>
<trkpt lat="52.880438" lon="-3.381259"><ele>831</ele><time>2020-01-18T11:52:03Z</time><name>PT6256</name></trkpt>
<trkpt lat="52.880442" lon="-3.381252"><ele>831</ele><time>2020-01-18T11:52:05Z</time><name>PT6257</name></trkpt>
<trkpt lat="52.880447" lon="-3.381244"><ele>831</ele><time>2020-01-18T11:52:05Z</time><name>PT6258</name></trkpt>
<trkpt lat="52.880452" lon="-3.381236"><ele>831</ele><time>2020-01-18T11:52:06Z</time><name>PT6259</name></trkpt>
<trkpt lat="52.880457" lon="-3.381226"><ele>831</ele><time>2020-01-18T11:52:08Z</time><name>PT6260</name></trkpt>
<trkpt lat="52.880463" lon="-3.381216"><ele>832</ele><time>2020-01-18T11:52:08Z</time><name>PT6261</name></trkpt>
<trkpt lat="52.880469" lon="-3.381211"><ele>832</ele><time>2020-01-18T11:52:09Z</time><name>PT6262</name></trkpt>
<trkpt lat="52.880478" lon="-3.381203"><ele>832</ele><time>2020-01-18T11:52:11Z</time><name>PT6263</name></trkpt>
<trkpt lat="52.880484" lon="-3.381194"><ele>832</ele><time>2020-01-18T11:52:11Z</time><name>PT6264</name></trkpt>
<trkpt lat="52.880491" lon="-3.381185"><ele>832</ele><time>2020-01-18T11:52:12Z</time><name>PT6265</name></trkpt>
<trkpt lat="52.880497" lon="-3.381175"><ele>832</ele><time>2020-01-18T11:52:14Z</time><name>PT6266</name></trkpt>
<trkpt lat="52.880506" lon="-3.381163"><ele>833</ele><time>2020-01-18T11:52:15Z</time><name>PT6267</name></trkpt>
<trkpt lat="52.880512" lon="-3.381157"><ele>833</ele><time>2020-01-18T11:52:15Z</time><name>PT6268</name></trkpt>
<trkpt lat="52.880519" lon="-3.381148"><ele>833</ele><time>2020-01-18T11:52:17Z</time><name>PT6269</name></trkpt>
<trkpt lat="52.880525" lon="-3.381142"><ele>833</ele><time>2020-01-18T11:52:18Z</time><name>PT6270</name></trkpt>
<trkpt lat="52.880532" lon="-3.381134"><ele>834</ele><time>2020-01-18T11:52:18Z</time><name>PT6271</name></trkpt>
<trkpt lat="52.880539" lon="-3.381128"><ele>834</ele><time>2020-01-18T11:52:20Z</time><name>PT6272</name></trkpt>
<trkpt lat="52.880545" lon="-3.381120"><ele>834</ele><time>2020-01-18T11:52:21Z</time><name>PT6273</name></trkpt>
<trkpt lat="52.880551" lon="-3.381112"><ele>835</ele><time>2020-01-18T11:52:22Z</time><name>PT6274</name></trkpt>
<trkpt lat="52.880556" lon="-3.381104"><ele>835</ele><time>2020-01-18T11:52:23Z</time><name>PT6275</name></trkpt>
<trkpt lat="52.880560" lon="-3.381097"><ele>835</ele><time>2020-01-18T11:52:23Z</time><name>PT6276</name></trkpt>
<trkpt lat="52.880562" lon="-3.381090"><ele>835</ele><time>2020-01-18T11:52:24Z</time><name>PT6277</name></trkpt>
<trkpt lat="52.880564" lon="-3.381081"><ele>835</ele><time>2020-01-18T11:52:26Z</time><name>PT6278</name></trkpt>
<trkpt lat="52.880568" lon="-3.381075"><ele>835</ele><time>2020-01-18T11:52:26Z</time><name>PT6279</name></trkpt>
<trkpt lat="52.880570" lon="-3.381066"><ele>835</ele><time>2020-01-18T11:52:27Z</time><name>PT6280</name></trkpt>
<trkpt lat="52.880572" lon="-3.381058"><ele>836</ele><time>2020-01-18T11:52:29Z</time><name>PT6281</name></trkpt>
<trkpt lat="52.880574" lon="-3.381050"><ele>835</ele><time>2020-01-18T11:52:29Z</time><name>PT6282</name></trkpt>
<trkpt lat="52.880576" lon="-3.381041"><ele>836</ele><time>2020-01-18T11:52:30Z</time><name>PT6283</name></trkpt>
<trkpt lat="52.880579" lon="-3.381037"><ele>836</ele><time>2020-01-18T11:52:32Z</time><name>PT6284</name></trkpt>
<trkpt lat="52.880585" lon="-3.381030"><ele>836</ele><time>2020-01-18T11:52:32Z</time><name>PT6285</name></trkpt>
<trkpt lat="52.880589" lon="-3.381021"><ele>836</ele><time>2020-01-18T11:52:33Z</time><name>PT6286</name></trkpt>
<trkpt lat="52.880593" lon="-3.381015"><ele>837</ele><time>2020-01-18T11:52:35Z</time><name>PT6287</name></trkpt>
<trkpt lat="52.880598" lon="-3.381009"><ele>837</ele><time>2020-01-18T11:52:35Z</time><name>PT6288</name></trkpt>
<trkpt lat="52.880600" lon="-3.381004"><ele>838</ele><time>2020-01-18T11:52:36Z</time><name>PT6289</name></trkpt>
<trkpt lat="52.880603" lon="-3.380994"><ele>838</ele><time>2020-01-18T11:52:38Z</time><name>PT6290</name></trkpt>
<trkpt lat="52.880601" lon="-3.380989"><ele>838</ele><time>2020-01-18T11:52:38Z</time><name>PT6291</name></trkpt>
<trkpt lat="52.880598" lon="-3.380985"><ele>839</ele><time>2020-01-18T11:52:40Z</time><name>PT6292</name></trkpt>
<trkpt lat="52.880597" lon="-3.380978"><ele>839</ele><time>2020-01-18T11:52:41Z</time><name>PT6293</name></trkpt>
<trkpt lat="52.880594" lon="-3.380971"><ele>839</ele><time>2020-01-18T11:52:41Z</time><name>PT6294</name></trkpt>
<trkpt lat="52.880593" lon="-3.380968"><ele>839</ele><time>2020-01-18T11:52:42Z</time><name>PT6295</name></trkpt>
<trkpt lat="52.880593" lon="-3.380965"><ele>839</ele><time>2020-01-18T11:52:44Z</time><name>PT6296</name></trkpt>
<trkpt lat="52.880592" lon="-3.380967"><ele>839</ele><time>2020-01-18T11:52:44Z</time><name>PT6297</name></trkpt>
<trkpt lat="52.880593" lon="-3.380972"><ele>838</ele><time>2020-01-18T11:52:45Z</time><name>PT6298</name></trkpt>
<trkpt lat="52.880592" lon="-3.380974"><ele>838</ele><time>2020-01-18T11:52:47Z</time><name>PT6299</name></trkpt>
<trkpt lat="52.880589" lon="-3.380975"><ele>838</ele><time>2020-01-18T11:52:47Z</time><name>PT6300</name></trkpt>
<trkpt lat="52.880589" lon="-3.380975"><ele>838</ele><time>2020-01-18T11:52:48Z</time><name>PT6301</name></trkpt>
<trkpt lat="52.880597" lon="-3.380969"><ele>838</ele><time>2020-01-18T11:52:51Z</time><name>PT6302</name></trkpt>
<trkpt lat="52.880590" lon="-3.380961"><ele>838</ele><time>2020-01-18T11:52:53Z</time><name>PT6303</name></trkpt>
<trkpt lat="52.880591" lon="-3.380961"><ele>838</ele><time>2020-01-18T11:52:53Z</time><name>PT6304</name></trkpt>
<trkpt lat="52.880592" lon="-3.380960"><ele>838</ele><time>2020-01-18T11:52:56Z</time><name>PT6305</name></trkpt>
<trkpt lat="52.880603" lon="-3.380960"><ele>839</ele><time>2020-01-18T11:52:57Z</time><name>PT6306</name></trkpt>
<trkpt lat="52.880604" lon="-3.380962"><ele>839</ele><time>2020-01-18T11:52:58Z</time><name>PT6307</name></trkpt>
<trkpt lat="52.880604" lon="-3.380965"><ele>839</ele><time>2020-01-18T11:52:59Z</time><name>PT6308</name></trkpt>
<trkpt lat="52.880607" lon="-3.380964"><ele>839</ele><time>2020-01-18T11:53:00Z</time><name>PT6309</name></trkpt>
<trkpt lat="52.880595" lon="-3.380970"><ele>839</ele><time>2020-01-18T11:53:01Z</time><name>PT6310</name></trkpt>
<trkpt lat="52.880589" lon="-3.380971"><ele>838</ele><time>2020-01-18T11:53:02Z</time><name>PT6311</name></trkpt>
<trkpt lat="52.880586" lon="-3.380965"><ele>838</ele><time>2020-01-18T11:53:03Z</time><name>PT6312</name></trkpt>
<trkpt lat="52.880581" lon="-3.380960"><ele>837</ele><time>2020-01-18T11:53:17Z</time><name>PT6313</name></trkpt>
<trkpt lat="52.880582" lon="-3.380959"><ele>837</ele><time>2020-01-18T11:53:17Z</time><name>PT6314</name></trkpt>
<trkpt lat="52.880580" lon="-3.380959"><ele>837</ele><time>2020-01-18T11:53:18Z</time><name>PT6315</name></trkpt>
<trkpt lat="52.880581" lon="-3.380961"><ele>837</ele><time>2020-01-18T11:53:20Z</time><name>PT6316</name></trkpt>
<trkpt lat="52.880581" lon="-3.380963"><ele>837</ele><time>2020-01-18T11:53:20Z</time><name>PT6317</name></trkpt>
<trkpt lat="52.880581" lon="-3.380963"><ele>837</ele><time>2020-01-18T11:53:21Z</time><name>PT6318</name></trkpt>
<trkpt lat="52.880579" lon="-3.380965"><ele>837</ele><time>2020-01-18T11:53:27Z</time><name>PT6319</name></trkpt>
<trkpt lat="52.880580" lon="-3.380962"><ele>837</ele><time>2020-01-18T11:53:29Z</time><name>PT6320</name></trkpt>
<trkpt lat="52.880579" lon="-3.380961"><ele>837</ele><time>2020-01-18T11:53:29Z</time><name>PT6321</name></trkpt>
<trkpt lat="52.880577" lon="-3.380957"><ele>838</ele><time>2020-01-18T11:53:31Z</time><name>PT6322</name></trkpt>
<trkpt lat="52.880576" lon="-3.380954"><ele>838</ele><time>2020-01-18T11:53:32Z</time><name>PT6323</name></trkpt>
<trkpt lat="52.880575" lon="-3.380951"><ele>838</ele><time>2020-01-18T11:53:32Z</time><name>PT6324</name></trkpt>
<trkpt lat="52.880573" lon="-3.380948"><ele>838</ele><time>2020-01-18T11:53:33Z</time><name>PT6325</name></trkpt>
<trkpt lat="52.880577" lon="-3.380953"><ele>838</ele><time>2020-01-18T11:53:47Z</time><name>PT6326</name></trkpt>
<trkpt lat="52.880575" lon="-3.380958"><ele>838</ele><time>2020-01-18T11:53:49Z</time><name>PT6327</name></trkpt>
<trkpt lat="52.880579" lon="-3.380960"><ele>837</ele><time>2020-01-18T11:53:50Z</time><name>PT6328</name></trkpt>
<trkpt lat="52.880579" lon="-3.380965"><ele>838</ele><time>2020-01-18T11:53:57Z</time><name>PT6329</name></trkpt>
<trkpt lat="52.880579" lon="-3.380976"><ele>837</ele><time>2020-01-18T11:53:59Z</time><name>PT6330</name></trkpt>
<trkpt lat="52.880580" lon="-3.380987"><ele>837</ele><time>2020-01-18T11:53:59Z</time><name>PT6331</name></trkpt>
<trkpt lat="52.880577" lon="-3.380992"><ele>837</ele><time>2020-01-18T11:54:00Z</time><name>PT6332</name></trkpt>
<trkpt lat="52.880580" lon="-3.381014"><ele>838</ele><time>2020-01-18T11:54:02Z</time><name>PT6333</name></trkpt>
<trkpt lat="52.880582" lon="-3.381017"><ele>838</ele><time>2020-01-18T11:54:02Z</time><name>PT6334</name></trkpt>
<trkpt lat="52.880588" lon="-3.381021"><ele>837</ele><time>2020-01-18T11:54:03Z</time><name>PT6335</name></trkpt>
<trkpt lat="52.880590" lon="-3.381024"><ele>837</ele><time>2020-01-18T11:54:05Z</time><name>PT6336</name></trkpt>
<trkpt lat="52.880593" lon="-3.381027"><ele>837</ele><time>2020-01-18T11:54:05Z</time><name>PT6337</name></trkpt>
<trkpt lat="52.880587" lon="-3.381045"><ele>836</ele><time>2020-01-18T11:54:07Z</time><name>PT6338</name></trkpt>
<trkpt lat="52.880584" lon="-3.381041"><ele>836</ele><time>2020-01-18T11:54:08Z</time><name>PT6339</name></trkpt>
<trkpt lat="52.880582" lon="-3.381042"><ele>837</ele><time>2020-01-18T11:54:08Z</time><name>PT6340</name></trkpt>
<trkpt lat="52.880582" lon="-3.381042"><ele>837</ele><time>2020-01-18T11:54:09Z</time><name>PT6341</name></trkpt>
<trkpt lat="52.880582" lon="-3.381040"><ele>837</ele><time>2020-01-18T11:54:11Z</time><name>PT6342</name></trkpt>
<trkpt lat="52.880582" lon="-3.381038"><ele>837</ele><time>2020-01-18T11:54:11Z</time><name>PT6343</name></trkpt>
<trkpt lat="52.880583" lon="-3.381038"><ele>837</ele><time>2020-01-18T11:54:23Z</time><name>PT6344</name></trkpt>
<trkpt lat="52.880593" lon="-3.381037"><ele>836</ele><time>2020-01-18T11:54:23Z</time><name>PT6345</name></trkpt>
<trkpt lat="52.880603" lon="-3.381040"><ele>836</ele><time>2020-01-18T11:54:25Z</time><name>PT6346</name></trkpt>
<trkpt lat="52.880609" lon="-3.381048"><ele>836</ele><time>2020-01-18T11:54:26Z</time><name>PT6347</name></trkpt>
<trkpt lat="52.880617" lon="-3.381052"><ele>835</ele><time>2020-01-18T11:54:27Z</time><name>PT6348</name></trkpt>
<trkpt lat="52.880626" lon="-3.381056"><ele>835</ele><time>2020-01-18T11:54:27Z</time><name>PT6349</name></trkpt>
<trkpt lat="52.880631" lon="-3.381065"><ele>835</ele><time>2020-01-18T11:54:29Z</time><name>PT6350</name></trkpt>
<trkpt lat="52.880635" lon="-3.381081"><ele>836</ele><time>2020-01-18T11:54:30Z</time><name>PT6351</name></trkpt>
<trkpt lat="52.880641" lon="-3.381088"><ele>836</ele><time>2020-01-18T11:54:31Z</time><name>PT6352</name></trkpt>
<trkpt lat="52.880645" lon="-3.381082"><ele>835</ele><time>2020-01-18T11:54:32Z</time><name>PT6353</name></trkpt>
<trkpt lat="52.880650" lon="-3.381072"><ele>834</ele><time>2020-01-18T11:54:32Z</time><name>PT6354</name></trkpt>
<trkpt lat="52.880655" lon="-3.381067"><ele>834</ele><time>2020-01-18T11:54:33Z</time><name>PT6355</name></trkpt>
<trkpt lat="52.880663" lon="-3.381063"><ele>834</ele><time>2020-01-18T11:54:35Z</time><name>PT6356</name></trkpt>
<trkpt lat="52.880676" lon="-3.381061"><ele>834</ele><time>2020-01-18T11:54:35Z</time><name>PT6357</name></trkpt>
<trkpt lat="52.880683" lon="-3.381053"><ele>833</ele><time>2020-01-18T11:54:36Z</time><name>PT6358</name></trkpt>
<trkpt lat="52.880691" lon="-3.381046"><ele>833</ele><time>2020-01-18T11:54:38Z</time><name>PT6359</name></trkpt>
<trkpt lat="52.880701" lon="-3.381043"><ele>833</ele><time>2020-01-18T11:54:38Z</time><name>PT6360</name></trkpt>
<trkpt lat="52.880703" lon="-3.381036"><ele>832</ele><time>2020-01-18T11:54:39Z</time><name>PT6361</name></trkpt>
<trkpt lat="52.880709" lon="-3.381034"><ele>833</ele><time>2020-01-18T11:54:41Z</time><name>PT6362</name></trkpt>
<trkpt lat="52.880715" lon="-3.381036"><ele>832</ele><time>2020-01-18T11:54:41Z</time><name>PT6363</name></trkpt>
<trkpt lat="52.880721" lon="-3.381036"><ele>832</ele><time>2020-01-18T11:54:42Z</time><name>PT6364</name></trkpt>
<trkpt lat="52.880726" lon="-3.381035"><ele>832</ele><time>2020-01-18T11:54:44Z</time><name>PT6365</name></trkpt>
<trkpt lat="52.880734" lon="-3.381040"><ele>831</ele><time>2020-01-18T11:54:44Z</time><name>PT6366</name></trkpt>
<trkpt lat="52.880744" lon="-3.381047"><ele>831</ele><time>2020-01-18T11:54:45Z</time><name>PT6367</name></trkpt>
<trkpt lat="52.880754" lon="-3.381057"><ele>831</ele><time>2020-01-18T11:54:47Z</time><name>PT6368</name></trkpt>
<trkpt lat="52.880767" lon="-3.381067"><ele>831</ele><time>2020-01-18T11:54:47Z</time><name>PT6369</name></trkpt>
<trkpt lat="52.880777" lon="-3.381074"><ele>831</ele><time>2020-01-18T11:54:48Z</time><name>PT6370</name></trkpt>
<trkpt lat="52.880784" lon="-3.381082"><ele>831</ele><time>2020-01-18T11:54:50Z</time><name>PT6371</name></trkpt>
<trkpt lat="52.880790" lon="-3.381087"><ele>830</ele><time>2020-01-18T11:54:50Z</time><name>PT6372</name></trkpt>
<trkpt lat="52.880797" lon="-3.381091"><ele>831</ele><time>2020-01-18T11:54:51Z</time><name>PT6373</name></trkpt>
<trkpt lat="52.880804" lon="-3.381087"><ele>830</ele><time>2020-01-18T11:54:53Z</time><name>PT6374</name></trkpt>
<trkpt lat="52.880816" lon="-3.381082"><ele>830</ele><time>2020-01-18T11:54:53Z</time><name>PT6375</name></trkpt>
<trkpt lat="52.880826" lon="-3.381076"><ele>830</ele><time>2020-01-18T11:54:54Z</time><name>PT6376</name></trkpt>
<trkpt lat="52.880836" lon="-3.381071"><ele>830</ele><time>2020-01-18T11:54:56Z</time><name>PT6377</name></trkpt>
<trkpt lat="52.880844" lon="-3.381069"><ele>829</ele><time>2020-01-18T11:54:56Z</time><name>PT6378</name></trkpt>
<trkpt lat="52.880846" lon="-3.381070"><ele>828</ele><time>2020-01-18T11:54:57Z</time><name>PT6379</name></trkpt>
<trkpt lat="52.880854" lon="-3.381070"><ele>827</ele><time>2020-01-18T11:54:59Z</time><name>PT6380</name></trkpt>
<trkpt lat="52.880865" lon="-3.381067"><ele>827</ele><time>2020-01-18T11:54:59Z</time><name>PT6381</name></trkpt>
<trkpt lat="52.880870" lon="-3.381062"><ele>827</ele><time>2020-01-18T11:55:00Z</time><name>PT6382</name></trkpt>
<trkpt lat="52.880876" lon="-3.381054"><ele>827</ele><time>2020-01-18T11:55:02Z</time><name>PT6383</name></trkpt>
<trkpt lat="52.880886" lon="-3.381045"><ele>827</ele><time>2020-01-18T11:55:02Z</time><name>PT6384</name></trkpt>
<trkpt lat="52.880896" lon="-3.381042"><ele>827</ele><time>2020-01-18T11:55:03Z</time><name>PT6385</name></trkpt>
<trkpt lat="52.880906" lon="-3.381037"><ele>827</ele><time>2020-01-18T11:55:05Z</time><name>PT6386</name></trkpt>
<trkpt lat="52.880915" lon="-3.381031"><ele>827</ele><time>2020-01-18T11:55:05Z</time><name>PT6387</name></trkpt>
<trkpt lat="52.880926" lon="-3.381023"><ele>827</ele><time>2020-01-18T11:55:06Z</time><name>PT6388</name></trkpt>
<trkpt lat="52.880935" lon="-3.381014"><ele>827</ele><time>2020-01-18T11:55:08Z</time><name>PT6389</name></trkpt>
<trkpt lat="52.880951" lon="-3.381006"><ele>827</ele><time>2020-01-18T11:55:08Z</time><name>PT6390</name></trkpt>
<trkpt lat="52.880961" lon="-3.380999"><ele>827</ele><time>2020-01-18T11:55:09Z</time><name>PT6391</name></trkpt>
<trkpt lat="52.880969" lon="-3.380995"><ele>827</ele><time>2020-01-18T11:55:11Z</time><name>PT6392</name></trkpt>
<trkpt lat="52.880980" lon="-3.380992"><ele>827</ele><time>2020-01-18T11:55:11Z</time><name>PT6393</name></trkpt>
<trkpt lat="52.880991" lon="-3.380987"><ele>827</ele><time>2020-01-18T11:55:12Z</time><name>PT6394</name></trkpt>
<trkpt lat="52.881005" lon="-3.380986"><ele>827</ele><time>2020-01-18T11:55:14Z</time><name>PT6395</name></trkpt>
<trkpt lat="52.881015" lon="-3.380984"><ele>826</ele><time>2020-01-18T11:55:14Z</time><name>PT6396</name></trkpt>
<trkpt lat="52.881024" lon="-3.380981"><ele>826</ele><time>2020-01-18T11:55:15Z</time><name>PT6397</name></trkpt>
<trkpt lat="52.881035" lon="-3.380974"><ele>826</ele><time>2020-01-18T11:55:17Z</time><name>PT6398</name></trkpt>
<trkpt lat="52.881045" lon="-3.380968"><ele>826</ele><time>2020-01-18T11:55:17Z</time><name>PT6399</name></trkpt>
<trkpt lat="52.881053" lon="-3.380963"><ele>826</ele><time>2020-01-18T11:55:18Z</time><name>PT6400</name></trkpt>
<trkpt lat="52.881060" lon="-3.380960"><ele>825</ele><time>2020-01-18T11:55:20Z</time><name>PT6401</name></trkpt>
<trkpt lat="52.881071" lon="-3.380958"><ele>825</ele><time>2020-01-18T11:55:20Z</time><name>PT6402</name></trkpt>
<trkpt lat="52.881082" lon="-3.380955"><ele>825</ele><time>2020-01-18T11:55:22Z</time><name>PT6403</name></trkpt>
<trkpt lat="52.881092" lon="-3.380951"><ele>825</ele><time>2020-01-18T11:55:23Z</time><name>PT6404</name></trkpt>
<trkpt lat="52.881103" lon="-3.380951"><ele>826</ele><time>2020-01-18T11:55:24Z</time><name>PT6405</name></trkpt>
<trkpt lat="52.881116" lon="-3.380951"><ele>826</ele><time>2020-01-18T11:55:24Z</time><name>PT6406</name></trkpt>
<trkpt lat="52.881126" lon="-3.380950"><ele>825</ele><time>2020-01-18T11:55:26Z</time><name>PT6407</name></trkpt>
<trkpt lat="52.881132" lon="-3.380945"><ele>825</ele><time>2020-01-18T11:55:26Z</time><name>PT6408</name></trkpt>
<trkpt lat="52.881141" lon="-3.380940"><ele>825</ele><time>2020-01-18T11:55:28Z</time><name>PT6409</name></trkpt>
<trkpt lat="52.881156" lon="-3.380936"><ele>825</ele><time>2020-01-18T11:55:29Z</time><name>PT6410</name></trkpt>
<trkpt lat="52.881169" lon="-3.380936"><ele>825</ele><time>2020-01-18T11:55:29Z</time><name>PT6411</name></trkpt>
<trkpt lat="52.881179" lon="-3.380934"><ele>825</ele><time>2020-01-18T11:55:31Z</time><name>PT6412</name></trkpt>
<trkpt lat="52.881196" lon="-3.380935"><ele>825</ele><time>2020-01-18T11:55:32Z</time><name>PT6413</name></trkpt>
<trkpt lat="52.881212" lon="-3.380934"><ele>825</ele><time>2020-01-18T11:55:32Z</time><name>PT6414</name></trkpt>
<trkpt lat="52.881225" lon="-3.380932"><ele>825</ele><time>2020-01-18T11:55:34Z</time><name>PT6415</name></trkpt>
<trkpt lat="52.881238" lon="-3.380930"><ele>825</ele><time>2020-01-18T11:55:35Z</time><name>PT6416</name></trkpt>
<trkpt lat="52.881252" lon="-3.380929"><ele>826</ele><time>2020-01-18T11:55:35Z</time><name>PT6417</name></trkpt>
<trkpt lat="52.881264" lon="-3.380930"><ele>825</ele><time>2020-01-18T11:55:36Z</time><name>PT6418</name></trkpt>
<trkpt lat="52.881276" lon="-3.380932"><ele>825</ele><time>2020-01-18T11:55:38Z</time><name>PT6419</name></trkpt>
<trkpt lat="52.881292" lon="-3.380931"><ele>826</ele><time>2020-01-18T11:55:38Z</time><name>PT6420</name></trkpt>
<trkpt lat="52.881304" lon="-3.380930"><ele>826</ele><time>2020-01-18T11:55:39Z</time><name>PT6421</name></trkpt>
<trkpt lat="52.881316" lon="-3.380934"><ele>826</ele><time>2020-01-18T11:55:41Z</time><name>PT6422</name></trkpt>
<trkpt lat="52.881318" lon="-3.380937"><ele>825</ele><time>2020-01-18T11:55:41Z</time><name>PT6423</name></trkpt>
<trkpt lat="52.881325" lon="-3.380951"><ele>826</ele><time>2020-01-18T11:55:42Z</time><name>PT6424</name></trkpt>
<trkpt lat="52.881336" lon="-3.380961"><ele>827</ele><time>2020-01-18T11:55:44Z</time><name>PT6425</name></trkpt>
<trkpt lat="52.881344" lon="-3.380971"><ele>826</ele><time>2020-01-18T11:55:44Z</time><name>PT6426</name></trkpt>
<trkpt lat="52.881353" lon="-3.380980"><ele>826</ele><time>2020-01-18T11:55:45Z</time><name>PT6427</name></trkpt>
<trkpt lat="52.881359" lon="-3.380986"><ele>826</ele><time>2020-01-18T11:55:47Z</time><name>PT6428</name></trkpt>
<trkpt lat="52.881365" lon="-3.380990"><ele>826</ele><time>2020-01-18T11:55:47Z</time><name>PT6429</name></trkpt>
<trkpt lat="52.881373" lon="-3.380993"><ele>826</ele><time>2020-01-18T11:55:48Z</time><name>PT6430</name></trkpt>
<trkpt lat="52.881383" lon="-3.380998"><ele>825</ele><time>2020-01-18T11:55:50Z</time><name>PT6431</name></trkpt>
<trkpt lat="52.881388" lon="-3.380999"><ele>825</ele><time>2020-01-18T11:55:50Z</time><name>PT6432</name></trkpt>
<trkpt lat="52.881395" lon="-3.381003"><ele>824</ele><time>2020-01-18T11:55:51Z</time><name>PT6433</name></trkpt>
<trkpt lat="52.881407" lon="-3.381007"><ele>824</ele><time>2020-01-18T11:55:53Z</time><name>PT6434</name></trkpt>
<trkpt lat="52.881412" lon="-3.381007"><ele>824</ele><time>2020-01-18T11:55:53Z</time><name>PT6435</name></trkpt>
<trkpt lat="52.881416" lon="-3.381008"><ele>823</ele><time>2020-01-18T11:55:55Z</time><name>PT6436</name></trkpt>
<trkpt lat="52.881423" lon="-3.381012"><ele>823</ele><time>2020-01-18T11:55:56Z</time><name>PT6437</name></trkpt>
<trkpt lat="52.881434" lon="-3.381017"><ele>824</ele><time>2020-01-18T11:55:56Z</time><name>PT6438</name></trkpt>
<trkpt lat="52.881447" lon="-3.381021"><ele>823</ele><time>2020-01-18T11:55:58Z</time><name>PT6439</name></trkpt>
<trkpt lat="52.881459" lon="-3.381021"><ele>823</ele><time>2020-01-18T11:55:59Z</time><name>PT6440</name></trkpt>
<trkpt lat="52.881469" lon="-3.381019"><ele>823</ele><time>2020-01-18T11:55:59Z</time><name>PT6441</name></trkpt>
<trkpt lat="52.881478" lon="-3.381017"><ele>822</ele><time>2020-01-18T11:56:00Z</time><name>PT6442</name></trkpt>
<trkpt lat="52.881490" lon="-3.381010"><ele>822</ele><time>2020-01-18T11:56:02Z</time><name>PT6443</name></trkpt>
<trkpt lat="52.881501" lon="-3.381006"><ele>822</ele><time>2020-01-18T11:56:03Z</time><name>PT6444</name></trkpt>
<trkpt lat="52.881510" lon="-3.381001"><ele>821</ele><time>2020-01-18T11:56:04Z</time><name>PT6445</name></trkpt>
<trkpt lat="52.881516" lon="-3.380995"><ele>821</ele><time>2020-01-18T11:56:05Z</time><name>PT6446</name></trkpt>
<trkpt lat="52.881527" lon="-3.380993"><ele>822</ele><time>2020-01-18T11:56:06Z</time><name>PT6447</name></trkpt>
<trkpt lat="52.881534" lon="-3.380982"><ele>821</ele><time>2020-01-18T11:56:07Z</time><name>PT6448</name></trkpt>
<trkpt lat="52.881539" lon="-3.380973"><ele>822</ele><time>2020-01-18T11:56:08Z</time><name>PT6449</name></trkpt>
<trkpt lat="52.881548" lon="-3.380961"><ele>822</ele><time>2020-01-18T11:56:08Z</time><name>PT6450</name></trkpt>
<trkpt lat="52.881554" lon="-3.380949"><ele>822</ele><time>2020-01-18T11:56:09Z</time><name>PT6451</name></trkpt>
<trkpt lat="52.881557" lon="-3.380937"><ele>822</ele><time>2020-01-18T11:56:11Z</time><name>PT6452</name></trkpt>
<trkpt lat="52.881563" lon="-3.380928"><ele>822</ele><time>2020-01-18T11:56:11Z</time><name>PT6453</name></trkpt>
<trkpt lat="52.881570" lon="-3.380917"><ele>822</ele><time>2020-01-18T11:56:12Z</time><name>PT6454</name></trkpt>
<trkpt lat="52.881575" lon="-3.380908"><ele>822</ele><time>2020-01-18T11:56:14Z</time><name>PT6455</name></trkpt>
<trkpt lat="52.881583" lon="-3.380904"><ele>822</ele><time>2020-01-18T11:56:14Z</time><name>PT6456</name></trkpt>
<trkpt lat="52.881590" lon="-3.380905"><ele>821</ele><time>2020-01-18T11:56:15Z</time><name>PT6457</name></trkpt>
<trkpt lat="52.881597" lon="-3.380904"><ele>821</ele><time>2020-01-18T11:56:17Z</time><name>PT6458</name></trkpt>
<trkpt lat="52.881609" lon="-3.380902"><ele>821</ele><time>2020-01-18T11:56:17Z</time><name>PT6459</name></trkpt>
<trkpt lat="52.881620" lon="-3.380897"><ele>821</ele><time>2020-01-18T11:56:18Z</time><name>PT6460</name></trkpt>
<trkpt lat="52.881631" lon="-3.380892"><ele>820</ele><time>2020-01-18T11:56:20Z</time><name>PT6461</name></trkpt>
<trkpt lat="52.881639" lon="-3.380887"><ele>820</ele><time>2020-01-18T11:56:20Z</time><name>PT6462</name></trkpt>
<trkpt lat="52.881651" lon="-3.380881"><ele>820</ele><time>2020-01-18T11:56:21Z</time><name>PT6463</name></trkpt>
<trkpt lat="52.881657" lon="-3.380876"><ele>820</ele><time>2020-01-18T11:56:23Z</time><name>PT6464</name></trkpt>
<trkpt lat="52.881665" lon="-3.380866"><ele>820</ele><time>2020-01-18T11:56:23Z</time><name>PT6465</name></trkpt>
<trkpt lat="52.881672" lon="-3.380858"><ele>819</ele><time>2020-01-18T11:56:24Z</time><name>PT6466</name></trkpt>
<trkpt lat="52.881682" lon="-3.380847"><ele>819</ele><time>2020-01-18T11:56:26Z</time><name>PT6467</name></trkpt>
<trkpt lat="52.881692" lon="-3.380834"><ele>820</ele><time>2020-01-18T11:56:26Z</time><name>PT6468</name></trkpt>
<trkpt lat="52.881700" lon="-3.380825"><ele>819</ele><time>2020-01-18T11:56:27Z</time><name>PT6469</name></trkpt>
<trkpt lat="52.881706" lon="-3.380817"><ele>819</ele><time>2020-01-18T11:56:29Z</time><name>PT6470</name></trkpt>
<trkpt lat="52.881717" lon="-3.380808"><ele>819</ele><time>2020-01-18T11:56:29Z</time><name>PT6471</name></trkpt>
<trkpt lat="52.881729" lon="-3.380801"><ele>819</ele><time>2020-01-18T11:56:31Z</time><name>PT6472</name></trkpt>
<trkpt lat="52.881736" lon="-3.380795"><ele>819</ele><time>2020-01-18T11:56:32Z</time><name>PT6473</name></trkpt>
<trkpt lat="52.881743" lon="-3.380790"><ele>818</ele><time>2020-01-18T11:56:32Z</time><name>PT6474</name></trkpt>
<trkpt lat="52.881753" lon="-3.380786"><ele>818</ele><time>2020-01-18T11:56:34Z</time><name>PT6475</name></trkpt>
<trkpt lat="52.881768" lon="-3.380782"><ele>818</ele><time>2020-01-18T11:56:35Z</time><name>PT6476</name></trkpt>
<trkpt lat="52.881776" lon="-3.380775"><ele>818</ele><time>2020-01-18T11:56:36Z</time><name>PT6477</name></trkpt>
<trkpt lat="52.881784" lon="-3.380771"><ele>818</ele><time>2020-01-18T11:56:37Z</time><name>PT6478</name></trkpt>
<trkpt lat="52.881795" lon="-3.380764"><ele>817</ele><time>2020-01-18T11:56:38Z</time><name>PT6479</name></trkpt>
<trkpt lat="52.881806" lon="-3.380761"><ele>817</ele><time>2020-01-18T11:56:38Z</time><name>PT6480</name></trkpt>
<trkpt lat="52.881813" lon="-3.380759"><ele>816</ele><time>2020-01-18T11:56:39Z</time><name>PT6481</name></trkpt>
<trkpt lat="52.881825" lon="-3.380757"><ele>816</ele><time>2020-01-18T11:56:41Z</time><name>PT6482</name></trkpt>
<trkpt lat="52.881835" lon="-3.380753"><ele>816</ele><time>2020-01-18T11:56:41Z</time><name>PT6483</name></trkpt>
<trkpt lat="52.881843" lon="-3.380747"><ele>816</ele><time>2020-01-18T11:56:42Z</time><name>PT6484</name></trkpt>
<trkpt lat="52.881855" lon="-3.380738"><ele>816</ele><time>2020-01-18T11:56:44Z</time><name>PT6485</name></trkpt>
<trkpt lat="52.881868" lon="-3.380732"><ele>816</ele><time>2020-01-18T11:56:45Z</time><name>PT6486</name></trkpt>
<trkpt lat="52.881879" lon="-3.380725"><ele>816</ele><time>2020-01-18T11:56:46Z</time><name>PT6487</name></trkpt>
<trkpt lat="52.881887" lon="-3.380719"><ele>816</ele><time>2020-01-18T11:56:47Z</time><name>PT6488</name></trkpt>
<trkpt lat="52.881894" lon="-3.380714"><ele>815</ele><time>2020-01-18T11:56:48Z</time><name>PT6489</name></trkpt>
<trkpt lat="52.881907" lon="-3.380707"><ele>815</ele><time>2020-01-18T11:56:49Z</time><name>PT6490</name></trkpt>
<trkpt lat="52.881918" lon="-3.380699"><ele>815</ele><time>2020-01-18T11:56:50Z</time><name>PT6491</name></trkpt>
<trkpt lat="52.881930" lon="-3.380695"><ele>815</ele><time>2020-01-18T11:56:50Z</time><name>PT6492</name></trkpt>
<trkpt lat="52.881940" lon="-3.380696"><ele>815</ele><time>2020-01-18T11:56:51Z</time><name>PT6493</name></trkpt>
<trkpt lat="52.881953" lon="-3.380697"><ele>815</ele><time>2020-01-18T11:56:53Z</time><name>PT6494</name></trkpt>
<trkpt lat="52.881969" lon="-3.380700"><ele>816</ele><time>2020-01-18T11:56:53Z</time><name>PT6495</name></trkpt>
<trkpt lat="52.881978" lon="-3.380700"><ele>815</ele><time>2020-01-18T11:56:54Z</time><name>PT6496</name></trkpt>
<trkpt lat="52.881991" lon="-3.380701"><ele>815</ele><time>2020-01-18T11:56:56Z</time><name>PT6497</name></trkpt>
<trkpt lat="52.882007" lon="-3.380700"><ele>815</ele><time>2020-01-18T11:56:56Z</time><name>PT6498</name></trkpt>
<trkpt lat="52.882015" lon="-3.380693"><ele>815</ele><time>2020-01-18T11:56:57Z</time><name>PT6499</name></trkpt>
<trkpt lat="52.882026" lon="-3.380690"><ele>815</ele><time>2020-01-18T11:56:59Z</time><name>PT6500</name></trkpt>
<trkpt lat="52.882035" lon="-3.380689"><ele>814</ele><time>2020-01-18T11:56:59Z</time><name>PT6501</name></trkpt>
<trkpt lat="52.882045" lon="-3.380687"><ele>814</ele><time>2020-01-18T11:57:00Z</time><name>PT6502</name></trkpt>
<trkpt lat="52.882055" lon="-3.380683"><ele>813</ele><time>2020-01-18T11:57:02Z</time><name>PT6503</name></trkpt>
<trkpt lat="52.882067" lon="-3.380677"><ele>813</ele><time>2020-01-18T11:57:02Z</time><name>PT6504</name></trkpt>
<trkpt lat="52.882078" lon="-3.380670"><ele>813</ele><time>2020-01-18T11:57:03Z</time><name>PT6505</name></trkpt>
<trkpt lat="52.882085" lon="-3.380665"><ele>813</ele><time>2020-01-18T11:57:05Z</time><name>PT6506</name></trkpt>
<trkpt lat="52.882094" lon="-3.380661"><ele>813</ele><time>2020-01-18T11:57:05Z</time><name>PT6507</name></trkpt>
<trkpt lat="52.882106" lon="-3.380657"><ele>813</ele><time>2020-01-18T11:57:06Z</time><name>PT6508</name></trkpt>
<trkpt lat="52.882112" lon="-3.380650"><ele>813</ele><time>2020-01-18T11:57:08Z</time><name>PT6509</name></trkpt>
<trkpt lat="52.882121" lon="-3.380645"><ele>812</ele><time>2020-01-18T11:57:08Z</time><name>PT6510</name></trkpt>
<trkpt lat="52.882131" lon="-3.380641"><ele>812</ele><time>2020-01-18T11:57:09Z</time><name>PT6511</name></trkpt>
<trkpt lat="52.882141" lon="-3.380631"><ele>812</ele><time>2020-01-18T11:57:11Z</time><name>PT6512</name></trkpt>
<trkpt lat="52.882150" lon="-3.380622"><ele>812</ele><time>2020-01-18T11:57:12Z</time><name>PT6513</name></trkpt>
<trkpt lat="52.882162" lon="-3.380616"><ele>812</ele><time>2020-01-18T11:57:13Z</time><name>PT6514</name></trkpt>
<trkpt lat="52.882172" lon="-3.380608"><ele>811</ele><time>2020-01-18T11:57:14Z</time><name>PT6515</name></trkpt>
<trkpt lat="52.882183" lon="-3.380599"><ele>811</ele><time>2020-01-18T11:57:15Z</time><name>PT6516</name></trkpt>
<trkpt lat="52.882188" lon="-3.380590"><ele>811</ele><time>2020-01-18T11:57:16Z</time><name>PT6517</name></trkpt>
<trkpt lat="52.882196" lon="-3.380582"><ele>811</ele><time>2020-01-18T11:57:17Z</time><name>PT6518</name></trkpt>
<trkpt lat="52.882210" lon="-3.380569"><ele>812</ele><time>2020-01-18T11:57:17Z</time><name>PT6519</name></trkpt>
<trkpt lat="52.882217" lon="-3.380553"><ele>811</ele><time>2020-01-18T11:57:19Z</time><name>PT6520</name></trkpt>
<trkpt lat="52.882228" lon="-3.380542"><ele>812</ele><time>2020-01-18T11:57:20Z</time><name>PT6521</name></trkpt>
<trkpt lat="52.882239" lon="-3.380531"><ele>811</ele><time>2020-01-18T11:57:21Z</time><name>PT6522</name></trkpt>
<trkpt lat="52.882246" lon="-3.380522"><ele>811</ele><time>2020-01-18T11:57:22Z</time><name>PT6523</name></trkpt>
<trkpt lat="52.882253" lon="-3.380512"><ele>811</ele><time>2020-01-18T11:57:23Z</time><name>PT6524</name></trkpt>
<trkpt lat="52.882266" lon="-3.380497"><ele>811</ele><time>2020-01-18T11:57:24Z</time><name>PT6525</name></trkpt>
<trkpt lat="52.882275" lon="-3.380485"><ele>811</ele><time>2020-01-18T11:57:25Z</time><name>PT6526</name></trkpt>
<trkpt lat="52.882282" lon="-3.380472"><ele>811</ele><time>2020-01-18T11:57:26Z</time><name>PT6527</name></trkpt>
<trkpt lat="52.882290" lon="-3.380460"><ele>811</ele><time>2020-01-18T11:57:26Z</time><name>PT6528</name></trkpt>
<trkpt lat="52.882297" lon="-3.380452"><ele>810</ele><time>2020-01-18T11:57:27Z</time><name>PT6529</name></trkpt>
<trkpt lat="52.882302" lon="-3.380445"><ele>810</ele><time>2020-01-18T11:57:29Z</time><name>PT6530</name></trkpt>
<trkpt lat="52.882309" lon="-3.380440"><ele>810</ele><time>2020-01-18T11:57:29Z</time><name>PT6531</name></trkpt>
<trkpt lat="52.882313" lon="-3.380433"><ele>809</ele><time>2020-01-18T11:57:30Z</time><name>PT6532</name></trkpt>
<trkpt lat="52.882326" lon="-3.380423"><ele>810</ele><time>2020-01-18T11:57:32Z</time><name>PT6533</name></trkpt>
<trkpt lat="52.882336" lon="-3.380412"><ele>809</ele><time>2020-01-18T11:57:32Z</time><name>PT6534</name></trkpt>
<trkpt lat="52.882347" lon="-3.380399"><ele>809</ele><time>2020-01-18T11:57:33Z</time><name>PT6535</name></trkpt>
<trkpt lat="52.882358" lon="-3.380386"><ele>809</ele><time>2020-01-18T11:57:35Z</time><name>PT6536</name></trkpt>
<trkpt lat="52.882368" lon="-3.380373"><ele>809</ele><time>2020-01-18T11:57:35Z</time><name>PT6537</name></trkpt>
<trkpt lat="52.882377" lon="-3.380362"><ele>809</ele><time>2020-01-18T11:57:36Z</time><name>PT6538</name></trkpt>
<trkpt lat="52.882380" lon="-3.380347"><ele>809</ele><time>2020-01-18T11:57:38Z</time><name>PT6539</name></trkpt>
<trkpt lat="52.882390" lon="-3.380342"><ele>810</ele><time>2020-01-18T11:57:38Z</time><name>PT6540</name></trkpt>
<trkpt lat="52.882404" lon="-3.380337"><ele>810</ele><time>2020-01-18T11:57:39Z</time><name>PT6541</name></trkpt>
<trkpt lat="52.882412" lon="-3.380328"><ele>810</ele><time>2020-01-18T11:57:41Z</time><name>PT6542</name></trkpt>
<trkpt lat="52.882422" lon="-3.380316"><ele>809</ele><time>2020-01-18T11:57:41Z</time><name>PT6543</name></trkpt>
<trkpt lat="52.882432" lon="-3.380308"><ele>809</ele><time>2020-01-18T11:57:43Z</time><name>PT6544</name></trkpt>
<trkpt lat="52.882438" lon="-3.380297"><ele>809</ele><time>2020-01-18T11:57:44Z</time><name>PT6545</name></trkpt>
<trkpt lat="52.882444" lon="-3.380284"><ele>809</ele><time>2020-01-18T11:57:44Z</time><name>PT6546</name></trkpt>
<trkpt lat="52.882451" lon="-3.380270"><ele>809</ele><time>2020-01-18T11:57:45Z</time><name>PT6547</name></trkpt>
<trkpt lat="52.882459" lon="-3.380257"><ele>809</ele><time>2020-01-18T11:57:47Z</time><name>PT6548</name></trkpt>
<trkpt lat="52.882468" lon="-3.380250"><ele>808</ele><time>2020-01-18T11:57:47Z</time><name>PT6549</name></trkpt>
<trkpt lat="52.882478" lon="-3.380250"><ele>808</ele><time>2020-01-18T11:57:48Z</time><name>PT6550</name></trkpt>
<trkpt lat="52.882482" lon="-3.380248"><ele>808</ele><time>2020-01-18T11:57:50Z</time><name>PT6551</name></trkpt>
<trkpt lat="52.882488" lon="-3.380242"><ele>807</ele><time>2020-01-18T11:57:50Z</time><name>PT6552</name></trkpt>
<trkpt lat="52.882493" lon="-3.380233"><ele>807</ele><time>2020-01-18T11:57:51Z</time><name>PT6553</name></trkpt>
<trkpt lat="52.882504" lon="-3.380229"><ele>807</ele><time>2020-01-18T11:57:53Z</time><name>PT6554</name></trkpt>
<trkpt lat="52.882511" lon="-3.380226"><ele>807</ele><time>2020-01-18T11:57:53Z</time><name>PT6555</name></trkpt>
<trkpt lat="52.882518" lon="-3.380228"><ele>807</ele><time>2020-01-18T11:57:54Z</time><name>PT6556</name></trkpt>
<trkpt lat="52.882525" lon="-3.380229"><ele>807</ele><time>2020-01-18T11:57:56Z</time><name>PT6557</name></trkpt>
<trkpt lat="52.882527" lon="-3.380230"><ele>807</ele><time>2020-01-18T11:57:56Z</time><name>PT6558</name></trkpt>
<trkpt lat="52.882544" lon="-3.380233"><ele>808</ele><time>2020-01-18T11:57:57Z</time><name>PT6559</name></trkpt>
<trkpt lat="52.882554" lon="-3.380234"><ele>808</ele><time>2020-01-18T11:57:59Z</time><name>PT6560</name></trkpt>
<trkpt lat="52.882564" lon="-3.380233"><ele>808</ele><time>2020-01-18T11:57:59Z</time><name>PT6561</name></trkpt>
<trkpt lat="52.882571" lon="-3.380230"><ele>808</ele><time>2020-01-18T11:58:00Z</time><name>PT6562</name></trkpt>
<trkpt lat="52.882580" lon="-3.380225"><ele>808</ele><time>2020-01-18T11:58:02Z</time><name>PT6563</name></trkpt>
<trkpt lat="52.882586" lon="-3.380225"><ele>807</ele><time>2020-01-18T11:58:02Z</time><name>PT6564</name></trkpt>
<trkpt lat="52.882597" lon="-3.380226"><ele>808</ele><time>2020-01-18T11:58:03Z</time><name>PT6565</name></trkpt>
<trkpt lat="52.882610" lon="-3.380223"><ele>808</ele><time>2020-01-18T11:58:05Z</time><name>PT6566</name></trkpt>
<trkpt lat="52.882616" lon="-3.380218"><ele>807</ele><time>2020-01-18T11:58:05Z</time><name>PT6567</name></trkpt>
<trkpt lat="52.882621" lon="-3.380215"><ele>807</ele><time>2020-01-18T11:58:06Z</time><name>PT6568</name></trkpt>
<trkpt lat="52.882627" lon="-3.380211"><ele>807</ele><time>2020-01-18T11:58:08Z</time><name>PT6569</name></trkpt>
<trkpt lat="52.882632" lon="-3.380212"><ele>807</ele><time>2020-01-18T11:58:08Z</time><name>PT6570</name></trkpt>
<trkpt lat="52.882638" lon="-3.380215"><ele>807</ele><time>2020-01-18T11:58:09Z</time><name>PT6571</name></trkpt>
<trkpt lat="52.882647" lon="-3.380226"><ele>808</ele><time>2020-01-18T11:58:11Z</time><name>PT6572</name></trkpt>
<trkpt lat="52.882653" lon="-3.380233"><ele>808</ele><time>2020-01-18T11:58:11Z</time><name>PT6573</name></trkpt>
<trkpt lat="52.882660" lon="-3.380240"><ele>808</ele><time>2020-01-18T11:58:13Z</time><name>PT6574</name></trkpt>
<trkpt lat="52.882665" lon="-3.380242"><ele>807</ele><time>2020-01-18T11:58:14Z</time><name>PT6575</name></trkpt>
<trkpt lat="52.882670" lon="-3.380243"><ele>807</ele><time>2020-01-18T11:58:14Z</time><name>PT6576</name></trkpt>
<trkpt lat="52.882680" lon="-3.380245"><ele>807</ele><time>2020-01-18T11:58:15Z</time><name>PT6577</name></trkpt>
<trkpt lat="52.882690" lon="-3.380243"><ele>807</ele><time>2020-01-18T11:58:17Z</time><name>PT6578</name></trkpt>
<trkpt lat="52.882700" lon="-3.380238"><ele>807</ele><time>2020-01-18T11:58:17Z</time><name>PT6579</name></trkpt>
<trkpt lat="52.882711" lon="-3.380233"><ele>807</ele><time>2020-01-18T11:58:18Z</time><name>PT6580</name></trkpt>
<trkpt lat="52.882721" lon="-3.380229"><ele>808</ele><time>2020-01-18T11:58:20Z</time><name>PT6581</name></trkpt>
<trkpt lat="52.882729" lon="-3.380228"><ele>808</ele><time>2020-01-18T11:58:20Z</time><name>PT6582</name></trkpt>
<trkpt lat="52.882741" lon="-3.380228"><ele>808</ele><time>2020-01-18T11:58:21Z</time><name>PT6583</name></trkpt>
<trkpt lat="52.882750" lon="-3.380227"><ele>808</ele><time>2020-01-18T11:58:23Z</time><name>PT6584</name></trkpt>
<trkpt lat="52.882760" lon="-3.380225"><ele>808</ele><time>2020-01-18T11:58:23Z</time><name>PT6585</name></trkpt>
<trkpt lat="52.882769" lon="-3.380223"><ele>809</ele><time>2020-01-18T11:58:24Z</time><name>PT6586</name></trkpt>
<trkpt lat="52.882777" lon="-3.380224"><ele>809</ele><time>2020-01-18T11:58:26Z</time><name>PT6587</name></trkpt>
<trkpt lat="52.882785" lon="-3.380227"><ele>809</ele><time>2020-01-18T11:58:27Z</time><name>PT6588</name></trkpt>
<trkpt lat="52.882796" lon="-3.380232"><ele>809</ele><time>2020-01-18T11:58:28Z</time><name>PT6589</name></trkpt>
<trkpt lat="52.882803" lon="-3.380239"><ele>810</ele><time>2020-01-18T11:58:29Z</time><name>PT6590</name></trkpt>
<trkpt lat="52.882812" lon="-3.380246"><ele>810</ele><time>2020-01-18T11:58:29Z</time><name>PT6591</name></trkpt>
<trkpt lat="52.882820" lon="-3.380252"><ele>810</ele><time>2020-01-18T11:58:30Z</time><name>PT6592</name></trkpt>
<trkpt lat="52.882829" lon="-3.380251"><ele>811</ele><time>2020-01-18T11:58:32Z</time><name>PT6593</name></trkpt>
<trkpt lat="52.882847" lon="-3.380254"><ele>812</ele><time>2020-01-18T11:58:32Z</time><name>PT6594</name></trkpt>
<trkpt lat="52.882852" lon="-3.380255"><ele>812</ele><time>2020-01-18T11:58:33Z</time><name>PT6595</name></trkpt>
<trkpt lat="52.882857" lon="-3.380256"><ele>812</ele><time>2020-01-18T11:58:35Z</time><name>PT6596</name></trkpt>
<trkpt lat="52.882865" lon="-3.380255"><ele>812</ele><time>2020-01-18T11:58:35Z</time><name>PT6597</name></trkpt>
<trkpt lat="52.882874" lon="-3.380252"><ele>812</ele><time>2020-01-18T11:58:36Z</time><name>PT6598</name></trkpt>
<trkpt lat="52.882880" lon="-3.380245"><ele>812</ele><time>2020-01-18T11:58:38Z</time><name>PT6599</name></trkpt>
<trkpt lat="52.882886" lon="-3.380240"><ele>812</ele><time>2020-01-18T11:58:38Z</time><name>PT6600</name></trkpt>
<trkpt lat="52.882892" lon="-3.380236"><ele>812</ele><time>2020-01-18T11:58:39Z</time><name>PT6601</name></trkpt>
<trkpt lat="52.882903" lon="-3.380233"><ele>812</ele><time>2020-01-18T11:58:41Z</time><name>PT6602</name></trkpt>
<trkpt lat="52.882913" lon="-3.380230"><ele>812</ele><time>2020-01-18T11:58:41Z</time><name>PT6603</name></trkpt>
<trkpt lat="52.882921" lon="-3.380229"><ele>812</ele><time>2020-01-18T11:58:42Z</time><name>PT6604</name></trkpt>
<trkpt lat="52.882928" lon="-3.380228"><ele>813</ele><time>2020-01-18T11:58:44Z</time><name>PT6605</name></trkpt>
<trkpt lat="52.882934" lon="-3.380229"><ele>813</ele><time>2020-01-18T11:58:44Z</time><name>PT6606</name></trkpt>
<trkpt lat="52.882944" lon="-3.380231"><ele>813</ele><time>2020-01-18T11:58:45Z</time><name>PT6607</name></trkpt>
<trkpt lat="52.882955" lon="-3.380234"><ele>813</ele><time>2020-01-18T11:58:47Z</time><name>PT6608</name></trkpt>
<trkpt lat="52.882960" lon="-3.380233"><ele>813</ele><time>2020-01-18T11:58:47Z</time><name>PT6609</name></trkpt>
<trkpt lat="52.882966" lon="-3.380238"><ele>814</ele><time>2020-01-18T11:58:48Z</time><name>PT6610</name></trkpt>
<trkpt lat="52.882975" lon="-3.380242"><ele>814</ele><time>2020-01-18T11:58:50Z</time><name>PT6611</name></trkpt>
<trkpt lat="52.882984" lon="-3.380239"><ele>814</ele><time>2020-01-18T11:58:51Z</time><name>PT6612</name></trkpt>
<trkpt lat="52.882989" lon="-3.380241"><ele>814</ele><time>2020-01-18T11:58:51Z</time><name>PT6613</name></trkpt>
<trkpt lat="52.882997" lon="-3.380247"><ele>814</ele><time>2020-01-18T11:58:53Z</time><name>PT6614</name></trkpt>
<trkpt lat="52.883001" lon="-3.380254"><ele>814</ele><time>2020-01-18T11:58:53Z</time><name>PT6615</name></trkpt>
<trkpt lat="52.883005" lon="-3.380258"><ele>813</ele><time>2020-01-18T11:58:54Z</time><name>PT6616</name></trkpt>
<trkpt lat="52.883011" lon="-3.380262"><ele>813</ele><time>2020-01-18T11:58:56Z</time><name>PT6617</name></trkpt>
<trkpt lat="52.883018" lon="-3.380270"><ele>813</ele><time>2020-01-18T11:58:56Z</time><name>PT6618</name></trkpt>
<trkpt lat="52.883028" lon="-3.380280"><ele>813</ele><time>2020-01-18T11:58:58Z</time><name>PT6619</name></trkpt>
<trkpt lat="52.883034" lon="-3.380288"><ele>813</ele><time>2020-01-18T11:58:59Z</time><name>PT6620</name></trkpt>
<trkpt lat="52.883042" lon="-3.380287"><ele>813</ele><time>2020-01-18T11:58:59Z</time><name>PT6621</name></trkpt>
<trkpt lat="52.883051" lon="-3.380286"><ele>813</ele><time>2020-01-18T11:59:00Z</time><name>PT6622</name></trkpt>
<trkpt lat="52.883057" lon="-3.380285"><ele>813</ele><time>2020-01-18T11:59:02Z</time><name>PT6623</name></trkpt>
<trkpt lat="52.883066" lon="-3.380283"><ele>813</ele><time>2020-01-18T11:59:02Z</time><name>PT6624</name></trkpt>
<trkpt lat="52.883076" lon="-3.380281"><ele>814</ele><time>2020-01-18T11:59:03Z</time><name>PT6625</name></trkpt>
<trkpt lat="52.883083" lon="-3.380281"><ele>814</ele><time>2020-01-18T11:59:05Z</time><name>PT6626</name></trkpt>
<trkpt lat="52.883088" lon="-3.380282"><ele>814</ele><time>2020-01-18T11:59:05Z</time><name>PT6627</name></trkpt>
<trkpt lat="52.883094" lon="-3.380285"><ele>814</ele><time>2020-01-18T11:59:06Z</time><name>PT6628</name></trkpt>
<trkpt lat="52.883099" lon="-3.380283"><ele>814</ele><time>2020-01-18T11:59:08Z</time><name>PT6629</name></trkpt>
<trkpt lat="52.883107" lon="-3.380279"><ele>814</ele><time>2020-01-18T11:59:08Z</time><name>PT6630</name></trkpt>
<trkpt lat="52.883112" lon="-3.380279"><ele>813</ele><time>2020-01-18T11:59:09Z</time><name>PT6631</name></trkpt>
<trkpt lat="52.883118" lon="-3.380278"><ele>813</ele><time>2020-01-18T11:59:11Z</time><name>PT6632</name></trkpt>
<trkpt lat="52.883123" lon="-3.380278"><ele>813</ele><time>2020-01-18T11:59:11Z</time><name>PT6633</name></trkpt>
<trkpt lat="52.883129" lon="-3.380274"><ele>814</ele><time>2020-01-18T11:59:13Z</time><name>PT6634</name></trkpt>
<trkpt lat="52.883135" lon="-3.380273"><ele>814</ele><time>2020-01-18T11:59:14Z</time><name>PT6635</name></trkpt>
<trkpt lat="52.883144" lon="-3.380272"><ele>814</ele><time>2020-01-18T11:59:14Z</time><name>PT6636</name></trkpt>
<trkpt lat="52.883149" lon="-3.380273"><ele>813</ele><time>2020-01-18T11:59:15Z</time><name>PT6637</name></trkpt>
<trkpt lat="52.883151" lon="-3.380271"><ele>813</ele><time>2020-01-18T11:59:17Z</time><name>PT6638</name></trkpt>
<trkpt lat="52.883157" lon="-3.380268"><ele>813</ele><time>2020-01-18T11:59:17Z</time><name>PT6639</name></trkpt>
<trkpt lat="52.883162" lon="-3.380264"><ele>813</ele><time>2020-01-18T11:59:18Z</time><name>PT6640</name></trkpt>
<trkpt lat="52.883163" lon="-3.380270"><ele>813</ele><time>2020-01-18T11:59:21Z</time><name>PT6641</name></trkpt>
<trkpt lat="52.883171" lon="-3.380273"><ele>812</ele><time>2020-01-18T11:59:21Z</time><name>PT6642</name></trkpt>
<trkpt lat="52.883179" lon="-3.380271"><ele>812</ele><time>2020-01-18T11:59:23Z</time><name>PT6643</name></trkpt>
<trkpt lat="52.883178" lon="-3.380268"><ele>811</ele><time>2020-01-18T11:59:23Z</time><name>PT6644</name></trkpt>
<trkpt lat="52.883187" lon="-3.380264"><ele>811</ele><time>2020-01-18T11:59:25Z</time><name>PT6645</name></trkpt>
<trkpt lat="52.883191" lon="-3.380262"><ele>810</ele><time>2020-01-18T11:59:26Z</time><name>PT6646</name></trkpt>
<trkpt lat="52.883198" lon="-3.380265"><ele>810</ele><time>2020-01-18T11:59:26Z</time><name>PT6647</name></trkpt>
<trkpt lat="52.883202" lon="-3.380265"><ele>810</ele><time>2020-01-18T11:59:28Z</time><name>PT6648</name></trkpt>
<trkpt lat="52.883201" lon="-3.380267"><ele>809</ele><time>2020-01-18T11:59:29Z</time><name>PT6649</name></trkpt>
<trkpt lat="52.883204" lon="-3.380262"><ele>808</ele><time>2020-01-18T11:59:30Z</time><name>PT6650</name></trkpt>
<trkpt lat="52.883210" lon="-3.380254"><ele>809</ele><time>2020-01-18T11:59:31Z</time><name>PT6651</name></trkpt>
<trkpt lat="52.883219" lon="-3.380250"><ele>809</ele><time>2020-01-18T11:59:32Z</time><name>PT6652</name></trkpt>
<trkpt lat="52.883230" lon="-3.380244"><ele>810</ele><time>2020-01-18T11:59:32Z</time><name>PT6653</name></trkpt>
<trkpt lat="52.883243" lon="-3.380241"><ele>810</ele><time>2020-01-18T11:59:33Z</time><name>PT6654</name></trkpt>
<trkpt lat="52.883255" lon="-3.380238"><ele>811</ele><time>2020-01-18T11:59:35Z</time><name>PT6655</name></trkpt>
<trkpt lat="52.883267" lon="-3.380235"><ele>811</ele><time>2020-01-18T11:59:35Z</time><name>PT6656</name></trkpt>
<trkpt lat="52.883280" lon="-3.380233"><ele>811</ele><time>2020-01-18T11:59:36Z</time><name>PT6657</name></trkpt>
<trkpt lat="52.883297" lon="-3.380234"><ele>812</ele><time>2020-01-18T11:59:38Z</time><name>PT6658</name></trkpt>
<trkpt lat="52.883302" lon="-3.380233"><ele>812</ele><time>2020-01-18T11:59:38Z</time><name>PT6659</name></trkpt>
<trkpt lat="52.883306" lon="-3.380232"><ele>812</ele><time>2020-01-18T11:59:39Z</time><name>PT6660</name></trkpt>
<trkpt lat="52.883311" lon="-3.380227"><ele>812</ele><time>2020-01-18T11:59:41Z</time><name>PT6661</name></trkpt>
<trkpt lat="52.883320" lon="-3.380221"><ele>813</ele><time>2020-01-18T11:59:41Z</time><name>PT6662</name></trkpt>
<trkpt lat="52.883327" lon="-3.380217"><ele>813</ele><time>2020-01-18T11:59:42Z</time><name>PT6663</name></trkpt>
<trkpt lat="52.883333" lon="-3.380216"><ele>813</ele><time>2020-01-18T11:59:44Z</time><name>PT6664</name></trkpt>
<trkpt lat="52.883338" lon="-3.380214"><ele>813</ele><time>2020-01-18T11:59:44Z</time><name>PT6665</name></trkpt>
<trkpt lat="52.883345" lon="-3.380211"><ele>813</ele><time>2020-01-18T11:59:45Z</time><name>PT6666</name></trkpt>
<trkpt lat="52.883354" lon="-3.380208"><ele>814</ele><time>2020-01-18T11:59:47Z</time><name>PT6667</name></trkpt>
<trkpt lat="52.883358" lon="-3.380207"><ele>814</ele><time>2020-01-18T11:59:47Z</time><name>PT6668</name></trkpt>
<trkpt lat="52.883367" lon="-3.380205"><ele>814</ele><time>2020-01-18T11:59:48Z</time><name>PT6669</name></trkpt>
<trkpt lat="52.883375" lon="-3.380202"><ele>815</ele><time>2020-01-18T11:59:50Z</time><name>PT6670</name></trkpt>
<trkpt lat="52.883384" lon="-3.380201"><ele>815</ele><time>2020-01-18T11:59:50Z</time><name>PT6671</name></trkpt>
<trkpt lat="52.883391" lon="-3.380201"><ele>816</ele><time>2020-01-18T11:59:51Z</time><name>PT6672</name></trkpt>
<trkpt lat="52.883405" lon="-3.380200"><ele>817</ele><time>2020-01-18T11:59:53Z</time><name>PT6673</name></trkpt>
<trkpt lat="52.883419" lon="-3.380198"><ele>817</ele><time>2020-01-18T11:59:53Z</time><name>PT6674</name></trkpt>
<trkpt lat="52.883431" lon="-3.380199"><ele>817</ele><time>2020-01-18T11:59:54Z</time><name>PT6675</name></trkpt>
<trkpt lat="52.883442" lon="-3.380199"><ele>818</ele><time>2020-01-18T11:59:56Z</time><name>PT6676</name></trkpt>
<trkpt lat="52.883452" lon="-3.380197"><ele>819</ele><time>2020-01-18T11:59:56Z</time><name>PT6677</name></trkpt>
<trkpt lat="52.883459" lon="-3.380193"><ele>819</ele><time>2020-01-18T11:59:57Z</time><name>PT6678</name></trkpt>
<trkpt lat="52.883473" lon="-3.380191"><ele>819</ele><time>2020-01-18T11:59:59Z</time><name>PT6679</name></trkpt>
<trkpt lat="52.883484" lon="-3.380190"><ele>819</ele><time>2020-01-18T12:00:00Z</time><name>PT6680</name></trkpt>
<trkpt lat="52.883496" lon="-3.380192"><ele>820</ele><time>2020-01-18T12:00:01Z</time><name>PT6681</name></trkpt>
<trkpt lat="52.883506" lon="-3.380195"><ele>820</ele><time>2020-01-18T12:00:02Z</time><name>PT6682</name></trkpt>
<trkpt lat="52.883516" lon="-3.380193"><ele>820</ele><time>2020-01-18T12:00:03Z</time><name>PT6683</name></trkpt>
<trkpt lat="52.883525" lon="-3.380192"><ele>820</ele><time>2020-01-18T12:00:03Z</time><name>PT6684</name></trkpt>
<trkpt lat="52.883539" lon="-3.380195"><ele>820</ele><time>2020-01-18T12:00:05Z</time><name>PT6685</name></trkpt>
<trkpt lat="52.883553" lon="-3.380196"><ele>821</ele><time>2020-01-18T12:00:06Z</time><name>PT6686</name></trkpt>
<trkpt lat="52.883564" lon="-3.380196"><ele>821</ele><time>2020-01-18T12:00:07Z</time><name>PT6687</name></trkpt>
<trkpt lat="52.883576" lon="-3.380197"><ele>821</ele><time>2020-01-18T12:00:08Z</time><name>PT6688</name></trkpt>
<trkpt lat="52.883586" lon="-3.380198"><ele>821</ele><time>2020-01-18T12:00:08Z</time><name>PT6689</name></trkpt>
<trkpt lat="52.883596" lon="-3.380203"><ele>821</ele><time>2020-01-18T12:00:09Z</time><name>PT6690</name></trkpt>
<trkpt lat="52.883607" lon="-3.380207"><ele>821</ele><time>2020-01-18T12:00:11Z</time><name>PT6691</name></trkpt>
<trkpt lat="52.883614" lon="-3.380209"><ele>821</ele><time>2020-01-18T12:00:11Z</time><name>PT6692</name></trkpt>
<trkpt lat="52.883620" lon="-3.380212"><ele>821</ele><time>2020-01-18T12:00:12Z</time><name>PT6693</name></trkpt>
<trkpt lat="52.883630" lon="-3.380216"><ele>821</ele><time>2020-01-18T12:00:14Z</time><name>PT6694</name></trkpt>
<trkpt lat="52.883638" lon="-3.380219"><ele>820</ele><time>2020-01-18T12:00:14Z</time><name>PT6695</name></trkpt>
<trkpt lat="52.883651" lon="-3.380222"><ele>821</ele><time>2020-01-18T12:00:15Z</time><name>PT6696</name></trkpt>
<trkpt lat="52.883658" lon="-3.380226"><ele>821</ele><time>2020-01-18T12:00:17Z</time><name>PT6697</name></trkpt>
<trkpt lat="52.883664" lon="-3.380227"><ele>821</ele><time>2020-01-18T12:00:17Z</time><name>PT6698</name></trkpt>
<trkpt lat="52.883669" lon="-3.380229"><ele>821</ele><time>2020-01-18T12:00:18Z</time><name>PT6699</name></trkpt>
<trkpt lat="52.883674" lon="-3.380231"><ele>821</ele><time>2020-01-18T12:00:20Z</time><name>PT6700</name></trkpt>
<trkpt lat="52.883684" lon="-3.380238"><ele>821</ele><time>2020-01-18T12:00:24Z</time><name>PT6701</name></trkpt>
<trkpt lat="52.883694" lon="-3.380239"><ele>821</ele><time>2020-01-18T12:00:26Z</time><name>PT6702</name></trkpt>
<trkpt lat="52.883704" lon="-3.380240"><ele>821</ele><time>2020-01-18T12:00:26Z</time><name>PT6703</name></trkpt>
<trkpt lat="52.883711" lon="-3.380240"><ele>821</ele><time>2020-01-18T12:00:28Z</time><name>PT6704</name></trkpt>
<trkpt lat="52.883723" lon="-3.380232"><ele>821</ele><time>2020-01-18T12:00:29Z</time><name>PT6705</name></trkpt>
<trkpt lat="52.883732" lon="-3.380228"><ele>822</ele><time>2020-01-18T12:00:29Z</time><name>PT6706</name></trkpt>
<trkpt lat="52.883741" lon="-3.380226"><ele>822</ele><time>2020-01-18T12:00:30Z</time><name>PT6707</name></trkpt>
<trkpt lat="52.883746" lon="-3.380225"><ele>822</ele><time>2020-01-18T12:00:32Z</time><name>PT6708</name></trkpt>
<trkpt lat="52.883755" lon="-3.380220"><ele>822</ele><time>2020-01-18T12:00:32Z</time><name>PT6709</name></trkpt>
<trkpt lat="52.883755" lon="-3.380220"><ele>821</ele><time>2020-01-18T12:00:33Z</time><name>PT6710</name></trkpt>
<trkpt lat="52.883758" lon="-3.380221"><ele>821</ele><time>2020-01-18T12:00:35Z</time><name>PT6711</name></trkpt>
<trkpt lat="52.883765" lon="-3.380214"><ele>821</ele><time>2020-01-18T12:00:35Z</time><name>PT6712</name></trkpt>
<trkpt lat="52.883770" lon="-3.380213"><ele>821</ele><time>2020-01-18T12:00:36Z</time><name>PT6713</name></trkpt>
<trkpt lat="52.883772" lon="-3.380219"><ele>822</ele><time>2020-01-18T12:00:38Z</time><name>PT6714</name></trkpt>
<trkpt lat="52.883783" lon="-3.380221"><ele>823</ele><time>2020-01-18T12:00:38Z</time><name>PT6715</name></trkpt>
<trkpt lat="52.883791" lon="-3.380216"><ele>823</ele><time>2020-01-18T12:00:39Z</time><name>PT6716</name></trkpt>
<trkpt lat="52.883798" lon="-3.380212"><ele>824</ele><time>2020-01-18T12:00:41Z</time><name>PT6717</name></trkpt>
<trkpt lat="52.883803" lon="-3.380206"><ele>824</ele><time>2020-01-18T12:00:41Z</time><name>PT6718</name></trkpt>
<trkpt lat="52.883808" lon="-3.380198"><ele>824</ele><time>2020-01-18T12:00:42Z</time><name>PT6719</name></trkpt>
<trkpt lat="52.883817" lon="-3.380190"><ele>825</ele><time>2020-01-18T12:00:44Z</time><name>PT6720</name></trkpt>
<trkpt lat="52.883827" lon="-3.380188"><ele>825</ele><time>2020-01-18T12:00:44Z</time><name>PT6721</name></trkpt>
<trkpt lat="52.883830" lon="-3.380180"><ele>825</ele><time>2020-01-18T12:00:45Z</time><name>PT6722</name></trkpt>
<trkpt lat="52.883833" lon="-3.380180"><ele>825</ele><time>2020-01-18T12:00:47Z</time><name>PT6723</name></trkpt>
<trkpt lat="52.883837" lon="-3.380184"><ele>825</ele><time>2020-01-18T12:00:47Z</time><name>PT6724</name></trkpt>
<trkpt lat="52.883842" lon="-3.380184"><ele>825</ele><time>2020-01-18T12:00:48Z</time><name>PT6725</name></trkpt>
<trkpt lat="52.883849" lon="-3.380182"><ele>826</ele><time>2020-01-18T12:00:50Z</time><name>PT6726</name></trkpt>
<trkpt lat="52.883859" lon="-3.380183"><ele>826</ele><time>2020-01-18T12:00:50Z</time><name>PT6727</name></trkpt>
<trkpt lat="52.883888" lon="-3.380185"><ele>828</ele><time>2020-01-18T12:00:51Z</time><name>PT6728</name></trkpt>
<trkpt lat="52.883887" lon="-3.380182"><ele>828</ele><time>2020-01-18T12:00:53Z</time><name>PT6729</name></trkpt>
<trkpt lat="52.883891" lon="-3.380182"><ele>828</ele><time>2020-01-18T12:00:53Z</time><name>PT6730</name></trkpt>
<trkpt lat="52.883893" lon="-3.380181"><ele>829</ele><time>2020-01-18T12:00:54Z</time><name>PT6731</name></trkpt>
<trkpt lat="52.883895" lon="-3.380184"><ele>829</ele><time>2020-01-18T12:00:56Z</time><name>PT6732</name></trkpt>
<trkpt lat="52.883897" lon="-3.380183"><ele>829</ele><time>2020-01-18T12:00:57Z</time><name>PT6733</name></trkpt>
<trkpt lat="52.883898" lon="-3.380183"><ele>829</ele><time>2020-01-18T12:00:57Z</time><name>PT6734</name></trkpt>
<trkpt lat="52.883902" lon="-3.380184"><ele>828</ele><time>2020-01-18T12:01:05Z</time><name>PT6735</name></trkpt>
<trkpt lat="52.883903" lon="-3.380185"><ele>828</ele><time>2020-01-18T12:01:06Z</time><name>PT6736</name></trkpt>
<trkpt lat="52.883900" lon="-3.380188"><ele>829</ele><time>2020-01-18T12:01:07Z</time><name>PT6737</name></trkpt>
<trkpt lat="52.883898" lon="-3.380192"><ele>829</ele><time>2020-01-18T12:01:08Z</time><name>PT6738</name></trkpt>
<trkpt lat="52.883895" lon="-3.380195"><ele>829</ele><time>2020-01-18T12:01:08Z</time><name>PT6739</name></trkpt>
<trkpt lat="52.883892" lon="-3.380195"><ele>829</ele><time>2020-01-18T12:01:09Z</time><name>PT6740</name></trkpt>
<trkpt lat="52.883888" lon="-3.380197"><ele>828</ele><time>2020-01-18T12:01:11Z</time><name>PT6741</name></trkpt>
<trkpt lat="52.883890" lon="-3.380201"><ele>828</ele><time>2020-01-18T12:01:12Z</time><name>PT6742</name></trkpt>
<trkpt lat="52.883887" lon="-3.380204"><ele>828</ele><time>2020-01-18T12:01:14Z</time><name>PT6743</name></trkpt>
<trkpt lat="52.883883" lon="-3.380209"><ele>829</ele><time>2020-01-18T12:01:14Z</time><name>PT6744</name></trkpt>
<trkpt lat="52.883882" lon="-3.380212"><ele>829</ele><time>2020-01-18T12:01:15Z</time><name>PT6745</name></trkpt>
<trkpt lat="52.883882" lon="-3.380213"><ele>829</ele><time>2020-01-18T12:01:17Z</time><name>PT6746</name></trkpt>
<trkpt lat="52.883880" lon="-3.380212"><ele>829</ele><time>2020-01-18T12:01:18Z</time><name>PT6747</name></trkpt>
<trkpt lat="52.883877" lon="-3.380212"><ele>829</ele><time>2020-01-18T12:01:19Z</time><name>PT6748</name></trkpt>
<trkpt lat="52.883876" lon="-3.380211"><ele>829</ele><time>2020-01-18T12:01:20Z</time><name>PT6749</name></trkpt>
<trkpt lat="52.883874" lon="-3.380212"><ele>829</ele><time>2020-01-18T12:01:21Z</time><name>PT6750</name></trkpt>
<trkpt lat="52.883871" lon="-3.380212"><ele>829</ele><time>2020-01-18T12:01:21Z</time><name>PT6751</name></trkpt>
<trkpt lat="52.883871" lon="-3.380215"><ele>829</ele><time>2020-01-18T12:01:23Z</time><name>PT6752</name></trkpt>
<trkpt lat="52.883871" lon="-3.380215"><ele>829</ele><time>2020-01-18T12:01:24Z</time><name>PT6753</name></trkpt>
<trkpt lat="52.883869" lon="-3.380219"><ele>829</ele><time>2020-01-18T12:01:25Z</time><name>PT6754</name></trkpt>
<trkpt lat="52.883869" lon="-3.380220"><ele>829</ele><time>2020-01-18T12:01:26Z</time><name>PT6755</name></trkpt>
<trkpt lat="52.883869" lon="-3.380217"><ele>828</ele><time>2020-01-18T12:01:26Z</time><name>PT6756</name></trkpt>
<trkpt lat="52.883870" lon="-3.380214"><ele>828</ele><time>2020-01-18T12:01:27Z</time><name>PT6757</name></trkpt>
<trkpt lat="52.883870" lon="-3.380213"><ele>828</ele><time>2020-01-18T12:01:29Z</time><name>PT6758</name></trkpt>
<trkpt lat="52.883874" lon="-3.380215"><ele>829</ele><time>2020-01-18T12:01:33Z</time><name>PT6759</name></trkpt>
<trkpt lat="52.883875" lon="-3.380214"><ele>829</ele><time>2020-01-18T12:01:35Z</time><name>PT6760</name></trkpt>
<trkpt lat="52.883876" lon="-3.380213"><ele>829</ele><time>2020-01-18T12:01:35Z</time><name>PT6761</name></trkpt>
<trkpt lat="52.883874" lon="-3.380212"><ele>829</ele><time>2020-01-18T12:01:47Z</time><name>PT6762</name></trkpt>
<trkpt lat="52.883875" lon="-3.380212"><ele>829</ele><time>2020-01-18T12:01:48Z</time><name>PT6763</name></trkpt>
<trkpt lat="52.883873" lon="-3.380209"><ele>829</ele><time>2020-01-18T12:01:50Z</time><name>PT6764</name></trkpt>
<trkpt lat="52.883876" lon="-3.380209"><ele>829</ele><time>2020-01-18T12:01:50Z</time><name>PT6765</name></trkpt>
<trkpt lat="52.883878" lon="-3.380208"><ele>829</ele><time>2020-01-18T12:01:51Z</time><name>PT6766</name></trkpt>
<trkpt lat="52.883875" lon="-3.380205"><ele>828</ele><time>2020-01-18T12:01:53Z</time><name>PT6767</name></trkpt>
<trkpt lat="52.883873" lon="-3.380203"><ele>828</ele><time>2020-01-18T12:01:56Z</time><name>PT6768</name></trkpt>
<trkpt lat="52.883875" lon="-3.380205"><ele>828</ele><time>2020-01-18T12:01:57Z</time><name>PT6769</name></trkpt>
<trkpt lat="52.883877" lon="-3.380207"><ele>828</ele><time>2020-01-18T12:01:59Z</time><name>PT6770</name></trkpt>
<trkpt lat="52.883876" lon="-3.380216"><ele>828</ele><time>2020-01-18T12:01:59Z</time><name>PT6771</name></trkpt>
<trkpt lat="52.883876" lon="-3.380218"><ele>828</ele><time>2020-01-18T12:02:00Z</time><name>PT6772</name></trkpt>
<trkpt lat="52.883875" lon="-3.380211"><ele>828</ele><time>2020-01-18T12:02:02Z</time><name>PT6773</name></trkpt>
<trkpt lat="52.883874" lon="-3.380213"><ele>828</ele><time>2020-01-18T12:02:02Z</time><name>PT6774</name></trkpt>
<trkpt lat="52.883876" lon="-3.380212"><ele>828</ele><time>2020-01-18T12:02:03Z</time><name>PT6775</name></trkpt>
<trkpt lat="52.883878" lon="-3.380210"><ele>828</ele><time>2020-01-18T12:02:05Z</time><name>PT6776</name></trkpt>
<trkpt lat="52.883880" lon="-3.380206"><ele>828</ele><time>2020-01-18T12:02:15Z</time><name>PT6777</name></trkpt>
<trkpt lat="52.883881" lon="-3.380204"><ele>828</ele><time>2020-01-18T12:02:17Z</time><name>PT6778</name></trkpt>
<trkpt lat="52.883880" lon="-3.380204"><ele>828</ele><time>2020-01-18T12:02:17Z</time><name>PT6779</name></trkpt>
<trkpt lat="52.883875" lon="-3.380202"><ele>828</ele><time>2020-01-18T12:02:18Z</time><name>PT6780</name></trkpt>
<trkpt lat="52.883872" lon="-3.380199"><ele>829</ele><time>2020-01-18T12:02:33Z</time><name>PT6781</name></trkpt>
<trkpt lat="52.883870" lon="-3.380170"><ele>831</ele><time>2020-01-18T12:02:35Z</time><name>PT6782</name></trkpt>
<trkpt lat="52.883890" lon="-3.380192"><ele>831</ele><time>2020-01-18T12:02:35Z</time><name>PT6783</name></trkpt>
<trkpt lat="52.883893" lon="-3.380197"><ele>833</ele><time>2020-01-18T12:02:36Z</time><name>PT6784</name></trkpt>
<trkpt lat="52.883889" lon="-3.380189"><ele>833</ele><time>2020-01-18T12:02:38Z</time><name>PT6785</name></trkpt>
<trkpt lat="52.883890" lon="-3.380187"><ele>833</ele><time>2020-01-18T12:02:48Z</time><name>PT6786</name></trkpt>
<trkpt lat="52.883889" lon="-3.380186"><ele>833</ele><time>2020-01-18T12:02:50Z</time><name>PT6787</name></trkpt>
<trkpt lat="52.883890" lon="-3.380186"><ele>833</ele><time>2020-01-18T12:02:50Z</time><name>PT6788</name></trkpt>
<trkpt lat="52.883889" lon="-3.380185"><ele>833</ele><time>2020-01-18T12:02:51Z</time><name>PT6789</name></trkpt>
<trkpt lat="52.883888" lon="-3.380181"><ele>833</ele><time>2020-01-18T12:03:06Z</time><name>PT6790</name></trkpt>
<trkpt lat="52.883888" lon="-3.380181"><ele>833</ele><time>2020-01-18T12:03:07Z</time><name>PT6791</name></trkpt>
<trkpt lat="52.883889" lon="-3.380182"><ele>833</ele><time>2020-01-18T12:03:08Z</time><name>PT6792</name></trkpt>
<trkpt lat="52.883890" lon="-3.380187"><ele>833</ele><time>2020-01-18T12:03:09Z</time><name>PT6793</name></trkpt>
<trkpt lat="52.883891" lon="-3.380187"><ele>833</ele><time>2020-01-18T12:03:10Z</time><name>PT6794</name></trkpt>
<trkpt lat="52.883889" lon="-3.380192"><ele>833</ele><time>2020-01-18T12:03:11Z</time><name>PT6795</name></trkpt>
<trkpt lat="52.883886" lon="-3.380191"><ele>832</ele><time>2020-01-18T12:03:11Z</time><name>PT6796</name></trkpt>
<trkpt lat="52.883887" lon="-3.380190"><ele>833</ele><time>2020-01-18T12:03:12Z</time><name>PT6797</name></trkpt>
<trkpt lat="52.883887" lon="-3.380190"><ele>832</ele><time>2020-01-18T12:03:14Z</time><name>PT6798</name></trkpt>
<trkpt lat="52.883885" lon="-3.380193"><ele>832</ele><time>2020-01-18T12:03:14Z</time><name>PT6799</name></trkpt>
<trkpt lat="52.883887" lon="-3.380187"><ele>832</ele><time>2020-01-18T12:03:44Z</time><name>PT6800</name></trkpt>
<trkpt lat="52.883885" lon="-3.380188"><ele>832</ele><time>2020-01-18T12:03:44Z</time><name>PT6801</name></trkpt>
<trkpt lat="52.883883" lon="-3.380185"><ele>832</ele><time>2020-01-18T12:03:46Z</time><name>PT6802</name></trkpt>
<trkpt lat="52.883887" lon="-3.380186"><ele>832</ele><time>2020-01-18T12:03:47Z</time><name>PT6803</name></trkpt>
<trkpt lat="52.883893" lon="-3.380190"><ele>832</ele><time>2020-01-18T12:03:47Z</time><name>PT6804</name></trkpt>
<trkpt lat="52.883887" lon="-3.380182"><ele>832</ele><time>2020-01-18T12:03:48Z</time><name>PT6805</name></trkpt>
<trkpt lat="52.883888" lon="-3.380179"><ele>832</ele><time>2020-01-18T12:03:50Z</time><name>PT6806</name></trkpt>
<trkpt lat="52.883890" lon="-3.380176"><ele>831</ele><time>2020-01-18T12:03:51Z</time><name>PT6807</name></trkpt>
<trkpt lat="52.883887" lon="-3.380164"><ele>831</ele><time>2020-01-18T12:03:52Z</time><name>PT6808</name></trkpt>
<trkpt lat="52.883888" lon="-3.380170"><ele>830</ele><time>2020-01-18T12:03:53Z</time><name>PT6809</name></trkpt>
<trkpt lat="52.883889" lon="-3.380176"><ele>830</ele><time>2020-01-18T12:03:54Z</time><name>PT6810</name></trkpt>
<trkpt lat="52.883888" lon="-3.380191"><ele>829</ele><time>2020-01-18T12:03:55Z</time><name>PT6811</name></trkpt>
<trkpt lat="52.883891" lon="-3.380199"><ele>830</ele><time>2020-01-18T12:03:56Z</time><name>PT6812</name></trkpt>
<trkpt lat="52.883887" lon="-3.380184"><ele>829</ele><time>2020-01-18T12:03:57Z</time><name>PT6813</name></trkpt>
<trkpt lat="52.883882" lon="-3.380174"><ele>830</ele><time>2020-01-18T12:03:58Z</time><name>PT6814</name></trkpt>
<trkpt lat="52.883882" lon="-3.380176"><ele>830</ele><time>2020-01-18T12:03:59Z</time><name>PT6815</name></trkpt>
<trkpt lat="52.883880" lon="-3.380166"><ele>829</ele><time>2020-01-18T12:03:59Z</time><name>PT6816</name></trkpt>
<trkpt lat="52.883886" lon="-3.380146"><ele>831</ele><time>2020-01-18T12:04:00Z</time><name>PT6817</name></trkpt>
<trkpt lat="52.883890" lon="-3.380154"><ele>831</ele><time>2020-01-18T12:04:02Z</time><name>PT6818</name></trkpt>
<trkpt lat="52.883892" lon="-3.380158"><ele>831</ele><time>2020-01-18T12:04:02Z</time><name>PT6819</name></trkpt>
<trkpt lat="52.883892" lon="-3.380156"><ele>831</ele><time>2020-01-18T12:04:03Z</time><name>PT6820</name></trkpt>
<trkpt lat="52.883896" lon="-3.380159"><ele>831</ele><time>2020-01-18T12:04:05Z</time><name>PT6821</name></trkpt>
<trkpt lat="52.883897" lon="-3.380160"><ele>831</ele><time>2020-01-18T12:04:05Z</time><name>PT6822</name></trkpt>
<trkpt lat="52.883896" lon="-3.380162"><ele>831</ele><time>2020-01-18T12:04:06Z</time><name>PT6823</name></trkpt>
<trkpt lat="52.883897" lon="-3.380163"><ele>831</ele><time>2020-01-18T12:04:08Z</time><name>PT6824</name></trkpt>
<trkpt lat="52.883898" lon="-3.380169"><ele>831</ele><time>2020-01-18T12:04:19Z</time><name>PT6825</name></trkpt>
<trkpt lat="52.883900" lon="-3.380174"><ele>830</ele><time>2020-01-18T12:04:20Z</time><name>PT6826</name></trkpt>
<trkpt lat="52.883905" lon="-3.380179"><ele>830</ele><time>2020-01-18T12:04:20Z</time><name>PT6827</name></trkpt>
<trkpt lat="52.883907" lon="-3.380195"><ele>830</ele><time>2020-01-18T12:04:21Z</time><name>PT6828</name></trkpt>
<trkpt lat="52.883905" lon="-3.380194"><ele>830</ele><time>2020-01-18T12:04:23Z</time><name>PT6829</name></trkpt>
<trkpt lat="52.883905" lon="-3.380194"><ele>830</ele><time>2020-01-18T12:04:24Z</time><name>PT6830</name></trkpt>
<trkpt lat="52.883904" lon="-3.380192"><ele>830</ele><time>2020-01-18T12:04:25Z</time><name>PT6831</name></trkpt>
<trkpt lat="52.883908" lon="-3.380202"><ele>830</ele><time>2020-01-18T12:04:26Z</time><name>PT6832</name></trkpt>
<trkpt lat="52.883908" lon="-3.380204"><ele>830</ele><time>2020-01-18T12:04:26Z</time><name>PT6833</name></trkpt>
<trkpt lat="52.883907" lon="-3.380204"><ele>830</ele><time>2020-01-18T12:04:27Z</time><name>PT6834</name></trkpt>
<trkpt lat="52.883908" lon="-3.380214"><ele>829</ele><time>2020-01-18T12:04:29Z</time><name>PT6835</name></trkpt>
<trkpt lat="52.883907" lon="-3.380217"><ele>829</ele><time>2020-01-18T12:04:29Z</time><name>PT6836</name></trkpt>
<trkpt lat="52.883909" lon="-3.380225"><ele>829</ele><time>2020-01-18T12:04:30Z</time><name>PT6837</name></trkpt>
<trkpt lat="52.883910" lon="-3.380228"><ele>829</ele><time>2020-01-18T12:04:32Z</time><name>PT6838</name></trkpt>
<trkpt lat="52.883906" lon="-3.380224"><ele>828</ele><time>2020-01-18T12:04:32Z</time><name>PT6839</name></trkpt>
<trkpt lat="52.883904" lon="-3.380225"><ele>828</ele><time>2020-01-18T12:04:33Z</time><name>PT6840</name></trkpt>
<trkpt lat="52.883902" lon="-3.380226"><ele>829</ele><time>2020-01-18T12:04:35Z</time><name>PT6841</name></trkpt>
<trkpt lat="52.883899" lon="-3.380225"><ele>828</ele><time>2020-01-18T12:04:35Z</time><name>PT6842</name></trkpt>
<trkpt lat="52.883900" lon="-3.380228"><ele>828</ele><time>2020-01-18T12:04:41Z</time><name>PT6843</name></trkpt>
<trkpt lat="52.883901" lon="-3.380234"><ele>828</ele><time>2020-01-18T12:04:41Z</time><name>PT6844</name></trkpt>
<trkpt lat="52.883901" lon="-3.380240"><ele>828</ele><time>2020-01-18T12:04:42Z</time><name>PT6845</name></trkpt>
<trkpt lat="52.883903" lon="-3.380246"><ele>828</ele><time>2020-01-18T12:04:44Z</time><name>PT6846</name></trkpt>
<trkpt lat="52.883903" lon="-3.380253"><ele>828</ele><time>2020-01-18T12:04:45Z</time><name>PT6847</name></trkpt>
<trkpt lat="52.883902" lon="-3.380263"><ele>828</ele><time>2020-01-18T12:04:46Z</time><name>PT6848</name></trkpt>
<trkpt lat="52.883903" lon="-3.380266"><ele>829</ele><time>2020-01-18T12:04:47Z</time><name>PT6849</name></trkpt>
<trkpt lat="52.883902" lon="-3.380267"><ele>828</ele><time>2020-01-18T12:04:48Z</time><name>PT6850</name></trkpt>
<trkpt lat="52.883905" lon="-3.380267"><ele>828</ele><time>2020-01-18T12:04:49Z</time><name>PT6851</name></trkpt>
<trkpt lat="52.883905" lon="-3.380267"><ele>828</ele><time>2020-01-18T12:04:50Z</time><name>PT6852</name></trkpt>
<trkpt lat="52.883907" lon="-3.380263"><ele>829</ele><time>2020-01-18T12:04:50Z</time><name>PT6853</name></trkpt>
<trkpt lat="52.883911" lon="-3.380262"><ele>830</ele><time>2020-01-18T12:04:51Z</time><name>PT6854</name></trkpt>
<trkpt lat="52.883910" lon="-3.380260"><ele>830</ele><time>2020-01-18T12:04:53Z</time><name>PT6855</name></trkpt>
<trkpt lat="52.883912" lon="-3.380256"><ele>830</ele><time>2020-01-18T12:04:53Z</time><name>PT6856</name></trkpt>
<trkpt lat="52.883913" lon="-3.380249"><ele>830</ele><time>2020-01-18T12:04:54Z</time><name>PT6857</name></trkpt>
<trkpt lat="52.883916" lon="-3.380257"><ele>829</ele><time>2020-01-18T12:05:05Z</time><name>PT6858</name></trkpt>
<trkpt lat="52.883915" lon="-3.380260"><ele>829</ele><time>2020-01-18T12:05:06Z</time><name>PT6859</name></trkpt>
<trkpt lat="52.883917" lon="-3.380267"><ele>828</ele><time>2020-01-18T12:05:08Z</time><name>PT6860</name></trkpt>
<trkpt lat="52.883917" lon="-3.380271"><ele>827</ele><time>2020-01-18T12:05:08Z</time><name>PT6861</name></trkpt>
<trkpt lat="52.883916" lon="-3.380268"><ele>828</ele><time>2020-01-18T12:05:09Z</time><name>PT6862</name></trkpt>
<trkpt lat="52.883919" lon="-3.380263"><ele>828</ele><time>2020-01-18T12:05:11Z</time><name>PT6863</name></trkpt>
<trkpt lat="52.883916" lon="-3.380258"><ele>827</ele><time>2020-01-18T12:05:11Z</time><name>PT6864</name></trkpt>
<trkpt lat="52.883912" lon="-3.380253"><ele>827</ele><time>2020-01-18T12:05:12Z</time><name>PT6865</name></trkpt>
<trkpt lat="52.883907" lon="-3.380254"><ele>826</ele><time>2020-01-18T12:05:14Z</time><name>PT6866</name></trkpt>
<trkpt lat="52.883906" lon="-3.380251"><ele>826</ele><time>2020-01-18T12:05:14Z</time><name>PT6867</name></trkpt>
<trkpt lat="52.883905" lon="-3.380252"><ele>826</ele><time>2020-01-18T12:05:15Z</time><name>PT6868</name></trkpt>
<trkpt lat="52.883903" lon="-3.380254"><ele>826</ele><time>2020-01-18T12:05:17Z</time><name>PT6869</name></trkpt>
<trkpt lat="52.883896" lon="-3.380246"><ele>826</ele><time>2020-01-18T12:05:23Z</time><name>PT6870</name></trkpt>
<trkpt lat="52.883893" lon="-3.380242"><ele>827</ele><time>2020-01-18T12:05:24Z</time><name>PT6871</name></trkpt>
<trkpt lat="52.883891" lon="-3.380239"><ele>827</ele><time>2020-01-18T12:05:26Z</time><name>PT6872</name></trkpt>
<trkpt lat="52.883889" lon="-3.380238"><ele>827</ele><time>2020-01-18T12:05:26Z</time><name>PT6873</name></trkpt>
<trkpt lat="52.883888" lon="-3.380239"><ele>827</ele><time>2020-01-18T12:05:27Z</time><name>PT6874</name></trkpt>
<trkpt lat="52.883886" lon="-3.380236"><ele>828</ele><time>2020-01-18T12:05:30Z</time><name>PT6875</name></trkpt>
<trkpt lat="52.883888" lon="-3.380230"><ele>828</ele><time>2020-01-18T12:05:32Z</time><name>PT6876</name></trkpt>
<trkpt lat="52.883886" lon="-3.380231"><ele>828</ele><time>2020-01-18T12:05:32Z</time><name>PT6877</name></trkpt>
<trkpt lat="52.883883" lon="-3.380226"><ele>827</ele><time>2020-01-18T12:05:33Z</time><name>PT6878</name></trkpt>
<trkpt lat="52.883883" lon="-3.380222"><ele>827</ele><time>2020-01-18T12:05:35Z</time><name>PT6879</name></trkpt>
<trkpt lat="52.883888" lon="-3.380209"><ele>827</ele><time>2020-01-18T12:05:35Z</time><name>PT6880</name></trkpt>
<trkpt lat="52.883890" lon="-3.380207"><ele>827</ele><time>2020-01-18T12:05:36Z</time><name>PT6881</name></trkpt>
<trkpt lat="52.883894" lon="-3.380210"><ele>827</ele><time>2020-01-18T12:05:38Z</time><name>PT6882</name></trkpt>
<trkpt lat="52.883895" lon="-3.380212"><ele>828</ele><time>2020-01-18T12:05:38Z</time><name>PT6883</name></trkpt>
<trkpt lat="52.883899" lon="-3.380211"><ele>828</ele><time>2020-01-18T12:05:39Z</time><name>PT6884</name></trkpt>
<trkpt lat="52.883922" lon="-3.380194"><ele>827</ele><time>2020-01-18T12:05:45Z</time><name>PT6885</name></trkpt>
<trkpt lat="52.883923" lon="-3.380191"><ele>827</ele><time>2020-01-18T12:05:47Z</time><name>PT6886</name></trkpt>
<trkpt lat="52.883923" lon="-3.380194"><ele>827</ele><time>2020-01-18T12:05:47Z</time><name>PT6887</name></trkpt>
<trkpt lat="52.883924" lon="-3.380198"><ele>827</ele><time>2020-01-18T12:05:48Z</time><name>PT6888</name></trkpt>
<trkpt lat="52.883927" lon="-3.380205"><ele>827</ele><time>2020-01-18T12:05:50Z</time><name>PT6889</name></trkpt>
<trkpt lat="52.883927" lon="-3.380214"><ele>827</ele><time>2020-01-18T12:05:50Z</time><name>PT6890</name></trkpt>
<trkpt lat="52.883925" lon="-3.380213"><ele>827</ele><time>2020-01-18T12:05:51Z</time><name>PT6891</name></trkpt>
<trkpt lat="52.883926" lon="-3.380216"><ele>827</ele><time>2020-01-18T12:05:53Z</time><name>PT6892</name></trkpt>
<trkpt lat="52.883928" lon="-3.380217"><ele>826</ele><time>2020-01-18T12:05:53Z</time><name>PT6893</name></trkpt>
<trkpt lat="52.883928" lon="-3.380220"><ele>826</ele><time>2020-01-18T12:05:54Z</time><name>PT6894</name></trkpt>
<trkpt lat="52.883928" lon="-3.380222"><ele>826</ele><time>2020-01-18T12:06:17Z</time><name>PT6895</name></trkpt>
<trkpt lat="52.883930" lon="-3.380235"><ele>826</ele><time>2020-01-18T12:06:17Z</time><name>PT6896</name></trkpt>
<trkpt lat="52.883932" lon="-3.380235"><ele>826</ele><time>2020-01-18T12:06:18Z</time><name>PT6897</name></trkpt>
<trkpt lat="52.883934" lon="-3.380235"><ele>826</ele><time>2020-01-18T12:06:20Z</time><name>PT6898</name></trkpt>
<trkpt lat="52.883933" lon="-3.380235"><ele>826</ele><time>2020-01-18T12:06:20Z</time><name>PT6899</name></trkpt>
<trkpt lat="52.883929" lon="-3.380230"><ele>826</ele><time>2020-01-18T12:06:21Z</time><name>PT6900</name></trkpt>
<trkpt lat="52.883923" lon="-3.380227"><ele>826</ele><time>2020-01-18T12:06:23Z</time><name>PT6901</name></trkpt>
<trkpt lat="52.883919" lon="-3.380224"><ele>826</ele><time>2020-01-18T12:06:23Z</time><name>PT6902</name></trkpt>
<trkpt lat="52.883917" lon="-3.380227"><ele>826</ele><time>2020-01-18T12:06:24Z</time><name>PT6903</name></trkpt>
<trkpt lat="52.883914" lon="-3.380229"><ele>826</ele><time>2020-01-18T12:06:26Z</time><name>PT6904</name></trkpt>
<trkpt lat="52.883913" lon="-3.380231"><ele>826</ele><time>2020-01-18T12:06:26Z</time><name>PT6905</name></trkpt>
<trkpt lat="52.883913" lon="-3.380230"><ele>827</ele><time>2020-01-18T12:06:28Z</time><name>PT6906</name></trkpt>
<trkpt lat="52.883914" lon="-3.380231"><ele>827</ele><time>2020-01-18T12:06:29Z</time><name>PT6907</name></trkpt>
<trkpt lat="52.883916" lon="-3.380232"><ele>827</ele><time>2020-01-18T12:06:34Z</time><name>PT6908</name></trkpt>
<trkpt lat="52.883912" lon="-3.380237"><ele>827</ele><time>2020-01-18T12:06:35Z</time><name>PT6909</name></trkpt>
<trkpt lat="52.883910" lon="-3.380237"><ele>828</ele><time>2020-01-18T12:06:35Z</time><name>PT6910</name></trkpt>
<trkpt lat="52.883907" lon="-3.380235"><ele>827</ele><time>2020-01-18T12:06:36Z</time><name>PT6911</name></trkpt>
<trkpt lat="52.883908" lon="-3.380228"><ele>828</ele><time>2020-01-18T12:06:38Z</time><name>PT6912</name></trkpt>
<trkpt lat="52.883905" lon="-3.380228"><ele>828</ele><time>2020-01-18T12:06:38Z</time><name>PT6913</name></trkpt>
<trkpt lat="52.883905" lon="-3.380228"><ele>828</ele><time>2020-01-18T12:06:39Z</time><name>PT6914</name></trkpt>
<trkpt lat="52.883905" lon="-3.380229"><ele>828</ele><time>2020-01-18T12:06:41Z</time><name>PT6915</name></trkpt>
<trkpt lat="52.883902" lon="-3.380226"><ele>828</ele><time>2020-01-18T12:06:44Z</time><name>PT6916</name></trkpt>
<trkpt lat="52.883901" lon="-3.380227"><ele>828</ele><time>2020-01-18T12:06:45Z</time><name>PT6917</name></trkpt>
<trkpt lat="52.883901" lon="-3.380231"><ele>829</ele><time>2020-01-18T12:06:47Z</time><name>PT6918</name></trkpt>
<trkpt lat="52.883904" lon="-3.380236"><ele>829</ele><time>2020-01-18T12:06:47Z</time><name>PT6919</name></trkpt>
<trkpt lat="52.883903" lon="-3.380236"><ele>828</ele><time>2020-01-18T12:06:48Z</time><name>PT6920</name></trkpt>
<trkpt lat="52.883906" lon="-3.380239"><ele>828</ele><time>2020-01-18T12:06:50Z</time><name>PT6921</name></trkpt>
<trkpt lat="52.883907" lon="-3.380237"><ele>828</ele><time>2020-01-18T12:06:50Z</time><name>PT6922</name></trkpt>
<trkpt lat="52.883908" lon="-3.380237"><ele>829</ele><time>2020-01-18T12:07:17Z</time><name>PT6923</name></trkpt>
<trkpt lat="52.883909" lon="-3.380238"><ele>829</ele><time>2020-01-18T12:07:17Z</time><name>PT6924</name></trkpt>
<trkpt lat="52.883906" lon="-3.380239"><ele>829</ele><time>2020-01-18T12:07:18Z</time><name>PT6925</name></trkpt>
<trkpt lat="52.883907" lon="-3.380238"><ele>829</ele><time>2020-01-18T12:07:20Z</time><name>PT6926</name></trkpt>
<trkpt lat="52.883906" lon="-3.380239"><ele>829</ele><time>2020-01-18T12:07:20Z</time><name>PT6927</name></trkpt>
<trkpt lat="52.883907" lon="-3.380238"><ele>829</ele><time>2020-01-18T12:07:23Z</time><name>PT6928</name></trkpt>
<trkpt lat="52.883906" lon="-3.380241"><ele>829</ele><time>2020-01-18T12:07:24Z</time><name>PT6929</name></trkpt>
<trkpt lat="52.883905" lon="-3.380240"><ele>829</ele><time>2020-01-18T12:07:25Z</time><name>PT6930</name></trkpt>
<trkpt lat="52.883905" lon="-3.380241"><ele>828</ele><time>2020-01-18T12:07:26Z</time><name>PT6931</name></trkpt>
<trkpt lat="52.883904" lon="-3.380238"><ele>828</ele><time>2020-01-18T12:07:27Z</time><name>PT6932</name></trkpt>
<trkpt lat="52.883903" lon="-3.380238"><ele>829</ele><time>2020-01-18T12:07:28Z</time><name>PT6933</name></trkpt>
<trkpt lat="52.883902" lon="-3.380238"><ele>829</ele><time>2020-01-18T12:07:29Z</time><name>PT6934</name></trkpt>
<trkpt lat="52.883903" lon="-3.380238"><ele>829</ele><time>2020-01-18T12:07:29Z</time><name>PT6935</name></trkpt>
<trkpt lat="52.883903" lon="-3.380239"><ele>829</ele><time>2020-01-18T12:07:56Z</time><name>PT6936</name></trkpt>
<trkpt lat="52.883903" lon="-3.380239"><ele>829</ele><time>2020-01-18T12:07:56Z</time><name>PT6937</name></trkpt>
<trkpt lat="52.883902" lon="-3.380237"><ele>829</ele><time>2020-01-18T12:07:57Z</time><name>PT6938</name></trkpt>
<trkpt lat="52.883902" lon="-3.380235"><ele>829</ele><time>2020-01-18T12:07:59Z</time><name>PT6939</name></trkpt>
<trkpt lat="52.883899" lon="-3.380234"><ele>829</ele><time>2020-01-18T12:08:03Z</time><name>PT6940</name></trkpt>
<trkpt lat="52.883901" lon="-3.380230"><ele>829</ele><time>2020-01-18T12:08:05Z</time><name>PT6941</name></trkpt>
<trkpt lat="52.883908" lon="-3.380225"><ele>831</ele><time>2020-01-18T12:08:05Z</time><name>PT6942</name></trkpt>
<trkpt lat="52.883908" lon="-3.380227"><ele>831</ele><time>2020-01-18T12:08:06Z</time><name>PT6943</name></trkpt>
<trkpt lat="52.883907" lon="-3.380233"><ele>831</ele><time>2020-01-18T12:08:08Z</time><name>PT6944</name></trkpt>
<trkpt lat="52.883905" lon="-3.380236"><ele>831</ele><time>2020-01-18T12:08:08Z</time><name>PT6945</name></trkpt>
<trkpt lat="52.883904" lon="-3.380232"><ele>831</ele><time>2020-01-18T12:08:15Z</time><name>PT6946</name></trkpt>
<trkpt lat="52.883900" lon="-3.380236"><ele>831</ele><time>2020-01-18T12:08:16Z</time><name>PT6947</name></trkpt>
<trkpt lat="52.883894" lon="-3.380241"><ele>831</ele><time>2020-01-18T12:08:17Z</time><name>PT6948</name></trkpt>
<trkpt lat="52.883886" lon="-3.380244"><ele>831</ele><time>2020-01-18T12:08:17Z</time><name>PT6949</name></trkpt>
<trkpt lat="52.883881" lon="-3.380251"><ele>831</ele><time>2020-01-18T12:08:18Z</time><name>PT6950</name></trkpt>
<trkpt lat="52.883874" lon="-3.380251"><ele>831</ele><time>2020-01-18T12:08:20Z</time><name>PT6951</name></trkpt>
<trkpt lat="52.883871" lon="-3.380262"><ele>830</ele><time>2020-01-18T12:08:20Z</time><name>PT6952</name></trkpt>
<trkpt lat="52.883867" lon="-3.380266"><ele>830</ele><time>2020-01-18T12:08:21Z</time><name>PT6953</name></trkpt>
<trkpt lat="52.883861" lon="-3.380266"><ele>830</ele><time>2020-01-18T12:08:23Z</time><name>PT6954</name></trkpt>
<trkpt lat="52.883854" lon="-3.380263"><ele>829</ele><time>2020-01-18T12:08:23Z</time><name>PT6955</name></trkpt>
<trkpt lat="52.883847" lon="-3.380262"><ele>829</ele><time>2020-01-18T12:08:24Z</time><name>PT6956</name></trkpt>
<trkpt lat="52.883837" lon="-3.380259"><ele>829</ele><time>2020-01-18T12:08:26Z</time><name>PT6957</name></trkpt>
<trkpt lat="52.883831" lon="-3.380256"><ele>829</ele><time>2020-01-18T12:08:26Z</time><name>PT6958</name></trkpt>
<trkpt lat="52.883824" lon="-3.380258"><ele>829</ele><time>2020-01-18T12:08:27Z</time><name>PT6959</name></trkpt>
<trkpt lat="52.883814" lon="-3.380262"><ele>829</ele><time>2020-01-18T12:08:29Z</time><name>PT6960</name></trkpt>
<trkpt lat="52.883809" lon="-3.380268"><ele>829</ele><time>2020-01-18T12:08:29Z</time><name>PT6961</name></trkpt>
<trkpt lat="52.883802" lon="-3.380268"><ele>829</ele><time>2020-01-18T12:08:30Z</time><name>PT6962</name></trkpt>
<trkpt lat="52.883796" lon="-3.380270"><ele>829</ele><time>2020-01-18T12:08:32Z</time><name>PT6963</name></trkpt>
<trkpt lat="52.883793" lon="-3.380273"><ele>828</ele><time>2020-01-18T12:08:32Z</time><name>PT6964</name></trkpt>
<trkpt lat="52.883789" lon="-3.380275"><ele>829</ele><time>2020-01-18T12:08:33Z</time><name>PT6965</name></trkpt>
<trkpt lat="52.883784" lon="-3.380272"><ele>829</ele><time>2020-01-18T12:08:35Z</time><name>PT6966</name></trkpt>
<trkpt lat="52.883777" lon="-3.380269"><ele>828</ele><time>2020-01-18T12:08:35Z</time><name>PT6967</name></trkpt>
<trkpt lat="52.883770" lon="-3.380264"><ele>828</ele><time>2020-01-18T12:08:36Z</time><name>PT6968</name></trkpt>
<trkpt lat="52.883763" lon="-3.380260"><ele>828</ele><time>2020-01-18T12:08:38Z</time><name>PT6969</name></trkpt>
<trkpt lat="52.883759" lon="-3.380256"><ele>829</ele><time>2020-01-18T12:08:38Z</time><name>PT6970</name></trkpt>
<trkpt lat="52.883752" lon="-3.380249"><ele>828</ele><time>2020-01-18T12:08:40Z</time><name>PT6971</name></trkpt>
<trkpt lat="52.883747" lon="-3.380241"><ele>828</ele><time>2020-01-18T12:08:41Z</time><name>PT6972</name></trkpt>
<trkpt lat="52.883741" lon="-3.380232"><ele>828</ele><time>2020-01-18T12:08:41Z</time><name>PT6973</name></trkpt>
<trkpt lat="52.883732" lon="-3.380228"><ele>828</ele><time>2020-01-18T12:08:43Z</time><name>PT6974</name></trkpt>
<trkpt lat="52.883720" lon="-3.380221"><ele>827</ele><time>2020-01-18T12:08:44Z</time><name>PT6975</name></trkpt>
<trkpt lat="52.883707" lon="-3.380219"><ele>827</ele><time>2020-01-18T12:08:45Z</time><name>PT6976</name></trkpt>
<trkpt lat="52.883698" lon="-3.380220"><ele>828</ele><time>2020-01-18T12:08:46Z</time><name>PT6977</name></trkpt>
<trkpt lat="52.883688" lon="-3.380214"><ele>827</ele><time>2020-01-18T12:08:47Z</time><name>PT6978</name></trkpt>
<trkpt lat="52.883677" lon="-3.380212"><ele>827</ele><time>2020-01-18T12:08:48Z</time><name>PT6979</name></trkpt>
<trkpt lat="52.883668" lon="-3.380214"><ele>828</ele><time>2020-01-18T12:08:49Z</time><name>PT6980</name></trkpt>
<trkpt lat="52.883659" lon="-3.380210"><ele>828</ele><time>2020-01-18T12:08:50Z</time><name>PT6981</name></trkpt>
<trkpt lat="52.883649" lon="-3.380210"><ele>828</ele><time>2020-01-18T12:08:50Z</time><name>PT6982</name></trkpt>
<trkpt lat="52.883639" lon="-3.380209"><ele>828</ele><time>2020-01-18T12:08:51Z</time><name>PT6983</name></trkpt>
<trkpt lat="52.883631" lon="-3.380205"><ele>828</ele><time>2020-01-18T12:08:53Z</time><name>PT6984</name></trkpt>
<trkpt lat="52.883624" lon="-3.380204"><ele>828</ele><time>2020-01-18T12:08:53Z</time><name>PT6985</name></trkpt>
<trkpt lat="52.883615" lon="-3.380207"><ele>828</ele><time>2020-01-18T12:08:54Z</time><name>PT6986</name></trkpt>
<trkpt lat="52.883605" lon="-3.380205"><ele>828</ele><time>2020-01-18T12:08:56Z</time><name>PT6987</name></trkpt>
<trkpt lat="52.883597" lon="-3.380202"><ele>828</ele><time>2020-01-18T12:08:56Z</time><name>PT6988</name></trkpt>
<trkpt lat="52.883586" lon="-3.380205"><ele>828</ele><time>2020-01-18T12:08:57Z</time><name>PT6989</name></trkpt>
<trkpt lat="52.883575" lon="-3.380207"><ele>828</ele><time>2020-01-18T12:08:59Z</time><name>PT6990</name></trkpt>
<trkpt lat="52.883564" lon="-3.380204"><ele>828</ele><time>2020-01-18T12:08:59Z</time><name>PT6991</name></trkpt>
<trkpt lat="52.883554" lon="-3.380203"><ele>828</ele><time>2020-01-18T12:09:00Z</time><name>PT6992</name></trkpt>
<trkpt lat="52.883545" lon="-3.380205"><ele>828</ele><time>2020-01-18T12:09:02Z</time><name>PT6993</name></trkpt>
<trkpt lat="52.883535" lon="-3.380213"><ele>827</ele><time>2020-01-18T12:09:02Z</time><name>PT6994</name></trkpt>
<trkpt lat="52.883524" lon="-3.380217"><ele>827</ele><time>2020-01-18T12:09:03Z</time><name>PT6995</name></trkpt>
<trkpt lat="52.883517" lon="-3.380222"><ele>828</ele><time>2020-01-18T12:09:05Z</time><name>PT6996</name></trkpt>
<trkpt lat="52.883510" lon="-3.380224"><ele>827</ele><time>2020-01-18T12:09:05Z</time><name>PT6997</name></trkpt>
<trkpt lat="52.883502" lon="-3.380223"><ele>828</ele><time>2020-01-18T12:09:06Z</time><name>PT6998</name></trkpt>
<trkpt lat="52.883490" lon="-3.380219"><ele>828</ele><time>2020-01-18T12:09:08Z</time><name>PT6999</name></trkpt>
<trkpt lat="52.883479" lon="-3.380214"><ele>828</ele><time>2020-01-18T12:09:08Z</time><name>PT7000</name></trkpt>
<trkpt lat="52.883468" lon="-3.380212"><ele>828</ele><time>2020-01-18T12:09:09Z</time><name>PT7001</name></trkpt>
<trkpt lat="52.883458" lon="-3.380214"><ele>828</ele><time>2020-01-18T12:09:11Z</time><name>PT7002</name></trkpt>
<trkpt lat="52.883446" lon="-3.380217"><ele>828</ele><time>2020-01-18T12:09:11Z</time><name>PT7003</name></trkpt>
<trkpt lat="52.883433" lon="-3.380220"><ele>828</ele><time>2020-01-18T12:09:12Z</time><name>PT7004</name></trkpt>
<trkpt lat="52.883423" lon="-3.380224"><ele>828</ele><time>2020-01-18T12:09:14Z</time><name>PT7005</name></trkpt>
<trkpt lat="52.883413" lon="-3.380230"><ele>828</ele><time>2020-01-18T12:09:14Z</time><name>PT7006</name></trkpt>
<trkpt lat="52.883403" lon="-3.380237"><ele>828</ele><time>2020-01-18T12:09:16Z</time><name>PT7007</name></trkpt>
<trkpt lat="52.883393" lon="-3.380244"><ele>828</ele><time>2020-01-18T12:09:17Z</time><name>PT7008</name></trkpt>
<trkpt lat="52.883384" lon="-3.380249"><ele>828</ele><time>2020-01-18T12:09:17Z</time><name>PT7009</name></trkpt>
<trkpt lat="52.883374" lon="-3.380252"><ele>828</ele><time>2020-01-18T12:09:19Z</time><name>PT7010</name></trkpt>
<trkpt lat="52.883365" lon="-3.380256"><ele>828</ele><time>2020-01-18T12:09:20Z</time><name>PT7011</name></trkpt>
<trkpt lat="52.883355" lon="-3.380259"><ele>828</ele><time>2020-01-18T12:09:21Z</time><name>PT7012</name></trkpt>
<trkpt lat="52.883347" lon="-3.380262"><ele>828</ele><time>2020-01-18T12:09:22Z</time><name>PT7013</name></trkpt>
<trkpt lat="52.883341" lon="-3.380266"><ele>828</ele><time>2020-01-18T12:09:23Z</time><name>PT7014</name></trkpt>
<trkpt lat="52.883336" lon="-3.380266"><ele>829</ele><time>2020-01-18T12:09:23Z</time><name>PT7015</name></trkpt>
<trkpt lat="52.883326" lon="-3.380264"><ele>828</ele><time>2020-01-18T12:09:24Z</time><name>PT7016</name></trkpt>
<trkpt lat="52.883315" lon="-3.380262"><ele>828</ele><time>2020-01-18T12:09:26Z</time><name>PT7017</name></trkpt>
<trkpt lat="52.883302" lon="-3.380262"><ele>828</ele><time>2020-01-18T12:09:26Z</time><name>PT7018</name></trkpt>
<trkpt lat="52.883290" lon="-3.380266"><ele>828</ele><time>2020-01-18T12:09:27Z</time><name>PT7019</name></trkpt>
<trkpt lat="52.883280" lon="-3.380270"><ele>827</ele><time>2020-01-18T12:09:29Z</time><name>PT7020</name></trkpt>
<trkpt lat="52.883272" lon="-3.380275"><ele>827</ele><time>2020-01-18T12:09:29Z</time><name>PT7021</name></trkpt>
<trkpt lat="52.883263" lon="-3.380278"><ele>827</ele><time>2020-01-18T12:09:30Z</time><name>PT7022</name></trkpt>
<trkpt lat="52.883253" lon="-3.380281"><ele>827</ele><time>2020-01-18T12:09:32Z</time><name>PT7023</name></trkpt>
<trkpt lat="52.883245" lon="-3.380285"><ele>826</ele><time>2020-01-18T12:09:32Z</time><name>PT7024</name></trkpt>
<trkpt lat="52.883235" lon="-3.380288"><ele>826</ele><time>2020-01-18T12:09:33Z</time><name>PT7025</name></trkpt>
<trkpt lat="52.883224" lon="-3.380291"><ele>826</ele><time>2020-01-18T12:09:35Z</time><name>PT7026</name></trkpt>
<trkpt lat="52.883213" lon="-3.380292"><ele>825</ele><time>2020-01-18T12:09:35Z</time><name>PT7027</name></trkpt>
<trkpt lat="52.883203" lon="-3.380294"><ele>825</ele><time>2020-01-18T12:09:37Z</time><name>PT7028</name></trkpt>
<trkpt lat="52.883194" lon="-3.380297"><ele>824</ele><time>2020-01-18T12:09:38Z</time><name>PT7029</name></trkpt>
<trkpt lat="52.883186" lon="-3.380302"><ele>824</ele><time>2020-01-18T12:09:38Z</time><name>PT7030</name></trkpt>
<trkpt lat="52.883178" lon="-3.380307"><ele>824</ele><time>2020-01-18T12:09:39Z</time><name>PT7031</name></trkpt>
<trkpt lat="52.883171" lon="-3.380307"><ele>823</ele><time>2020-01-18T12:09:41Z</time><name>PT7032</name></trkpt>
<trkpt lat="52.883168" lon="-3.380315"><ele>822</ele><time>2020-01-18T12:09:41Z</time><name>PT7033</name></trkpt>
<trkpt lat="52.883163" lon="-3.380318"><ele>822</ele><time>2020-01-18T12:09:42Z</time><name>PT7034</name></trkpt>
<trkpt lat="52.883152" lon="-3.380316"><ele>821</ele><time>2020-01-18T12:09:44Z</time><name>PT7035</name></trkpt>
<trkpt lat="52.883139" lon="-3.380319"><ele>821</ele><time>2020-01-18T12:09:44Z</time><name>PT7036</name></trkpt>
<trkpt lat="52.883127" lon="-3.380322"><ele>821</ele><time>2020-01-18T12:09:45Z</time><name>PT7037</name></trkpt>
<trkpt lat="52.883116" lon="-3.380324"><ele>821</ele><time>2020-01-18T12:09:47Z</time><name>PT7038</name></trkpt>
<trkpt lat="52.883104" lon="-3.380318"><ele>821</ele><time>2020-01-18T12:09:47Z</time><name>PT7039</name></trkpt>
<trkpt lat="52.883094" lon="-3.380314"><ele>820</ele><time>2020-01-18T12:09:48Z</time><name>PT7040</name></trkpt>
<trkpt lat="52.883084" lon="-3.380311"><ele>820</ele><time>2020-01-18T12:09:50Z</time><name>PT7041</name></trkpt>
<trkpt lat="52.883073" lon="-3.380303"><ele>820</ele><time>2020-01-18T12:09:50Z</time><name>PT7042</name></trkpt>
<trkpt lat="52.883063" lon="-3.380296"><ele>820</ele><time>2020-01-18T12:09:51Z</time><name>PT7043</name></trkpt>
<trkpt lat="52.883057" lon="-3.380294"><ele>819</ele><time>2020-01-18T12:09:53Z</time><name>PT7044</name></trkpt>
<trkpt lat="52.883052" lon="-3.380288"><ele>819</ele><time>2020-01-18T12:09:53Z</time><name>PT7045</name></trkpt>
<trkpt lat="52.883046" lon="-3.380278"><ele>819</ele><time>2020-01-18T12:09:54Z</time><name>PT7046</name></trkpt>
<trkpt lat="52.883038" lon="-3.380271"><ele>819</ele><time>2020-01-18T12:09:56Z</time><name>PT7047</name></trkpt>
<trkpt lat="52.883029" lon="-3.380267"><ele>819</ele><time>2020-01-18T12:09:56Z</time><name>PT7048</name></trkpt>
<trkpt lat="52.883023" lon="-3.380264"><ele>819</ele><time>2020-01-18T12:09:57Z</time><name>PT7049</name></trkpt>
<trkpt lat="52.883015" lon="-3.380258"><ele>819</ele><time>2020-01-18T12:09:59Z</time><name>PT7050</name></trkpt>
<trkpt lat="52.883008" lon="-3.380252"><ele>818</ele><time>2020-01-18T12:09:59Z</time><name>PT7051</name></trkpt>
<trkpt lat="52.883001" lon="-3.380243"><ele>818</ele><time>2020-01-18T12:10:00Z</time><name>PT7052</name></trkpt>
<trkpt lat="52.882991" lon="-3.380241"><ele>818</ele><time>2020-01-18T12:10:02Z</time><name>PT7053</name></trkpt>
<trkpt lat="52.882981" lon="-3.380236"><ele>818</ele><time>2020-01-18T12:10:02Z</time><name>PT7054</name></trkpt>
<trkpt lat="52.882972" lon="-3.380236"><ele>818</ele><time>2020-01-18T12:10:04Z</time><name>PT7055</name></trkpt>
<trkpt lat="52.882963" lon="-3.380241"><ele>818</ele><time>2020-01-18T12:10:05Z</time><name>PT7056</name></trkpt>
<trkpt lat="52.882953" lon="-3.380244"><ele>817</ele><time>2020-01-18T12:10:05Z</time><name>PT7057</name></trkpt>
<trkpt lat="52.882946" lon="-3.380249"><ele>817</ele><time>2020-01-18T12:10:06Z</time><name>PT7058</name></trkpt>
<trkpt lat="52.882940" lon="-3.380250"><ele>817</ele><time>2020-01-18T12:10:08Z</time><name>PT7059</name></trkpt>
<trkpt lat="52.882934" lon="-3.380250"><ele>817</ele><time>2020-01-18T12:10:08Z</time><name>PT7060</name></trkpt>
<trkpt lat="52.882928" lon="-3.380252"><ele>817</ele><time>2020-01-18T12:10:09Z</time><name>PT7061</name></trkpt>
<trkpt lat="52.882926" lon="-3.380255"><ele>817</ele><time>2020-01-18T12:10:11Z</time><name>PT7062</name></trkpt>
<trkpt lat="52.882926" lon="-3.380257"><ele>817</ele><time>2020-01-18T12:10:11Z</time><name>PT7063</name></trkpt>
<trkpt lat="52.882925" lon="-3.380255"><ele>816</ele><time>2020-01-18T12:10:13Z</time><name>PT7064</name></trkpt>
<trkpt lat="52.882926" lon="-3.380262"><ele>817</ele><time>2020-01-18T12:10:14Z</time><name>PT7065</name></trkpt>
<trkpt lat="52.882927" lon="-3.380254"><ele>817</ele><time>2020-01-18T12:10:15Z</time><name>PT7066</name></trkpt>
<trkpt lat="52.882925" lon="-3.380247"><ele>818</ele><time>2020-01-18T12:10:16Z</time><name>PT7067</name></trkpt>
<trkpt lat="52.882925" lon="-3.380248"><ele>818</ele><time>2020-01-18T12:10:17Z</time><name>PT7068</name></trkpt>
<trkpt lat="52.882919" lon="-3.380250"><ele>818</ele><time>2020-01-18T12:10:27Z</time><name>PT7069</name></trkpt>
<trkpt lat="52.882904" lon="-3.380250"><ele>817</ele><time>2020-01-18T12:10:29Z</time><name>PT7070</name></trkpt>
<trkpt lat="52.882891" lon="-3.380249"><ele>817</ele><time>2020-01-18T12:10:29Z</time><name>PT7071</name></trkpt>
<trkpt lat="52.882881" lon="-3.380249"><ele>817</ele><time>2020-01-18T12:10:30Z</time><name>PT7072</name></trkpt>
<trkpt lat="52.882870" lon="-3.380247"><ele>817</ele><time>2020-01-18T12:10:32Z</time><name>PT7073</name></trkpt>
<trkpt lat="52.882856" lon="-3.380243"><ele>816</ele><time>2020-01-18T12:10:32Z</time><name>PT7074</name></trkpt>
<trkpt lat="52.882847" lon="-3.380244"><ele>816</ele><time>2020-01-18T12:10:33Z</time><name>PT7075</name></trkpt>
<trkpt lat="52.882834" lon="-3.380246"><ele>816</ele><time>2020-01-18T12:10:35Z</time><name>PT7076</name></trkpt>
<trkpt lat="52.882819" lon="-3.380246"><ele>816</ele><time>2020-01-18T12:10:35Z</time><name>PT7077</name></trkpt>
<trkpt lat="52.882813" lon="-3.380247"><ele>817</ele><time>2020-01-18T12:10:36Z</time><name>PT7078</name></trkpt>
<trkpt lat="52.882802" lon="-3.380241"><ele>817</ele><time>2020-01-18T12:10:38Z</time><name>PT7079</name></trkpt>
<trkpt lat="52.882786" lon="-3.380242"><ele>817</ele><time>2020-01-18T12:10:38Z</time><name>PT7080</name></trkpt>
<trkpt lat="52.882775" lon="-3.380241"><ele>817</ele><time>2020-01-18T12:10:39Z</time><name>PT7081</name></trkpt>
<trkpt lat="52.882765" lon="-3.380237"><ele>817</ele><time>2020-01-18T12:10:41Z</time><name>PT7082</name></trkpt>
<trkpt lat="52.882762" lon="-3.380240"><ele>817</ele><time>2020-01-18T12:10:41Z</time><name>PT7083</name></trkpt>
<trkpt lat="52.882754" lon="-3.380239"><ele>817</ele><time>2020-01-18T12:10:42Z</time><name>PT7084</name></trkpt>
<trkpt lat="52.882742" lon="-3.380249"><ele>817</ele><time>2020-01-18T12:10:44Z</time><name>PT7085</name></trkpt>
<trkpt lat="52.882733" lon="-3.380256"><ele>817</ele><time>2020-01-18T12:10:44Z</time><name>PT7086</name></trkpt>
<trkpt lat="52.882726" lon="-3.380262"><ele>817</ele><time>2020-01-18T12:10:45Z</time><name>PT7087</name></trkpt>
<trkpt lat="52.882715" lon="-3.380264"><ele>817</ele><time>2020-01-18T12:10:47Z</time><name>PT7088</name></trkpt>
<trkpt lat="52.882706" lon="-3.380270"><ele>817</ele><time>2020-01-18T12:10:48Z</time><name>PT7089</name></trkpt>
<trkpt lat="52.882697" lon="-3.380276"><ele>817</ele><time>2020-01-18T12:10:49Z</time><name>PT7090</name></trkpt>
<trkpt lat="52.882686" lon="-3.380277"><ele>817</ele><time>2020-01-18T12:10:50Z</time><name>PT7091</name></trkpt>
<trkpt lat="52.882678" lon="-3.380274"><ele>817</ele><time>2020-01-18T12:10:51Z</time><name>PT7092</name></trkpt>
<trkpt lat="52.882670" lon="-3.380269"><ele>817</ele><time>2020-01-18T12:10:52Z</time><name>PT7093</name></trkpt>
<trkpt lat="52.882661" lon="-3.380268"><ele>816</ele><time>2020-01-18T12:10:53Z</time><name>PT7094</name></trkpt>
<trkpt lat="52.882652" lon="-3.380268"><ele>816</ele><time>2020-01-18T12:10:54Z</time><name>PT7095</name></trkpt>
<trkpt lat="52.882643" lon="-3.380268"><ele>816</ele><time>2020-01-18T12:10:55Z</time><name>PT7096</name></trkpt>
<trkpt lat="52.882630" lon="-3.380260"><ele>816</ele><time>2020-01-18T12:10:56Z</time><name>PT7097</name></trkpt>
<trkpt lat="52.882620" lon="-3.380255"><ele>816</ele><time>2020-01-18T12:10:56Z</time><name>PT7098</name></trkpt>
<trkpt lat="52.882611" lon="-3.380248"><ele>816</ele><time>2020-01-18T12:10:57Z</time><name>PT7099</name></trkpt>
<trkpt lat="52.882602" lon="-3.380244"><ele>816</ele><time>2020-01-18T12:10:59Z</time><name>PT7100</name></trkpt>
<trkpt lat="52.882590" lon="-3.380243"><ele>815</ele><time>2020-01-18T12:10:59Z</time><name>PT7101</name></trkpt>
<trkpt lat="52.882580" lon="-3.380242"><ele>815</ele><time>2020-01-18T12:11:00Z</time><name>PT7102</name></trkpt>
<trkpt lat="52.882569" lon="-3.380247"><ele>815</ele><time>2020-01-18T12:11:02Z</time><name>PT7103</name></trkpt>
<trkpt lat="52.882558" lon="-3.380252"><ele>814</ele><time>2020-01-18T12:11:02Z</time><name>PT7104</name></trkpt>
<trkpt lat="52.882551" lon="-3.380259"><ele>812</ele><time>2020-01-18T12:11:03Z</time><name>PT7105</name></trkpt>
<trkpt lat="52.882540" lon="-3.380260"><ele>813</ele><time>2020-01-18T12:11:05Z</time><name>PT7106</name></trkpt>
<trkpt lat="52.882532" lon="-3.380265"><ele>812</ele><time>2020-01-18T12:11:05Z</time><name>PT7107</name></trkpt>
<trkpt lat="52.882523" lon="-3.380267"><ele>812</ele><time>2020-01-18T12:11:06Z</time><name>PT7108</name></trkpt>
<trkpt lat="52.882514" lon="-3.380271"><ele>812</ele><time>2020-01-18T12:11:08Z</time><name>PT7109</name></trkpt>
<trkpt lat="52.882507" lon="-3.380274"><ele>812</ele><time>2020-01-18T12:11:08Z</time><name>PT7110</name></trkpt>
<trkpt lat="52.882500" lon="-3.380276"><ele>812</ele><time>2020-01-18T12:11:09Z</time><name>PT7111</name></trkpt>
<trkpt lat="52.882487" lon="-3.380277"><ele>812</ele><time>2020-01-18T12:11:11Z</time><name>PT7112</name></trkpt>
<trkpt lat="52.882478" lon="-3.380285"><ele>812</ele><time>2020-01-18T12:11:11Z</time><name>PT7113</name></trkpt>
<trkpt lat="52.882470" lon="-3.380294"><ele>812</ele><time>2020-01-18T12:11:13Z</time><name>PT7114</name></trkpt>
<trkpt lat="52.882459" lon="-3.380296"><ele>812</ele><time>2020-01-18T12:11:14Z</time><name>PT7115</name></trkpt>
<trkpt lat="52.882450" lon="-3.380301"><ele>813</ele><time>2020-01-18T12:11:15Z</time><name>PT7116</name></trkpt>
<trkpt lat="52.882438" lon="-3.380310"><ele>812</ele><time>2020-01-18T12:11:16Z</time><name>PT7117</name></trkpt>
<trkpt lat="52.882431" lon="-3.380315"><ele>812</ele><time>2020-01-18T12:11:17Z</time><name>PT7118</name></trkpt>
<trkpt lat="52.882422" lon="-3.380325"><ele>811</ele><time>2020-01-18T12:11:17Z</time><name>PT7119</name></trkpt>
<trkpt lat="52.882410" lon="-3.380332"><ele>812</ele><time>2020-01-18T12:11:18Z</time><name>PT7120</name></trkpt>
<trkpt lat="52.882402" lon="-3.380337"><ele>812</ele><time>2020-01-18T12:11:20Z</time><name>PT7121</name></trkpt>
<trkpt lat="52.882391" lon="-3.380337"><ele>812</ele><time>2020-01-18T12:11:20Z</time><name>PT7122</name></trkpt>
<trkpt lat="52.882381" lon="-3.380340"><ele>812</ele><time>2020-01-18T12:11:21Z</time><name>PT7123</name></trkpt>
<trkpt lat="52.882371" lon="-3.380344"><ele>813</ele><time>2020-01-18T12:11:23Z</time><name>PT7124</name></trkpt>
<trkpt lat="52.882362" lon="-3.380345"><ele>814</ele><time>2020-01-18T12:11:23Z</time><name>PT7125</name></trkpt>
<trkpt lat="52.882354" lon="-3.380351"><ele>813</ele><time>2020-01-18T12:11:24Z</time><name>PT7126</name></trkpt>
<trkpt lat="52.882348" lon="-3.380358"><ele>813</ele><time>2020-01-18T12:11:26Z</time><name>PT7127</name></trkpt>
<trkpt lat="52.882339" lon="-3.380362"><ele>813</ele><time>2020-01-18T12:11:27Z</time><name>PT7128</name></trkpt>
<trkpt lat="52.882328" lon="-3.380366"><ele>813</ele><time>2020-01-18T12:11:28Z</time><name>PT7129</name></trkpt>
<trkpt lat="52.882317" lon="-3.380364"><ele>813</ele><time>2020-01-18T12:11:29Z</time><name>PT7130</name></trkpt>
<trkpt lat="52.882306" lon="-3.380358"><ele>813</ele><time>2020-01-18T12:11:30Z</time><name>PT7131</name></trkpt>
<trkpt lat="52.882295" lon="-3.380356"><ele>813</ele><time>2020-01-18T12:11:31Z</time><name>PT7132</name></trkpt>
<trkpt lat="52.882282" lon="-3.380352"><ele>813</ele><time>2020-01-18T12:11:32Z</time><name>PT7133</name></trkpt>
<trkpt lat="52.882272" lon="-3.380353"><ele>814</ele><time>2020-01-18T12:11:32Z</time><name>PT7134</name></trkpt>
<trkpt lat="52.882260" lon="-3.380354"><ele>814</ele><time>2020-01-18T12:11:33Z</time><name>PT7135</name></trkpt>
<trkpt lat="52.882251" lon="-3.380369"><ele>814</ele><time>2020-01-18T12:11:35Z</time><name>PT7136</name></trkpt>
<trkpt lat="52.882241" lon="-3.380372"><ele>814</ele><time>2020-01-18T12:11:35Z</time><name>PT7137</name></trkpt>
<trkpt lat="52.882232" lon="-3.380374"><ele>814</ele><time>2020-01-18T12:11:36Z</time><name>PT7138</name></trkpt>
<trkpt lat="52.882221" lon="-3.380376"><ele>814</ele><time>2020-01-18T12:11:38Z</time><name>PT7139</name></trkpt>
<trkpt lat="52.882209" lon="-3.380376"><ele>814</ele><time>2020-01-18T12:11:38Z</time><name>PT7140</name></trkpt>
<trkpt lat="52.882199" lon="-3.380373"><ele>814</ele><time>2020-01-18T12:11:39Z</time><name>PT7141</name></trkpt>
<trkpt lat="52.882190" lon="-3.380368"><ele>812</ele><time>2020-01-18T12:11:41Z</time><name>PT7142</name></trkpt>
<trkpt lat="52.882181" lon="-3.380367"><ele>812</ele><time>2020-01-18T12:11:41Z</time><name>PT7143</name></trkpt>
<trkpt lat="52.882171" lon="-3.380360"><ele>811</ele><time>2020-01-18T12:11:42Z</time><name>PT7144</name></trkpt>
<trkpt lat="52.882162" lon="-3.380356"><ele>811</ele><time>2020-01-18T12:11:44Z</time><name>PT7145</name></trkpt>
<trkpt lat="52.882154" lon="-3.380353"><ele>811</ele><time>2020-01-18T12:11:44Z</time><name>PT7146</name></trkpt>
<trkpt lat="52.882144" lon="-3.380354"><ele>811</ele><time>2020-01-18T12:11:45Z</time><name>PT7147</name></trkpt>
<trkpt lat="52.882136" lon="-3.380351"><ele>811</ele><time>2020-01-18T12:11:47Z</time><name>PT7148</name></trkpt>
<trkpt lat="52.882126" lon="-3.380351"><ele>812</ele><time>2020-01-18T12:11:47Z</time><name>PT7149</name></trkpt>
<trkpt lat="52.882116" lon="-3.380352"><ele>813</ele><time>2020-01-18T12:11:48Z</time><name>PT7150</name></trkpt>
<trkpt lat="52.882108" lon="-3.380350"><ele>813</ele><time>2020-01-18T12:11:50Z</time><name>PT7151</name></trkpt>
<trkpt lat="52.882101" lon="-3.380349"><ele>812</ele><time>2020-01-18T12:11:50Z</time><name>PT7152</name></trkpt>
<trkpt lat="52.882099" lon="-3.380355"><ele>813</ele><time>2020-01-18T12:11:51Z</time><name>PT7153</name></trkpt>
<trkpt lat="52.882093" lon="-3.380352"><ele>814</ele><time>2020-01-18T12:11:53Z</time><name>PT7154</name></trkpt>
<trkpt lat="52.882086" lon="-3.380356"><ele>814</ele><time>2020-01-18T12:11:53Z</time><name>PT7155</name></trkpt>
<trkpt lat="52.882078" lon="-3.380358"><ele>815</ele><time>2020-01-18T12:11:54Z</time><name>PT7156</name></trkpt>
<trkpt lat="52.882068" lon="-3.380361"><ele>815</ele><time>2020-01-18T12:11:56Z</time><name>PT7157</name></trkpt>
<trkpt lat="52.882062" lon="-3.380361"><ele>814</ele><time>2020-01-18T12:11:56Z</time><name>PT7158</name></trkpt>
<trkpt lat="52.882056" lon="-3.380371"><ele>815</ele><time>2020-01-18T12:11:57Z</time><name>PT7159</name></trkpt>
<trkpt lat="52.882049" lon="-3.380380"><ele>816</ele><time>2020-01-18T12:11:59Z</time><name>PT7160</name></trkpt>
<trkpt lat="52.882044" lon="-3.380389"><ele>816</ele><time>2020-01-18T12:11:59Z</time><name>PT7161</name></trkpt>
<trkpt lat="52.882038" lon="-3.380398"><ele>816</ele><time>2020-01-18T12:12:00Z</time><name>PT7162</name></trkpt>
<trkpt lat="52.882035" lon="-3.380410"><ele>816</ele><time>2020-01-18T12:12:02Z</time><name>PT7163</name></trkpt>
<trkpt lat="52.882030" lon="-3.380417"><ele>817</ele><time>2020-01-18T12:12:02Z</time><name>PT7164</name></trkpt>
<trkpt lat="52.882025" lon="-3.380421"><ele>817</ele><time>2020-01-18T12:12:03Z</time><name>PT7165</name></trkpt>
<trkpt lat="52.882020" lon="-3.380437"><ele>817</ele><time>2020-01-18T12:12:05Z</time><name>PT7166</name></trkpt>
<trkpt lat="52.882017" lon="-3.380461"><ele>817</ele><time>2020-01-18T12:12:05Z</time><name>PT7167</name></trkpt>
<trkpt lat="52.882011" lon="-3.380472"><ele>818</ele><time>2020-01-18T12:12:06Z</time><name>PT7168</name></trkpt>
<trkpt lat="52.882002" lon="-3.380480"><ele>818</ele><time>2020-01-18T12:12:08Z</time><name>PT7169</name></trkpt>
<trkpt lat="52.881996" lon="-3.380487"><ele>818</ele><time>2020-01-18T12:12:08Z</time><name>PT7170</name></trkpt>
<trkpt lat="52.881987" lon="-3.380493"><ele>818</ele><time>2020-01-18T12:12:09Z</time><name>PT7171</name></trkpt>
<trkpt lat="52.881978" lon="-3.380500"><ele>818</ele><time>2020-01-18T12:12:11Z</time><name>PT7172</name></trkpt>
<trkpt lat="52.881972" lon="-3.380499"><ele>817</ele><time>2020-01-18T12:12:11Z</time><name>PT7173</name></trkpt>
<trkpt lat="52.881964" lon="-3.380497"><ele>818</ele><time>2020-01-18T12:12:12Z</time><name>PT7174</name></trkpt>
<trkpt lat="52.881953" lon="-3.380483"><ele>819</ele><time>2020-01-18T12:12:14Z</time><name>PT7175</name></trkpt>
<trkpt lat="52.881943" lon="-3.380474"><ele>819</ele><time>2020-01-18T12:12:14Z</time><name>PT7176</name></trkpt>
<trkpt lat="52.881934" lon="-3.380484"><ele>822</ele><time>2020-01-18T12:12:16Z</time><name>PT7177</name></trkpt>
<trkpt lat="52.881931" lon="-3.380480"><ele>822</ele><time>2020-01-18T12:12:17Z</time><name>PT7178</name></trkpt>
<trkpt lat="52.881925" lon="-3.380480"><ele>822</ele><time>2020-01-18T12:12:17Z</time><name>PT7179</name></trkpt>
<trkpt lat="52.881917" lon="-3.380476"><ele>822</ele><time>2020-01-18T12:12:18Z</time><name>PT7180</name></trkpt>
<trkpt lat="52.881909" lon="-3.380474"><ele>822</ele><time>2020-01-18T12:12:20Z</time><name>PT7181</name></trkpt>
<trkpt lat="52.881902" lon="-3.380473"><ele>822</ele><time>2020-01-18T12:12:20Z</time><name>PT7182</name></trkpt>
<trkpt lat="52.881895" lon="-3.380472"><ele>823</ele><time>2020-01-18T12:12:21Z</time><name>PT7183</name></trkpt>
<trkpt lat="52.881888" lon="-3.380470"><ele>823</ele><time>2020-01-18T12:12:23Z</time><name>PT7184</name></trkpt>
<trkpt lat="52.881880" lon="-3.380473"><ele>823</ele><time>2020-01-18T12:12:23Z</time><name>PT7185</name></trkpt>
<trkpt lat="52.881872" lon="-3.380473"><ele>822</ele><time>2020-01-18T12:12:25Z</time><name>PT7186</name></trkpt>
<trkpt lat="52.881863" lon="-3.380470"><ele>822</ele><time>2020-01-18T12:12:26Z</time><name>PT7187</name></trkpt>
<trkpt lat="52.881857" lon="-3.380477"><ele>822</ele><time>2020-01-18T12:12:26Z</time><name>PT7188</name></trkpt>
<trkpt lat="52.881852" lon="-3.380484"><ele>821</ele><time>2020-01-18T12:12:27Z</time><name>PT7189</name></trkpt>
<trkpt lat="52.881846" lon="-3.380484"><ele>821</ele><time>2020-01-18T12:12:29Z</time><name>PT7190</name></trkpt>
<trkpt lat="52.881838" lon="-3.380486"><ele>820</ele><time>2020-01-18T12:12:29Z</time><name>PT7191</name></trkpt>
<trkpt lat="52.881831" lon="-3.380491"><ele>820</ele><time>2020-01-18T12:12:30Z</time><name>PT7192</name></trkpt>
<trkpt lat="52.881823" lon="-3.380499"><ele>820</ele><time>2020-01-18T12:12:32Z</time><name>PT7193</name></trkpt>
<trkpt lat="52.881811" lon="-3.380507"><ele>820</ele><time>2020-01-18T12:12:32Z</time><name>PT7194</name></trkpt>
<trkpt lat="52.881803" lon="-3.380512"><ele>820</ele><time>2020-01-18T12:12:33Z</time><name>PT7195</name></trkpt>
<trkpt lat="52.881794" lon="-3.380518"><ele>820</ele><time>2020-01-18T12:12:35Z</time><name>PT7196</name></trkpt>
<trkpt lat="52.881787" lon="-3.380519"><ele>820</ele><time>2020-01-18T12:12:35Z</time><name>PT7197</name></trkpt>
<trkpt lat="52.881777" lon="-3.380523"><ele>819</ele><time>2020-01-18T12:12:36Z</time><name>PT7198</name></trkpt>
<trkpt lat="52.881766" lon="-3.380532"><ele>820</ele><time>2020-01-18T12:12:38Z</time><name>PT7199</name></trkpt>
<trkpt lat="52.881755" lon="-3.380537"><ele>820</ele><time>2020-01-18T12:12:38Z</time><name>PT7200</name></trkpt>
<trkpt lat="52.881746" lon="-3.380540"><ele>820</ele><time>2020-01-18T12:12:39Z</time><name>PT7201</name></trkpt>
<trkpt lat="52.881731" lon="-3.380543"><ele>821</ele><time>2020-01-18T12:12:41Z</time><name>PT7202</name></trkpt>
<trkpt lat="52.881719" lon="-3.380542"><ele>821</ele><time>2020-01-18T12:12:41Z</time><name>PT7203</name></trkpt>
<trkpt lat="52.881709" lon="-3.380546"><ele>821</ele><time>2020-01-18T12:12:43Z</time><name>PT7204</name></trkpt>
<trkpt lat="52.881699" lon="-3.380547"><ele>821</ele><time>2020-01-18T12:12:44Z</time><name>PT7205</name></trkpt>
<trkpt lat="52.881687" lon="-3.380552"><ele>822</ele><time>2020-01-18T12:12:44Z</time><name>PT7206</name></trkpt>
<trkpt lat="52.881677" lon="-3.380553"><ele>823</ele><time>2020-01-18T12:12:46Z</time><name>PT7207</name></trkpt>
<trkpt lat="52.881667" lon="-3.380553"><ele>824</ele><time>2020-01-18T12:12:47Z</time><name>PT7208</name></trkpt>
<trkpt lat="52.881660" lon="-3.380555"><ele>824</ele><time>2020-01-18T12:12:48Z</time><name>PT7209</name></trkpt>
<trkpt lat="52.881652" lon="-3.380556"><ele>824</ele><time>2020-01-18T12:12:49Z</time><name>PT7210</name></trkpt>
<trkpt lat="52.881645" lon="-3.380560"><ele>824</ele><time>2020-01-18T12:12:50Z</time><name>PT7211</name></trkpt>
<trkpt lat="52.881638" lon="-3.380562"><ele>825</ele><time>2020-01-18T12:12:50Z</time><name>PT7212</name></trkpt>
<trkpt lat="52.881633" lon="-3.380565"><ele>825</ele><time>2020-01-18T12:12:51Z</time><name>PT7213</name></trkpt>
<trkpt lat="52.881628" lon="-3.380577"><ele>825</ele><time>2020-01-18T12:12:53Z</time><name>PT7214</name></trkpt>
<trkpt lat="52.881623" lon="-3.380587"><ele>825</ele><time>2020-01-18T12:12:53Z</time><name>PT7215</name></trkpt>
<trkpt lat="52.881620" lon="-3.380593"><ele>826</ele><time>2020-01-18T12:12:54Z</time><name>PT7216</name></trkpt>
<trkpt lat="52.881616" lon="-3.380598"><ele>826</ele><time>2020-01-18T12:12:56Z</time><name>PT7217</name></trkpt>
<trkpt lat="52.881609" lon="-3.380603"><ele>826</ele><time>2020-01-18T12:12:56Z</time><name>PT7218</name></trkpt>
<trkpt lat="52.881604" lon="-3.380611"><ele>825</ele><time>2020-01-18T12:12:57Z</time><name>PT7219</name></trkpt>
<trkpt lat="52.881598" lon="-3.380620"><ele>825</ele><time>2020-01-18T12:12:59Z</time><name>PT7220</name></trkpt>
<trkpt lat="52.881590" lon="-3.380631"><ele>825</ele><time>2020-01-18T12:12:59Z</time><name>PT7221</name></trkpt>
<trkpt lat="52.881583" lon="-3.380645"><ele>825</ele><time>2020-01-18T12:13:00Z</time><name>PT7222</name></trkpt>
<trkpt lat="52.881578" lon="-3.380651"><ele>825</ele><time>2020-01-18T12:13:02Z</time><name>PT7223</name></trkpt>
<trkpt lat="52.881573" lon="-3.380657"><ele>824</ele><time>2020-01-18T12:13:02Z</time><name>PT7224</name></trkpt>
<trkpt lat="52.881567" lon="-3.380667"><ele>825</ele><time>2020-01-18T12:13:03Z</time><name>PT7225</name></trkpt>
<trkpt lat="52.881563" lon="-3.380674"><ele>825</ele><time>2020-01-18T12:13:05Z</time><name>PT7226</name></trkpt>
<trkpt lat="52.881556" lon="-3.380681"><ele>825</ele><time>2020-01-18T12:13:05Z</time><name>PT7227</name></trkpt>
<trkpt lat="52.881551" lon="-3.380689"><ele>825</ele><time>2020-01-18T12:13:06Z</time><name>PT7228</name></trkpt>
<trkpt lat="52.881546" lon="-3.380696"><ele>825</ele><time>2020-01-18T12:13:08Z</time><name>PT7229</name></trkpt>
<trkpt lat="52.881541" lon="-3.380701"><ele>825</ele><time>2020-01-18T12:13:08Z</time><name>PT7230</name></trkpt>
<trkpt lat="52.881533" lon="-3.380703"><ele>825</ele><time>2020-01-18T12:13:09Z</time><name>PT7231</name></trkpt>
<trkpt lat="52.881527" lon="-3.380705"><ele>825</ele><time>2020-01-18T12:13:11Z</time><name>PT7232</name></trkpt>
<trkpt lat="52.881523" lon="-3.380710"><ele>825</ele><time>2020-01-18T12:13:11Z</time><name>PT7233</name></trkpt>
<trkpt lat="52.881517" lon="-3.380711"><ele>825</ele><time>2020-01-18T12:13:12Z</time><name>PT7234</name></trkpt>
<trkpt lat="52.881517" lon="-3.380714"><ele>825</ele><time>2020-01-18T12:13:14Z</time><name>PT7235</name></trkpt>
<trkpt lat="52.881515" lon="-3.380714"><ele>825</ele><time>2020-01-18T12:13:14Z</time><name>PT7236</name></trkpt>
<trkpt lat="52.881513" lon="-3.380717"><ele>825</ele><time>2020-01-18T12:13:15Z</time><name>PT7237</name></trkpt>
<trkpt lat="52.881510" lon="-3.380719"><ele>825</ele><time>2020-01-18T12:13:17Z</time><name>PT7238</name></trkpt>
<trkpt lat="52.881509" lon="-3.380724"><ele>825</ele><time>2020-01-18T12:13:18Z</time><name>PT7239</name></trkpt>
<trkpt lat="52.881509" lon="-3.380723"><ele>824</ele><time>2020-01-18T12:13:20Z</time><name>PT7240</name></trkpt>
<trkpt lat="52.881511" lon="-3.380724"><ele>824</ele><time>2020-01-18T12:13:20Z</time><name>PT7241</name></trkpt>
<trkpt lat="52.881511" lon="-3.380723"><ele>824</ele><time>2020-01-18T12:13:21Z</time><name>PT7242</name></trkpt>
<trkpt lat="52.881504" lon="-3.380734"><ele>824</ele><time>2020-01-18T12:13:23Z</time><name>PT7243</name></trkpt>
<trkpt lat="52.881502" lon="-3.380730"><ele>823</ele><time>2020-01-18T12:13:23Z</time><name>PT7244</name></trkpt>
<trkpt lat="52.881498" lon="-3.380730"><ele>824</ele><time>2020-01-18T12:13:24Z</time><name>PT7245</name></trkpt>
<trkpt lat="52.881499" lon="-3.380721"><ele>824</ele><time>2020-01-18T12:13:26Z</time><name>PT7246</name></trkpt>
<trkpt lat="52.881499" lon="-3.380718"><ele>824</ele><time>2020-01-18T12:13:26Z</time><name>PT7247</name></trkpt>
<trkpt lat="52.881487" lon="-3.380708"><ele>825</ele><time>2020-01-18T12:13:35Z</time><name>PT7248</name></trkpt>
<trkpt lat="52.881483" lon="-3.380712"><ele>825</ele><time>2020-01-18T12:13:36Z</time><name>PT7249</name></trkpt>
<trkpt lat="52.881481" lon="-3.380715"><ele>826</ele><time>2020-01-18T12:13:38Z</time><name>PT7250</name></trkpt>
<trkpt lat="52.881480" lon="-3.380717"><ele>825</ele><time>2020-01-18T12:13:39Z</time><name>PT7251</name></trkpt>
<trkpt lat="52.881479" lon="-3.380727"><ele>826</ele><time>2020-01-18T12:13:40Z</time><name>PT7252</name></trkpt>
<trkpt lat="52.881477" lon="-3.380731"><ele>826</ele><time>2020-01-18T12:13:41Z</time><name>PT7253</name></trkpt>
<trkpt lat="52.881478" lon="-3.380733"><ele>826</ele><time>2020-01-18T12:13:42Z</time><name>PT7254</name></trkpt>
<trkpt lat="52.881477" lon="-3.380731"><ele>826</ele><time>2020-01-18T12:14:12Z</time><name>PT7255</name></trkpt>
<trkpt lat="52.881475" lon="-3.380732"><ele>826</ele><time>2020-01-18T12:14:14Z</time><name>PT7256</name></trkpt>
<trkpt lat="52.881474" lon="-3.380732"><ele>826</ele><time>2020-01-18T12:14:14Z</time><name>PT7257</name></trkpt>
<trkpt lat="52.881473" lon="-3.380728"><ele>826</ele><time>2020-01-18T12:14:15Z</time><name>PT7258</name></trkpt>
<trkpt lat="52.881473" lon="-3.380732"><ele>826</ele><time>2020-01-18T12:14:17Z</time><name>PT7259</name></trkpt>
<trkpt lat="52.881471" lon="-3.380734"><ele>826</ele><time>2020-01-18T12:14:17Z</time><name>PT7260</name></trkpt>
<trkpt lat="52.881468" lon="-3.380738"><ele>826</ele><time>2020-01-18T12:14:18Z</time><name>PT7261</name></trkpt>
<trkpt lat="52.881468" lon="-3.380740"><ele>826</ele><time>2020-01-18T12:14:20Z</time><name>PT7262</name></trkpt>
<trkpt lat="52.881470" lon="-3.380742"><ele>826</ele><time>2020-01-18T12:14:20Z</time><name>PT7263</name></trkpt>
<trkpt lat="52.881470" lon="-3.380736"><ele>826</ele><time>2020-01-18T12:14:21Z</time><name>PT7264</name></trkpt>
<trkpt lat="52.881469" lon="-3.380738"><ele>826</ele><time>2020-01-18T12:14:23Z</time><name>PT7265</name></trkpt>
<trkpt lat="52.881467" lon="-3.380735"><ele>826</ele><time>2020-01-18T12:14:24Z</time><name>PT7266</name></trkpt>
<trkpt lat="52.881465" lon="-3.380737"><ele>827</ele><time>2020-01-18T12:14:26Z</time><name>PT7267</name></trkpt>
<trkpt lat="52.881462" lon="-3.380736"><ele>827</ele><time>2020-01-18T12:14:26Z</time><name>PT7268</name></trkpt>
<trkpt lat="52.881465" lon="-3.380737"><ele>827</ele><time>2020-01-18T12:14:29Z</time><name>PT7269</name></trkpt>
<trkpt lat="52.881465" lon="-3.380737"><ele>827</ele><time>2020-01-18T12:14:29Z</time><name>PT7270</name></trkpt>
<trkpt lat="52.881465" lon="-3.380736"><ele>826</ele><time>2020-01-18T12:14:30Z</time><name>PT7271</name></trkpt>
<trkpt lat="52.881463" lon="-3.380735"><ele>827</ele><time>2020-01-18T12:14:32Z</time><name>PT7272</name></trkpt>
<trkpt lat="52.881460" lon="-3.380735"><ele>827</ele><time>2020-01-18T12:14:33Z</time><name>PT7273</name></trkpt>
<trkpt lat="52.881458" lon="-3.380735"><ele>827</ele><time>2020-01-18T12:14:33Z</time><name>PT7274</name></trkpt>
<trkpt lat="52.881457" lon="-3.380739"><ele>826</ele><time>2020-01-18T12:14:35Z</time><name>PT7275</name></trkpt>
<trkpt lat="52.881458" lon="-3.380733"><ele>827</ele><time>2020-01-18T12:14:36Z</time><name>PT7276</name></trkpt>
<trkpt lat="52.881459" lon="-3.380729"><ele>827</ele><time>2020-01-18T12:14:38Z</time><name>PT7277</name></trkpt>
<trkpt lat="52.881459" lon="-3.380730"><ele>827</ele><time>2020-01-18T12:14:38Z</time><name>PT7278</name></trkpt>
<trkpt lat="52.881462" lon="-3.380733"><ele>827</ele><time>2020-01-18T12:14:47Z</time><name>PT7279</name></trkpt>
<trkpt lat="52.881463" lon="-3.380730"><ele>827</ele><time>2020-01-18T12:14:48Z</time><name>PT7280</name></trkpt>
<trkpt lat="52.881464" lon="-3.380728"><ele>828</ele><time>2020-01-18T12:14:49Z</time><name>PT7281</name></trkpt>
<trkpt lat="52.881463" lon="-3.380722"><ele>828</ele><time>2020-01-18T12:14:50Z</time><name>PT7282</name></trkpt>
<trkpt lat="52.881460" lon="-3.380731"><ele>827</ele><time>2020-01-18T12:14:50Z</time><name>PT7283</name></trkpt>
<trkpt lat="52.881462" lon="-3.380738"><ele>827</ele><time>2020-01-18T12:14:51Z</time><name>PT7284</name></trkpt>
<trkpt lat="52.881460" lon="-3.380744"><ele>827</ele><time>2020-01-18T12:14:53Z</time><name>PT7285</name></trkpt>
<trkpt lat="52.881459" lon="-3.380742"><ele>827</ele><time>2020-01-18T12:15:03Z</time><name>PT7286</name></trkpt>
<trkpt lat="52.881457" lon="-3.380749"><ele>827</ele><time>2020-01-18T12:15:05Z</time><name>PT7287</name></trkpt>
<trkpt lat="52.881450" lon="-3.380749"><ele>827</ele><time>2020-01-18T12:15:05Z</time><name>PT7288</name></trkpt>
<trkpt lat="52.881447" lon="-3.380747"><ele>827</ele><time>2020-01-18T12:15:08Z</time><name>PT7289</name></trkpt>
<trkpt lat="52.881446" lon="-3.380750"><ele>827</ele><time>2020-01-18T12:15:10Z</time><name>PT7290</name></trkpt>
<trkpt lat="52.881444" lon="-3.380753"><ele>827</ele><time>2020-01-18T12:15:11Z</time><name>PT7291</name></trkpt>
<trkpt lat="52.881444" lon="-3.380757"><ele>827</ele><time>2020-01-18T12:15:11Z</time><name>PT7292</name></trkpt>
<trkpt lat="52.881439" lon="-3.380750"><ele>827</ele><time>2020-01-18T12:15:19Z</time><name>PT7293</name></trkpt>
<trkpt lat="52.881438" lon="-3.380753"><ele>828</ele><time>2020-01-18T12:15:20Z</time><name>PT7294</name></trkpt>
<trkpt lat="52.881436" lon="-3.380749"><ele>828</ele><time>2020-01-18T12:15:20Z</time><name>PT7295</name></trkpt>
<trkpt lat="52.881438" lon="-3.380741"><ele>828</ele><time>2020-01-18T12:15:21Z</time><name>PT7296</name></trkpt>
<trkpt lat="52.881434" lon="-3.380741"><ele>829</ele><time>2020-01-18T12:15:23Z</time><name>PT7297</name></trkpt>
<trkpt lat="52.881433" lon="-3.380742"><ele>828</ele><time>2020-01-18T12:15:23Z</time><name>PT7298</name></trkpt>
<trkpt lat="52.881433" lon="-3.380743"><ele>828</ele><time>2020-01-18T12:15:24Z</time><name>PT7299</name></trkpt>
<trkpt lat="52.881433" lon="-3.380741"><ele>828</ele><time>2020-01-18T12:15:26Z</time><name>PT7300</name></trkpt>
<trkpt lat="52.881433" lon="-3.380742"><ele>828</ele><time>2020-01-18T12:15:26Z</time><name>PT7301</name></trkpt>
<trkpt lat="52.881434" lon="-3.380739"><ele>828</ele><time>2020-01-18T12:16:38Z</time><name>PT7302</name></trkpt>
<trkpt lat="52.881449" lon="-3.380739"><ele>828</ele><time>2020-01-18T12:16:38Z</time><name>PT7303</name></trkpt>
<trkpt lat="52.881454" lon="-3.380745"><ele>828</ele><time>2020-01-18T12:18:30Z</time><name>PT7304</name></trkpt>
<trkpt lat="52.881456" lon="-3.380745"><ele>828</ele><time>2020-01-18T12:18:32Z</time><name>PT7305</name></trkpt>
<trkpt lat="52.881457" lon="-3.380746"><ele>829</ele><time>2020-01-18T12:18:32Z</time><name>PT7306</name></trkpt>
<trkpt lat="52.881455" lon="-3.380749"><ele>828</ele><time>2020-01-18T12:23:11Z</time><name>PT7307</name></trkpt>
<trkpt lat="52.881462" lon="-3.380741"><ele>828</ele><time>2020-01-18T12:23:12Z</time><name>PT7308</name></trkpt>
<trkpt lat="52.881460" lon="-3.380746"><ele>828</ele><time>2020-01-18T12:23:14Z</time><name>PT7309</name></trkpt>
<trkpt lat="52.881460" lon="-3.380744"><ele>829</ele><time>2020-01-18T12:26:26Z</time><name>PT7310</name></trkpt>
<trkpt lat="52.881460" lon="-3.380740"><ele>829</ele><time>2020-01-18T12:26:26Z</time><name>PT7311</name></trkpt>
<trkpt lat="52.881460" lon="-3.380749"><ele>829</ele><time>2020-01-18T12:26:28Z</time><name>PT7312</name></trkpt>
<trkpt lat="52.881460" lon="-3.380744"><ele>829</ele><time>2020-01-18T12:26:29Z</time><name>PT7313</name></trkpt>
<trkpt lat="52.881460" lon="-3.380746"><ele>830</ele><time>2020-01-18T12:26:29Z</time><name>PT7314</name></trkpt>
<trkpt lat="52.881459" lon="-3.380749"><ele>830</ele><time>2020-01-18T12:26:31Z</time><name>PT7315</name></trkpt>
<trkpt lat="52.881460" lon="-3.380745"><ele>830</ele><time>2020-01-18T12:26:32Z</time><name>PT7316</name></trkpt>
<trkpt lat="52.881457" lon="-3.380750"><ele>829</ele><time>2020-01-18T12:26:33Z</time><name>PT7317</name></trkpt>
<trkpt lat="52.881449" lon="-3.380764"><ele>829</ele><time>2020-01-18T12:26:33Z</time><name>PT7318</name></trkpt>
<trkpt lat="52.881453" lon="-3.380758"><ele>829</ele><time>2020-01-18T12:26:35Z</time><name>PT7319</name></trkpt>
<trkpt lat="52.881455" lon="-3.380759"><ele>829</ele><time>2020-01-18T12:26:45Z</time><name>PT7320</name></trkpt>
<trkpt lat="52.881474" lon="-3.380770"><ele>829</ele><time>2020-01-18T12:26:47Z</time><name>PT7321</name></trkpt>
<trkpt lat="52.881476" lon="-3.380766"><ele>829</ele><time>2020-01-18T12:26:47Z</time><name>PT7322</name></trkpt>
<trkpt lat="52.881468" lon="-3.380762"><ele>829</ele><time>2020-01-18T12:28:24Z</time><name>PT7323</name></trkpt>
<trkpt lat="52.881471" lon="-3.380772"><ele>829</ele><time>2020-01-18T12:28:26Z</time><name>PT7324</name></trkpt>
<trkpt lat="52.881467" lon="-3.380768"><ele>830</ele><time>2020-01-18T12:28:29Z</time><name>PT7325</name></trkpt>
<trkpt lat="52.881467" lon="-3.380771"><ele>830</ele><time>2020-01-18T12:28:29Z</time><name>PT7326</name></trkpt>
<trkpt lat="52.881468" lon="-3.380770"><ele>830</ele><time>2020-01-18T12:28:30Z</time><name>PT7327</name></trkpt>
<trkpt lat="52.881468" lon="-3.380768"><ele>830</ele><time>2020-01-18T12:28:32Z</time><name>PT7328</name></trkpt>
<trkpt lat="52.881467" lon="-3.380762"><ele>829</ele><time>2020-01-18T12:28:33Z</time><name>PT7329</name></trkpt>
<trkpt lat="52.881467" lon="-3.380763"><ele>830</ele><time>2020-01-18T12:29:27Z</time><name>PT7330</name></trkpt>
<trkpt lat="52.881466" lon="-3.380763"><ele>830</ele><time>2020-01-18T12:29:29Z</time><name>PT7331</name></trkpt>
<trkpt lat="52.881465" lon="-3.380761"><ele>830</ele><time>2020-01-18T12:29:29Z</time><name>PT7332</name></trkpt>
<trkpt lat="52.881468" lon="-3.380753"><ele>831</ele><time>2020-01-18T12:30:53Z</time><name>PT7333</name></trkpt>
<trkpt lat="52.881466" lon="-3.380755"><ele>831</ele><time>2020-01-18T12:30:54Z</time><name>PT7334</name></trkpt>
<trkpt lat="52.881462" lon="-3.380755"><ele>832</ele><time>2020-01-18T12:30:56Z</time><name>PT7335</name></trkpt>
<trkpt lat="52.881460" lon="-3.380755"><ele>832</ele><time>2020-01-18T12:30:56Z</time><name>PT7336</name></trkpt>
<trkpt lat="52.881457" lon="-3.380758"><ele>832</ele><time>2020-01-18T12:30:59Z</time><name>PT7337</name></trkpt>
<trkpt lat="52.881458" lon="-3.380761"><ele>832</ele><time>2020-01-18T12:30:59Z</time><name>PT7338</name></trkpt>
<trkpt lat="52.881456" lon="-3.380767"><ele>832</ele><time>2020-01-18T12:31:00Z</time><name>PT7339</name></trkpt>
<trkpt lat="52.881457" lon="-3.380770"><ele>832</ele><time>2020-01-18T12:31:02Z</time><name>PT7340</name></trkpt>
<trkpt lat="52.881459" lon="-3.380774"><ele>832</ele><time>2020-01-18T12:31:02Z</time><name>PT7341</name></trkpt>
<trkpt lat="52.881459" lon="-3.380773"><ele>832</ele><time>2020-01-18T12:31:03Z</time><name>PT7342</name></trkpt>
<trkpt lat="52.881458" lon="-3.380774"><ele>833</ele><time>2020-01-18T12:31:05Z</time><name>PT7343</name></trkpt>
<trkpt lat="52.881458" lon="-3.380774"><ele>832</ele><time>2020-01-18T12:31:05Z</time><name>PT7344</name></trkpt>
<trkpt lat="52.881455" lon="-3.380771"><ele>832</ele><time>2020-01-18T12:31:38Z</time><name>PT7345</name></trkpt>
<trkpt lat="52.881453" lon="-3.380772"><ele>832</ele><time>2020-01-18T12:31:38Z</time><name>PT7346</name></trkpt>
<trkpt lat="52.881453" lon="-3.380773"><ele>832</ele><time>2020-01-18T12:31:39Z</time><name>PT7347</name></trkpt>
<trkpt lat="52.881455" lon="-3.380771"><ele>832</ele><time>2020-01-18T12:31:41Z</time><name>PT7348</name></trkpt>
<trkpt lat="52.881455" lon="-3.380768"><ele>832</ele><time>2020-01-18T12:31:41Z</time><name>PT7349</name></trkpt>
<trkpt lat="52.881456" lon="-3.380771"><ele>832</ele><time>2020-01-18T12:31:42Z</time><name>PT7350</name></trkpt>
<trkpt lat="52.881457" lon="-3.380770"><ele>832</ele><time>2020-01-18T12:31:44Z</time><name>PT7351</name></trkpt>
<trkpt lat="52.881457" lon="-3.380769"><ele>832</ele><time>2020-01-18T12:31:44Z</time><name>PT7352</name></trkpt>
<trkpt lat="52.881457" lon="-3.380763"><ele>832</ele><time>2020-01-18T12:32:05Z</time><name>PT7353</name></trkpt>
<trkpt lat="52.881457" lon="-3.380765"><ele>832</ele><time>2020-01-18T12:32:05Z</time><name>PT7354</name></trkpt>
<trkpt lat="52.881456" lon="-3.380773"><ele>831</ele><time>2020-01-18T12:32:06Z</time><name>PT7355</name></trkpt>
<trkpt lat="52.881457" lon="-3.380771"><ele>830</ele><time>2020-01-18T12:32:08Z</time><name>PT7356</name></trkpt>
<trkpt lat="52.881456" lon="-3.380769"><ele>831</ele><time>2020-01-18T12:32:08Z</time><name>PT7357</name></trkpt>
<trkpt lat="52.881458" lon="-3.380767"><ele>831</ele><time>2020-01-18T12:32:09Z</time><name>PT7358</name></trkpt>
<trkpt lat="52.881460" lon="-3.380763"><ele>831</ele><time>2020-01-18T12:32:11Z</time><name>PT7359</name></trkpt>
<trkpt lat="52.881462" lon="-3.380761"><ele>830</ele><time>2020-01-18T12:32:11Z</time><name>PT7360</name></trkpt>
<trkpt lat="52.881460" lon="-3.380754"><ele>830</ele><time>2020-01-18T12:32:17Z</time><name>PT7361</name></trkpt>
<trkpt lat="52.881452" lon="-3.380744"><ele>830</ele><time>2020-01-18T12:32:17Z</time><name>PT7362</name></trkpt>
<trkpt lat="52.881451" lon="-3.380746"><ele>830</ele><time>2020-01-18T12:32:18Z</time><name>PT7363</name></trkpt>
<trkpt lat="52.881455" lon="-3.380744"><ele>830</ele><time>2020-01-18T12:32:20Z</time><name>PT7364</name></trkpt>
<trkpt lat="52.881456" lon="-3.380745"><ele>830</ele><time>2020-01-18T12:32:20Z</time><name>PT7365</name></trkpt>
<trkpt lat="52.881457" lon="-3.380750"><ele>830</ele><time>2020-01-18T12:32:21Z</time><name>PT7366</name></trkpt>
<trkpt lat="52.881460" lon="-3.380762"><ele>830</ele><time>2020-01-18T12:32:23Z</time><name>PT7367</name></trkpt>
<trkpt lat="52.881461" lon="-3.380768"><ele>830</ele><time>2020-01-18T12:32:23Z</time><name>PT7368</name></trkpt>
<trkpt lat="52.881465" lon="-3.380777"><ele>830</ele><time>2020-01-18T12:32:25Z</time><name>PT7369</name></trkpt>
<trkpt lat="52.881466" lon="-3.380780"><ele>830</ele><time>2020-01-18T12:32:26Z</time><name>PT7370</name></trkpt>
<trkpt lat="52.881467" lon="-3.380780"><ele>829</ele><time>2020-01-18T12:32:26Z</time><name>PT7371</name></trkpt>
<trkpt lat="52.881467" lon="-3.380782"><ele>830</ele><time>2020-01-18T12:32:27Z</time><name>PT7372</name></trkpt>
<trkpt lat="52.881467" lon="-3.380788"><ele>830</ele><time>2020-01-18T12:32:35Z</time><name>PT7373</name></trkpt>
<trkpt lat="52.881466" lon="-3.380787"><ele>829</ele><time>2020-01-18T12:32:36Z</time><name>PT7374</name></trkpt>
<trkpt lat="52.881465" lon="-3.380790"><ele>829</ele><time>2020-01-18T12:32:38Z</time><name>PT7375</name></trkpt>
<trkpt lat="52.881459" lon="-3.380789"><ele>829</ele><time>2020-01-18T12:32:38Z</time><name>PT7376</name></trkpt>
<trkpt lat="52.881462" lon="-3.380796"><ele>829</ele><time>2020-01-18T12:32:39Z</time><name>PT7377</name></trkpt>
<trkpt lat="52.881464" lon="-3.380799"><ele>829</ele><time>2020-01-18T12:32:41Z</time><name>PT7378</name></trkpt>
<trkpt lat="52.881465" lon="-3.380806"><ele>829</ele><time>2020-01-18T12:32:41Z</time><name>PT7379</name></trkpt>
<trkpt lat="52.881466" lon="-3.380811"><ele>828</ele><time>2020-01-18T12:32:42Z</time><name>PT7380</name></trkpt>
<trkpt lat="52.881467" lon="-3.380812"><ele>828</ele><time>2020-01-18T12:32:44Z</time><name>PT7381</name></trkpt>
<trkpt lat="52.881468" lon="-3.380811"><ele>828</ele><time>2020-01-18T12:32:44Z</time><name>PT7382</name></trkpt>
<trkpt lat="52.881469" lon="-3.380813"><ele>828</ele><time>2020-01-18T12:32:45Z</time><name>PT7383</name></trkpt>
<trkpt lat="52.881469" lon="-3.380812"><ele>828</ele><time>2020-01-18T12:32:47Z</time><name>PT7384</name></trkpt>
<trkpt lat="52.881464" lon="-3.380804"><ele>828</ele><time>2020-01-18T12:32:56Z</time><name>PT7385</name></trkpt>
<trkpt lat="52.881459" lon="-3.380806"><ele>829</ele><time>2020-01-18T12:32:56Z</time><name>PT7386</name></trkpt>
<trkpt lat="52.881457" lon="-3.380809"><ele>828</ele><time>2020-01-18T12:32:57Z</time><name>PT7387</name></trkpt>
<trkpt lat="52.881455" lon="-3.380813"><ele>828</ele><time>2020-01-18T12:32:59Z</time><name>PT7388</name></trkpt>
<trkpt lat="52.881453" lon="-3.380816"><ele>828</ele><time>2020-01-18T12:32:59Z</time><name>PT7389</name></trkpt>
<trkpt lat="52.881454" lon="-3.380816"><ele>828</ele><time>2020-01-18T12:33:00Z</time><name>PT7390</name></trkpt>
<trkpt lat="52.881450" lon="-3.380814"><ele>828</ele><time>2020-01-18T12:33:02Z</time><name>PT7391</name></trkpt>
<trkpt lat="52.881445" lon="-3.380816"><ele>829</ele><time>2020-01-18T12:33:02Z</time><name>PT7392</name></trkpt>
<trkpt lat="52.881439" lon="-3.380817"><ele>829</ele><time>2020-01-18T12:33:03Z</time><name>PT7393</name></trkpt>
<trkpt lat="52.881435" lon="-3.380820"><ele>829</ele><time>2020-01-18T12:33:05Z</time><name>PT7394</name></trkpt>
<trkpt lat="52.881433" lon="-3.380821"><ele>829</ele><time>2020-01-18T12:33:05Z</time><name>PT7395</name></trkpt>
<trkpt lat="52.881433" lon="-3.380825"><ele>829</ele><time>2020-01-18T12:33:06Z</time><name>PT7396</name></trkpt>
<trkpt lat="52.881430" lon="-3.380830"><ele>829</ele><time>2020-01-18T12:33:08Z</time><name>PT7397</name></trkpt>
<trkpt lat="52.881427" lon="-3.380835"><ele>829</ele><time>2020-01-18T12:33:08Z</time><name>PT7398</name></trkpt>
<trkpt lat="52.881428" lon="-3.380841"><ele>828</ele><time>2020-01-18T12:33:09Z</time><name>PT7399</name></trkpt>
<trkpt lat="52.881423" lon="-3.380848"><ele>828</ele><time>2020-01-18T12:33:11Z</time><name>PT7400</name></trkpt>
<trkpt lat="52.881419" lon="-3.380852"><ele>828</ele><time>2020-01-18T12:33:11Z</time><name>PT7401</name></trkpt>
<trkpt lat="52.881414" lon="-3.380859"><ele>828</ele><time>2020-01-18T12:33:12Z</time><name>PT7402</name></trkpt>
<trkpt lat="52.881412" lon="-3.380864"><ele>828</ele><time>2020-01-18T12:33:14Z</time><name>PT7403</name></trkpt>
<trkpt lat="52.881405" lon="-3.380864"><ele>827</ele><time>2020-01-18T12:33:14Z</time><name>PT7404</name></trkpt>
<trkpt lat="52.881395" lon="-3.380873"><ele>828</ele><time>2020-01-18T12:33:15Z</time><name>PT7405</name></trkpt>
<trkpt lat="52.881384" lon="-3.380875"><ele>828</ele><time>2020-01-18T12:33:17Z</time><name>PT7406</name></trkpt>
<trkpt lat="52.881377" lon="-3.380880"><ele>828</ele><time>2020-01-18T12:33:18Z</time><name>PT7407</name></trkpt>
<trkpt lat="52.881369" lon="-3.380885"><ele>828</ele><time>2020-01-18T12:33:19Z</time><name>PT7408</name></trkpt>
<trkpt lat="52.881363" lon="-3.380891"><ele>829</ele><time>2020-01-18T12:33:20Z</time><name>PT7409</name></trkpt>
<trkpt lat="52.881356" lon="-3.380899"><ele>829</ele><time>2020-01-18T12:33:20Z</time><name>PT7410</name></trkpt>
<trkpt lat="52.881349" lon="-3.380907"><ele>828</ele><time>2020-01-18T12:33:21Z</time><name>PT7411</name></trkpt>
<trkpt lat="52.881339" lon="-3.380916"><ele>829</ele><time>2020-01-18T12:33:23Z</time><name>PT7412</name></trkpt>
<trkpt lat="52.881331" lon="-3.380923"><ele>830</ele><time>2020-01-18T12:33:23Z</time><name>PT7413</name></trkpt>
<trkpt lat="52.881324" lon="-3.380930"><ele>830</ele><time>2020-01-18T12:33:24Z</time><name>PT7414</name></trkpt>
<trkpt lat="52.881316" lon="-3.380939"><ele>830</ele><time>2020-01-18T12:33:26Z</time><name>PT7415</name></trkpt>
<trkpt lat="52.881306" lon="-3.380945"><ele>830</ele><time>2020-01-18T12:33:26Z</time><name>PT7416</name></trkpt>
<trkpt lat="52.881299" lon="-3.380950"><ele>830</ele><time>2020-01-18T12:33:27Z</time><name>PT7417</name></trkpt>
<trkpt lat="52.881298" lon="-3.380954"><ele>829</ele><time>2020-01-18T12:33:29Z</time><name>PT7418</name></trkpt>
<trkpt lat="52.881297" lon="-3.380953"><ele>829</ele><time>2020-01-18T12:33:29Z</time><name>PT7419</name></trkpt>
<trkpt lat="52.881297" lon="-3.380953"><ele>829</ele><time>2020-01-18T12:33:30Z</time><name>PT7420</name></trkpt>
<trkpt lat="52.881290" lon="-3.380963"><ele>829</ele><time>2020-01-18T12:33:32Z</time><name>PT7421</name></trkpt>
<trkpt lat="52.881283" lon="-3.380972"><ele>829</ele><time>2020-01-18T12:33:32Z</time><name>PT7422</name></trkpt>
<trkpt lat="52.881280" lon="-3.380978"><ele>828</ele><time>2020-01-18T12:33:33Z</time><name>PT7423</name></trkpt>
<trkpt lat="52.881273" lon="-3.380984"><ele>828</ele><time>2020-01-18T12:33:35Z</time><name>PT7424</name></trkpt>
<trkpt lat="52.881264" lon="-3.380992"><ele>828</ele><time>2020-01-18T12:33:35Z</time><name>PT7425</name></trkpt>
<trkpt lat="52.881256" lon="-3.381001"><ele>828</ele><time>2020-01-18T12:33:36Z</time><name>PT7426</name></trkpt>
<trkpt lat="52.881250" lon="-3.381012"><ele>828</ele><time>2020-01-18T12:33:38Z</time><name>PT7427</name></trkpt>
<trkpt lat="52.881241" lon="-3.381022"><ele>828</ele><time>2020-01-18T12:33:38Z</time><name>PT7428</name></trkpt>
<trkpt lat="52.881234" lon="-3.381033"><ele>827</ele><time>2020-01-18T12:33:40Z</time><name>PT7429</name></trkpt>
<trkpt lat="52.881224" lon="-3.381042"><ele>828</ele><time>2020-01-18T12:33:41Z</time><name>PT7430</name></trkpt>
<trkpt lat="52.881219" lon="-3.381057"><ele>828</ele><time>2020-01-18T12:33:41Z</time><name>PT7431</name></trkpt>
<trkpt lat="52.881214" lon="-3.381071"><ele>828</ele><time>2020-01-18T12:33:43Z</time><name>PT7432</name></trkpt>
<trkpt lat="52.881209" lon="-3.381086"><ele>828</ele><time>2020-01-18T12:33:44Z</time><name>PT7433</name></trkpt>
<trkpt lat="52.881206" lon="-3.381099"><ele>827</ele><time>2020-01-18T12:33:44Z</time><name>PT7434</name></trkpt>
<trkpt lat="52.881204" lon="-3.381113"><ele>827</ele><time>2020-01-18T12:33:45Z</time><name>PT7435</name></trkpt>
<trkpt lat="52.881200" lon="-3.381125"><ele>827</ele><time>2020-01-18T12:33:47Z</time><name>PT7436</name></trkpt>
<trkpt lat="52.881194" lon="-3.381138"><ele>827</ele><time>2020-01-18T12:33:47Z</time><name>PT7437</name></trkpt>
<trkpt lat="52.881186" lon="-3.381150"><ele>827</ele><time>2020-01-18T12:33:48Z</time><name>PT7438</name></trkpt>
<trkpt lat="52.881179" lon="-3.381163"><ele>827</ele><time>2020-01-18T12:33:50Z</time><name>PT7439</name></trkpt>
<trkpt lat="52.881173" lon="-3.381175"><ele>827</ele><time>2020-01-18T12:33:50Z</time><name>PT7440</name></trkpt>
<trkpt lat="52.881167" lon="-3.381188"><ele>827</ele><time>2020-01-18T12:33:51Z</time><name>PT7441</name></trkpt>
<trkpt lat="52.881161" lon="-3.381200"><ele>827</ele><time>2020-01-18T12:33:53Z</time><name>PT7442</name></trkpt>
<trkpt lat="52.881157" lon="-3.381209"><ele>827</ele><time>2020-01-18T12:33:53Z</time><name>PT7443</name></trkpt>
<trkpt lat="52.881151" lon="-3.381214"><ele>826</ele><time>2020-01-18T12:33:54Z</time><name>PT7444</name></trkpt>
<trkpt lat="52.881142" lon="-3.381221"><ele>826</ele><time>2020-01-18T12:33:56Z</time><name>PT7445</name></trkpt>
<trkpt lat="52.881134" lon="-3.381231"><ele>826</ele><time>2020-01-18T12:33:56Z</time><name>PT7446</name></trkpt>
<trkpt lat="52.881129" lon="-3.381239"><ele>826</ele><time>2020-01-18T12:33:57Z</time><name>PT7447</name></trkpt>
<trkpt lat="52.881121" lon="-3.381250"><ele>826</ele><time>2020-01-18T12:33:59Z</time><name>PT7448</name></trkpt>
<trkpt lat="52.881110" lon="-3.381256"><ele>826</ele><time>2020-01-18T12:33:59Z</time><name>PT7449</name></trkpt>
<trkpt lat="52.881101" lon="-3.381259"><ele>826</ele><time>2020-01-18T12:34:01Z</time><name>PT7450</name></trkpt>
<trkpt lat="52.881091" lon="-3.381258"><ele>826</ele><time>2020-01-18T12:34:02Z</time><name>PT7451</name></trkpt>
<trkpt lat="52.881081" lon="-3.381258"><ele>826</ele><time>2020-01-18T12:34:02Z</time><name>PT7452</name></trkpt>
<trkpt lat="52.881071" lon="-3.381259"><ele>827</ele><time>2020-01-18T12:34:03Z</time><name>PT7453</name></trkpt>
<trkpt lat="52.881058" lon="-3.381259"><ele>827</ele><time>2020-01-18T12:34:05Z</time><name>PT7454</name></trkpt>
<trkpt lat="52.881047" lon="-3.381254"><ele>828</ele><time>2020-01-18T12:34:05Z</time><name>PT7455</name></trkpt>
<trkpt lat="52.881036" lon="-3.381250"><ele>828</ele><time>2020-01-18T12:34:06Z</time><name>PT7456</name></trkpt>
<trkpt lat="52.881030" lon="-3.381252"><ele>828</ele><time>2020-01-18T12:34:08Z</time><name>PT7457</name></trkpt>
<trkpt lat="52.881023" lon="-3.381258"><ele>828</ele><time>2020-01-18T12:34:08Z</time><name>PT7458</name></trkpt>
<trkpt lat="52.881011" lon="-3.381262"><ele>829</ele><time>2020-01-18T12:34:09Z</time><name>PT7459</name></trkpt>
<trkpt lat="52.881001" lon="-3.381265"><ele>829</ele><time>2020-01-18T12:34:11Z</time><name>PT7460</name></trkpt>
<trkpt lat="52.880993" lon="-3.381274"><ele>829</ele><time>2020-01-18T12:34:12Z</time><name>PT7461</name></trkpt>
<trkpt lat="52.880985" lon="-3.381283"><ele>829</ele><time>2020-01-18T12:34:12Z</time><name>PT7462</name></trkpt>
<trkpt lat="52.880978" lon="-3.381288"><ele>830</ele><time>2020-01-18T12:34:14Z</time><name>PT7463</name></trkpt>
<trkpt lat="52.880969" lon="-3.381292"><ele>830</ele><time>2020-01-18T12:34:14Z</time><name>PT7464</name></trkpt>
<trkpt lat="52.880963" lon="-3.381300"><ele>830</ele><time>2020-01-18T12:34:15Z</time><name>PT7465</name></trkpt>
<trkpt lat="52.880958" lon="-3.381309"><ele>830</ele><time>2020-01-18T12:34:17Z</time><name>PT7466</name></trkpt>
<trkpt lat="52.880956" lon="-3.381319"><ele>829</ele><time>2020-01-18T12:34:17Z</time><name>PT7467</name></trkpt>
<trkpt lat="52.880954" lon="-3.381332"><ele>830</ele><time>2020-01-18T12:34:18Z</time><name>PT7468</name></trkpt>
<trkpt lat="52.880950" lon="-3.381347"><ele>830</ele><time>2020-01-18T12:34:20Z</time><name>PT7469</name></trkpt>
<trkpt lat="52.880945" lon="-3.381362"><ele>830</ele><time>2020-01-18T12:34:20Z</time><name>PT7470</name></trkpt>
<trkpt lat="52.880942" lon="-3.381376"><ele>829</ele><time>2020-01-18T12:34:21Z</time><name>PT7471</name></trkpt>
<trkpt lat="52.880937" lon="-3.381389"><ele>829</ele><time>2020-01-18T12:34:23Z</time><name>PT7472</name></trkpt>
<trkpt lat="52.880933" lon="-3.381403"><ele>829</ele><time>2020-01-18T12:34:23Z</time><name>PT7473</name></trkpt>
<trkpt lat="52.880927" lon="-3.381411"><ele>827</ele><time>2020-01-18T12:34:24Z</time><name>PT7474</name></trkpt>
<trkpt lat="52.880918" lon="-3.381425"><ele>827</ele><time>2020-01-18T12:34:26Z</time><name>PT7475</name></trkpt>
<trkpt lat="52.880911" lon="-3.381436"><ele>827</ele><time>2020-01-18T12:34:26Z</time><name>PT7476</name></trkpt>
<trkpt lat="52.880904" lon="-3.381447"><ele>827</ele><time>2020-01-18T12:34:27Z</time><name>PT7477</name></trkpt>
<trkpt lat="52.880896" lon="-3.381462"><ele>828</ele><time>2020-01-18T12:34:29Z</time><name>PT7478</name></trkpt>
<trkpt lat="52.880889" lon="-3.381472"><ele>828</ele><time>2020-01-18T12:34:29Z</time><name>PT7479</name></trkpt>
<trkpt lat="52.880880" lon="-3.381492"><ele>828</ele><time>2020-01-18T12:34:30Z</time><name>PT7480</name></trkpt>
<trkpt lat="52.880869" lon="-3.381501"><ele>828</ele><time>2020-01-18T12:34:32Z</time><name>PT7481</name></trkpt>
<trkpt lat="52.880861" lon="-3.381506"><ele>828</ele><time>2020-01-18T12:34:32Z</time><name>PT7482</name></trkpt>
<trkpt lat="52.880853" lon="-3.381510"><ele>828</ele><time>2020-01-18T12:34:33Z</time><name>PT7483</name></trkpt>
<trkpt lat="52.880846" lon="-3.381515"><ele>828</ele><time>2020-01-18T12:34:35Z</time><name>PT7484</name></trkpt>
<trkpt lat="52.880839" lon="-3.381523"><ele>827</ele><time>2020-01-18T12:34:35Z</time><name>PT7485</name></trkpt>
<trkpt lat="52.880833" lon="-3.381533"><ele>827</ele><time>2020-01-18T12:34:36Z</time><name>PT7486</name></trkpt>
<trkpt lat="52.880826" lon="-3.381539"><ele>827</ele><time>2020-01-18T12:34:38Z</time><name>PT7487</name></trkpt>
<trkpt lat="52.880812" lon="-3.381536"><ele>828</ele><time>2020-01-18T12:34:38Z</time><name>PT7488</name></trkpt>
<trkpt lat="52.880805" lon="-3.381542"><ele>828</ele><time>2020-01-18T12:34:39Z</time><name>PT7489</name></trkpt>
<trkpt lat="52.880800" lon="-3.381548"><ele>828</ele><time>2020-01-18T12:34:41Z</time><name>PT7490</name></trkpt>
<trkpt lat="52.880790" lon="-3.381555"><ele>828</ele><time>2020-01-18T12:34:41Z</time><name>PT7491</name></trkpt>
<trkpt lat="52.880780" lon="-3.381558"><ele>827</ele><time>2020-01-18T12:34:42Z</time><name>PT7492</name></trkpt>
<trkpt lat="52.880776" lon="-3.381563"><ele>827</ele><time>2020-01-18T12:34:44Z</time><name>PT7493</name></trkpt>
<trkpt lat="52.880768" lon="-3.381566"><ele>828</ele><time>2020-01-18T12:34:44Z</time><name>PT7494</name></trkpt>
<trkpt lat="52.880762" lon="-3.381576"><ele>828</ele><time>2020-01-18T12:34:46Z</time><name>PT7495</name></trkpt>
<trkpt lat="52.880755" lon="-3.381585"><ele>827</ele><time>2020-01-18T12:34:47Z</time><name>PT7496</name></trkpt>
<trkpt lat="52.880746" lon="-3.381594"><ele>826</ele><time>2020-01-18T12:34:47Z</time><name>PT7497</name></trkpt>
<trkpt lat="52.880737" lon="-3.381604"><ele>826</ele><time>2020-01-18T12:34:48Z</time><name>PT7498</name></trkpt>
<trkpt lat="52.880726" lon="-3.381610"><ele>826</ele><time>2020-01-18T12:34:50Z</time><name>PT7499</name></trkpt>
<trkpt lat="52.880719" lon="-3.381615"><ele>825</ele><time>2020-01-18T12:34:50Z</time><name>PT7500</name></trkpt>
<trkpt lat="52.880710" lon="-3.381620"><ele>825</ele><time>2020-01-18T12:34:51Z</time><name>PT7501</name></trkpt>
<trkpt lat="52.880702" lon="-3.381626"><ele>825</ele><time>2020-01-18T12:34:53Z</time><name>PT7502</name></trkpt>
<trkpt lat="52.880694" lon="-3.381633"><ele>825</ele><time>2020-01-18T12:34:53Z</time><name>PT7503</name></trkpt>
<trkpt lat="52.880686" lon="-3.381641"><ele>824</ele><time>2020-01-18T12:34:54Z</time><name>PT7504</name></trkpt>
<trkpt lat="52.880676" lon="-3.381646"><ele>824</ele><time>2020-01-18T12:34:56Z</time><name>PT7505</name></trkpt>
<trkpt lat="52.880663" lon="-3.381652"><ele>823</ele><time>2020-01-18T12:34:56Z</time><name>PT7506</name></trkpt>
<trkpt lat="52.880654" lon="-3.381658"><ele>823</ele><time>2020-01-18T12:34:57Z</time><name>PT7507</name></trkpt>
<trkpt lat="52.880638" lon="-3.381664"><ele>824</ele><time>2020-01-18T12:34:59Z</time><name>PT7508</name></trkpt>
<trkpt lat="52.880625" lon="-3.381669"><ele>824</ele><time>2020-01-18T12:34:59Z</time><name>PT7509</name></trkpt>
<trkpt lat="52.880615" lon="-3.381678"><ele>823</ele><time>2020-01-18T12:35:01Z</time><name>PT7510</name></trkpt>
<trkpt lat="52.880604" lon="-3.381684"><ele>823</ele><time>2020-01-18T12:35:02Z</time><name>PT7511</name></trkpt>
<trkpt lat="52.880594" lon="-3.381690"><ele>824</ele><time>2020-01-18T12:35:02Z</time><name>PT7512</name></trkpt>
<trkpt lat="52.880585" lon="-3.381694"><ele>824</ele><time>2020-01-18T12:35:04Z</time><name>PT7513</name></trkpt>
<trkpt lat="52.880575" lon="-3.381699"><ele>824</ele><time>2020-01-18T12:35:05Z</time><name>PT7514</name></trkpt>
<trkpt lat="52.880564" lon="-3.381706"><ele>824</ele><time>2020-01-18T12:35:05Z</time><name>PT7515</name></trkpt>
<trkpt lat="52.880553" lon="-3.381713"><ele>824</ele><time>2020-01-18T12:35:06Z</time><name>PT7516</name></trkpt>
<trkpt lat="52.880544" lon="-3.381722"><ele>824</ele><time>2020-01-18T12:35:08Z</time><name>PT7517</name></trkpt>
<trkpt lat="52.880533" lon="-3.381730"><ele>823</ele><time>2020-01-18T12:35:08Z</time><name>PT7518</name></trkpt>
<trkpt lat="52.880523" lon="-3.381735"><ele>823</ele><time>2020-01-18T12:35:09Z</time><name>PT7519</name></trkpt>
<trkpt lat="52.880512" lon="-3.381739"><ele>823</ele><time>2020-01-18T12:35:11Z</time><name>PT7520</name></trkpt>
<trkpt lat="52.880503" lon="-3.381745"><ele>823</ele><time>2020-01-18T12:35:11Z</time><name>PT7521</name></trkpt>
<trkpt lat="52.880492" lon="-3.381752"><ele>823</ele><time>2020-01-18T12:35:12Z</time><name>PT7522</name></trkpt>
<trkpt lat="52.880481" lon="-3.381749"><ele>823</ele><time>2020-01-18T12:35:14Z</time><name>PT7523</name></trkpt>
<trkpt lat="52.880471" lon="-3.381750"><ele>823</ele><time>2020-01-18T12:35:14Z</time><name>PT7524</name></trkpt>
<trkpt lat="52.880460" lon="-3.381753"><ele>823</ele><time>2020-01-18T12:35:15Z</time><name>PT7525</name></trkpt>
<trkpt lat="52.880448" lon="-3.381761"><ele>824</ele><time>2020-01-18T12:35:17Z</time><name>PT7526</name></trkpt>
<trkpt lat="52.880437" lon="-3.381769"><ele>824</ele><time>2020-01-18T12:35:17Z</time><name>PT7527</name></trkpt>
<trkpt lat="52.880425" lon="-3.381776"><ele>824</ele><time>2020-01-18T12:35:18Z</time><name>PT7528</name></trkpt>
<trkpt lat="52.880414" lon="-3.381783"><ele>824</ele><time>2020-01-18T12:35:20Z</time><name>PT7529</name></trkpt>
<trkpt lat="52.880405" lon="-3.381790"><ele>824</ele><time>2020-01-18T12:35:20Z</time><name>PT7530</name></trkpt>
<trkpt lat="52.880398" lon="-3.381797"><ele>824</ele><time>2020-01-18T12:35:21Z</time><name>PT7531</name></trkpt>
<trkpt lat="52.880392" lon="-3.381806"><ele>824</ele><time>2020-01-18T12:35:23Z</time><name>PT7532</name></trkpt>
<trkpt lat="52.880381" lon="-3.381813"><ele>824</ele><time>2020-01-18T12:35:23Z</time><name>PT7533</name></trkpt>
<trkpt lat="52.880371" lon="-3.381817"><ele>824</ele><time>2020-01-18T12:35:24Z</time><name>PT7534</name></trkpt>
<trkpt lat="52.880362" lon="-3.381819"><ele>823</ele><time>2020-01-18T12:35:26Z</time><name>PT7535</name></trkpt>
<trkpt lat="52.880352" lon="-3.381819"><ele>823</ele><time>2020-01-18T12:35:26Z</time><name>PT7536</name></trkpt>
<trkpt lat="52.880342" lon="-3.381823"><ele>823</ele><time>2020-01-18T12:35:27Z</time><name>PT7537</name></trkpt>
<trkpt lat="52.880330" lon="-3.381826"><ele>824</ele><time>2020-01-18T12:35:29Z</time><name>PT7538</name></trkpt>
<trkpt lat="52.880318" lon="-3.381830"><ele>824</ele><time>2020-01-18T12:35:29Z</time><name>PT7539</name></trkpt>
<trkpt lat="52.880309" lon="-3.381837"><ele>824</ele><time>2020-01-18T12:35:30Z</time><name>PT7540</name></trkpt>
<trkpt lat="52.880297" lon="-3.381838"><ele>824</ele><time>2020-01-18T12:35:32Z</time><name>PT7541</name></trkpt>
<trkpt lat="52.880289" lon="-3.381841"><ele>824</ele><time>2020-01-18T12:35:32Z</time><name>PT7542</name></trkpt>
<trkpt lat="52.880282" lon="-3.381847"><ele>824</ele><time>2020-01-18T12:35:33Z</time><name>PT7543</name></trkpt>
<trkpt lat="52.880274" lon="-3.381852"><ele>823</ele><time>2020-01-18T12:35:35Z</time><name>PT7544</name></trkpt>
<trkpt lat="52.880264" lon="-3.381860"><ele>823</ele><time>2020-01-18T12:35:35Z</time><name>PT7545</name></trkpt>
<trkpt lat="52.880255" lon="-3.381867"><ele>823</ele><time>2020-01-18T12:35:36Z</time><name>PT7546</name></trkpt>
<trkpt lat="52.880245" lon="-3.381871"><ele>823</ele><time>2020-01-18T12:35:38Z</time><name>PT7547</name></trkpt>
<trkpt lat="52.880235" lon="-3.381873"><ele>823</ele><time>2020-01-18T12:35:38Z</time><name>PT7548</name></trkpt>
<trkpt lat="52.880225" lon="-3.381873"><ele>822</ele><time>2020-01-18T12:35:39Z</time><name>PT7549</name></trkpt>
<trkpt lat="52.880214" lon="-3.381876"><ele>822</ele><time>2020-01-18T12:35:41Z</time><name>PT7550</name></trkpt>
<trkpt lat="52.880203" lon="-3.381879"><ele>822</ele><time>2020-01-18T12:35:41Z</time><name>PT7551</name></trkpt>
<trkpt lat="52.880191" lon="-3.381884"><ele>822</ele><time>2020-01-18T12:35:42Z</time><name>PT7552</name></trkpt>
<trkpt lat="52.880183" lon="-3.381890"><ele>821</ele><time>2020-01-18T12:35:44Z</time><name>PT7553</name></trkpt>
<trkpt lat="52.880176" lon="-3.381893"><ele>821</ele><time>2020-01-18T12:35:44Z</time><name>PT7554</name></trkpt>
<trkpt lat="52.880172" lon="-3.381898"><ele>820</ele><time>2020-01-18T12:35:45Z</time><name>PT7555</name></trkpt>
<trkpt lat="52.880166" lon="-3.381910"><ele>819</ele><time>2020-01-18T12:35:47Z</time><name>PT7556</name></trkpt>
<trkpt lat="52.880159" lon="-3.381910"><ele>819</ele><time>2020-01-18T12:35:47Z</time><name>PT7557</name></trkpt>
<trkpt lat="52.880154" lon="-3.381910"><ele>819</ele><time>2020-01-18T12:35:48Z</time><name>PT7558</name></trkpt>
<trkpt lat="52.880151" lon="-3.381912"><ele>819</ele><time>2020-01-18T12:35:50Z</time><name>PT7559</name></trkpt>
<trkpt lat="52.880150" lon="-3.381916"><ele>819</ele><time>2020-01-18T12:35:50Z</time><name>PT7560</name></trkpt>
<trkpt lat="52.880150" lon="-3.381920"><ele>819</ele><time>2020-01-18T12:35:51Z</time><name>PT7561</name></trkpt>
<trkpt lat="52.880145" lon="-3.381924"><ele>819</ele><time>2020-01-18T12:35:53Z</time><name>PT7562</name></trkpt>
<trkpt lat="52.880136" lon="-3.381926"><ele>819</ele><time>2020-01-18T12:35:53Z</time><name>PT7563</name></trkpt>
<trkpt lat="52.880126" lon="-3.381931"><ele>818</ele><time>2020-01-18T12:35:54Z</time><name>PT7564</name></trkpt>
<trkpt lat="52.880117" lon="-3.381935"><ele>818</ele><time>2020-01-18T12:35:56Z</time><name>PT7565</name></trkpt>
<trkpt lat="52.880114" lon="-3.381938"><ele>818</ele><time>2020-01-18T12:35:56Z</time><name>PT7566</name></trkpt>
<trkpt lat="52.880111" lon="-3.381937"><ele>819</ele><time>2020-01-18T12:35:57Z</time><name>PT7567</name></trkpt>
<trkpt lat="52.880108" lon="-3.381935"><ele>819</ele><time>2020-01-18T12:35:59Z</time><name>PT7568</name></trkpt>
<trkpt lat="52.880107" lon="-3.381934"><ele>819</ele><time>2020-01-18T12:36:02Z</time><name>PT7569</name></trkpt>
<trkpt lat="52.880107" lon="-3.381942"><ele>818</ele><time>2020-01-18T12:36:03Z</time><name>PT7570</name></trkpt>
<trkpt lat="52.880106" lon="-3.381949"><ele>818</ele><time>2020-01-18T12:36:05Z</time><name>PT7571</name></trkpt>
<trkpt lat="52.880103" lon="-3.381957"><ele>817</ele><time>2020-01-18T12:36:05Z</time><name>PT7572</name></trkpt>
<trkpt lat="52.880098" lon="-3.381962"><ele>817</ele><time>2020-01-18T12:36:07Z</time><name>PT7573</name></trkpt>
<trkpt lat="52.880098" lon="-3.381961"><ele>817</ele><time>2020-01-18T12:36:08Z</time><name>PT7574</name></trkpt>
<trkpt lat="52.880096" lon="-3.381965"><ele>816</ele><time>2020-01-18T12:36:09Z</time><name>PT7575</name></trkpt>
<trkpt lat="52.880092" lon="-3.381971"><ele>816</ele><time>2020-01-18T12:36:10Z</time><name>PT7576</name></trkpt>
<trkpt lat="52.880086" lon="-3.381982"><ele>816</ele><time>2020-01-18T12:36:11Z</time><name>PT7577</name></trkpt>
<trkpt lat="52.880082" lon="-3.381994"><ele>816</ele><time>2020-01-18T12:36:11Z</time><name>PT7578</name></trkpt>
<trkpt lat="52.880075" lon="-3.382000"><ele>816</ele><time>2020-01-18T12:36:12Z</time><name>PT7579</name></trkpt>
<trkpt lat="52.880068" lon="-3.382011"><ele>816</ele><time>2020-01-18T12:36:14Z</time><name>PT7580</name></trkpt>
<trkpt lat="52.880056" lon="-3.382026"><ele>816</ele><time>2020-01-18T12:36:14Z</time><name>PT7581</name></trkpt>
<trkpt lat="52.880047" lon="-3.382041"><ele>816</ele><time>2020-01-18T12:36:15Z</time><name>PT7582</name></trkpt>
<trkpt lat="52.880040" lon="-3.382055"><ele>816</ele><time>2020-01-18T12:36:17Z</time><name>PT7583</name></trkpt>
<trkpt lat="52.880031" lon="-3.382068"><ele>816</ele><time>2020-01-18T12:36:17Z</time><name>PT7584</name></trkpt>
<trkpt lat="52.880024" lon="-3.382083"><ele>815</ele><time>2020-01-18T12:36:18Z</time><name>PT7585</name></trkpt>
<trkpt lat="52.880017" lon="-3.382099"><ele>815</ele><time>2020-01-18T12:36:20Z</time><name>PT7586</name></trkpt>
<trkpt lat="52.880006" lon="-3.382110"><ele>816</ele><time>2020-01-18T12:36:20Z</time><name>PT7587</name></trkpt>
<trkpt lat="52.879997" lon="-3.382123"><ele>816</ele><time>2020-01-18T12:36:21Z</time><name>PT7588</name></trkpt>
<trkpt lat="52.879989" lon="-3.382136"><ele>816</ele><time>2020-01-18T12:36:23Z</time><name>PT7589</name></trkpt>
<trkpt lat="52.879978" lon="-3.382149"><ele>816</ele><time>2020-01-18T12:36:23Z</time><name>PT7590</name></trkpt>
<trkpt lat="52.879971" lon="-3.382160"><ele>816</ele><time>2020-01-18T12:36:24Z</time><name>PT7591</name></trkpt>
<trkpt lat="52.879962" lon="-3.382169"><ele>816</ele><time>2020-01-18T12:36:26Z</time><name>PT7592</name></trkpt>
<trkpt lat="52.879953" lon="-3.382179"><ele>816</ele><time>2020-01-18T12:36:26Z</time><name>PT7593</name></trkpt>
<trkpt lat="52.879948" lon="-3.382191"><ele>815</ele><time>2020-01-18T12:36:27Z</time><name>PT7594</name></trkpt>
<trkpt lat="52.879941" lon="-3.382212"><ele>814</ele><time>2020-01-18T12:36:29Z</time><name>PT7595</name></trkpt>
<trkpt lat="52.879935" lon="-3.382229"><ele>814</ele><time>2020-01-18T12:36:29Z</time><name>PT7596</name></trkpt>
<trkpt lat="52.879928" lon="-3.382243"><ele>813</ele><time>2020-01-18T12:36:30Z</time><name>PT7597</name></trkpt>
<trkpt lat="52.879920" lon="-3.382258"><ele>814</ele><time>2020-01-18T12:36:32Z</time><name>PT7598</name></trkpt>
<trkpt lat="52.879917" lon="-3.382270"><ele>813</ele><time>2020-01-18T12:36:32Z</time><name>PT7599</name></trkpt>
<trkpt lat="52.879912" lon="-3.382282"><ele>813</ele><time>2020-01-18T12:36:33Z</time><name>PT7600</name></trkpt>
<trkpt lat="52.879905" lon="-3.382299"><ele>813</ele><time>2020-01-18T12:36:35Z</time><name>PT7601</name></trkpt>
<trkpt lat="52.879899" lon="-3.382313"><ele>812</ele><time>2020-01-18T12:36:35Z</time><name>PT7602</name></trkpt>
<trkpt lat="52.879894" lon="-3.382326"><ele>812</ele><time>2020-01-18T12:36:36Z</time><name>PT7603</name></trkpt>
<trkpt lat="52.879886" lon="-3.382340"><ele>812</ele><time>2020-01-18T12:36:38Z</time><name>PT7604</name></trkpt>
<trkpt lat="52.879877" lon="-3.382353"><ele>812</ele><time>2020-01-18T12:36:38Z</time><name>PT7605</name></trkpt>
<trkpt lat="52.879867" lon="-3.382370"><ele>813</ele><time>2020-01-18T12:36:40Z</time><name>PT7606</name></trkpt>
<trkpt lat="52.879861" lon="-3.382378"><ele>812</ele><time>2020-01-18T12:36:41Z</time><name>PT7607</name></trkpt>
<trkpt lat="52.879851" lon="-3.382387"><ele>812</ele><time>2020-01-18T12:36:41Z</time><name>PT7608</name></trkpt>
<trkpt lat="52.879842" lon="-3.382415"><ele>813</ele><time>2020-01-18T12:36:43Z</time><name>PT7609</name></trkpt>
<trkpt lat="52.879833" lon="-3.382429"><ele>813</ele><time>2020-01-18T12:36:44Z</time><name>PT7610</name></trkpt>
<trkpt lat="52.879826" lon="-3.382444"><ele>812</ele><time>2020-01-18T12:36:45Z</time><name>PT7611</name></trkpt>
<trkpt lat="52.879819" lon="-3.382461"><ele>813</ele><time>2020-01-18T12:36:46Z</time><name>PT7612</name></trkpt>
<trkpt lat="52.879810" lon="-3.382477"><ele>813</ele><time>2020-01-18T12:36:47Z</time><name>PT7613</name></trkpt>
<trkpt lat="52.879799" lon="-3.382488"><ele>813</ele><time>2020-01-18T12:36:47Z</time><name>PT7614</name></trkpt>
<trkpt lat="52.879791" lon="-3.382499"><ele>812</ele><time>2020-01-18T12:36:48Z</time><name>PT7615</name></trkpt>
<trkpt lat="52.879784" lon="-3.382512"><ele>812</ele><time>2020-01-18T12:36:50Z</time><name>PT7616</name></trkpt>
<trkpt lat="52.879777" lon="-3.382526"><ele>813</ele><time>2020-01-18T12:36:50Z</time><name>PT7617</name></trkpt>
<trkpt lat="52.879771" lon="-3.382539"><ele>813</ele><time>2020-01-18T12:36:51Z</time><name>PT7618</name></trkpt>
<trkpt lat="52.879764" lon="-3.382555"><ele>813</ele><time>2020-01-18T12:36:53Z</time><name>PT7619</name></trkpt>
<trkpt lat="52.879758" lon="-3.382569"><ele>813</ele><time>2020-01-18T12:36:53Z</time><name>PT7620</name></trkpt>
<trkpt lat="52.879753" lon="-3.382577"><ele>813</ele><time>2020-01-18T12:36:54Z</time><name>PT7621</name></trkpt>
<trkpt lat="52.879749" lon="-3.382583"><ele>813</ele><time>2020-01-18T12:36:56Z</time><name>PT7622</name></trkpt>
<trkpt lat="52.879740" lon="-3.382588"><ele>813</ele><time>2020-01-18T12:36:56Z</time><name>PT7623</name></trkpt>
<trkpt lat="52.879734" lon="-3.382595"><ele>814</ele><time>2020-01-18T12:36:57Z</time><name>PT7624</name></trkpt>
<trkpt lat="52.879728" lon="-3.382602"><ele>814</ele><time>2020-01-18T12:36:59Z</time><name>PT7625</name></trkpt>
<trkpt lat="52.879722" lon="-3.382614"><ele>814</ele><time>2020-01-18T12:36:59Z</time><name>PT7626</name></trkpt>
<trkpt lat="52.879715" lon="-3.382623"><ele>814</ele><time>2020-01-18T12:37:00Z</time><name>PT7627</name></trkpt>
<trkpt lat="52.879708" lon="-3.382638"><ele>813</ele><time>2020-01-18T12:37:02Z</time><name>PT7628</name></trkpt>
<trkpt lat="52.879705" lon="-3.382643"><ele>813</ele><time>2020-01-18T12:37:02Z</time><name>PT7629</name></trkpt>
<trkpt lat="52.879702" lon="-3.382652"><ele>812</ele><time>2020-01-18T12:37:03Z</time><name>PT7630</name></trkpt>
<trkpt lat="52.879695" lon="-3.382658"><ele>811</ele><time>2020-01-18T12:37:05Z</time><name>PT7631</name></trkpt>
<trkpt lat="52.879686" lon="-3.382670"><ele>810</ele><time>2020-01-18T12:37:05Z</time><name>PT7632</name></trkpt>
<trkpt lat="52.879676" lon="-3.382681"><ele>810</ele><time>2020-01-18T12:37:06Z</time><name>PT7633</name></trkpt>
<trkpt lat="52.879669" lon="-3.382693"><ele>810</ele><time>2020-01-18T12:37:08Z</time><name>PT7634</name></trkpt>
<trkpt lat="52.879662" lon="-3.382702"><ele>810</ele><time>2020-01-18T12:37:08Z</time><name>PT7635</name></trkpt>
<trkpt lat="52.879654" lon="-3.382714"><ele>809</ele><time>2020-01-18T12:37:09Z</time><name>PT7636</name></trkpt>
<trkpt lat="52.879642" lon="-3.382725"><ele>809</ele><time>2020-01-18T12:37:11Z</time><name>PT7637</name></trkpt>
<trkpt lat="52.879629" lon="-3.382736"><ele>809</ele><time>2020-01-18T12:37:11Z</time><name>PT7638</name></trkpt>
<trkpt lat="52.879621" lon="-3.382745"><ele>809</ele><time>2020-01-18T12:37:13Z</time><name>PT7639</name></trkpt>
<trkpt lat="52.879613" lon="-3.382757"><ele>808</ele><time>2020-01-18T12:37:14Z</time><name>PT7640</name></trkpt>
<trkpt lat="52.879601" lon="-3.382768"><ele>808</ele><time>2020-01-18T12:37:14Z</time><name>PT7641</name></trkpt>
<trkpt lat="52.879595" lon="-3.382784"><ele>808</ele><time>2020-01-18T12:37:15Z</time><name>PT7642</name></trkpt>
<trkpt lat="52.879589" lon="-3.382796"><ele>808</ele><time>2020-01-18T12:37:17Z</time><name>PT7643</name></trkpt>
<trkpt lat="52.879583" lon="-3.382806"><ele>808</ele><time>2020-01-18T12:37:17Z</time><name>PT7644</name></trkpt>
<trkpt lat="52.879578" lon="-3.382820"><ele>808</ele><time>2020-01-18T12:37:19Z</time><name>PT7645</name></trkpt>
<trkpt lat="52.879570" lon="-3.382832"><ele>807</ele><time>2020-01-18T12:37:20Z</time><name>PT7646</name></trkpt>
<trkpt lat="52.879560" lon="-3.382846"><ele>808</ele><time>2020-01-18T12:37:20Z</time><name>PT7647</name></trkpt>
<trkpt lat="52.879553" lon="-3.382858"><ele>807</ele><time>2020-01-18T12:37:21Z</time><name>PT7648</name></trkpt>
<trkpt lat="52.879548" lon="-3.382871"><ele>807</ele><time>2020-01-18T12:37:23Z</time><name>PT7649</name></trkpt>
<trkpt lat="52.879539" lon="-3.382883"><ele>807</ele><time>2020-01-18T12:37:24Z</time><name>PT7650</name></trkpt>
<trkpt lat="52.879531" lon="-3.382892"><ele>806</ele><time>2020-01-18T12:37:25Z</time><name>PT7651</name></trkpt>
<trkpt lat="52.879525" lon="-3.382903"><ele>806</ele><time>2020-01-18T12:37:26Z</time><name>PT7652</name></trkpt>
<trkpt lat="52.879516" lon="-3.382914"><ele>806</ele><time>2020-01-18T12:37:26Z</time><name>PT7653</name></trkpt>
<trkpt lat="52.879505" lon="-3.382931"><ele>806</ele><time>2020-01-18T12:37:27Z</time><name>PT7654</name></trkpt>
<trkpt lat="52.879496" lon="-3.382946"><ele>806</ele><time>2020-01-18T12:37:29Z</time><name>PT7655</name></trkpt>
<trkpt lat="52.879486" lon="-3.382953"><ele>806</ele><time>2020-01-18T12:37:29Z</time><name>PT7656</name></trkpt>
<trkpt lat="52.879477" lon="-3.382959"><ele>806</ele><time>2020-01-18T12:37:30Z</time><name>PT7657</name></trkpt>
<trkpt lat="52.879463" lon="-3.382976"><ele>806</ele><time>2020-01-18T12:37:32Z</time><name>PT7658</name></trkpt>
<trkpt lat="52.879454" lon="-3.382992"><ele>806</ele><time>2020-01-18T12:37:32Z</time><name>PT7659</name></trkpt>
<trkpt lat="52.879446" lon="-3.383015"><ele>805</ele><time>2020-01-18T12:37:33Z</time><name>PT7660</name></trkpt>
<trkpt lat="52.879441" lon="-3.383035"><ele>805</ele><time>2020-01-18T12:37:35Z</time><name>PT7661</name></trkpt>
<trkpt lat="52.879436" lon="-3.383048"><ele>804</ele><time>2020-01-18T12:37:35Z</time><name>PT7662</name></trkpt>
<trkpt lat="52.879433" lon="-3.383064"><ele>803</ele><time>2020-01-18T12:37:36Z</time><name>PT7663</name></trkpt>
<trkpt lat="52.879430" lon="-3.383086"><ele>803</ele><time>2020-01-18T12:37:38Z</time><name>PT7664</name></trkpt>
<trkpt lat="52.879422" lon="-3.383104"><ele>803</ele><time>2020-01-18T12:37:38Z</time><name>PT7665</name></trkpt>
<trkpt lat="52.879414" lon="-3.383110"><ele>803</ele><time>2020-01-18T12:37:39Z</time><name>PT7666</name></trkpt>
<trkpt lat="52.879403" lon="-3.383117"><ele>803</ele><time>2020-01-18T12:37:41Z</time><name>PT7667</name></trkpt>
<trkpt lat="52.879396" lon="-3.383136"><ele>804</ele><time>2020-01-18T12:37:41Z</time><name>PT7668</name></trkpt>
<trkpt lat="52.879390" lon="-3.383158"><ele>803</ele><time>2020-01-18T12:37:42Z</time><name>PT7669</name></trkpt>
<trkpt lat="52.879381" lon="-3.383182"><ele>803</ele><time>2020-01-18T12:37:44Z</time><name>PT7670</name></trkpt>
<trkpt lat="52.879377" lon="-3.383191"><ele>803</ele><time>2020-01-18T12:37:44Z</time><name>PT7671</name></trkpt>
<trkpt lat="52.879374" lon="-3.383207"><ele>801</ele><time>2020-01-18T12:37:45Z</time><name>PT7672</name></trkpt>
<trkpt lat="52.879368" lon="-3.383214"><ele>801</ele><time>2020-01-18T12:37:47Z</time><name>PT7673</name></trkpt>
<trkpt lat="52.879361" lon="-3.383232"><ele>801</ele><time>2020-01-18T12:37:47Z</time><name>PT7674</name></trkpt>
<trkpt lat="52.879351" lon="-3.383239"><ele>802</ele><time>2020-01-18T12:37:48Z</time><name>PT7675</name></trkpt>
<trkpt lat="52.879340" lon="-3.383253"><ele>801</ele><time>2020-01-18T12:37:50Z</time><name>PT7676</name></trkpt>
<trkpt lat="52.879337" lon="-3.383256"><ele>801</ele><time>2020-01-18T12:37:50Z</time><name>PT7677</name></trkpt>
<trkpt lat="52.879322" lon="-3.383263"><ele>800</ele><time>2020-01-18T12:37:51Z</time><name>PT7678</name></trkpt>
<trkpt lat="52.879307" lon="-3.383277"><ele>799</ele><time>2020-01-18T12:37:53Z</time><name>PT7679</name></trkpt>
<trkpt lat="52.879292" lon="-3.383285"><ele>798</ele><time>2020-01-18T12:37:53Z</time><name>PT7680</name></trkpt>
<trkpt lat="52.879273" lon="-3.383287"><ele>800</ele><time>2020-01-18T12:37:54Z</time><name>PT7681</name></trkpt>
<trkpt lat="52.879260" lon="-3.383304"><ele>800</ele><time>2020-01-18T12:37:56Z</time><name>PT7682</name></trkpt>
<trkpt lat="52.879247" lon="-3.383321"><ele>799</ele><time>2020-01-18T12:37:56Z</time><name>PT7683</name></trkpt>
<trkpt lat="52.879231" lon="-3.383328"><ele>800</ele><time>2020-01-18T12:37:57Z</time><name>PT7684</name></trkpt>
<trkpt lat="52.879222" lon="-3.383336"><ele>801</ele><time>2020-01-18T12:37:59Z</time><name>PT7685</name></trkpt>
<trkpt lat="52.879212" lon="-3.383344"><ele>801</ele><time>2020-01-18T12:37:59Z</time><name>PT7686</name></trkpt>
<trkpt lat="52.879198" lon="-3.383353"><ele>801</ele><time>2020-01-18T12:38:00Z</time><name>PT7687</name></trkpt>
<trkpt lat="52.879184" lon="-3.383362"><ele>800</ele><time>2020-01-18T12:38:02Z</time><name>PT7688</name></trkpt>
<trkpt lat="52.879168" lon="-3.383365"><ele>802</ele><time>2020-01-18T12:38:02Z</time><name>PT7689</name></trkpt>
<trkpt lat="52.879156" lon="-3.383368"><ele>803</ele><time>2020-01-18T12:38:04Z</time><name>PT7690</name></trkpt>
<trkpt lat="52.879141" lon="-3.383365"><ele>805</ele><time>2020-01-18T12:38:05Z</time><name>PT7691</name></trkpt>
<trkpt lat="52.879133" lon="-3.383381"><ele>804</ele><time>2020-01-18T12:38:05Z</time><name>PT7692</name></trkpt>
<trkpt lat="52.879121" lon="-3.383402"><ele>803</ele><time>2020-01-18T12:38:06Z</time><name>PT7693</name></trkpt>
<trkpt lat="52.879107" lon="-3.383412"><ele>803</ele><time>2020-01-18T12:38:08Z</time><name>PT7694</name></trkpt>
<trkpt lat="52.879095" lon="-3.383417"><ele>803</ele><time>2020-01-18T12:38:08Z</time><name>PT7695</name></trkpt>
<trkpt lat="52.879091" lon="-3.383435"><ele>802</ele><time>2020-01-18T12:38:09Z</time><name>PT7696</name></trkpt>
<trkpt lat="52.879082" lon="-3.383447"><ele>802</ele><time>2020-01-18T12:38:11Z</time><name>PT7697</name></trkpt>
<trkpt lat="52.879078" lon="-3.383452"><ele>802</ele><time>2020-01-18T12:38:11Z</time><name>PT7698</name></trkpt>
<trkpt lat="52.879072" lon="-3.383472"><ele>803</ele><time>2020-01-18T12:38:12Z</time><name>PT7699</name></trkpt>
<trkpt lat="52.879060" lon="-3.383484"><ele>803</ele><time>2020-01-18T12:38:14Z</time><name>PT7700</name></trkpt>
<trkpt lat="52.879044" lon="-3.383500"><ele>802</ele><time>2020-01-18T12:38:14Z</time><name>PT7701</name></trkpt>
<trkpt lat="52.879023" lon="-3.383506"><ele>803</ele><time>2020-01-18T12:38:15Z</time><name>PT7702</name></trkpt>
<trkpt lat="52.879015" lon="-3.383523"><ele>802</ele><time>2020-01-18T12:38:17Z</time><name>PT7703</name></trkpt>
<trkpt lat="52.879008" lon="-3.383547"><ele>801</ele><time>2020-01-18T12:38:17Z</time><name>PT7704</name></trkpt>
<trkpt lat="52.878989" lon="-3.383555"><ele>801</ele><time>2020-01-18T12:38:18Z</time><name>PT7705</name></trkpt>
<trkpt lat="52.878979" lon="-3.383565"><ele>800</ele><time>2020-01-18T12:38:20Z</time><name>PT7706</name></trkpt>
<trkpt lat="52.878974" lon="-3.383582"><ele>799</ele><time>2020-01-18T12:38:20Z</time><name>PT7707</name></trkpt>
<trkpt lat="52.878965" lon="-3.383597"><ele>798</ele><time>2020-01-18T12:38:21Z</time><name>PT7708</name></trkpt>
<trkpt lat="52.878954" lon="-3.383608"><ele>795</ele><time>2020-01-18T12:38:23Z</time><name>PT7709</name></trkpt>
<trkpt lat="52.878945" lon="-3.383624"><ele>794</ele><time>2020-01-18T12:38:23Z</time><name>PT7710</name></trkpt>
<trkpt lat="52.878934" lon="-3.383646"><ele>793</ele><time>2020-01-18T12:38:24Z</time><name>PT7711</name></trkpt>
<trkpt lat="52.878925" lon="-3.383663"><ele>793</ele><time>2020-01-18T12:38:26Z</time><name>PT7712</name></trkpt>
<trkpt lat="52.878912" lon="-3.383672"><ele>793</ele><time>2020-01-18T12:38:26Z</time><name>PT7713</name></trkpt>
<trkpt lat="52.878899" lon="-3.383685"><ele>792</ele><time>2020-01-18T12:38:27Z</time><name>PT7714</name></trkpt>
<trkpt lat="52.878898" lon="-3.383698"><ele>793</ele><time>2020-01-18T12:38:29Z</time><name>PT7715</name></trkpt>
<trkpt lat="52.878895" lon="-3.383719"><ele>793</ele><time>2020-01-18T12:38:29Z</time><name>PT7716</name></trkpt>
<trkpt lat="52.878888" lon="-3.383726"><ele>794</ele><time>2020-01-18T12:38:30Z</time><name>PT7717</name></trkpt>
<trkpt lat="52.878881" lon="-3.383744"><ele>795</ele><time>2020-01-18T12:38:32Z</time><name>PT7718</name></trkpt>
<trkpt lat="52.878871" lon="-3.383755"><ele>794</ele><time>2020-01-18T12:38:32Z</time><name>PT7719</name></trkpt>
<trkpt lat="52.878866" lon="-3.383763"><ele>794</ele><time>2020-01-18T12:38:33Z</time><name>PT7720</name></trkpt>
<trkpt lat="52.878858" lon="-3.383785"><ele>793</ele><time>2020-01-18T12:38:35Z</time><name>PT7721</name></trkpt>
<trkpt lat="52.878842" lon="-3.383804"><ele>793</ele><time>2020-01-18T12:38:35Z</time><name>PT7722</name></trkpt>
<trkpt lat="52.878827" lon="-3.383822"><ele>792</ele><time>2020-01-18T12:38:36Z</time><name>PT7723</name></trkpt>
<trkpt lat="52.878817" lon="-3.383827"><ele>792</ele><time>2020-01-18T12:38:38Z</time><name>PT7724</name></trkpt>
<trkpt lat="52.878803" lon="-3.383840"><ele>790</ele><time>2020-01-18T12:38:38Z</time><name>PT7725</name></trkpt>
<trkpt lat="52.878792" lon="-3.383842"><ele>790</ele><time>2020-01-18T12:38:39Z</time><name>PT7726</name></trkpt>
<trkpt lat="52.878782" lon="-3.383848"><ele>790</ele><time>2020-01-18T12:38:41Z</time><name>PT7727</name></trkpt>
<trkpt lat="52.878769" lon="-3.383844"><ele>790</ele><time>2020-01-18T12:38:41Z</time><name>PT7728</name></trkpt>
<trkpt lat="52.878762" lon="-3.383845"><ele>790</ele><time>2020-01-18T12:38:42Z</time><name>PT7729</name></trkpt>
<trkpt lat="52.878758" lon="-3.383859"><ele>790</ele><time>2020-01-18T12:38:44Z</time><name>PT7730</name></trkpt>
<trkpt lat="52.878755" lon="-3.383878"><ele>789</ele><time>2020-01-18T12:38:45Z</time><name>PT7731</name></trkpt>
<trkpt lat="52.878748" lon="-3.383882"><ele>788</ele><time>2020-01-18T12:38:46Z</time><name>PT7732</name></trkpt>
<trkpt lat="52.878742" lon="-3.383892"><ele>787</ele><time>2020-01-18T12:38:47Z</time><name>PT7733</name></trkpt>
<trkpt lat="52.878734" lon="-3.383894"><ele>787</ele><time>2020-01-18T12:38:47Z</time><name>PT7734</name></trkpt>
<trkpt lat="52.878728" lon="-3.383902"><ele>787</ele><time>2020-01-18T12:38:48Z</time><name>PT7735</name></trkpt>
<trkpt lat="52.878728" lon="-3.383914"><ele>787</ele><time>2020-01-18T12:38:50Z</time><name>PT7736</name></trkpt>
<trkpt lat="52.878725" lon="-3.383928"><ele>788</ele><time>2020-01-18T12:38:50Z</time><name>PT7737</name></trkpt>
<trkpt lat="52.878727" lon="-3.383940"><ele>787</ele><time>2020-01-18T12:38:51Z</time><name>PT7738</name></trkpt>
<trkpt lat="52.878729" lon="-3.383952"><ele>788</ele><time>2020-01-18T12:38:53Z</time><name>PT7739</name></trkpt>
<trkpt lat="52.878727" lon="-3.383962"><ele>787</ele><time>2020-01-18T12:38:53Z</time><name>PT7740</name></trkpt>
<trkpt lat="52.878722" lon="-3.383962"><ele>788</ele><time>2020-01-18T12:38:54Z</time><name>PT7741</name></trkpt>
<trkpt lat="52.878727" lon="-3.383981"><ele>789</ele><time>2020-01-18T12:38:56Z</time><name>PT7742</name></trkpt>
<trkpt lat="52.878725" lon="-3.383999"><ele>788</ele><time>2020-01-18T12:38:56Z</time><name>PT7743</name></trkpt>
<trkpt lat="52.878722" lon="-3.384018"><ele>789</ele><time>2020-01-18T12:38:57Z</time><name>PT7744</name></trkpt>
<trkpt lat="52.878713" lon="-3.384021"><ele>789</ele><time>2020-01-18T12:38:59Z</time><name>PT7745</name></trkpt>
<trkpt lat="52.878715" lon="-3.384035"><ele>789</ele><time>2020-01-18T12:38:59Z</time><name>PT7746</name></trkpt>
<trkpt lat="52.878704" lon="-3.384040"><ele>788</ele><time>2020-01-18T12:39:00Z</time><name>PT7747</name></trkpt>
<trkpt lat="52.878686" lon="-3.384041"><ele>788</ele><time>2020-01-18T12:39:02Z</time><name>PT7748</name></trkpt>
<trkpt lat="52.878672" lon="-3.384048"><ele>788</ele><time>2020-01-18T12:39:02Z</time><name>PT7749</name></trkpt>
<trkpt lat="52.878667" lon="-3.384058"><ele>788</ele><time>2020-01-18T12:39:03Z</time><name>PT7750</name></trkpt>
<trkpt lat="52.878662" lon="-3.384070"><ele>788</ele><time>2020-01-18T12:39:05Z</time><name>PT7751</name></trkpt>
<trkpt lat="52.878666" lon="-3.384092"><ele>787</ele><time>2020-01-18T12:39:05Z</time><name>PT7752</name></trkpt>
<trkpt lat="52.878651" lon="-3.384105"><ele>788</ele><time>2020-01-18T12:39:06Z</time><name>PT7753</name></trkpt>
<trkpt lat="52.878644" lon="-3.384121"><ele>788</ele><time>2020-01-18T12:39:08Z</time><name>PT7754</name></trkpt>
<trkpt lat="52.878634" lon="-3.384140"><ele>788</ele><time>2020-01-18T12:39:08Z</time><name>PT7755</name></trkpt>
<trkpt lat="52.878620" lon="-3.384150"><ele>787</ele><time>2020-01-18T12:39:09Z</time><name>PT7756</name></trkpt>
<trkpt lat="52.878608" lon="-3.384165"><ele>786</ele><time>2020-01-18T12:39:11Z</time><name>PT7757</name></trkpt>
<trkpt lat="52.878604" lon="-3.384189"><ele>786</ele><time>2020-01-18T12:39:11Z</time><name>PT7758</name></trkpt>
<trkpt lat="52.878591" lon="-3.384192"><ele>786</ele><time>2020-01-18T12:39:12Z</time><name>PT7759</name></trkpt>
<trkpt lat="52.878578" lon="-3.384201"><ele>786</ele><time>2020-01-18T12:39:14Z</time><name>PT7760</name></trkpt>
<trkpt lat="52.878572" lon="-3.384214"><ele>785</ele><time>2020-01-18T12:39:14Z</time><name>PT7761</name></trkpt>
<trkpt lat="52.878567" lon="-3.384223"><ele>785</ele><time>2020-01-18T12:39:15Z</time><name>PT7762</name></trkpt>
<trkpt lat="52.878550" lon="-3.384220"><ele>784</ele><time>2020-01-18T12:39:17Z</time><name>PT7763</name></trkpt>
<trkpt lat="52.878547" lon="-3.384237"><ele>784</ele><time>2020-01-18T12:39:17Z</time><name>PT7764</name></trkpt>
<trkpt lat="52.878538" lon="-3.384242"><ele>785</ele><time>2020-01-18T12:39:18Z</time><name>PT7765</name></trkpt>
<trkpt lat="52.878534" lon="-3.384259"><ele>785</ele><time>2020-01-18T12:39:20Z</time><name>PT7766</name></trkpt>
<trkpt lat="52.878523" lon="-3.384266"><ele>784</ele><time>2020-01-18T12:39:20Z</time><name>PT7767</name></trkpt>
<trkpt lat="52.878512" lon="-3.384279"><ele>785</ele><time>2020-01-18T12:39:21Z</time><name>PT7768</name></trkpt>
<trkpt lat="52.878506" lon="-3.384303"><ele>785</ele><time>2020-01-18T12:39:23Z</time><name>PT7769</name></trkpt>
<trkpt lat="52.878492" lon="-3.384304"><ele>785</ele><time>2020-01-18T12:39:23Z</time><name>PT7770</name></trkpt>
<trkpt lat="52.878483" lon="-3.384307"><ele>786</ele><time>2020-01-18T12:39:24Z</time><name>PT7771</name></trkpt>
<trkpt lat="52.878470" lon="-3.384309"><ele>785</ele><time>2020-01-18T12:39:26Z</time><name>PT7772</name></trkpt>
<trkpt lat="52.878462" lon="-3.384318"><ele>785</ele><time>2020-01-18T12:39:26Z</time><name>PT7773</name></trkpt>
<trkpt lat="52.878465" lon="-3.384321"><ele>784</ele><time>2020-01-18T12:39:27Z</time><name>PT7774</name></trkpt>
<trkpt lat="52.878459" lon="-3.384337"><ele>784</ele><time>2020-01-18T12:39:29Z</time><name>PT7775</name></trkpt>
<trkpt lat="52.878440" lon="-3.384340"><ele>784</ele><time>2020-01-18T12:39:29Z</time><name>PT7776</name></trkpt>
<trkpt lat="52.878429" lon="-3.384351"><ele>784</ele><time>2020-01-18T12:39:30Z</time><name>PT7777</name></trkpt>
<trkpt lat="52.878421" lon="-3.384361"><ele>784</ele><time>2020-01-18T12:39:32Z</time><name>PT7778</name></trkpt>
<trkpt lat="52.878420" lon="-3.384374"><ele>784</ele><time>2020-01-18T12:39:32Z</time><name>PT7779</name></trkpt>
<trkpt lat="52.878421" lon="-3.384384"><ele>784</ele><time>2020-01-18T12:39:33Z</time><name>PT7780</name></trkpt>
<trkpt lat="52.878411" lon="-3.384389"><ele>788</ele><time>2020-01-18T12:39:35Z</time><name>PT7781</name></trkpt>
<trkpt lat="52.878410" lon="-3.384397"><ele>789</ele><time>2020-01-18T12:39:35Z</time><name>PT7782</name></trkpt>
<trkpt lat="52.878401" lon="-3.384399"><ele>791</ele><time>2020-01-18T12:39:36Z</time><name>PT7783</name></trkpt>
<trkpt lat="52.878394" lon="-3.384398"><ele>791</ele><time>2020-01-18T12:39:38Z</time><name>PT7784</name></trkpt>
<trkpt lat="52.878390" lon="-3.384400"><ele>792</ele><time>2020-01-18T12:39:38Z</time><name>PT7785</name></trkpt>
<trkpt lat="52.878381" lon="-3.384396"><ele>793</ele><time>2020-01-18T12:39:39Z</time><name>PT7786</name></trkpt>
<trkpt lat="52.878376" lon="-3.384395"><ele>793</ele><time>2020-01-18T12:39:41Z</time><name>PT7787</name></trkpt>
<trkpt lat="52.878374" lon="-3.384394"><ele>793</ele><time>2020-01-18T12:39:41Z</time><name>PT7788</name></trkpt>
<trkpt lat="52.878370" lon="-3.384395"><ele>793</ele><time>2020-01-18T12:39:43Z</time><name>PT7789</name></trkpt>
<trkpt lat="52.878370" lon="-3.384396"><ele>793</ele><time>2020-01-18T12:39:44Z</time><name>PT7790</name></trkpt>
<trkpt lat="52.878369" lon="-3.384394"><ele>793</ele><time>2020-01-18T12:39:44Z</time><name>PT7791</name></trkpt>
<trkpt lat="52.878368" lon="-3.384393"><ele>794</ele><time>2020-01-18T12:39:45Z</time><name>PT7792</name></trkpt>
<trkpt lat="52.878367" lon="-3.384392"><ele>794</ele><time>2020-01-18T12:39:59Z</time><name>PT7793</name></trkpt>
<trkpt lat="52.878359" lon="-3.384400"><ele>794</ele><time>2020-01-18T12:40:00Z</time><name>PT7794</name></trkpt>
<trkpt lat="52.878352" lon="-3.384409"><ele>793</ele><time>2020-01-18T12:40:02Z</time><name>PT7795</name></trkpt>
<trkpt lat="52.878330" lon="-3.384415"><ele>793</ele><time>2020-01-18T12:40:02Z</time><name>PT7796</name></trkpt>
<trkpt lat="52.878310" lon="-3.384426"><ele>793</ele><time>2020-01-18T12:40:03Z</time><name>PT7797</name></trkpt>
<trkpt lat="52.878310" lon="-3.384438"><ele>793</ele><time>2020-01-18T12:40:05Z</time><name>PT7798</name></trkpt>
<trkpt lat="52.878297" lon="-3.384448"><ele>794</ele><time>2020-01-18T12:40:05Z</time><name>PT7799</name></trkpt>
<trkpt lat="52.878289" lon="-3.384461"><ele>794</ele><time>2020-01-18T12:40:06Z</time><name>PT7800</name></trkpt>
<trkpt lat="52.878280" lon="-3.384472"><ele>794</ele><time>2020-01-18T12:40:08Z</time><name>PT7801</name></trkpt>
<trkpt lat="52.878275" lon="-3.384483"><ele>794</ele><time>2020-01-18T12:40:08Z</time><name>PT7802</name></trkpt>
<trkpt lat="52.878269" lon="-3.384496"><ele>794</ele><time>2020-01-18T12:40:09Z</time><name>PT7803</name></trkpt>
<trkpt lat="52.878263" lon="-3.384510"><ele>794</ele><time>2020-01-18T12:40:11Z</time><name>PT7804</name></trkpt>
<trkpt lat="52.878261" lon="-3.384533"><ele>794</ele><time>2020-01-18T12:40:11Z</time><name>PT7805</name></trkpt>
<trkpt lat="52.878265" lon="-3.384548"><ele>794</ele><time>2020-01-18T12:40:13Z</time><name>PT7806</name></trkpt>
<trkpt lat="52.878255" lon="-3.384560"><ele>794</ele><time>2020-01-18T12:40:14Z</time><name>PT7807</name></trkpt>
<trkpt lat="52.878249" lon="-3.384577"><ele>795</ele><time>2020-01-18T12:40:14Z</time><name>PT7808</name></trkpt>
<trkpt lat="52.878242" lon="-3.384597"><ele>795</ele><time>2020-01-18T12:40:15Z</time><name>PT7809</name></trkpt>
<trkpt lat="52.878225" lon="-3.384614"><ele>795</ele><time>2020-01-18T12:40:17Z</time><name>PT7810</name></trkpt>
<trkpt lat="52.878212" lon="-3.384626"><ele>795</ele><time>2020-01-18T12:40:17Z</time><name>PT7811</name></trkpt>
<trkpt lat="52.878203" lon="-3.384633"><ele>795</ele><time>2020-01-18T12:40:18Z</time><name>PT7812</name></trkpt>
<trkpt lat="52.878195" lon="-3.384655"><ele>795</ele><time>2020-01-18T12:40:20Z</time><name>PT7813</name></trkpt>
<trkpt lat="52.878186" lon="-3.384655"><ele>795</ele><time>2020-01-18T12:40:20Z</time><name>PT7814</name></trkpt>
<trkpt lat="52.878177" lon="-3.384661"><ele>795</ele><time>2020-01-18T12:40:21Z</time><name>PT7815</name></trkpt>
<trkpt lat="52.878178" lon="-3.384675"><ele>795</ele><time>2020-01-18T12:40:23Z</time><name>PT7816</name></trkpt>
<trkpt lat="52.878189" lon="-3.384712"><ele>795</ele><time>2020-01-18T12:40:23Z</time><name>PT7817</name></trkpt>
<trkpt lat="52.878180" lon="-3.384741"><ele>795</ele><time>2020-01-18T12:40:24Z</time><name>PT7818</name></trkpt>
<trkpt lat="52.878165" lon="-3.384739"><ele>795</ele><time>2020-01-18T12:40:26Z</time><name>PT7819</name></trkpt>
<trkpt lat="52.878151" lon="-3.384745"><ele>795</ele><time>2020-01-18T12:40:26Z</time><name>PT7820</name></trkpt>
<trkpt lat="52.878142" lon="-3.384758"><ele>795</ele><time>2020-01-18T12:40:27Z</time><name>PT7821</name></trkpt>
<trkpt lat="52.878124" lon="-3.384773"><ele>795</ele><time>2020-01-18T12:40:29Z</time><name>PT7822</name></trkpt>
<trkpt lat="52.878116" lon="-3.384788"><ele>795</ele><time>2020-01-18T12:40:30Z</time><name>PT7823</name></trkpt>
<trkpt lat="52.878106" lon="-3.384796"><ele>795</ele><time>2020-01-18T12:40:31Z</time><name>PT7824</name></trkpt>
<trkpt lat="52.878103" lon="-3.384817"><ele>795</ele><time>2020-01-18T12:40:32Z</time><name>PT7825</name></trkpt>
<trkpt lat="52.878096" lon="-3.384827"><ele>795</ele><time>2020-01-18T12:40:32Z</time><name>PT7826</name></trkpt>
<trkpt lat="52.878086" lon="-3.384831"><ele>795</ele><time>2020-01-18T12:40:33Z</time><name>PT7827</name></trkpt>
<trkpt lat="52.878080" lon="-3.384848"><ele>795</ele><time>2020-01-18T12:40:35Z</time><name>PT7828</name></trkpt>
<trkpt lat="52.878073" lon="-3.384857"><ele>795</ele><time>2020-01-18T12:40:35Z</time><name>PT7829</name></trkpt>
<trkpt lat="52.878061" lon="-3.384868"><ele>795</ele><time>2020-01-18T12:40:36Z</time><name>PT7830</name></trkpt>
<trkpt lat="52.878060" lon="-3.384879"><ele>795</ele><time>2020-01-18T12:40:38Z</time><name>PT7831</name></trkpt>
<trkpt lat="52.878061" lon="-3.384892"><ele>795</ele><time>2020-01-18T12:40:38Z</time><name>PT7832</name></trkpt>
<trkpt lat="52.878054" lon="-3.384898"><ele>795</ele><time>2020-01-18T12:40:39Z</time><name>PT7833</name></trkpt>
<trkpt lat="52.878058" lon="-3.384907"><ele>795</ele><time>2020-01-18T12:40:41Z</time><name>PT7834</name></trkpt>
<trkpt lat="52.878056" lon="-3.384924"><ele>795</ele><time>2020-01-18T12:40:41Z</time><name>PT7835</name></trkpt>
<trkpt lat="52.878052" lon="-3.384931"><ele>795</ele><time>2020-01-18T12:40:42Z</time><name>PT7836</name></trkpt>
<trkpt lat="52.878042" lon="-3.384939"><ele>795</ele><time>2020-01-18T12:40:44Z</time><name>PT7837</name></trkpt>
<trkpt lat="52.878038" lon="-3.384946"><ele>795</ele><time>2020-01-18T12:40:44Z</time><name>PT7838</name></trkpt>
<trkpt lat="52.878034" lon="-3.384956"><ele>795</ele><time>2020-01-18T12:40:45Z</time><name>PT7839</name></trkpt>
<trkpt lat="52.878040" lon="-3.384947"><ele>795</ele><time>2020-01-18T12:40:47Z</time><name>PT7840</name></trkpt>
<trkpt lat="52.878034" lon="-3.384945"><ele>794</ele><time>2020-01-18T12:40:47Z</time><name>PT7841</name></trkpt>
<trkpt lat="52.878023" lon="-3.384971"><ele>794</ele><time>2020-01-18T12:40:48Z</time><name>PT7842</name></trkpt>
<trkpt lat="52.878029" lon="-3.384980"><ele>794</ele><time>2020-01-18T12:40:50Z</time><name>PT7843</name></trkpt>
<trkpt lat="52.878022" lon="-3.384980"><ele>794</ele><time>2020-01-18T12:40:50Z</time><name>PT7844</name></trkpt>
<trkpt lat="52.878022" lon="-3.384959"><ele>794</ele><time>2020-01-18T12:40:51Z</time><name>PT7845</name></trkpt>
<trkpt lat="52.878020" lon="-3.384961"><ele>795</ele><time>2020-01-18T12:40:53Z</time><name>PT7846</name></trkpt>
<trkpt lat="52.878022" lon="-3.384951"><ele>795</ele><time>2020-01-18T12:40:53Z</time><name>PT7847</name></trkpt>
<trkpt lat="52.878019" lon="-3.384955"><ele>795</ele><time>2020-01-18T12:40:56Z</time><name>PT7848</name></trkpt>
<trkpt lat="52.878019" lon="-3.384963"><ele>795</ele><time>2020-01-18T12:40:57Z</time><name>PT7849</name></trkpt>
<trkpt lat="52.878013" lon="-3.384971"><ele>794</ele><time>2020-01-18T12:41:00Z</time><name>PT7850</name></trkpt>
<trkpt lat="52.878008" lon="-3.384986"><ele>794</ele><time>2020-01-18T12:41:02Z</time><name>PT7851</name></trkpt>
<trkpt lat="52.878005" lon="-3.385007"><ele>794</ele><time>2020-01-18T12:41:02Z</time><name>PT7852</name></trkpt>
<trkpt lat="52.878001" lon="-3.385030"><ele>794</ele><time>2020-01-18T12:41:03Z</time><name>PT7853</name></trkpt>
<trkpt lat="52.877999" lon="-3.385055"><ele>794</ele><time>2020-01-18T12:41:05Z</time><name>PT7854</name></trkpt>
<trkpt lat="52.877996" lon="-3.385070"><ele>794</ele><time>2020-01-18T12:41:05Z</time><name>PT7855</name></trkpt>
<trkpt lat="52.877996" lon="-3.385086"><ele>794</ele><time>2020-01-18T12:41:06Z</time><name>PT7856</name></trkpt>
<trkpt lat="52.877993" lon="-3.385104"><ele>795</ele><time>2020-01-18T12:41:08Z</time><name>PT7857</name></trkpt>
<trkpt lat="52.877998" lon="-3.385116"><ele>795</ele><time>2020-01-18T12:41:08Z</time><name>PT7858</name></trkpt>
<trkpt lat="52.877994" lon="-3.385136"><ele>795</ele><time>2020-01-18T12:41:10Z</time><name>PT7859</name></trkpt>
<trkpt lat="52.877975" lon="-3.385153"><ele>796</ele><time>2020-01-18T12:41:11Z</time><name>PT7860</name></trkpt>
<trkpt lat="52.877960" lon="-3.385173"><ele>797</ele><time>2020-01-18T12:41:12Z</time><name>PT7861</name></trkpt>
<trkpt lat="52.877952" lon="-3.385199"><ele>798</ele><time>2020-01-18T12:41:13Z</time><name>PT7862</name></trkpt>
<trkpt lat="52.877946" lon="-3.385215"><ele>798</ele><time>2020-01-18T12:41:14Z</time><name>PT7863</name></trkpt>
<trkpt lat="52.877941" lon="-3.385231"><ele>798</ele><time>2020-01-18T12:41:14Z</time><name>PT7864</name></trkpt>
<trkpt lat="52.877938" lon="-3.385247"><ele>799</ele><time>2020-01-18T12:41:15Z</time><name>PT7865</name></trkpt>
<trkpt lat="52.877936" lon="-3.385263"><ele>799</ele><time>2020-01-18T12:41:17Z</time><name>PT7866</name></trkpt>
<trkpt lat="52.877930" lon="-3.385274"><ele>799</ele><time>2020-01-18T12:41:17Z</time><name>PT7867</name></trkpt>
<trkpt lat="52.877927" lon="-3.385279"><ele>799</ele><time>2020-01-18T12:41:18Z</time><name>PT7868</name></trkpt>
<trkpt lat="52.877921" lon="-3.385290"><ele>799</ele><time>2020-01-18T12:41:20Z</time><name>PT7869</name></trkpt>
<trkpt lat="52.877916" lon="-3.385305"><ele>800</ele><time>2020-01-18T12:41:20Z</time><name>PT7870</name></trkpt>
<trkpt lat="52.877912" lon="-3.385320"><ele>800</ele><time>2020-01-18T12:41:21Z</time><name>PT7871</name></trkpt>
<trkpt lat="52.877903" lon="-3.385337"><ele>800</ele><time>2020-01-18T12:41:23Z</time><name>PT7872</name></trkpt>
<trkpt lat="52.877897" lon="-3.385350"><ele>800</ele><time>2020-01-18T12:41:23Z</time><name>PT7873</name></trkpt>
<trkpt lat="52.877890" lon="-3.385361"><ele>800</ele><time>2020-01-18T12:41:24Z</time><name>PT7874</name></trkpt>
<trkpt lat="52.877883" lon="-3.385372"><ele>800</ele><time>2020-01-18T12:41:26Z</time><name>PT7875</name></trkpt>
<trkpt lat="52.877879" lon="-3.385386"><ele>800</ele><time>2020-01-18T12:41:26Z</time><name>PT7876</name></trkpt>
<trkpt lat="52.877877" lon="-3.385400"><ele>800</ele><time>2020-01-18T12:41:27Z</time><name>PT7877</name></trkpt>
<trkpt lat="52.877875" lon="-3.385416"><ele>800</ele><time>2020-01-18T12:41:29Z</time><name>PT7878</name></trkpt>
<trkpt lat="52.877871" lon="-3.385425"><ele>801</ele><time>2020-01-18T12:41:29Z</time><name>PT7879</name></trkpt>
<trkpt lat="52.877863" lon="-3.385432"><ele>801</ele><time>2020-01-18T12:41:30Z</time><name>PT7880</name></trkpt>
<trkpt lat="52.877857" lon="-3.385447"><ele>801</ele><time>2020-01-18T12:41:32Z</time><name>PT7881</name></trkpt>
<trkpt lat="52.877853" lon="-3.385453"><ele>801</ele><time>2020-01-18T12:41:32Z</time><name>PT7882</name></trkpt>
<trkpt lat="52.877854" lon="-3.385460"><ele>801</ele><time>2020-01-18T12:41:33Z</time><name>PT7883</name></trkpt>
<trkpt lat="52.877836" lon="-3.385480"><ele>801</ele><time>2020-01-18T12:41:35Z</time><name>PT7884</name></trkpt>
<trkpt lat="52.877827" lon="-3.385495"><ele>801</ele><time>2020-01-18T12:41:35Z</time><name>PT7885</name></trkpt>
<trkpt lat="52.877807" lon="-3.385486"><ele>801</ele><time>2020-01-18T12:41:36Z</time><name>PT7886</name></trkpt>
<trkpt lat="52.877799" lon="-3.385488"><ele>801</ele><time>2020-01-18T12:41:38Z</time><name>PT7887</name></trkpt>
<trkpt lat="52.877800" lon="-3.385505"><ele>801</ele><time>2020-01-18T12:41:38Z</time><name>PT7888</name></trkpt>
<trkpt lat="52.877791" lon="-3.385509"><ele>801</ele><time>2020-01-18T12:41:40Z</time><name>PT7889</name></trkpt>
<trkpt lat="52.877774" lon="-3.385502"><ele>801</ele><time>2020-01-18T12:41:41Z</time><name>PT7890</name></trkpt>
<trkpt lat="52.877773" lon="-3.385516"><ele>801</ele><time>2020-01-18T12:41:41Z</time><name>PT7891</name></trkpt>
<trkpt lat="52.877767" lon="-3.385544"><ele>801</ele><time>2020-01-18T12:41:42Z</time><name>PT7892</name></trkpt>
<trkpt lat="52.877758" lon="-3.385552"><ele>801</ele><time>2020-01-18T12:41:44Z</time><name>PT7893</name></trkpt>
<trkpt lat="52.877751" lon="-3.385565"><ele>801</ele><time>2020-01-18T12:41:44Z</time><name>PT7894</name></trkpt>
<trkpt lat="52.877739" lon="-3.385579"><ele>801</ele><time>2020-01-18T12:41:45Z</time><name>PT7895</name></trkpt>
<trkpt lat="52.877742" lon="-3.385578"><ele>801</ele><time>2020-01-18T12:41:47Z</time><name>PT7896</name></trkpt>
<trkpt lat="52.877737" lon="-3.385594"><ele>802</ele><time>2020-01-18T12:41:47Z</time><name>PT7897</name></trkpt>
<trkpt lat="52.877730" lon="-3.385623"><ele>802</ele><time>2020-01-18T12:41:48Z</time><name>PT7898</name></trkpt>
<trkpt lat="52.877724" lon="-3.385596"><ele>802</ele><time>2020-01-18T12:41:50Z</time><name>PT7899</name></trkpt>
<trkpt lat="52.877714" lon="-3.385617"><ele>802</ele><time>2020-01-18T12:41:50Z</time><name>PT7900</name></trkpt>
<trkpt lat="52.877708" lon="-3.385632"><ele>802</ele><time>2020-01-18T12:41:51Z</time><name>PT7901</name></trkpt>
<trkpt lat="52.877697" lon="-3.385652"><ele>802</ele><time>2020-01-18T12:41:53Z</time><name>PT7902</name></trkpt>
<trkpt lat="52.877690" lon="-3.385666"><ele>802</ele><time>2020-01-18T12:41:53Z</time><name>PT7903</name></trkpt>
<trkpt lat="52.877681" lon="-3.385677"><ele>802</ele><time>2020-01-18T12:41:54Z</time><name>PT7904</name></trkpt>
<trkpt lat="52.877677" lon="-3.385661"><ele>802</ele><time>2020-01-18T12:41:56Z</time><name>PT7905</name></trkpt>
<trkpt lat="52.877669" lon="-3.385669"><ele>802</ele><time>2020-01-18T12:41:56Z</time><name>PT7906</name></trkpt>
<trkpt lat="52.877658" lon="-3.385681"><ele>802</ele><time>2020-01-18T12:41:57Z</time><name>PT7907</name></trkpt>
<trkpt lat="52.877652" lon="-3.385651"><ele>802</ele><time>2020-01-18T12:41:59Z</time><name>PT7908</name></trkpt>
<trkpt lat="52.877642" lon="-3.385652"><ele>802</ele><time>2020-01-18T12:41:59Z</time><name>PT7909</name></trkpt>
<trkpt lat="52.877651" lon="-3.385662"><ele>802</ele><time>2020-01-18T12:42:00Z</time><name>PT7910</name></trkpt>
<trkpt lat="52.877628" lon="-3.385671"><ele>802</ele><time>2020-01-18T12:42:02Z</time><name>PT7911</name></trkpt>
<trkpt lat="52.877623" lon="-3.385681"><ele>802</ele><time>2020-01-18T12:42:02Z</time><name>PT7912</name></trkpt>
<trkpt lat="52.877627" lon="-3.385695"><ele>802</ele><time>2020-01-18T12:42:03Z</time><name>PT7913</name></trkpt>
<trkpt lat="52.877605" lon="-3.385706"><ele>802</ele><time>2020-01-18T12:42:05Z</time><name>PT7914</name></trkpt>
<trkpt lat="52.877603" lon="-3.385716"><ele>802</ele><time>2020-01-18T12:42:05Z</time><name>PT7915</name></trkpt>
<trkpt lat="52.877600" lon="-3.385727"><ele>802</ele><time>2020-01-18T12:42:06Z</time><name>PT7916</name></trkpt>
<trkpt lat="52.877606" lon="-3.385753"><ele>802</ele><time>2020-01-18T12:42:08Z</time><name>PT7917</name></trkpt>
<trkpt lat="52.877596" lon="-3.385761"><ele>802</ele><time>2020-01-18T12:42:08Z</time><name>PT7918</name></trkpt>
<trkpt lat="52.877590" lon="-3.385772"><ele>802</ele><time>2020-01-18T12:42:09Z</time><name>PT7919</name></trkpt>
<trkpt lat="52.877585" lon="-3.385788"><ele>803</ele><time>2020-01-18T12:42:11Z</time><name>PT7920</name></trkpt>
<trkpt lat="52.877561" lon="-3.385784"><ele>803</ele><time>2020-01-18T12:42:11Z</time><name>PT7921</name></trkpt>
<trkpt lat="52.877549" lon="-3.385796"><ele>803</ele><time>2020-01-18T12:42:12Z</time><name>PT7922</name></trkpt>
<trkpt lat="52.877554" lon="-3.385789"><ele>803</ele><time>2020-01-18T12:42:14Z</time><name>PT7923</name></trkpt>
<trkpt lat="52.877545" lon="-3.385796"><ele>803</ele><time>2020-01-18T12:42:15Z</time><name>PT7924</name></trkpt>
<trkpt lat="52.877539" lon="-3.385809"><ele>803</ele><time>2020-01-18T12:42:16Z</time><name>PT7925</name></trkpt>
<trkpt lat="52.877524" lon="-3.385793"><ele>803</ele><time>2020-01-18T12:42:17Z</time><name>PT7926</name></trkpt>
<trkpt lat="52.877527" lon="-3.385812"><ele>803</ele><time>2020-01-18T12:42:17Z</time><name>PT7927</name></trkpt>
<trkpt lat="52.877525" lon="-3.385824"><ele>803</ele><time>2020-01-18T12:42:18Z</time><name>PT7928</name></trkpt>
<trkpt lat="52.877534" lon="-3.385806"><ele>803</ele><time>2020-01-18T12:42:20Z</time><name>PT7929</name></trkpt>
<trkpt lat="52.877529" lon="-3.385810"><ele>803</ele><time>2020-01-18T12:42:20Z</time><name>PT7930</name></trkpt>
<trkpt lat="52.877524" lon="-3.385816"><ele>803</ele><time>2020-01-18T12:42:21Z</time><name>PT7931</name></trkpt>
<trkpt lat="52.877528" lon="-3.385834"><ele>803</ele><time>2020-01-18T12:42:23Z</time><name>PT7932</name></trkpt>
<trkpt lat="52.877523" lon="-3.385853"><ele>803</ele><time>2020-01-18T12:42:23Z</time><name>PT7933</name></trkpt>
<trkpt lat="52.877529" lon="-3.385844"><ele>803</ele><time>2020-01-18T12:42:24Z</time><name>PT7934</name></trkpt>
<trkpt lat="52.877533" lon="-3.385861"><ele>803</ele><time>2020-01-18T12:42:26Z</time><name>PT7935</name></trkpt>
<trkpt lat="52.877522" lon="-3.385885"><ele>805</ele><time>2020-01-18T12:42:26Z</time><name>PT7936</name></trkpt>
<trkpt lat="52.877510" lon="-3.385896"><ele>805</ele><time>2020-01-18T12:42:27Z</time><name>PT7937</name></trkpt>
<trkpt lat="52.877501" lon="-3.385908"><ele>805</ele><time>2020-01-18T12:42:29Z</time><name>PT7938</name></trkpt>
<trkpt lat="52.877491" lon="-3.385915"><ele>805</ele><time>2020-01-18T12:42:29Z</time><name>PT7939</name></trkpt>
<trkpt lat="52.877478" lon="-3.385919"><ele>806</ele><time>2020-01-18T12:42:30Z</time><name>PT7940</name></trkpt>
<trkpt lat="52.877464" lon="-3.385912"><ele>806</ele><time>2020-01-18T12:42:32Z</time><name>PT7941</name></trkpt>
<trkpt lat="52.877461" lon="-3.385916"><ele>806</ele><time>2020-01-18T12:42:32Z</time><name>PT7942</name></trkpt>
<trkpt lat="52.877448" lon="-3.385913"><ele>806</ele><time>2020-01-18T12:42:33Z</time><name>PT7943</name></trkpt>
<trkpt lat="52.877443" lon="-3.385917"><ele>806</ele><time>2020-01-18T12:42:35Z</time><name>PT7944</name></trkpt>
<trkpt lat="52.877440" lon="-3.385922"><ele>807</ele><time>2020-01-18T12:42:35Z</time><name>PT7945</name></trkpt>
<trkpt lat="52.877436" lon="-3.385937"><ele>807</ele><time>2020-01-18T12:42:36Z</time><name>PT7946</name></trkpt>
<trkpt lat="52.877432" lon="-3.385952"><ele>807</ele><time>2020-01-18T12:42:38Z</time><name>PT7947</name></trkpt>
<trkpt lat="52.877427" lon="-3.385963"><ele>807</ele><time>2020-01-18T12:42:38Z</time><name>PT7948</name></trkpt>
<trkpt lat="52.877421" lon="-3.385974"><ele>807</ele><time>2020-01-18T12:42:40Z</time><name>PT7949</name></trkpt>
<trkpt lat="52.877418" lon="-3.385989"><ele>807</ele><time>2020-01-18T12:42:41Z</time><name>PT7950</name></trkpt>
<trkpt lat="52.877412" lon="-3.386005"><ele>807</ele><time>2020-01-18T12:42:41Z</time><name>PT7951</name></trkpt>
<trkpt lat="52.877414" lon="-3.386022"><ele>807</ele><time>2020-01-18T12:42:43Z</time><name>PT7952</name></trkpt>
<trkpt lat="52.877410" lon="-3.386037"><ele>807</ele><time>2020-01-18T12:42:44Z</time><name>PT7953</name></trkpt>
<trkpt lat="52.877402" lon="-3.386039"><ele>808</ele><time>2020-01-18T12:42:44Z</time><name>PT7954</name></trkpt>
<trkpt lat="52.877395" lon="-3.386052"><ele>808</ele><time>2020-01-18T12:42:45Z</time><name>PT7955</name></trkpt>
<trkpt lat="52.877395" lon="-3.386072"><ele>808</ele><time>2020-01-18T12:42:47Z</time><name>PT7956</name></trkpt>
<trkpt lat="52.877392" lon="-3.386088"><ele>808</ele><time>2020-01-18T12:42:47Z</time><name>PT7957</name></trkpt>
<trkpt lat="52.877382" lon="-3.386091"><ele>808</ele><time>2020-01-18T12:42:48Z</time><name>PT7958</name></trkpt>
<trkpt lat="52.877383" lon="-3.386109"><ele>808</ele><time>2020-01-18T12:42:50Z</time><name>PT7959</name></trkpt>
<trkpt lat="52.877377" lon="-3.386111"><ele>808</ele><time>2020-01-18T12:42:50Z</time><name>PT7960</name></trkpt>
<trkpt lat="52.877368" lon="-3.386115"><ele>809</ele><time>2020-01-18T12:42:51Z</time><name>PT7961</name></trkpt>
<trkpt lat="52.877357" lon="-3.386122"><ele>809</ele><time>2020-01-18T12:42:53Z</time><name>PT7962</name></trkpt>
<trkpt lat="52.877343" lon="-3.386141"><ele>809</ele><time>2020-01-18T12:42:53Z</time><name>PT7963</name></trkpt>
<trkpt lat="52.877337" lon="-3.386153"><ele>809</ele><time>2020-01-18T12:42:54Z</time><name>PT7964</name></trkpt>
<trkpt lat="52.877332" lon="-3.386168"><ele>810</ele><time>2020-01-18T12:42:56Z</time><name>PT7965</name></trkpt>
<trkpt lat="52.877328" lon="-3.386177"><ele>810</ele><time>2020-01-18T12:42:56Z</time><name>PT7966</name></trkpt>
<trkpt lat="52.877322" lon="-3.386189"><ele>810</ele><time>2020-01-18T12:42:58Z</time><name>PT7967</name></trkpt>
<trkpt lat="52.877320" lon="-3.386200"><ele>810</ele><time>2020-01-18T12:42:59Z</time><name>PT7968</name></trkpt>
<trkpt lat="52.877315" lon="-3.386200"><ele>811</ele><time>2020-01-18T12:42:59Z</time><name>PT7969</name></trkpt>
<trkpt lat="52.877312" lon="-3.386218"><ele>811</ele><time>2020-01-18T12:43:00Z</time><name>PT7970</name></trkpt>
<trkpt lat="52.877301" lon="-3.386230"><ele>811</ele><time>2020-01-18T12:43:02Z</time><name>PT7971</name></trkpt>
<trkpt lat="52.877291" lon="-3.386253"><ele>811</ele><time>2020-01-18T12:43:02Z</time><name>PT7972</name></trkpt>
<trkpt lat="52.877286" lon="-3.386269"><ele>811</ele><time>2020-01-18T12:43:03Z</time><name>PT7973</name></trkpt>
<trkpt lat="52.877272" lon="-3.386290"><ele>812</ele><time>2020-01-18T12:43:05Z</time><name>PT7974</name></trkpt>
<trkpt lat="52.877269" lon="-3.386299"><ele>812</ele><time>2020-01-18T12:43:05Z</time><name>PT7975</name></trkpt>
<trkpt lat="52.877269" lon="-3.386324"><ele>812</ele><time>2020-01-18T12:43:06Z</time><name>PT7976</name></trkpt>
<trkpt lat="52.877268" lon="-3.386336"><ele>812</ele><time>2020-01-18T12:43:08Z</time><name>PT7977</name></trkpt>
<trkpt lat="52.877263" lon="-3.386346"><ele>812</ele><time>2020-01-18T12:43:08Z</time><name>PT7978</name></trkpt>
<trkpt lat="52.877260" lon="-3.386356"><ele>813</ele><time>2020-01-18T12:43:09Z</time><name>PT7979</name></trkpt>
<trkpt lat="52.877257" lon="-3.386374"><ele>813</ele><time>2020-01-18T12:43:11Z</time><name>PT7980</name></trkpt>
<trkpt lat="52.877251" lon="-3.386388"><ele>813</ele><time>2020-01-18T12:43:11Z</time><name>PT7981</name></trkpt>
<trkpt lat="52.877242" lon="-3.386393"><ele>814</ele><time>2020-01-18T12:43:12Z</time><name>PT7982</name></trkpt>
<trkpt lat="52.877238" lon="-3.386400"><ele>814</ele><time>2020-01-18T12:43:14Z</time><name>PT7983</name></trkpt>
<trkpt lat="52.877239" lon="-3.386418"><ele>814</ele><time>2020-01-18T12:43:14Z</time><name>PT7984</name></trkpt>
<trkpt lat="52.877232" lon="-3.386435"><ele>814</ele><time>2020-01-18T12:43:15Z</time><name>PT7985</name></trkpt>
<trkpt lat="52.877229" lon="-3.386444"><ele>814</ele><time>2020-01-18T12:43:17Z</time><name>PT7986</name></trkpt>
<trkpt lat="52.877231" lon="-3.386463"><ele>814</ele><time>2020-01-18T12:43:17Z</time><name>PT7987</name></trkpt>
<trkpt lat="52.877231" lon="-3.386475"><ele>814</ele><time>2020-01-18T12:43:18Z</time><name>PT7988</name></trkpt>
<trkpt lat="52.877232" lon="-3.386503"><ele>814</ele><time>2020-01-18T12:43:20Z</time><name>PT7989</name></trkpt>
<trkpt lat="52.877229" lon="-3.386524"><ele>814</ele><time>2020-01-18T12:43:20Z</time><name>PT7990</name></trkpt>
<trkpt lat="52.877229" lon="-3.386550"><ele>814</ele><time>2020-01-18T12:43:21Z</time><name>PT7991</name></trkpt>
<trkpt lat="52.877229" lon="-3.386569"><ele>814</ele><time>2020-01-18T12:43:23Z</time><name>PT7992</name></trkpt>
<trkpt lat="52.877221" lon="-3.386573"><ele>814</ele><time>2020-01-18T12:43:23Z</time><name>PT7993</name></trkpt>
<trkpt lat="52.877208" lon="-3.386581"><ele>815</ele><time>2020-01-18T12:43:24Z</time><name>PT7994</name></trkpt>
<trkpt lat="52.877204" lon="-3.386583"><ele>815</ele><time>2020-01-18T12:43:26Z</time><name>PT7995</name></trkpt>
<trkpt lat="52.877203" lon="-3.386590"><ele>815</ele><time>2020-01-18T12:43:26Z</time><name>PT7996</name></trkpt>
<trkpt lat="52.877187" lon="-3.386600"><ele>815</ele><time>2020-01-18T12:43:27Z</time><name>PT7997</name></trkpt>
<trkpt lat="52.877176" lon="-3.386595"><ele>815</ele><time>2020-01-18T12:43:29Z</time><name>PT7998</name></trkpt>
<trkpt lat="52.877163" lon="-3.386604"><ele>815</ele><time>2020-01-18T12:43:29Z</time><name>PT7999</name></trkpt>
<trkpt lat="52.877155" lon="-3.386609"><ele>815</ele><time>2020-01-18T12:43:30Z</time><name>PT8000</name></trkpt>
<trkpt lat="52.877151" lon="-3.386624"><ele>815</ele><time>2020-01-18T12:43:32Z</time><name>PT8001</name></trkpt>
<trkpt lat="52.877136" lon="-3.386621"><ele>815</ele><time>2020-01-18T12:43:32Z</time><name>PT8002</name></trkpt>
<trkpt lat="52.877126" lon="-3.386625"><ele>815</ele><time>2020-01-18T12:43:33Z</time><name>PT8003</name></trkpt>
<trkpt lat="52.877120" lon="-3.386639"><ele>815</ele><time>2020-01-18T12:43:35Z</time><name>PT8004</name></trkpt>
<trkpt lat="52.877112" lon="-3.386652"><ele>815</ele><time>2020-01-18T12:43:35Z</time><name>PT8005</name></trkpt>
<trkpt lat="52.877096" lon="-3.386650"><ele>816</ele><time>2020-01-18T12:43:36Z</time><name>PT8006</name></trkpt>
<trkpt lat="52.877095" lon="-3.386661"><ele>816</ele><time>2020-01-18T12:43:38Z</time><name>PT8007</name></trkpt>
<trkpt lat="52.877083" lon="-3.386661"><ele>816</ele><time>2020-01-18T12:43:38Z</time><name>PT8008</name></trkpt>
<trkpt lat="52.877070" lon="-3.386658"><ele>817</ele><time>2020-01-18T12:43:39Z</time><name>PT8009</name></trkpt>
<trkpt lat="52.877060" lon="-3.386667"><ele>817</ele><time>2020-01-18T12:43:41Z</time><name>PT8010</name></trkpt>
<trkpt lat="52.877056" lon="-3.386682"><ele>817</ele><time>2020-01-18T12:43:41Z</time><name>PT8011</name></trkpt>
<trkpt lat="52.877056" lon="-3.386689"><ele>817</ele><time>2020-01-18T12:43:42Z</time><name>PT8012</name></trkpt>
<trkpt lat="52.877043" lon="-3.386689"><ele>817</ele><time>2020-01-18T12:43:44Z</time><name>PT8013</name></trkpt>
<trkpt lat="52.877029" lon="-3.386702"><ele>817</ele><time>2020-01-18T12:43:44Z</time><name>PT8014</name></trkpt>
<trkpt lat="52.877017" lon="-3.386705"><ele>818</ele><time>2020-01-18T12:43:45Z</time><name>PT8015</name></trkpt>
<trkpt lat="52.877018" lon="-3.386719"><ele>818</ele><time>2020-01-18T12:43:47Z</time><name>PT8016</name></trkpt>
<trkpt lat="52.877014" lon="-3.386734"><ele>819</ele><time>2020-01-18T12:43:47Z</time><name>PT8017</name></trkpt>
<trkpt lat="52.876999" lon="-3.386734"><ele>819</ele><time>2020-01-18T12:43:49Z</time><name>PT8018</name></trkpt>
<trkpt lat="52.876996" lon="-3.386741"><ele>819</ele><time>2020-01-18T12:43:50Z</time><name>PT8019</name></trkpt>
<trkpt lat="52.876991" lon="-3.386745"><ele>819</ele><time>2020-01-18T12:43:50Z</time><name>PT8020</name></trkpt>
<trkpt lat="52.876984" lon="-3.386754"><ele>819</ele><time>2020-01-18T12:43:51Z</time><name>PT8021</name></trkpt>
<trkpt lat="52.876965" lon="-3.386746"><ele>819</ele><time>2020-01-18T12:43:53Z</time><name>PT8022</name></trkpt>
<trkpt lat="52.876952" lon="-3.386750"><ele>820</ele><time>2020-01-18T12:43:53Z</time><name>PT8023</name></trkpt>
<trkpt lat="52.876949" lon="-3.386765"><ele>820</ele><time>2020-01-18T12:43:54Z</time><name>PT8024</name></trkpt>
<trkpt lat="52.876946" lon="-3.386772"><ele>820</ele><time>2020-01-18T12:43:56Z</time><name>PT8025</name></trkpt>
<trkpt lat="52.876936" lon="-3.386784"><ele>820</ele><time>2020-01-18T12:43:56Z</time><name>PT8026</name></trkpt>
<trkpt lat="52.876929" lon="-3.386794"><ele>820</ele><time>2020-01-18T12:43:57Z</time><name>PT8027</name></trkpt>
<trkpt lat="52.876917" lon="-3.386799"><ele>821</ele><time>2020-01-18T12:43:59Z</time><name>PT8028</name></trkpt>
<trkpt lat="52.876909" lon="-3.386804"><ele>821</ele><time>2020-01-18T12:43:59Z</time><name>PT8029</name></trkpt>
<trkpt lat="52.876899" lon="-3.386814"><ele>821</ele><time>2020-01-18T12:44:00Z</time><name>PT8030</name></trkpt>
<trkpt lat="52.876891" lon="-3.386825"><ele>821</ele><time>2020-01-18T12:44:02Z</time><name>PT8031</name></trkpt>
<trkpt lat="52.876885" lon="-3.386837"><ele>822</ele><time>2020-01-18T12:44:02Z</time><name>PT8032</name></trkpt>
<trkpt lat="52.876879" lon="-3.386841"><ele>822</ele><time>2020-01-18T12:44:03Z</time><name>PT8033</name></trkpt>
<trkpt lat="52.876878" lon="-3.386860"><ele>822</ele><time>2020-01-18T12:44:05Z</time><name>PT8034</name></trkpt>
<trkpt lat="52.876874" lon="-3.386866"><ele>823</ele><time>2020-01-18T12:44:05Z</time><name>PT8035</name></trkpt>
<trkpt lat="52.876874" lon="-3.386878"><ele>823</ele><time>2020-01-18T12:44:07Z</time><name>PT8036</name></trkpt>
<trkpt lat="52.876869" lon="-3.386893"><ele>824</ele><time>2020-01-18T12:44:08Z</time><name>PT8037</name></trkpt>
<trkpt lat="52.876864" lon="-3.386907"><ele>825</ele><time>2020-01-18T12:44:08Z</time><name>PT8038</name></trkpt>
<trkpt lat="52.876864" lon="-3.386933"><ele>826</ele><time>2020-01-18T12:44:09Z</time><name>PT8039</name></trkpt>
<trkpt lat="52.876856" lon="-3.386941"><ele>826</ele><time>2020-01-18T12:44:11Z</time><name>PT8040</name></trkpt>
<trkpt lat="52.876842" lon="-3.386951"><ele>827</ele><time>2020-01-18T12:44:11Z</time><name>PT8041</name></trkpt>
<trkpt lat="52.876835" lon="-3.386962"><ele>827</ele><time>2020-01-18T12:44:12Z</time><name>PT8042</name></trkpt>
<trkpt lat="52.876826" lon="-3.386967"><ele>827</ele><time>2020-01-18T12:44:14Z</time><name>PT8043</name></trkpt>
<trkpt lat="52.876809" lon="-3.386989"><ele>828</ele><time>2020-01-18T12:44:15Z</time><name>PT8044</name></trkpt>
<trkpt lat="52.876803" lon="-3.387006"><ele>828</ele><time>2020-01-18T12:44:15Z</time><name>PT8045</name></trkpt>
<trkpt lat="52.876794" lon="-3.387002"><ele>828</ele><time>2020-01-18T12:44:17Z</time><name>PT8046</name></trkpt>
<trkpt lat="52.876790" lon="-3.387011"><ele>828</ele><time>2020-01-18T12:44:17Z</time><name>PT8047</name></trkpt>
<trkpt lat="52.876777" lon="-3.387012"><ele>829</ele><time>2020-01-18T12:44:18Z</time><name>PT8048</name></trkpt>
<trkpt lat="52.876770" lon="-3.387030"><ele>828</ele><time>2020-01-18T12:44:20Z</time><name>PT8049</name></trkpt>
<trkpt lat="52.876755" lon="-3.387025"><ele>828</ele><time>2020-01-18T12:44:20Z</time><name>PT8050</name></trkpt>
<trkpt lat="52.876747" lon="-3.387033"><ele>828</ele><time>2020-01-18T12:44:21Z</time><name>PT8051</name></trkpt>
<trkpt lat="52.876742" lon="-3.387050"><ele>828</ele><time>2020-01-18T12:44:23Z</time><name>PT8052</name></trkpt>
<trkpt lat="52.876730" lon="-3.387060"><ele>828</ele><time>2020-01-18T12:44:23Z</time><name>PT8053</name></trkpt>
<trkpt lat="52.876716" lon="-3.387077"><ele>829</ele><time>2020-01-18T12:44:24Z</time><name>PT8054</name></trkpt>
<trkpt lat="52.876714" lon="-3.387093"><ele>829</ele><time>2020-01-18T12:44:26Z</time><name>PT8055</name></trkpt>
<trkpt lat="52.876699" lon="-3.387107"><ele>829</ele><time>2020-01-18T12:44:26Z</time><name>PT8056</name></trkpt>
<trkpt lat="52.876697" lon="-3.387118"><ele>829</ele><time>2020-01-18T12:44:27Z</time><name>PT8057</name></trkpt>
<trkpt lat="52.876697" lon="-3.387127"><ele>829</ele><time>2020-01-18T12:44:29Z</time><name>PT8058</name></trkpt>
<trkpt lat="52.876685" lon="-3.387139"><ele>829</ele><time>2020-01-18T12:44:29Z</time><name>PT8059</name></trkpt>
<trkpt lat="52.876673" lon="-3.387151"><ele>829</ele><time>2020-01-18T12:44:30Z</time><name>PT8060</name></trkpt>
<trkpt lat="52.876656" lon="-3.387157"><ele>829</ele><time>2020-01-18T12:44:32Z</time><name>PT8061</name></trkpt>
<trkpt lat="52.876639" lon="-3.387178"><ele>830</ele><time>2020-01-18T12:44:32Z</time><name>PT8062</name></trkpt>
<trkpt lat="52.876639" lon="-3.387190"><ele>830</ele><time>2020-01-18T12:44:33Z</time><name>PT8063</name></trkpt>
<trkpt lat="52.876630" lon="-3.387208"><ele>830</ele><time>2020-01-18T12:44:35Z</time><name>PT8064</name></trkpt>
<trkpt lat="52.876620" lon="-3.387215"><ele>830</ele><time>2020-01-18T12:44:35Z</time><name>PT8065</name></trkpt>
<trkpt lat="52.876599" lon="-3.387212"><ele>830</ele><time>2020-01-18T12:44:36Z</time><name>PT8066</name></trkpt>
<trkpt lat="52.876591" lon="-3.387226"><ele>831</ele><time>2020-01-18T12:44:38Z</time><name>PT8067</name></trkpt>
<trkpt lat="52.876587" lon="-3.387237"><ele>831</ele><time>2020-01-18T12:44:38Z</time><name>PT8068</name></trkpt>
<trkpt lat="52.876579" lon="-3.387251"><ele>831</ele><time>2020-01-18T12:44:39Z</time><name>PT8069</name></trkpt>
<trkpt lat="52.876573" lon="-3.387254"><ele>831</ele><time>2020-01-18T12:44:41Z</time><name>PT8070</name></trkpt>
<trkpt lat="52.876576" lon="-3.387275"><ele>832</ele><time>2020-01-18T12:44:41Z</time><name>PT8071</name></trkpt>
<trkpt lat="52.876571" lon="-3.387270"><ele>832</ele><time>2020-01-18T12:44:42Z</time><name>PT8072</name></trkpt>
<trkpt lat="52.876577" lon="-3.387295"><ele>831</ele><time>2020-01-18T12:44:44Z</time><name>PT8073</name></trkpt>
<trkpt lat="52.876579" lon="-3.387314"><ele>832</ele><time>2020-01-18T12:44:44Z</time><name>PT8074</name></trkpt>
<trkpt lat="52.876577" lon="-3.387328"><ele>832</ele><time>2020-01-18T12:44:45Z</time><name>PT8075</name></trkpt>
<trkpt lat="52.876570" lon="-3.387352"><ele>832</ele><time>2020-01-18T12:44:47Z</time><name>PT8076</name></trkpt>
<trkpt lat="52.876570" lon="-3.387356"><ele>832</ele><time>2020-01-18T12:44:47Z</time><name>PT8077</name></trkpt>
<trkpt lat="52.876567" lon="-3.387363"><ele>832</ele><time>2020-01-18T12:44:48Z</time><name>PT8078</name></trkpt>
<trkpt lat="52.876567" lon="-3.387376"><ele>832</ele><time>2020-01-18T12:44:50Z</time><name>PT8079</name></trkpt>
<trkpt lat="52.876564" lon="-3.387393"><ele>832</ele><time>2020-01-18T12:44:50Z</time><name>PT8080</name></trkpt>
<trkpt lat="52.876554" lon="-3.387415"><ele>832</ele><time>2020-01-18T12:44:51Z</time><name>PT8081</name></trkpt>
<trkpt lat="52.876543" lon="-3.387417"><ele>832</ele><time>2020-01-18T12:44:53Z</time><name>PT8082</name></trkpt>
<trkpt lat="52.876541" lon="-3.387426"><ele>832</ele><time>2020-01-18T12:44:53Z</time><name>PT8083</name></trkpt>
<trkpt lat="52.876531" lon="-3.387437"><ele>832</ele><time>2020-01-18T12:44:54Z</time><name>PT8084</name></trkpt>
<trkpt lat="52.876517" lon="-3.387454"><ele>832</ele><time>2020-01-18T12:44:56Z</time><name>PT8085</name></trkpt>
<trkpt lat="52.876509" lon="-3.387451"><ele>831</ele><time>2020-01-18T12:44:56Z</time><name>PT8086</name></trkpt>
<trkpt lat="52.876509" lon="-3.387471"><ele>830</ele><time>2020-01-18T12:44:57Z</time><name>PT8087</name></trkpt>
<trkpt lat="52.876510" lon="-3.387481"><ele>830</ele><time>2020-01-18T12:44:59Z</time><name>PT8088</name></trkpt>
<trkpt lat="52.876515" lon="-3.387491"><ele>830</ele><time>2020-01-18T12:44:59Z</time><name>PT8089</name></trkpt>
<trkpt lat="52.876506" lon="-3.387497"><ele>829</ele><time>2020-01-18T12:45:00Z</time><name>PT8090</name></trkpt>
<trkpt lat="52.876508" lon="-3.387519"><ele>829</ele><time>2020-01-18T12:45:02Z</time><name>PT8091</name></trkpt>
<trkpt lat="52.876502" lon="-3.387523"><ele>828</ele><time>2020-01-18T12:45:02Z</time><name>PT8092</name></trkpt>
<trkpt lat="52.876496" lon="-3.387531"><ele>829</ele><time>2020-01-18T12:45:04Z</time><name>PT8093</name></trkpt>
<trkpt lat="52.876494" lon="-3.387536"><ele>828</ele><time>2020-01-18T12:45:05Z</time><name>PT8094</name></trkpt>
<trkpt lat="52.876496" lon="-3.387555"><ele>828</ele><time>2020-01-18T12:45:05Z</time><name>PT8095</name></trkpt>
<trkpt lat="52.876497" lon="-3.387569"><ele>828</ele><time>2020-01-18T12:45:06Z</time><name>PT8096</name></trkpt>
<trkpt lat="52.876494" lon="-3.387594"><ele>827</ele><time>2020-01-18T12:45:08Z</time><name>PT8097</name></trkpt>
<trkpt lat="52.876490" lon="-3.387608"><ele>827</ele><time>2020-01-18T12:45:08Z</time><name>PT8098</name></trkpt>
<trkpt lat="52.876489" lon="-3.387619"><ele>827</ele><time>2020-01-18T12:45:09Z</time><name>PT8099</name></trkpt>
<trkpt lat="52.876488" lon="-3.387642"><ele>826</ele><time>2020-01-18T12:45:11Z</time><name>PT8100</name></trkpt>
<trkpt lat="52.876479" lon="-3.387659"><ele>826</ele><time>2020-01-18T12:45:11Z</time><name>PT8101</name></trkpt>
<trkpt lat="52.876470" lon="-3.387670"><ele>826</ele><time>2020-01-18T12:45:12Z</time><name>PT8102</name></trkpt>
<trkpt lat="52.876463" lon="-3.387683"><ele>826</ele><time>2020-01-18T12:45:14Z</time><name>PT8103</name></trkpt>
<trkpt lat="52.876457" lon="-3.387703"><ele>825</ele><time>2020-01-18T12:45:14Z</time><name>PT8104</name></trkpt>
<trkpt lat="52.876453" lon="-3.387722"><ele>825</ele><time>2020-01-18T12:45:15Z</time><name>PT8105</name></trkpt>
<trkpt lat="52.876443" lon="-3.387733"><ele>824</ele><time>2020-01-18T12:45:17Z</time><name>PT8106</name></trkpt>
<trkpt lat="52.876434" lon="-3.387739"><ele>824</ele><time>2020-01-18T12:45:17Z</time><name>PT8107</name></trkpt>
<trkpt lat="52.876433" lon="-3.387760"><ele>824</ele><time>2020-01-18T12:45:18Z</time><name>PT8108</name></trkpt>
<trkpt lat="52.876427" lon="-3.387775"><ele>824</ele><time>2020-01-18T12:45:20Z</time><name>PT8109</name></trkpt>
<trkpt lat="52.876428" lon="-3.387793"><ele>823</ele><time>2020-01-18T12:45:20Z</time><name>PT8110</name></trkpt>
<trkpt lat="52.876424" lon="-3.387804"><ele>822</ele><time>2020-01-18T12:45:21Z</time><name>PT8111</name></trkpt>
<trkpt lat="52.876418" lon="-3.387816"><ele>822</ele><time>2020-01-18T12:45:23Z</time><name>PT8112</name></trkpt>
<trkpt lat="52.876412" lon="-3.387830"><ele>822</ele><time>2020-01-18T12:45:23Z</time><name>PT8113</name></trkpt>
<trkpt lat="52.876394" lon="-3.387825"><ele>822</ele><time>2020-01-18T12:45:24Z</time><name>PT8114</name></trkpt>
<trkpt lat="52.876377" lon="-3.387825"><ele>821</ele><time>2020-01-18T12:45:26Z</time><name>PT8115</name></trkpt>
<trkpt lat="52.876370" lon="-3.387839"><ele>821</ele><time>2020-01-18T12:45:26Z</time><name>PT8116</name></trkpt>
<trkpt lat="52.876374" lon="-3.387851"><ele>821</ele><time>2020-01-18T12:45:27Z</time><name>PT8117</name></trkpt>
<trkpt lat="52.876366" lon="-3.387862"><ele>821</ele><time>2020-01-18T12:45:29Z</time><name>PT8118</name></trkpt>
<trkpt lat="52.876357" lon="-3.387888"><ele>821</ele><time>2020-01-18T12:45:29Z</time><name>PT8119</name></trkpt>
<trkpt lat="52.876350" lon="-3.387907"><ele>821</ele><time>2020-01-18T12:45:30Z</time><name>PT8120</name></trkpt>
<trkpt lat="52.876346" lon="-3.387904"><ele>821</ele><time>2020-01-18T12:45:32Z</time><name>PT8121</name></trkpt>
<trkpt lat="52.876340" lon="-3.387913"><ele>821</ele><time>2020-01-18T12:45:32Z</time><name>PT8122</name></trkpt>
<trkpt lat="52.876339" lon="-3.387915"><ele>821</ele><time>2020-01-18T12:45:33Z</time><name>PT8123</name></trkpt>
<trkpt lat="52.876337" lon="-3.387919"><ele>821</ele><time>2020-01-18T12:45:35Z</time><name>PT8124</name></trkpt>
<trkpt lat="52.876329" lon="-3.387935"><ele>822</ele><time>2020-01-18T12:45:35Z</time><name>PT8125</name></trkpt>
<trkpt lat="52.876324" lon="-3.387942"><ele>822</ele><time>2020-01-18T12:45:36Z</time><name>PT8126</name></trkpt>
<trkpt lat="52.876320" lon="-3.387948"><ele>822</ele><time>2020-01-18T12:45:38Z</time><name>PT8127</name></trkpt>
<trkpt lat="52.876322" lon="-3.387969"><ele>822</ele><time>2020-01-18T12:45:38Z</time><name>PT8128</name></trkpt>
<trkpt lat="52.876325" lon="-3.387990"><ele>822</ele><time>2020-01-18T12:45:39Z</time><name>PT8129</name></trkpt>
<trkpt lat="52.876331" lon="-3.388005"><ele>822</ele><time>2020-01-18T12:45:41Z</time><name>PT8130</name></trkpt>
<trkpt lat="52.876338" lon="-3.388018"><ele>822</ele><time>2020-01-18T12:45:41Z</time><name>PT8131</name></trkpt>
<trkpt lat="52.876339" lon="-3.388029"><ele>822</ele><time>2020-01-18T12:45:42Z</time><name>PT8132</name></trkpt>
<trkpt lat="52.876349" lon="-3.388025"><ele>821</ele><time>2020-01-18T12:45:44Z</time><name>PT8133</name></trkpt>
<trkpt lat="52.876350" lon="-3.388034"><ele>821</ele><time>2020-01-18T12:45:44Z</time><name>PT8134</name></trkpt>
<trkpt lat="52.876347" lon="-3.388064"><ele>821</ele><time>2020-01-18T12:45:45Z</time><name>PT8135</name></trkpt>
<trkpt lat="52.876338" lon="-3.388068"><ele>821</ele><time>2020-01-18T12:45:47Z</time><name>PT8136</name></trkpt>
<trkpt lat="52.876338" lon="-3.388091"><ele>821</ele><time>2020-01-18T12:45:47Z</time><name>PT8137</name></trkpt>
<trkpt lat="52.876339" lon="-3.388127"><ele>821</ele><time>2020-01-18T12:45:49Z</time><name>PT8138</name></trkpt>
<trkpt lat="52.876340" lon="-3.388130"><ele>820</ele><time>2020-01-18T12:45:50Z</time><name>PT8139</name></trkpt>
<trkpt lat="52.876342" lon="-3.388144"><ele>819</ele><time>2020-01-18T12:45:50Z</time><name>PT8140</name></trkpt>
<trkpt lat="52.876347" lon="-3.388145"><ele>818</ele><time>2020-01-18T12:45:51Z</time><name>PT8141</name></trkpt>
<trkpt lat="52.876347" lon="-3.388165"><ele>818</ele><time>2020-01-18T12:45:53Z</time><name>PT8142</name></trkpt>
<trkpt lat="52.876351" lon="-3.388174"><ele>817</ele><time>2020-01-18T12:45:53Z</time><name>PT8143</name></trkpt>
<trkpt lat="52.876343" lon="-3.388180"><ele>817</ele><time>2020-01-18T12:45:54Z</time><name>PT8144</name></trkpt>
<trkpt lat="52.876341" lon="-3.388189"><ele>816</ele><time>2020-01-18T12:45:56Z</time><name>PT8145</name></trkpt>
<trkpt lat="52.876338" lon="-3.388205"><ele>816</ele><time>2020-01-18T12:45:56Z</time><name>PT8146</name></trkpt>
<trkpt lat="52.876333" lon="-3.388226"><ele>815</ele><time>2020-01-18T12:45:57Z</time><name>PT8147</name></trkpt>
<trkpt lat="52.876326" lon="-3.388240"><ele>816</ele><time>2020-01-18T12:45:59Z</time><name>PT8148</name></trkpt>
<trkpt lat="52.876316" lon="-3.388258"><ele>816</ele><time>2020-01-18T12:45:59Z</time><name>PT8149</name></trkpt>
<trkpt lat="52.876302" lon="-3.388283"><ele>817</ele><time>2020-01-18T12:46:00Z</time><name>PT8150</name></trkpt>
<trkpt lat="52.876290" lon="-3.388300"><ele>817</ele><time>2020-01-18T12:46:02Z</time><name>PT8151</name></trkpt>
<trkpt lat="52.876280" lon="-3.388318"><ele>817</ele><time>2020-01-18T12:46:02Z</time><name>PT8152</name></trkpt>
<trkpt lat="52.876266" lon="-3.388330"><ele>817</ele><time>2020-01-18T12:46:03Z</time><name>PT8153</name></trkpt>
<trkpt lat="52.876255" lon="-3.388343"><ele>818</ele><time>2020-01-18T12:46:05Z</time><name>PT8154</name></trkpt>
<trkpt lat="52.876247" lon="-3.388358"><ele>819</ele><time>2020-01-18T12:46:05Z</time><name>PT8155</name></trkpt>
<trkpt lat="52.876238" lon="-3.388371"><ele>819</ele><time>2020-01-18T12:46:06Z</time><name>PT8156</name></trkpt>
<trkpt lat="52.876227" lon="-3.388385"><ele>820</ele><time>2020-01-18T12:46:08Z</time><name>PT8157</name></trkpt>
<trkpt lat="52.876218" lon="-3.388395"><ele>820</ele><time>2020-01-18T12:46:08Z</time><name>PT8158</name></trkpt>
<trkpt lat="52.876211" lon="-3.388406"><ele>820</ele><time>2020-01-18T12:46:09Z</time><name>PT8159</name></trkpt>
<trkpt lat="52.876202" lon="-3.388418"><ele>821</ele><time>2020-01-18T12:46:11Z</time><name>PT8160</name></trkpt>
<trkpt lat="52.876198" lon="-3.388433"><ele>821</ele><time>2020-01-18T12:46:11Z</time><name>PT8161</name></trkpt>
<trkpt lat="52.876194" lon="-3.388447"><ele>821</ele><time>2020-01-18T12:46:12Z</time><name>PT8162</name></trkpt>
<trkpt lat="52.876189" lon="-3.388458"><ele>821</ele><time>2020-01-18T12:46:14Z</time><name>PT8163</name></trkpt>
<trkpt lat="52.876184" lon="-3.388468"><ele>821</ele><time>2020-01-18T12:46:14Z</time><name>PT8164</name></trkpt>
<trkpt lat="52.876179" lon="-3.388473"><ele>821</ele><time>2020-01-18T12:46:15Z</time><name>PT8165</name></trkpt>
<trkpt lat="52.876172" lon="-3.388479"><ele>822</ele><time>2020-01-18T12:46:17Z</time><name>PT8166</name></trkpt>
<trkpt lat="52.876164" lon="-3.388479"><ele>822</ele><time>2020-01-18T12:46:17Z</time><name>PT8167</name></trkpt>
<trkpt lat="52.876160" lon="-3.388483"><ele>823</ele><time>2020-01-18T12:46:18Z</time><name>PT8168</name></trkpt>
<trkpt lat="52.876156" lon="-3.388490"><ele>823</ele><time>2020-01-18T12:46:20Z</time><name>PT8169</name></trkpt>
<trkpt lat="52.876154" lon="-3.388496"><ele>824</ele><time>2020-01-18T12:46:20Z</time><name>PT8170</name></trkpt>
<trkpt lat="52.876156" lon="-3.388500"><ele>824</ele><time>2020-01-18T12:46:21Z</time><name>PT8171</name></trkpt>
<trkpt lat="52.876159" lon="-3.388518"><ele>824</ele><time>2020-01-18T12:46:23Z</time><name>PT8172</name></trkpt>
<trkpt lat="52.876157" lon="-3.388532"><ele>824</ele><time>2020-01-18T12:46:23Z</time><name>PT8173</name></trkpt>
<trkpt lat="52.876153" lon="-3.388547"><ele>824</ele><time>2020-01-18T12:46:24Z</time><name>PT8174</name></trkpt>
<trkpt lat="52.876152" lon="-3.388565"><ele>824</ele><time>2020-01-18T12:46:26Z</time><name>PT8175</name></trkpt>
<trkpt lat="52.876150" lon="-3.388581"><ele>824</ele><time>2020-01-18T12:46:26Z</time><name>PT8176</name></trkpt>
<trkpt lat="52.876138" lon="-3.388598"><ele>824</ele><time>2020-01-18T12:46:27Z</time><name>PT8177</name></trkpt>
<trkpt lat="52.876135" lon="-3.388612"><ele>824</ele><time>2020-01-18T12:46:29Z</time><name>PT8178</name></trkpt>
<trkpt lat="52.876133" lon="-3.388623"><ele>824</ele><time>2020-01-18T12:46:29Z</time><name>PT8179</name></trkpt>
<trkpt lat="52.876130" lon="-3.388634"><ele>824</ele><time>2020-01-18T12:46:30Z</time><name>PT8180</name></trkpt>
<trkpt lat="52.876126" lon="-3.388647"><ele>824</ele><time>2020-01-18T12:46:32Z</time><name>PT8181</name></trkpt>
<trkpt lat="52.876120" lon="-3.388657"><ele>825</ele><time>2020-01-18T12:46:32Z</time><name>PT8182</name></trkpt>
<trkpt lat="52.876114" lon="-3.388665"><ele>825</ele><time>2020-01-18T12:46:33Z</time><name>PT8183</name></trkpt>
<trkpt lat="52.876107" lon="-3.388675"><ele>826</ele><time>2020-01-18T12:46:35Z</time><name>PT8184</name></trkpt>
<trkpt lat="52.876102" lon="-3.388687"><ele>826</ele><time>2020-01-18T12:46:35Z</time><name>PT8185</name></trkpt>
<trkpt lat="52.876098" lon="-3.388693"><ele>826</ele><time>2020-01-18T12:46:36Z</time><name>PT8186</name></trkpt>
<trkpt lat="52.876092" lon="-3.388698"><ele>826</ele><time>2020-01-18T12:46:38Z</time><name>PT8187</name></trkpt>
<trkpt lat="52.876086" lon="-3.388704"><ele>827</ele><time>2020-01-18T12:46:38Z</time><name>PT8188</name></trkpt>
<trkpt lat="52.876082" lon="-3.388705"><ele>827</ele><time>2020-01-18T12:46:39Z</time><name>PT8189</name></trkpt>
<trkpt lat="52.876077" lon="-3.388707"><ele>827</ele><time>2020-01-18T12:46:41Z</time><name>PT8190</name></trkpt>
<trkpt lat="52.876077" lon="-3.388713"><ele>827</ele><time>2020-01-18T12:46:41Z</time><name>PT8191</name></trkpt>
<trkpt lat="52.876077" lon="-3.388710"><ele>827</ele><time>2020-01-18T12:46:42Z</time><name>PT8192</name></trkpt>
<trkpt lat="52.876075" lon="-3.388716"><ele>827</ele><time>2020-01-18T12:46:44Z</time><name>PT8193</name></trkpt>
<trkpt lat="52.876078" lon="-3.388717"><ele>827</ele><time>2020-01-18T12:46:44Z</time><name>PT8194</name></trkpt>
<trkpt lat="52.876077" lon="-3.388723"><ele>828</ele><time>2020-01-18T12:46:45Z</time><name>PT8195</name></trkpt>
<trkpt lat="52.876085" lon="-3.388727"><ele>828</ele><time>2020-01-18T12:46:47Z</time><name>PT8196</name></trkpt>
<trkpt lat="52.876088" lon="-3.388731"><ele>828</ele><time>2020-01-18T12:46:47Z</time><name>PT8197</name></trkpt>
<trkpt lat="52.876087" lon="-3.388736"><ele>828</ele><time>2020-01-18T12:46:48Z</time><name>PT8198</name></trkpt>
<trkpt lat="52.876082" lon="-3.388738"><ele>828</ele><time>2020-01-18T12:46:50Z</time><name>PT8199</name></trkpt>
<trkpt lat="52.876082" lon="-3.388740"><ele>828</ele><time>2020-01-18T12:46:50Z</time><name>PT8200</name></trkpt>
<trkpt lat="52.876081" lon="-3.388737"><ele>828</ele><time>2020-01-18T12:46:51Z</time><name>PT8201</name></trkpt>
<trkpt lat="52.876079" lon="-3.388733"><ele>829</ele><time>2020-01-18T12:46:53Z</time><name>PT8202</name></trkpt>
<trkpt lat="52.876080" lon="-3.388736"><ele>829</ele><time>2020-01-18T12:46:53Z</time><name>PT8203</name></trkpt>
<trkpt lat="52.876078" lon="-3.388736"><ele>829</ele><time>2020-01-18T12:46:54Z</time><name>PT8204</name></trkpt>
<trkpt lat="52.876077" lon="-3.388737"><ele>829</ele><time>2020-01-18T12:46:56Z</time><name>PT8205</name></trkpt>
<trkpt lat="52.876078" lon="-3.388737"><ele>829</ele><time>2020-01-18T12:47:17Z</time><name>PT8206</name></trkpt>
<trkpt lat="52.876076" lon="-3.388730"><ele>829</ele><time>2020-01-18T12:47:18Z</time><name>PT8207</name></trkpt>
<trkpt lat="52.876094" lon="-3.388715"><ele>829</ele><time>2020-01-18T12:47:20Z</time><name>PT8208</name></trkpt>
<trkpt lat="52.876103" lon="-3.388707"><ele>829</ele><time>2020-01-18T12:47:20Z</time><name>PT8209</name></trkpt>
<trkpt lat="52.876114" lon="-3.388699"><ele>829</ele><time>2020-01-18T12:47:21Z</time><name>PT8210</name></trkpt>
<trkpt lat="52.876118" lon="-3.388689"><ele>829</ele><time>2020-01-18T12:47:23Z</time><name>PT8211</name></trkpt>
<trkpt lat="52.876123" lon="-3.388697"><ele>830</ele><time>2020-01-18T12:47:23Z</time><name>PT8212</name></trkpt>
<trkpt lat="52.876130" lon="-3.388693"><ele>830</ele><time>2020-01-18T12:47:24Z</time><name>PT8213</name></trkpt>
<trkpt lat="52.876126" lon="-3.388699"><ele>830</ele><time>2020-01-18T12:47:26Z</time><name>PT8214</name></trkpt>
<trkpt lat="52.876134" lon="-3.388699"><ele>830</ele><time>2020-01-18T12:47:26Z</time><name>PT8215</name></trkpt>
<trkpt lat="52.876132" lon="-3.388682"><ele>830</ele><time>2020-01-18T12:47:53Z</time><name>PT8216</name></trkpt>
<trkpt lat="52.876126" lon="-3.388663"><ele>830</ele><time>2020-01-18T12:47:53Z</time><name>PT8217</name></trkpt>
<trkpt lat="52.876119" lon="-3.388641"><ele>830</ele><time>2020-01-18T12:47:54Z</time><name>PT8218</name></trkpt>
<trkpt lat="52.876097" lon="-3.388620"><ele>831</ele><time>2020-01-18T12:47:56Z</time><name>PT8219</name></trkpt>
<trkpt lat="52.876091" lon="-3.388599"><ele>831</ele><time>2020-01-18T12:47:56Z</time><name>PT8220</name></trkpt>
<trkpt lat="52.876084" lon="-3.388584"><ele>832</ele><time>2020-01-18T12:47:57Z</time><name>PT8221</name></trkpt>
<trkpt lat="52.876083" lon="-3.388629"><ele>831</ele><time>2020-01-18T12:47:59Z</time><name>PT8222</name></trkpt>
<trkpt lat="52.876096" lon="-3.388657"><ele>832</ele><time>2020-01-18T12:47:59Z</time><name>PT8223</name></trkpt>
<trkpt lat="52.876110" lon="-3.388691"><ele>832</ele><time>2020-01-18T12:48:00Z</time><name>PT8224</name></trkpt>
<trkpt lat="52.876106" lon="-3.388698"><ele>832</ele><time>2020-01-18T12:48:02Z</time><name>PT8225</name></trkpt>
<trkpt lat="52.876115" lon="-3.388719"><ele>833</ele><time>2020-01-18T12:48:02Z</time><name>PT8226</name></trkpt>
<trkpt lat="52.876110" lon="-3.388716"><ele>833</ele><time>2020-01-18T12:48:03Z</time><name>PT8227</name></trkpt>
<trkpt lat="52.876102" lon="-3.388695"><ele>834</ele><time>2020-01-18T12:48:05Z</time><name>PT8228</name></trkpt>
<trkpt lat="52.876097" lon="-3.388673"><ele>834</ele><time>2020-01-18T12:48:05Z</time><name>PT8229</name></trkpt>
<trkpt lat="52.876095" lon="-3.388688"><ele>834</ele><time>2020-01-18T12:48:06Z</time><name>PT8230</name></trkpt>
<trkpt lat="52.876094" lon="-3.388682"><ele>834</ele><time>2020-01-18T12:48:08Z</time><name>PT8231</name></trkpt>
<trkpt lat="52.876087" lon="-3.388657"><ele>834</ele><time>2020-01-18T12:48:08Z</time><name>PT8232</name></trkpt>
<trkpt lat="52.876090" lon="-3.388667"><ele>834</ele><time>2020-01-18T12:48:09Z</time><name>PT8233</name></trkpt>
<trkpt lat="52.876093" lon="-3.388669"><ele>833</ele><time>2020-01-18T12:48:14Z</time><name>PT8234</name></trkpt>
<trkpt lat="52.876094" lon="-3.388669"><ele>833</ele><time>2020-01-18T12:48:15Z</time><name>PT8235</name></trkpt>
<trkpt lat="52.876090" lon="-3.388672"><ele>833</ele><time>2020-01-18T12:48:17Z</time><name>PT8236</name></trkpt>
<trkpt lat="52.876097" lon="-3.388689"><ele>833</ele><time>2020-01-18T12:48:18Z</time><name>PT8237</name></trkpt>
<trkpt lat="52.876102" lon="-3.388695"><ele>833</ele><time>2020-01-18T12:48:18Z</time><name>PT8238</name></trkpt>
<trkpt lat="52.876100" lon="-3.388681"><ele>833</ele><time>2020-01-18T12:48:20Z</time><name>PT8239</name></trkpt>
<trkpt lat="52.876103" lon="-3.388660"><ele>833</ele><time>2020-01-18T12:48:20Z</time><name>PT8240</name></trkpt>
<trkpt lat="52.876097" lon="-3.388662"><ele>833</ele><time>2020-01-18T12:48:21Z</time><name>PT8241</name></trkpt>
<trkpt lat="52.876098" lon="-3.388651"><ele>833</ele><time>2020-01-18T12:48:23Z</time><name>PT8242</name></trkpt>
<trkpt lat="52.876096" lon="-3.388644"><ele>833</ele><time>2020-01-18T12:48:23Z</time><name>PT8243</name></trkpt>
<trkpt lat="52.876090" lon="-3.388660"><ele>832</ele><time>2020-01-18T12:48:33Z</time><name>PT8244</name></trkpt>
<trkpt lat="52.876069" lon="-3.388687"><ele>831</ele><time>2020-01-18T12:48:35Z</time><name>PT8245</name></trkpt>
<trkpt lat="52.876054" lon="-3.388703"><ele>831</ele><time>2020-01-18T12:48:35Z</time><name>PT8246</name></trkpt>
<trkpt lat="52.876051" lon="-3.388701"><ele>831</ele><time>2020-01-18T12:48:38Z</time><name>PT8247</name></trkpt>
<trkpt lat="52.876051" lon="-3.388703"><ele>831</ele><time>2020-01-18T12:48:40Z</time><name>PT8248</name></trkpt>
<trkpt lat="52.876052" lon="-3.388702"><ele>831</ele><time>2020-01-18T12:48:41Z</time><name>PT8249</name></trkpt>
<trkpt lat="52.876051" lon="-3.388695"><ele>831</ele><time>2020-01-18T12:48:47Z</time><name>PT8250</name></trkpt>
<trkpt lat="52.876045" lon="-3.388688"><ele>831</ele><time>2020-01-18T12:48:48Z</time><name>PT8251</name></trkpt>
<trkpt lat="52.876033" lon="-3.388678"><ele>831</ele><time>2020-01-18T12:48:50Z</time><name>PT8252</name></trkpt>
<trkpt lat="52.876022" lon="-3.388673"><ele>831</ele><time>2020-01-18T12:48:50Z</time><name>PT8253</name></trkpt>
<trkpt lat="52.876011" lon="-3.388668"><ele>831</ele><time>2020-01-18T12:48:51Z</time><name>PT8254</name></trkpt>
<trkpt lat="52.876007" lon="-3.388665"><ele>831</ele><time>2020-01-18T12:48:53Z</time><name>PT8255</name></trkpt>
<trkpt lat="52.876001" lon="-3.388664"><ele>831</ele><time>2020-01-18T12:48:53Z</time><name>PT8256</name></trkpt>
<trkpt lat="52.875996" lon="-3.388658"><ele>831</ele><time>2020-01-18T12:48:54Z</time><name>PT8257</name></trkpt>
<trkpt lat="52.875993" lon="-3.388657"><ele>831</ele><time>2020-01-18T12:48:56Z</time><name>PT8258</name></trkpt>
<trkpt lat="52.875986" lon="-3.388654"><ele>831</ele><time>2020-01-18T12:48:56Z</time><name>PT8259</name></trkpt>
<trkpt lat="52.875980" lon="-3.388646"><ele>831</ele><time>2020-01-18T12:48:58Z</time><name>PT8260</name></trkpt>
<trkpt lat="52.875972" lon="-3.388639"><ele>831</ele><time>2020-01-18T12:48:59Z</time><name>PT8261</name></trkpt>
<trkpt lat="52.875962" lon="-3.388633"><ele>831</ele><time>2020-01-18T12:48:59Z</time><name>PT8262</name></trkpt>
<trkpt lat="52.875951" lon="-3.388625"><ele>831</ele><time>2020-01-18T12:49:00Z</time><name>PT8263</name></trkpt>
<trkpt lat="52.875942" lon="-3.388618"><ele>831</ele><time>2020-01-18T12:49:02Z</time><name>PT8264</name></trkpt>
<trkpt lat="52.875933" lon="-3.388612"><ele>831</ele><time>2020-01-18T12:49:02Z</time><name>PT8265</name></trkpt>
<trkpt lat="52.875928" lon="-3.388613"><ele>831</ele><time>2020-01-18T12:49:03Z</time><name>PT8266</name></trkpt>
<trkpt lat="52.875922" lon="-3.388608"><ele>831</ele><time>2020-01-18T12:49:05Z</time><name>PT8267</name></trkpt>
<trkpt lat="52.875916" lon="-3.388597"><ele>831</ele><time>2020-01-18T12:49:05Z</time><name>PT8268</name></trkpt>
<trkpt lat="52.875908" lon="-3.388587"><ele>831</ele><time>2020-01-18T12:49:07Z</time><name>PT8269</name></trkpt>
<trkpt lat="52.875902" lon="-3.388569"><ele>830</ele><time>2020-01-18T12:49:08Z</time><name>PT8270</name></trkpt>
<trkpt lat="52.875896" lon="-3.388558"><ele>830</ele><time>2020-01-18T12:49:08Z</time><name>PT8271</name></trkpt>
<trkpt lat="52.875886" lon="-3.388545"><ele>829</ele><time>2020-01-18T12:49:09Z</time><name>PT8272</name></trkpt>
<trkpt lat="52.875878" lon="-3.388539"><ele>828</ele><time>2020-01-18T12:49:11Z</time><name>PT8273</name></trkpt>
<trkpt lat="52.875870" lon="-3.388530"><ele>828</ele><time>2020-01-18T12:49:11Z</time><name>PT8274</name></trkpt>
<trkpt lat="52.875861" lon="-3.388517"><ele>827</ele><time>2020-01-18T12:49:12Z</time><name>PT8275</name></trkpt>
<trkpt lat="52.875852" lon="-3.388505"><ele>827</ele><time>2020-01-18T12:49:14Z</time><name>PT8276</name></trkpt>
<trkpt lat="52.875846" lon="-3.388496"><ele>827</ele><time>2020-01-18T12:49:14Z</time><name>PT8277</name></trkpt>
<trkpt lat="52.875840" lon="-3.388484"><ele>826</ele><time>2020-01-18T12:49:16Z</time><name>PT8278</name></trkpt>
<trkpt lat="52.875834" lon="-3.388473"><ele>826</ele><time>2020-01-18T12:49:17Z</time><name>PT8279</name></trkpt>
<trkpt lat="52.875826" lon="-3.388466"><ele>826</ele><time>2020-01-18T12:49:17Z</time><name>PT8280</name></trkpt>
<trkpt lat="52.875817" lon="-3.388458"><ele>826</ele><time>2020-01-18T12:49:18Z</time><name>PT8281</name></trkpt>
<trkpt lat="52.875809" lon="-3.388455"><ele>826</ele><time>2020-01-18T12:49:20Z</time><name>PT8282</name></trkpt>
<trkpt lat="52.875801" lon="-3.388451"><ele>826</ele><time>2020-01-18T12:49:20Z</time><name>PT8283</name></trkpt>
<trkpt lat="52.875793" lon="-3.388443"><ele>826</ele><time>2020-01-18T12:49:21Z</time><name>PT8284</name></trkpt>
<trkpt lat="52.875785" lon="-3.388435"><ele>825</ele><time>2020-01-18T12:49:23Z</time><name>PT8285</name></trkpt>
<trkpt lat="52.875776" lon="-3.388429"><ele>825</ele><time>2020-01-18T12:49:23Z</time><name>PT8286</name></trkpt>
<trkpt lat="52.875768" lon="-3.388422"><ele>825</ele><time>2020-01-18T12:49:24Z</time><name>PT8287</name></trkpt>
<trkpt lat="52.875759" lon="-3.388416"><ele>824</ele><time>2020-01-18T12:49:26Z</time><name>PT8288</name></trkpt>
<trkpt lat="52.875750" lon="-3.388412"><ele>824</ele><time>2020-01-18T12:49:26Z</time><name>PT8289</name></trkpt>
<trkpt lat="52.875741" lon="-3.388408"><ele>824</ele><time>2020-01-18T12:49:27Z</time><name>PT8290</name></trkpt>
<trkpt lat="52.875732" lon="-3.388401"><ele>824</ele><time>2020-01-18T12:49:29Z</time><name>PT8291</name></trkpt>
<trkpt lat="52.875726" lon="-3.388396"><ele>824</ele><time>2020-01-18T12:49:29Z</time><name>PT8292</name></trkpt>
<trkpt lat="52.875717" lon="-3.388392"><ele>823</ele><time>2020-01-18T12:49:30Z</time><name>PT8293</name></trkpt>
<trkpt lat="52.875714" lon="-3.388387"><ele>823</ele><time>2020-01-18T12:49:32Z</time><name>PT8294</name></trkpt>
<trkpt lat="52.875708" lon="-3.388381"><ele>823</ele><time>2020-01-18T12:49:32Z</time><name>PT8295</name></trkpt>
<trkpt lat="52.875703" lon="-3.388373"><ele>823</ele><time>2020-01-18T12:49:33Z</time><name>PT8296</name></trkpt>
<trkpt lat="52.875696" lon="-3.388368"><ele>823</ele><time>2020-01-18T12:49:35Z</time><name>PT8297</name></trkpt>
<trkpt lat="52.875692" lon="-3.388365"><ele>823</ele><time>2020-01-18T12:49:35Z</time><name>PT8298</name></trkpt>
<trkpt lat="52.875690" lon="-3.388363"><ele>823</ele><time>2020-01-18T12:49:36Z</time><name>PT8299</name></trkpt>
<trkpt lat="52.875690" lon="-3.388359"><ele>823</ele><time>2020-01-18T12:49:38Z</time><name>PT8300</name></trkpt>
<trkpt lat="52.875687" lon="-3.388362"><ele>823</ele><time>2020-01-18T12:49:39Z</time><name>PT8301</name></trkpt>
<trkpt lat="52.875678" lon="-3.388359"><ele>822</ele><time>2020-01-18T12:49:41Z</time><name>PT8302</name></trkpt>
<trkpt lat="52.875671" lon="-3.388355"><ele>822</ele><time>2020-01-18T12:49:41Z</time><name>PT8303</name></trkpt>
<trkpt lat="52.875662" lon="-3.388350"><ele>822</ele><time>2020-01-18T12:49:42Z</time><name>PT8304</name></trkpt>
<trkpt lat="52.875653" lon="-3.388346"><ele>821</ele><time>2020-01-18T12:49:44Z</time><name>PT8305</name></trkpt>
<trkpt lat="52.875644" lon="-3.388345"><ele>821</ele><time>2020-01-18T12:49:44Z</time><name>PT8306</name></trkpt>
<trkpt lat="52.875640" lon="-3.388346"><ele>821</ele><time>2020-01-18T12:49:45Z</time><name>PT8307</name></trkpt>
<trkpt lat="52.875636" lon="-3.388348"><ele>821</ele><time>2020-01-18T12:49:47Z</time><name>PT8308</name></trkpt>
<trkpt lat="52.875634" lon="-3.388345"><ele>820</ele><time>2020-01-18T12:49:47Z</time><name>PT8309</name></trkpt>
<trkpt lat="52.875628" lon="-3.388342"><ele>820</ele><time>2020-01-18T12:49:49Z</time><name>PT8310</name></trkpt>
<trkpt lat="52.875625" lon="-3.388353"><ele>819</ele><time>2020-01-18T12:49:50Z</time><name>PT8311</name></trkpt>
<trkpt lat="52.875611" lon="-3.388350"><ele>819</ele><time>2020-01-18T12:49:50Z</time><name>PT8312</name></trkpt>
<trkpt lat="52.875605" lon="-3.388347"><ele>819</ele><time>2020-01-18T12:49:51Z</time><name>PT8313</name></trkpt>
<trkpt lat="52.875598" lon="-3.388344"><ele>818</ele><time>2020-01-18T12:49:53Z</time><name>PT8314</name></trkpt>
<trkpt lat="52.875589" lon="-3.388343"><ele>818</ele><time>2020-01-18T12:49:53Z</time><name>PT8315</name></trkpt>
<trkpt lat="52.875581" lon="-3.388338"><ele>818</ele><time>2020-01-18T12:49:54Z</time><name>PT8316</name></trkpt>
<trkpt lat="52.875569" lon="-3.388328"><ele>818</ele><time>2020-01-18T12:49:56Z</time><name>PT8317</name></trkpt>
<trkpt lat="52.875557" lon="-3.388320"><ele>818</ele><time>2020-01-18T12:49:56Z</time><name>PT8318</name></trkpt>
<trkpt lat="52.875548" lon="-3.388314"><ele>818</ele><time>2020-01-18T12:49:57Z</time><name>PT8319</name></trkpt>
<trkpt lat="52.875536" lon="-3.388310"><ele>818</ele><time>2020-01-18T12:49:59Z</time><name>PT8320</name></trkpt>
<trkpt lat="52.875525" lon="-3.388303"><ele>818</ele><time>2020-01-18T12:49:59Z</time><name>PT8321</name></trkpt>
<trkpt lat="52.875513" lon="-3.388299"><ele>817</ele><time>2020-01-18T12:50:00Z</time><name>PT8322</name></trkpt>
<trkpt lat="52.875502" lon="-3.388295"><ele>817</ele><time>2020-01-18T12:50:02Z</time><name>PT8323</name></trkpt>
<trkpt lat="52.875491" lon="-3.388293"><ele>816</ele><time>2020-01-18T12:50:02Z</time><name>PT8324</name></trkpt>
<trkpt lat="52.875480" lon="-3.388290"><ele>816</ele><time>2020-01-18T12:50:04Z</time><name>PT8325</name></trkpt>
<trkpt lat="52.875471" lon="-3.388290"><ele>816</ele><time>2020-01-18T12:50:05Z</time><name>PT8326</name></trkpt>
<trkpt lat="52.875463" lon="-3.388288"><ele>815</ele><time>2020-01-18T12:50:05Z</time><name>PT8327</name></trkpt>
<trkpt lat="52.875456" lon="-3.388281"><ele>815</ele><time>2020-01-18T12:50:06Z</time><name>PT8328</name></trkpt>
<trkpt lat="52.875444" lon="-3.388275"><ele>815</ele><time>2020-01-18T12:50:08Z</time><name>PT8329</name></trkpt>
<trkpt lat="52.875434" lon="-3.388273"><ele>815</ele><time>2020-01-18T12:50:08Z</time><name>PT8330</name></trkpt>
<trkpt lat="52.875425" lon="-3.388270"><ele>815</ele><time>2020-01-18T12:50:09Z</time><name>PT8331</name></trkpt>
<trkpt lat="52.875415" lon="-3.388270"><ele>815</ele><time>2020-01-18T12:50:11Z</time><name>PT8332</name></trkpt>
<trkpt lat="52.875408" lon="-3.388265"><ele>814</ele><time>2020-01-18T12:50:11Z</time><name>PT8333</name></trkpt>
<trkpt lat="52.875398" lon="-3.388260"><ele>814</ele><time>2020-01-18T12:50:12Z</time><name>PT8334</name></trkpt>
<trkpt lat="52.875388" lon="-3.388253"><ele>814</ele><time>2020-01-18T12:50:14Z</time><name>PT8335</name></trkpt>
<trkpt lat="52.875378" lon="-3.388245"><ele>814</ele><time>2020-01-18T12:50:14Z</time><name>PT8336</name></trkpt>
<trkpt lat="52.875369" lon="-3.388230"><ele>815</ele><time>2020-01-18T12:50:15Z</time><name>PT8337</name></trkpt>
<trkpt lat="52.875362" lon="-3.388219"><ele>814</ele><time>2020-01-18T12:50:17Z</time><name>PT8338</name></trkpt>
<trkpt lat="52.875354" lon="-3.388213"><ele>814</ele><time>2020-01-18T12:50:17Z</time><name>PT8339</name></trkpt>
<trkpt lat="52.875349" lon="-3.388213"><ele>813</ele><time>2020-01-18T12:50:19Z</time><name>PT8340</name></trkpt>
<trkpt lat="52.875339" lon="-3.388210"><ele>812</ele><time>2020-01-18T12:50:20Z</time><name>PT8341</name></trkpt>
<trkpt lat="52.875329" lon="-3.388206"><ele>812</ele><time>2020-01-18T12:50:20Z</time><name>PT8342</name></trkpt>
<trkpt lat="52.875319" lon="-3.388204"><ele>812</ele><time>2020-01-18T12:50:21Z</time><name>PT8343</name></trkpt>
<trkpt lat="52.875308" lon="-3.388200"><ele>812</ele><time>2020-01-18T12:50:23Z</time><name>PT8344</name></trkpt>
<trkpt lat="52.875300" lon="-3.388198"><ele>812</ele><time>2020-01-18T12:50:23Z</time><name>PT8345</name></trkpt>
<trkpt lat="52.875292" lon="-3.388193"><ele>811</ele><time>2020-01-18T12:50:24Z</time><name>PT8346</name></trkpt>
<trkpt lat="52.875285" lon="-3.388189"><ele>811</ele><time>2020-01-18T12:50:26Z</time><name>PT8347</name></trkpt>
<trkpt lat="52.875276" lon="-3.388183"><ele>811</ele><time>2020-01-18T12:50:26Z</time><name>PT8348</name></trkpt>
<trkpt lat="52.875265" lon="-3.388176"><ele>811</ele><time>2020-01-18T12:50:27Z</time><name>PT8349</name></trkpt>
<trkpt lat="52.875255" lon="-3.388169"><ele>811</ele><time>2020-01-18T12:50:29Z</time><name>PT8350</name></trkpt>
<trkpt lat="52.875243" lon="-3.388169"><ele>810</ele><time>2020-01-18T12:50:29Z</time><name>PT8351</name></trkpt>
<trkpt lat="52.875230" lon="-3.388166"><ele>810</ele><time>2020-01-18T12:50:30Z</time><name>PT8352</name></trkpt>
<trkpt lat="52.875221" lon="-3.388160"><ele>811</ele><time>2020-01-18T12:50:32Z</time><name>PT8353</name></trkpt>
<trkpt lat="52.875209" lon="-3.388153"><ele>811</ele><time>2020-01-18T12:50:32Z</time><name>PT8354</name></trkpt>
<trkpt lat="52.875200" lon="-3.388150"><ele>811</ele><time>2020-01-18T12:50:33Z</time><name>PT8355</name></trkpt>
<trkpt lat="52.875189" lon="-3.388144"><ele>811</ele><time>2020-01-18T12:50:35Z</time><name>PT8356</name></trkpt>
<trkpt lat="52.875179" lon="-3.388135"><ele>811</ele><time>2020-01-18T12:50:35Z</time><name>PT8357</name></trkpt>
<trkpt lat="52.875168" lon="-3.388134"><ele>810</ele><time>2020-01-18T12:50:36Z</time><name>PT8358</name></trkpt>
<trkpt lat="52.875158" lon="-3.388130"><ele>810</ele><time>2020-01-18T12:50:38Z</time><name>PT8359</name></trkpt>
<trkpt lat="52.875150" lon="-3.388127"><ele>809</ele><time>2020-01-18T12:50:38Z</time><name>PT8360</name></trkpt>
<trkpt lat="52.875141" lon="-3.388119"><ele>809</ele><time>2020-01-18T12:50:39Z</time><name>PT8361</name></trkpt>
<trkpt lat="52.875132" lon="-3.388111"><ele>810</ele><time>2020-01-18T12:50:41Z</time><name>PT8362</name></trkpt>
<trkpt lat="52.875120" lon="-3.388101"><ele>810</ele><time>2020-01-18T12:50:41Z</time><name>PT8363</name></trkpt>
<trkpt lat="52.875111" lon="-3.388094"><ele>810</ele><time>2020-01-18T12:50:42Z</time><name>PT8364</name></trkpt>
<trkpt lat="52.875101" lon="-3.388085"><ele>810</ele><time>2020-01-18T12:50:44Z</time><name>PT8365</name></trkpt>
<trkpt lat="52.875092" lon="-3.388080"><ele>809</ele><time>2020-01-18T12:50:44Z</time><name>PT8366</name></trkpt>
<trkpt lat="52.875084" lon="-3.388075"><ele>809</ele><time>2020-01-18T12:50:45Z</time><name>PT8367</name></trkpt>
<trkpt lat="52.875076" lon="-3.388070"><ele>808</ele><time>2020-01-18T12:50:47Z</time><name>PT8368</name></trkpt>
<trkpt lat="52.875068" lon="-3.388069"><ele>808</ele><time>2020-01-18T12:50:47Z</time><name>PT8369</name></trkpt>
<trkpt lat="52.875060" lon="-3.388070"><ele>808</ele><time>2020-01-18T12:50:48Z</time><name>PT8370</name></trkpt>
<trkpt lat="52.875051" lon="-3.388075"><ele>808</ele><time>2020-01-18T12:50:50Z</time><name>PT8371</name></trkpt>
<trkpt lat="52.875041" lon="-3.388076"><ele>807</ele><time>2020-01-18T12:50:50Z</time><name>PT8372</name></trkpt>
<trkpt lat="52.875032" lon="-3.388075"><ele>807</ele><time>2020-01-18T12:50:51Z</time><name>PT8373</name></trkpt>
<trkpt lat="52.875021" lon="-3.388072"><ele>807</ele><time>2020-01-18T12:50:53Z</time><name>PT8374</name></trkpt>
<trkpt lat="52.875017" lon="-3.388071"><ele>806</ele><time>2020-01-18T12:50:53Z</time><name>PT8375</name></trkpt>
<trkpt lat="52.875012" lon="-3.388067"><ele>807</ele><time>2020-01-18T12:50:54Z</time><name>PT8376</name></trkpt>
<trkpt lat="52.875003" lon="-3.388062"><ele>807</ele><time>2020-01-18T12:50:56Z</time><name>PT8377</name></trkpt>
<trkpt lat="52.874994" lon="-3.388057"><ele>807</ele><time>2020-01-18T12:50:56Z</time><name>PT8378</name></trkpt>
<trkpt lat="52.874985" lon="-3.388058"><ele>807</ele><time>2020-01-18T12:50:57Z</time><name>PT8379</name></trkpt>
<trkpt lat="52.874973" lon="-3.388055"><ele>807</ele><time>2020-01-18T12:50:59Z</time><name>PT8380</name></trkpt>
<trkpt lat="52.874964" lon="-3.388051"><ele>807</ele><time>2020-01-18T12:50:59Z</time><name>PT8381</name></trkpt>
<trkpt lat="52.874956" lon="-3.388048"><ele>807</ele><time>2020-01-18T12:51:00Z</time><name>PT8382</name></trkpt>
<trkpt lat="52.874949" lon="-3.388047"><ele>807</ele><time>2020-01-18T12:51:02Z</time><name>PT8383</name></trkpt>
<trkpt lat="52.874940" lon="-3.388053"><ele>807</ele><time>2020-01-18T12:51:02Z</time><name>PT8384</name></trkpt>
<trkpt lat="52.874933" lon="-3.388050"><ele>807</ele><time>2020-01-18T12:51:03Z</time><name>PT8385</name></trkpt>
<trkpt lat="52.874926" lon="-3.388043"><ele>807</ele><time>2020-01-18T12:51:05Z</time><name>PT8386</name></trkpt>
<trkpt lat="52.874918" lon="-3.388043"><ele>807</ele><time>2020-01-18T12:51:05Z</time><name>PT8387</name></trkpt>
<trkpt lat="52.874912" lon="-3.388043"><ele>806</ele><time>2020-01-18T12:51:06Z</time><name>PT8388</name></trkpt>
<trkpt lat="52.874902" lon="-3.388035"><ele>806</ele><time>2020-01-18T12:51:08Z</time><name>PT8389</name></trkpt>
<trkpt lat="52.874895" lon="-3.388029"><ele>806</ele><time>2020-01-18T12:51:08Z</time><name>PT8390</name></trkpt>
<trkpt lat="52.874888" lon="-3.388026"><ele>806</ele><time>2020-01-18T12:51:10Z</time><name>PT8391</name></trkpt>
<trkpt lat="52.874880" lon="-3.388022"><ele>805</ele><time>2020-01-18T12:51:11Z</time><name>PT8392</name></trkpt>
<trkpt lat="52.874873" lon="-3.388016"><ele>806</ele><time>2020-01-18T12:51:12Z</time><name>PT8393</name></trkpt>
<trkpt lat="52.874865" lon="-3.388016"><ele>806</ele><time>2020-01-18T12:51:12Z</time><name>PT8394</name></trkpt>
<trkpt lat="52.874857" lon="-3.388017"><ele>805</ele><time>2020-01-18T12:51:14Z</time><name>PT8395</name></trkpt>
<trkpt lat="52.874849" lon="-3.388013"><ele>805</ele><time>2020-01-18T12:51:15Z</time><name>PT8396</name></trkpt>
<trkpt lat="52.874840" lon="-3.388015"><ele>805</ele><time>2020-01-18T12:51:16Z</time><name>PT8397</name></trkpt>
<trkpt lat="52.874830" lon="-3.388015"><ele>805</ele><time>2020-01-18T12:51:17Z</time><name>PT8398</name></trkpt>
<trkpt lat="52.874820" lon="-3.388014"><ele>805</ele><time>2020-01-18T12:51:17Z</time><name>PT8399</name></trkpt>
<trkpt lat="52.874810" lon="-3.388013"><ele>804</ele><time>2020-01-18T12:51:18Z</time><name>PT8400</name></trkpt>
<trkpt lat="52.874801" lon="-3.388012"><ele>804</ele><time>2020-01-18T12:51:20Z</time><name>PT8401</name></trkpt>
<trkpt lat="52.874793" lon="-3.388010"><ele>804</ele><time>2020-01-18T12:51:20Z</time><name>PT8402</name></trkpt>
<trkpt lat="52.874784" lon="-3.388007"><ele>804</ele><time>2020-01-18T12:51:21Z</time><name>PT8403</name></trkpt>
<trkpt lat="52.874776" lon="-3.388004"><ele>803</ele><time>2020-01-18T12:51:23Z</time><name>PT8404</name></trkpt>
<trkpt lat="52.874767" lon="-3.387999"><ele>803</ele><time>2020-01-18T12:51:23Z</time><name>PT8405</name></trkpt>
<trkpt lat="52.874758" lon="-3.387996"><ele>802</ele><time>2020-01-18T12:51:24Z</time><name>PT8406</name></trkpt>
<trkpt lat="52.874749" lon="-3.387993"><ele>802</ele><time>2020-01-18T12:51:26Z</time><name>PT8407</name></trkpt>
<trkpt lat="52.874740" lon="-3.387992"><ele>802</ele><time>2020-01-18T12:51:26Z</time><name>PT8408</name></trkpt>
<trkpt lat="52.874732" lon="-3.387989"><ele>802</ele><time>2020-01-18T12:51:27Z</time><name>PT8409</name></trkpt>
<trkpt lat="52.874726" lon="-3.387989"><ele>802</ele><time>2020-01-18T12:51:29Z</time><name>PT8410</name></trkpt>
<trkpt lat="52.874718" lon="-3.387987"><ele>801</ele><time>2020-01-18T12:51:29Z</time><name>PT8411</name></trkpt>
<trkpt lat="52.874709" lon="-3.387983"><ele>801</ele><time>2020-01-18T12:51:30Z</time><name>PT8412</name></trkpt>
<trkpt lat="52.874699" lon="-3.387973"><ele>801</ele><time>2020-01-18T12:51:32Z</time><name>PT8413</name></trkpt>
<trkpt lat="52.874688" lon="-3.387965"><ele>801</ele><time>2020-01-18T12:51:32Z</time><name>PT8414</name></trkpt>
<trkpt lat="52.874679" lon="-3.387963"><ele>801</ele><time>2020-01-18T12:51:33Z</time><name>PT8415</name></trkpt>
<trkpt lat="52.874671" lon="-3.387962"><ele>801</ele><time>2020-01-18T12:51:35Z</time><name>PT8416</name></trkpt>
<trkpt lat="52.874663" lon="-3.387959"><ele>801</ele><time>2020-01-18T12:51:35Z</time><name>PT8417</name></trkpt>
<trkpt lat="52.874654" lon="-3.387955"><ele>801</ele><time>2020-01-18T12:51:37Z</time><name>PT8418</name></trkpt>
<trkpt lat="52.874644" lon="-3.387947"><ele>801</ele><time>2020-01-18T12:51:38Z</time><name>PT8419</name></trkpt>
<trkpt lat="52.874637" lon="-3.387942"><ele>800</ele><time>2020-01-18T12:51:38Z</time><name>PT8420</name></trkpt>
<trkpt lat="52.874628" lon="-3.387936"><ele>800</ele><time>2020-01-18T12:51:39Z</time><name>PT8421</name></trkpt>
<trkpt lat="52.874617" lon="-3.387928"><ele>800</ele><time>2020-01-18T12:51:41Z</time><name>PT8422</name></trkpt>
<trkpt lat="52.874608" lon="-3.387922"><ele>799</ele><time>2020-01-18T12:51:41Z</time><name>PT8423</name></trkpt>
<trkpt lat="52.874600" lon="-3.387912"><ele>799</ele><time>2020-01-18T12:51:42Z</time><name>PT8424</name></trkpt>
<trkpt lat="52.874592" lon="-3.387907"><ele>799</ele><time>2020-01-18T12:51:44Z</time><name>PT8425</name></trkpt>
<trkpt lat="52.874583" lon="-3.387903"><ele>798</ele><time>2020-01-18T12:51:44Z</time><name>PT8426</name></trkpt>
<trkpt lat="52.874573" lon="-3.387893"><ele>798</ele><time>2020-01-18T12:51:45Z</time><name>PT8427</name></trkpt>
<trkpt lat="52.874564" lon="-3.387888"><ele>798</ele><time>2020-01-18T12:51:47Z</time><name>PT8428</name></trkpt>
<trkpt lat="52.874556" lon="-3.387889"><ele>797</ele><time>2020-01-18T12:51:47Z</time><name>PT8429</name></trkpt>
<trkpt lat="52.874550" lon="-3.387892"><ele>796</ele><time>2020-01-18T12:51:48Z</time><name>PT8430</name></trkpt>
<trkpt lat="52.874540" lon="-3.387886"><ele>796</ele><time>2020-01-18T12:51:50Z</time><name>PT8431</name></trkpt>
<trkpt lat="52.874532" lon="-3.387880"><ele>796</ele><time>2020-01-18T12:51:50Z</time><name>PT8432</name></trkpt>
<trkpt lat="52.874523" lon="-3.387872"><ele>796</ele><time>2020-01-18T12:51:51Z</time><name>PT8433</name></trkpt>
<trkpt lat="52.874515" lon="-3.387865"><ele>796</ele><time>2020-01-18T12:51:53Z</time><name>PT8434</name></trkpt>
<trkpt lat="52.874510" lon="-3.387864"><ele>795</ele><time>2020-01-18T12:51:53Z</time><name>PT8435</name></trkpt>
<trkpt lat="52.874501" lon="-3.387860"><ele>795</ele><time>2020-01-18T12:51:54Z</time><name>PT8436</name></trkpt>
<trkpt lat="52.874492" lon="-3.387855"><ele>794</ele><time>2020-01-18T12:51:56Z</time><name>PT8437</name></trkpt>
<trkpt lat="52.874485" lon="-3.387856"><ele>794</ele><time>2020-01-18T12:51:56Z</time><name>PT8438</name></trkpt>
<trkpt lat="52.874479" lon="-3.387859"><ele>793</ele><time>2020-01-18T12:51:57Z</time><name>PT8439</name></trkpt>
<trkpt lat="52.874470" lon="-3.387857"><ele>793</ele><time>2020-01-18T12:51:59Z</time><name>PT8440</name></trkpt>
<trkpt lat="52.874463" lon="-3.387856"><ele>793</ele><time>2020-01-18T12:51:59Z</time><name>PT8441</name></trkpt>
<trkpt lat="52.874461" lon="-3.387858"><ele>792</ele><time>2020-01-18T12:52:01Z</time><name>PT8442</name></trkpt>
<trkpt lat="52.874453" lon="-3.387852"><ele>792</ele><time>2020-01-18T12:52:02Z</time><name>PT8443</name></trkpt>
<trkpt lat="52.874443" lon="-3.387845"><ele>792</ele><time>2020-01-18T12:52:02Z</time><name>PT8444</name></trkpt>
<trkpt lat="52.874435" lon="-3.387840"><ele>792</ele><time>2020-01-18T12:52:03Z</time><name>PT8445</name></trkpt>
<trkpt lat="52.874425" lon="-3.387832"><ele>792</ele><time>2020-01-18T12:52:05Z</time><name>PT8446</name></trkpt>
<trkpt lat="52.874417" lon="-3.387824"><ele>791</ele><time>2020-01-18T12:52:05Z</time><name>PT8447</name></trkpt>
<trkpt lat="52.874411" lon="-3.387819"><ele>791</ele><time>2020-01-18T12:52:06Z</time><name>PT8448</name></trkpt>
<trkpt lat="52.874404" lon="-3.387814"><ele>791</ele><time>2020-01-18T12:52:08Z</time><name>PT8449</name></trkpt>
<trkpt lat="52.874396" lon="-3.387808"><ele>790</ele><time>2020-01-18T12:52:08Z</time><name>PT8450</name></trkpt>
<trkpt lat="52.874388" lon="-3.387801"><ele>791</ele><time>2020-01-18T12:52:09Z</time><name>PT8451</name></trkpt>
<trkpt lat="52.874380" lon="-3.387797"><ele>790</ele><time>2020-01-18T12:52:11Z</time><name>PT8452</name></trkpt>
<trkpt lat="52.874373" lon="-3.387795"><ele>790</ele><time>2020-01-18T12:52:11Z</time><name>PT8453</name></trkpt>
<trkpt lat="52.874365" lon="-3.387792"><ele>790</ele><time>2020-01-18T12:52:12Z</time><name>PT8454</name></trkpt>
<trkpt lat="52.874356" lon="-3.387792"><ele>790</ele><time>2020-01-18T12:52:14Z</time><name>PT8455</name></trkpt>
<trkpt lat="52.874348" lon="-3.387791"><ele>790</ele><time>2020-01-18T12:52:14Z</time><name>PT8456</name></trkpt>
<trkpt lat="52.874340" lon="-3.387787"><ele>790</ele><time>2020-01-18T12:52:15Z</time><name>PT8457</name></trkpt>
<trkpt lat="52.874332" lon="-3.387787"><ele>790</ele><time>2020-01-18T12:52:17Z</time><name>PT8458</name></trkpt>
<trkpt lat="52.874328" lon="-3.387788"><ele>790</ele><time>2020-01-18T12:52:17Z</time><name>PT8459</name></trkpt>
<trkpt lat="52.874325" lon="-3.387785"><ele>790</ele><time>2020-01-18T12:52:18Z</time><name>PT8460</name></trkpt>
<trkpt lat="52.874320" lon="-3.387781"><ele>790</ele><time>2020-01-18T12:52:20Z</time><name>PT8461</name></trkpt>
<trkpt lat="52.874318" lon="-3.387784"><ele>789</ele><time>2020-01-18T12:52:23Z</time><name>PT8462</name></trkpt>
<trkpt lat="52.874311" lon="-3.387774"><ele>789</ele><time>2020-01-18T12:52:25Z</time><name>PT8463</name></trkpt>
<trkpt lat="52.874304" lon="-3.387770"><ele>788</ele><time>2020-01-18T12:52:26Z</time><name>PT8464</name></trkpt>
<trkpt lat="52.874297" lon="-3.387768"><ele>788</ele><time>2020-01-18T12:52:27Z</time><name>PT8465</name></trkpt>
<trkpt lat="52.874289" lon="-3.387758"><ele>788</ele><time>2020-01-18T12:52:27Z</time><name>PT8466</name></trkpt>
<trkpt lat="52.874280" lon="-3.387751"><ele>787</ele><time>2020-01-18T12:52:29Z</time><name>PT8467</name></trkpt>
<trkpt lat="52.874275" lon="-3.387754"><ele>787</ele><time>2020-01-18T12:52:29Z</time><name>PT8468</name></trkpt>
<trkpt lat="52.874264" lon="-3.387755"><ele>786</ele><time>2020-01-18T12:52:30Z</time><name>PT8469</name></trkpt>
<trkpt lat="52.874259" lon="-3.387763"><ele>786</ele><time>2020-01-18T12:52:32Z</time><name>PT8470</name></trkpt>
<trkpt lat="52.874260" lon="-3.387773"><ele>786</ele><time>2020-01-18T12:52:32Z</time><name>PT8471</name></trkpt>
<trkpt lat="52.874253" lon="-3.387773"><ele>786</ele><time>2020-01-18T12:52:33Z</time><name>PT8472</name></trkpt>
<trkpt lat="52.874245" lon="-3.387771"><ele>786</ele><time>2020-01-18T12:52:35Z</time><name>PT8473</name></trkpt>
<trkpt lat="52.874239" lon="-3.387773"><ele>786</ele><time>2020-01-18T12:52:35Z</time><name>PT8474</name></trkpt>
<trkpt lat="52.874234" lon="-3.387771"><ele>785</ele><time>2020-01-18T12:52:37Z</time><name>PT8475</name></trkpt>
<trkpt lat="52.874232" lon="-3.387769"><ele>785</ele><time>2020-01-18T12:52:38Z</time><name>PT8476</name></trkpt>
<trkpt lat="52.874228" lon="-3.387766"><ele>785</ele><time>2020-01-18T12:52:38Z</time><name>PT8477</name></trkpt>
<trkpt lat="52.874225" lon="-3.387764"><ele>785</ele><time>2020-01-18T12:52:40Z</time><name>PT8478</name></trkpt>
<trkpt lat="52.874220" lon="-3.387761"><ele>785</ele><time>2020-01-18T12:52:45Z</time><name>PT8479</name></trkpt>
<trkpt lat="52.874203" lon="-3.387752"><ele>785</ele><time>2020-01-18T12:52:47Z</time><name>PT8480</name></trkpt>
<trkpt lat="52.874194" lon="-3.387746"><ele>785</ele><time>2020-01-18T12:52:47Z</time><name>PT8481</name></trkpt>
<trkpt lat="52.874186" lon="-3.387738"><ele>785</ele><time>2020-01-18T12:52:48Z</time><name>PT8482</name></trkpt>
<trkpt lat="52.874178" lon="-3.387734"><ele>785</ele><time>2020-01-18T12:52:50Z</time><name>PT8483</name></trkpt>
<trkpt lat="52.874171" lon="-3.387728"><ele>785</ele><time>2020-01-18T12:52:50Z</time><name>PT8484</name></trkpt>
<trkpt lat="52.874164" lon="-3.387720"><ele>785</ele><time>2020-01-18T12:52:51Z</time><name>PT8485</name></trkpt>
<trkpt lat="52.874157" lon="-3.387718"><ele>784</ele><time>2020-01-18T12:52:53Z</time><name>PT8486</name></trkpt>
<trkpt lat="52.874151" lon="-3.387717"><ele>784</ele><time>2020-01-18T12:52:53Z</time><name>PT8487</name></trkpt>
<trkpt lat="52.874142" lon="-3.387709"><ele>783</ele><time>2020-01-18T12:52:55Z</time><name>PT8488</name></trkpt>
<trkpt lat="52.874133" lon="-3.387706"><ele>783</ele><time>2020-01-18T12:52:56Z</time><name>PT8489</name></trkpt>
<trkpt lat="52.874129" lon="-3.387703"><ele>783</ele><time>2020-01-18T12:52:56Z</time><name>PT8490</name></trkpt>
<trkpt lat="52.874122" lon="-3.387696"><ele>783</ele><time>2020-01-18T12:52:57Z</time><name>PT8491</name></trkpt>
<trkpt lat="52.874114" lon="-3.387686"><ele>783</ele><time>2020-01-18T12:52:59Z</time><name>PT8492</name></trkpt>
<trkpt lat="52.874109" lon="-3.387679"><ele>783</ele><time>2020-01-18T12:53:00Z</time><name>PT8493</name></trkpt>
<trkpt lat="52.874103" lon="-3.387670"><ele>782</ele><time>2020-01-18T12:53:01Z</time><name>PT8494</name></trkpt>
<trkpt lat="52.874099" lon="-3.387665"><ele>782</ele><time>2020-01-18T12:53:02Z</time><name>PT8495</name></trkpt>
<trkpt lat="52.874096" lon="-3.387660"><ele>782</ele><time>2020-01-18T12:53:02Z</time><name>PT8496</name></trkpt>
<trkpt lat="52.874091" lon="-3.387656"><ele>782</ele><time>2020-01-18T12:53:03Z</time><name>PT8497</name></trkpt>
<trkpt lat="52.874087" lon="-3.387650"><ele>782</ele><time>2020-01-18T12:53:05Z</time><name>PT8498</name></trkpt>
<trkpt lat="52.874081" lon="-3.387645"><ele>781</ele><time>2020-01-18T12:53:05Z</time><name>PT8499</name></trkpt>
<trkpt lat="52.874073" lon="-3.387642"><ele>781</ele><time>2020-01-18T12:53:06Z</time><name>PT8500</name></trkpt>
<trkpt lat="52.874067" lon="-3.387642"><ele>781</ele><time>2020-01-18T12:53:08Z</time><name>PT8501</name></trkpt>
<trkpt lat="52.874063" lon="-3.387638"><ele>780</ele><time>2020-01-18T12:53:08Z</time><name>PT8502</name></trkpt>
<trkpt lat="52.874057" lon="-3.387633"><ele>780</ele><time>2020-01-18T12:53:09Z</time><name>PT8503</name></trkpt>
<trkpt lat="52.874050" lon="-3.387629"><ele>780</ele><time>2020-01-18T12:53:11Z</time><name>PT8504</name></trkpt>
<trkpt lat="52.874046" lon="-3.387629"><ele>779</ele><time>2020-01-18T12:53:11Z</time><name>PT8505</name></trkpt>
<trkpt lat="52.874040" lon="-3.387625"><ele>779</ele><time>2020-01-18T12:53:12Z</time><name>PT8506</name></trkpt>
<trkpt lat="52.874032" lon="-3.387621"><ele>779</ele><time>2020-01-18T12:53:14Z</time><name>PT8507</name></trkpt>
<trkpt lat="52.874024" lon="-3.387619"><ele>778</ele><time>2020-01-18T12:53:14Z</time><name>PT8508</name></trkpt>
<trkpt lat="52.874018" lon="-3.387627"><ele>779</ele><time>2020-01-18T12:53:15Z</time><name>PT8509</name></trkpt>
<trkpt lat="52.874013" lon="-3.387625"><ele>779</ele><time>2020-01-18T12:53:17Z</time><name>PT8510</name></trkpt>
<trkpt lat="52.874009" lon="-3.387619"><ele>779</ele><time>2020-01-18T12:53:17Z</time><name>PT8511</name></trkpt>
<trkpt lat="52.874005" lon="-3.387612"><ele>779</ele><time>2020-01-18T12:53:18Z</time><name>PT8512</name></trkpt>
<trkpt lat="52.874001" lon="-3.387611"><ele>779</ele><time>2020-01-18T12:53:20Z</time><name>PT8513</name></trkpt>
<trkpt lat="52.873995" lon="-3.387607"><ele>779</ele><time>2020-01-18T12:53:20Z</time><name>PT8514</name></trkpt>
<trkpt lat="52.873988" lon="-3.387599"><ele>779</ele><time>2020-01-18T12:53:21Z</time><name>PT8515</name></trkpt>
<trkpt lat="52.873979" lon="-3.387592"><ele>779</ele><time>2020-01-18T12:53:23Z</time><name>PT8516</name></trkpt>
<trkpt lat="52.873970" lon="-3.387591"><ele>778</ele><time>2020-01-18T12:53:23Z</time><name>PT8517</name></trkpt>
<trkpt lat="52.873962" lon="-3.387589"><ele>778</ele><time>2020-01-18T12:53:25Z</time><name>PT8518</name></trkpt>
<trkpt lat="52.873955" lon="-3.387589"><ele>777</ele><time>2020-01-18T12:53:26Z</time><name>PT8519</name></trkpt>
<trkpt lat="52.873949" lon="-3.387590"><ele>777</ele><time>2020-01-18T12:53:26Z</time><name>PT8520</name></trkpt>
<trkpt lat="52.873940" lon="-3.387590"><ele>777</ele><time>2020-01-18T12:53:27Z</time><name>PT8521</name></trkpt>
<trkpt lat="52.873933" lon="-3.387591"><ele>777</ele><time>2020-01-18T12:53:29Z</time><name>PT8522</name></trkpt>
<trkpt lat="52.873925" lon="-3.387589"><ele>776</ele><time>2020-01-18T12:53:29Z</time><name>PT8523</name></trkpt>
<trkpt lat="52.873920" lon="-3.387589"><ele>776</ele><time>2020-01-18T12:53:30Z</time><name>PT8524</name></trkpt>
<trkpt lat="52.873915" lon="-3.387591"><ele>776</ele><time>2020-01-18T12:53:32Z</time><name>PT8525</name></trkpt>
<trkpt lat="52.873908" lon="-3.387586"><ele>776</ele><time>2020-01-18T12:53:32Z</time><name>PT8526</name></trkpt>
<trkpt lat="52.873903" lon="-3.387580"><ele>776</ele><time>2020-01-18T12:53:33Z</time><name>PT8527</name></trkpt>
<trkpt lat="52.873898" lon="-3.387575"><ele>776</ele><time>2020-01-18T12:53:35Z</time><name>PT8528</name></trkpt>
<trkpt lat="52.873890" lon="-3.387572"><ele>775</ele><time>2020-01-18T12:53:35Z</time><name>PT8529</name></trkpt>
<trkpt lat="52.873883" lon="-3.387573"><ele>775</ele><time>2020-01-18T12:53:36Z</time><name>PT8530</name></trkpt>
<trkpt lat="52.873877" lon="-3.387575"><ele>775</ele><time>2020-01-18T12:53:38Z</time><name>PT8531</name></trkpt>
<trkpt lat="52.873871" lon="-3.387578"><ele>775</ele><time>2020-01-18T12:53:38Z</time><name>PT8532</name></trkpt>
<trkpt lat="52.873865" lon="-3.387582"><ele>774</ele><time>2020-01-18T12:53:39Z</time><name>PT8533</name></trkpt>
<trkpt lat="52.873859" lon="-3.387586"><ele>774</ele><time>2020-01-18T12:53:41Z</time><name>PT8534</name></trkpt>
<trkpt lat="52.873856" lon="-3.387589"><ele>774</ele><time>2020-01-18T12:53:41Z</time><name>PT8535</name></trkpt>
<trkpt lat="52.873849" lon="-3.387589"><ele>774</ele><time>2020-01-18T12:53:42Z</time><name>PT8536</name></trkpt>
<trkpt lat="52.873844" lon="-3.387589"><ele>773</ele><time>2020-01-18T12:53:44Z</time><name>PT8537</name></trkpt>
<trkpt lat="52.873840" lon="-3.387590"><ele>773</ele><time>2020-01-18T12:53:44Z</time><name>PT8538</name></trkpt>
<trkpt lat="52.873837" lon="-3.387590"><ele>772</ele><time>2020-01-18T12:53:45Z</time><name>PT8539</name></trkpt>
<trkpt lat="52.873832" lon="-3.387592"><ele>772</ele><time>2020-01-18T12:53:47Z</time><name>PT8540</name></trkpt>
<trkpt lat="52.873826" lon="-3.387596"><ele>771</ele><time>2020-01-18T12:53:47Z</time><name>PT8541</name></trkpt>
<trkpt lat="52.873821" lon="-3.387595"><ele>771</ele><time>2020-01-18T12:53:48Z</time><name>PT8542</name></trkpt>
<trkpt lat="52.873818" lon="-3.387599"><ele>770</ele><time>2020-01-18T12:53:50Z</time><name>PT8543</name></trkpt>
<trkpt lat="52.873813" lon="-3.387600"><ele>770</ele><time>2020-01-18T12:53:50Z</time><name>PT8544</name></trkpt>
<trkpt lat="52.873810" lon="-3.387600"><ele>770</ele><time>2020-01-18T12:53:51Z</time><name>PT8545</name></trkpt>
<trkpt lat="52.873806" lon="-3.387603"><ele>769</ele><time>2020-01-18T12:53:53Z</time><name>PT8546</name></trkpt>
<trkpt lat="52.873799" lon="-3.387606"><ele>769</ele><time>2020-01-18T12:53:53Z</time><name>PT8547</name></trkpt>
<trkpt lat="52.873794" lon="-3.387609"><ele>769</ele><time>2020-01-18T12:53:54Z</time><name>PT8548</name></trkpt>
<trkpt lat="52.873787" lon="-3.387612"><ele>769</ele><time>2020-01-18T12:53:56Z</time><name>PT8549</name></trkpt>
<trkpt lat="52.873783" lon="-3.387618"><ele>769</ele><time>2020-01-18T12:53:56Z</time><name>PT8550</name></trkpt>
<trkpt lat="52.873780" lon="-3.387625"><ele>769</ele><time>2020-01-18T12:53:57Z</time><name>PT8551</name></trkpt>
<trkpt lat="52.873775" lon="-3.387630"><ele>769</ele><time>2020-01-18T12:53:59Z</time><name>PT8552</name></trkpt>
<trkpt lat="52.873771" lon="-3.387637"><ele>769</ele><time>2020-01-18T12:53:59Z</time><name>PT8553</name></trkpt>
<trkpt lat="52.873768" lon="-3.387642"><ele>769</ele><time>2020-01-18T12:54:00Z</time><name>PT8554</name></trkpt>
<trkpt lat="52.873764" lon="-3.387651"><ele>769</ele><time>2020-01-18T12:54:02Z</time><name>PT8555</name></trkpt>
<trkpt lat="52.873761" lon="-3.387661"><ele>768</ele><time>2020-01-18T12:54:02Z</time><name>PT8556</name></trkpt>
<trkpt lat="52.873758" lon="-3.387664"><ele>768</ele><time>2020-01-18T12:54:03Z</time><name>PT8557</name></trkpt>
<trkpt lat="52.873752" lon="-3.387670"><ele>768</ele><time>2020-01-18T12:54:05Z</time><name>PT8558</name></trkpt>
<trkpt lat="52.873746" lon="-3.387683"><ele>768</ele><time>2020-01-18T12:54:05Z</time><name>PT8559</name></trkpt>
<trkpt lat="52.873744" lon="-3.387698"><ele>768</ele><time>2020-01-18T12:54:06Z</time><name>PT8560</name></trkpt>
<trkpt lat="52.873740" lon="-3.387712"><ele>768</ele><time>2020-01-18T12:54:08Z</time><name>PT8561</name></trkpt>
<trkpt lat="52.873734" lon="-3.387725"><ele>767</ele><time>2020-01-18T12:54:08Z</time><name>PT8562</name></trkpt>
<trkpt lat="52.873729" lon="-3.387734"><ele>767</ele><time>2020-01-18T12:54:09Z</time><name>PT8563</name></trkpt>
<trkpt lat="52.873724" lon="-3.387741"><ele>766</ele><time>2020-01-18T12:54:11Z</time><name>PT8564</name></trkpt>
<trkpt lat="52.873716" lon="-3.387744"><ele>767</ele><time>2020-01-18T12:54:11Z</time><name>PT8565</name></trkpt>
<trkpt lat="52.873710" lon="-3.387744"><ele>766</ele><time>2020-01-18T12:54:12Z</time><name>PT8566</name></trkpt>
<trkpt lat="52.873705" lon="-3.387748"><ele>766</ele><time>2020-01-18T12:54:14Z</time><name>PT8567</name></trkpt>
<trkpt lat="52.873697" lon="-3.387747"><ele>766</ele><time>2020-01-18T12:54:14Z</time><name>PT8568</name></trkpt>
<trkpt lat="52.873692" lon="-3.387744"><ele>765</ele><time>2020-01-18T12:54:15Z</time><name>PT8569</name></trkpt>
<trkpt lat="52.873685" lon="-3.387744"><ele>765</ele><time>2020-01-18T12:54:17Z</time><name>PT8570</name></trkpt>
<trkpt lat="52.873680" lon="-3.387743"><ele>765</ele><time>2020-01-18T12:54:17Z</time><name>PT8571</name></trkpt>
<trkpt lat="52.873673" lon="-3.387735"><ele>764</ele><time>2020-01-18T12:54:18Z</time><name>PT8572</name></trkpt>
<trkpt lat="52.873669" lon="-3.387728"><ele>764</ele><time>2020-01-18T12:54:20Z</time><name>PT8573</name></trkpt>
<trkpt lat="52.873663" lon="-3.387724"><ele>764</ele><time>2020-01-18T12:54:20Z</time><name>PT8574</name></trkpt>
<trkpt lat="52.873654" lon="-3.387717"><ele>763</ele><time>2020-01-18T12:54:21Z</time><name>PT8575</name></trkpt>
<trkpt lat="52.873650" lon="-3.387716"><ele>763</ele><time>2020-01-18T12:54:23Z</time><name>PT8576</name></trkpt>
<trkpt lat="52.873644" lon="-3.387711"><ele>763</ele><time>2020-01-18T12:54:23Z</time><name>PT8577</name></trkpt>
<trkpt lat="52.873637" lon="-3.387702"><ele>762</ele><time>2020-01-18T12:54:24Z</time><name>PT8578</name></trkpt>
<trkpt lat="52.873632" lon="-3.387703"><ele>762</ele><time>2020-01-18T12:54:26Z</time><name>PT8579</name></trkpt>
<trkpt lat="52.873627" lon="-3.387705"><ele>762</ele><time>2020-01-18T12:54:26Z</time><name>PT8580</name></trkpt>
<trkpt lat="52.873625" lon="-3.387714"><ele>761</ele><time>2020-01-18T12:54:27Z</time><name>PT8581</name></trkpt>
<trkpt lat="52.873620" lon="-3.387729"><ele>761</ele><time>2020-01-18T12:54:29Z</time><name>PT8582</name></trkpt>
<trkpt lat="52.873615" lon="-3.387737"><ele>761</ele><time>2020-01-18T12:54:29Z</time><name>PT8583</name></trkpt>
<trkpt lat="52.873607" lon="-3.387741"><ele>761</ele><time>2020-01-18T12:54:30Z</time><name>PT8584</name></trkpt>
<trkpt lat="52.873602" lon="-3.387742"><ele>761</ele><time>2020-01-18T12:54:32Z</time><name>PT8585</name></trkpt>
<trkpt lat="52.873596" lon="-3.387741"><ele>760</ele><time>2020-01-18T12:54:32Z</time><name>PT8586</name></trkpt>
<trkpt lat="52.873590" lon="-3.387737"><ele>760</ele><time>2020-01-18T12:54:33Z</time><name>PT8587</name></trkpt>
<trkpt lat="52.873584" lon="-3.387732"><ele>759</ele><time>2020-01-18T12:54:35Z</time><name>PT8588</name></trkpt>
<trkpt lat="52.873577" lon="-3.387729"><ele>759</ele><time>2020-01-18T12:54:35Z</time><name>PT8589</name></trkpt>
<trkpt lat="52.873569" lon="-3.387728"><ele>759</ele><time>2020-01-18T12:54:36Z</time><name>PT8590</name></trkpt>
<trkpt lat="52.873561" lon="-3.387728"><ele>759</ele><time>2020-01-18T12:54:38Z</time><name>PT8591</name></trkpt>
<trkpt lat="52.873558" lon="-3.387729"><ele>758</ele><time>2020-01-18T12:54:38Z</time><name>PT8592</name></trkpt>
<trkpt lat="52.873550" lon="-3.387728"><ele>758</ele><time>2020-01-18T12:54:40Z</time><name>PT8593</name></trkpt>
<trkpt lat="52.873542" lon="-3.387725"><ele>758</ele><time>2020-01-18T12:54:41Z</time><name>PT8594</name></trkpt>
<trkpt lat="52.873533" lon="-3.387722"><ele>757</ele><time>2020-01-18T12:54:41Z</time><name>PT8595</name></trkpt>
<trkpt lat="52.873525" lon="-3.387720"><ele>757</ele><time>2020-01-18T12:54:42Z</time><name>PT8596</name></trkpt>
<trkpt lat="52.873516" lon="-3.387714"><ele>757</ele><time>2020-01-18T12:54:44Z</time><name>PT8597</name></trkpt>
<trkpt lat="52.873507" lon="-3.387708"><ele>757</ele><time>2020-01-18T12:54:44Z</time><name>PT8598</name></trkpt>
<trkpt lat="52.873497" lon="-3.387704"><ele>757</ele><time>2020-01-18T12:54:45Z</time><name>PT8599</name></trkpt>
<trkpt lat="52.873488" lon="-3.387698"><ele>756</ele><time>2020-01-18T12:54:47Z</time><name>PT8600</name></trkpt>
<trkpt lat="52.873481" lon="-3.387692"><ele>756</ele><time>2020-01-18T12:54:47Z</time><name>PT8601</name></trkpt>
<trkpt lat="52.873471" lon="-3.387687"><ele>756</ele><time>2020-01-18T12:54:48Z</time><name>PT8602</name></trkpt>
<trkpt lat="52.873460" lon="-3.387684"><ele>756</ele><time>2020-01-18T12:54:50Z</time><name>PT8603</name></trkpt>
<trkpt lat="52.873452" lon="-3.387679"><ele>756</ele><time>2020-01-18T12:54:50Z</time><name>PT8604</name></trkpt>
<trkpt lat="52.873443" lon="-3.387675"><ele>755</ele><time>2020-01-18T12:54:51Z</time><name>PT8605</name></trkpt>
<trkpt lat="52.873434" lon="-3.387669"><ele>755</ele><time>2020-01-18T12:54:53Z</time><name>PT8606</name></trkpt>
<trkpt lat="52.873423" lon="-3.387662"><ele>755</ele><time>2020-01-18T12:54:53Z</time><name>PT8607</name></trkpt>
<trkpt lat="52.873413" lon="-3.387655"><ele>755</ele><time>2020-01-18T12:54:54Z</time><name>PT8608</name></trkpt>
<trkpt lat="52.873404" lon="-3.387647"><ele>754</ele><time>2020-01-18T12:54:56Z</time><name>PT8609</name></trkpt>
<trkpt lat="52.873394" lon="-3.387636"><ele>754</ele><time>2020-01-18T12:54:56Z</time><name>PT8610</name></trkpt>
<trkpt lat="52.873387" lon="-3.387625"><ele>754</ele><time>2020-01-18T12:54:57Z</time><name>PT8611</name></trkpt>
<trkpt lat="52.873380" lon="-3.387614"><ele>754</ele><time>2020-01-18T12:54:59Z</time><name>PT8612</name></trkpt>
<trkpt lat="52.873373" lon="-3.387605"><ele>754</ele><time>2020-01-18T12:54:59Z</time><name>PT8613</name></trkpt>
<trkpt lat="52.873366" lon="-3.387600"><ele>754</ele><time>2020-01-18T12:55:01Z</time><name>PT8614</name></trkpt>
<trkpt lat="52.873358" lon="-3.387595"><ele>754</ele><time>2020-01-18T12:55:02Z</time><name>PT8615</name></trkpt>
<trkpt lat="52.873352" lon="-3.387589"><ele>754</ele><time>2020-01-18T12:55:02Z</time><name>PT8616</name></trkpt>
<trkpt lat="52.873346" lon="-3.387580"><ele>755</ele><time>2020-01-18T12:55:03Z</time><name>PT8617</name></trkpt>
<trkpt lat="52.873340" lon="-3.387574"><ele>754</ele><time>2020-01-18T12:55:05Z</time><name>PT8618</name></trkpt>
<trkpt lat="52.873336" lon="-3.387567"><ele>754</ele><time>2020-01-18T12:55:05Z</time><name>PT8619</name></trkpt>
<trkpt lat="52.873334" lon="-3.387563"><ele>754</ele><time>2020-01-18T12:55:06Z</time><name>PT8620</name></trkpt>
<trkpt lat="52.873332" lon="-3.387557"><ele>754</ele><time>2020-01-18T12:55:08Z</time><name>PT8621</name></trkpt>
<trkpt lat="52.873326" lon="-3.387548"><ele>754</ele><time>2020-01-18T12:55:08Z</time><name>PT8622</name></trkpt>
<trkpt lat="52.873316" lon="-3.387542"><ele>753</ele><time>2020-01-18T12:55:09Z</time><name>PT8623</name></trkpt>
<trkpt lat="52.873306" lon="-3.387539"><ele>753</ele><time>2020-01-18T12:55:11Z</time><name>PT8624</name></trkpt>
<trkpt lat="52.873295" lon="-3.387534"><ele>753</ele><time>2020-01-18T12:55:11Z</time><name>PT8625</name></trkpt>
<trkpt lat="52.873284" lon="-3.387527"><ele>752</ele><time>2020-01-18T12:55:12Z</time><name>PT8626</name></trkpt>
<trkpt lat="52.873271" lon="-3.387519"><ele>752</ele><time>2020-01-18T12:55:14Z</time><name>PT8627</name></trkpt>
<trkpt lat="52.873261" lon="-3.387516"><ele>752</ele><time>2020-01-18T12:55:14Z</time><name>PT8628</name></trkpt>
<trkpt lat="52.873248" lon="-3.387509"><ele>752</ele><time>2020-01-18T12:55:15Z</time><name>PT8629</name></trkpt>
<trkpt lat="52.873238" lon="-3.387500"><ele>751</ele><time>2020-01-18T12:55:17Z</time><name>PT8630</name></trkpt>
<trkpt lat="52.873229" lon="-3.387491"><ele>751</ele><time>2020-01-18T12:55:17Z</time><name>PT8631</name></trkpt>
<trkpt lat="52.873222" lon="-3.387487"><ele>751</ele><time>2020-01-18T12:55:18Z</time><name>PT8632</name></trkpt>
<trkpt lat="52.873214" lon="-3.387482"><ele>751</ele><time>2020-01-18T12:55:20Z</time><name>PT8633</name></trkpt>
<trkpt lat="52.873206" lon="-3.387477"><ele>751</ele><time>2020-01-18T12:55:20Z</time><name>PT8634</name></trkpt>
<trkpt lat="52.873199" lon="-3.387473"><ele>750</ele><time>2020-01-18T12:55:21Z</time><name>PT8635</name></trkpt>
<trkpt lat="52.873191" lon="-3.387466"><ele>750</ele><time>2020-01-18T12:55:23Z</time><name>PT8636</name></trkpt>
<trkpt lat="52.873183" lon="-3.387463"><ele>750</ele><time>2020-01-18T12:55:23Z</time><name>PT8637</name></trkpt>
<trkpt lat="52.873176" lon="-3.387461"><ele>749</ele><time>2020-01-18T12:55:24Z</time><name>PT8638</name></trkpt>
<trkpt lat="52.873169" lon="-3.387457"><ele>749</ele><time>2020-01-18T12:55:26Z</time><name>PT8639</name></trkpt>
<trkpt lat="52.873162" lon="-3.387454"><ele>748</ele><time>2020-01-18T12:55:26Z</time><name>PT8640</name></trkpt>
<trkpt lat="52.873157" lon="-3.387449"><ele>748</ele><time>2020-01-18T12:55:27Z</time><name>PT8641</name></trkpt>
<trkpt lat="52.873153" lon="-3.387439"><ele>748</ele><time>2020-01-18T12:55:29Z</time><name>PT8642</name></trkpt>
<trkpt lat="52.873149" lon="-3.387430"><ele>748</ele><time>2020-01-18T12:55:29Z</time><name>PT8643</name></trkpt>
<trkpt lat="52.873146" lon="-3.387422"><ele>748</ele><time>2020-01-18T12:55:30Z</time><name>PT8644</name></trkpt>
<trkpt lat="52.873140" lon="-3.387411"><ele>748</ele><time>2020-01-18T12:55:32Z</time><name>PT8645</name></trkpt>
<trkpt lat="52.873136" lon="-3.387401"><ele>747</ele><time>2020-01-18T12:55:32Z</time><name>PT8646</name></trkpt>
<trkpt lat="52.873132" lon="-3.387388"><ele>748</ele><time>2020-01-18T12:55:33Z</time><name>PT8647</name></trkpt>
<trkpt lat="52.873131" lon="-3.387378"><ele>747</ele><time>2020-01-18T12:55:35Z</time><name>PT8648</name></trkpt>
<trkpt lat="52.873132" lon="-3.387366"><ele>747</ele><time>2020-01-18T12:55:36Z</time><name>PT8649</name></trkpt>
<trkpt lat="52.873133" lon="-3.387356"><ele>748</ele><time>2020-01-18T12:55:37Z</time><name>PT8650</name></trkpt>
<trkpt lat="52.873133" lon="-3.387345"><ele>747</ele><time>2020-01-18T12:55:38Z</time><name>PT8651</name></trkpt>
<trkpt lat="52.873130" lon="-3.387330"><ele>747</ele><time>2020-01-18T12:55:38Z</time><name>PT8652</name></trkpt>
<trkpt lat="52.873127" lon="-3.387321"><ele>747</ele><time>2020-01-18T12:55:39Z</time><name>PT8653</name></trkpt>
<trkpt lat="52.873121" lon="-3.387313"><ele>747</ele><time>2020-01-18T12:55:41Z</time><name>PT8654</name></trkpt>
<trkpt lat="52.873116" lon="-3.387306"><ele>746</ele><time>2020-01-18T12:55:41Z</time><name>PT8655</name></trkpt>
<trkpt lat="52.873109" lon="-3.387295"><ele>746</ele><time>2020-01-18T12:55:42Z</time><name>PT8656</name></trkpt>
<trkpt lat="52.873099" lon="-3.387284"><ele>746</ele><time>2020-01-18T12:55:44Z</time><name>PT8657</name></trkpt>
<trkpt lat="52.873091" lon="-3.387274"><ele>745</ele><time>2020-01-18T12:55:44Z</time><name>PT8658</name></trkpt>
<trkpt lat="52.873084" lon="-3.387268"><ele>745</ele><time>2020-01-18T12:55:45Z</time><name>PT8659</name></trkpt>
<trkpt lat="52.873076" lon="-3.387267"><ele>745</ele><time>2020-01-18T12:55:47Z</time><name>PT8660</name></trkpt>
<trkpt lat="52.873068" lon="-3.387265"><ele>745</ele><time>2020-01-18T12:55:47Z</time><name>PT8661</name></trkpt>
<trkpt lat="52.873061" lon="-3.387261"><ele>745</ele><time>2020-01-18T12:55:48Z</time><name>PT8662</name></trkpt>
<trkpt lat="52.873052" lon="-3.387254"><ele>745</ele><time>2020-01-18T12:55:50Z</time><name>PT8663</name></trkpt>
<trkpt lat="52.873043" lon="-3.387249"><ele>745</ele><time>2020-01-18T12:55:51Z</time><name>PT8664</name></trkpt>
<trkpt lat="52.873036" lon="-3.387249"><ele>745</ele><time>2020-01-18T12:55:52Z</time><name>PT8665</name></trkpt>
<trkpt lat="52.873028" lon="-3.387247"><ele>745</ele><time>2020-01-18T12:55:53Z</time><name>PT8666</name></trkpt>
<trkpt lat="52.873021" lon="-3.387250"><ele>744</ele><time>2020-01-18T12:55:54Z</time><name>PT8667</name></trkpt>
<trkpt lat="52.873017" lon="-3.387251"><ele>744</ele><time>2020-01-18T12:55:55Z</time><name>PT8668</name></trkpt>
<trkpt lat="52.873009" lon="-3.387244"><ele>744</ele><time>2020-01-18T12:55:56Z</time><name>PT8669</name></trkpt>
<trkpt lat="52.873001" lon="-3.387243"><ele>744</ele><time>2020-01-18T12:55:56Z</time><name>PT8670</name></trkpt>
<trkpt lat="52.872995" lon="-3.387243"><ele>743</ele><time>2020-01-18T12:55:57Z</time><name>PT8671</name></trkpt>
<trkpt lat="52.872989" lon="-3.387248"><ele>743</ele><time>2020-01-18T12:55:59Z</time><name>PT8672</name></trkpt>
<trkpt lat="52.872984" lon="-3.387250"><ele>743</ele><time>2020-01-18T12:55:59Z</time><name>PT8673</name></trkpt>
<trkpt lat="52.872978" lon="-3.387248"><ele>743</ele><time>2020-01-18T12:56:00Z</time><name>PT8674</name></trkpt>
<trkpt lat="52.872972" lon="-3.387245"><ele>743</ele><time>2020-01-18T12:56:02Z</time><name>PT8675</name></trkpt>
<trkpt lat="52.872971" lon="-3.387245"><ele>743</ele><time>2020-01-18T12:56:02Z</time><name>PT8676</name></trkpt>
<trkpt lat="52.872971" lon="-3.387245"><ele>743</ele><time>2020-01-18T12:56:03Z</time><name>PT8677</name></trkpt>
<trkpt lat="52.872971" lon="-3.387245"><ele>743</ele><time>2020-01-18T12:56:05Z</time><name>PT8678</name></trkpt>
<trkpt lat="52.872969" lon="-3.387248"><ele>743</ele><time>2020-01-18T12:56:05Z</time><name>PT8679</name></trkpt>
<trkpt lat="52.872965" lon="-3.387255"><ele>742</ele><time>2020-01-18T12:56:06Z</time><name>PT8680</name></trkpt>
<trkpt lat="52.872959" lon="-3.387260"><ele>742</ele><time>2020-01-18T12:56:08Z</time><name>PT8681</name></trkpt>
<trkpt lat="52.872953" lon="-3.387267"><ele>742</ele><time>2020-01-18T12:56:08Z</time><name>PT8682</name></trkpt>
<trkpt lat="52.872950" lon="-3.387273"><ele>741</ele><time>2020-01-18T12:56:09Z</time><name>PT8683</name></trkpt>
<trkpt lat="52.872948" lon="-3.387279"><ele>741</ele><time>2020-01-18T12:56:11Z</time><name>PT8684</name></trkpt>
<trkpt lat="52.872942" lon="-3.387283"><ele>741</ele><time>2020-01-18T12:56:11Z</time><name>PT8685</name></trkpt>
<trkpt lat="52.872938" lon="-3.387290"><ele>741</ele><time>2020-01-18T12:56:12Z</time><name>PT8686</name></trkpt>
<trkpt lat="52.872933" lon="-3.387295"><ele>741</ele><time>2020-01-18T12:56:14Z</time><name>PT8687</name></trkpt>
<trkpt lat="52.872925" lon="-3.387299"><ele>741</ele><time>2020-01-18T12:56:14Z</time><name>PT8688</name></trkpt>
<trkpt lat="52.872917" lon="-3.387300"><ele>740</ele><time>2020-01-18T12:56:15Z</time><name>PT8689</name></trkpt>
<trkpt lat="52.872909" lon="-3.387301"><ele>740</ele><time>2020-01-18T12:56:17Z</time><name>PT8690</name></trkpt>
<trkpt lat="52.872903" lon="-3.387303"><ele>740</ele><time>2020-01-18T12:56:17Z</time><name>PT8691</name></trkpt>
<trkpt lat="52.872898" lon="-3.387303"><ele>739</ele><time>2020-01-18T12:56:18Z</time><name>PT8692</name></trkpt>
<trkpt lat="52.872895" lon="-3.387303"><ele>739</ele><time>2020-01-18T12:56:20Z</time><name>PT8693</name></trkpt>
<trkpt lat="52.872892" lon="-3.387295"><ele>740</ele><time>2020-01-18T12:56:20Z</time><name>PT8694</name></trkpt>
<trkpt lat="52.872889" lon="-3.387289"><ele>739</ele><time>2020-01-18T12:56:21Z</time><name>PT8695</name></trkpt>
<trkpt lat="52.872883" lon="-3.387287"><ele>738</ele><time>2020-01-18T12:56:23Z</time><name>PT8696</name></trkpt>
<trkpt lat="52.872879" lon="-3.387280"><ele>738</ele><time>2020-01-18T12:56:23Z</time><name>PT8697</name></trkpt>
<trkpt lat="52.872875" lon="-3.387273"><ele>738</ele><time>2020-01-18T12:56:24Z</time><name>PT8698</name></trkpt>
<trkpt lat="52.872870" lon="-3.387264"><ele>737</ele><time>2020-01-18T12:56:26Z</time><name>PT8699</name></trkpt>
<trkpt lat="52.872864" lon="-3.387257"><ele>737</ele><time>2020-01-18T12:56:26Z</time><name>PT8700</name></trkpt>
<trkpt lat="52.872860" lon="-3.387250"><ele>737</ele><time>2020-01-18T12:56:27Z</time><name>PT8701</name></trkpt>
<trkpt lat="52.872856" lon="-3.387245"><ele>737</ele><time>2020-01-18T12:56:29Z</time><name>PT8702</name></trkpt>
<trkpt lat="52.872849" lon="-3.387239"><ele>737</ele><time>2020-01-18T12:56:29Z</time><name>PT8703</name></trkpt>
<trkpt lat="52.872842" lon="-3.387233"><ele>736</ele><time>2020-01-18T12:56:30Z</time><name>PT8704</name></trkpt>
<trkpt lat="52.872834" lon="-3.387231"><ele>736</ele><time>2020-01-18T12:56:32Z</time><name>PT8705</name></trkpt>
<trkpt lat="52.872829" lon="-3.387232"><ele>736</ele><time>2020-01-18T12:56:32Z</time><name>PT8706</name></trkpt>
<trkpt lat="52.872824" lon="-3.387232"><ele>736</ele><time>2020-01-18T12:56:33Z</time><name>PT8707</name></trkpt>
<trkpt lat="52.872820" lon="-3.387232"><ele>736</ele><time>2020-01-18T12:56:35Z</time><name>PT8708</name></trkpt>
<trkpt lat="52.872814" lon="-3.387231"><ele>736</ele><time>2020-01-18T12:56:35Z</time><name>PT8709</name></trkpt>
<trkpt lat="52.872808" lon="-3.387231"><ele>735</ele><time>2020-01-18T12:56:36Z</time><name>PT8710</name></trkpt>
<trkpt lat="52.872803" lon="-3.387232"><ele>735</ele><time>2020-01-18T12:56:38Z</time><name>PT8711</name></trkpt>
<trkpt lat="52.872797" lon="-3.387234"><ele>735</ele><time>2020-01-18T12:56:38Z</time><name>PT8712</name></trkpt>
<trkpt lat="52.872791" lon="-3.387234"><ele>734</ele><time>2020-01-18T12:56:39Z</time><name>PT8713</name></trkpt>
<trkpt lat="52.872785" lon="-3.387236"><ele>735</ele><time>2020-01-18T12:56:41Z</time><name>PT8714</name></trkpt>
<trkpt lat="52.872778" lon="-3.387237"><ele>735</ele><time>2020-01-18T12:56:41Z</time><name>PT8715</name></trkpt>
<trkpt lat="52.872775" lon="-3.387236"><ele>734</ele><time>2020-01-18T12:56:43Z</time><name>PT8716</name></trkpt>
<trkpt lat="52.872769" lon="-3.387230"><ele>734</ele><time>2020-01-18T12:56:44Z</time><name>PT8717</name></trkpt>
<trkpt lat="52.872762" lon="-3.387221"><ele>734</ele><time>2020-01-18T12:56:44Z</time><name>PT8718</name></trkpt>
<trkpt lat="52.872754" lon="-3.387211"><ele>733</ele><time>2020-01-18T12:56:46Z</time><name>PT8719</name></trkpt>
<trkpt lat="52.872747" lon="-3.387203"><ele>733</ele><time>2020-01-18T12:56:47Z</time><name>PT8720</name></trkpt>
<trkpt lat="52.872740" lon="-3.387198"><ele>732</ele><time>2020-01-18T12:56:48Z</time><name>PT8721</name></trkpt>
<trkpt lat="52.872732" lon="-3.387190"><ele>732</ele><time>2020-01-18T12:56:49Z</time><name>PT8722</name></trkpt>
<trkpt lat="52.872724" lon="-3.387179"><ele>731</ele><time>2020-01-18T12:56:50Z</time><name>PT8723</name></trkpt>
<trkpt lat="52.872717" lon="-3.387171"><ele>731</ele><time>2020-01-18T12:56:50Z</time><name>PT8724</name></trkpt>
<trkpt lat="52.872711" lon="-3.387165"><ele>731</ele><time>2020-01-18T12:56:51Z</time><name>PT8725</name></trkpt>
<trkpt lat="52.872704" lon="-3.387161"><ele>730</ele><time>2020-01-18T12:56:53Z</time><name>PT8726</name></trkpt>
<trkpt lat="52.872697" lon="-3.387155"><ele>730</ele><time>2020-01-18T12:56:53Z</time><name>PT8727</name></trkpt>
<trkpt lat="52.872689" lon="-3.387144"><ele>730</ele><time>2020-01-18T12:56:54Z</time><name>PT8728</name></trkpt>
<trkpt lat="52.872681" lon="-3.387134"><ele>730</ele><time>2020-01-18T12:56:56Z</time><name>PT8729</name></trkpt>
<trkpt lat="52.872674" lon="-3.387124"><ele>730</ele><time>2020-01-18T12:56:56Z</time><name>PT8730</name></trkpt>
<trkpt lat="52.872668" lon="-3.387119"><ele>729</ele><time>2020-01-18T12:56:58Z</time><name>PT8731</name></trkpt>
<trkpt lat="52.872663" lon="-3.387116"><ele>729</ele><time>2020-01-18T12:56:59Z</time><name>PT8732</name></trkpt>
<trkpt lat="52.872657" lon="-3.387114"><ele>729</ele><time>2020-01-18T12:56:59Z</time><name>PT8733</name></trkpt>
<trkpt lat="52.872652" lon="-3.387116"><ele>729</ele><time>2020-01-18T12:57:00Z</time><name>PT8734</name></trkpt>
<trkpt lat="52.872646" lon="-3.387114"><ele>729</ele><time>2020-01-18T12:57:02Z</time><name>PT8735</name></trkpt>
<trkpt lat="52.872640" lon="-3.387114"><ele>729</ele><time>2020-01-18T12:57:02Z</time><name>PT8736</name></trkpt>
<trkpt lat="52.872633" lon="-3.387111"><ele>729</ele><time>2020-01-18T12:57:04Z</time><name>PT8737</name></trkpt>
<trkpt lat="52.872625" lon="-3.387107"><ele>729</ele><time>2020-01-18T12:57:05Z</time><name>PT8738</name></trkpt>
<trkpt lat="52.872620" lon="-3.387106"><ele>729</ele><time>2020-01-18T12:57:06Z</time><name>PT8739</name></trkpt>
<trkpt lat="52.872617" lon="-3.387109"><ele>729</ele><time>2020-01-18T12:57:07Z</time><name>PT8740</name></trkpt>
<trkpt lat="52.872611" lon="-3.387112"><ele>729</ele><time>2020-01-18T12:57:08Z</time><name>PT8741</name></trkpt>
<trkpt lat="52.872606" lon="-3.387111"><ele>729</ele><time>2020-01-18T12:57:08Z</time><name>PT8742</name></trkpt>
<trkpt lat="52.872599" lon="-3.387110"><ele>729</ele><time>2020-01-18T12:57:09Z</time><name>PT8743</name></trkpt>
<trkpt lat="52.872595" lon="-3.387109"><ele>729</ele><time>2020-01-18T12:57:11Z</time><name>PT8744</name></trkpt>
<trkpt lat="52.872591" lon="-3.387108"><ele>729</ele><time>2020-01-18T12:57:11Z</time><name>PT8745</name></trkpt>
<trkpt lat="52.872583" lon="-3.387102"><ele>728</ele><time>2020-01-18T12:57:12Z</time><name>PT8746</name></trkpt>
<trkpt lat="52.872578" lon="-3.387101"><ele>728</ele><time>2020-01-18T12:57:14Z</time><name>PT8747</name></trkpt>
<trkpt lat="52.872575" lon="-3.387102"><ele>728</ele><time>2020-01-18T12:57:14Z</time><name>PT8748</name></trkpt>
<trkpt lat="52.872573" lon="-3.387099"><ele>728</ele><time>2020-01-18T12:57:15Z</time><name>PT8749</name></trkpt>
<trkpt lat="52.872570" lon="-3.387098"><ele>728</ele><time>2020-01-18T12:57:17Z</time><name>PT8750</name></trkpt>
<trkpt lat="52.872564" lon="-3.387096"><ele>729</ele><time>2020-01-18T12:57:17Z</time><name>PT8751</name></trkpt>
<trkpt lat="52.872558" lon="-3.387096"><ele>728</ele><time>2020-01-18T12:57:18Z</time><name>PT8752</name></trkpt>
<trkpt lat="52.872551" lon="-3.387093"><ele>729</ele><time>2020-01-18T12:57:20Z</time><name>PT8753</name></trkpt>
<trkpt lat="52.872546" lon="-3.387097"><ele>728</ele><time>2020-01-18T12:57:21Z</time><name>PT8754</name></trkpt>
<trkpt lat="52.872542" lon="-3.387104"><ele>728</ele><time>2020-01-18T12:57:21Z</time><name>PT8755</name></trkpt>
<trkpt lat="52.872534" lon="-3.387115"><ele>728</ele><time>2020-01-18T12:57:23Z</time><name>PT8756</name></trkpt>
<trkpt lat="52.872529" lon="-3.387127"><ele>728</ele><time>2020-01-18T12:57:23Z</time><name>PT8757</name></trkpt>
<trkpt lat="52.872523" lon="-3.387131"><ele>728</ele><time>2020-01-18T12:57:24Z</time><name>PT8758</name></trkpt>
<trkpt lat="52.872518" lon="-3.387131"><ele>728</ele><time>2020-01-18T12:57:26Z</time><name>PT8759</name></trkpt>
<trkpt lat="52.872513" lon="-3.387130"><ele>728</ele><time>2020-01-18T12:57:26Z</time><name>PT8760</name></trkpt>
<trkpt lat="52.872507" lon="-3.387131"><ele>728</ele><time>2020-01-18T12:57:27Z</time><name>PT8761</name></trkpt>
<trkpt lat="52.872500" lon="-3.387135"><ele>728</ele><time>2020-01-18T12:57:29Z</time><name>PT8762</name></trkpt>
<trkpt lat="52.872494" lon="-3.387132"><ele>727</ele><time>2020-01-18T12:57:29Z</time><name>PT8763</name></trkpt>
<trkpt lat="52.872487" lon="-3.387134"><ele>727</ele><time>2020-01-18T12:57:30Z</time><name>PT8764</name></trkpt>
<trkpt lat="52.872479" lon="-3.387137"><ele>727</ele><time>2020-01-18T12:57:32Z</time><name>PT8765</name></trkpt>
<trkpt lat="52.872472" lon="-3.387142"><ele>727</ele><time>2020-01-18T12:57:32Z</time><name>PT8766</name></trkpt>
<trkpt lat="52.872465" lon="-3.387146"><ele>726</ele><time>2020-01-18T12:57:33Z</time><name>PT8767</name></trkpt>
<trkpt lat="52.872459" lon="-3.387148"><ele>726</ele><time>2020-01-18T12:57:35Z</time><name>PT8768</name></trkpt>
<trkpt lat="52.872453" lon="-3.387153"><ele>726</ele><time>2020-01-18T12:57:35Z</time><name>PT8769</name></trkpt>
<trkpt lat="52.872447" lon="-3.387159"><ele>726</ele><time>2020-01-18T12:57:36Z</time><name>PT8770</name></trkpt>
<trkpt lat="52.872440" lon="-3.387162"><ele>726</ele><time>2020-01-18T12:57:38Z</time><name>PT8771</name></trkpt>
<trkpt lat="52.872434" lon="-3.387156"><ele>725</ele><time>2020-01-18T12:57:38Z</time><name>PT8772</name></trkpt>
<trkpt lat="52.872427" lon="-3.387148"><ele>725</ele><time>2020-01-18T12:57:39Z</time><name>PT8773</name></trkpt>
<trkpt lat="52.872420" lon="-3.387143"><ele>724</ele><time>2020-01-18T12:57:41Z</time><name>PT8774</name></trkpt>
<trkpt lat="52.872412" lon="-3.387136"><ele>724</ele><time>2020-01-18T12:57:41Z</time><name>PT8775</name></trkpt>
<trkpt lat="52.872405" lon="-3.387135"><ele>723</ele><time>2020-01-18T12:57:42Z</time><name>PT8776</name></trkpt>
<trkpt lat="52.872399" lon="-3.387133"><ele>723</ele><time>2020-01-18T12:57:44Z</time><name>PT8777</name></trkpt>
<trkpt lat="52.872393" lon="-3.387131"><ele>722</ele><time>2020-01-18T12:57:44Z</time><name>PT8778</name></trkpt>
<trkpt lat="52.872391" lon="-3.387131"><ele>722</ele><time>2020-01-18T12:57:45Z</time><name>PT8779</name></trkpt>
<trkpt lat="52.872387" lon="-3.387137"><ele>722</ele><time>2020-01-18T12:57:47Z</time><name>PT8780</name></trkpt>
<trkpt lat="52.872381" lon="-3.387143"><ele>721</ele><time>2020-01-18T12:57:47Z</time><name>PT8781</name></trkpt>
<trkpt lat="52.872372" lon="-3.387146"><ele>721</ele><time>2020-01-18T12:57:48Z</time><name>PT8782</name></trkpt>
<trkpt lat="52.872366" lon="-3.387145"><ele>721</ele><time>2020-01-18T12:57:50Z</time><name>PT8783</name></trkpt>
<trkpt lat="52.872360" lon="-3.387145"><ele>721</ele><time>2020-01-18T12:57:50Z</time><name>PT8784</name></trkpt>
<trkpt lat="52.872356" lon="-3.387146"><ele>720</ele><time>2020-01-18T12:57:51Z</time><name>PT8785</name></trkpt>
<trkpt lat="52.872349" lon="-3.387144"><ele>720</ele><time>2020-01-18T12:57:53Z</time><name>PT8786</name></trkpt>
<trkpt lat="52.872339" lon="-3.387140"><ele>720</ele><time>2020-01-18T12:57:53Z</time><name>PT8787</name></trkpt>
<trkpt lat="52.872331" lon="-3.387140"><ele>719</ele><time>2020-01-18T12:57:54Z</time><name>PT8788</name></trkpt>
<trkpt lat="52.872326" lon="-3.387143"><ele>719</ele><time>2020-01-18T12:57:56Z</time><name>PT8789</name></trkpt>
<trkpt lat="52.872319" lon="-3.387143"><ele>719</ele><time>2020-01-18T12:57:56Z</time><name>PT8790</name></trkpt>
<trkpt lat="52.872310" lon="-3.387140"><ele>719</ele><time>2020-01-18T12:57:57Z</time><name>PT8791</name></trkpt>
<trkpt lat="52.872301" lon="-3.387136"><ele>718</ele><time>2020-01-18T12:57:59Z</time><name>PT8792</name></trkpt>
<trkpt lat="52.872290" lon="-3.387132"><ele>718</ele><time>2020-01-18T12:57:59Z</time><name>PT8793</name></trkpt>
<trkpt lat="52.872279" lon="-3.387124"><ele>718</ele><time>2020-01-18T12:58:00Z</time><name>PT8794</name></trkpt>
<trkpt lat="52.872270" lon="-3.387116"><ele>718</ele><time>2020-01-18T12:58:02Z</time><name>PT8795</name></trkpt>
<trkpt lat="52.872261" lon="-3.387111"><ele>718</ele><time>2020-01-18T12:58:02Z</time><name>PT8796</name></trkpt>
<trkpt lat="52.872253" lon="-3.387110"><ele>718</ele><time>2020-01-18T12:58:03Z</time><name>PT8797</name></trkpt>
<trkpt lat="52.872246" lon="-3.387108"><ele>718</ele><time>2020-01-18T12:58:05Z</time><name>PT8798</name></trkpt>
<trkpt lat="52.872238" lon="-3.387108"><ele>718</ele><time>2020-01-18T12:58:05Z</time><name>PT8799</name></trkpt>
<trkpt lat="52.872232" lon="-3.387112"><ele>717</ele><time>2020-01-18T12:58:06Z</time><name>PT8800</name></trkpt>
<trkpt lat="52.872226" lon="-3.387116"><ele>717</ele><time>2020-01-18T12:58:08Z</time><name>PT8801</name></trkpt>
<trkpt lat="52.872219" lon="-3.387116"><ele>717</ele><time>2020-01-18T12:58:08Z</time><name>PT8802</name></trkpt>
<trkpt lat="52.872210" lon="-3.387116"><ele>717</ele><time>2020-01-18T12:58:09Z</time><name>PT8803</name></trkpt>
<trkpt lat="52.872205" lon="-3.387118"><ele>716</ele><time>2020-01-18T12:58:11Z</time><name>PT8804</name></trkpt>
<trkpt lat="52.872202" lon="-3.387114"><ele>716</ele><time>2020-01-18T12:58:12Z</time><name>PT8805</name></trkpt>
<trkpt lat="52.872196" lon="-3.387108"><ele>717</ele><time>2020-01-18T12:58:12Z</time><name>PT8806</name></trkpt>
<trkpt lat="52.872190" lon="-3.387111"><ele>716</ele><time>2020-01-18T12:58:14Z</time><name>PT8807</name></trkpt>
<trkpt lat="52.872183" lon="-3.387112"><ele>716</ele><time>2020-01-18T12:58:14Z</time><name>PT8808</name></trkpt>
<trkpt lat="52.872176" lon="-3.387112"><ele>716</ele><time>2020-01-18T12:58:15Z</time><name>PT8809</name></trkpt>
<trkpt lat="52.872168" lon="-3.387114"><ele>716</ele><time>2020-01-18T12:58:17Z</time><name>PT8810</name></trkpt>
<trkpt lat="52.872160" lon="-3.387118"><ele>716</ele><time>2020-01-18T12:58:17Z</time><name>PT8811</name></trkpt>
<trkpt lat="52.872151" lon="-3.387123"><ele>716</ele><time>2020-01-18T12:58:18Z</time><name>PT8812</name></trkpt>
<trkpt lat="52.872142" lon="-3.387126"><ele>717</ele><time>2020-01-18T12:58:20Z</time><name>PT8813</name></trkpt>
<trkpt lat="52.872135" lon="-3.387129"><ele>717</ele><time>2020-01-18T12:58:20Z</time><name>PT8814</name></trkpt>
<trkpt lat="52.872127" lon="-3.387131"><ele>716</ele><time>2020-01-18T12:58:22Z</time><name>PT8815</name></trkpt>
<trkpt lat="52.872121" lon="-3.387132"><ele>717</ele><time>2020-01-18T12:58:23Z</time><name>PT8816</name></trkpt>
<trkpt lat="52.872115" lon="-3.387132"><ele>716</ele><time>2020-01-18T12:58:23Z</time><name>PT8817</name></trkpt>
<trkpt lat="52.872107" lon="-3.387128"><ele>716</ele><time>2020-01-18T12:58:24Z</time><name>PT8818</name></trkpt>
<trkpt lat="52.872097" lon="-3.387119"><ele>716</ele><time>2020-01-18T12:58:26Z</time><name>PT8819</name></trkpt>
<trkpt lat="52.872086" lon="-3.387114"><ele>716</ele><time>2020-01-18T12:58:26Z</time><name>PT8820</name></trkpt>
<trkpt lat="52.872078" lon="-3.387110"><ele>716</ele><time>2020-01-18T12:58:27Z</time><name>PT8821</name></trkpt>
<trkpt lat="52.872073" lon="-3.387107"><ele>715</ele><time>2020-01-18T12:58:29Z</time><name>PT8822</name></trkpt>
<trkpt lat="52.872066" lon="-3.387105"><ele>715</ele><time>2020-01-18T12:58:29Z</time><name>PT8823</name></trkpt>
<trkpt lat="52.872056" lon="-3.387104"><ele>715</ele><time>2020-01-18T12:58:30Z</time><name>PT8824</name></trkpt>
<trkpt lat="52.872047" lon="-3.387100"><ele>715</ele><time>2020-01-18T12:58:32Z</time><name>PT8825</name></trkpt>
<trkpt lat="52.872039" lon="-3.387101"><ele>715</ele><time>2020-01-18T12:58:32Z</time><name>PT8826</name></trkpt>
<trkpt lat="52.872033" lon="-3.387102"><ele>715</ele><time>2020-01-18T12:58:33Z</time><name>PT8827</name></trkpt>
<trkpt lat="52.872027" lon="-3.387103"><ele>715</ele><time>2020-01-18T12:58:35Z</time><name>PT8828</name></trkpt>
<trkpt lat="52.872020" lon="-3.387104"><ele>715</ele><time>2020-01-18T12:58:35Z</time><name>PT8829</name></trkpt>
<trkpt lat="52.872013" lon="-3.387105"><ele>714</ele><time>2020-01-18T12:58:37Z</time><name>PT8830</name></trkpt>
<trkpt lat="52.872007" lon="-3.387103"><ele>714</ele><time>2020-01-18T12:58:38Z</time><name>PT8831</name></trkpt>
<trkpt lat="52.872001" lon="-3.387103"><ele>714</ele><time>2020-01-18T12:58:39Z</time><name>PT8832</name></trkpt>
<trkpt lat="52.871993" lon="-3.387111"><ele>714</ele><time>2020-01-18T12:58:40Z</time><name>PT8833</name></trkpt>
<trkpt lat="52.871986" lon="-3.387118"><ele>714</ele><time>2020-01-18T12:58:41Z</time><name>PT8834</name></trkpt>
<trkpt lat="52.871978" lon="-3.387122"><ele>714</ele><time>2020-01-18T12:58:41Z</time><name>PT8835</name></trkpt>
<trkpt lat="52.871971" lon="-3.387122"><ele>714</ele><time>2020-01-18T12:58:42Z</time><name>PT8836</name></trkpt>
<trkpt lat="52.871963" lon="-3.387119"><ele>714</ele><time>2020-01-18T12:58:44Z</time><name>PT8837</name></trkpt>
<trkpt lat="52.871955" lon="-3.387114"><ele>714</ele><time>2020-01-18T12:58:44Z</time><name>PT8838</name></trkpt>
<trkpt lat="52.871947" lon="-3.387110"><ele>714</ele><time>2020-01-18T12:58:45Z</time><name>PT8839</name></trkpt>
<trkpt lat="52.871938" lon="-3.387113"><ele>714</ele><time>2020-01-18T12:58:47Z</time><name>PT8840</name></trkpt>
<trkpt lat="52.871927" lon="-3.387110"><ele>714</ele><time>2020-01-18T12:58:47Z</time><name>PT8841</name></trkpt>
<trkpt lat="52.871917" lon="-3.387106"><ele>714</ele><time>2020-01-18T12:58:48Z</time><name>PT8842</name></trkpt>
<trkpt lat="52.871909" lon="-3.387101"><ele>714</ele><time>2020-01-18T12:58:50Z</time><name>PT8843</name></trkpt>
<trkpt lat="52.871901" lon="-3.387095"><ele>713</ele><time>2020-01-18T12:58:50Z</time><name>PT8844</name></trkpt>
<trkpt lat="52.871894" lon="-3.387092"><ele>713</ele><time>2020-01-18T12:58:51Z</time><name>PT8845</name></trkpt>
<trkpt lat="52.871886" lon="-3.387091"><ele>713</ele><time>2020-01-18T12:58:53Z</time><name>PT8846</name></trkpt>
<trkpt lat="52.871878" lon="-3.387089"><ele>712</ele><time>2020-01-18T12:58:53Z</time><name>PT8847</name></trkpt>
<trkpt lat="52.871870" lon="-3.387087"><ele>712</ele><time>2020-01-18T12:58:54Z</time><name>PT8848</name></trkpt>
<trkpt lat="52.871864" lon="-3.387084"><ele>712</ele><time>2020-01-18T12:58:56Z</time><name>PT8849</name></trkpt>
<trkpt lat="52.871858" lon="-3.387081"><ele>712</ele><time>2020-01-18T12:58:56Z</time><name>PT8850</name></trkpt>
<trkpt lat="52.871848" lon="-3.387080"><ele>712</ele><time>2020-01-18T12:58:57Z</time><name>PT8851</name></trkpt>
<trkpt lat="52.871839" lon="-3.387082"><ele>712</ele><time>2020-01-18T12:58:59Z</time><name>PT8852</name></trkpt>
<trkpt lat="52.871833" lon="-3.387087"><ele>713</ele><time>2020-01-18T12:58:59Z</time><name>PT8853</name></trkpt>
<trkpt lat="52.871826" lon="-3.387093"><ele>712</ele><time>2020-01-18T12:59:00Z</time><name>PT8854</name></trkpt>
<trkpt lat="52.871817" lon="-3.387092"><ele>712</ele><time>2020-01-18T12:59:02Z</time><name>PT8855</name></trkpt>
<trkpt lat="52.871807" lon="-3.387086"><ele>712</ele><time>2020-01-18T12:59:02Z</time><name>PT8856</name></trkpt>
<trkpt lat="52.871797" lon="-3.387082"><ele>712</ele><time>2020-01-18T12:59:03Z</time><name>PT8857</name></trkpt>
<trkpt lat="52.871788" lon="-3.387083"><ele>711</ele><time>2020-01-18T12:59:05Z</time><name>PT8858</name></trkpt>
<trkpt lat="52.871776" lon="-3.387080"><ele>711</ele><time>2020-01-18T12:59:05Z</time><name>PT8859</name></trkpt>
<trkpt lat="52.871767" lon="-3.387080"><ele>711</ele><time>2020-01-18T12:59:06Z</time><name>PT8860</name></trkpt>
<trkpt lat="52.871760" lon="-3.387079"><ele>710</ele><time>2020-01-18T12:59:08Z</time><name>PT8861</name></trkpt>
<trkpt lat="52.871752" lon="-3.387079"><ele>710</ele><time>2020-01-18T12:59:08Z</time><name>PT8862</name></trkpt>
<trkpt lat="52.871745" lon="-3.387077"><ele>710</ele><time>2020-01-18T12:59:09Z</time><name>PT8863</name></trkpt>
<trkpt lat="52.871738" lon="-3.387075"><ele>710</ele><time>2020-01-18T12:59:11Z</time><name>PT8864</name></trkpt>
<trkpt lat="52.871730" lon="-3.387075"><ele>710</ele><time>2020-01-18T12:59:11Z</time><name>PT8865</name></trkpt>
<trkpt lat="52.871721" lon="-3.387074"><ele>710</ele><time>2020-01-18T12:59:12Z</time><name>PT8866</name></trkpt>
<trkpt lat="52.871716" lon="-3.387073"><ele>710</ele><time>2020-01-18T12:59:14Z</time><name>PT8867</name></trkpt>
<trkpt lat="52.871709" lon="-3.387073"><ele>709</ele><time>2020-01-18T12:59:14Z</time><name>PT8868</name></trkpt>
<trkpt lat="52.871701" lon="-3.387073"><ele>709</ele><time>2020-01-18T12:59:15Z</time><name>PT8869</name></trkpt>
<trkpt lat="52.871692" lon="-3.387071"><ele>709</ele><time>2020-01-18T12:59:17Z</time><name>PT8870</name></trkpt>
<trkpt lat="52.871683" lon="-3.387069"><ele>709</ele><time>2020-01-18T12:59:17Z</time><name>PT8871</name></trkpt>
<trkpt lat="52.871676" lon="-3.387067"><ele>709</ele><time>2020-01-18T12:59:18Z</time><name>PT8872</name></trkpt>
<trkpt lat="52.871669" lon="-3.387066"><ele>709</ele><time>2020-01-18T12:59:20Z</time><name>PT8873</name></trkpt>
<trkpt lat="52.871661" lon="-3.387066"><ele>709</ele><time>2020-01-18T12:59:20Z</time><name>PT8874</name></trkpt>
<trkpt lat="52.871653" lon="-3.387064"><ele>709</ele><time>2020-01-18T12:59:22Z</time><name>PT8875</name></trkpt>
<trkpt lat="52.871644" lon="-3.387064"><ele>709</ele><time>2020-01-18T12:59:23Z</time><name>PT8876</name></trkpt>
<trkpt lat="52.871637" lon="-3.387062"><ele>709</ele><time>2020-01-18T12:59:24Z</time><name>PT8877</name></trkpt>
<trkpt lat="52.871629" lon="-3.387061"><ele>708</ele><time>2020-01-18T12:59:25Z</time><name>PT8878</name></trkpt>
<trkpt lat="52.871621" lon="-3.387062"><ele>708</ele><time>2020-01-18T12:59:26Z</time><name>PT8879</name></trkpt>
<trkpt lat="52.871615" lon="-3.387062"><ele>708</ele><time>2020-01-18T12:59:26Z</time><name>PT8880</name></trkpt>
<trkpt lat="52.871608" lon="-3.387066"><ele>705</ele><time>2020-01-18T12:59:27Z</time><name>PT8881</name></trkpt>
<trkpt lat="52.871601" lon="-3.387065"><ele>705</ele><time>2020-01-18T12:59:29Z</time><name>PT8882</name></trkpt>
<trkpt lat="52.871594" lon="-3.387068"><ele>705</ele><time>2020-01-18T12:59:29Z</time><name>PT8883</name></trkpt>
<trkpt lat="52.871583" lon="-3.387063"><ele>705</ele><time>2020-01-18T12:59:30Z</time><name>PT8884</name></trkpt>
<trkpt lat="52.871575" lon="-3.387061"><ele>705</ele><time>2020-01-18T12:59:32Z</time><name>PT8885</name></trkpt>
<trkpt lat="52.871567" lon="-3.387057"><ele>704</ele><time>2020-01-18T12:59:32Z</time><name>PT8886</name></trkpt>
<trkpt lat="52.871561" lon="-3.387053"><ele>704</ele><time>2020-01-18T12:59:33Z</time><name>PT8887</name></trkpt>
<trkpt lat="52.871556" lon="-3.387051"><ele>704</ele><time>2020-01-18T12:59:35Z</time><name>PT8888</name></trkpt>
<trkpt lat="52.871545" lon="-3.387049"><ele>704</ele><time>2020-01-18T12:59:35Z</time><name>PT8889</name></trkpt>
<trkpt lat="52.871537" lon="-3.387050"><ele>704</ele><time>2020-01-18T12:59:36Z</time><name>PT8890</name></trkpt>
<trkpt lat="52.871530" lon="-3.387053"><ele>703</ele><time>2020-01-18T12:59:38Z</time><name>PT8891</name></trkpt>
<trkpt lat="52.871524" lon="-3.387055"><ele>703</ele><time>2020-01-18T12:59:38Z</time><name>PT8892</name></trkpt>
<trkpt lat="52.871514" lon="-3.387055"><ele>703</ele><time>2020-01-18T12:59:39Z</time><name>PT8893</name></trkpt>
<trkpt lat="52.871506" lon="-3.387058"><ele>702</ele><time>2020-01-18T12:59:41Z</time><name>PT8894</name></trkpt>
<trkpt lat="52.871496" lon="-3.387058"><ele>702</ele><time>2020-01-18T12:59:41Z</time><name>PT8895</name></trkpt>
<trkpt lat="52.871487" lon="-3.387055"><ele>702</ele><time>2020-01-18T12:59:42Z</time><name>PT8896</name></trkpt>
<trkpt lat="52.871479" lon="-3.387050"><ele>702</ele><time>2020-01-18T12:59:44Z</time><name>PT8897</name></trkpt>
<trkpt lat="52.871469" lon="-3.387044"><ele>702</ele><time>2020-01-18T12:59:44Z</time><name>PT8898</name></trkpt>
<trkpt lat="52.871459" lon="-3.387038"><ele>702</ele><time>2020-01-18T12:59:45Z</time><name>PT8899</name></trkpt>
<trkpt lat="52.871453" lon="-3.387038"><ele>702</ele><time>2020-01-18T12:59:47Z</time><name>PT8900</name></trkpt>
<trkpt lat="52.871445" lon="-3.387037"><ele>702</ele><time>2020-01-18T12:59:47Z</time><name>PT8901</name></trkpt>
<trkpt lat="52.871436" lon="-3.387037"><ele>702</ele><time>2020-01-18T12:59:48Z</time><name>PT8902</name></trkpt>
<trkpt lat="52.871426" lon="-3.387035"><ele>702</ele><time>2020-01-18T12:59:50Z</time><name>PT8903</name></trkpt>
<trkpt lat="52.871415" lon="-3.387033"><ele>702</ele><time>2020-01-18T12:59:50Z</time><name>PT8904</name></trkpt>
<trkpt lat="52.871407" lon="-3.387031"><ele>702</ele><time>2020-01-18T12:59:51Z</time><name>PT8905</name></trkpt>
<trkpt lat="52.871397" lon="-3.387031"><ele>702</ele><time>2020-01-18T12:59:53Z</time><name>PT8906</name></trkpt>
<trkpt lat="52.871387" lon="-3.387030"><ele>702</ele><time>2020-01-18T12:59:53Z</time><name>PT8907</name></trkpt>
<trkpt lat="52.871374" lon="-3.387028"><ele>701</ele><time>2020-01-18T12:59:55Z</time><name>PT8908</name></trkpt>
<trkpt lat="52.871365" lon="-3.387026"><ele>701</ele><time>2020-01-18T12:59:56Z</time><name>PT8909</name></trkpt>
<trkpt lat="52.871357" lon="-3.387023"><ele>701</ele><time>2020-01-18T12:59:56Z</time><name>PT8910</name></trkpt>
<trkpt lat="52.871349" lon="-3.387023"><ele>701</ele><time>2020-01-18T12:59:57Z</time><name>PT8911</name></trkpt>
<trkpt lat="52.871340" lon="-3.387023"><ele>701</ele><time>2020-01-18T12:59:59Z</time><name>PT8912</name></trkpt>
<trkpt lat="52.871329" lon="-3.387019"><ele>700</ele><time>2020-01-18T12:59:59Z</time><name>PT8913</name></trkpt>
<trkpt lat="52.871318" lon="-3.387013"><ele>700</ele><time>2020-01-18T13:00:00Z</time><name>PT8914</name></trkpt>
<trkpt lat="52.871308" lon="-3.387008"><ele>701</ele><time>2020-01-18T13:00:02Z</time><name>PT8915</name></trkpt>
<trkpt lat="52.871299" lon="-3.387005"><ele>701</ele><time>2020-01-18T13:00:02Z</time><name>PT8916</name></trkpt>
<trkpt lat="52.871292" lon="-3.387007"><ele>700</ele><time>2020-01-18T13:00:03Z</time><name>PT8917</name></trkpt>
<trkpt lat="52.871281" lon="-3.387006"><ele>700</ele><time>2020-01-18T13:00:05Z</time><name>PT8918</name></trkpt>
<trkpt lat="52.871271" lon="-3.387003"><ele>700</ele><time>2020-01-18T13:00:05Z</time><name>PT8919</name></trkpt>
<trkpt lat="52.871263" lon="-3.387001"><ele>700</ele><time>2020-01-18T13:00:06Z</time><name>PT8920</name></trkpt>
<trkpt lat="52.871255" lon="-3.387001"><ele>699</ele><time>2020-01-18T13:00:08Z</time><name>PT8921</name></trkpt>
<trkpt lat="52.871246" lon="-3.387002"><ele>699</ele><time>2020-01-18T13:00:08Z</time><name>PT8922</name></trkpt>
<trkpt lat="52.871238" lon="-3.387000"><ele>699</ele><time>2020-01-18T13:00:09Z</time><name>PT8923</name></trkpt>
<trkpt lat="52.871230" lon="-3.386995"><ele>699</ele><time>2020-01-18T13:00:11Z</time><name>PT8924</name></trkpt>
<trkpt lat="52.871220" lon="-3.386992"><ele>698</ele><time>2020-01-18T13:00:11Z</time><name>PT8925</name></trkpt>
<trkpt lat="52.871206" lon="-3.386983"><ele>698</ele><time>2020-01-18T13:00:12Z</time><name>PT8926</name></trkpt>
<trkpt lat="52.871197" lon="-3.386980"><ele>698</ele><time>2020-01-18T13:00:14Z</time><name>PT8927</name></trkpt>
<trkpt lat="52.871190" lon="-3.386975"><ele>698</ele><time>2020-01-18T13:00:14Z</time><name>PT8928</name></trkpt>
<trkpt lat="52.871179" lon="-3.386980"><ele>696</ele><time>2020-01-18T13:00:15Z</time><name>PT8929</name></trkpt>
<trkpt lat="52.871170" lon="-3.386977"><ele>697</ele><time>2020-01-18T13:00:17Z</time><name>PT8930</name></trkpt>
<trkpt lat="52.871161" lon="-3.386973"><ele>696</ele><time>2020-01-18T13:00:17Z</time><name>PT8931</name></trkpt>
<trkpt lat="52.871153" lon="-3.386971"><ele>696</ele><time>2020-01-18T13:00:19Z</time><name>PT8932</name></trkpt>
<trkpt lat="52.871141" lon="-3.386966"><ele>696</ele><time>2020-01-18T13:00:20Z</time><name>PT8933</name></trkpt>
<trkpt lat="52.871131" lon="-3.386963"><ele>696</ele><time>2020-01-18T13:00:21Z</time><name>PT8934</name></trkpt>
<trkpt lat="52.871121" lon="-3.386956"><ele>696</ele><time>2020-01-18T13:00:22Z</time><name>PT8935</name></trkpt>
<trkpt lat="52.871110" lon="-3.386953"><ele>696</ele><time>2020-01-18T13:00:23Z</time><name>PT8936</name></trkpt>
<trkpt lat="52.871099" lon="-3.386952"><ele>696</ele><time>2020-01-18T13:00:23Z</time><name>PT8937</name></trkpt>
<trkpt lat="52.871090" lon="-3.386953"><ele>696</ele><time>2020-01-18T13:00:24Z</time><name>PT8938</name></trkpt>
<trkpt lat="52.871080" lon="-3.386952"><ele>695</ele><time>2020-01-18T13:00:26Z</time><name>PT8939</name></trkpt>
<trkpt lat="52.871070" lon="-3.386948"><ele>695</ele><time>2020-01-18T13:00:26Z</time><name>PT8940</name></trkpt>
<trkpt lat="52.871058" lon="-3.386944"><ele>695</ele><time>2020-01-18T13:00:27Z</time><name>PT8941</name></trkpt>
<trkpt lat="52.871048" lon="-3.386944"><ele>695</ele><time>2020-01-18T13:00:29Z</time><name>PT8942</name></trkpt>
<trkpt lat="52.871038" lon="-3.386943"><ele>695</ele><time>2020-01-18T13:00:29Z</time><name>PT8943</name></trkpt>
<trkpt lat="52.871028" lon="-3.386941"><ele>695</ele><time>2020-01-18T13:00:30Z</time><name>PT8944</name></trkpt>
<trkpt lat="52.871011" lon="-3.386939"><ele>695</ele><time>2020-01-18T13:00:32Z</time><name>PT8945</name></trkpt>
<trkpt lat="52.870998" lon="-3.386939"><ele>695</ele><time>2020-01-18T13:00:32Z</time><name>PT8946</name></trkpt>
<trkpt lat="52.870989" lon="-3.386942"><ele>695</ele><time>2020-01-18T13:00:33Z</time><name>PT8947</name></trkpt>
<trkpt lat="52.870980" lon="-3.386945"><ele>695</ele><time>2020-01-18T13:00:35Z</time><name>PT8948</name></trkpt>
<trkpt lat="52.870971" lon="-3.386944"><ele>695</ele><time>2020-01-18T13:00:35Z</time><name>PT8949</name></trkpt>
<trkpt lat="52.870962" lon="-3.386941"><ele>695</ele><time>2020-01-18T13:00:36Z</time><name>PT8950</name></trkpt>
<trkpt lat="52.870953" lon="-3.386937"><ele>694</ele><time>2020-01-18T13:00:38Z</time><name>PT8951</name></trkpt>
<trkpt lat="52.870942" lon="-3.386930"><ele>695</ele><time>2020-01-18T13:00:38Z</time><name>PT8952</name></trkpt>
<trkpt lat="52.870935" lon="-3.386933"><ele>694</ele><time>2020-01-18T13:00:39Z</time><name>PT8953</name></trkpt>
<trkpt lat="52.870929" lon="-3.386933"><ele>694</ele><time>2020-01-18T13:00:41Z</time><name>PT8954</name></trkpt>
<trkpt lat="52.870921" lon="-3.386932"><ele>694</ele><time>2020-01-18T13:00:41Z</time><name>PT8955</name></trkpt>
<trkpt lat="52.870911" lon="-3.386932"><ele>693</ele><time>2020-01-18T13:00:42Z</time><name>PT8956</name></trkpt>
<trkpt lat="52.870902" lon="-3.386935"><ele>693</ele><time>2020-01-18T13:00:44Z</time><name>PT8957</name></trkpt>
<trkpt lat="52.870890" lon="-3.386932"><ele>693</ele><time>2020-01-18T13:00:44Z</time><name>PT8958</name></trkpt>
<trkpt lat="52.870879" lon="-3.386934"><ele>693</ele><time>2020-01-18T13:00:45Z</time><name>PT8959</name></trkpt>
<trkpt lat="52.870869" lon="-3.386936"><ele>692</ele><time>2020-01-18T13:00:47Z</time><name>PT8960</name></trkpt>
<trkpt lat="52.870862" lon="-3.386943"><ele>692</ele><time>2020-01-18T13:00:47Z</time><name>PT8961</name></trkpt>
<trkpt lat="52.870852" lon="-3.386948"><ele>692</ele><time>2020-01-18T13:00:48Z</time><name>PT8962</name></trkpt>
<trkpt lat="52.870844" lon="-3.386951"><ele>691</ele><time>2020-01-18T13:00:50Z</time><name>PT8963</name></trkpt>
<trkpt lat="52.870836" lon="-3.386953"><ele>691</ele><time>2020-01-18T13:00:50Z</time><name>PT8964</name></trkpt>
<trkpt lat="52.870825" lon="-3.386952"><ele>690</ele><time>2020-01-18T13:00:52Z</time><name>PT8965</name></trkpt>
<trkpt lat="52.870813" lon="-3.386946"><ele>690</ele><time>2020-01-18T13:00:53Z</time><name>PT8966</name></trkpt>
<trkpt lat="52.870806" lon="-3.386941"><ele>690</ele><time>2020-01-18T13:00:53Z</time><name>PT8967</name></trkpt>
<trkpt lat="52.870800" lon="-3.386935"><ele>690</ele><time>2020-01-18T13:00:54Z</time><name>PT8968</name></trkpt>
<trkpt lat="52.870789" lon="-3.386925"><ele>690</ele><time>2020-01-18T13:00:56Z</time><name>PT8969</name></trkpt>
<trkpt lat="52.870776" lon="-3.386917"><ele>690</ele><time>2020-01-18T13:00:56Z</time><name>PT8970</name></trkpt>
<trkpt lat="52.870761" lon="-3.386909"><ele>690</ele><time>2020-01-18T13:00:58Z</time><name>PT8971</name></trkpt>
<trkpt lat="52.870750" lon="-3.386905"><ele>690</ele><time>2020-01-18T13:00:59Z</time><name>PT8972</name></trkpt>
<trkpt lat="52.870739" lon="-3.386902"><ele>690</ele><time>2020-01-18T13:00:59Z</time><name>PT8973</name></trkpt>
<trkpt lat="52.870725" lon="-3.386896"><ele>690</ele><time>2020-01-18T13:01:00Z</time><name>PT8974</name></trkpt>
<trkpt lat="52.870713" lon="-3.386890"><ele>690</ele><time>2020-01-18T13:01:02Z</time><name>PT8975</name></trkpt>
<trkpt lat="52.870702" lon="-3.386887"><ele>689</ele><time>2020-01-18T13:01:02Z</time><name>PT8976</name></trkpt>
<trkpt lat="52.870692" lon="-3.386884"><ele>689</ele><time>2020-01-18T13:01:03Z</time><name>PT8977</name></trkpt>
<trkpt lat="52.870679" lon="-3.386876"><ele>689</ele><time>2020-01-18T13:01:05Z</time><name>PT8978</name></trkpt>
<trkpt lat="52.870667" lon="-3.386873"><ele>689</ele><time>2020-01-18T13:01:05Z</time><name>PT8979</name></trkpt>
<trkpt lat="52.870658" lon="-3.386873"><ele>689</ele><time>2020-01-18T13:01:06Z</time><name>PT8980</name></trkpt>
<trkpt lat="52.870645" lon="-3.386871"><ele>689</ele><time>2020-01-18T13:01:08Z</time><name>PT8981</name></trkpt>
<trkpt lat="52.870633" lon="-3.386869"><ele>689</ele><time>2020-01-18T13:01:08Z</time><name>PT8982</name></trkpt>
<trkpt lat="52.870622" lon="-3.386868"><ele>689</ele><time>2020-01-18T13:01:09Z</time><name>PT8983</name></trkpt>
<trkpt lat="52.870609" lon="-3.386862"><ele>689</ele><time>2020-01-18T13:01:11Z</time><name>PT8984</name></trkpt>
<trkpt lat="52.870597" lon="-3.386858"><ele>688</ele><time>2020-01-18T13:01:11Z</time><name>PT8985</name></trkpt>
<trkpt lat="52.870586" lon="-3.386855"><ele>688</ele><time>2020-01-18T13:01:12Z</time><name>PT8986</name></trkpt>
<trkpt lat="52.870577" lon="-3.386851"><ele>688</ele><time>2020-01-18T13:01:14Z</time><name>PT8987</name></trkpt>
<trkpt lat="52.870568" lon="-3.386851"><ele>688</ele><time>2020-01-18T13:01:14Z</time><name>PT8988</name></trkpt>
<trkpt lat="52.870557" lon="-3.386849"><ele>688</ele><time>2020-01-18T13:01:15Z</time><name>PT8989</name></trkpt>
<trkpt lat="52.870549" lon="-3.386848"><ele>688</ele><time>2020-01-18T13:01:17Z</time><name>PT8990</name></trkpt>
<trkpt lat="52.870537" lon="-3.386845"><ele>687</ele><time>2020-01-18T13:01:17Z</time><name>PT8991</name></trkpt>
<trkpt lat="52.870526" lon="-3.386846"><ele>687</ele><time>2020-01-18T13:01:18Z</time><name>PT8992</name></trkpt>
<trkpt lat="52.870521" lon="-3.386851"><ele>687</ele><time>2020-01-18T13:01:20Z</time><name>PT8993</name></trkpt>
<trkpt lat="52.870514" lon="-3.386856"><ele>687</ele><time>2020-01-18T13:01:20Z</time><name>PT8994</name></trkpt>
<trkpt lat="52.870506" lon="-3.386858"><ele>686</ele><time>2020-01-18T13:01:21Z</time><name>PT8995</name></trkpt>
<trkpt lat="52.870498" lon="-3.386859"><ele>686</ele><time>2020-01-18T13:01:23Z</time><name>PT8996</name></trkpt>
<trkpt lat="52.870492" lon="-3.386863"><ele>686</ele><time>2020-01-18T13:01:23Z</time><name>PT8997</name></trkpt>
<trkpt lat="52.870482" lon="-3.386864"><ele>686</ele><time>2020-01-18T13:01:24Z</time><name>PT8998</name></trkpt>
<trkpt lat="52.870470" lon="-3.386864"><ele>686</ele><time>2020-01-18T13:01:26Z</time><name>PT8999</name></trkpt>
<trkpt lat="52.870459" lon="-3.386860"><ele>686</ele><time>2020-01-18T13:01:26Z</time><name>PT9000</name></trkpt>
<trkpt lat="52.870449" lon="-3.386859"><ele>686</ele><time>2020-01-18T13:01:27Z</time><name>PT9001</name></trkpt>
<trkpt lat="52.870437" lon="-3.386858"><ele>686</ele><time>2020-01-18T13:01:29Z</time><name>PT9002</name></trkpt>
<trkpt lat="52.870424" lon="-3.386857"><ele>686</ele><time>2020-01-18T13:01:29Z</time><name>PT9003</name></trkpt>
<trkpt lat="52.870412" lon="-3.386855"><ele>686</ele><time>2020-01-18T13:01:30Z</time><name>PT9004</name></trkpt>
<trkpt lat="52.870400" lon="-3.386851"><ele>686</ele><time>2020-01-18T13:01:32Z</time><name>PT9005</name></trkpt>
<trkpt lat="52.870388" lon="-3.386854"><ele>686</ele><time>2020-01-18T13:01:32Z</time><name>PT9006</name></trkpt>
<trkpt lat="52.870376" lon="-3.386857"><ele>686</ele><time>2020-01-18T13:01:33Z</time><name>PT9007</name></trkpt>
<trkpt lat="52.870364" lon="-3.386858"><ele>686</ele><time>2020-01-18T13:01:35Z</time><name>PT9008</name></trkpt>
<trkpt lat="52.870351" lon="-3.386859"><ele>686</ele><time>2020-01-18T13:01:35Z</time><name>PT9009</name></trkpt>
<trkpt lat="52.870337" lon="-3.386860"><ele>685</ele><time>2020-01-18T13:01:36Z</time><name>PT9010</name></trkpt>
<trkpt lat="52.870326" lon="-3.386863"><ele>685</ele><time>2020-01-18T13:01:38Z</time><name>PT9011</name></trkpt>
<trkpt lat="52.870314" lon="-3.386870"><ele>686</ele><time>2020-01-18T13:01:38Z</time><name>PT9012</name></trkpt>
<trkpt lat="52.870304" lon="-3.386873"><ele>686</ele><time>2020-01-18T13:01:39Z</time><name>PT9013</name></trkpt>
<trkpt lat="52.870295" lon="-3.386870"><ele>686</ele><time>2020-01-18T13:01:41Z</time><name>PT9014</name></trkpt>
<trkpt lat="52.870284" lon="-3.386866"><ele>686</ele><time>2020-01-18T13:01:41Z</time><name>PT9015</name></trkpt>
<trkpt lat="52.870270" lon="-3.386864"><ele>687</ele><time>2020-01-18T13:01:42Z</time><name>PT9016</name></trkpt>
<trkpt lat="52.870258" lon="-3.386864"><ele>687</ele><time>2020-01-18T13:01:44Z</time><name>PT9017</name></trkpt>
<trkpt lat="52.870245" lon="-3.386862"><ele>686</ele><time>2020-01-18T13:01:44Z</time><name>PT9018</name></trkpt>
<trkpt lat="52.870234" lon="-3.386859"><ele>686</ele><time>2020-01-18T13:01:45Z</time><name>PT9019</name></trkpt>
<trkpt lat="52.870224" lon="-3.386857"><ele>686</ele><time>2020-01-18T13:01:47Z</time><name>PT9020</name></trkpt>
<trkpt lat="52.870211" lon="-3.386854"><ele>686</ele><time>2020-01-18T13:01:47Z</time><name>PT9021</name></trkpt>
<trkpt lat="52.870198" lon="-3.386846"><ele>687</ele><time>2020-01-18T13:01:48Z</time><name>PT9022</name></trkpt>
<trkpt lat="52.870187" lon="-3.386843"><ele>686</ele><time>2020-01-18T13:01:50Z</time><name>PT9023</name></trkpt>
<trkpt lat="52.870177" lon="-3.386845"><ele>686</ele><time>2020-01-18T13:01:50Z</time><name>PT9024</name></trkpt>
<trkpt lat="52.870167" lon="-3.386852"><ele>686</ele><time>2020-01-18T13:01:51Z</time><name>PT9025</name></trkpt>
<trkpt lat="52.870158" lon="-3.386857"><ele>687</ele><time>2020-01-18T13:01:53Z</time><name>PT9026</name></trkpt>
<trkpt lat="52.870149" lon="-3.386861"><ele>687</ele><time>2020-01-18T13:01:53Z</time><name>PT9027</name></trkpt>
<trkpt lat="52.870138" lon="-3.386862"><ele>686</ele><time>2020-01-18T13:01:54Z</time><name>PT9028</name></trkpt>
<trkpt lat="52.870128" lon="-3.386861"><ele>687</ele><time>2020-01-18T13:01:56Z</time><name>PT9029</name></trkpt>
<trkpt lat="52.870117" lon="-3.386858"><ele>686</ele><time>2020-01-18T13:01:56Z</time><name>PT9030</name></trkpt>
<trkpt lat="52.870107" lon="-3.386857"><ele>686</ele><time>2020-01-18T13:01:57Z</time><name>PT9031</name></trkpt>
<trkpt lat="52.870094" lon="-3.386855"><ele>686</ele><time>2020-01-18T13:01:59Z</time><name>PT9032</name></trkpt>
<trkpt lat="52.870084" lon="-3.386852"><ele>686</ele><time>2020-01-18T13:01:59Z</time><name>PT9033</name></trkpt>
<trkpt lat="52.870073" lon="-3.386855"><ele>686</ele><time>2020-01-18T13:02:00Z</time><name>PT9034</name></trkpt>
<trkpt lat="52.870061" lon="-3.386858"><ele>686</ele><time>2020-01-18T13:02:02Z</time><name>PT9035</name></trkpt>
<trkpt lat="52.870050" lon="-3.386858"><ele>687</ele><time>2020-01-18T13:02:02Z</time><name>PT9036</name></trkpt>
<trkpt lat="52.870041" lon="-3.386852"><ele>687</ele><time>2020-01-18T13:02:03Z</time><name>PT9037</name></trkpt>
<trkpt lat="52.870036" lon="-3.386858"><ele>687</ele><time>2020-01-18T13:02:05Z</time><name>PT9038</name></trkpt>
<trkpt lat="52.870031" lon="-3.386869"><ele>686</ele><time>2020-01-18T13:02:05Z</time><name>PT9039</name></trkpt>
<trkpt lat="52.870022" lon="-3.386875"><ele>687</ele><time>2020-01-18T13:02:06Z</time><name>PT9040</name></trkpt>
<trkpt lat="52.870012" lon="-3.386884"><ele>687</ele><time>2020-01-18T13:02:08Z</time><name>PT9041</name></trkpt>
<trkpt lat="52.870004" lon="-3.386891"><ele>687</ele><time>2020-01-18T13:02:09Z</time><name>PT9042</name></trkpt>
<trkpt lat="52.869995" lon="-3.386898"><ele>687</ele><time>2020-01-18T13:02:10Z</time><name>PT9043</name></trkpt>
<trkpt lat="52.869986" lon="-3.386895"><ele>686</ele><time>2020-01-18T13:02:11Z</time><name>PT9044</name></trkpt>
<trkpt lat="52.869976" lon="-3.386888"><ele>686</ele><time>2020-01-18T13:02:11Z</time><name>PT9045</name></trkpt>
<trkpt lat="52.869964" lon="-3.386883"><ele>686</ele><time>2020-01-18T13:02:12Z</time><name>PT9046</name></trkpt>
<trkpt lat="52.869952" lon="-3.386878"><ele>687</ele><time>2020-01-18T13:02:14Z</time><name>PT9047</name></trkpt>
<trkpt lat="52.869940" lon="-3.386872"><ele>686</ele><time>2020-01-18T13:02:14Z</time><name>PT9048</name></trkpt>
<trkpt lat="52.869930" lon="-3.386866"><ele>687</ele><time>2020-01-18T13:02:15Z</time><name>PT9049</name></trkpt>
<trkpt lat="52.869920" lon="-3.386857"><ele>686</ele><time>2020-01-18T13:02:17Z</time><name>PT9050</name></trkpt>
<trkpt lat="52.869910" lon="-3.386849"><ele>686</ele><time>2020-01-18T13:02:17Z</time><name>PT9051</name></trkpt>
<trkpt lat="52.869901" lon="-3.386847"><ele>686</ele><time>2020-01-18T13:02:19Z</time><name>PT9052</name></trkpt>
<trkpt lat="52.869890" lon="-3.386844"><ele>686</ele><time>2020-01-18T13:02:20Z</time><name>PT9053</name></trkpt>
<trkpt lat="52.869877" lon="-3.386844"><ele>686</ele><time>2020-01-18T13:02:20Z</time><name>PT9054</name></trkpt>
<trkpt lat="52.869867" lon="-3.386843"><ele>685</ele><time>2020-01-18T13:02:21Z</time><name>PT9055</name></trkpt>
<trkpt lat="52.869857" lon="-3.386841"><ele>685</ele><time>2020-01-18T13:02:23Z</time><name>PT9056</name></trkpt>
<trkpt lat="52.869848" lon="-3.386835"><ele>685</ele><time>2020-01-18T13:02:23Z</time><name>PT9057</name></trkpt>
<trkpt lat="52.869837" lon="-3.386828"><ele>685</ele><time>2020-01-18T13:02:24Z</time><name>PT9058</name></trkpt>
<trkpt lat="52.869826" lon="-3.386820"><ele>685</ele><time>2020-01-18T13:02:26Z</time><name>PT9059</name></trkpt>
<trkpt lat="52.869817" lon="-3.386815"><ele>685</ele><time>2020-01-18T13:02:26Z</time><name>PT9060</name></trkpt>
<trkpt lat="52.869805" lon="-3.386808"><ele>686</ele><time>2020-01-18T13:02:27Z</time><name>PT9061</name></trkpt>
<trkpt lat="52.869797" lon="-3.386806"><ele>685</ele><time>2020-01-18T13:02:29Z</time><name>PT9062</name></trkpt>
<trkpt lat="52.869789" lon="-3.386801"><ele>685</ele><time>2020-01-18T13:02:29Z</time><name>PT9063</name></trkpt>
<trkpt lat="52.869779" lon="-3.386794"><ele>685</ele><time>2020-01-18T13:02:30Z</time><name>PT9064</name></trkpt>
<trkpt lat="52.869767" lon="-3.386790"><ele>685</ele><time>2020-01-18T13:02:32Z</time><name>PT9065</name></trkpt>
<trkpt lat="52.869757" lon="-3.386783"><ele>685</ele><time>2020-01-18T13:02:32Z</time><name>PT9066</name></trkpt>
<trkpt lat="52.869748" lon="-3.386774"><ele>685</ele><time>2020-01-18T13:02:33Z</time><name>PT9067</name></trkpt>
<trkpt lat="52.869740" lon="-3.386763"><ele>685</ele><time>2020-01-18T13:02:35Z</time><name>PT9068</name></trkpt>
<trkpt lat="52.869729" lon="-3.386756"><ele>685</ele><time>2020-01-18T13:02:35Z</time><name>PT9069</name></trkpt>
<trkpt lat="52.869722" lon="-3.386751"><ele>685</ele><time>2020-01-18T13:02:36Z</time><name>PT9070</name></trkpt>
<trkpt lat="52.869715" lon="-3.386752"><ele>685</ele><time>2020-01-18T13:02:38Z</time><name>PT9071</name></trkpt>
<trkpt lat="52.869708" lon="-3.386754"><ele>685</ele><time>2020-01-18T13:02:38Z</time><name>PT9072</name></trkpt>
<trkpt lat="52.869699" lon="-3.386751"><ele>685</ele><time>2020-01-18T13:02:39Z</time><name>PT9073</name></trkpt>
<trkpt lat="52.869689" lon="-3.386748"><ele>685</ele><time>2020-01-18T13:02:41Z</time><name>PT9074</name></trkpt>
<trkpt lat="52.869681" lon="-3.386747"><ele>685</ele><time>2020-01-18T13:02:41Z</time><name>PT9075</name></trkpt>
<trkpt lat="52.869670" lon="-3.386746"><ele>684</ele><time>2020-01-18T13:02:42Z</time><name>PT9076</name></trkpt>
<trkpt lat="52.869661" lon="-3.386746"><ele>684</ele><time>2020-01-18T13:02:44Z</time><name>PT9077</name></trkpt>
<trkpt lat="52.869653" lon="-3.386751"><ele>684</ele><time>2020-01-18T13:02:44Z</time><name>PT9078</name></trkpt>
<trkpt lat="52.869641" lon="-3.386749"><ele>684</ele><time>2020-01-18T13:02:45Z</time><name>PT9079</name></trkpt>
<trkpt lat="52.869628" lon="-3.386740"><ele>684</ele><time>2020-01-18T13:02:47Z</time><name>PT9080</name></trkpt>
<trkpt lat="52.869619" lon="-3.386736"><ele>684</ele><time>2020-01-18T13:02:47Z</time><name>PT9081</name></trkpt>
<trkpt lat="52.869610" lon="-3.386737"><ele>684</ele><time>2020-01-18T13:02:48Z</time><name>PT9082</name></trkpt>
<trkpt lat="52.869600" lon="-3.386736"><ele>684</ele><time>2020-01-18T13:02:50Z</time><name>PT9083</name></trkpt>
<trkpt lat="52.869593" lon="-3.386736"><ele>684</ele><time>2020-01-18T13:02:50Z</time><name>PT9084</name></trkpt>
<trkpt lat="52.869585" lon="-3.386738"><ele>683</ele><time>2020-01-18T13:02:51Z</time><name>PT9085</name></trkpt>
<trkpt lat="52.869577" lon="-3.386739"><ele>683</ele><time>2020-01-18T13:02:53Z</time><name>PT9086</name></trkpt>
<trkpt lat="52.869565" lon="-3.386740"><ele>683</ele><time>2020-01-18T13:02:53Z</time><name>PT9087</name></trkpt>
<trkpt lat="52.869553" lon="-3.386739"><ele>683</ele><time>2020-01-18T13:02:54Z</time><name>PT9088</name></trkpt>
<trkpt lat="52.869540" lon="-3.386736"><ele>682</ele><time>2020-01-18T13:02:56Z</time><name>PT9089</name></trkpt>
<trkpt lat="52.869532" lon="-3.386738"><ele>682</ele><time>2020-01-18T13:02:56Z</time><name>PT9090</name></trkpt>
<trkpt lat="52.869523" lon="-3.386743"><ele>682</ele><time>2020-01-18T13:02:57Z</time><name>PT9091</name></trkpt>
<trkpt lat="52.869514" lon="-3.386748"><ele>682</ele><time>2020-01-18T13:02:59Z</time><name>PT9092</name></trkpt>
<trkpt lat="52.869505" lon="-3.386756"><ele>682</ele><time>2020-01-18T13:03:00Z</time><name>PT9093</name></trkpt>
<trkpt lat="52.869496" lon="-3.386765"><ele>681</ele><time>2020-01-18T13:03:00Z</time><name>PT9094</name></trkpt>
<trkpt lat="52.869485" lon="-3.386769"><ele>681</ele><time>2020-01-18T13:03:02Z</time><name>PT9095</name></trkpt>
<trkpt lat="52.869474" lon="-3.386772"><ele>680</ele><time>2020-01-18T13:03:03Z</time><name>PT9096</name></trkpt>
<trkpt lat="52.869464" lon="-3.386772"><ele>680</ele><time>2020-01-18T13:03:03Z</time><name>PT9097</name></trkpt>
<trkpt lat="52.869451" lon="-3.386769"><ele>680</ele><time>2020-01-18T13:03:05Z</time><name>PT9098</name></trkpt>
<trkpt lat="52.869442" lon="-3.386762"><ele>680</ele><time>2020-01-18T13:03:05Z</time><name>PT9099</name></trkpt>
<trkpt lat="52.869432" lon="-3.386754"><ele>680</ele><time>2020-01-18T13:03:06Z</time><name>PT9100</name></trkpt>
<trkpt lat="52.869421" lon="-3.386742"><ele>680</ele><time>2020-01-18T13:03:08Z</time><name>PT9101</name></trkpt>
<trkpt lat="52.869404" lon="-3.386734"><ele>681</ele><time>2020-01-18T13:03:08Z</time><name>PT9102</name></trkpt>
<trkpt lat="52.869393" lon="-3.386733"><ele>681</ele><time>2020-01-18T13:03:09Z</time><name>PT9103</name></trkpt>
<trkpt lat="52.869383" lon="-3.386729"><ele>681</ele><time>2020-01-18T13:03:11Z</time><name>PT9104</name></trkpt>
<trkpt lat="52.869372" lon="-3.386721"><ele>681</ele><time>2020-01-18T13:03:11Z</time><name>PT9105</name></trkpt>
<trkpt lat="52.869362" lon="-3.386715"><ele>681</ele><time>2020-01-18T13:03:12Z</time><name>PT9106</name></trkpt>
<trkpt lat="52.869352" lon="-3.386711"><ele>681</ele><time>2020-01-18T13:03:14Z</time><name>PT9107</name></trkpt>
<trkpt lat="52.869341" lon="-3.386706"><ele>682</ele><time>2020-01-18T13:03:14Z</time><name>PT9108</name></trkpt>
<trkpt lat="52.869332" lon="-3.386703"><ele>682</ele><time>2020-01-18T13:03:15Z</time><name>PT9109</name></trkpt>
<trkpt lat="52.869322" lon="-3.386701"><ele>682</ele><time>2020-01-18T13:03:17Z</time><name>PT9110</name></trkpt>
<trkpt lat="52.869310" lon="-3.386697"><ele>681</ele><time>2020-01-18T13:03:17Z</time><name>PT9111</name></trkpt>
<trkpt lat="52.869300" lon="-3.386704"><ele>681</ele><time>2020-01-18T13:03:18Z</time><name>PT9112</name></trkpt>
<trkpt lat="52.869290" lon="-3.386711"><ele>682</ele><time>2020-01-18T13:03:20Z</time><name>PT9113</name></trkpt>
<trkpt lat="52.869277" lon="-3.386720"><ele>682</ele><time>2020-01-18T13:03:20Z</time><name>PT9114</name></trkpt>
<trkpt lat="52.869269" lon="-3.386725"><ele>681</ele><time>2020-01-18T13:03:21Z</time><name>PT9115</name></trkpt>
<trkpt lat="52.869257" lon="-3.386724"><ele>681</ele><time>2020-01-18T13:03:23Z</time><name>PT9116</name></trkpt>
<trkpt lat="52.869241" lon="-3.386717"><ele>682</ele><time>2020-01-18T13:03:23Z</time><name>PT9117</name></trkpt>
<trkpt lat="52.869229" lon="-3.386707"><ele>682</ele><time>2020-01-18T13:03:24Z</time><name>PT9118</name></trkpt>
<trkpt lat="52.869217" lon="-3.386699"><ele>682</ele><time>2020-01-18T13:03:26Z</time><name>PT9119</name></trkpt>
<trkpt lat="52.869206" lon="-3.386690"><ele>682</ele><time>2020-01-18T13:03:26Z</time><name>PT9120</name></trkpt>
<trkpt lat="52.869195" lon="-3.386682"><ele>682</ele><time>2020-01-18T13:03:27Z</time><name>PT9121</name></trkpt>
<trkpt lat="52.869185" lon="-3.386673"><ele>683</ele><time>2020-01-18T13:03:29Z</time><name>PT9122</name></trkpt>
<trkpt lat="52.869177" lon="-3.386666"><ele>682</ele><time>2020-01-18T13:03:29Z</time><name>PT9123</name></trkpt>
<trkpt lat="52.869166" lon="-3.386661"><ele>682</ele><time>2020-01-18T13:03:30Z</time><name>PT9124</name></trkpt>
<trkpt lat="52.869155" lon="-3.386659"><ele>682</ele><time>2020-01-18T13:03:32Z</time><name>PT9125</name></trkpt>
<trkpt lat="52.869145" lon="-3.386657"><ele>682</ele><time>2020-01-18T13:03:32Z</time><name>PT9126</name></trkpt>
<trkpt lat="52.869133" lon="-3.386652"><ele>683</ele><time>2020-01-18T13:03:33Z</time><name>PT9127</name></trkpt>
<trkpt lat="52.869121" lon="-3.386645"><ele>683</ele><time>2020-01-18T13:03:35Z</time><name>PT9128</name></trkpt>
<trkpt lat="52.869108" lon="-3.386638"><ele>683</ele><time>2020-01-18T13:03:35Z</time><name>PT9129</name></trkpt>
<trkpt lat="52.869095" lon="-3.386632"><ele>684</ele><time>2020-01-18T13:03:36Z</time><name>PT9130</name></trkpt>
<trkpt lat="52.869082" lon="-3.386626"><ele>684</ele><time>2020-01-18T13:03:38Z</time><name>PT9131</name></trkpt>
<trkpt lat="52.869074" lon="-3.386621"><ele>684</ele><time>2020-01-18T13:03:38Z</time><name>PT9132</name></trkpt>
<trkpt lat="52.869066" lon="-3.386609"><ele>684</ele><time>2020-01-18T13:03:39Z</time><name>PT9133</name></trkpt>
<trkpt lat="52.869059" lon="-3.386595"><ele>684</ele><time>2020-01-18T13:03:41Z</time><name>PT9134</name></trkpt>
<trkpt lat="52.869053" lon="-3.386579"><ele>685</ele><time>2020-01-18T13:03:41Z</time><name>PT9135</name></trkpt>
<trkpt lat="52.869042" lon="-3.386562"><ele>685</ele><time>2020-01-18T13:03:42Z</time><name>PT9136</name></trkpt>
<trkpt lat="52.869032" lon="-3.386553"><ele>685</ele><time>2020-01-18T13:03:44Z</time><name>PT9137</name></trkpt>
<trkpt lat="52.869023" lon="-3.386545"><ele>686</ele><time>2020-01-18T13:03:44Z</time><name>PT9138</name></trkpt>
<trkpt lat="52.869014" lon="-3.386536"><ele>686</ele><time>2020-01-18T13:03:45Z</time><name>PT9139</name></trkpt>
<trkpt lat="52.869006" lon="-3.386526"><ele>686</ele><time>2020-01-18T13:03:47Z</time><name>PT9140</name></trkpt>
<trkpt lat="52.868998" lon="-3.386518"><ele>686</ele><time>2020-01-18T13:03:47Z</time><name>PT9141</name></trkpt>
<trkpt lat="52.868986" lon="-3.386512"><ele>686</ele><time>2020-01-18T13:03:49Z</time><name>PT9142</name></trkpt>
<trkpt lat="52.868977" lon="-3.386504"><ele>686</ele><time>2020-01-18T13:03:50Z</time><name>PT9143</name></trkpt>
<trkpt lat="52.868969" lon="-3.386497"><ele>686</ele><time>2020-01-18T13:03:50Z</time><name>PT9144</name></trkpt>
<trkpt lat="52.868962" lon="-3.386492"><ele>686</ele><time>2020-01-18T13:03:51Z</time><name>PT9145</name></trkpt>
<trkpt lat="52.868954" lon="-3.386487"><ele>686</ele><time>2020-01-18T13:03:53Z</time><name>PT9146</name></trkpt>
<trkpt lat="52.868944" lon="-3.386483"><ele>685</ele><time>2020-01-18T13:03:53Z</time><name>PT9147</name></trkpt>
<trkpt lat="52.868934" lon="-3.386483"><ele>686</ele><time>2020-01-18T13:03:54Z</time><name>PT9148</name></trkpt>
<trkpt lat="52.868924" lon="-3.386489"><ele>685</ele><time>2020-01-18T13:03:56Z</time><name>PT9149</name></trkpt>
<trkpt lat="52.868911" lon="-3.386486"><ele>685</ele><time>2020-01-18T13:03:56Z</time><name>PT9150</name></trkpt>
<trkpt lat="52.868903" lon="-3.386487"><ele>685</ele><time>2020-01-18T13:03:57Z</time><name>PT9151</name></trkpt>
<trkpt lat="52.868890" lon="-3.386485"><ele>685</ele><time>2020-01-18T13:03:59Z</time><name>PT9152</name></trkpt>
<trkpt lat="52.868882" lon="-3.386482"><ele>685</ele><time>2020-01-18T13:03:59Z</time><name>PT9153</name></trkpt>
<trkpt lat="52.868872" lon="-3.386475"><ele>685</ele><time>2020-01-18T13:04:00Z</time><name>PT9154</name></trkpt>
<trkpt lat="52.868862" lon="-3.386474"><ele>685</ele><time>2020-01-18T13:04:02Z</time><name>PT9155</name></trkpt>
<trkpt lat="52.868852" lon="-3.386470"><ele>685</ele><time>2020-01-18T13:04:02Z</time><name>PT9156</name></trkpt>
<trkpt lat="52.868845" lon="-3.386471"><ele>685</ele><time>2020-01-18T13:04:03Z</time><name>PT9157</name></trkpt>
<trkpt lat="52.868834" lon="-3.386473"><ele>685</ele><time>2020-01-18T13:04:05Z</time><name>PT9158</name></trkpt>
<trkpt lat="52.868824" lon="-3.386469"><ele>685</ele><time>2020-01-18T13:04:05Z</time><name>PT9159</name></trkpt>
<trkpt lat="52.868813" lon="-3.386461"><ele>685</ele><time>2020-01-18T13:04:06Z</time><name>PT9160</name></trkpt>
<trkpt lat="52.868803" lon="-3.386455"><ele>685</ele><time>2020-01-18T13:04:08Z</time><name>PT9161</name></trkpt>
<trkpt lat="52.868789" lon="-3.386447"><ele>686</ele><time>2020-01-18T13:04:08Z</time><name>PT9162</name></trkpt>
<trkpt lat="52.868780" lon="-3.386445"><ele>686</ele><time>2020-01-18T13:04:09Z</time><name>PT9163</name></trkpt>
<trkpt lat="52.868771" lon="-3.386445"><ele>686</ele><time>2020-01-18T13:04:11Z</time><name>PT9164</name></trkpt>
<trkpt lat="52.868759" lon="-3.386443"><ele>686</ele><time>2020-01-18T13:04:11Z</time><name>PT9165</name></trkpt>
<trkpt lat="52.868749" lon="-3.386438"><ele>686</ele><time>2020-01-18T13:04:12Z</time><name>PT9166</name></trkpt>
<trkpt lat="52.868739" lon="-3.386434"><ele>686</ele><time>2020-01-18T13:04:14Z</time><name>PT9167</name></trkpt>
<trkpt lat="52.868731" lon="-3.386432"><ele>686</ele><time>2020-01-18T13:04:14Z</time><name>PT9168</name></trkpt>
<trkpt lat="52.868722" lon="-3.386431"><ele>686</ele><time>2020-01-18T13:04:15Z</time><name>PT9169</name></trkpt>
<trkpt lat="52.868712" lon="-3.386432"><ele>686</ele><time>2020-01-18T13:04:17Z</time><name>PT9170</name></trkpt>
<trkpt lat="52.868702" lon="-3.386432"><ele>687</ele><time>2020-01-18T13:04:17Z</time><name>PT9171</name></trkpt>
<trkpt lat="52.868689" lon="-3.386427"><ele>687</ele><time>2020-01-18T13:04:18Z</time><name>PT9172</name></trkpt>
<trkpt lat="52.868678" lon="-3.386422"><ele>687</ele><time>2020-01-18T13:04:20Z</time><name>PT9173</name></trkpt>
<trkpt lat="52.868670" lon="-3.386412"><ele>687</ele><time>2020-01-18T13:04:20Z</time><name>PT9174</name></trkpt>
<trkpt lat="52.868660" lon="-3.386402"><ele>687</ele><time>2020-01-18T13:04:21Z</time><name>PT9175</name></trkpt>
<trkpt lat="52.868653" lon="-3.386395"><ele>687</ele><time>2020-01-18T13:04:23Z</time><name>PT9176</name></trkpt>
<trkpt lat="52.868644" lon="-3.386390"><ele>687</ele><time>2020-01-18T13:04:23Z</time><name>PT9177</name></trkpt>
<trkpt lat="52.868633" lon="-3.386384"><ele>687</ele><time>2020-01-18T13:04:24Z</time><name>PT9178</name></trkpt>
<trkpt lat="52.868625" lon="-3.386378"><ele>688</ele><time>2020-01-18T13:04:26Z</time><name>PT9179</name></trkpt>
<trkpt lat="52.868617" lon="-3.386373"><ele>688</ele><time>2020-01-18T13:04:26Z</time><name>PT9180</name></trkpt>
<trkpt lat="52.868606" lon="-3.386371"><ele>688</ele><time>2020-01-18T13:04:27Z</time><name>PT9181</name></trkpt>
<trkpt lat="52.868599" lon="-3.386377"><ele>687</ele><time>2020-01-18T13:04:29Z</time><name>PT9182</name></trkpt>
<trkpt lat="52.868591" lon="-3.386382"><ele>688</ele><time>2020-01-18T13:04:30Z</time><name>PT9183</name></trkpt>
<trkpt lat="52.868585" lon="-3.386391"><ele>688</ele><time>2020-01-18T13:04:30Z</time><name>PT9184</name></trkpt>
<trkpt lat="52.868580" lon="-3.386398"><ele>688</ele><time>2020-01-18T13:04:32Z</time><name>PT9185</name></trkpt>
<trkpt lat="52.868573" lon="-3.386401"><ele>687</ele><time>2020-01-18T13:04:32Z</time><name>PT9186</name></trkpt>
<trkpt lat="52.868567" lon="-3.386406"><ele>687</ele><time>2020-01-18T13:04:33Z</time><name>PT9187</name></trkpt>
<trkpt lat="52.868561" lon="-3.386412"><ele>687</ele><time>2020-01-18T13:04:35Z</time><name>PT9188</name></trkpt>
<trkpt lat="52.868555" lon="-3.386419"><ele>687</ele><time>2020-01-18T13:04:35Z</time><name>PT9189</name></trkpt>
<trkpt lat="52.868549" lon="-3.386421"><ele>687</ele><time>2020-01-18T13:04:36Z</time><name>PT9190</name></trkpt>
<trkpt lat="52.868537" lon="-3.386421"><ele>688</ele><time>2020-01-18T13:04:38Z</time><name>PT9191</name></trkpt>
<trkpt lat="52.868528" lon="-3.386423"><ele>687</ele><time>2020-01-18T13:04:38Z</time><name>PT9192</name></trkpt>
<trkpt lat="52.868519" lon="-3.386422"><ele>687</ele><time>2020-01-18T13:04:40Z</time><name>PT9193</name></trkpt>
<trkpt lat="52.868512" lon="-3.386418"><ele>687</ele><time>2020-01-18T13:04:41Z</time><name>PT9194</name></trkpt>
<trkpt lat="52.868506" lon="-3.386418"><ele>687</ele><time>2020-01-18T13:04:41Z</time><name>PT9195</name></trkpt>
<trkpt lat="52.868500" lon="-3.386420"><ele>687</ele><time>2020-01-18T13:04:42Z</time><name>PT9196</name></trkpt>
<trkpt lat="52.868497" lon="-3.386422"><ele>687</ele><time>2020-01-18T13:04:44Z</time><name>PT9197</name></trkpt>
<trkpt lat="52.868498" lon="-3.386425"><ele>687</ele><time>2020-01-18T13:04:44Z</time><name>PT9198</name></trkpt>
<trkpt lat="52.868495" lon="-3.386425"><ele>687</ele><time>2020-01-18T13:04:45Z</time><name>PT9199</name></trkpt>
<trkpt lat="52.868494" lon="-3.386424"><ele>687</ele><time>2020-01-18T13:04:47Z</time><name>PT9200</name></trkpt>
<trkpt lat="52.868492" lon="-3.386424"><ele>687</ele><time>2020-01-18T13:04:47Z</time><name>PT9201</name></trkpt>
<trkpt lat="52.868492" lon="-3.386425"><ele>687</ele><time>2020-01-18T13:04:48Z</time><name>PT9202</name></trkpt>
<trkpt lat="52.868491" lon="-3.386420"><ele>687</ele><time>2020-01-18T13:04:57Z</time><name>PT9203</name></trkpt>
<trkpt lat="52.868485" lon="-3.386418"><ele>688</ele><time>2020-01-18T13:04:59Z</time><name>PT9204</name></trkpt>
<trkpt lat="52.868482" lon="-3.386415"><ele>688</ele><time>2020-01-18T13:05:00Z</time><name>PT9205</name></trkpt>
<trkpt lat="52.868481" lon="-3.386415"><ele>687</ele><time>2020-01-18T13:05:01Z</time><name>PT9206</name></trkpt>
<trkpt lat="52.868477" lon="-3.386414"><ele>687</ele><time>2020-01-18T13:05:03Z</time><name>PT9207</name></trkpt>
<trkpt lat="52.868474" lon="-3.386412"><ele>687</ele><time>2020-01-18T13:05:05Z</time><name>PT9208</name></trkpt>
<trkpt lat="52.868475" lon="-3.386416"><ele>688</ele><time>2020-01-18T13:05:05Z</time><name>PT9209</name></trkpt>
<trkpt lat="52.868472" lon="-3.386419"><ele>688</ele><time>2020-01-18T13:05:06Z</time><name>PT9210</name></trkpt>
<trkpt lat="52.868475" lon="-3.386413"><ele>688</ele><time>2020-01-18T13:05:08Z</time><name>PT9211</name></trkpt>
<trkpt lat="52.868474" lon="-3.386407"><ele>689</ele><time>2020-01-18T13:05:08Z</time><name>PT9212</name></trkpt>
<trkpt lat="52.868465" lon="-3.386398"><ele>689</ele><time>2020-01-18T13:05:09Z</time><name>PT9213</name></trkpt>
<trkpt lat="52.868461" lon="-3.386396"><ele>689</ele><time>2020-01-18T13:05:11Z</time><name>PT9214</name></trkpt>
<trkpt lat="52.868454" lon="-3.386393"><ele>689</ele><time>2020-01-18T13:05:11Z</time><name>PT9215</name></trkpt>
<trkpt lat="52.868445" lon="-3.386393"><ele>690</ele><time>2020-01-18T13:05:12Z</time><name>PT9216</name></trkpt>
<trkpt lat="52.868436" lon="-3.386390"><ele>690</ele><time>2020-01-18T13:05:14Z</time><name>PT9217</name></trkpt>
<trkpt lat="52.868427" lon="-3.386389"><ele>690</ele><time>2020-01-18T13:05:14Z</time><name>PT9218</name></trkpt>
<trkpt lat="52.868423" lon="-3.386387"><ele>690</ele><time>2020-01-18T13:05:15Z</time><name>PT9219</name></trkpt>
<trkpt lat="52.868411" lon="-3.386379"><ele>691</ele><time>2020-01-18T13:05:17Z</time><name>PT9220</name></trkpt>
<trkpt lat="52.868402" lon="-3.386382"><ele>691</ele><time>2020-01-18T13:05:17Z</time><name>PT9221</name></trkpt>
<trkpt lat="52.868392" lon="-3.386382"><ele>691</ele><time>2020-01-18T13:05:18Z</time><name>PT9222</name></trkpt>
<trkpt lat="52.868383" lon="-3.386381"><ele>691</ele><time>2020-01-18T13:05:20Z</time><name>PT9223</name></trkpt>
<trkpt lat="52.868373" lon="-3.386377"><ele>691</ele><time>2020-01-18T13:05:20Z</time><name>PT9224</name></trkpt>
<trkpt lat="52.868363" lon="-3.386373"><ele>691</ele><time>2020-01-18T13:05:21Z</time><name>PT9225</name></trkpt>
<trkpt lat="52.868354" lon="-3.386374"><ele>691</ele><time>2020-01-18T13:05:23Z</time><name>PT9226</name></trkpt>
<trkpt lat="52.868346" lon="-3.386373"><ele>691</ele><time>2020-01-18T13:05:23Z</time><name>PT9227</name></trkpt>
<trkpt lat="52.868337" lon="-3.386370"><ele>691</ele><time>2020-01-18T13:05:24Z</time><name>PT9228</name></trkpt>
<trkpt lat="52.868327" lon="-3.386365"><ele>691</ele><time>2020-01-18T13:05:26Z</time><name>PT9229</name></trkpt>
<trkpt lat="52.868317" lon="-3.386366"><ele>691</ele><time>2020-01-18T13:05:26Z</time><name>PT9230</name></trkpt>
<trkpt lat="52.868308" lon="-3.386367"><ele>691</ele><time>2020-01-18T13:05:27Z</time><name>PT9231</name></trkpt>
<trkpt lat="52.868297" lon="-3.386366"><ele>691</ele><time>2020-01-18T13:05:29Z</time><name>PT9232</name></trkpt>
<trkpt lat="52.868288" lon="-3.386366"><ele>691</ele><time>2020-01-18T13:05:29Z</time><name>PT9233</name></trkpt>
<trkpt lat="52.868278" lon="-3.386365"><ele>691</ele><time>2020-01-18T13:05:30Z</time><name>PT9234</name></trkpt>
<trkpt lat="52.868268" lon="-3.386366"><ele>691</ele><time>2020-01-18T13:05:32Z</time><name>PT9235</name></trkpt>
<trkpt lat="52.868258" lon="-3.386365"><ele>691</ele><time>2020-01-18T13:05:32Z</time><name>PT9236</name></trkpt>
<trkpt lat="52.868250" lon="-3.386362"><ele>691</ele><time>2020-01-18T13:05:33Z</time><name>PT9237</name></trkpt>
<trkpt lat="52.868243" lon="-3.386362"><ele>691</ele><time>2020-01-18T13:05:35Z</time><name>PT9238</name></trkpt>
<trkpt lat="52.868233" lon="-3.386363"><ele>691</ele><time>2020-01-18T13:05:35Z</time><name>PT9239</name></trkpt>
<trkpt lat="52.868222" lon="-3.386363"><ele>691</ele><time>2020-01-18T13:05:36Z</time><name>PT9240</name></trkpt>
<trkpt lat="52.868213" lon="-3.386365"><ele>691</ele><time>2020-01-18T13:05:38Z</time><name>PT9241</name></trkpt>
<trkpt lat="52.868207" lon="-3.386366"><ele>691</ele><time>2020-01-18T13:05:38Z</time><name>PT9242</name></trkpt>
<trkpt lat="52.868200" lon="-3.386365"><ele>691</ele><time>2020-01-18T13:05:39Z</time><name>PT9243</name></trkpt>
<trkpt lat="52.868192" lon="-3.386362"><ele>691</ele><time>2020-01-18T13:05:41Z</time><name>PT9244</name></trkpt>
<trkpt lat="52.868183" lon="-3.386359"><ele>691</ele><time>2020-01-18T13:05:41Z</time><name>PT9245</name></trkpt>
<trkpt lat="52.868175" lon="-3.386360"><ele>692</ele><time>2020-01-18T13:05:42Z</time><name>PT9246</name></trkpt>
<trkpt lat="52.868169" lon="-3.386360"><ele>691</ele><time>2020-01-18T13:05:44Z</time><name>PT9247</name></trkpt>
<trkpt lat="52.868162" lon="-3.386357"><ele>692</ele><time>2020-01-18T13:05:44Z</time><name>PT9248</name></trkpt>
<trkpt lat="52.868154" lon="-3.386355"><ele>692</ele><time>2020-01-18T13:05:46Z</time><name>PT9249</name></trkpt>
<trkpt lat="52.868145" lon="-3.386354"><ele>692</ele><time>2020-01-18T13:05:47Z</time><name>PT9250</name></trkpt>
<trkpt lat="52.868135" lon="-3.386350"><ele>692</ele><time>2020-01-18T13:05:47Z</time><name>PT9251</name></trkpt>
<trkpt lat="52.868126" lon="-3.386347"><ele>692</ele><time>2020-01-18T13:05:49Z</time><name>PT9252</name></trkpt>
<trkpt lat="52.868115" lon="-3.386343"><ele>692</ele><time>2020-01-18T13:05:50Z</time><name>PT9253</name></trkpt>
<trkpt lat="52.868106" lon="-3.386339"><ele>692</ele><time>2020-01-18T13:05:50Z</time><name>PT9254</name></trkpt>
<trkpt lat="52.868094" lon="-3.386333"><ele>692</ele><time>2020-01-18T13:05:51Z</time><name>PT9255</name></trkpt>
<trkpt lat="52.868084" lon="-3.386332"><ele>692</ele><time>2020-01-18T13:05:53Z</time><name>PT9256</name></trkpt>
<trkpt lat="52.868076" lon="-3.386329"><ele>693</ele><time>2020-01-18T13:05:53Z</time><name>PT9257</name></trkpt>
<trkpt lat="52.868066" lon="-3.386327"><ele>693</ele><time>2020-01-18T13:05:54Z</time><name>PT9258</name></trkpt>
<trkpt lat="52.868058" lon="-3.386323"><ele>693</ele><time>2020-01-18T13:05:56Z</time><name>PT9259</name></trkpt>
<trkpt lat="52.868049" lon="-3.386319"><ele>693</ele><time>2020-01-18T13:05:56Z</time><name>PT9260</name></trkpt>
<trkpt lat="52.868041" lon="-3.386317"><ele>693</ele><time>2020-01-18T13:05:57Z</time><name>PT9261</name></trkpt>
<trkpt lat="52.868033" lon="-3.386317"><ele>693</ele><time>2020-01-18T13:05:59Z</time><name>PT9262</name></trkpt>
<trkpt lat="52.868021" lon="-3.386321"><ele>692</ele><time>2020-01-18T13:05:59Z</time><name>PT9263</name></trkpt>
<trkpt lat="52.868013" lon="-3.386317"><ele>693</ele><time>2020-01-18T13:06:00Z</time><name>PT9264</name></trkpt>
<trkpt lat="52.868003" lon="-3.386313"><ele>693</ele><time>2020-01-18T13:06:02Z</time><name>PT9265</name></trkpt>
<trkpt lat="52.867996" lon="-3.386312"><ele>693</ele><time>2020-01-18T13:06:02Z</time><name>PT9266</name></trkpt>
<trkpt lat="52.867986" lon="-3.386306"><ele>693</ele><time>2020-01-18T13:06:03Z</time><name>PT9267</name></trkpt>
<trkpt lat="52.867975" lon="-3.386298"><ele>693</ele><time>2020-01-18T13:06:05Z</time><name>PT9268</name></trkpt>
<trkpt lat="52.867967" lon="-3.386297"><ele>693</ele><time>2020-01-18T13:06:05Z</time><name>PT9269</name></trkpt>
<trkpt lat="52.867958" lon="-3.386295"><ele>694</ele><time>2020-01-18T13:06:06Z</time><name>PT9270</name></trkpt>
<trkpt lat="52.867951" lon="-3.386291"><ele>694</ele><time>2020-01-18T13:06:08Z</time><name>PT9271</name></trkpt>
<trkpt lat="52.867943" lon="-3.386284"><ele>694</ele><time>2020-01-18T13:06:08Z</time><name>PT9272</name></trkpt>
<trkpt lat="52.867937" lon="-3.386276"><ele>694</ele><time>2020-01-18T13:06:09Z</time><name>PT9273</name></trkpt>
<trkpt lat="52.867929" lon="-3.386267"><ele>694</ele><time>2020-01-18T13:06:11Z</time><name>PT9274</name></trkpt>
<trkpt lat="52.867922" lon="-3.386257"><ele>694</ele><time>2020-01-18T13:06:11Z</time><name>PT9275</name></trkpt>
<trkpt lat="52.867915" lon="-3.386248"><ele>695</ele><time>2020-01-18T13:06:12Z</time><name>PT9276</name></trkpt>
<trkpt lat="52.867910" lon="-3.386241"><ele>694</ele><time>2020-01-18T13:06:14Z</time><name>PT9277</name></trkpt>
<trkpt lat="52.867898" lon="-3.386231"><ele>695</ele><time>2020-01-18T13:06:14Z</time><name>PT9278</name></trkpt>
<trkpt lat="52.867889" lon="-3.386228"><ele>695</ele><time>2020-01-18T13:06:15Z</time><name>PT9279</name></trkpt>
<trkpt lat="52.867879" lon="-3.386224"><ele>695</ele><time>2020-01-18T13:06:17Z</time><name>PT9280</name></trkpt>
<trkpt lat="52.867869" lon="-3.386218"><ele>695</ele><time>2020-01-18T13:06:17Z</time><name>PT9281</name></trkpt>
<trkpt lat="52.867860" lon="-3.386216"><ele>695</ele><time>2020-01-18T13:06:18Z</time><name>PT9282</name></trkpt>
<trkpt lat="52.867851" lon="-3.386216"><ele>695</ele><time>2020-01-18T13:06:20Z</time><name>PT9283</name></trkpt>
<trkpt lat="52.867839" lon="-3.386214"><ele>696</ele><time>2020-01-18T13:06:20Z</time><name>PT9284</name></trkpt>
<trkpt lat="52.867827" lon="-3.386212"><ele>695</ele><time>2020-01-18T13:06:21Z</time><name>PT9285</name></trkpt>
<trkpt lat="52.867815" lon="-3.386210"><ele>695</ele><time>2020-01-18T13:06:23Z</time><name>PT9286</name></trkpt>
<trkpt lat="52.867807" lon="-3.386213"><ele>695</ele><time>2020-01-18T13:06:23Z</time><name>PT9287</name></trkpt>
<trkpt lat="52.867798" lon="-3.386212"><ele>695</ele><time>2020-01-18T13:06:24Z</time><name>PT9288</name></trkpt>
<trkpt lat="52.867789" lon="-3.386210"><ele>695</ele><time>2020-01-18T13:06:26Z</time><name>PT9289</name></trkpt>
<trkpt lat="52.867779" lon="-3.386208"><ele>695</ele><time>2020-01-18T13:06:26Z</time><name>PT9290</name></trkpt>
<trkpt lat="52.867769" lon="-3.386206"><ele>695</ele><time>2020-01-18T13:06:27Z</time><name>PT9291</name></trkpt>
<trkpt lat="52.867759" lon="-3.386201"><ele>695</ele><time>2020-01-18T13:06:29Z</time><name>PT9292</name></trkpt>
<trkpt lat="52.867749" lon="-3.386198"><ele>695</ele><time>2020-01-18T13:06:29Z</time><name>PT9293</name></trkpt>
<trkpt lat="52.867740" lon="-3.386196"><ele>695</ele><time>2020-01-18T13:06:30Z</time><name>PT9294</name></trkpt>
<trkpt lat="52.867730" lon="-3.386194"><ele>695</ele><time>2020-01-18T13:06:32Z</time><name>PT9295</name></trkpt>
<trkpt lat="52.867720" lon="-3.386191"><ele>695</ele><time>2020-01-18T13:06:32Z</time><name>PT9296</name></trkpt>
<trkpt lat="52.867710" lon="-3.386189"><ele>695</ele><time>2020-01-18T13:06:34Z</time><name>PT9297</name></trkpt>
<trkpt lat="52.867700" lon="-3.386189"><ele>695</ele><time>2020-01-18T13:06:35Z</time><name>PT9298</name></trkpt>
<trkpt lat="52.867689" lon="-3.386190"><ele>695</ele><time>2020-01-18T13:06:35Z</time><name>PT9299</name></trkpt>
<trkpt lat="52.867681" lon="-3.386191"><ele>695</ele><time>2020-01-18T13:06:36Z</time><name>PT9300</name></trkpt>
<trkpt lat="52.867669" lon="-3.386185"><ele>696</ele><time>2020-01-18T13:06:38Z</time><name>PT9301</name></trkpt>
<trkpt lat="52.867660" lon="-3.386186"><ele>695</ele><time>2020-01-18T13:06:38Z</time><name>PT9302</name></trkpt>
<trkpt lat="52.867651" lon="-3.386185"><ele>695</ele><time>2020-01-18T13:06:39Z</time><name>PT9303</name></trkpt>
<trkpt lat="52.867643" lon="-3.386185"><ele>695</ele><time>2020-01-18T13:06:41Z</time><name>PT9304</name></trkpt>
<trkpt lat="52.867631" lon="-3.386184"><ele>695</ele><time>2020-01-18T13:06:41Z</time><name>PT9305</name></trkpt>
<trkpt lat="52.867623" lon="-3.386182"><ele>695</ele><time>2020-01-18T13:06:42Z</time><name>PT9306</name></trkpt>
<trkpt lat="52.867614" lon="-3.386180"><ele>695</ele><time>2020-01-18T13:06:44Z</time><name>PT9307</name></trkpt>
<trkpt lat="52.867602" lon="-3.386176"><ele>695</ele><time>2020-01-18T13:06:44Z</time><name>PT9308</name></trkpt>
<trkpt lat="52.867592" lon="-3.386174"><ele>694</ele><time>2020-01-18T13:06:45Z</time><name>PT9309</name></trkpt>
<trkpt lat="52.867582" lon="-3.386168"><ele>695</ele><time>2020-01-18T13:06:47Z</time><name>PT9310</name></trkpt>
<trkpt lat="52.867573" lon="-3.386166"><ele>695</ele><time>2020-01-18T13:06:47Z</time><name>PT9311</name></trkpt>
<trkpt lat="52.867563" lon="-3.386163"><ele>695</ele><time>2020-01-18T13:06:48Z</time><name>PT9312</name></trkpt>
<trkpt lat="52.867554" lon="-3.386161"><ele>695</ele><time>2020-01-18T13:06:50Z</time><name>PT9313</name></trkpt>
<trkpt lat="52.867545" lon="-3.386160"><ele>695</ele><time>2020-01-18T13:06:50Z</time><name>PT9314</name></trkpt>
<trkpt lat="52.867537" lon="-3.386160"><ele>695</ele><time>2020-01-18T13:06:51Z</time><name>PT9315</name></trkpt>
<trkpt lat="52.867528" lon="-3.386165"><ele>695</ele><time>2020-01-18T13:06:53Z</time><name>PT9316</name></trkpt>
<trkpt lat="52.867520" lon="-3.386169"><ele>695</ele><time>2020-01-18T13:06:53Z</time><name>PT9317</name></trkpt>
<trkpt lat="52.867513" lon="-3.386168"><ele>695</ele><time>2020-01-18T13:06:54Z</time><name>PT9318</name></trkpt>
<trkpt lat="52.867502" lon="-3.386164"><ele>695</ele><time>2020-01-18T13:06:56Z</time><name>PT9319</name></trkpt>
<trkpt lat="52.867492" lon="-3.386159"><ele>695</ele><time>2020-01-18T13:06:56Z</time><name>PT9320</name></trkpt>
<trkpt lat="52.867482" lon="-3.386156"><ele>695</ele><time>2020-01-18T13:06:57Z</time><name>PT9321</name></trkpt>
<trkpt lat="52.867472" lon="-3.386158"><ele>695</ele><time>2020-01-18T13:06:59Z</time><name>PT9322</name></trkpt>
<trkpt lat="52.867464" lon="-3.386157"><ele>695</ele><time>2020-01-18T13:06:59Z</time><name>PT9323</name></trkpt>
<trkpt lat="52.867455" lon="-3.386155"><ele>695</ele><time>2020-01-18T13:07:01Z</time><name>PT9324</name></trkpt>
<trkpt lat="52.867446" lon="-3.386153"><ele>695</ele><time>2020-01-18T13:07:02Z</time><name>PT9325</name></trkpt>
<trkpt lat="52.867437" lon="-3.386151"><ele>694</ele><time>2020-01-18T13:07:02Z</time><name>PT9326</name></trkpt>
<trkpt lat="52.867427" lon="-3.386146"><ele>694</ele><time>2020-01-18T13:07:03Z</time><name>PT9327</name></trkpt>
<trkpt lat="52.867414" lon="-3.386143"><ele>694</ele><time>2020-01-18T13:07:05Z</time><name>PT9328</name></trkpt>
<trkpt lat="52.867402" lon="-3.386140"><ele>694</ele><time>2020-01-18T13:07:05Z</time><name>PT9329</name></trkpt>
<trkpt lat="52.867390" lon="-3.386136"><ele>694</ele><time>2020-01-18T13:07:06Z</time><name>PT9330</name></trkpt>
<trkpt lat="52.867375" lon="-3.386129"><ele>695</ele><time>2020-01-18T13:07:08Z</time><name>PT9331</name></trkpt>
<trkpt lat="52.867361" lon="-3.386125"><ele>695</ele><time>2020-01-18T13:07:08Z</time><name>PT9332</name></trkpt>
<trkpt lat="52.867350" lon="-3.386124"><ele>695</ele><time>2020-01-18T13:07:09Z</time><name>PT9333</name></trkpt>
<trkpt lat="52.867339" lon="-3.386121"><ele>694</ele><time>2020-01-18T13:07:11Z</time><name>PT9334</name></trkpt>
<trkpt lat="52.867330" lon="-3.386118"><ele>694</ele><time>2020-01-18T13:07:11Z</time><name>PT9335</name></trkpt>
<trkpt lat="52.867321" lon="-3.386116"><ele>694</ele><time>2020-01-18T13:07:12Z</time><name>PT9336</name></trkpt>
<trkpt lat="52.867311" lon="-3.386115"><ele>694</ele><time>2020-01-18T13:07:14Z</time><name>PT9337</name></trkpt>
<trkpt lat="52.867304" lon="-3.386116"><ele>693</ele><time>2020-01-18T13:07:14Z</time><name>PT9338</name></trkpt>
<trkpt lat="52.867294" lon="-3.386114"><ele>693</ele><time>2020-01-18T13:07:15Z</time><name>PT9339</name></trkpt>
<trkpt lat="52.867282" lon="-3.386109"><ele>693</ele><time>2020-01-18T13:07:17Z</time><name>PT9340</name></trkpt>
<trkpt lat="52.867271" lon="-3.386108"><ele>693</ele><time>2020-01-18T13:07:17Z</time><name>PT9341</name></trkpt>
<trkpt lat="52.867261" lon="-3.386108"><ele>693</ele><time>2020-01-18T13:07:18Z</time><name>PT9342</name></trkpt>
<trkpt lat="52.867250" lon="-3.386102"><ele>693</ele><time>2020-01-18T13:07:20Z</time><name>PT9343</name></trkpt>
<trkpt lat="52.867239" lon="-3.386099"><ele>693</ele><time>2020-01-18T13:07:20Z</time><name>PT9344</name></trkpt>
<trkpt lat="52.867230" lon="-3.386101"><ele>693</ele><time>2020-01-18T13:07:22Z</time><name>PT9345</name></trkpt>
<trkpt lat="52.867219" lon="-3.386100"><ele>693</ele><time>2020-01-18T13:07:23Z</time><name>PT9346</name></trkpt>
<trkpt lat="52.867207" lon="-3.386099"><ele>693</ele><time>2020-01-18T13:07:23Z</time><name>PT9347</name></trkpt>
<trkpt lat="52.867196" lon="-3.386098"><ele>692</ele><time>2020-01-18T13:07:24Z</time><name>PT9348</name></trkpt>
<trkpt lat="52.867186" lon="-3.386098"><ele>692</ele><time>2020-01-18T13:07:26Z</time><name>PT9349</name></trkpt>
<trkpt lat="52.867177" lon="-3.386098"><ele>692</ele><time>2020-01-18T13:07:26Z</time><name>PT9350</name></trkpt>
<trkpt lat="52.867164" lon="-3.386095"><ele>692</ele><time>2020-01-18T13:07:27Z</time><name>PT9351</name></trkpt>
<trkpt lat="52.867153" lon="-3.386094"><ele>692</ele><time>2020-01-18T13:07:29Z</time><name>PT9352</name></trkpt>
<trkpt lat="52.867145" lon="-3.386097"><ele>692</ele><time>2020-01-18T13:07:29Z</time><name>PT9353</name></trkpt>
<trkpt lat="52.867136" lon="-3.386099"><ele>691</ele><time>2020-01-18T13:07:31Z</time><name>PT9354</name></trkpt>
<trkpt lat="52.867126" lon="-3.386097"><ele>691</ele><time>2020-01-18T13:07:32Z</time><name>PT9355</name></trkpt>
<trkpt lat="52.867115" lon="-3.386097"><ele>691</ele><time>2020-01-18T13:07:32Z</time><name>PT9356</name></trkpt>
<trkpt lat="52.867102" lon="-3.386097"><ele>691</ele><time>2020-01-18T13:07:33Z</time><name>PT9357</name></trkpt>
<trkpt lat="52.867090" lon="-3.386098"><ele>690</ele><time>2020-01-18T13:07:35Z</time><name>PT9358</name></trkpt>
<trkpt lat="52.867080" lon="-3.386101"><ele>690</ele><time>2020-01-18T13:07:35Z</time><name>PT9359</name></trkpt>
<trkpt lat="52.867070" lon="-3.386101"><ele>690</ele><time>2020-01-18T13:07:36Z</time><name>PT9360</name></trkpt>
<trkpt lat="52.867057" lon="-3.386095"><ele>690</ele><time>2020-01-18T13:07:38Z</time><name>PT9361</name></trkpt>
<trkpt lat="52.867044" lon="-3.386091"><ele>690</ele><time>2020-01-18T13:07:38Z</time><name>PT9362</name></trkpt>
<trkpt lat="52.867035" lon="-3.386086"><ele>690</ele><time>2020-01-18T13:07:39Z</time><name>PT9363</name></trkpt>
<trkpt lat="52.867028" lon="-3.386085"><ele>690</ele><time>2020-01-18T13:07:41Z</time><name>PT9364</name></trkpt>
<trkpt lat="52.867022" lon="-3.386085"><ele>689</ele><time>2020-01-18T13:07:41Z</time><name>PT9365</name></trkpt>
<trkpt lat="52.867015" lon="-3.386084"><ele>689</ele><time>2020-01-18T13:07:42Z</time><name>PT9366</name></trkpt>
<trkpt lat="52.867011" lon="-3.386085"><ele>689</ele><time>2020-01-18T13:07:44Z</time><name>PT9367</name></trkpt>
<trkpt lat="52.867006" lon="-3.386082"><ele>689</ele><time>2020-01-18T13:07:44Z</time><name>PT9368</name></trkpt>
<trkpt lat="52.867001" lon="-3.386079"><ele>689</ele><time>2020-01-18T13:07:45Z</time><name>PT9369</name></trkpt>
<trkpt lat="52.866995" lon="-3.386081"><ele>689</ele><time>2020-01-18T13:07:47Z</time><name>PT9370</name></trkpt>
<trkpt lat="52.866988" lon="-3.386080"><ele>689</ele><time>2020-01-18T13:07:47Z</time><name>PT9371</name></trkpt>
<trkpt lat="52.866983" lon="-3.386077"><ele>689</ele><time>2020-01-18T13:07:48Z</time><name>PT9372</name></trkpt>
<trkpt lat="52.866976" lon="-3.386078"><ele>689</ele><time>2020-01-18T13:07:50Z</time><name>PT9373</name></trkpt>
<trkpt lat="52.866962" lon="-3.386078"><ele>689</ele><time>2020-01-18T13:07:50Z</time><name>PT9374</name></trkpt>
<trkpt lat="52.866957" lon="-3.386071"><ele>689</ele><time>2020-01-18T13:07:51Z</time><name>PT9375</name></trkpt>
<trkpt lat="52.866956" lon="-3.386070"><ele>689</ele><time>2020-01-18T13:07:53Z</time><name>PT9376</name></trkpt>
<trkpt lat="52.866951" lon="-3.386064"><ele>690</ele><time>2020-01-18T13:07:53Z</time><name>PT9377</name></trkpt>
<trkpt lat="52.866948" lon="-3.386062"><ele>690</ele><time>2020-01-18T13:07:54Z</time><name>PT9378</name></trkpt>
<trkpt lat="52.866946" lon="-3.386062"><ele>690</ele><time>2020-01-18T13:08:17Z</time><name>PT9379</name></trkpt>
<trkpt lat="52.866943" lon="-3.386056"><ele>691</ele><time>2020-01-18T13:08:17Z</time><name>PT9380</name></trkpt>
<trkpt lat="52.866935" lon="-3.386024"><ele>690</ele><time>2020-01-18T13:08:18Z</time><name>PT9381</name></trkpt>
<trkpt lat="52.866931" lon="-3.386032"><ele>690</ele><time>2020-01-18T13:08:20Z</time><name>PT9382</name></trkpt>
<trkpt lat="52.866918" lon="-3.386035"><ele>690</ele><time>2020-01-18T13:08:20Z</time><name>PT9383</name></trkpt>
<trkpt lat="52.866910" lon="-3.386029"><ele>690</ele><time>2020-01-18T13:08:21Z</time><name>PT9384</name></trkpt>
<trkpt lat="52.866903" lon="-3.386023"><ele>690</ele><time>2020-01-18T13:08:23Z</time><name>PT9385</name></trkpt>
<trkpt lat="52.866892" lon="-3.386013"><ele>689</ele><time>2020-01-18T13:08:23Z</time><name>PT9386</name></trkpt>
<trkpt lat="52.866885" lon="-3.386012"><ele>689</ele><time>2020-01-18T13:08:24Z</time><name>PT9387</name></trkpt>
<trkpt lat="52.866879" lon="-3.386012"><ele>689</ele><time>2020-01-18T13:08:26Z</time><name>PT9388</name></trkpt>
<trkpt lat="52.866869" lon="-3.386003"><ele>688</ele><time>2020-01-18T13:08:26Z</time><name>PT9389</name></trkpt>
<trkpt lat="52.866861" lon="-3.385998"><ele>688</ele><time>2020-01-18T13:08:27Z</time><name>PT9390</name></trkpt>
<trkpt lat="52.866855" lon="-3.385995"><ele>688</ele><time>2020-01-18T13:08:29Z</time><name>PT9391</name></trkpt>
<trkpt lat="52.866849" lon="-3.385993"><ele>687</ele><time>2020-01-18T13:08:29Z</time><name>PT9392</name></trkpt>
<trkpt lat="52.866843" lon="-3.385992"><ele>687</ele><time>2020-01-18T13:08:30Z</time><name>PT9393</name></trkpt>
<trkpt lat="52.866836" lon="-3.385988"><ele>687</ele><time>2020-01-18T13:08:32Z</time><name>PT9394</name></trkpt>
<trkpt lat="52.866829" lon="-3.385981"><ele>687</ele><time>2020-01-18T13:08:32Z</time><name>PT9395</name></trkpt>
<trkpt lat="52.866827" lon="-3.385983"><ele>686</ele><time>2020-01-18T13:08:33Z</time><name>PT9396</name></trkpt>
<trkpt lat="52.866824" lon="-3.385985"><ele>686</ele><time>2020-01-18T13:08:35Z</time><name>PT9397</name></trkpt>
<trkpt lat="52.866815" lon="-3.385985"><ele>686</ele><time>2020-01-18T13:08:35Z</time><name>PT9398</name></trkpt>
<trkpt lat="52.866807" lon="-3.385984"><ele>685</ele><time>2020-01-18T13:08:36Z</time><name>PT9399</name></trkpt>
<trkpt lat="52.866801" lon="-3.385987"><ele>685</ele><time>2020-01-18T13:08:38Z</time><name>PT9400</name></trkpt>
<trkpt lat="52.866796" lon="-3.385989"><ele>685</ele><time>2020-01-18T13:08:38Z</time><name>PT9401</name></trkpt>
<trkpt lat="52.866790" lon="-3.385991"><ele>685</ele><time>2020-01-18T13:08:39Z</time><name>PT9402</name></trkpt>
<trkpt lat="52.866784" lon="-3.385995"><ele>684</ele><time>2020-01-18T13:08:41Z</time><name>PT9403</name></trkpt>
<trkpt lat="52.866779" lon="-3.385997"><ele>684</ele><time>2020-01-18T13:08:41Z</time><name>PT9404</name></trkpt>
<trkpt lat="52.866772" lon="-3.386000"><ele>684</ele><time>2020-01-18T13:08:42Z</time><name>PT9405</name></trkpt>
<trkpt lat="52.866769" lon="-3.385999"><ele>684</ele><time>2020-01-18T13:08:44Z</time><name>PT9406</name></trkpt>
<trkpt lat="52.866766" lon="-3.386005"><ele>684</ele><time>2020-01-18T13:08:44Z</time><name>PT9407</name></trkpt>
<trkpt lat="52.866766" lon="-3.386002"><ele>684</ele><time>2020-01-18T13:08:45Z</time><name>PT9408</name></trkpt>
<trkpt lat="52.866766" lon="-3.386009"><ele>684</ele><time>2020-01-18T13:08:47Z</time><name>PT9409</name></trkpt>
<trkpt lat="52.866760" lon="-3.386009"><ele>684</ele><time>2020-01-18T13:08:48Z</time><name>PT9410</name></trkpt>
<trkpt lat="52.866754" lon="-3.386009"><ele>683</ele><time>2020-01-18T13:08:50Z</time><name>PT9411</name></trkpt>
<trkpt lat="52.866747" lon="-3.386013"><ele>683</ele><time>2020-01-18T13:08:50Z</time><name>PT9412</name></trkpt>
<trkpt lat="52.866742" lon="-3.386011"><ele>683</ele><time>2020-01-18T13:08:51Z</time><name>PT9413</name></trkpt>
<trkpt lat="52.866740" lon="-3.386010"><ele>683</ele><time>2020-01-18T13:08:53Z</time><name>PT9414</name></trkpt>
<trkpt lat="52.866734" lon="-3.386007"><ele>683</ele><time>2020-01-18T13:08:54Z</time><name>PT9415</name></trkpt>
<trkpt lat="52.866729" lon="-3.386001"><ele>683</ele><time>2020-01-18T13:08:56Z</time><name>PT9416</name></trkpt>
<trkpt lat="52.866725" lon="-3.385992"><ele>682</ele><time>2020-01-18T13:08:56Z</time><name>PT9417</name></trkpt>
<trkpt lat="52.866719" lon="-3.385989"><ele>682</ele><time>2020-01-18T13:08:57Z</time><name>PT9418</name></trkpt>
<trkpt lat="52.866714" lon="-3.385996"><ele>682</ele><time>2020-01-18T13:08:59Z</time><name>PT9419</name></trkpt>
<trkpt lat="52.866710" lon="-3.385995"><ele>682</ele><time>2020-01-18T13:08:59Z</time><name>PT9420</name></trkpt>
<trkpt lat="52.866708" lon="-3.385985"><ele>682</ele><time>2020-01-18T13:09:00Z</time><name>PT9421</name></trkpt>
<trkpt lat="52.866702" lon="-3.385990"><ele>682</ele><time>2020-01-18T13:09:02Z</time><name>PT9422</name></trkpt>
<trkpt lat="52.866699" lon="-3.385992"><ele>681</ele><time>2020-01-18T13:09:02Z</time><name>PT9423</name></trkpt>
<trkpt lat="52.866697" lon="-3.385988"><ele>681</ele><time>2020-01-18T13:09:03Z</time><name>PT9424</name></trkpt>
<trkpt lat="52.866695" lon="-3.385985"><ele>681</ele><time>2020-01-18T13:09:05Z</time><name>PT9425</name></trkpt>
<trkpt lat="52.866692" lon="-3.385980"><ele>681</ele><time>2020-01-18T13:09:05Z</time><name>PT9426</name></trkpt>
<trkpt lat="52.866685" lon="-3.385974"><ele>681</ele><time>2020-01-18T13:09:06Z</time><name>PT9427</name></trkpt>
<trkpt lat="52.866679" lon="-3.385972"><ele>681</ele><time>2020-01-18T13:09:08Z</time><name>PT9428</name></trkpt>
<trkpt lat="52.866673" lon="-3.385972"><ele>680</ele><time>2020-01-18T13:09:08Z</time><name>PT9429</name></trkpt>
<trkpt lat="52.866669" lon="-3.385970"><ele>680</ele><time>2020-01-18T13:09:09Z</time><name>PT9430</name></trkpt>
<trkpt lat="52.866665" lon="-3.385968"><ele>680</ele><time>2020-01-18T13:09:11Z</time><name>PT9431</name></trkpt>
<trkpt lat="52.866659" lon="-3.385961"><ele>680</ele><time>2020-01-18T13:09:11Z</time><name>PT9432</name></trkpt>
<trkpt lat="52.866656" lon="-3.385959"><ele>680</ele><time>2020-01-18T13:09:12Z</time><name>PT9433</name></trkpt>
<trkpt lat="52.866652" lon="-3.385956"><ele>679</ele><time>2020-01-18T13:09:14Z</time><name>PT9434</name></trkpt>
<trkpt lat="52.866647" lon="-3.385949"><ele>680</ele><time>2020-01-18T13:09:14Z</time><name>PT9435</name></trkpt>
<trkpt lat="52.866642" lon="-3.385949"><ele>679</ele><time>2020-01-18T13:09:15Z</time><name>PT9436</name></trkpt>
<trkpt lat="52.866638" lon="-3.385945"><ele>679</ele><time>2020-01-18T13:09:17Z</time><name>PT9437</name></trkpt>
<trkpt lat="52.866631" lon="-3.385937"><ele>678</ele><time>2020-01-18T13:09:17Z</time><name>PT9438</name></trkpt>
<trkpt lat="52.866628" lon="-3.385936"><ele>678</ele><time>2020-01-18T13:09:19Z</time><name>PT9439</name></trkpt>
<trkpt lat="52.866626" lon="-3.385934"><ele>678</ele><time>2020-01-18T13:09:20Z</time><name>PT9440</name></trkpt>
<trkpt lat="52.866621" lon="-3.385927"><ele>678</ele><time>2020-01-18T13:09:20Z</time><name>PT9441</name></trkpt>
<trkpt lat="52.866618" lon="-3.385923"><ele>678</ele><time>2020-01-18T13:09:21Z</time><name>PT9442</name></trkpt>
<trkpt lat="52.866614" lon="-3.385922"><ele>678</ele><time>2020-01-18T13:09:23Z</time><name>PT9443</name></trkpt>
<trkpt lat="52.866612" lon="-3.385917"><ele>678</ele><time>2020-01-18T13:09:23Z</time><name>PT9444</name></trkpt>
<trkpt lat="52.866608" lon="-3.385910"><ele>678</ele><time>2020-01-18T13:09:24Z</time><name>PT9445</name></trkpt>
<trkpt lat="52.866605" lon="-3.385912"><ele>678</ele><time>2020-01-18T13:09:26Z</time><name>PT9446</name></trkpt>
<trkpt lat="52.866601" lon="-3.385916"><ele>678</ele><time>2020-01-18T13:09:26Z</time><name>PT9447</name></trkpt>
<trkpt lat="52.866595" lon="-3.385914"><ele>677</ele><time>2020-01-18T13:09:27Z</time><name>PT9448</name></trkpt>
<trkpt lat="52.866591" lon="-3.385913"><ele>677</ele><time>2020-01-18T13:09:29Z</time><name>PT9449</name></trkpt>
<trkpt lat="52.866588" lon="-3.385912"><ele>677</ele><time>2020-01-18T13:09:29Z</time><name>PT9450</name></trkpt>
<trkpt lat="52.866586" lon="-3.385912"><ele>677</ele><time>2020-01-18T13:09:30Z</time><name>PT9451</name></trkpt>
<trkpt lat="52.866584" lon="-3.385910"><ele>676</ele><time>2020-01-18T13:09:32Z</time><name>PT9452</name></trkpt>
<trkpt lat="52.866580" lon="-3.385909"><ele>677</ele><time>2020-01-18T13:09:32Z</time><name>PT9453</name></trkpt>
<trkpt lat="52.866577" lon="-3.385906"><ele>677</ele><time>2020-01-18T13:09:33Z</time><name>PT9454</name></trkpt>
<trkpt lat="52.866576" lon="-3.385899"><ele>677</ele><time>2020-01-18T13:09:35Z</time><name>PT9455</name></trkpt>
<trkpt lat="52.866571" lon="-3.385892"><ele>677</ele><time>2020-01-18T13:09:35Z</time><name>PT9456</name></trkpt>
<trkpt lat="52.866566" lon="-3.385884"><ele>677</ele><time>2020-01-18T13:09:36Z</time><name>PT9457</name></trkpt>
<trkpt lat="52.866563" lon="-3.385876"><ele>677</ele><time>2020-01-18T13:09:38Z</time><name>PT9458</name></trkpt>
<trkpt lat="52.866562" lon="-3.385869"><ele>678</ele><time>2020-01-18T13:09:38Z</time><name>PT9459</name></trkpt>
<trkpt lat="52.866561" lon="-3.385867"><ele>677</ele><time>2020-01-18T13:09:39Z</time><name>PT9460</name></trkpt>
<trkpt lat="52.866558" lon="-3.385861"><ele>677</ele><time>2020-01-18T13:09:41Z</time><name>PT9461</name></trkpt>
<trkpt lat="52.866554" lon="-3.385856"><ele>677</ele><time>2020-01-18T13:09:41Z</time><name>PT9462</name></trkpt>
<trkpt lat="52.866551" lon="-3.385850"><ele>677</ele><time>2020-01-18T13:09:42Z</time><name>PT9463</name></trkpt>
<trkpt lat="52.866552" lon="-3.385861"><ele>677</ele><time>2020-01-18T13:09:47Z</time><name>PT9464</name></trkpt>
<trkpt lat="52.866548" lon="-3.385857"><ele>676</ele><time>2020-01-18T13:09:47Z</time><name>PT9465</name></trkpt>
<trkpt lat="52.866544" lon="-3.385855"><ele>676</ele><time>2020-01-18T13:09:49Z</time><name>PT9466</name></trkpt>
<trkpt lat="52.866539" lon="-3.385849"><ele>676</ele><time>2020-01-18T13:09:50Z</time><name>PT9467</name></trkpt>
<trkpt lat="52.866532" lon="-3.385850"><ele>676</ele><time>2020-01-18T13:09:50Z</time><name>PT9468</name></trkpt>
<trkpt lat="52.866527" lon="-3.385850"><ele>676</ele><time>2020-01-18T13:09:51Z</time><name>PT9469</name></trkpt>
<trkpt lat="52.866525" lon="-3.385850"><ele>676</ele><time>2020-01-18T13:09:53Z</time><name>PT9470</name></trkpt>
<trkpt lat="52.866525" lon="-3.385851"><ele>675</ele><time>2020-01-18T13:09:54Z</time><name>PT9471</name></trkpt>
<trkpt lat="52.866522" lon="-3.385851"><ele>675</ele><time>2020-01-18T13:09:55Z</time><name>PT9472</name></trkpt>
<trkpt lat="52.866518" lon="-3.385847"><ele>675</ele><time>2020-01-18T13:09:56Z</time><name>PT9473</name></trkpt>
<trkpt lat="52.866511" lon="-3.385839"><ele>674</ele><time>2020-01-18T13:09:56Z</time><name>PT9474</name></trkpt>
<trkpt lat="52.866506" lon="-3.385844"><ele>674</ele><time>2020-01-18T13:09:57Z</time><name>PT9475</name></trkpt>
<trkpt lat="52.866502" lon="-3.385841"><ele>674</ele><time>2020-01-18T13:09:59Z</time><name>PT9476</name></trkpt>
<trkpt lat="52.866499" lon="-3.385834"><ele>674</ele><time>2020-01-18T13:09:59Z</time><name>PT9477</name></trkpt>
<trkpt lat="52.866495" lon="-3.385826"><ele>674</ele><time>2020-01-18T13:10:00Z</time><name>PT9478</name></trkpt>
<trkpt lat="52.866492" lon="-3.385823"><ele>674</ele><time>2020-01-18T13:10:02Z</time><name>PT9479</name></trkpt>
<trkpt lat="52.866490" lon="-3.385819"><ele>674</ele><time>2020-01-18T13:10:02Z</time><name>PT9480</name></trkpt>
<trkpt lat="52.866489" lon="-3.385815"><ele>674</ele><time>2020-01-18T13:10:03Z</time><name>PT9481</name></trkpt>
<trkpt lat="52.866485" lon="-3.385812"><ele>674</ele><time>2020-01-18T13:10:05Z</time><name>PT9482</name></trkpt>
<trkpt lat="52.866481" lon="-3.385806"><ele>674</ele><time>2020-01-18T13:10:05Z</time><name>PT9483</name></trkpt>
<trkpt lat="52.866477" lon="-3.385803"><ele>673</ele><time>2020-01-18T13:10:07Z</time><name>PT9484</name></trkpt>
<trkpt lat="52.866472" lon="-3.385798"><ele>673</ele><time>2020-01-18T13:10:08Z</time><name>PT9485</name></trkpt>
<trkpt lat="52.866466" lon="-3.385794"><ele>673</ele><time>2020-01-18T13:10:08Z</time><name>PT9486</name></trkpt>
<trkpt lat="52.866462" lon="-3.385786"><ele>673</ele><time>2020-01-18T13:10:09Z</time><name>PT9487</name></trkpt>
<trkpt lat="52.866456" lon="-3.385779"><ele>672</ele><time>2020-01-18T13:10:11Z</time><name>PT9488</name></trkpt>
<trkpt lat="52.866450" lon="-3.385778"><ele>672</ele><time>2020-01-18T13:10:11Z</time><name>PT9489</name></trkpt>
<trkpt lat="52.866445" lon="-3.385779"><ele>672</ele><time>2020-01-18T13:10:12Z</time><name>PT9490</name></trkpt>
<trkpt lat="52.866442" lon="-3.385779"><ele>672</ele><time>2020-01-18T13:10:14Z</time><name>PT9491</name></trkpt>
<trkpt lat="52.866437" lon="-3.385783"><ele>672</ele><time>2020-01-18T13:10:14Z</time><name>PT9492</name></trkpt>
<trkpt lat="52.866432" lon="-3.385784"><ele>671</ele><time>2020-01-18T13:10:15Z</time><name>PT9493</name></trkpt>
<trkpt lat="52.866427" lon="-3.385781"><ele>671</ele><time>2020-01-18T13:10:17Z</time><name>PT9494</name></trkpt>
<trkpt lat="52.866419" lon="-3.385776"><ele>671</ele><time>2020-01-18T13:10:17Z</time><name>PT9495</name></trkpt>
<trkpt lat="52.866415" lon="-3.385770"><ele>670</ele><time>2020-01-18T13:10:18Z</time><name>PT9496</name></trkpt>
<trkpt lat="52.866411" lon="-3.385766"><ele>670</ele><time>2020-01-18T13:10:20Z</time><name>PT9497</name></trkpt>
<trkpt lat="52.866409" lon="-3.385762"><ele>670</ele><time>2020-01-18T13:10:20Z</time><name>PT9498</name></trkpt>
<trkpt lat="52.866405" lon="-3.385758"><ele>669</ele><time>2020-01-18T13:10:21Z</time><name>PT9499</name></trkpt>
<trkpt lat="52.866403" lon="-3.385751"><ele>670</ele><time>2020-01-18T13:10:23Z</time><name>PT9500</name></trkpt>
<trkpt lat="52.866398" lon="-3.385741"><ele>669</ele><time>2020-01-18T13:10:23Z</time><name>PT9501</name></trkpt>
<trkpt lat="52.866395" lon="-3.385730"><ele>669</ele><time>2020-01-18T13:10:24Z</time><name>PT9502</name></trkpt>
<trkpt lat="52.866389" lon="-3.385720"><ele>669</ele><time>2020-01-18T13:10:26Z</time><name>PT9503</name></trkpt>
<trkpt lat="52.866386" lon="-3.385711"><ele>669</ele><time>2020-01-18T13:10:26Z</time><name>PT9504</name></trkpt>
<trkpt lat="52.866383" lon="-3.385707"><ele>669</ele><time>2020-01-18T13:10:27Z</time><name>PT9505</name></trkpt>
<trkpt lat="52.866379" lon="-3.385705"><ele>668</ele><time>2020-01-18T13:10:29Z</time><name>PT9506</name></trkpt>
<trkpt lat="52.866373" lon="-3.385705"><ele>668</ele><time>2020-01-18T13:10:29Z</time><name>PT9507</name></trkpt>
<trkpt lat="52.866367" lon="-3.385701"><ele>667</ele><time>2020-01-18T13:10:30Z</time><name>PT9508</name></trkpt>
<trkpt lat="52.866361" lon="-3.385697"><ele>667</ele><time>2020-01-18T13:10:32Z</time><name>PT9509</name></trkpt>
<trkpt lat="52.866357" lon="-3.385689"><ele>667</ele><time>2020-01-18T13:10:32Z</time><name>PT9510</name></trkpt>
<trkpt lat="52.866350" lon="-3.385684"><ele>667</ele><time>2020-01-18T13:10:33Z</time><name>PT9511</name></trkpt>
<trkpt lat="52.866339" lon="-3.385673"><ele>666</ele><time>2020-01-18T13:10:35Z</time><name>PT9512</name></trkpt>
<trkpt lat="52.866331" lon="-3.385672"><ele>666</ele><time>2020-01-18T13:10:35Z</time><name>PT9513</name></trkpt>
<trkpt lat="52.866323" lon="-3.385668"><ele>665</ele><time>2020-01-18T13:10:36Z</time><name>PT9514</name></trkpt>
<trkpt lat="52.866317" lon="-3.385663"><ele>665</ele><time>2020-01-18T13:10:38Z</time><name>PT9515</name></trkpt>
<trkpt lat="52.866310" lon="-3.385659"><ele>665</ele><time>2020-01-18T13:10:38Z</time><name>PT9516</name></trkpt>
<trkpt lat="52.866302" lon="-3.385656"><ele>664</ele><time>2020-01-18T13:10:39Z</time><name>PT9517</name></trkpt>
<trkpt lat="52.866295" lon="-3.385651"><ele>664</ele><time>2020-01-18T13:10:41Z</time><name>PT9518</name></trkpt>
<trkpt lat="52.866285" lon="-3.385641"><ele>664</ele><time>2020-01-18T13:10:41Z</time><name>PT9519</name></trkpt>
<trkpt lat="52.866278" lon="-3.385638"><ele>664</ele><time>2020-01-18T13:10:42Z</time><name>PT9520</name></trkpt>
<trkpt lat="52.866270" lon="-3.385632"><ele>663</ele><time>2020-01-18T13:10:44Z</time><name>PT9521</name></trkpt>
<trkpt lat="52.866261" lon="-3.385624"><ele>663</ele><time>2020-01-18T13:10:44Z</time><name>PT9522</name></trkpt>
<trkpt lat="52.866253" lon="-3.385615"><ele>663</ele><time>2020-01-18T13:10:45Z</time><name>PT9523</name></trkpt>
<trkpt lat="52.866245" lon="-3.385607"><ele>663</ele><time>2020-01-18T13:10:47Z</time><name>PT9524</name></trkpt>
<trkpt lat="52.866239" lon="-3.385595"><ele>664</ele><time>2020-01-18T13:10:47Z</time><name>PT9525</name></trkpt>
<trkpt lat="52.866234" lon="-3.385587"><ele>663</ele><time>2020-01-18T13:10:48Z</time><name>PT9526</name></trkpt>
<trkpt lat="52.866228" lon="-3.385575"><ele>663</ele><time>2020-01-18T13:10:50Z</time><name>PT9527</name></trkpt>
<trkpt lat="52.866220" lon="-3.385567"><ele>663</ele><time>2020-01-18T13:10:50Z</time><name>PT9528</name></trkpt>
<trkpt lat="52.866214" lon="-3.385568"><ele>663</ele><time>2020-01-18T13:10:51Z</time><name>PT9529</name></trkpt>
<trkpt lat="52.866204" lon="-3.385563"><ele>663</ele><time>2020-01-18T13:10:53Z</time><name>PT9530</name></trkpt>
<trkpt lat="52.866196" lon="-3.385561"><ele>663</ele><time>2020-01-18T13:10:53Z</time><name>PT9531</name></trkpt>
<trkpt lat="52.866190" lon="-3.385559"><ele>662</ele><time>2020-01-18T13:10:54Z</time><name>PT9532</name></trkpt>
<trkpt lat="52.866185" lon="-3.385552"><ele>662</ele><time>2020-01-18T13:10:56Z</time><name>PT9533</name></trkpt>
<trkpt lat="52.866179" lon="-3.385547"><ele>662</ele><time>2020-01-18T13:10:56Z</time><name>PT9534</name></trkpt>
<trkpt lat="52.866173" lon="-3.385543"><ele>662</ele><time>2020-01-18T13:10:57Z</time><name>PT9535</name></trkpt>
<trkpt lat="52.866166" lon="-3.385537"><ele>662</ele><time>2020-01-18T13:10:59Z</time><name>PT9536</name></trkpt>
<trkpt lat="52.866157" lon="-3.385534"><ele>662</ele><time>2020-01-18T13:10:59Z</time><name>PT9537</name></trkpt>
<trkpt lat="52.866151" lon="-3.385533"><ele>662</ele><time>2020-01-18T13:11:00Z</time><name>PT9538</name></trkpt>
<trkpt lat="52.866145" lon="-3.385528"><ele>662</ele><time>2020-01-18T13:11:02Z</time><name>PT9539</name></trkpt>
<trkpt lat="52.866141" lon="-3.385522"><ele>662</ele><time>2020-01-18T13:11:02Z</time><name>PT9540</name></trkpt>
<trkpt lat="52.866135" lon="-3.385515"><ele>661</ele><time>2020-01-18T13:11:04Z</time><name>PT9541</name></trkpt>
<trkpt lat="52.866128" lon="-3.385511"><ele>661</ele><time>2020-01-18T13:11:05Z</time><name>PT9542</name></trkpt>
<trkpt lat="52.866122" lon="-3.385510"><ele>661</ele><time>2020-01-18T13:11:05Z</time><name>PT9543</name></trkpt>
<trkpt lat="52.866115" lon="-3.385503"><ele>661</ele><time>2020-01-18T13:11:06Z</time><name>PT9544</name></trkpt>
<trkpt lat="52.866105" lon="-3.385490"><ele>661</ele><time>2020-01-18T13:11:08Z</time><name>PT9545</name></trkpt>
<trkpt lat="52.866097" lon="-3.385475"><ele>661</ele><time>2020-01-18T13:11:08Z</time><name>PT9546</name></trkpt>
<trkpt lat="52.866091" lon="-3.385467"><ele>661</ele><time>2020-01-18T13:11:09Z</time><name>PT9547</name></trkpt>
<trkpt lat="52.866086" lon="-3.385466"><ele>660</ele><time>2020-01-18T13:11:11Z</time><name>PT9548</name></trkpt>
<trkpt lat="52.866081" lon="-3.385466"><ele>660</ele><time>2020-01-18T13:11:12Z</time><name>PT9549</name></trkpt>
<trkpt lat="52.866076" lon="-3.385466"><ele>660</ele><time>2020-01-18T13:11:12Z</time><name>PT9550</name></trkpt>
<trkpt lat="52.866069" lon="-3.385463"><ele>660</ele><time>2020-01-18T13:11:14Z</time><name>PT9551</name></trkpt>
<trkpt lat="52.866061" lon="-3.385459"><ele>660</ele><time>2020-01-18T13:11:14Z</time><name>PT9552</name></trkpt>
<trkpt lat="52.866055" lon="-3.385455"><ele>660</ele><time>2020-01-18T13:11:15Z</time><name>PT9553</name></trkpt>
<trkpt lat="52.866047" lon="-3.385448"><ele>659</ele><time>2020-01-18T13:11:17Z</time><name>PT9554</name></trkpt>
<trkpt lat="52.866038" lon="-3.385439"><ele>659</ele><time>2020-01-18T13:11:17Z</time><name>PT9555</name></trkpt>
<trkpt lat="52.866029" lon="-3.385431"><ele>659</ele><time>2020-01-18T13:11:18Z</time><name>PT9556</name></trkpt>
<trkpt lat="52.866021" lon="-3.385424"><ele>659</ele><time>2020-01-18T13:11:20Z</time><name>PT9557</name></trkpt>
<trkpt lat="52.866012" lon="-3.385411"><ele>659</ele><time>2020-01-18T13:11:20Z</time><name>PT9558</name></trkpt>
<trkpt lat="52.866004" lon="-3.385401"><ele>659</ele><time>2020-01-18T13:11:21Z</time><name>PT9559</name></trkpt>
<trkpt lat="52.865994" lon="-3.385392"><ele>658</ele><time>2020-01-18T13:11:23Z</time><name>PT9560</name></trkpt>
<trkpt lat="52.865983" lon="-3.385387"><ele>658</ele><time>2020-01-18T13:11:23Z</time><name>PT9561</name></trkpt>
<trkpt lat="52.865975" lon="-3.385387"><ele>657</ele><time>2020-01-18T13:11:24Z</time><name>PT9562</name></trkpt>
<trkpt lat="52.865966" lon="-3.385384"><ele>657</ele><time>2020-01-18T13:11:26Z</time><name>PT9563</name></trkpt>
<trkpt lat="52.865958" lon="-3.385381"><ele>657</ele><time>2020-01-18T13:11:26Z</time><name>PT9564</name></trkpt>
<trkpt lat="52.865949" lon="-3.385373"><ele>657</ele><time>2020-01-18T13:11:27Z</time><name>PT9565</name></trkpt>
<trkpt lat="52.865939" lon="-3.385364"><ele>657</ele><time>2020-01-18T13:11:29Z</time><name>PT9566</name></trkpt>
<trkpt lat="52.865929" lon="-3.385355"><ele>657</ele><time>2020-01-18T13:11:29Z</time><name>PT9567</name></trkpt>
<trkpt lat="52.865923" lon="-3.385354"><ele>657</ele><time>2020-01-18T13:11:30Z</time><name>PT9568</name></trkpt>
<trkpt lat="52.865918" lon="-3.385350"><ele>657</ele><time>2020-01-18T13:11:32Z</time><name>PT9569</name></trkpt>
<trkpt lat="52.865910" lon="-3.385345"><ele>657</ele><time>2020-01-18T13:11:32Z</time><name>PT9570</name></trkpt>
<trkpt lat="52.865901" lon="-3.385341"><ele>656</ele><time>2020-01-18T13:11:34Z</time><name>PT9571</name></trkpt>
<trkpt lat="52.865890" lon="-3.385330"><ele>656</ele><time>2020-01-18T13:11:35Z</time><name>PT9572</name></trkpt>
<trkpt lat="52.865878" lon="-3.385316"><ele>656</ele><time>2020-01-18T13:11:35Z</time><name>PT9573</name></trkpt>
<trkpt lat="52.865865" lon="-3.385310"><ele>655</ele><time>2020-01-18T13:11:36Z</time><name>PT9574</name></trkpt>
<trkpt lat="52.865854" lon="-3.385302"><ele>655</ele><time>2020-01-18T13:11:38Z</time><name>PT9575</name></trkpt>
<trkpt lat="52.865842" lon="-3.385294"><ele>655</ele><time>2020-01-18T13:11:39Z</time><name>PT9576</name></trkpt>
<trkpt lat="52.865831" lon="-3.385286"><ele>655</ele><time>2020-01-18T13:11:40Z</time><name>PT9577</name></trkpt>
<trkpt lat="52.865821" lon="-3.385277"><ele>655</ele><time>2020-01-18T13:11:41Z</time><name>PT9578</name></trkpt>
<trkpt lat="52.865811" lon="-3.385269"><ele>655</ele><time>2020-01-18T13:11:41Z</time><name>PT9579</name></trkpt>
<trkpt lat="52.865800" lon="-3.385259"><ele>655</ele><time>2020-01-18T13:11:42Z</time><name>PT9580</name></trkpt>
<trkpt lat="52.865791" lon="-3.385256"><ele>654</ele><time>2020-01-18T13:11:44Z</time><name>PT9581</name></trkpt>
<trkpt lat="52.865783" lon="-3.385255"><ele>654</ele><time>2020-01-18T13:11:44Z</time><name>PT9582</name></trkpt>
<trkpt lat="52.865772" lon="-3.385249"><ele>653</ele><time>2020-01-18T13:11:45Z</time><name>PT9583</name></trkpt>
<trkpt lat="52.865760" lon="-3.385249"><ele>653</ele><time>2020-01-18T13:11:47Z</time><name>PT9584</name></trkpt>
<trkpt lat="52.865747" lon="-3.385246"><ele>652</ele><time>2020-01-18T13:11:47Z</time><name>PT9585</name></trkpt>
<trkpt lat="52.865736" lon="-3.385234"><ele>652</ele><time>2020-01-18T13:11:48Z</time><name>PT9586</name></trkpt>
<trkpt lat="52.865726" lon="-3.385228"><ele>652</ele><time>2020-01-18T13:11:50Z</time><name>PT9587</name></trkpt>
<trkpt lat="52.865715" lon="-3.385219"><ele>652</ele><time>2020-01-18T13:11:50Z</time><name>PT9588</name></trkpt>
<trkpt lat="52.865704" lon="-3.385212"><ele>652</ele><time>2020-01-18T13:11:51Z</time><name>PT9589</name></trkpt>
<trkpt lat="52.865694" lon="-3.385209"><ele>651</ele><time>2020-01-18T13:11:53Z</time><name>PT9590</name></trkpt>
<trkpt lat="52.865681" lon="-3.385207"><ele>651</ele><time>2020-01-18T13:11:53Z</time><name>PT9591</name></trkpt>
<trkpt lat="52.865671" lon="-3.385206"><ele>651</ele><time>2020-01-18T13:11:54Z</time><name>PT9592</name></trkpt>
<trkpt lat="52.865662" lon="-3.385206"><ele>651</ele><time>2020-01-18T13:11:56Z</time><name>PT9593</name></trkpt>
<trkpt lat="52.865653" lon="-3.385203"><ele>651</ele><time>2020-01-18T13:11:56Z</time><name>PT9594</name></trkpt>
<trkpt lat="52.865647" lon="-3.385204"><ele>650</ele><time>2020-01-18T13:11:57Z</time><name>PT9595</name></trkpt>
<trkpt lat="52.865641" lon="-3.385205"><ele>649</ele><time>2020-01-18T13:11:59Z</time><name>PT9596</name></trkpt>
<trkpt lat="52.865634" lon="-3.385204"><ele>649</ele><time>2020-01-18T13:11:59Z</time><name>PT9597</name></trkpt>
<trkpt lat="52.865626" lon="-3.385198"><ele>649</ele><time>2020-01-18T13:12:00Z</time><name>PT9598</name></trkpt>
<trkpt lat="52.865618" lon="-3.385194"><ele>649</ele><time>2020-01-18T13:12:02Z</time><name>PT9599</name></trkpt>
<trkpt lat="52.865610" lon="-3.385193"><ele>649</ele><time>2020-01-18T13:12:02Z</time><name>PT9600</name></trkpt>
<trkpt lat="52.865602" lon="-3.385192"><ele>648</ele><time>2020-01-18T13:12:03Z</time><name>PT9601</name></trkpt>
<trkpt lat="52.865595" lon="-3.385191"><ele>648</ele><time>2020-01-18T13:12:05Z</time><name>PT9602</name></trkpt>
<trkpt lat="52.865588" lon="-3.385189"><ele>648</ele><time>2020-01-18T13:12:05Z</time><name>PT9603</name></trkpt>
<trkpt lat="52.865582" lon="-3.385187"><ele>647</ele><time>2020-01-18T13:12:06Z</time><name>PT9604</name></trkpt>
<trkpt lat="52.865573" lon="-3.385183"><ele>647</ele><time>2020-01-18T13:12:08Z</time><name>PT9605</name></trkpt>
<trkpt lat="52.865566" lon="-3.385181"><ele>647</ele><time>2020-01-18T13:12:08Z</time><name>PT9606</name></trkpt>
<trkpt lat="52.865559" lon="-3.385174"><ele>647</ele><time>2020-01-18T13:12:09Z</time><name>PT9607</name></trkpt>
<trkpt lat="52.865552" lon="-3.385166"><ele>647</ele><time>2020-01-18T13:12:11Z</time><name>PT9608</name></trkpt>
<trkpt lat="52.865545" lon="-3.385160"><ele>647</ele><time>2020-01-18T13:12:11Z</time><name>PT9609</name></trkpt>
<trkpt lat="52.865535" lon="-3.385152"><ele>647</ele><time>2020-01-18T13:12:12Z</time><name>PT9610</name></trkpt>
<trkpt lat="52.865527" lon="-3.385146"><ele>647</ele><time>2020-01-18T13:12:14Z</time><name>PT9611</name></trkpt>
<trkpt lat="52.865519" lon="-3.385142"><ele>647</ele><time>2020-01-18T13:12:14Z</time><name>PT9612</name></trkpt>
<trkpt lat="52.865512" lon="-3.385139"><ele>647</ele><time>2020-01-18T13:12:15Z</time><name>PT9613</name></trkpt>
<trkpt lat="52.865505" lon="-3.385132"><ele>646</ele><time>2020-01-18T13:12:17Z</time><name>PT9614</name></trkpt>
<trkpt lat="52.865497" lon="-3.385128"><ele>646</ele><time>2020-01-18T13:12:17Z</time><name>PT9615</name></trkpt>
<trkpt lat="52.865491" lon="-3.385120"><ele>646</ele><time>2020-01-18T13:12:18Z</time><name>PT9616</name></trkpt>
<trkpt lat="52.865485" lon="-3.385112"><ele>646</ele><time>2020-01-18T13:12:20Z</time><name>PT9617</name></trkpt>
<trkpt lat="52.865478" lon="-3.385102"><ele>646</ele><time>2020-01-18T13:12:20Z</time><name>PT9618</name></trkpt>
<trkpt lat="52.865469" lon="-3.385095"><ele>646</ele><time>2020-01-18T13:12:21Z</time><name>PT9619</name></trkpt>
<trkpt lat="52.865461" lon="-3.385094"><ele>646</ele><time>2020-01-18T13:12:23Z</time><name>PT9620</name></trkpt>
<trkpt lat="52.865453" lon="-3.385089"><ele>646</ele><time>2020-01-18T13:12:23Z</time><name>PT9621</name></trkpt>
<trkpt lat="52.865446" lon="-3.385083"><ele>646</ele><time>2020-01-18T13:12:24Z</time><name>PT9622</name></trkpt>
<trkpt lat="52.865440" lon="-3.385079"><ele>646</ele><time>2020-01-18T13:12:26Z</time><name>PT9623</name></trkpt>
<trkpt lat="52.865433" lon="-3.385072"><ele>646</ele><time>2020-01-18T13:12:26Z</time><name>PT9624</name></trkpt>
<trkpt lat="52.865426" lon="-3.385059"><ele>646</ele><time>2020-01-18T13:12:27Z</time><name>PT9625</name></trkpt>
<trkpt lat="52.865424" lon="-3.385055"><ele>645</ele><time>2020-01-18T13:12:29Z</time><name>PT9626</name></trkpt>
<trkpt lat="52.865418" lon="-3.385049"><ele>645</ele><time>2020-01-18T13:12:29Z</time><name>PT9627</name></trkpt>
<trkpt lat="52.865413" lon="-3.385046"><ele>644</ele><time>2020-01-18T13:12:30Z</time><name>PT9628</name></trkpt>
<trkpt lat="52.865405" lon="-3.385049"><ele>644</ele><time>2020-01-18T13:12:32Z</time><name>PT9629</name></trkpt>
<trkpt lat="52.865403" lon="-3.385055"><ele>644</ele><time>2020-01-18T13:12:32Z</time><name>PT9630</name></trkpt>
<trkpt lat="52.865403" lon="-3.385051"><ele>644</ele><time>2020-01-18T13:12:33Z</time><name>PT9631</name></trkpt>
<trkpt lat="52.865399" lon="-3.385045"><ele>643</ele><time>2020-01-18T13:12:35Z</time><name>PT9632</name></trkpt>
<trkpt lat="52.865395" lon="-3.385044"><ele>643</ele><time>2020-01-18T13:12:35Z</time><name>PT9633</name></trkpt>
<trkpt lat="52.865388" lon="-3.385039"><ele>642</ele><time>2020-01-18T13:12:36Z</time><name>PT9634</name></trkpt>
<trkpt lat="52.865380" lon="-3.385029"><ele>642</ele><time>2020-01-18T13:12:38Z</time><name>PT9635</name></trkpt>
<trkpt lat="52.865374" lon="-3.385022"><ele>642</ele><time>2020-01-18T13:12:38Z</time><name>PT9636</name></trkpt>
<trkpt lat="52.865367" lon="-3.385011"><ele>642</ele><time>2020-01-18T13:12:39Z</time><name>PT9637</name></trkpt>
<trkpt lat="52.865361" lon="-3.385006"><ele>641</ele><time>2020-01-18T13:12:41Z</time><name>PT9638</name></trkpt>
<trkpt lat="52.865356" lon="-3.385002"><ele>641</ele><time>2020-01-18T13:12:41Z</time><name>PT9639</name></trkpt>
<trkpt lat="52.865350" lon="-3.385001"><ele>641</ele><time>2020-01-18T13:12:42Z</time><name>PT9640</name></trkpt>
<trkpt lat="52.865345" lon="-3.385004"><ele>641</ele><time>2020-01-18T13:12:44Z</time><name>PT9641</name></trkpt>
<trkpt lat="52.865339" lon="-3.385004"><ele>641</ele><time>2020-01-18T13:12:44Z</time><name>PT9642</name></trkpt>
<trkpt lat="52.865336" lon="-3.385003"><ele>641</ele><time>2020-01-18T13:12:45Z</time><name>PT9643</name></trkpt>
<trkpt lat="52.865330" lon="-3.385002"><ele>641</ele><time>2020-01-18T13:12:47Z</time><name>PT9644</name></trkpt>
<trkpt lat="52.865325" lon="-3.385001"><ele>641</ele><time>2020-01-18T13:12:47Z</time><name>PT9645</name></trkpt>
<trkpt lat="52.865319" lon="-3.384998"><ele>640</ele><time>2020-01-18T13:12:48Z</time><name>PT9646</name></trkpt>
<trkpt lat="52.865310" lon="-3.384996"><ele>640</ele><time>2020-01-18T13:12:50Z</time><name>PT9647</name></trkpt>
<trkpt lat="52.865306" lon="-3.384981"><ele>640</ele><time>2020-01-18T13:12:50Z</time><name>PT9648</name></trkpt>
<trkpt lat="52.865301" lon="-3.384974"><ele>640</ele><time>2020-01-18T13:12:51Z</time><name>PT9649</name></trkpt>
<trkpt lat="52.865290" lon="-3.384971"><ele>639</ele><time>2020-01-18T13:12:53Z</time><name>PT9650</name></trkpt>
<trkpt lat="52.865281" lon="-3.384971"><ele>639</ele><time>2020-01-18T13:12:54Z</time><name>PT9651</name></trkpt>
<trkpt lat="52.865274" lon="-3.384971"><ele>638</ele><time>2020-01-18T13:12:54Z</time><name>PT9652</name></trkpt>
<trkpt lat="52.865266" lon="-3.384972"><ele>638</ele><time>2020-01-18T13:12:56Z</time><name>PT9653</name></trkpt>
<trkpt lat="52.865257" lon="-3.384973"><ele>638</ele><time>2020-01-18T13:12:56Z</time><name>PT9654</name></trkpt>
<trkpt lat="52.865247" lon="-3.384975"><ele>638</ele><time>2020-01-18T13:12:57Z</time><name>PT9655</name></trkpt>
<trkpt lat="52.865239" lon="-3.384983"><ele>637</ele><time>2020-01-18T13:12:59Z</time><name>PT9656</name></trkpt>
<trkpt lat="52.865232" lon="-3.384989"><ele>637</ele><time>2020-01-18T13:12:59Z</time><name>PT9657</name></trkpt>
<trkpt lat="52.865227" lon="-3.384994"><ele>637</ele><time>2020-01-18T13:13:00Z</time><name>PT9658</name></trkpt>
<trkpt lat="52.865221" lon="-3.384996"><ele>637</ele><time>2020-01-18T13:13:02Z</time><name>PT9659</name></trkpt>
<trkpt lat="52.865215" lon="-3.384994"><ele>637</ele><time>2020-01-18T13:13:02Z</time><name>PT9660</name></trkpt>
<trkpt lat="52.865207" lon="-3.384990"><ele>637</ele><time>2020-01-18T13:13:03Z</time><name>PT9661</name></trkpt>
<trkpt lat="52.865201" lon="-3.384989"><ele>637</ele><time>2020-01-18T13:13:05Z</time><name>PT9662</name></trkpt>
<trkpt lat="52.865193" lon="-3.384983"><ele>636</ele><time>2020-01-18T13:13:05Z</time><name>PT9663</name></trkpt>
<trkpt lat="52.865188" lon="-3.384982"><ele>636</ele><time>2020-01-18T13:13:06Z</time><name>PT9664</name></trkpt>
<trkpt lat="52.865181" lon="-3.384978"><ele>636</ele><time>2020-01-18T13:13:08Z</time><name>PT9665</name></trkpt>
<trkpt lat="52.865176" lon="-3.384976"><ele>635</ele><time>2020-01-18T13:13:08Z</time><name>PT9666</name></trkpt>
<trkpt lat="52.865172" lon="-3.384985"><ele>635</ele><time>2020-01-18T13:13:09Z</time><name>PT9667</name></trkpt>
<trkpt lat="52.865163" lon="-3.384985"><ele>635</ele><time>2020-01-18T13:13:11Z</time><name>PT9668</name></trkpt>
<trkpt lat="52.865154" lon="-3.384987"><ele>635</ele><time>2020-01-18T13:13:11Z</time><name>PT9669</name></trkpt>
<trkpt lat="52.865146" lon="-3.384989"><ele>635</ele><time>2020-01-18T13:13:12Z</time><name>PT9670</name></trkpt>
<trkpt lat="52.865139" lon="-3.384992"><ele>635</ele><time>2020-01-18T13:13:14Z</time><name>PT9671</name></trkpt>
<trkpt lat="52.865131" lon="-3.384991"><ele>635</ele><time>2020-01-18T13:13:14Z</time><name>PT9672</name></trkpt>
<trkpt lat="52.865123" lon="-3.384987"><ele>635</ele><time>2020-01-18T13:13:15Z</time><name>PT9673</name></trkpt>
<trkpt lat="52.865116" lon="-3.384985"><ele>634</ele><time>2020-01-18T13:13:17Z</time><name>PT9674</name></trkpt>
<trkpt lat="52.865109" lon="-3.384977"><ele>634</ele><time>2020-01-18T13:13:17Z</time><name>PT9675</name></trkpt>
<trkpt lat="52.865103" lon="-3.384969"><ele>634</ele><time>2020-01-18T13:13:18Z</time><name>PT9676</name></trkpt>
<trkpt lat="52.865094" lon="-3.384960"><ele>634</ele><time>2020-01-18T13:13:20Z</time><name>PT9677</name></trkpt>
<trkpt lat="52.865081" lon="-3.384950"><ele>634</ele><time>2020-01-18T13:13:20Z</time><name>PT9678</name></trkpt>
<trkpt lat="52.865075" lon="-3.384938"><ele>634</ele><time>2020-01-18T13:13:21Z</time><name>PT9679</name></trkpt>
<trkpt lat="52.865069" lon="-3.384926"><ele>634</ele><time>2020-01-18T13:13:23Z</time><name>PT9680</name></trkpt>
<trkpt lat="52.865065" lon="-3.384915"><ele>633</ele><time>2020-01-18T13:13:23Z</time><name>PT9681</name></trkpt>
<trkpt lat="52.865058" lon="-3.384905"><ele>633</ele><time>2020-01-18T13:13:24Z</time><name>PT9682</name></trkpt>
<trkpt lat="52.865051" lon="-3.384905"><ele>632</ele><time>2020-01-18T13:13:26Z</time><name>PT9683</name></trkpt>
<trkpt lat="52.865039" lon="-3.384893"><ele>633</ele><time>2020-01-18T13:13:26Z</time><name>PT9684</name></trkpt>
<trkpt lat="52.865031" lon="-3.384887"><ele>632</ele><time>2020-01-18T13:13:27Z</time><name>PT9685</name></trkpt>
<trkpt lat="52.865024" lon="-3.384880"><ele>632</ele><time>2020-01-18T13:13:29Z</time><name>PT9686</name></trkpt>
<trkpt lat="52.865015" lon="-3.384874"><ele>631</ele><time>2020-01-18T13:13:29Z</time><name>PT9687</name></trkpt>
<trkpt lat="52.865008" lon="-3.384868"><ele>631</ele><time>2020-01-18T13:13:31Z</time><name>PT9688</name></trkpt>
<trkpt lat="52.865000" lon="-3.384861"><ele>630</ele><time>2020-01-18T13:13:32Z</time><name>PT9689</name></trkpt>
<trkpt lat="52.864990" lon="-3.384858"><ele>630</ele><time>2020-01-18T13:13:32Z</time><name>PT9690</name></trkpt>
<trkpt lat="52.864981" lon="-3.384860"><ele>630</ele><time>2020-01-18T13:13:34Z</time><name>PT9691</name></trkpt>
<trkpt lat="52.864971" lon="-3.384855"><ele>629</ele><time>2020-01-18T13:13:35Z</time><name>PT9692</name></trkpt>
<trkpt lat="52.864960" lon="-3.384846"><ele>629</ele><time>2020-01-18T13:13:35Z</time><name>PT9693</name></trkpt>
<trkpt lat="52.864949" lon="-3.384840"><ele>629</ele><time>2020-01-18T13:13:36Z</time><name>PT9694</name></trkpt>
<trkpt lat="52.864938" lon="-3.384833"><ele>629</ele><time>2020-01-18T13:13:38Z</time><name>PT9695</name></trkpt>
<trkpt lat="52.864928" lon="-3.384825"><ele>629</ele><time>2020-01-18T13:13:38Z</time><name>PT9696</name></trkpt>
<trkpt lat="52.864920" lon="-3.384820"><ele>628</ele><time>2020-01-18T13:13:39Z</time><name>PT9697</name></trkpt>
<trkpt lat="52.864910" lon="-3.384809"><ele>628</ele><time>2020-01-18T13:13:41Z</time><name>PT9698</name></trkpt>
<trkpt lat="52.864901" lon="-3.384803"><ele>628</ele><time>2020-01-18T13:13:41Z</time><name>PT9699</name></trkpt>
<trkpt lat="52.864891" lon="-3.384797"><ele>628</ele><time>2020-01-18T13:13:42Z</time><name>PT9700</name></trkpt>
<trkpt lat="52.864884" lon="-3.384794"><ele>628</ele><time>2020-01-18T13:13:44Z</time><name>PT9701</name></trkpt>
<trkpt lat="52.864875" lon="-3.384787"><ele>627</ele><time>2020-01-18T13:13:44Z</time><name>PT9702</name></trkpt>
<trkpt lat="52.864867" lon="-3.384781"><ele>627</ele><time>2020-01-18T13:13:45Z</time><name>PT9703</name></trkpt>
<trkpt lat="52.864860" lon="-3.384772"><ele>628</ele><time>2020-01-18T13:13:47Z</time><name>PT9704</name></trkpt>
<trkpt lat="52.864853" lon="-3.384769"><ele>627</ele><time>2020-01-18T13:13:47Z</time><name>PT9705</name></trkpt>
<trkpt lat="52.864845" lon="-3.384762"><ele>628</ele><time>2020-01-18T13:13:49Z</time><name>PT9706</name></trkpt>
<trkpt lat="52.864840" lon="-3.384760"><ele>627</ele><time>2020-01-18T13:13:50Z</time><name>PT9707</name></trkpt>
<trkpt lat="52.864833" lon="-3.384755"><ele>627</ele><time>2020-01-18T13:13:51Z</time><name>PT9708</name></trkpt>
<trkpt lat="52.864825" lon="-3.384748"><ele>627</ele><time>2020-01-18T13:13:51Z</time><name>PT9709</name></trkpt>
<trkpt lat="52.864820" lon="-3.384740"><ele>627</ele><time>2020-01-18T13:13:53Z</time><name>PT9710</name></trkpt>
<trkpt lat="52.864812" lon="-3.384730"><ele>627</ele><time>2020-01-18T13:13:53Z</time><name>PT9711</name></trkpt>
<trkpt lat="52.864803" lon="-3.384719"><ele>627</ele><time>2020-01-18T13:13:54Z</time><name>PT9712</name></trkpt>
<trkpt lat="52.864794" lon="-3.384709"><ele>627</ele><time>2020-01-18T13:13:56Z</time><name>PT9713</name></trkpt>
<trkpt lat="52.864785" lon="-3.384701"><ele>627</ele><time>2020-01-18T13:13:56Z</time><name>PT9714</name></trkpt>
<trkpt lat="52.864775" lon="-3.384685"><ele>627</ele><time>2020-01-18T13:13:58Z</time><name>PT9715</name></trkpt>
<trkpt lat="52.864771" lon="-3.384680"><ele>627</ele><time>2020-01-18T13:13:59Z</time><name>PT9716</name></trkpt>
<trkpt lat="52.864765" lon="-3.384671"><ele>627</ele><time>2020-01-18T13:13:59Z</time><name>PT9717</name></trkpt>
<trkpt lat="52.864761" lon="-3.384668"><ele>627</ele><time>2020-01-18T13:14:00Z</time><name>PT9718</name></trkpt>
<trkpt lat="52.864753" lon="-3.384658"><ele>627</ele><time>2020-01-18T13:14:02Z</time><name>PT9719</name></trkpt>
<trkpt lat="52.864743" lon="-3.384645"><ele>627</ele><time>2020-01-18T13:14:02Z</time><name>PT9720</name></trkpt>
<trkpt lat="52.864734" lon="-3.384639"><ele>627</ele><time>2020-01-18T13:14:04Z</time><name>PT9721</name></trkpt>
<trkpt lat="52.864727" lon="-3.384635"><ele>627</ele><time>2020-01-18T13:14:05Z</time><name>PT9722</name></trkpt>
<trkpt lat="52.864720" lon="-3.384631"><ele>627</ele><time>2020-01-18T13:14:05Z</time><name>PT9723</name></trkpt>
<trkpt lat="52.864711" lon="-3.384622"><ele>627</ele><time>2020-01-18T13:14:06Z</time><name>PT9724</name></trkpt>
<trkpt lat="52.864704" lon="-3.384616"><ele>627</ele><time>2020-01-18T13:14:08Z</time><name>PT9725</name></trkpt>
<trkpt lat="52.864695" lon="-3.384607"><ele>627</ele><time>2020-01-18T13:14:08Z</time><name>PT9726</name></trkpt>
<trkpt lat="52.864686" lon="-3.384594"><ele>626</ele><time>2020-01-18T13:14:09Z</time><name>PT9727</name></trkpt>
<trkpt lat="52.864677" lon="-3.384585"><ele>626</ele><time>2020-01-18T13:14:11Z</time><name>PT9728</name></trkpt>
<trkpt lat="52.864668" lon="-3.384575"><ele>626</ele><time>2020-01-18T13:14:11Z</time><name>PT9729</name></trkpt>
<trkpt lat="52.864657" lon="-3.384567"><ele>626</ele><time>2020-01-18T13:14:12Z</time><name>PT9730</name></trkpt>
<trkpt lat="52.864649" lon="-3.384565"><ele>626</ele><time>2020-01-18T13:14:14Z</time><name>PT9731</name></trkpt>
<trkpt lat="52.864639" lon="-3.384556"><ele>625</ele><time>2020-01-18T13:14:14Z</time><name>PT9732</name></trkpt>
<trkpt lat="52.864629" lon="-3.384551"><ele>625</ele><time>2020-01-18T13:14:15Z</time><name>PT9733</name></trkpt>
<trkpt lat="52.864621" lon="-3.384546"><ele>625</ele><time>2020-01-18T13:14:17Z</time><name>PT9734</name></trkpt>
<trkpt lat="52.864613" lon="-3.384540"><ele>625</ele><time>2020-01-18T13:14:17Z</time><name>PT9735</name></trkpt>
<trkpt lat="52.864604" lon="-3.384531"><ele>625</ele><time>2020-01-18T13:14:18Z</time><name>PT9736</name></trkpt>
<trkpt lat="52.864596" lon="-3.384526"><ele>625</ele><time>2020-01-18T13:14:20Z</time><name>PT9737</name></trkpt>
<trkpt lat="52.864588" lon="-3.384525"><ele>625</ele><time>2020-01-18T13:14:20Z</time><name>PT9738</name></trkpt>
<trkpt lat="52.864581" lon="-3.384525"><ele>624</ele><time>2020-01-18T13:14:21Z</time><name>PT9739</name></trkpt>
<trkpt lat="52.864572" lon="-3.384518"><ele>624</ele><time>2020-01-18T13:14:23Z</time><name>PT9740</name></trkpt>
<trkpt lat="52.864564" lon="-3.384516"><ele>624</ele><time>2020-01-18T13:14:23Z</time><name>PT9741</name></trkpt>
<trkpt lat="52.864556" lon="-3.384511"><ele>624</ele><time>2020-01-18T13:14:24Z</time><name>PT9742</name></trkpt>
<trkpt lat="52.864546" lon="-3.384503"><ele>624</ele><time>2020-01-18T13:14:26Z</time><name>PT9743</name></trkpt>
<trkpt lat="52.864536" lon="-3.384499"><ele>624</ele><time>2020-01-18T13:14:26Z</time><name>PT9744</name></trkpt>
<trkpt lat="52.864527" lon="-3.384496"><ele>623</ele><time>2020-01-18T13:14:27Z</time><name>PT9745</name></trkpt>
<trkpt lat="52.864518" lon="-3.384493"><ele>623</ele><time>2020-01-18T13:14:29Z</time><name>PT9746</name></trkpt>
<trkpt lat="52.864508" lon="-3.384487"><ele>623</ele><time>2020-01-18T13:14:29Z</time><name>PT9747</name></trkpt>
<trkpt lat="52.864499" lon="-3.384479"><ele>623</ele><time>2020-01-18T13:14:30Z</time><name>PT9748</name></trkpt>
<trkpt lat="52.864491" lon="-3.384471"><ele>622</ele><time>2020-01-18T13:14:32Z</time><name>PT9749</name></trkpt>
<trkpt lat="52.864481" lon="-3.384459"><ele>622</ele><time>2020-01-18T13:14:32Z</time><name>PT9750</name></trkpt>
<trkpt lat="52.864474" lon="-3.384455"><ele>622</ele><time>2020-01-18T13:14:33Z</time><name>PT9751</name></trkpt>
<trkpt lat="52.864466" lon="-3.384453"><ele>622</ele><time>2020-01-18T13:14:35Z</time><name>PT9752</name></trkpt>
<trkpt lat="52.864458" lon="-3.384450"><ele>622</ele><time>2020-01-18T13:14:35Z</time><name>PT9753</name></trkpt>
<trkpt lat="52.864450" lon="-3.384443"><ele>622</ele><time>2020-01-18T13:14:36Z</time><name>PT9754</name></trkpt>
<trkpt lat="52.864442" lon="-3.384435"><ele>621</ele><time>2020-01-18T13:14:38Z</time><name>PT9755</name></trkpt>
<trkpt lat="52.864436" lon="-3.384436"><ele>621</ele><time>2020-01-18T13:14:38Z</time><name>PT9756</name></trkpt>
<trkpt lat="52.864428" lon="-3.384434"><ele>621</ele><time>2020-01-18T13:14:39Z</time><name>PT9757</name></trkpt>
<trkpt lat="52.864421" lon="-3.384430"><ele>621</ele><time>2020-01-18T13:14:41Z</time><name>PT9758</name></trkpt>
<trkpt lat="52.864410" lon="-3.384420"><ele>620</ele><time>2020-01-18T13:14:41Z</time><name>PT9759</name></trkpt>
<trkpt lat="52.864400" lon="-3.384413"><ele>620</ele><time>2020-01-18T13:14:43Z</time><name>PT9760</name></trkpt>
<trkpt lat="52.864391" lon="-3.384410"><ele>620</ele><time>2020-01-18T13:14:44Z</time><name>PT9761</name></trkpt>
<trkpt lat="52.864382" lon="-3.384400"><ele>620</ele><time>2020-01-18T13:14:44Z</time><name>PT9762</name></trkpt>
<trkpt lat="52.864372" lon="-3.384391"><ele>620</ele><time>2020-01-18T13:14:45Z</time><name>PT9763</name></trkpt>
<trkpt lat="52.864362" lon="-3.384388"><ele>620</ele><time>2020-01-18T13:14:47Z</time><name>PT9764</name></trkpt>
<trkpt lat="52.864353" lon="-3.384386"><ele>620</ele><time>2020-01-18T13:14:47Z</time><name>PT9765</name></trkpt>
<trkpt lat="52.864343" lon="-3.384386"><ele>620</ele><time>2020-01-18T13:14:48Z</time><name>PT9766</name></trkpt>
<trkpt lat="52.864334" lon="-3.384383"><ele>620</ele><time>2020-01-18T13:14:50Z</time><name>PT9767</name></trkpt>
<trkpt lat="52.864325" lon="-3.384384"><ele>620</ele><time>2020-01-18T13:14:50Z</time><name>PT9768</name></trkpt>
<trkpt lat="52.864317" lon="-3.384382"><ele>619</ele><time>2020-01-18T13:14:51Z</time><name>PT9769</name></trkpt>
<trkpt lat="52.864306" lon="-3.384373"><ele>620</ele><time>2020-01-18T13:14:53Z</time><name>PT9770</name></trkpt>
<trkpt lat="52.864302" lon="-3.384376"><ele>619</ele><time>2020-01-18T13:14:53Z</time><name>PT9771</name></trkpt>
<trkpt lat="52.864295" lon="-3.384370"><ele>619</ele><time>2020-01-18T13:14:54Z</time><name>PT9772</name></trkpt>
<trkpt lat="52.864284" lon="-3.384363"><ele>619</ele><time>2020-01-18T13:14:56Z</time><name>PT9773</name></trkpt>
<trkpt lat="52.864273" lon="-3.384352"><ele>619</ele><time>2020-01-18T13:14:56Z</time><name>PT9774</name></trkpt>
<trkpt lat="52.864262" lon="-3.384345"><ele>619</ele><time>2020-01-18T13:14:57Z</time><name>PT9775</name></trkpt>
<trkpt lat="52.864252" lon="-3.384337"><ele>619</ele><time>2020-01-18T13:14:59Z</time><name>PT9776</name></trkpt>
<trkpt lat="52.864241" lon="-3.384329"><ele>619</ele><time>2020-01-18T13:14:59Z</time><name>PT9777</name></trkpt>
<trkpt lat="52.864229" lon="-3.384319"><ele>619</ele><time>2020-01-18T13:15:00Z</time><name>PT9778</name></trkpt>
<trkpt lat="52.864218" lon="-3.384312"><ele>619</ele><time>2020-01-18T13:15:02Z</time><name>PT9779</name></trkpt>
<trkpt lat="52.864206" lon="-3.384306"><ele>618</ele><time>2020-01-18T13:15:02Z</time><name>PT9780</name></trkpt>
<trkpt lat="52.864196" lon="-3.384302"><ele>618</ele><time>2020-01-18T13:15:03Z</time><name>PT9781</name></trkpt>
<trkpt lat="52.864186" lon="-3.384299"><ele>618</ele><time>2020-01-18T13:15:05Z</time><name>PT9782</name></trkpt>
<trkpt lat="52.864175" lon="-3.384295"><ele>618</ele><time>2020-01-18T13:15:05Z</time><name>PT9783</name></trkpt>
<trkpt lat="52.864163" lon="-3.384291"><ele>618</ele><time>2020-01-18T13:15:06Z</time><name>PT9784</name></trkpt>
<trkpt lat="52.864151" lon="-3.384286"><ele>618</ele><time>2020-01-18T13:15:08Z</time><name>PT9785</name></trkpt>
<trkpt lat="52.864142" lon="-3.384279"><ele>618</ele><time>2020-01-18T13:15:08Z</time><name>PT9786</name></trkpt>
<trkpt lat="52.864132" lon="-3.384268"><ele>618</ele><time>2020-01-18T13:15:09Z</time><name>PT9787</name></trkpt>
<trkpt lat="52.864123" lon="-3.384258"><ele>618</ele><time>2020-01-18T13:15:11Z</time><name>PT9788</name></trkpt>
<trkpt lat="52.864114" lon="-3.384252"><ele>618</ele><time>2020-01-18T13:15:11Z</time><name>PT9789</name></trkpt>
<trkpt lat="52.864103" lon="-3.384245"><ele>618</ele><time>2020-01-18T13:15:12Z</time><name>PT9790</name></trkpt>
<trkpt lat="52.864093" lon="-3.384236"><ele>618</ele><time>2020-01-18T13:15:14Z</time><name>PT9791</name></trkpt>
<trkpt lat="52.864083" lon="-3.384227"><ele>618</ele><time>2020-01-18T13:15:14Z</time><name>PT9792</name></trkpt>
<trkpt lat="52.864073" lon="-3.384221"><ele>617</ele><time>2020-01-18T13:15:15Z</time><name>PT9793</name></trkpt>
<trkpt lat="52.864063" lon="-3.384210"><ele>617</ele><time>2020-01-18T13:15:17Z</time><name>PT9794</name></trkpt>
<trkpt lat="52.864052" lon="-3.384201"><ele>617</ele><time>2020-01-18T13:15:17Z</time><name>PT9795</name></trkpt>
<trkpt lat="52.864043" lon="-3.384194"><ele>617</ele><time>2020-01-18T13:15:18Z</time><name>PT9796</name></trkpt>
<trkpt lat="52.864032" lon="-3.384186"><ele>617</ele><time>2020-01-18T13:15:20Z</time><name>PT9797</name></trkpt>
<trkpt lat="52.864022" lon="-3.384177"><ele>617</ele><time>2020-01-18T13:15:20Z</time><name>PT9798</name></trkpt>
<trkpt lat="52.864012" lon="-3.384164"><ele>617</ele><time>2020-01-18T13:15:21Z</time><name>PT9799</name></trkpt>
<trkpt lat="52.864002" lon="-3.384155"><ele>617</ele><time>2020-01-18T13:15:23Z</time><name>PT9800</name></trkpt>
<trkpt lat="52.863992" lon="-3.384147"><ele>617</ele><time>2020-01-18T13:15:23Z</time><name>PT9801</name></trkpt>
<trkpt lat="52.863982" lon="-3.384140"><ele>617</ele><time>2020-01-18T13:15:24Z</time><name>PT9802</name></trkpt>
<trkpt lat="52.863972" lon="-3.384139"><ele>616</ele><time>2020-01-18T13:15:26Z</time><name>PT9803</name></trkpt>
<trkpt lat="52.863961" lon="-3.384132"><ele>616</ele><time>2020-01-18T13:15:26Z</time><name>PT9804</name></trkpt>
<trkpt lat="52.863952" lon="-3.384125"><ele>616</ele><time>2020-01-18T13:15:27Z</time><name>PT9805</name></trkpt>
<trkpt lat="52.863943" lon="-3.384124"><ele>616</ele><time>2020-01-18T13:15:29Z</time><name>PT9806</name></trkpt>
<trkpt lat="52.863934" lon="-3.384120"><ele>616</ele><time>2020-01-18T13:15:29Z</time><name>PT9807</name></trkpt>
<trkpt lat="52.863924" lon="-3.384116"><ele>616</ele><time>2020-01-18T13:15:30Z</time><name>PT9808</name></trkpt>
<trkpt lat="52.863913" lon="-3.384110"><ele>616</ele><time>2020-01-18T13:15:32Z</time><name>PT9809</name></trkpt>
<trkpt lat="52.863901" lon="-3.384107"><ele>615</ele><time>2020-01-18T13:15:32Z</time><name>PT9810</name></trkpt>
<trkpt lat="52.863893" lon="-3.384112"><ele>615</ele><time>2020-01-18T13:15:33Z</time><name>PT9811</name></trkpt>
<trkpt lat="52.863886" lon="-3.384120"><ele>615</ele><time>2020-01-18T13:15:35Z</time><name>PT9812</name></trkpt>
<trkpt lat="52.863879" lon="-3.384125"><ele>615</ele><time>2020-01-18T13:15:35Z</time><name>PT9813</name></trkpt>
<trkpt lat="52.863872" lon="-3.384127"><ele>614</ele><time>2020-01-18T13:15:36Z</time><name>PT9814</name></trkpt>
<trkpt lat="52.863862" lon="-3.384134"><ele>614</ele><time>2020-01-18T13:15:38Z</time><name>PT9815</name></trkpt>
<trkpt lat="52.863854" lon="-3.384139"><ele>613</ele><time>2020-01-18T13:15:38Z</time><name>PT9816</name></trkpt>
<trkpt lat="52.863848" lon="-3.384143"><ele>613</ele><time>2020-01-18T13:15:39Z</time><name>PT9817</name></trkpt>
<trkpt lat="52.863842" lon="-3.384142"><ele>613</ele><time>2020-01-18T13:15:41Z</time><name>PT9818</name></trkpt>
<trkpt lat="52.863836" lon="-3.384141"><ele>613</ele><time>2020-01-18T13:15:41Z</time><name>PT9819</name></trkpt>
<trkpt lat="52.863828" lon="-3.384138"><ele>613</ele><time>2020-01-18T13:15:42Z</time><name>PT9820</name></trkpt>
<trkpt lat="52.863818" lon="-3.384134"><ele>613</ele><time>2020-01-18T13:15:44Z</time><name>PT9821</name></trkpt>
<trkpt lat="52.863809" lon="-3.384129"><ele>613</ele><time>2020-01-18T13:15:44Z</time><name>PT9822</name></trkpt>
<trkpt lat="52.863800" lon="-3.384122"><ele>613</ele><time>2020-01-18T13:15:45Z</time><name>PT9823</name></trkpt>
<trkpt lat="52.863790" lon="-3.384117"><ele>613</ele><time>2020-01-18T13:15:47Z</time><name>PT9824</name></trkpt>
<trkpt lat="52.863782" lon="-3.384112"><ele>612</ele><time>2020-01-18T13:15:47Z</time><name>PT9825</name></trkpt>
<trkpt lat="52.863775" lon="-3.384104"><ele>612</ele><time>2020-01-18T13:15:48Z</time><name>PT9826</name></trkpt>
<trkpt lat="52.863768" lon="-3.384094"><ele>611</ele><time>2020-01-18T13:15:50Z</time><name>PT9827</name></trkpt>
<trkpt lat="52.863759" lon="-3.384088"><ele>611</ele><time>2020-01-18T13:15:50Z</time><name>PT9828</name></trkpt>
<trkpt lat="52.863750" lon="-3.384082"><ele>611</ele><time>2020-01-18T13:15:51Z</time><name>PT9829</name></trkpt>
<trkpt lat="52.863742" lon="-3.384075"><ele>611</ele><time>2020-01-18T13:15:53Z</time><name>PT9830</name></trkpt>
<trkpt lat="52.863733" lon="-3.384067"><ele>612</ele><time>2020-01-18T13:15:53Z</time><name>PT9831</name></trkpt>
<trkpt lat="52.863723" lon="-3.384059"><ele>612</ele><time>2020-01-18T13:15:54Z</time><name>PT9832</name></trkpt>
<trkpt lat="52.863716" lon="-3.384053"><ele>612</ele><time>2020-01-18T13:15:56Z</time><name>PT9833</name></trkpt>
<trkpt lat="52.863710" lon="-3.384049"><ele>612</ele><time>2020-01-18T13:15:57Z</time><name>PT9834</name></trkpt>
<trkpt lat="52.863704" lon="-3.384045"><ele>611</ele><time>2020-01-18T13:15:57Z</time><name>PT9835</name></trkpt>
<trkpt lat="52.863698" lon="-3.384029"><ele>611</ele><time>2020-01-18T13:15:59Z</time><name>PT9836</name></trkpt>
<trkpt lat="52.863692" lon="-3.384016"><ele>611</ele><time>2020-01-18T13:15:59Z</time><name>PT9837</name></trkpt>
<trkpt lat="52.863686" lon="-3.384000"><ele>611</ele><time>2020-01-18T13:16:00Z</time><name>PT9838</name></trkpt>
<trkpt lat="52.863682" lon="-3.383982"><ele>611</ele><time>2020-01-18T13:16:02Z</time><name>PT9839</name></trkpt>
<trkpt lat="52.863678" lon="-3.383962"><ele>611</ele><time>2020-01-18T13:16:02Z</time><name>PT9840</name></trkpt>
<trkpt lat="52.863675" lon="-3.383944"><ele>611</ele><time>2020-01-18T13:16:03Z</time><name>PT9841</name></trkpt>
<trkpt lat="52.863670" lon="-3.383926"><ele>611</ele><time>2020-01-18T13:16:05Z</time><name>PT9842</name></trkpt>
<trkpt lat="52.863663" lon="-3.383908"><ele>611</ele><time>2020-01-18T13:16:05Z</time><name>PT9843</name></trkpt>
<trkpt lat="52.863656" lon="-3.383890"><ele>611</ele><time>2020-01-18T13:16:06Z</time><name>PT9844</name></trkpt>
<trkpt lat="52.863650" lon="-3.383871"><ele>611</ele><time>2020-01-18T13:16:08Z</time><name>PT9845</name></trkpt>
<trkpt lat="52.863642" lon="-3.383853"><ele>611</ele><time>2020-01-18T13:16:08Z</time><name>PT9846</name></trkpt>
<trkpt lat="52.863634" lon="-3.383841"><ele>611</ele><time>2020-01-18T13:16:09Z</time><name>PT9847</name></trkpt>
<trkpt lat="52.863625" lon="-3.383827"><ele>611</ele><time>2020-01-18T13:16:11Z</time><name>PT9848</name></trkpt>
<trkpt lat="52.863614" lon="-3.383815"><ele>611</ele><time>2020-01-18T13:16:11Z</time><name>PT9849</name></trkpt>
<trkpt lat="52.863604" lon="-3.383802"><ele>611</ele><time>2020-01-18T13:16:12Z</time><name>PT9850</name></trkpt>
<trkpt lat="52.863593" lon="-3.383788"><ele>610</ele><time>2020-01-18T13:16:14Z</time><name>PT9851</name></trkpt>
<trkpt lat="52.863583" lon="-3.383775"><ele>610</ele><time>2020-01-18T13:16:14Z</time><name>PT9852</name></trkpt>
<trkpt lat="52.863573" lon="-3.383765"><ele>610</ele><time>2020-01-18T13:16:15Z</time><name>PT9853</name></trkpt>
<trkpt lat="52.863562" lon="-3.383756"><ele>610</ele><time>2020-01-18T13:16:17Z</time><name>PT9854</name></trkpt>
<trkpt lat="52.863550" lon="-3.383748"><ele>610</ele><time>2020-01-18T13:16:17Z</time><name>PT9855</name></trkpt>
<trkpt lat="52.863540" lon="-3.383735"><ele>610</ele><time>2020-01-18T13:16:18Z</time><name>PT9856</name></trkpt>
<trkpt lat="52.863528" lon="-3.383722"><ele>610</ele><time>2020-01-18T13:16:20Z</time><name>PT9857</name></trkpt>
<trkpt lat="52.863516" lon="-3.383710"><ele>610</ele><time>2020-01-18T13:16:20Z</time><name>PT9858</name></trkpt>
<trkpt lat="52.863507" lon="-3.383700"><ele>610</ele><time>2020-01-18T13:16:21Z</time><name>PT9859</name></trkpt>
<trkpt lat="52.863496" lon="-3.383694"><ele>610</ele><time>2020-01-18T13:16:23Z</time><name>PT9860</name></trkpt>
<trkpt lat="52.863486" lon="-3.383689"><ele>610</ele><time>2020-01-18T13:16:23Z</time><name>PT9861</name></trkpt>
<trkpt lat="52.863476" lon="-3.383680"><ele>610</ele><time>2020-01-18T13:16:25Z</time><name>PT9862</name></trkpt>
<trkpt lat="52.863466" lon="-3.383671"><ele>609</ele><time>2020-01-18T13:16:26Z</time><name>PT9863</name></trkpt>
<trkpt lat="52.863457" lon="-3.383665"><ele>609</ele><time>2020-01-18T13:16:26Z</time><name>PT9864</name></trkpt>
<trkpt lat="52.863447" lon="-3.383657"><ele>609</ele><time>2020-01-18T13:16:27Z</time><name>PT9865</name></trkpt>
<trkpt lat="52.863436" lon="-3.383646"><ele>609</ele><time>2020-01-18T13:16:29Z</time><name>PT9866</name></trkpt>
<trkpt lat="52.863426" lon="-3.383634"><ele>609</ele><time>2020-01-18T13:16:29Z</time><name>PT9867</name></trkpt>
<trkpt lat="52.863415" lon="-3.383623"><ele>609</ele><time>2020-01-18T13:16:30Z</time><name>PT9868</name></trkpt>
<trkpt lat="52.863404" lon="-3.383611"><ele>609</ele><time>2020-01-18T13:16:32Z</time><name>PT9869</name></trkpt>
<trkpt lat="52.863393" lon="-3.383601"><ele>609</ele><time>2020-01-18T13:16:32Z</time><name>PT9870</name></trkpt>
<trkpt lat="52.863381" lon="-3.383590"><ele>609</ele><time>2020-01-18T13:16:33Z</time><name>PT9871</name></trkpt>
<trkpt lat="52.863371" lon="-3.383585"><ele>609</ele><time>2020-01-18T13:16:35Z</time><name>PT9872</name></trkpt>
<trkpt lat="52.863360" lon="-3.383579"><ele>608</ele><time>2020-01-18T13:16:35Z</time><name>PT9873</name></trkpt>
<trkpt lat="52.863349" lon="-3.383571"><ele>608</ele><time>2020-01-18T13:16:36Z</time><name>PT9874</name></trkpt>
<trkpt lat="52.863340" lon="-3.383565"><ele>608</ele><time>2020-01-18T13:16:38Z</time><name>PT9875</name></trkpt>
<trkpt lat="52.863331" lon="-3.383557"><ele>608</ele><time>2020-01-18T13:16:38Z</time><name>PT9876</name></trkpt>
<trkpt lat="52.863323" lon="-3.383552"><ele>607</ele><time>2020-01-18T13:16:39Z</time><name>PT9877</name></trkpt>
<trkpt lat="52.863314" lon="-3.383545"><ele>607</ele><time>2020-01-18T13:16:41Z</time><name>PT9878</name></trkpt>
<trkpt lat="52.863304" lon="-3.383536"><ele>607</ele><time>2020-01-18T13:16:41Z</time><name>PT9879</name></trkpt>
<trkpt lat="52.863295" lon="-3.383531"><ele>607</ele><time>2020-01-18T13:16:42Z</time><name>PT9880</name></trkpt>
<trkpt lat="52.863286" lon="-3.383524"><ele>607</ele><time>2020-01-18T13:16:44Z</time><name>PT9881</name></trkpt>
<trkpt lat="52.863276" lon="-3.383519"><ele>607</ele><time>2020-01-18T13:16:44Z</time><name>PT9882</name></trkpt>
<trkpt lat="52.863266" lon="-3.383511"><ele>607</ele><time>2020-01-18T13:16:45Z</time><name>PT9883</name></trkpt>
<trkpt lat="52.863255" lon="-3.383502"><ele>607</ele><time>2020-01-18T13:16:47Z</time><name>PT9884</name></trkpt>
<trkpt lat="52.863247" lon="-3.383493"><ele>607</ele><time>2020-01-18T13:16:47Z</time><name>PT9885</name></trkpt>
<trkpt lat="52.863238" lon="-3.383489"><ele>606</ele><time>2020-01-18T13:16:48Z</time><name>PT9886</name></trkpt>
<trkpt lat="52.863229" lon="-3.383478"><ele>606</ele><time>2020-01-18T13:16:50Z</time><name>PT9887</name></trkpt>
<trkpt lat="52.863219" lon="-3.383472"><ele>606</ele><time>2020-01-18T13:16:50Z</time><name>PT9888</name></trkpt>
<trkpt lat="52.863210" lon="-3.383466"><ele>605</ele><time>2020-01-18T13:16:51Z</time><name>PT9889</name></trkpt>
<trkpt lat="52.863202" lon="-3.383461"><ele>605</ele><time>2020-01-18T13:16:53Z</time><name>PT9890</name></trkpt>
<trkpt lat="52.863195" lon="-3.383457"><ele>605</ele><time>2020-01-18T13:16:53Z</time><name>PT9891</name></trkpt>
<trkpt lat="52.863189" lon="-3.383452"><ele>605</ele><time>2020-01-18T13:16:54Z</time><name>PT9892</name></trkpt>
<trkpt lat="52.863182" lon="-3.383447"><ele>604</ele><time>2020-01-18T13:16:56Z</time><name>PT9893</name></trkpt>
<trkpt lat="52.863174" lon="-3.383437"><ele>604</ele><time>2020-01-18T13:16:56Z</time><name>PT9894</name></trkpt>
<trkpt lat="52.863165" lon="-3.383432"><ele>604</ele><time>2020-01-18T13:16:57Z</time><name>PT9895</name></trkpt>
<trkpt lat="52.863157" lon="-3.383427"><ele>603</ele><time>2020-01-18T13:16:59Z</time><name>PT9896</name></trkpt>
<trkpt lat="52.863149" lon="-3.383422"><ele>603</ele><time>2020-01-18T13:16:59Z</time><name>PT9897</name></trkpt>
<trkpt lat="52.863141" lon="-3.383419"><ele>603</ele><time>2020-01-18T13:17:00Z</time><name>PT9898</name></trkpt>
<trkpt lat="52.863134" lon="-3.383417"><ele>603</ele><time>2020-01-18T13:17:02Z</time><name>PT9899</name></trkpt>
<trkpt lat="52.863126" lon="-3.383409"><ele>603</ele><time>2020-01-18T13:17:02Z</time><name>PT9900</name></trkpt>
<trkpt lat="52.863115" lon="-3.383400"><ele>603</ele><time>2020-01-18T13:17:03Z</time><name>PT9901</name></trkpt>
<trkpt lat="52.863106" lon="-3.383398"><ele>603</ele><time>2020-01-18T13:17:05Z</time><name>PT9902</name></trkpt>
<trkpt lat="52.863098" lon="-3.383399"><ele>603</ele><time>2020-01-18T13:17:05Z</time><name>PT9903</name></trkpt>
<trkpt lat="52.863090" lon="-3.383400"><ele>603</ele><time>2020-01-18T13:17:06Z</time><name>PT9904</name></trkpt>
<trkpt lat="52.863082" lon="-3.383398"><ele>602</ele><time>2020-01-18T13:17:08Z</time><name>PT9905</name></trkpt>
<trkpt lat="52.863075" lon="-3.383395"><ele>602</ele><time>2020-01-18T13:17:08Z</time><name>PT9906</name></trkpt>
<trkpt lat="52.863069" lon="-3.383395"><ele>601</ele><time>2020-01-18T13:17:09Z</time><name>PT9907</name></trkpt>
<trkpt lat="52.863059" lon="-3.383385"><ele>601</ele><time>2020-01-18T13:17:11Z</time><name>PT9908</name></trkpt>
<trkpt lat="52.863052" lon="-3.383380"><ele>601</ele><time>2020-01-18T13:17:11Z</time><name>PT9909</name></trkpt>
<trkpt lat="52.863043" lon="-3.383374"><ele>601</ele><time>2020-01-18T13:17:12Z</time><name>PT9910</name></trkpt>
<trkpt lat="52.863035" lon="-3.383362"><ele>601</ele><time>2020-01-18T13:17:14Z</time><name>PT9911</name></trkpt>
<trkpt lat="52.863027" lon="-3.383353"><ele>600</ele><time>2020-01-18T13:17:14Z</time><name>PT9912</name></trkpt>
<trkpt lat="52.863022" lon="-3.383344"><ele>600</ele><time>2020-01-18T13:17:15Z</time><name>PT9913</name></trkpt>
<trkpt lat="52.863016" lon="-3.383332"><ele>600</ele><time>2020-01-18T13:17:17Z</time><name>PT9914</name></trkpt>
<trkpt lat="52.863009" lon="-3.383318"><ele>600</ele><time>2020-01-18T13:17:17Z</time><name>PT9915</name></trkpt>
<trkpt lat="52.863002" lon="-3.383306"><ele>600</ele><time>2020-01-18T13:17:19Z</time><name>PT9916</name></trkpt>
<trkpt lat="52.862995" lon="-3.383295"><ele>599</ele><time>2020-01-18T13:17:20Z</time><name>PT9917</name></trkpt>
<trkpt lat="52.862986" lon="-3.383288"><ele>599</ele><time>2020-01-18T13:17:20Z</time><name>PT9918</name></trkpt>
<trkpt lat="52.862978" lon="-3.383284"><ele>599</ele><time>2020-01-18T13:17:21Z</time><name>PT9919</name></trkpt>
<trkpt lat="52.862971" lon="-3.383282"><ele>599</ele><time>2020-01-18T13:17:23Z</time><name>PT9920</name></trkpt>
<trkpt lat="52.862965" lon="-3.383279"><ele>598</ele><time>2020-01-18T13:17:23Z</time><name>PT9921</name></trkpt>
<trkpt lat="52.862961" lon="-3.383281"><ele>598</ele><time>2020-01-18T13:17:24Z</time><name>PT9922</name></trkpt>
<trkpt lat="52.862957" lon="-3.383282"><ele>598</ele><time>2020-01-18T13:17:26Z</time><name>PT9923</name></trkpt>
<trkpt lat="52.862948" lon="-3.383273"><ele>598</ele><time>2020-01-18T13:17:26Z</time><name>PT9924</name></trkpt>
<trkpt lat="52.862939" lon="-3.383264"><ele>598</ele><time>2020-01-18T13:17:28Z</time><name>PT9925</name></trkpt>
<trkpt lat="52.862932" lon="-3.383258"><ele>598</ele><time>2020-01-18T13:17:29Z</time><name>PT9926</name></trkpt>
<trkpt lat="52.862924" lon="-3.383252"><ele>598</ele><time>2020-01-18T13:17:29Z</time><name>PT9927</name></trkpt>
<trkpt lat="52.862918" lon="-3.383249"><ele>598</ele><time>2020-01-18T13:17:31Z</time><name>PT9928</name></trkpt>
<trkpt lat="52.862911" lon="-3.383247"><ele>597</ele><time>2020-01-18T13:17:32Z</time><name>PT9929</name></trkpt>
<trkpt lat="52.862903" lon="-3.383242"><ele>597</ele><time>2020-01-18T13:17:32Z</time><name>PT9930</name></trkpt>
<trkpt lat="52.862896" lon="-3.383236"><ele>597</ele><time>2020-01-18T13:17:34Z</time><name>PT9931</name></trkpt>
<trkpt lat="52.862889" lon="-3.383231"><ele>597</ele><time>2020-01-18T13:17:35Z</time><name>PT9932</name></trkpt>
<trkpt lat="52.862883" lon="-3.383227"><ele>596</ele><time>2020-01-18T13:17:35Z</time><name>PT9933</name></trkpt>
<trkpt lat="52.862877" lon="-3.383222"><ele>596</ele><time>2020-01-18T13:17:36Z</time><name>PT9934</name></trkpt>
<trkpt lat="52.862870" lon="-3.383216"><ele>596</ele><time>2020-01-18T13:17:38Z</time><name>PT9935</name></trkpt>
<trkpt lat="52.862864" lon="-3.383206"><ele>596</ele><time>2020-01-18T13:17:38Z</time><name>PT9936</name></trkpt>
<trkpt lat="52.862857" lon="-3.383195"><ele>596</ele><time>2020-01-18T13:17:39Z</time><name>PT9937</name></trkpt>
<trkpt lat="52.862852" lon="-3.383185"><ele>596</ele><time>2020-01-18T13:17:41Z</time><name>PT9938</name></trkpt>
<trkpt lat="52.862847" lon="-3.383174"><ele>596</ele><time>2020-01-18T13:17:41Z</time><name>PT9939</name></trkpt>
<trkpt lat="52.862841" lon="-3.383159"><ele>596</ele><time>2020-01-18T13:17:42Z</time><name>PT9940</name></trkpt>
<trkpt lat="52.862837" lon="-3.383143"><ele>595</ele><time>2020-01-18T13:17:44Z</time><name>PT9941</name></trkpt>
<trkpt lat="52.862833" lon="-3.383132"><ele>595</ele><time>2020-01-18T13:17:44Z</time><name>PT9942</name></trkpt>
<trkpt lat="52.862828" lon="-3.383116"><ele>595</ele><time>2020-01-18T13:17:45Z</time><name>PT9943</name></trkpt>
<trkpt lat="52.862822" lon="-3.383104"><ele>595</ele><time>2020-01-18T13:17:47Z</time><name>PT9944</name></trkpt>
<trkpt lat="52.862815" lon="-3.383092"><ele>595</ele><time>2020-01-18T13:17:47Z</time><name>PT9945</name></trkpt>
<trkpt lat="52.862807" lon="-3.383084"><ele>595</ele><time>2020-01-18T13:17:48Z</time><name>PT9946</name></trkpt>
<trkpt lat="52.862798" lon="-3.383073"><ele>594</ele><time>2020-01-18T13:17:50Z</time><name>PT9947</name></trkpt>
<trkpt lat="52.862790" lon="-3.383059"><ele>594</ele><time>2020-01-18T13:17:50Z</time><name>PT9948</name></trkpt>
<trkpt lat="52.862781" lon="-3.383049"><ele>594</ele><time>2020-01-18T13:17:51Z</time><name>PT9949</name></trkpt>
<trkpt lat="52.862774" lon="-3.383036"><ele>594</ele><time>2020-01-18T13:17:53Z</time><name>PT9950</name></trkpt>
<trkpt lat="52.862765" lon="-3.383020"><ele>594</ele><time>2020-01-18T13:17:53Z</time><name>PT9951</name></trkpt>
<trkpt lat="52.862757" lon="-3.383007"><ele>594</ele><time>2020-01-18T13:17:54Z</time><name>PT9952</name></trkpt>
<trkpt lat="52.862747" lon="-3.382993"><ele>594</ele><time>2020-01-18T13:17:56Z</time><name>PT9953</name></trkpt>
<trkpt lat="52.862740" lon="-3.382980"><ele>594</ele><time>2020-01-18T13:17:56Z</time><name>PT9954</name></trkpt>
<trkpt lat="52.862734" lon="-3.382970"><ele>594</ele><time>2020-01-18T13:17:57Z</time><name>PT9955</name></trkpt>
<trkpt lat="52.862727" lon="-3.382957"><ele>594</ele><time>2020-01-18T13:17:59Z</time><name>PT9956</name></trkpt>
<trkpt lat="52.862723" lon="-3.382945"><ele>593</ele><time>2020-01-18T13:17:59Z</time><name>PT9957</name></trkpt>
<trkpt lat="52.862717" lon="-3.382934"><ele>593</ele><time>2020-01-18T13:18:00Z</time><name>PT9958</name></trkpt>
<trkpt lat="52.862709" lon="-3.382920"><ele>593</ele><time>2020-01-18T13:18:02Z</time><name>PT9959</name></trkpt>
<trkpt lat="52.862702" lon="-3.382909"><ele>594</ele><time>2020-01-18T13:18:02Z</time><name>PT9960</name></trkpt>
<trkpt lat="52.862694" lon="-3.382899"><ele>593</ele><time>2020-01-18T13:18:03Z</time><name>PT9961</name></trkpt>
<trkpt lat="52.862686" lon="-3.382889"><ele>593</ele><time>2020-01-18T13:18:05Z</time><name>PT9962</name></trkpt>
<trkpt lat="52.862677" lon="-3.382882"><ele>593</ele><time>2020-01-18T13:18:05Z</time><name>PT9963</name></trkpt>
<trkpt lat="52.862669" lon="-3.382878"><ele>593</ele><time>2020-01-18T13:18:06Z</time><name>PT9964</name></trkpt>
<trkpt lat="52.862661" lon="-3.382874"><ele>593</ele><time>2020-01-18T13:18:08Z</time><name>PT9965</name></trkpt>
<trkpt lat="52.862654" lon="-3.382871"><ele>592</ele><time>2020-01-18T13:18:08Z</time><name>PT9966</name></trkpt>
<trkpt lat="52.862645" lon="-3.382867"><ele>592</ele><time>2020-01-18T13:18:09Z</time><name>PT9967</name></trkpt>
<trkpt lat="52.862635" lon="-3.382862"><ele>592</ele><time>2020-01-18T13:18:11Z</time><name>PT9968</name></trkpt>
<trkpt lat="52.862626" lon="-3.382858"><ele>592</ele><time>2020-01-18T13:18:11Z</time><name>PT9969</name></trkpt>
<trkpt lat="52.862617" lon="-3.382853"><ele>592</ele><time>2020-01-18T13:18:12Z</time><name>PT9970</name></trkpt>
<trkpt lat="52.862609" lon="-3.382849"><ele>591</ele><time>2020-01-18T13:18:14Z</time><name>PT9971</name></trkpt>
<trkpt lat="52.862602" lon="-3.382846"><ele>591</ele><time>2020-01-18T13:18:14Z</time><name>PT9972</name></trkpt>
<trkpt lat="52.862594" lon="-3.382844"><ele>591</ele><time>2020-01-18T13:18:15Z</time><name>PT9973</name></trkpt>
<trkpt lat="52.862588" lon="-3.382846"><ele>591</ele><time>2020-01-18T13:18:17Z</time><name>PT9974</name></trkpt>
<trkpt lat="52.862580" lon="-3.382842"><ele>591</ele><time>2020-01-18T13:18:17Z</time><name>PT9975</name></trkpt>
<trkpt lat="52.862572" lon="-3.382839"><ele>591</ele><time>2020-01-18T13:18:19Z</time><name>PT9976</name></trkpt>
<trkpt lat="52.862563" lon="-3.382833"><ele>591</ele><time>2020-01-18T13:18:20Z</time><name>PT9977</name></trkpt>
<trkpt lat="52.862553" lon="-3.382826"><ele>591</ele><time>2020-01-18T13:18:21Z</time><name>PT9978</name></trkpt>
<trkpt lat="52.862546" lon="-3.382823"><ele>591</ele><time>2020-01-18T13:18:22Z</time><name>PT9979</name></trkpt>
<trkpt lat="52.862535" lon="-3.382811"><ele>590</ele><time>2020-01-18T13:18:23Z</time><name>PT9980</name></trkpt>
<trkpt lat="52.862521" lon="-3.382798"><ele>590</ele><time>2020-01-18T13:18:23Z</time><name>PT9981</name></trkpt>
<trkpt lat="52.862513" lon="-3.382794"><ele>590</ele><time>2020-01-18T13:18:24Z</time><name>PT9982</name></trkpt>
<trkpt lat="52.862507" lon="-3.382792"><ele>590</ele><time>2020-01-18T13:18:26Z</time><name>PT9983</name></trkpt>
<trkpt lat="52.862500" lon="-3.382792"><ele>590</ele><time>2020-01-18T13:18:26Z</time><name>PT9984</name></trkpt>
<trkpt lat="52.862494" lon="-3.382787"><ele>590</ele><time>2020-01-18T13:18:27Z</time><name>PT9985</name></trkpt>
<trkpt lat="52.862487" lon="-3.382785"><ele>590</ele><time>2020-01-18T13:18:29Z</time><name>PT9986</name></trkpt>
<trkpt lat="52.862478" lon="-3.382781"><ele>590</ele><time>2020-01-18T13:18:29Z</time><name>PT9987</name></trkpt>
<trkpt lat="52.862471" lon="-3.382777"><ele>589</ele><time>2020-01-18T13:18:30Z</time><name>PT9988</name></trkpt>
<trkpt lat="52.862465" lon="-3.382778"><ele>589</ele><time>2020-01-18T13:18:32Z</time><name>PT9989</name></trkpt>
<trkpt lat="52.862459" lon="-3.382778"><ele>589</ele><time>2020-01-18T13:18:32Z</time><name>PT9990</name></trkpt>
<trkpt lat="52.862454" lon="-3.382778"><ele>589</ele><time>2020-01-18T13:18:33Z</time><name>PT9991</name></trkpt>
<trkpt lat="52.862447" lon="-3.382775"><ele>589</ele><time>2020-01-18T13:18:35Z</time><name>PT9992</name></trkpt>
<trkpt lat="52.862442" lon="-3.382772"><ele>589</ele><time>2020-01-18T13:18:35Z</time><name>PT9993</name></trkpt>
<trkpt lat="52.862438" lon="-3.382768"><ele>589</ele><time>2020-01-18T13:18:36Z</time><name>PT9994</name></trkpt>
<trkpt lat="52.862436" lon="-3.382767"><ele>589</ele><time>2020-01-18T13:18:38Z</time><name>PT9995</name></trkpt>
<trkpt lat="52.862433" lon="-3.382760"><ele>589</ele><time>2020-01-18T13:18:46Z</time><name>PT9996</name></trkpt>
<trkpt lat="52.862426" lon="-3.382745"><ele>588</ele><time>2020-01-18T13:18:47Z</time><name>PT9997</name></trkpt>
<trkpt lat="52.862417" lon="-3.382731"><ele>588</ele><time>2020-01-18T13:18:47Z</time><name>PT9998</name></trkpt>
<trkpt lat="52.862413" lon="-3.382721"><ele>587</ele><time>2020-01-18T13:18:48Z</time><name>PT9999</name></trkpt>
<trkpt lat="52.862408" lon="-3.382708"><ele>587</ele><time>2020-01-18T13:18:50Z</time><name>PT10000</name></trkpt>
<trkpt lat="52.862402" lon="-3.382697"><ele>587</ele><time>2020-01-18T13:18:50Z</time><name>PT10001</name></trkpt>
<trkpt lat="52.862394" lon="-3.382683"><ele>587</ele><time>2020-01-18T13:18:51Z</time><name>PT10002</name></trkpt>
<trkpt lat="52.862389" lon="-3.382672"><ele>587</ele><time>2020-01-18T13:18:53Z</time><name>PT10003</name></trkpt>
<trkpt lat="52.862383" lon="-3.382664"><ele>586</ele><time>2020-01-18T13:18:53Z</time><name>PT10004</name></trkpt>
<trkpt lat="52.862376" lon="-3.382652"><ele>586</ele><time>2020-01-18T13:18:54Z</time><name>PT10005</name></trkpt>
<trkpt lat="52.862364" lon="-3.382638"><ele>586</ele><time>2020-01-18T13:18:56Z</time><name>PT10006</name></trkpt>
<trkpt lat="52.862355" lon="-3.382634"><ele>585</ele><time>2020-01-18T13:18:56Z</time><name>PT10007</name></trkpt>
<trkpt lat="52.862347" lon="-3.382627"><ele>585</ele><time>2020-01-18T13:18:57Z</time><name>PT10008</name></trkpt>
<trkpt lat="52.862341" lon="-3.382620"><ele>585</ele><time>2020-01-18T13:18:59Z</time><name>PT10009</name></trkpt>
<trkpt lat="52.862335" lon="-3.382612"><ele>585</ele><time>2020-01-18T13:19:00Z</time><name>PT10010</name></trkpt>
<trkpt lat="52.862330" lon="-3.382609"><ele>585</ele><time>2020-01-18T13:19:00Z</time><name>PT10011</name></trkpt>
<trkpt lat="52.862323" lon="-3.382604"><ele>584</ele><time>2020-01-18T13:19:02Z</time><name>PT10012</name></trkpt>
<trkpt lat="52.862317" lon="-3.382601"><ele>584</ele><time>2020-01-18T13:19:02Z</time><name>PT10013</name></trkpt>
<trkpt lat="52.862309" lon="-3.382596"><ele>584</ele><time>2020-01-18T13:19:03Z</time><name>PT10014</name></trkpt>
<trkpt lat="52.862303" lon="-3.382595"><ele>584</ele><time>2020-01-18T13:19:05Z</time><name>PT10015</name></trkpt>
<trkpt lat="52.862295" lon="-3.382588"><ele>583</ele><time>2020-01-18T13:19:05Z</time><name>PT10016</name></trkpt>
<trkpt lat="52.862287" lon="-3.382585"><ele>583</ele><time>2020-01-18T13:19:06Z</time><name>PT10017</name></trkpt>
<trkpt lat="52.862281" lon="-3.382580"><ele>583</ele><time>2020-01-18T13:19:08Z</time><name>PT10018</name></trkpt>
<trkpt lat="52.862273" lon="-3.382572"><ele>583</ele><time>2020-01-18T13:19:08Z</time><name>PT10019</name></trkpt>
<trkpt lat="52.862265" lon="-3.382568"><ele>582</ele><time>2020-01-18T13:19:09Z</time><name>PT10020</name></trkpt>
<trkpt lat="52.862257" lon="-3.382566"><ele>582</ele><time>2020-01-18T13:19:11Z</time><name>PT10021</name></trkpt>
<trkpt lat="52.862249" lon="-3.382563"><ele>582</ele><time>2020-01-18T13:19:11Z</time><name>PT10022</name></trkpt>
<trkpt lat="52.862242" lon="-3.382562"><ele>581</ele><time>2020-01-18T13:19:12Z</time><name>PT10023</name></trkpt>
<trkpt lat="52.862235" lon="-3.382555"><ele>581</ele><time>2020-01-18T13:19:14Z</time><name>PT10024</name></trkpt>
<trkpt lat="52.862229" lon="-3.382549"><ele>581</ele><time>2020-01-18T13:19:14Z</time><name>PT10025</name></trkpt>
<trkpt lat="52.862222" lon="-3.382541"><ele>581</ele><time>2020-01-18T13:19:15Z</time><name>PT10026</name></trkpt>
<trkpt lat="52.862213" lon="-3.382531"><ele>581</ele><time>2020-01-18T13:19:17Z</time><name>PT10027</name></trkpt>
<trkpt lat="52.862204" lon="-3.382516"><ele>581</ele><time>2020-01-18T13:19:17Z</time><name>PT10028</name></trkpt>
<trkpt lat="52.862197" lon="-3.382506"><ele>581</ele><time>2020-01-18T13:19:18Z</time><name>PT10029</name></trkpt>
<trkpt lat="52.862189" lon="-3.382497"><ele>580</ele><time>2020-01-18T13:19:20Z</time><name>PT10030</name></trkpt>
<trkpt lat="52.862183" lon="-3.382489"><ele>580</ele><time>2020-01-18T13:19:20Z</time><name>PT10031</name></trkpt>
<trkpt lat="52.862176" lon="-3.382479"><ele>580</ele><time>2020-01-18T13:19:21Z</time><name>PT10032</name></trkpt>
<trkpt lat="52.862169" lon="-3.382469"><ele>580</ele><time>2020-01-18T13:19:23Z</time><name>PT10033</name></trkpt>
<trkpt lat="52.862162" lon="-3.382464"><ele>580</ele><time>2020-01-18T13:19:23Z</time><name>PT10034</name></trkpt>
<trkpt lat="52.862155" lon="-3.382460"><ele>579</ele><time>2020-01-18T13:19:24Z</time><name>PT10035</name></trkpt>
<trkpt lat="52.862147" lon="-3.382454"><ele>579</ele><time>2020-01-18T13:19:26Z</time><name>PT10036</name></trkpt>
<trkpt lat="52.862139" lon="-3.382452"><ele>579</ele><time>2020-01-18T13:19:26Z</time><name>PT10037</name></trkpt>
<trkpt lat="52.862132" lon="-3.382447"><ele>579</ele><time>2020-01-18T13:19:28Z</time><name>PT10038</name></trkpt>
<trkpt lat="52.862125" lon="-3.382442"><ele>579</ele><time>2020-01-18T13:19:29Z</time><name>PT10039</name></trkpt>
<trkpt lat="52.862117" lon="-3.382438"><ele>578</ele><time>2020-01-18T13:19:29Z</time><name>PT10040</name></trkpt>
<trkpt lat="52.862109" lon="-3.382436"><ele>578</ele><time>2020-01-18T13:19:30Z</time><name>PT10041</name></trkpt>
<trkpt lat="52.862101" lon="-3.382439"><ele>578</ele><time>2020-01-18T13:19:32Z</time><name>PT10042</name></trkpt>
<trkpt lat="52.862094" lon="-3.382440"><ele>577</ele><time>2020-01-18T13:19:32Z</time><name>PT10043</name></trkpt>
<trkpt lat="52.862089" lon="-3.382439"><ele>577</ele><time>2020-01-18T13:19:33Z</time><name>PT10044</name></trkpt>
<trkpt lat="52.862084" lon="-3.382436"><ele>576</ele><time>2020-01-18T13:19:35Z</time><name>PT10045</name></trkpt>
<trkpt lat="52.862078" lon="-3.382428"><ele>576</ele><time>2020-01-18T13:19:35Z</time><name>PT10046</name></trkpt>
<trkpt lat="52.862072" lon="-3.382424"><ele>575</ele><time>2020-01-18T13:19:36Z</time><name>PT10047</name></trkpt>
<trkpt lat="52.862065" lon="-3.382412"><ele>575</ele><time>2020-01-18T13:19:38Z</time><name>PT10048</name></trkpt>
<trkpt lat="52.862059" lon="-3.382402"><ele>575</ele><time>2020-01-18T13:19:38Z</time><name>PT10049</name></trkpt>
<trkpt lat="52.862050" lon="-3.382398"><ele>575</ele><time>2020-01-18T13:19:39Z</time><name>PT10050</name></trkpt>
<trkpt lat="52.862044" lon="-3.382394"><ele>575</ele><time>2020-01-18T13:19:41Z</time><name>PT10051</name></trkpt>
<trkpt lat="52.862037" lon="-3.382393"><ele>575</ele><time>2020-01-18T13:19:41Z</time><name>PT10052</name></trkpt>
<trkpt lat="52.862031" lon="-3.382394"><ele>574</ele><time>2020-01-18T13:19:42Z</time><name>PT10053</name></trkpt>
<trkpt lat="52.862025" lon="-3.382396"><ele>574</ele><time>2020-01-18T13:19:44Z</time><name>PT10054</name></trkpt>
<trkpt lat="52.862022" lon="-3.382400"><ele>574</ele><time>2020-01-18T13:19:44Z</time><name>PT10055</name></trkpt>
<trkpt lat="52.862020" lon="-3.382400"><ele>574</ele><time>2020-01-18T13:19:45Z</time><name>PT10056</name></trkpt>
<trkpt lat="52.862018" lon="-3.382399"><ele>574</ele><time>2020-01-18T13:19:47Z</time><name>PT10057</name></trkpt>
<trkpt lat="52.862018" lon="-3.382398"><ele>574</ele><time>2020-01-18T13:19:47Z</time><name>PT10058</name></trkpt>
<trkpt lat="52.862018" lon="-3.382394"><ele>574</ele><time>2020-01-18T13:19:48Z</time><name>PT10059</name></trkpt>
<trkpt lat="52.862017" lon="-3.382388"><ele>574</ele><time>2020-01-18T13:19:50Z</time><name>PT10060</name></trkpt>
<trkpt lat="52.862017" lon="-3.382385"><ele>574</ele><time>2020-01-18T13:19:50Z</time><name>PT10061</name></trkpt>
<trkpt lat="52.862015" lon="-3.382387"><ele>574</ele><time>2020-01-18T13:19:51Z</time><name>PT10062</name></trkpt>
<trkpt lat="52.862015" lon="-3.382386"><ele>574</ele><time>2020-01-18T13:19:53Z</time><name>PT10063</name></trkpt>
<trkpt lat="52.862014" lon="-3.382385"><ele>574</ele><time>2020-01-18T13:19:53Z</time><name>PT10064</name></trkpt>
<trkpt lat="52.862014" lon="-3.382385"><ele>574</ele><time>2020-01-18T13:19:54Z</time><name>PT10065</name></trkpt>
<trkpt lat="52.862014" lon="-3.382380"><ele>574</ele><time>2020-01-18T13:20:11Z</time><name>PT10066</name></trkpt>
<trkpt lat="52.862006" lon="-3.382376"><ele>574</ele><time>2020-01-18T13:20:12Z</time><name>PT10067</name></trkpt>
<trkpt lat="52.862000" lon="-3.382373"><ele>574</ele><time>2020-01-18T13:20:14Z</time><name>PT10068</name></trkpt>
<trkpt lat="52.861993" lon="-3.382368"><ele>574</ele><time>2020-01-18T13:20:14Z</time><name>PT10069</name></trkpt>
<trkpt lat="52.861989" lon="-3.382366"><ele>574</ele><time>2020-01-18T13:20:15Z</time><name>PT10070</name></trkpt>
<trkpt lat="52.861986" lon="-3.382361"><ele>574</ele><time>2020-01-18T13:20:17Z</time><name>PT10071</name></trkpt>
<trkpt lat="52.861980" lon="-3.382360"><ele>574</ele><time>2020-01-18T13:20:17Z</time><name>PT10072</name></trkpt>
<trkpt lat="52.861974" lon="-3.382357"><ele>573</ele><time>2020-01-18T13:20:18Z</time><name>PT10073</name></trkpt>
<trkpt lat="52.861968" lon="-3.382349"><ele>573</ele><time>2020-01-18T13:20:20Z</time><name>PT10074</name></trkpt>
<trkpt lat="52.861959" lon="-3.382338"><ele>572</ele><time>2020-01-18T13:20:20Z</time><name>PT10075</name></trkpt>
<trkpt lat="52.861951" lon="-3.382330"><ele>572</ele><time>2020-01-18T13:20:21Z</time><name>PT10076</name></trkpt>
<trkpt lat="52.861944" lon="-3.382323"><ele>572</ele><time>2020-01-18T13:20:23Z</time><name>PT10077</name></trkpt>
<trkpt lat="52.861938" lon="-3.382313"><ele>572</ele><time>2020-01-18T13:20:23Z</time><name>PT10078</name></trkpt>
<trkpt lat="52.861931" lon="-3.382300"><ele>572</ele><time>2020-01-18T13:20:24Z</time><name>PT10079</name></trkpt>
<trkpt lat="52.861925" lon="-3.382285"><ele>571</ele><time>2020-01-18T13:20:26Z</time><name>PT10080</name></trkpt>
<trkpt lat="52.861920" lon="-3.382280"><ele>571</ele><time>2020-01-18T13:20:26Z</time><name>PT10081</name></trkpt>
<trkpt lat="52.861914" lon="-3.382270"><ele>571</ele><time>2020-01-18T13:20:27Z</time><name>PT10082</name></trkpt>
<trkpt lat="52.861906" lon="-3.382264"><ele>571</ele><time>2020-01-18T13:20:29Z</time><name>PT10083</name></trkpt>
<trkpt lat="52.861899" lon="-3.382254"><ele>570</ele><time>2020-01-18T13:20:29Z</time><name>PT10084</name></trkpt>
<trkpt lat="52.861891" lon="-3.382246"><ele>570</ele><time>2020-01-18T13:20:30Z</time><name>PT10085</name></trkpt>
<trkpt lat="52.861882" lon="-3.382238"><ele>569</ele><time>2020-01-18T13:20:32Z</time><name>PT10086</name></trkpt>
<trkpt lat="52.861873" lon="-3.382231"><ele>569</ele><time>2020-01-18T13:20:32Z</time><name>PT10087</name></trkpt>
<trkpt lat="52.861863" lon="-3.382220"><ele>568</ele><time>2020-01-18T13:20:33Z</time><name>PT10088</name></trkpt>
<trkpt lat="52.861855" lon="-3.382217"><ele>567</ele><time>2020-01-18T13:20:35Z</time><name>PT10089</name></trkpt>
<trkpt lat="52.861846" lon="-3.382213"><ele>567</ele><time>2020-01-18T13:20:35Z</time><name>PT10090</name></trkpt>
<trkpt lat="52.861839" lon="-3.382207"><ele>567</ele><time>2020-01-18T13:20:36Z</time><name>PT10091</name></trkpt>
<trkpt lat="52.861832" lon="-3.382200"><ele>567</ele><time>2020-01-18T13:20:38Z</time><name>PT10092</name></trkpt>
<trkpt lat="52.861826" lon="-3.382187"><ele>567</ele><time>2020-01-18T13:20:38Z</time><name>PT10093</name></trkpt>
<trkpt lat="52.861821" lon="-3.382181"><ele>567</ele><time>2020-01-18T13:20:39Z</time><name>PT10094</name></trkpt>
<trkpt lat="52.861814" lon="-3.382177"><ele>567</ele><time>2020-01-18T13:20:41Z</time><name>PT10095</name></trkpt>
<trkpt lat="52.861807" lon="-3.382170"><ele>567</ele><time>2020-01-18T13:20:41Z</time><name>PT10096</name></trkpt>
<trkpt lat="52.861795" lon="-3.382154"><ele>568</ele><time>2020-01-18T13:20:42Z</time><name>PT10097</name></trkpt>
<trkpt lat="52.861788" lon="-3.382150"><ele>567</ele><time>2020-01-18T13:20:44Z</time><name>PT10098</name></trkpt>
<trkpt lat="52.861782" lon="-3.382147"><ele>567</ele><time>2020-01-18T13:20:44Z</time><name>PT10099</name></trkpt>
<trkpt lat="52.861775" lon="-3.382145"><ele>567</ele><time>2020-01-18T13:20:45Z</time><name>PT10100</name></trkpt>
<trkpt lat="52.861770" lon="-3.382144"><ele>567</ele><time>2020-01-18T13:20:47Z</time><name>PT10101</name></trkpt>
<trkpt lat="52.861764" lon="-3.382143"><ele>566</ele><time>2020-01-18T13:20:47Z</time><name>PT10102</name></trkpt>
<trkpt lat="52.861757" lon="-3.382138"><ele>566</ele><time>2020-01-18T13:20:49Z</time><name>PT10103</name></trkpt>
<trkpt lat="52.861750" lon="-3.382132"><ele>566</ele><time>2020-01-18T13:20:50Z</time><name>PT10104</name></trkpt>
<trkpt lat="52.861742" lon="-3.382122"><ele>566</ele><time>2020-01-18T13:20:50Z</time><name>PT10105</name></trkpt>
<trkpt lat="52.861733" lon="-3.382114"><ele>566</ele><time>2020-01-18T13:20:51Z</time><name>PT10106</name></trkpt>
<trkpt lat="52.861724" lon="-3.382110"><ele>566</ele><time>2020-01-18T13:20:53Z</time><name>PT10107</name></trkpt>
<trkpt lat="52.861716" lon="-3.382107"><ele>565</ele><time>2020-01-18T13:20:53Z</time><name>PT10108</name></trkpt>
<trkpt lat="52.861709" lon="-3.382104"><ele>565</ele><time>2020-01-18T13:20:54Z</time><name>PT10109</name></trkpt>
<trkpt lat="52.861701" lon="-3.382099"><ele>565</ele><time>2020-01-18T13:20:56Z</time><name>PT10110</name></trkpt>
<trkpt lat="52.861694" lon="-3.382094"><ele>565</ele><time>2020-01-18T13:20:56Z</time><name>PT10111</name></trkpt>
<trkpt lat="52.861684" lon="-3.382086"><ele>565</ele><time>2020-01-18T13:20:57Z</time><name>PT10112</name></trkpt>
<trkpt lat="52.861676" lon="-3.382080"><ele>565</ele><time>2020-01-18T13:20:59Z</time><name>PT10113</name></trkpt>
<trkpt lat="52.861671" lon="-3.382069"><ele>565</ele><time>2020-01-18T13:20:59Z</time><name>PT10114</name></trkpt>
<trkpt lat="52.861663" lon="-3.382062"><ele>565</ele><time>2020-01-18T13:21:00Z</time><name>PT10115</name></trkpt>
<trkpt lat="52.861654" lon="-3.382052"><ele>564</ele><time>2020-01-18T13:21:02Z</time><name>PT10116</name></trkpt>
<trkpt lat="52.861644" lon="-3.382045"><ele>564</ele><time>2020-01-18T13:21:02Z</time><name>PT10117</name></trkpt>
<trkpt lat="52.861635" lon="-3.382037"><ele>564</ele><time>2020-01-18T13:21:03Z</time><name>PT10118</name></trkpt>
<trkpt lat="52.861627" lon="-3.382034"><ele>564</ele><time>2020-01-18T13:21:05Z</time><name>PT10119</name></trkpt>
<trkpt lat="52.861619" lon="-3.382030"><ele>564</ele><time>2020-01-18T13:21:05Z</time><name>PT10120</name></trkpt>
<trkpt lat="52.861610" lon="-3.382028"><ele>563</ele><time>2020-01-18T13:21:07Z</time><name>PT10121</name></trkpt>
<trkpt lat="52.861601" lon="-3.382022"><ele>563</ele><time>2020-01-18T13:21:08Z</time><name>PT10122</name></trkpt>
<trkpt lat="52.861592" lon="-3.382020"><ele>563</ele><time>2020-01-18T13:21:09Z</time><name>PT10123</name></trkpt>
<trkpt lat="52.861585" lon="-3.382018"><ele>562</ele><time>2020-01-18T13:21:09Z</time><name>PT10124</name></trkpt>
<trkpt lat="52.861576" lon="-3.382004"><ele>563</ele><time>2020-01-18T13:21:11Z</time><name>PT10125</name></trkpt>
<trkpt lat="52.861568" lon="-3.381994"><ele>562</ele><time>2020-01-18T13:21:11Z</time><name>PT10126</name></trkpt>
<trkpt lat="52.861561" lon="-3.381986"><ele>563</ele><time>2020-01-18T13:21:13Z</time><name>PT10127</name></trkpt>
<trkpt lat="52.861553" lon="-3.381983"><ele>562</ele><time>2020-01-18T13:21:14Z</time><name>PT10128</name></trkpt>
<trkpt lat="52.861548" lon="-3.381983"><ele>562</ele><time>2020-01-18T13:21:14Z</time><name>PT10129</name></trkpt>
<trkpt lat="52.861537" lon="-3.381977"><ele>562</ele><time>2020-01-18T13:21:15Z</time><name>PT10130</name></trkpt>
<trkpt lat="52.861528" lon="-3.381974"><ele>562</ele><time>2020-01-18T13:21:17Z</time><name>PT10131</name></trkpt>
<trkpt lat="52.861518" lon="-3.381969"><ele>562</ele><time>2020-01-18T13:21:17Z</time><name>PT10132</name></trkpt>
<trkpt lat="52.861510" lon="-3.381966"><ele>562</ele><time>2020-01-18T13:21:18Z</time><name>PT10133</name></trkpt>
<trkpt lat="52.861501" lon="-3.381960"><ele>562</ele><time>2020-01-18T13:21:20Z</time><name>PT10134</name></trkpt>
<trkpt lat="52.861493" lon="-3.381954"><ele>562</ele><time>2020-01-18T13:21:20Z</time><name>PT10135</name></trkpt>
<trkpt lat="52.861485" lon="-3.381952"><ele>562</ele><time>2020-01-18T13:21:21Z</time><name>PT10136</name></trkpt>
<trkpt lat="52.861475" lon="-3.381953"><ele>561</ele><time>2020-01-18T13:21:23Z</time><name>PT10137</name></trkpt>
<trkpt lat="52.861466" lon="-3.381951"><ele>561</ele><time>2020-01-18T13:21:23Z</time><name>PT10138</name></trkpt>
<trkpt lat="52.861457" lon="-3.381947"><ele>561</ele><time>2020-01-18T13:21:24Z</time><name>PT10139</name></trkpt>
<trkpt lat="52.861446" lon="-3.381940"><ele>560</ele><time>2020-01-18T13:21:26Z</time><name>PT10140</name></trkpt>
<trkpt lat="52.861437" lon="-3.381934"><ele>560</ele><time>2020-01-18T13:21:26Z</time><name>PT10141</name></trkpt>
<trkpt lat="52.861428" lon="-3.381927"><ele>560</ele><time>2020-01-18T13:21:27Z</time><name>PT10142</name></trkpt>
<trkpt lat="52.861419" lon="-3.381919"><ele>560</ele><time>2020-01-18T13:21:29Z</time><name>PT10143</name></trkpt>
<trkpt lat="52.861408" lon="-3.381915"><ele>559</ele><time>2020-01-18T13:21:29Z</time><name>PT10144</name></trkpt>
<trkpt lat="52.861397" lon="-3.381909"><ele>559</ele><time>2020-01-18T13:21:30Z</time><name>PT10145</name></trkpt>
<trkpt lat="52.861386" lon="-3.381904"><ele>558</ele><time>2020-01-18T13:21:32Z</time><name>PT10146</name></trkpt>
<trkpt lat="52.861378" lon="-3.381901"><ele>559</ele><time>2020-01-18T13:21:32Z</time><name>PT10147</name></trkpt>
<trkpt lat="52.861366" lon="-3.381905"><ele>558</ele><time>2020-01-18T13:21:33Z</time><name>PT10148</name></trkpt>
<trkpt lat="52.861359" lon="-3.381909"><ele>557</ele><time>2020-01-18T13:21:35Z</time><name>PT10149</name></trkpt>
<trkpt lat="52.861353" lon="-3.381909"><ele>557</ele><time>2020-01-18T13:21:35Z</time><name>PT10150</name></trkpt>
<trkpt lat="52.861343" lon="-3.381905"><ele>557</ele><time>2020-01-18T13:21:36Z</time><name>PT10151</name></trkpt>
<trkpt lat="52.861337" lon="-3.381908"><ele>557</ele><time>2020-01-18T13:21:38Z</time><name>PT10152</name></trkpt>
<trkpt lat="52.861328" lon="-3.381903"><ele>558</ele><time>2020-01-18T13:21:38Z</time><name>PT10153</name></trkpt>
<trkpt lat="52.861321" lon="-3.381901"><ele>558</ele><time>2020-01-18T13:21:39Z</time><name>PT10154</name></trkpt>
<trkpt lat="52.861313" lon="-3.381896"><ele>558</ele><time>2020-01-18T13:21:41Z</time><name>PT10155</name></trkpt>
<trkpt lat="52.861305" lon="-3.381891"><ele>558</ele><time>2020-01-18T13:21:41Z</time><name>PT10156</name></trkpt>
<trkpt lat="52.861297" lon="-3.381885"><ele>558</ele><time>2020-01-18T13:21:42Z</time><name>PT10157</name></trkpt>
<trkpt lat="52.861288" lon="-3.381877"><ele>558</ele><time>2020-01-18T13:21:44Z</time><name>PT10158</name></trkpt>
<trkpt lat="52.861278" lon="-3.381864"><ele>558</ele><time>2020-01-18T13:21:44Z</time><name>PT10159</name></trkpt>
<trkpt lat="52.861272" lon="-3.381853"><ele>558</ele><time>2020-01-18T13:21:45Z</time><name>PT10160</name></trkpt>
<trkpt lat="52.861266" lon="-3.381838"><ele>557</ele><time>2020-01-18T13:21:47Z</time><name>PT10161</name></trkpt>
<trkpt lat="52.861261" lon="-3.381824"><ele>557</ele><time>2020-01-18T13:21:47Z</time><name>PT10162</name></trkpt>
<trkpt lat="52.861255" lon="-3.381817"><ele>557</ele><time>2020-01-18T13:21:48Z</time><name>PT10163</name></trkpt>
<trkpt lat="52.861249" lon="-3.381806"><ele>557</ele><time>2020-01-18T13:21:50Z</time><name>PT10164</name></trkpt>
<trkpt lat="52.861244" lon="-3.381796"><ele>557</ele><time>2020-01-18T13:21:50Z</time><name>PT10165</name></trkpt>
<trkpt lat="52.861240" lon="-3.381789"><ele>556</ele><time>2020-01-18T13:21:51Z</time><name>PT10166</name></trkpt>
<trkpt lat="52.861238" lon="-3.381795"><ele>556</ele><time>2020-01-18T13:21:53Z</time><name>PT10167</name></trkpt>
<trkpt lat="52.861234" lon="-3.381792"><ele>555</ele><time>2020-01-18T13:21:53Z</time><name>PT10168</name></trkpt>
<trkpt lat="52.861227" lon="-3.381786"><ele>555</ele><time>2020-01-18T13:21:54Z</time><name>PT10169</name></trkpt>
<trkpt lat="52.861221" lon="-3.381779"><ele>555</ele><time>2020-01-18T13:21:56Z</time><name>PT10170</name></trkpt>
<trkpt lat="52.861213" lon="-3.381768"><ele>555</ele><time>2020-01-18T13:21:56Z</time><name>PT10171</name></trkpt>
<trkpt lat="52.861205" lon="-3.381759"><ele>555</ele><time>2020-01-18T13:21:57Z</time><name>PT10172</name></trkpt>
<trkpt lat="52.861196" lon="-3.381747"><ele>555</ele><time>2020-01-18T13:21:59Z</time><name>PT10173</name></trkpt>
<trkpt lat="52.861189" lon="-3.381737"><ele>554</ele><time>2020-01-18T13:21:59Z</time><name>PT10174</name></trkpt>
<trkpt lat="52.861179" lon="-3.381724"><ele>555</ele><time>2020-01-18T13:22:01Z</time><name>PT10175</name></trkpt>
<trkpt lat="52.861170" lon="-3.381719"><ele>555</ele><time>2020-01-18T13:22:02Z</time><name>PT10176</name></trkpt>
<trkpt lat="52.861161" lon="-3.381713"><ele>554</ele><time>2020-01-18T13:22:03Z</time><name>PT10177</name></trkpt>
<trkpt lat="52.861153" lon="-3.381707"><ele>554</ele><time>2020-01-18T13:22:04Z</time><name>PT10178</name></trkpt>
<trkpt lat="52.861145" lon="-3.381699"><ele>554</ele><time>2020-01-18T13:22:05Z</time><name>PT10179</name></trkpt>
<trkpt lat="52.861139" lon="-3.381693"><ele>554</ele><time>2020-01-18T13:22:05Z</time><name>PT10180</name></trkpt>
<trkpt lat="52.861131" lon="-3.381686"><ele>553</ele><time>2020-01-18T13:22:06Z</time><name>PT10181</name></trkpt>
<trkpt lat="52.861124" lon="-3.381683"><ele>553</ele><time>2020-01-18T13:22:08Z</time><name>PT10182</name></trkpt>
<trkpt lat="52.861116" lon="-3.381677"><ele>553</ele><time>2020-01-18T13:22:08Z</time><name>PT10183</name></trkpt>
<trkpt lat="52.861107" lon="-3.381669"><ele>553</ele><time>2020-01-18T13:22:09Z</time><name>PT10184</name></trkpt>
<trkpt lat="52.861099" lon="-3.381666"><ele>553</ele><time>2020-01-18T13:22:11Z</time><name>PT10185</name></trkpt>
<trkpt lat="52.861091" lon="-3.381660"><ele>553</ele><time>2020-01-18T13:22:11Z</time><name>PT10186</name></trkpt>
<trkpt lat="52.861082" lon="-3.381652"><ele>552</ele><time>2020-01-18T13:22:12Z</time><name>PT10187</name></trkpt>
<trkpt lat="52.861075" lon="-3.381638"><ele>553</ele><time>2020-01-18T13:22:14Z</time><name>PT10188</name></trkpt>
<trkpt lat="52.861066" lon="-3.381630"><ele>553</ele><time>2020-01-18T13:22:14Z</time><name>PT10189</name></trkpt>
<trkpt lat="52.861055" lon="-3.381620"><ele>553</ele><time>2020-01-18T13:22:15Z</time><name>PT10190</name></trkpt>
<trkpt lat="52.861044" lon="-3.381611"><ele>553</ele><time>2020-01-18T13:22:17Z</time><name>PT10191</name></trkpt>
<trkpt lat="52.861034" lon="-3.381603"><ele>552</ele><time>2020-01-18T13:22:17Z</time><name>PT10192</name></trkpt>
<trkpt lat="52.861024" lon="-3.381589"><ele>553</ele><time>2020-01-18T13:22:18Z</time><name>PT10193</name></trkpt>
<trkpt lat="52.861013" lon="-3.381584"><ele>552</ele><time>2020-01-18T13:22:20Z</time><name>PT10194</name></trkpt>
<trkpt lat="52.861002" lon="-3.381576"><ele>552</ele><time>2020-01-18T13:22:20Z</time><name>PT10195</name></trkpt>
<trkpt lat="52.860991" lon="-3.381567"><ele>552</ele><time>2020-01-18T13:22:21Z</time><name>PT10196</name></trkpt>
<trkpt lat="52.860981" lon="-3.381554"><ele>552</ele><time>2020-01-18T13:22:23Z</time><name>PT10197</name></trkpt>
<trkpt lat="52.860971" lon="-3.381537"><ele>552</ele><time>2020-01-18T13:22:23Z</time><name>PT10198</name></trkpt>
<trkpt lat="52.860961" lon="-3.381526"><ele>552</ele><time>2020-01-18T13:22:24Z</time><name>PT10199</name></trkpt>
<trkpt lat="52.860950" lon="-3.381507"><ele>552</ele><time>2020-01-18T13:22:26Z</time><name>PT10200</name></trkpt>
<trkpt lat="52.860938" lon="-3.381492"><ele>552</ele><time>2020-01-18T13:22:26Z</time><name>PT10201</name></trkpt>
<trkpt lat="52.860926" lon="-3.381480"><ele>552</ele><time>2020-01-18T13:22:27Z</time><name>PT10202</name></trkpt>
<trkpt lat="52.860916" lon="-3.381472"><ele>551</ele><time>2020-01-18T13:22:29Z</time><name>PT10203</name></trkpt>
<trkpt lat="52.860904" lon="-3.381461"><ele>551</ele><time>2020-01-18T13:22:29Z</time><name>PT10204</name></trkpt>
<trkpt lat="52.860893" lon="-3.381452"><ele>551</ele><time>2020-01-18T13:22:30Z</time><name>PT10205</name></trkpt>
<trkpt lat="52.860882" lon="-3.381440"><ele>551</ele><time>2020-01-18T13:22:32Z</time><name>PT10206</name></trkpt>
<trkpt lat="52.860872" lon="-3.381428"><ele>550</ele><time>2020-01-18T13:22:32Z</time><name>PT10207</name></trkpt>
<trkpt lat="52.860863" lon="-3.381421"><ele>550</ele><time>2020-01-18T13:22:33Z</time><name>PT10208</name></trkpt>
<trkpt lat="52.860853" lon="-3.381407"><ele>550</ele><time>2020-01-18T13:22:35Z</time><name>PT10209</name></trkpt>
<trkpt lat="52.860843" lon="-3.381398"><ele>549</ele><time>2020-01-18T13:22:35Z</time><name>PT10210</name></trkpt>
<trkpt lat="52.860833" lon="-3.381387"><ele>549</ele><time>2020-01-18T13:22:36Z</time><name>PT10211</name></trkpt>
<trkpt lat="52.860824" lon="-3.381381"><ele>549</ele><time>2020-01-18T13:22:38Z</time><name>PT10212</name></trkpt>
<trkpt lat="52.860813" lon="-3.381371"><ele>549</ele><time>2020-01-18T13:22:38Z</time><name>PT10213</name></trkpt>
<trkpt lat="52.860801" lon="-3.381364"><ele>549</ele><time>2020-01-18T13:22:39Z</time><name>PT10214</name></trkpt>
<trkpt lat="52.860792" lon="-3.381359"><ele>549</ele><time>2020-01-18T13:22:41Z</time><name>PT10215</name></trkpt>
<trkpt lat="52.860782" lon="-3.381350"><ele>549</ele><time>2020-01-18T13:22:41Z</time><name>PT10216</name></trkpt>
<trkpt lat="52.860772" lon="-3.381343"><ele>548</ele><time>2020-01-18T13:22:42Z</time><name>PT10217</name></trkpt>
<trkpt lat="52.860761" lon="-3.381339"><ele>548</ele><time>2020-01-18T13:22:44Z</time><name>PT10218</name></trkpt>
<trkpt lat="52.860751" lon="-3.381343"><ele>547</ele><time>2020-01-18T13:22:44Z</time><name>PT10219</name></trkpt>
<trkpt lat="52.860742" lon="-3.381341"><ele>547</ele><time>2020-01-18T13:22:45Z</time><name>PT10220</name></trkpt>
<trkpt lat="52.860731" lon="-3.381336"><ele>547</ele><time>2020-01-18T13:22:47Z</time><name>PT10221</name></trkpt>
<trkpt lat="52.860722" lon="-3.381333"><ele>547</ele><time>2020-01-18T13:22:47Z</time><name>PT10222</name></trkpt>
<trkpt lat="52.860713" lon="-3.381330"><ele>546</ele><time>2020-01-18T13:22:48Z</time><name>PT10223</name></trkpt>
<trkpt lat="52.860704" lon="-3.381326"><ele>546</ele><time>2020-01-18T13:22:50Z</time><name>PT10224</name></trkpt>
<trkpt lat="52.860694" lon="-3.381326"><ele>546</ele><time>2020-01-18T13:22:50Z</time><name>PT10225</name></trkpt>
<trkpt lat="52.860686" lon="-3.381319"><ele>546</ele><time>2020-01-18T13:22:51Z</time><name>PT10226</name></trkpt>
<trkpt lat="52.860679" lon="-3.381312"><ele>546</ele><time>2020-01-18T13:22:53Z</time><name>PT10227</name></trkpt>
<trkpt lat="52.860672" lon="-3.381305"><ele>546</ele><time>2020-01-18T13:22:53Z</time><name>PT10228</name></trkpt>
<trkpt lat="52.860664" lon="-3.381293"><ele>546</ele><time>2020-01-18T13:22:54Z</time><name>PT10229</name></trkpt>
<trkpt lat="52.860657" lon="-3.381282"><ele>546</ele><time>2020-01-18T13:22:56Z</time><name>PT10230</name></trkpt>
<trkpt lat="52.860649" lon="-3.381278"><ele>545</ele><time>2020-01-18T13:22:56Z</time><name>PT10231</name></trkpt>
<trkpt lat="52.860643" lon="-3.381280"><ele>545</ele><time>2020-01-18T13:22:57Z</time><name>PT10232</name></trkpt>
<trkpt lat="52.860638" lon="-3.381279"><ele>545</ele><time>2020-01-18T13:22:59Z</time><name>PT10233</name></trkpt>
<trkpt lat="52.860636" lon="-3.381277"><ele>545</ele><time>2020-01-18T13:22:59Z</time><name>PT10234</name></trkpt>
<trkpt lat="52.860635" lon="-3.381278"><ele>544</ele><time>2020-01-18T13:23:00Z</time><name>PT10235</name></trkpt>
<trkpt lat="52.860634" lon="-3.381275"><ele>544</ele><time>2020-01-18T13:23:02Z</time><name>PT10236</name></trkpt>
<trkpt lat="52.860636" lon="-3.381274"><ele>544</ele><time>2020-01-18T13:23:20Z</time><name>PT10237</name></trkpt>
<trkpt lat="52.860636" lon="-3.381272"><ele>544</ele><time>2020-01-18T13:23:20Z</time><name>PT10238</name></trkpt>
<trkpt lat="52.860633" lon="-3.381264"><ele>543</ele><time>2020-01-18T13:23:21Z</time><name>PT10239</name></trkpt>
<trkpt lat="52.860630" lon="-3.381260"><ele>543</ele><time>2020-01-18T13:23:23Z</time><name>PT10240</name></trkpt>
<trkpt lat="52.860627" lon="-3.381251"><ele>543</ele><time>2020-01-18T13:23:23Z</time><name>PT10241</name></trkpt>
<trkpt lat="52.860621" lon="-3.381240"><ele>542</ele><time>2020-01-18T13:23:24Z</time><name>PT10242</name></trkpt>
<trkpt lat="52.860613" lon="-3.381234"><ele>542</ele><time>2020-01-18T13:23:26Z</time><name>PT10243</name></trkpt>
<trkpt lat="52.860605" lon="-3.381224"><ele>542</ele><time>2020-01-18T13:23:26Z</time><name>PT10244</name></trkpt>
<trkpt lat="52.860595" lon="-3.381209"><ele>542</ele><time>2020-01-18T13:23:28Z</time><name>PT10245</name></trkpt>
<trkpt lat="52.860588" lon="-3.381201"><ele>542</ele><time>2020-01-18T13:23:29Z</time><name>PT10246</name></trkpt>
<trkpt lat="52.860578" lon="-3.381189"><ele>542</ele><time>2020-01-18T13:23:29Z</time><name>PT10247</name></trkpt>
<trkpt lat="52.860571" lon="-3.381179"><ele>542</ele><time>2020-01-18T13:23:30Z</time><name>PT10248</name></trkpt>
<trkpt lat="52.860564" lon="-3.381170"><ele>542</ele><time>2020-01-18T13:23:32Z</time><name>PT10249</name></trkpt>
<trkpt lat="52.860556" lon="-3.381162"><ele>541</ele><time>2020-01-18T13:23:32Z</time><name>PT10250</name></trkpt>
<trkpt lat="52.860549" lon="-3.381154"><ele>542</ele><time>2020-01-18T13:23:33Z</time><name>PT10251</name></trkpt>
<trkpt lat="52.860543" lon="-3.381148"><ele>542</ele><time>2020-01-18T13:23:35Z</time><name>PT10252</name></trkpt>
<trkpt lat="52.860534" lon="-3.381138"><ele>543</ele><time>2020-01-18T13:23:35Z</time><name>PT10253</name></trkpt>
<trkpt lat="52.860524" lon="-3.381132"><ele>542</ele><time>2020-01-18T13:23:36Z</time><name>PT10254</name></trkpt>
<trkpt lat="52.860520" lon="-3.381121"><ele>542</ele><time>2020-01-18T13:23:38Z</time><name>PT10255</name></trkpt>
<trkpt lat="52.860514" lon="-3.381115"><ele>542</ele><time>2020-01-18T13:23:38Z</time><name>PT10256</name></trkpt>
<trkpt lat="52.860506" lon="-3.381104"><ele>542</ele><time>2020-01-18T13:23:39Z</time><name>PT10257</name></trkpt>
<trkpt lat="52.860499" lon="-3.381101"><ele>542</ele><time>2020-01-18T13:23:41Z</time><name>PT10258</name></trkpt>
<trkpt lat="52.860493" lon="-3.381090"><ele>542</ele><time>2020-01-18T13:23:41Z</time><name>PT10259</name></trkpt>
<trkpt lat="52.860486" lon="-3.381076"><ele>542</ele><time>2020-01-18T13:23:42Z</time><name>PT10260</name></trkpt>
<trkpt lat="52.860478" lon="-3.381063"><ele>542</ele><time>2020-01-18T13:23:44Z</time><name>PT10261</name></trkpt>
<trkpt lat="52.860468" lon="-3.381048"><ele>542</ele><time>2020-01-18T13:23:44Z</time><name>PT10262</name></trkpt>
<trkpt lat="52.860459" lon="-3.381035"><ele>542</ele><time>2020-01-18T13:23:45Z</time><name>PT10263</name></trkpt>
<trkpt lat="52.860450" lon="-3.381025"><ele>542</ele><time>2020-01-18T13:23:47Z</time><name>PT10264</name></trkpt>
<trkpt lat="52.860440" lon="-3.381019"><ele>542</ele><time>2020-01-18T13:23:47Z</time><name>PT10265</name></trkpt>
<trkpt lat="52.860429" lon="-3.381011"><ele>542</ele><time>2020-01-18T13:23:48Z</time><name>PT10266</name></trkpt>
<trkpt lat="52.860419" lon="-3.381002"><ele>542</ele><time>2020-01-18T13:23:50Z</time><name>PT10267</name></trkpt>
<trkpt lat="52.860409" lon="-3.380992"><ele>542</ele><time>2020-01-18T13:23:50Z</time><name>PT10268</name></trkpt>
<trkpt lat="52.860400" lon="-3.380979"><ele>543</ele><time>2020-01-18T13:23:51Z</time><name>PT10269</name></trkpt>
<trkpt lat="52.860391" lon="-3.380971"><ele>543</ele><time>2020-01-18T13:23:53Z</time><name>PT10270</name></trkpt>
<trkpt lat="52.860381" lon="-3.380959"><ele>543</ele><time>2020-01-18T13:23:53Z</time><name>PT10271</name></trkpt>
<trkpt lat="52.860370" lon="-3.380947"><ele>543</ele><time>2020-01-18T13:23:54Z</time><name>PT10272</name></trkpt>
<trkpt lat="52.860360" lon="-3.380932"><ele>543</ele><time>2020-01-18T13:23:56Z</time><name>PT10273</name></trkpt>
<trkpt lat="52.860349" lon="-3.380918"><ele>543</ele><time>2020-01-18T13:23:56Z</time><name>PT10274</name></trkpt>
<trkpt lat="52.860338" lon="-3.380908"><ele>543</ele><time>2020-01-18T13:23:57Z</time><name>PT10275</name></trkpt>
<trkpt lat="52.860328" lon="-3.380903"><ele>543</ele><time>2020-01-18T13:23:59Z</time><name>PT10276</name></trkpt>
<trkpt lat="52.860317" lon="-3.380895"><ele>543</ele><time>2020-01-18T13:23:59Z</time><name>PT10277</name></trkpt>
<trkpt lat="52.860305" lon="-3.380891"><ele>543</ele><time>2020-01-18T13:24:00Z</time><name>PT10278</name></trkpt>
<trkpt lat="52.860294" lon="-3.380884"><ele>543</ele><time>2020-01-18T13:24:02Z</time><name>PT10279</name></trkpt>
<trkpt lat="52.860283" lon="-3.380872"><ele>543</ele><time>2020-01-18T13:24:02Z</time><name>PT10280</name></trkpt>
<trkpt lat="52.860273" lon="-3.380862"><ele>543</ele><time>2020-01-18T13:24:03Z</time><name>PT10281</name></trkpt>
<trkpt lat="52.860264" lon="-3.380853"><ele>542</ele><time>2020-01-18T13:24:05Z</time><name>PT10282</name></trkpt>
<trkpt lat="52.860254" lon="-3.380842"><ele>543</ele><time>2020-01-18T13:24:05Z</time><name>PT10283</name></trkpt>
<trkpt lat="52.860243" lon="-3.380835"><ele>543</ele><time>2020-01-18T13:24:06Z</time><name>PT10284</name></trkpt>
<trkpt lat="52.860233" lon="-3.380830"><ele>542</ele><time>2020-01-18T13:24:08Z</time><name>PT10285</name></trkpt>
<trkpt lat="52.860221" lon="-3.380821"><ele>542</ele><time>2020-01-18T13:24:08Z</time><name>PT10286</name></trkpt>
<trkpt lat="52.860208" lon="-3.380808"><ele>542</ele><time>2020-01-18T13:24:09Z</time><name>PT10287</name></trkpt>
<trkpt lat="52.860197" lon="-3.380801"><ele>542</ele><time>2020-01-18T13:24:11Z</time><name>PT10288</name></trkpt>
<trkpt lat="52.860187" lon="-3.380795"><ele>542</ele><time>2020-01-18T13:24:11Z</time><name>PT10289</name></trkpt>
<trkpt lat="52.860178" lon="-3.380787"><ele>541</ele><time>2020-01-18T13:24:12Z</time><name>PT10290</name></trkpt>
<trkpt lat="52.860171" lon="-3.380783"><ele>541</ele><time>2020-01-18T13:24:14Z</time><name>PT10291</name></trkpt>
<trkpt lat="52.860169" lon="-3.380783"><ele>541</ele><time>2020-01-18T13:24:14Z</time><name>PT10292</name></trkpt>
<trkpt lat="52.860164" lon="-3.380776"><ele>541</ele><time>2020-01-18T13:24:15Z</time><name>PT10293</name></trkpt>
<trkpt lat="52.860153" lon="-3.380770"><ele>541</ele><time>2020-01-18T13:24:17Z</time><name>PT10294</name></trkpt>
<trkpt lat="52.860147" lon="-3.380768"><ele>541</ele><time>2020-01-18T13:24:17Z</time><name>PT10295</name></trkpt>
<trkpt lat="52.860144" lon="-3.380765"><ele>541</ele><time>2020-01-18T13:24:18Z</time><name>PT10296</name></trkpt>
<trkpt lat="52.860141" lon="-3.380754"><ele>541</ele><time>2020-01-18T13:24:20Z</time><name>PT10297</name></trkpt>
<trkpt lat="52.860137" lon="-3.380744"><ele>541</ele><time>2020-01-18T13:24:20Z</time><name>PT10298</name></trkpt>
<trkpt lat="52.860129" lon="-3.380732"><ele>541</ele><time>2020-01-18T13:24:21Z</time><name>PT10299</name></trkpt>
<trkpt lat="52.860118" lon="-3.380722"><ele>541</ele><time>2020-01-18T13:24:23Z</time><name>PT10300</name></trkpt>
<trkpt lat="52.860109" lon="-3.380710"><ele>541</ele><time>2020-01-18T13:24:23Z</time><name>PT10301</name></trkpt>
<trkpt lat="52.860098" lon="-3.380702"><ele>541</ele><time>2020-01-18T13:24:24Z</time><name>PT10302</name></trkpt>
<trkpt lat="52.860085" lon="-3.380690"><ele>540</ele><time>2020-01-18T13:24:26Z</time><name>PT10303</name></trkpt>
<trkpt lat="52.860075" lon="-3.380679"><ele>540</ele><time>2020-01-18T13:24:26Z</time><name>PT10304</name></trkpt>
<trkpt lat="52.860064" lon="-3.380664"><ele>540</ele><time>2020-01-18T13:24:27Z</time><name>PT10305</name></trkpt>
<trkpt lat="52.860052" lon="-3.380650"><ele>539</ele><time>2020-01-18T13:24:29Z</time><name>PT10306</name></trkpt>
<trkpt lat="52.860039" lon="-3.380637"><ele>539</ele><time>2020-01-18T13:24:29Z</time><name>PT10307</name></trkpt>
<trkpt lat="52.860027" lon="-3.380626"><ele>539</ele><time>2020-01-18T13:24:30Z</time><name>PT10308</name></trkpt>
<trkpt lat="52.860016" lon="-3.380615"><ele>538</ele><time>2020-01-18T13:24:32Z</time><name>PT10309</name></trkpt>
<trkpt lat="52.860004" lon="-3.380600"><ele>539</ele><time>2020-01-18T13:24:32Z</time><name>PT10310</name></trkpt>
<trkpt lat="52.859995" lon="-3.380594"><ele>538</ele><time>2020-01-18T13:24:33Z</time><name>PT10311</name></trkpt>
<trkpt lat="52.859984" lon="-3.380583"><ele>538</ele><time>2020-01-18T13:24:35Z</time><name>PT10312</name></trkpt>
<trkpt lat="52.859974" lon="-3.380572"><ele>538</ele><time>2020-01-18T13:24:35Z</time><name>PT10313</name></trkpt>
<trkpt lat="52.859962" lon="-3.380559"><ele>538</ele><time>2020-01-18T13:24:36Z</time><name>PT10314</name></trkpt>
<trkpt lat="52.859949" lon="-3.380550"><ele>537</ele><time>2020-01-18T13:24:38Z</time><name>PT10315</name></trkpt>
<trkpt lat="52.859937" lon="-3.380547"><ele>537</ele><time>2020-01-18T13:24:38Z</time><name>PT10316</name></trkpt>
<trkpt lat="52.859925" lon="-3.380538"><ele>537</ele><time>2020-01-18T13:24:39Z</time><name>PT10317</name></trkpt>
<trkpt lat="52.859914" lon="-3.380531"><ele>537</ele><time>2020-01-18T13:24:41Z</time><name>PT10318</name></trkpt>
<trkpt lat="52.859905" lon="-3.380523"><ele>537</ele><time>2020-01-18T13:24:41Z</time><name>PT10319</name></trkpt>
<trkpt lat="52.859898" lon="-3.380523"><ele>536</ele><time>2020-01-18T13:24:42Z</time><name>PT10320</name></trkpt>
<trkpt lat="52.859888" lon="-3.380517"><ele>536</ele><time>2020-01-18T13:24:44Z</time><name>PT10321</name></trkpt>
<trkpt lat="52.859877" lon="-3.380510"><ele>536</ele><time>2020-01-18T13:24:44Z</time><name>PT10322</name></trkpt>
<trkpt lat="52.859870" lon="-3.380505"><ele>536</ele><time>2020-01-18T13:24:45Z</time><name>PT10323</name></trkpt>
<trkpt lat="52.859867" lon="-3.380501"><ele>536</ele><time>2020-01-18T13:24:47Z</time><name>PT10324</name></trkpt>
<trkpt lat="52.859865" lon="-3.380497"><ele>536</ele><time>2020-01-18T13:24:47Z</time><name>PT10325</name></trkpt>
<trkpt lat="52.859858" lon="-3.380486"><ele>536</ele><time>2020-01-18T13:24:48Z</time><name>PT10326</name></trkpt>
<trkpt lat="52.859849" lon="-3.380478"><ele>536</ele><time>2020-01-18T13:24:50Z</time><name>PT10327</name></trkpt>
<trkpt lat="52.859837" lon="-3.380472"><ele>536</ele><time>2020-01-18T13:24:50Z</time><name>PT10328</name></trkpt>
<trkpt lat="52.859824" lon="-3.380468"><ele>535</ele><time>2020-01-18T13:24:51Z</time><name>PT10329</name></trkpt>
<trkpt lat="52.859810" lon="-3.380461"><ele>535</ele><time>2020-01-18T13:24:53Z</time><name>PT10330</name></trkpt>
<trkpt lat="52.859799" lon="-3.380459"><ele>535</ele><time>2020-01-18T13:24:53Z</time><name>PT10331</name></trkpt>
<trkpt lat="52.859788" lon="-3.380458"><ele>534</ele><time>2020-01-18T13:24:54Z</time><name>PT10332</name></trkpt>
<trkpt lat="52.859776" lon="-3.380458"><ele>534</ele><time>2020-01-18T13:24:56Z</time><name>PT10333</name></trkpt>
<trkpt lat="52.859763" lon="-3.380459"><ele>534</ele><time>2020-01-18T13:24:56Z</time><name>PT10334</name></trkpt>
<trkpt lat="52.859749" lon="-3.380458"><ele>534</ele><time>2020-01-18T13:24:57Z</time><name>PT10335</name></trkpt>
<trkpt lat="52.859737" lon="-3.380452"><ele>533</ele><time>2020-01-18T13:24:59Z</time><name>PT10336</name></trkpt>
<trkpt lat="52.859724" lon="-3.380445"><ele>533</ele><time>2020-01-18T13:24:59Z</time><name>PT10337</name></trkpt>
<trkpt lat="52.859711" lon="-3.380443"><ele>533</ele><time>2020-01-18T13:25:00Z</time><name>PT10338</name></trkpt>
<trkpt lat="52.859698" lon="-3.380439"><ele>533</ele><time>2020-01-18T13:25:02Z</time><name>PT10339</name></trkpt>
<trkpt lat="52.859687" lon="-3.380438"><ele>533</ele><time>2020-01-18T13:25:02Z</time><name>PT10340</name></trkpt>
<trkpt lat="52.859677" lon="-3.380433"><ele>533</ele><time>2020-01-18T13:25:03Z</time><name>PT10341</name></trkpt>
<trkpt lat="52.859665" lon="-3.380422"><ele>533</ele><time>2020-01-18T13:25:05Z</time><name>PT10342</name></trkpt>
<trkpt lat="52.859653" lon="-3.380415"><ele>533</ele><time>2020-01-18T13:25:05Z</time><name>PT10343</name></trkpt>
<trkpt lat="52.859642" lon="-3.380412"><ele>533</ele><time>2020-01-18T13:25:06Z</time><name>PT10344</name></trkpt>
<trkpt lat="52.859633" lon="-3.380407"><ele>532</ele><time>2020-01-18T13:25:08Z</time><name>PT10345</name></trkpt>
<trkpt lat="52.859625" lon="-3.380403"><ele>532</ele><time>2020-01-18T13:25:08Z</time><name>PT10346</name></trkpt>
<trkpt lat="52.859618" lon="-3.380402"><ele>532</ele><time>2020-01-18T13:25:09Z</time><name>PT10347</name></trkpt>
<trkpt lat="52.859610" lon="-3.380401"><ele>531</ele><time>2020-01-18T13:25:11Z</time><name>PT10348</name></trkpt>
<trkpt lat="52.859601" lon="-3.380396"><ele>531</ele><time>2020-01-18T13:25:11Z</time><name>PT10349</name></trkpt>
<trkpt lat="52.859594" lon="-3.380389"><ele>532</ele><time>2020-01-18T13:25:12Z</time><name>PT10350</name></trkpt>
<trkpt lat="52.859588" lon="-3.380386"><ele>531</ele><time>2020-01-18T13:25:14Z</time><name>PT10351</name></trkpt>
<trkpt lat="52.859582" lon="-3.380378"><ele>531</ele><time>2020-01-18T13:25:14Z</time><name>PT10352</name></trkpt>
<trkpt lat="52.859573" lon="-3.380372"><ele>531</ele><time>2020-01-18T13:25:15Z</time><name>PT10353</name></trkpt>
<trkpt lat="52.859565" lon="-3.380367"><ele>531</ele><time>2020-01-18T13:25:17Z</time><name>PT10354</name></trkpt>
<trkpt lat="52.859558" lon="-3.380359"><ele>531</ele><time>2020-01-18T13:25:17Z</time><name>PT10355</name></trkpt>
<trkpt lat="52.859547" lon="-3.380357"><ele>531</ele><time>2020-01-18T13:25:18Z</time><name>PT10356</name></trkpt>
<trkpt lat="52.859537" lon="-3.380359"><ele>531</ele><time>2020-01-18T13:25:20Z</time><name>PT10357</name></trkpt>
<trkpt lat="52.859530" lon="-3.380366"><ele>530</ele><time>2020-01-18T13:25:20Z</time><name>PT10358</name></trkpt>
<trkpt lat="52.859522" lon="-3.380377"><ele>530</ele><time>2020-01-18T13:25:21Z</time><name>PT10359</name></trkpt>
<trkpt lat="52.859517" lon="-3.380383"><ele>530</ele><time>2020-01-18T13:25:23Z</time><name>PT10360</name></trkpt>
<trkpt lat="52.859509" lon="-3.380391"><ele>530</ele><time>2020-01-18T13:25:23Z</time><name>PT10361</name></trkpt>
<trkpt lat="52.859502" lon="-3.380395"><ele>529</ele><time>2020-01-18T13:25:24Z</time><name>PT10362</name></trkpt>
<trkpt lat="52.859492" lon="-3.380392"><ele>529</ele><time>2020-01-18T13:25:26Z</time><name>PT10363</name></trkpt>
<trkpt lat="52.859483" lon="-3.380384"><ele>530</ele><time>2020-01-18T13:25:26Z</time><name>PT10364</name></trkpt>
<trkpt lat="52.859470" lon="-3.380372"><ele>530</ele><time>2020-01-18T13:25:27Z</time><name>PT10365</name></trkpt>
<trkpt lat="52.859460" lon="-3.380361"><ele>530</ele><time>2020-01-18T13:25:29Z</time><name>PT10366</name></trkpt>
<trkpt lat="52.859452" lon="-3.380357"><ele>530</ele><time>2020-01-18T13:25:29Z</time><name>PT10367</name></trkpt>
<trkpt lat="52.859446" lon="-3.380356"><ele>530</ele><time>2020-01-18T13:25:30Z</time><name>PT10368</name></trkpt>
<trkpt lat="52.859439" lon="-3.380356"><ele>529</ele><time>2020-01-18T13:25:32Z</time><name>PT10369</name></trkpt>
<trkpt lat="52.859431" lon="-3.380357"><ele>529</ele><time>2020-01-18T13:25:32Z</time><name>PT10370</name></trkpt>
<trkpt lat="52.859420" lon="-3.380355"><ele>529</ele><time>2020-01-18T13:25:34Z</time><name>PT10371</name></trkpt>
<trkpt lat="52.859408" lon="-3.380354"><ele>529</ele><time>2020-01-18T13:25:35Z</time><name>PT10372</name></trkpt>
<trkpt lat="52.859398" lon="-3.380355"><ele>528</ele><time>2020-01-18T13:25:35Z</time><name>PT10373</name></trkpt>
<trkpt lat="52.859391" lon="-3.380355"><ele>528</ele><time>2020-01-18T13:25:36Z</time><name>PT10374</name></trkpt>
<trkpt lat="52.859383" lon="-3.380360"><ele>528</ele><time>2020-01-18T13:25:38Z</time><name>PT10375</name></trkpt>
<trkpt lat="52.859375" lon="-3.380359"><ele>528</ele><time>2020-01-18T13:25:38Z</time><name>PT10376</name></trkpt>
<trkpt lat="52.859367" lon="-3.380359"><ele>527</ele><time>2020-01-18T13:25:39Z</time><name>PT10377</name></trkpt>
<trkpt lat="52.859356" lon="-3.380352"><ele>528</ele><time>2020-01-18T13:25:41Z</time><name>PT10378</name></trkpt>
<trkpt lat="52.859345" lon="-3.380349"><ele>527</ele><time>2020-01-18T13:25:41Z</time><name>PT10379</name></trkpt>
<trkpt lat="52.859335" lon="-3.380346"><ele>527</ele><time>2020-01-18T13:25:42Z</time><name>PT10380</name></trkpt>
<trkpt lat="52.859326" lon="-3.380338"><ele>527</ele><time>2020-01-18T13:25:44Z</time><name>PT10381</name></trkpt>
<trkpt lat="52.859315" lon="-3.380331"><ele>527</ele><time>2020-01-18T13:25:44Z</time><name>PT10382</name></trkpt>
<trkpt lat="52.859305" lon="-3.380329"><ele>527</ele><time>2020-01-18T13:25:45Z</time><name>PT10383</name></trkpt>
<trkpt lat="52.859294" lon="-3.380332"><ele>526</ele><time>2020-01-18T13:25:47Z</time><name>PT10384</name></trkpt>
<trkpt lat="52.859283" lon="-3.380333"><ele>526</ele><time>2020-01-18T13:25:47Z</time><name>PT10385</name></trkpt>
<trkpt lat="52.859272" lon="-3.380331"><ele>526</ele><time>2020-01-18T13:25:48Z</time><name>PT10386</name></trkpt>
<trkpt lat="52.859262" lon="-3.380330"><ele>526</ele><time>2020-01-18T13:25:50Z</time><name>PT10387</name></trkpt>
<trkpt lat="52.859250" lon="-3.380325"><ele>526</ele><time>2020-01-18T13:25:50Z</time><name>PT10388</name></trkpt>
<trkpt lat="52.859240" lon="-3.380322"><ele>526</ele><time>2020-01-18T13:25:51Z</time><name>PT10389</name></trkpt>
<trkpt lat="52.859228" lon="-3.380324"><ele>526</ele><time>2020-01-18T13:25:53Z</time><name>PT10390</name></trkpt>
<trkpt lat="52.859218" lon="-3.380330"><ele>525</ele><time>2020-01-18T13:25:53Z</time><name>PT10391</name></trkpt>
<trkpt lat="52.859210" lon="-3.380332"><ele>525</ele><time>2020-01-18T13:25:54Z</time><name>PT10392</name></trkpt>
<trkpt lat="52.859200" lon="-3.380329"><ele>525</ele><time>2020-01-18T13:25:56Z</time><name>PT10393</name></trkpt>
<trkpt lat="52.859189" lon="-3.380326"><ele>524</ele><time>2020-01-18T13:25:56Z</time><name>PT10394</name></trkpt>
<trkpt lat="52.859179" lon="-3.380317"><ele>524</ele><time>2020-01-18T13:25:57Z</time><name>PT10395</name></trkpt>
<trkpt lat="52.859169" lon="-3.380318"><ele>524</ele><time>2020-01-18T13:25:59Z</time><name>PT10396</name></trkpt>
<trkpt lat="52.859155" lon="-3.380314"><ele>524</ele><time>2020-01-18T13:25:59Z</time><name>PT10397</name></trkpt>
<trkpt lat="52.859143" lon="-3.380317"><ele>524</ele><time>2020-01-18T13:26:00Z</time><name>PT10398</name></trkpt>
<trkpt lat="52.859133" lon="-3.380317"><ele>524</ele><time>2020-01-18T13:26:02Z</time><name>PT10399</name></trkpt>
<trkpt lat="52.859125" lon="-3.380322"><ele>524</ele><time>2020-01-18T13:26:02Z</time><name>PT10400</name></trkpt>
<trkpt lat="52.859115" lon="-3.380321"><ele>524</ele><time>2020-01-18T13:26:03Z</time><name>PT10401</name></trkpt>
<trkpt lat="52.859106" lon="-3.380321"><ele>523</ele><time>2020-01-18T13:26:05Z</time><name>PT10402</name></trkpt>
<trkpt lat="52.859103" lon="-3.380319"><ele>523</ele><time>2020-01-18T13:26:05Z</time><name>PT10403</name></trkpt>
<trkpt lat="52.859098" lon="-3.380318"><ele>523</ele><time>2020-01-18T13:26:06Z</time><name>PT10404</name></trkpt>
<trkpt lat="52.859088" lon="-3.380324"><ele>523</ele><time>2020-01-18T13:26:08Z</time><name>PT10405</name></trkpt>
<trkpt lat="52.859077" lon="-3.380321"><ele>523</ele><time>2020-01-18T13:26:08Z</time><name>PT10406</name></trkpt>
<trkpt lat="52.859065" lon="-3.380315"><ele>523</ele><time>2020-01-18T13:26:09Z</time><name>PT10407</name></trkpt>
<trkpt lat="52.859053" lon="-3.380308"><ele>523</ele><time>2020-01-18T13:26:11Z</time><name>PT10408</name></trkpt>
<trkpt lat="52.859043" lon="-3.380309"><ele>523</ele><time>2020-01-18T13:26:11Z</time><name>PT10409</name></trkpt>
<trkpt lat="52.859033" lon="-3.380309"><ele>523</ele><time>2020-01-18T13:26:12Z</time><name>PT10410</name></trkpt>
<trkpt lat="52.859023" lon="-3.380307"><ele>522</ele><time>2020-01-18T13:26:14Z</time><name>PT10411</name></trkpt>
<trkpt lat="52.859013" lon="-3.380303"><ele>522</ele><time>2020-01-18T13:26:14Z</time><name>PT10412</name></trkpt>
<trkpt lat="52.859004" lon="-3.380305"><ele>522</ele><time>2020-01-18T13:26:15Z</time><name>PT10413</name></trkpt>
<trkpt lat="52.858995" lon="-3.380300"><ele>522</ele><time>2020-01-18T13:26:17Z</time><name>PT10414</name></trkpt>
<trkpt lat="52.858985" lon="-3.380297"><ele>522</ele><time>2020-01-18T13:26:17Z</time><name>PT10415</name></trkpt>
<trkpt lat="52.858977" lon="-3.380297"><ele>522</ele><time>2020-01-18T13:26:18Z</time><name>PT10416</name></trkpt>
<trkpt lat="52.858966" lon="-3.380297"><ele>522</ele><time>2020-01-18T13:26:20Z</time><name>PT10417</name></trkpt>
<trkpt lat="52.858958" lon="-3.380297"><ele>521</ele><time>2020-01-18T13:26:20Z</time><name>PT10418</name></trkpt>
<trkpt lat="52.858949" lon="-3.380300"><ele>521</ele><time>2020-01-18T13:26:21Z</time><name>PT10419</name></trkpt>
<trkpt lat="52.858944" lon="-3.380298"><ele>521</ele><time>2020-01-18T13:26:23Z</time><name>PT10420</name></trkpt>
<trkpt lat="52.858938" lon="-3.380291"><ele>520</ele><time>2020-01-18T13:26:23Z</time><name>PT10421</name></trkpt>
<trkpt lat="52.858932" lon="-3.380288"><ele>520</ele><time>2020-01-18T13:26:24Z</time><name>PT10422</name></trkpt>
<trkpt lat="52.858923" lon="-3.380283"><ele>520</ele><time>2020-01-18T13:26:26Z</time><name>PT10423</name></trkpt>
<trkpt lat="52.858914" lon="-3.380282"><ele>519</ele><time>2020-01-18T13:26:26Z</time><name>PT10424</name></trkpt>
<trkpt lat="52.858903" lon="-3.380276"><ele>519</ele><time>2020-01-18T13:26:27Z</time><name>PT10425</name></trkpt>
<trkpt lat="52.858893" lon="-3.380268"><ele>519</ele><time>2020-01-18T13:26:29Z</time><name>PT10426</name></trkpt>
<trkpt lat="52.858883" lon="-3.380258"><ele>519</ele><time>2020-01-18T13:26:29Z</time><name>PT10427</name></trkpt>
<trkpt lat="52.858876" lon="-3.380250"><ele>518</ele><time>2020-01-18T13:26:30Z</time><name>PT10428</name></trkpt>
<trkpt lat="52.858869" lon="-3.380245"><ele>518</ele><time>2020-01-18T13:26:32Z</time><name>PT10429</name></trkpt>
<trkpt lat="52.858863" lon="-3.380242"><ele>517</ele><time>2020-01-18T13:26:32Z</time><name>PT10430</name></trkpt>
<trkpt lat="52.858854" lon="-3.380238"><ele>517</ele><time>2020-01-18T13:26:33Z</time><name>PT10431</name></trkpt>
<trkpt lat="52.858845" lon="-3.380239"><ele>516</ele><time>2020-01-18T13:26:35Z</time><name>PT10432</name></trkpt>
<trkpt lat="52.858838" lon="-3.380240"><ele>516</ele><time>2020-01-18T13:26:35Z</time><name>PT10433</name></trkpt>
<trkpt lat="52.858831" lon="-3.380242"><ele>516</ele><time>2020-01-18T13:26:36Z</time><name>PT10434</name></trkpt>
<trkpt lat="52.858823" lon="-3.380241"><ele>515</ele><time>2020-01-18T13:26:38Z</time><name>PT10435</name></trkpt>
<trkpt lat="52.858812" lon="-3.380237"><ele>515</ele><time>2020-01-18T13:26:38Z</time><name>PT10436</name></trkpt>
<trkpt lat="52.858803" lon="-3.380236"><ele>515</ele><time>2020-01-18T13:26:40Z</time><name>PT10437</name></trkpt>
<trkpt lat="52.858794" lon="-3.380238"><ele>514</ele><time>2020-01-18T13:26:41Z</time><name>PT10438</name></trkpt>
<trkpt lat="52.858785" lon="-3.380239"><ele>513</ele><time>2020-01-18T13:26:41Z</time><name>PT10439</name></trkpt>
<trkpt lat="52.858778" lon="-3.380228"><ele>513</ele><time>2020-01-18T13:26:42Z</time><name>PT10440</name></trkpt>
<trkpt lat="52.858769" lon="-3.380219"><ele>513</ele><time>2020-01-18T13:26:44Z</time><name>PT10441</name></trkpt>
<trkpt lat="52.858759" lon="-3.380217"><ele>512</ele><time>2020-01-18T13:26:44Z</time><name>PT10442</name></trkpt>
<trkpt lat="52.858748" lon="-3.380213"><ele>512</ele><time>2020-01-18T13:26:45Z</time><name>PT10443</name></trkpt>
<trkpt lat="52.858738" lon="-3.380211"><ele>512</ele><time>2020-01-18T13:26:47Z</time><name>PT10444</name></trkpt>
<trkpt lat="52.858730" lon="-3.380212"><ele>512</ele><time>2020-01-18T13:26:47Z</time><name>PT10445</name></trkpt>
<trkpt lat="52.858719" lon="-3.380215"><ele>511</ele><time>2020-01-18T13:26:48Z</time><name>PT10446</name></trkpt>
<trkpt lat="52.858708" lon="-3.380217"><ele>511</ele><time>2020-01-18T13:26:50Z</time><name>PT10447</name></trkpt>
<trkpt lat="52.858697" lon="-3.380215"><ele>511</ele><time>2020-01-18T13:26:50Z</time><name>PT10448</name></trkpt>
<trkpt lat="52.858686" lon="-3.380213"><ele>510</ele><time>2020-01-18T13:26:51Z</time><name>PT10449</name></trkpt>
<trkpt lat="52.858677" lon="-3.380215"><ele>509</ele><time>2020-01-18T13:26:53Z</time><name>PT10450</name></trkpt>
<trkpt lat="52.858665" lon="-3.380211"><ele>509</ele><time>2020-01-18T13:26:53Z</time><name>PT10451</name></trkpt>
<trkpt lat="52.858654" lon="-3.380207"><ele>508</ele><time>2020-01-18T13:26:54Z</time><name>PT10452</name></trkpt>
<trkpt lat="52.858646" lon="-3.380200"><ele>507</ele><time>2020-01-18T13:26:56Z</time><name>PT10453</name></trkpt>
<trkpt lat="52.858640" lon="-3.380182"><ele>507</ele><time>2020-01-18T13:26:56Z</time><name>PT10454</name></trkpt>
<trkpt lat="52.858633" lon="-3.380164"><ele>507</ele><time>2020-01-18T13:26:57Z</time><name>PT10455</name></trkpt>
<trkpt lat="52.858625" lon="-3.380149"><ele>507</ele><time>2020-01-18T13:26:59Z</time><name>PT10456</name></trkpt>
<trkpt lat="52.858617" lon="-3.380133"><ele>507</ele><time>2020-01-18T13:26:59Z</time><name>PT10457</name></trkpt>
<trkpt lat="52.858608" lon="-3.380128"><ele>507</ele><time>2020-01-18T13:27:00Z</time><name>PT10458</name></trkpt>
<trkpt lat="52.858599" lon="-3.380121"><ele>507</ele><time>2020-01-18T13:27:02Z</time><name>PT10459</name></trkpt>
<trkpt lat="52.858590" lon="-3.380108"><ele>506</ele><time>2020-01-18T13:27:02Z</time><name>PT10460</name></trkpt>
<trkpt lat="52.858583" lon="-3.380097"><ele>506</ele><time>2020-01-18T13:27:03Z</time><name>PT10461</name></trkpt>
<trkpt lat="52.858576" lon="-3.380089"><ele>506</ele><time>2020-01-18T13:27:05Z</time><name>PT10462</name></trkpt>
<trkpt lat="52.858569" lon="-3.380085"><ele>505</ele><time>2020-01-18T13:27:05Z</time><name>PT10463</name></trkpt>
<trkpt lat="52.858562" lon="-3.380074"><ele>505</ele><time>2020-01-18T13:27:06Z</time><name>PT10464</name></trkpt>
<trkpt lat="52.858556" lon="-3.380070"><ele>505</ele><time>2020-01-18T13:27:08Z</time><name>PT10465</name></trkpt>
<trkpt lat="52.858548" lon="-3.380067"><ele>505</ele><time>2020-01-18T13:27:08Z</time><name>PT10466</name></trkpt>
<trkpt lat="52.858537" lon="-3.380060"><ele>505</ele><time>2020-01-18T13:27:09Z</time><name>PT10467</name></trkpt>
<trkpt lat="52.858527" lon="-3.380048"><ele>504</ele><time>2020-01-18T13:27:11Z</time><name>PT10468</name></trkpt>
<trkpt lat="52.858518" lon="-3.380044"><ele>504</ele><time>2020-01-18T13:27:11Z</time><name>PT10469</name></trkpt>
<trkpt lat="52.858510" lon="-3.380044"><ele>503</ele><time>2020-01-18T13:27:12Z</time><name>PT10470</name></trkpt>
<trkpt lat="52.858500" lon="-3.380037"><ele>503</ele><time>2020-01-18T13:27:14Z</time><name>PT10471</name></trkpt>
<trkpt lat="52.858487" lon="-3.380052"><ele>501</ele><time>2020-01-18T13:27:14Z</time><name>PT10472</name></trkpt>
<trkpt lat="52.858477" lon="-3.380050"><ele>501</ele><time>2020-01-18T13:27:15Z</time><name>PT10473</name></trkpt>
<trkpt lat="52.858466" lon="-3.380046"><ele>500</ele><time>2020-01-18T13:27:17Z</time><name>PT10474</name></trkpt>
<trkpt lat="52.858456" lon="-3.380041"><ele>500</ele><time>2020-01-18T13:27:17Z</time><name>PT10475</name></trkpt>
<trkpt lat="52.858449" lon="-3.380028"><ele>500</ele><time>2020-01-18T13:27:18Z</time><name>PT10476</name></trkpt>
<trkpt lat="52.858442" lon="-3.380013"><ele>500</ele><time>2020-01-18T13:27:20Z</time><name>PT10477</name></trkpt>
<trkpt lat="52.858436" lon="-3.380004"><ele>500</ele><time>2020-01-18T13:27:20Z</time><name>PT10478</name></trkpt>
<trkpt lat="52.858432" lon="-3.379995"><ele>500</ele><time>2020-01-18T13:27:21Z</time><name>PT10479</name></trkpt>
<trkpt lat="52.858427" lon="-3.379988"><ele>500</ele><time>2020-01-18T13:27:23Z</time><name>PT10480</name></trkpt>
<trkpt lat="52.858425" lon="-3.379987"><ele>500</ele><time>2020-01-18T13:27:23Z</time><name>PT10481</name></trkpt>
<trkpt lat="52.858424" lon="-3.379986"><ele>500</ele><time>2020-01-18T13:27:24Z</time><name>PT10482</name></trkpt>
<trkpt lat="52.858422" lon="-3.379984"><ele>500</ele><time>2020-01-18T13:27:26Z</time><name>PT10483</name></trkpt>
<trkpt lat="52.858420" lon="-3.379983"><ele>500</ele><time>2020-01-18T13:27:29Z</time><name>PT10484</name></trkpt>
<trkpt lat="52.858418" lon="-3.379987"><ele>499</ele><time>2020-01-18T13:27:30Z</time><name>PT10485</name></trkpt>
<trkpt lat="52.858411" lon="-3.379983"><ele>500</ele><time>2020-01-18T13:27:32Z</time><name>PT10486</name></trkpt>
<trkpt lat="52.858412" lon="-3.379985"><ele>501</ele><time>2020-01-18T13:27:32Z</time><name>PT10487</name></trkpt>
<trkpt lat="52.858414" lon="-3.379986"><ele>501</ele><time>2020-01-18T13:27:33Z</time><name>PT10488</name></trkpt>
<trkpt lat="52.858414" lon="-3.379992"><ele>500</ele><time>2020-01-18T13:27:35Z</time><name>PT10489</name></trkpt>
<trkpt lat="52.858415" lon="-3.379997"><ele>500</ele><time>2020-01-18T13:27:35Z</time><name>PT10490</name></trkpt>
<trkpt lat="52.858415" lon="-3.379998"><ele>500</ele><time>2020-01-18T13:27:36Z</time><name>PT10491</name></trkpt>
<trkpt lat="52.858414" lon="-3.379996"><ele>500</ele><time>2020-01-18T13:27:38Z</time><name>PT10492</name></trkpt>
<trkpt lat="52.858414" lon="-3.379993"><ele>500</ele><time>2020-01-18T13:27:38Z</time><name>PT10493</name></trkpt>
<trkpt lat="52.858411" lon="-3.379990"><ele>500</ele><time>2020-01-18T13:27:39Z</time><name>PT10494</name></trkpt>
<trkpt lat="52.858411" lon="-3.379988"><ele>500</ele><time>2020-01-18T13:27:53Z</time><name>PT10495</name></trkpt>
<trkpt lat="52.858413" lon="-3.379989"><ele>500</ele><time>2020-01-18T13:27:53Z</time><name>PT10496</name></trkpt>
<trkpt lat="52.858412" lon="-3.379990"><ele>500</ele><time>2020-01-18T13:27:54Z</time><name>PT10497</name></trkpt>
<trkpt lat="52.858407" lon="-3.379988"><ele>499</ele><time>2020-01-18T13:27:56Z</time><name>PT10498</name></trkpt>
<trkpt lat="52.858403" lon="-3.379979"><ele>500</ele><time>2020-01-18T13:27:56Z</time><name>PT10499</name></trkpt>
<trkpt lat="52.858399" lon="-3.379978"><ele>499</ele><time>2020-01-18T13:27:57Z</time><name>PT10500</name></trkpt>
<trkpt lat="52.858393" lon="-3.379977"><ele>499</ele><time>2020-01-18T13:27:59Z</time><name>PT10501</name></trkpt>
<trkpt lat="52.858388" lon="-3.379970"><ele>499</ele><time>2020-01-18T13:27:59Z</time><name>PT10502</name></trkpt>
<trkpt lat="52.858382" lon="-3.379963"><ele>499</ele><time>2020-01-18T13:28:00Z</time><name>PT10503</name></trkpt>
<trkpt lat="52.858378" lon="-3.379955"><ele>499</ele><time>2020-01-18T13:28:02Z</time><name>PT10504</name></trkpt>
<trkpt lat="52.858374" lon="-3.379950"><ele>499</ele><time>2020-01-18T13:28:02Z</time><name>PT10505</name></trkpt>
<trkpt lat="52.858368" lon="-3.379943"><ele>498</ele><time>2020-01-18T13:28:03Z</time><name>PT10506</name></trkpt>
<trkpt lat="52.858363" lon="-3.379941"><ele>498</ele><time>2020-01-18T13:28:05Z</time><name>PT10507</name></trkpt>
<trkpt lat="52.858357" lon="-3.379934"><ele>498</ele><time>2020-01-18T13:28:05Z</time><name>PT10508</name></trkpt>
<trkpt lat="52.858350" lon="-3.379926"><ele>498</ele><time>2020-01-18T13:28:06Z</time><name>PT10509</name></trkpt>
<trkpt lat="52.858344" lon="-3.379922"><ele>498</ele><time>2020-01-18T13:28:08Z</time><name>PT10510</name></trkpt>
<trkpt lat="52.858338" lon="-3.379917"><ele>497</ele><time>2020-01-18T13:28:08Z</time><name>PT10511</name></trkpt>
<trkpt lat="52.858334" lon="-3.379913"><ele>497</ele><time>2020-01-18T13:28:09Z</time><name>PT10512</name></trkpt>
<trkpt lat="52.858333" lon="-3.379905"><ele>497</ele><time>2020-01-18T13:28:11Z</time><name>PT10513</name></trkpt>
<trkpt lat="52.858326" lon="-3.379896"><ele>497</ele><time>2020-01-18T13:28:11Z</time><name>PT10514</name></trkpt>
<trkpt lat="52.858323" lon="-3.379885"><ele>497</ele><time>2020-01-18T13:28:12Z</time><name>PT10515</name></trkpt>
<trkpt lat="52.858319" lon="-3.379871"><ele>497</ele><time>2020-01-18T13:28:14Z</time><name>PT10516</name></trkpt>
<trkpt lat="52.858316" lon="-3.379859"><ele>497</ele><time>2020-01-18T13:28:14Z</time><name>PT10517</name></trkpt>
<trkpt lat="52.858313" lon="-3.379841"><ele>497</ele><time>2020-01-18T13:28:15Z</time><name>PT10518</name></trkpt>
<trkpt lat="52.858311" lon="-3.379830"><ele>496</ele><time>2020-01-18T13:28:17Z</time><name>PT10519</name></trkpt>
<trkpt lat="52.858306" lon="-3.379816"><ele>496</ele><time>2020-01-18T13:28:17Z</time><name>PT10520</name></trkpt>
<trkpt lat="52.858301" lon="-3.379807"><ele>496</ele><time>2020-01-18T13:28:18Z</time><name>PT10521</name></trkpt>
<trkpt lat="52.858296" lon="-3.379796"><ele>496</ele><time>2020-01-18T13:28:20Z</time><name>PT10522</name></trkpt>
<trkpt lat="52.858293" lon="-3.379788"><ele>496</ele><time>2020-01-18T13:28:20Z</time><name>PT10523</name></trkpt>
<trkpt lat="52.858292" lon="-3.379782"><ele>495</ele><time>2020-01-18T13:28:21Z</time><name>PT10524</name></trkpt>
<trkpt lat="52.858290" lon="-3.379772"><ele>495</ele><time>2020-01-18T13:28:23Z</time><name>PT10525</name></trkpt>
<trkpt lat="52.858288" lon="-3.379761"><ele>495</ele><time>2020-01-18T13:28:23Z</time><name>PT10526</name></trkpt>
<trkpt lat="52.858285" lon="-3.379758"><ele>494</ele><time>2020-01-18T13:28:24Z</time><name>PT10527</name></trkpt>
<trkpt lat="52.858281" lon="-3.379750"><ele>494</ele><time>2020-01-18T13:28:26Z</time><name>PT10528</name></trkpt>
<trkpt lat="52.858278" lon="-3.379737"><ele>494</ele><time>2020-01-18T13:28:26Z</time><name>PT10529</name></trkpt>
<trkpt lat="52.858276" lon="-3.379728"><ele>493</ele><time>2020-01-18T13:28:27Z</time><name>PT10530</name></trkpt>
<trkpt lat="52.858271" lon="-3.379720"><ele>493</ele><time>2020-01-18T13:28:29Z</time><name>PT10531</name></trkpt>
<trkpt lat="52.858269" lon="-3.379711"><ele>493</ele><time>2020-01-18T13:28:29Z</time><name>PT10532</name></trkpt>
<trkpt lat="52.858268" lon="-3.379704"><ele>492</ele><time>2020-01-18T13:28:30Z</time><name>PT10533</name></trkpt>
<trkpt lat="52.858266" lon="-3.379698"><ele>492</ele><time>2020-01-18T13:28:32Z</time><name>PT10534</name></trkpt>
<trkpt lat="52.858263" lon="-3.379686"><ele>492</ele><time>2020-01-18T13:28:32Z</time><name>PT10535</name></trkpt>
<trkpt lat="52.858257" lon="-3.379672"><ele>492</ele><time>2020-01-18T13:28:34Z</time><name>PT10536</name></trkpt>
<trkpt lat="52.858254" lon="-3.379662"><ele>492</ele><time>2020-01-18T13:28:35Z</time><name>PT10537</name></trkpt>
<trkpt lat="52.858252" lon="-3.379653"><ele>491</ele><time>2020-01-18T13:28:35Z</time><name>PT10538</name></trkpt>
<trkpt lat="52.858251" lon="-3.379645"><ele>491</ele><time>2020-01-18T13:28:36Z</time><name>PT10539</name></trkpt>
<trkpt lat="52.858251" lon="-3.379636"><ele>491</ele><time>2020-01-18T13:28:38Z</time><name>PT10540</name></trkpt>
<trkpt lat="52.858250" lon="-3.379625"><ele>490</ele><time>2020-01-18T13:28:38Z</time><name>PT10541</name></trkpt>
<trkpt lat="52.858248" lon="-3.379611"><ele>490</ele><time>2020-01-18T13:28:40Z</time><name>PT10542</name></trkpt>
<trkpt lat="52.858246" lon="-3.379599"><ele>490</ele><time>2020-01-18T13:28:41Z</time><name>PT10543</name></trkpt>
<trkpt lat="52.858242" lon="-3.379590"><ele>490</ele><time>2020-01-18T13:28:41Z</time><name>PT10544</name></trkpt>
<trkpt lat="52.858239" lon="-3.379583"><ele>489</ele><time>2020-01-18T13:28:42Z</time><name>PT10545</name></trkpt>
<trkpt lat="52.858236" lon="-3.379573"><ele>489</ele><time>2020-01-18T13:28:44Z</time><name>PT10546</name></trkpt>
<trkpt lat="52.858234" lon="-3.379565"><ele>489</ele><time>2020-01-18T13:28:44Z</time><name>PT10547</name></trkpt>
<trkpt lat="52.858229" lon="-3.379558"><ele>489</ele><time>2020-01-18T13:28:45Z</time><name>PT10548</name></trkpt>
<trkpt lat="52.858225" lon="-3.379551"><ele>489</ele><time>2020-01-18T13:28:47Z</time><name>PT10549</name></trkpt>
<trkpt lat="52.858221" lon="-3.379543"><ele>489</ele><time>2020-01-18T13:28:47Z</time><name>PT10550</name></trkpt>
<trkpt lat="52.858218" lon="-3.379533"><ele>489</ele><time>2020-01-18T13:28:48Z</time><name>PT10551</name></trkpt>
<trkpt lat="52.858213" lon="-3.379524"><ele>488</ele><time>2020-01-18T13:28:50Z</time><name>PT10552</name></trkpt>
<trkpt lat="52.858209" lon="-3.379511"><ele>488</ele><time>2020-01-18T13:28:50Z</time><name>PT10553</name></trkpt>
<trkpt lat="52.858204" lon="-3.379503"><ele>488</ele><time>2020-01-18T13:28:51Z</time><name>PT10554</name></trkpt>
<trkpt lat="52.858199" lon="-3.379496"><ele>487</ele><time>2020-01-18T13:28:53Z</time><name>PT10555</name></trkpt>
<trkpt lat="52.858196" lon="-3.379488"><ele>487</ele><time>2020-01-18T13:28:53Z</time><name>PT10556</name></trkpt>
<trkpt lat="52.858188" lon="-3.379470"><ele>488</ele><time>2020-01-18T13:28:54Z</time><name>PT10557</name></trkpt>
<trkpt lat="52.858183" lon="-3.379459"><ele>487</ele><time>2020-01-18T13:28:56Z</time><name>PT10558</name></trkpt>
<trkpt lat="52.858178" lon="-3.379450"><ele>487</ele><time>2020-01-18T13:28:56Z</time><name>PT10559</name></trkpt>
<trkpt lat="52.858173" lon="-3.379445"><ele>487</ele><time>2020-01-18T13:28:57Z</time><name>PT10560</name></trkpt>
<trkpt lat="52.858165" lon="-3.379435"><ele>487</ele><time>2020-01-18T13:28:59Z</time><name>PT10561</name></trkpt>
<trkpt lat="52.858162" lon="-3.379433"><ele>486</ele><time>2020-01-18T13:28:59Z</time><name>PT10562</name></trkpt>
<trkpt lat="52.858158" lon="-3.379428"><ele>486</ele><time>2020-01-18T13:29:00Z</time><name>PT10563</name></trkpt>
<trkpt lat="52.858151" lon="-3.379420"><ele>486</ele><time>2020-01-18T13:29:02Z</time><name>PT10564</name></trkpt>
<trkpt lat="52.858144" lon="-3.379413"><ele>486</ele><time>2020-01-18T13:29:02Z</time><name>PT10565</name></trkpt>
<trkpt lat="52.858140" lon="-3.379407"><ele>485</ele><time>2020-01-18T13:29:03Z</time><name>PT10566</name></trkpt>
<trkpt lat="52.858134" lon="-3.379403"><ele>485</ele><time>2020-01-18T13:29:05Z</time><name>PT10567</name></trkpt>
<trkpt lat="52.858133" lon="-3.379397"><ele>485</ele><time>2020-01-18T13:29:05Z</time><name>PT10568</name></trkpt>
<trkpt lat="52.858130" lon="-3.379392"><ele>485</ele><time>2020-01-18T13:29:06Z</time><name>PT10569</name></trkpt>
<trkpt lat="52.858124" lon="-3.379392"><ele>484</ele><time>2020-01-18T13:29:08Z</time><name>PT10570</name></trkpt>
<trkpt lat="52.858117" lon="-3.379390"><ele>484</ele><time>2020-01-18T13:29:08Z</time><name>PT10571</name></trkpt>
<trkpt lat="52.858109" lon="-3.379386"><ele>484</ele><time>2020-01-18T13:29:09Z</time><name>PT10572</name></trkpt>
<trkpt lat="52.858102" lon="-3.379381"><ele>484</ele><time>2020-01-18T13:29:11Z</time><name>PT10573</name></trkpt>
<trkpt lat="52.858095" lon="-3.379377"><ele>484</ele><time>2020-01-18T13:29:11Z</time><name>PT10574</name></trkpt>
<trkpt lat="52.858088" lon="-3.379365"><ele>484</ele><time>2020-01-18T13:29:12Z</time><name>PT10575</name></trkpt>
<trkpt lat="52.858085" lon="-3.379345"><ele>484</ele><time>2020-01-18T13:29:14Z</time><name>PT10576</name></trkpt>
<trkpt lat="52.858077" lon="-3.379328"><ele>484</ele><time>2020-01-18T13:29:14Z</time><name>PT10577</name></trkpt>
<trkpt lat="52.858068" lon="-3.379320"><ele>484</ele><time>2020-01-18T13:29:15Z</time><name>PT10578</name></trkpt>
<trkpt lat="52.858057" lon="-3.379310"><ele>484</ele><time>2020-01-18T13:29:17Z</time><name>PT10579</name></trkpt>
<trkpt lat="52.858050" lon="-3.379302"><ele>485</ele><time>2020-01-18T13:29:17Z</time><name>PT10580</name></trkpt>
<trkpt lat="52.858043" lon="-3.379292"><ele>484</ele><time>2020-01-18T13:29:18Z</time><name>PT10581</name></trkpt>
<trkpt lat="52.858036" lon="-3.379278"><ele>485</ele><time>2020-01-18T13:29:20Z</time><name>PT10582</name></trkpt>
<trkpt lat="52.858028" lon="-3.379271"><ele>484</ele><time>2020-01-18T13:29:20Z</time><name>PT10583</name></trkpt>
<trkpt lat="52.858020" lon="-3.379262"><ele>484</ele><time>2020-01-18T13:29:21Z</time><name>PT10584</name></trkpt>
<trkpt lat="52.858014" lon="-3.379248"><ele>484</ele><time>2020-01-18T13:29:23Z</time><name>PT10585</name></trkpt>
<trkpt lat="52.858005" lon="-3.379230"><ele>484</ele><time>2020-01-18T13:29:23Z</time><name>PT10586</name></trkpt>
<trkpt lat="52.857995" lon="-3.379219"><ele>484</ele><time>2020-01-18T13:29:24Z</time><name>PT10587</name></trkpt>
<trkpt lat="52.857988" lon="-3.379209"><ele>484</ele><time>2020-01-18T13:29:26Z</time><name>PT10588</name></trkpt>
<trkpt lat="52.857979" lon="-3.379195"><ele>484</ele><time>2020-01-18T13:29:26Z</time><name>PT10589</name></trkpt>
<trkpt lat="52.857968" lon="-3.379184"><ele>484</ele><time>2020-01-18T13:29:27Z</time><name>PT10590</name></trkpt>
<trkpt lat="52.857958" lon="-3.379175"><ele>483</ele><time>2020-01-18T13:29:29Z</time><name>PT10591</name></trkpt>
<trkpt lat="52.857948" lon="-3.379168"><ele>483</ele><time>2020-01-18T13:29:29Z</time><name>PT10592</name></trkpt>
<trkpt lat="52.857938" lon="-3.379165"><ele>483</ele><time>2020-01-18T13:29:31Z</time><name>PT10593</name></trkpt>
<trkpt lat="52.857927" lon="-3.379163"><ele>483</ele><time>2020-01-18T13:29:32Z</time><name>PT10594</name></trkpt>
<trkpt lat="52.857919" lon="-3.379167"><ele>482</ele><time>2020-01-18T13:29:32Z</time><name>PT10595</name></trkpt>
<trkpt lat="52.857911" lon="-3.379170"><ele>482</ele><time>2020-01-18T13:29:33Z</time><name>PT10596</name></trkpt>
<trkpt lat="52.857903" lon="-3.379173"><ele>482</ele><time>2020-01-18T13:29:35Z</time><name>PT10597</name></trkpt>
<trkpt lat="52.857899" lon="-3.379170"><ele>482</ele><time>2020-01-18T13:29:35Z</time><name>PT10598</name></trkpt>
<trkpt lat="52.857894" lon="-3.379170"><ele>482</ele><time>2020-01-18T13:29:36Z</time><name>PT10599</name></trkpt>
<trkpt lat="52.857892" lon="-3.379168"><ele>482</ele><time>2020-01-18T13:29:38Z</time><name>PT10600</name></trkpt>
<trkpt lat="52.857891" lon="-3.379169"><ele>482</ele><time>2020-01-18T13:29:38Z</time><name>PT10601</name></trkpt>
<trkpt lat="52.857888" lon="-3.379163"><ele>482</ele><time>2020-01-18T13:29:40Z</time><name>PT10602</name></trkpt>
<trkpt lat="52.857884" lon="-3.379155"><ele>482</ele><time>2020-01-18T13:29:41Z</time><name>PT10603</name></trkpt>
<trkpt lat="52.857881" lon="-3.379146"><ele>482</ele><time>2020-01-18T13:29:41Z</time><name>PT10604</name></trkpt>
<trkpt lat="52.857874" lon="-3.379141"><ele>481</ele><time>2020-01-18T13:29:42Z</time><name>PT10605</name></trkpt>
<trkpt lat="52.857872" lon="-3.379136"><ele>480</ele><time>2020-01-18T13:29:44Z</time><name>PT10606</name></trkpt>
<trkpt lat="52.857869" lon="-3.379131"><ele>480</ele><time>2020-01-18T13:29:44Z</time><name>PT10607</name></trkpt>
<trkpt lat="52.857865" lon="-3.379125"><ele>480</ele><time>2020-01-18T13:29:45Z</time><name>PT10608</name></trkpt>
<trkpt lat="52.857862" lon="-3.379116"><ele>480</ele><time>2020-01-18T13:29:47Z</time><name>PT10609</name></trkpt>
<trkpt lat="52.857855" lon="-3.379112"><ele>480</ele><time>2020-01-18T13:29:47Z</time><name>PT10610</name></trkpt>
<trkpt lat="52.857851" lon="-3.379108"><ele>480</ele><time>2020-01-18T13:29:48Z</time><name>PT10611</name></trkpt>
<trkpt lat="52.857846" lon="-3.379103"><ele>480</ele><time>2020-01-18T13:29:50Z</time><name>PT10612</name></trkpt>
<trkpt lat="52.857844" lon="-3.379091"><ele>480</ele><time>2020-01-18T13:29:50Z</time><name>PT10613</name></trkpt>
<trkpt lat="52.857842" lon="-3.379085"><ele>480</ele><time>2020-01-18T13:29:51Z</time><name>PT10614</name></trkpt>
<trkpt lat="52.857843" lon="-3.379071"><ele>479</ele><time>2020-01-18T13:29:53Z</time><name>PT10615</name></trkpt>
<trkpt lat="52.857840" lon="-3.379057"><ele>479</ele><time>2020-01-18T13:29:53Z</time><name>PT10616</name></trkpt>
<trkpt lat="52.857839" lon="-3.379051"><ele>480</ele><time>2020-01-18T13:29:54Z</time><name>PT10617</name></trkpt>
<trkpt lat="52.857835" lon="-3.379045"><ele>480</ele><time>2020-01-18T13:29:56Z</time><name>PT10618</name></trkpt>
<trkpt lat="52.857831" lon="-3.379038"><ele>480</ele><time>2020-01-18T13:29:56Z</time><name>PT10619</name></trkpt>
<trkpt lat="52.857829" lon="-3.379035"><ele>479</ele><time>2020-01-18T13:29:57Z</time><name>PT10620</name></trkpt>
<trkpt lat="52.857828" lon="-3.379026"><ele>479</ele><time>2020-01-18T13:29:59Z</time><name>PT10621</name></trkpt>
<trkpt lat="52.857829" lon="-3.379020"><ele>479</ele><time>2020-01-18T13:29:59Z</time><name>PT10622</name></trkpt>
<trkpt lat="52.857827" lon="-3.379008"><ele>479</ele><time>2020-01-18T13:30:00Z</time><name>PT10623</name></trkpt>
<trkpt lat="52.857824" lon="-3.378998"><ele>478</ele><time>2020-01-18T13:30:02Z</time><name>PT10624</name></trkpt>
<trkpt lat="52.857820" lon="-3.378991"><ele>478</ele><time>2020-01-18T13:30:02Z</time><name>PT10625</name></trkpt>
<trkpt lat="52.857816" lon="-3.378990"><ele>477</ele><time>2020-01-18T13:30:03Z</time><name>PT10626</name></trkpt>
<trkpt lat="52.857811" lon="-3.378987"><ele>476</ele><time>2020-01-18T13:30:05Z</time><name>PT10627</name></trkpt>
<trkpt lat="52.857810" lon="-3.378981"><ele>476</ele><time>2020-01-18T13:30:05Z</time><name>PT10628</name></trkpt>
<trkpt lat="52.857805" lon="-3.378973"><ele>476</ele><time>2020-01-18T13:30:06Z</time><name>PT10629</name></trkpt>
<trkpt lat="52.857803" lon="-3.378970"><ele>475</ele><time>2020-01-18T13:30:08Z</time><name>PT10630</name></trkpt>
<trkpt lat="52.857800" lon="-3.378958"><ele>475</ele><time>2020-01-18T13:30:08Z</time><name>PT10631</name></trkpt>
<trkpt lat="52.857797" lon="-3.378950"><ele>475</ele><time>2020-01-18T13:30:09Z</time><name>PT10632</name></trkpt>
<trkpt lat="52.857794" lon="-3.378940"><ele>475</ele><time>2020-01-18T13:30:11Z</time><name>PT10633</name></trkpt>
<trkpt lat="52.857793" lon="-3.378931"><ele>475</ele><time>2020-01-18T13:30:12Z</time><name>PT10634</name></trkpt>
<trkpt lat="52.857790" lon="-3.378919"><ele>474</ele><time>2020-01-18T13:30:12Z</time><name>PT10635</name></trkpt>
<trkpt lat="52.857787" lon="-3.378913"><ele>474</ele><time>2020-01-18T13:30:14Z</time><name>PT10636</name></trkpt>
<trkpt lat="52.857780" lon="-3.378894"><ele>474</ele><time>2020-01-18T13:30:14Z</time><name>PT10637</name></trkpt>
<trkpt lat="52.857774" lon="-3.378875"><ele>474</ele><time>2020-01-18T13:30:16Z</time><name>PT10638</name></trkpt>
<trkpt lat="52.857769" lon="-3.378861"><ele>474</ele><time>2020-01-18T13:30:17Z</time><name>PT10639</name></trkpt>
<trkpt lat="52.857764" lon="-3.378848"><ele>474</ele><time>2020-01-18T13:30:17Z</time><name>PT10640</name></trkpt>
<trkpt lat="52.857761" lon="-3.378838"><ele>474</ele><time>2020-01-18T13:30:18Z</time><name>PT10641</name></trkpt>
<trkpt lat="52.857757" lon="-3.378830"><ele>474</ele><time>2020-01-18T13:30:20Z</time><name>PT10642</name></trkpt>
<trkpt lat="52.857753" lon="-3.378823"><ele>473</ele><time>2020-01-18T13:30:20Z</time><name>PT10643</name></trkpt>
<trkpt lat="52.857752" lon="-3.378813"><ele>473</ele><time>2020-01-18T13:30:21Z</time><name>PT10644</name></trkpt>
<trkpt lat="52.857747" lon="-3.378802"><ele>473</ele><time>2020-01-18T13:30:23Z</time><name>PT10645</name></trkpt>
<trkpt lat="52.857745" lon="-3.378789"><ele>473</ele><time>2020-01-18T13:30:23Z</time><name>PT10646</name></trkpt>
<trkpt lat="52.857740" lon="-3.378779"><ele>473</ele><time>2020-01-18T13:30:24Z</time><name>PT10647</name></trkpt>
<trkpt lat="52.857737" lon="-3.378769"><ele>472</ele><time>2020-01-18T13:30:26Z</time><name>PT10648</name></trkpt>
<trkpt lat="52.857733" lon="-3.378762"><ele>472</ele><time>2020-01-18T13:30:26Z</time><name>PT10649</name></trkpt>
<trkpt lat="52.857728" lon="-3.378749"><ele>472</ele><time>2020-01-18T13:30:27Z</time><name>PT10650</name></trkpt>
<trkpt lat="52.857725" lon="-3.378744"><ele>471</ele><time>2020-01-18T13:30:29Z</time><name>PT10651</name></trkpt>
<trkpt lat="52.857724" lon="-3.378734"><ele>470</ele><time>2020-01-18T13:30:29Z</time><name>PT10652</name></trkpt>
<trkpt lat="52.857723" lon="-3.378719"><ele>470</ele><time>2020-01-18T13:30:30Z</time><name>PT10653</name></trkpt>
<trkpt lat="52.857723" lon="-3.378707"><ele>470</ele><time>2020-01-18T13:30:32Z</time><name>PT10654</name></trkpt>
<trkpt lat="52.857721" lon="-3.378697"><ele>470</ele><time>2020-01-18T13:30:32Z</time><name>PT10655</name></trkpt>
<trkpt lat="52.857716" lon="-3.378685"><ele>469</ele><time>2020-01-18T13:30:33Z</time><name>PT10656</name></trkpt>
<trkpt lat="52.857711" lon="-3.378676"><ele>468</ele><time>2020-01-18T13:30:35Z</time><name>PT10657</name></trkpt>
<trkpt lat="52.857708" lon="-3.378668"><ele>468</ele><time>2020-01-18T13:30:35Z</time><name>PT10658</name></trkpt>
<trkpt lat="52.857706" lon="-3.378662"><ele>468</ele><time>2020-01-18T13:30:36Z</time><name>PT10659</name></trkpt>
<trkpt lat="52.857706" lon="-3.378658"><ele>468</ele><time>2020-01-18T13:30:38Z</time><name>PT10660</name></trkpt>
<trkpt lat="52.857701" lon="-3.378640"><ele>468</ele><time>2020-01-18T13:30:56Z</time><name>PT10661</name></trkpt>
<trkpt lat="52.857699" lon="-3.378630"><ele>467</ele><time>2020-01-18T13:30:56Z</time><name>PT10662</name></trkpt>
<trkpt lat="52.857696" lon="-3.378619"><ele>467</ele><time>2020-01-18T13:30:57Z</time><name>PT10663</name></trkpt>
<trkpt lat="52.857686" lon="-3.378556"><ele>467</ele><time>2020-01-18T13:31:27Z</time><name>PT10664</name></trkpt>
<trkpt lat="52.857679" lon="-3.378543"><ele>466</ele><time>2020-01-18T13:31:29Z</time><name>PT10665</name></trkpt>
<trkpt lat="52.857670" lon="-3.378528"><ele>466</ele><time>2020-01-18T13:31:29Z</time><name>PT10666</name></trkpt>
<trkpt lat="52.857662" lon="-3.378514"><ele>465</ele><time>2020-01-18T13:31:30Z</time><name>PT10667</name></trkpt>
<trkpt lat="52.857655" lon="-3.378499"><ele>464</ele><time>2020-01-18T13:31:32Z</time><name>PT10668</name></trkpt>
<trkpt lat="52.857648" lon="-3.378482"><ele>464</ele><time>2020-01-18T13:31:32Z</time><name>PT10669</name></trkpt>
<trkpt lat="52.857641" lon="-3.378472"><ele>464</ele><time>2020-01-18T13:31:33Z</time><name>PT10670</name></trkpt>
<trkpt lat="52.857634" lon="-3.378459"><ele>463</ele><time>2020-01-18T13:31:35Z</time><name>PT10671</name></trkpt>
<trkpt lat="52.857625" lon="-3.378445"><ele>463</ele><time>2020-01-18T13:31:35Z</time><name>PT10672</name></trkpt>
<trkpt lat="52.857617" lon="-3.378434"><ele>463</ele><time>2020-01-18T13:31:36Z</time><name>PT10673</name></trkpt>
<trkpt lat="52.857609" lon="-3.378422"><ele>463</ele><time>2020-01-18T13:31:38Z</time><name>PT10674</name></trkpt>
<trkpt lat="52.857603" lon="-3.378409"><ele>463</ele><time>2020-01-18T13:31:38Z</time><name>PT10675</name></trkpt>
<trkpt lat="52.857596" lon="-3.378387"><ele>462</ele><time>2020-01-18T13:31:39Z</time><name>PT10676</name></trkpt>
<trkpt lat="52.857586" lon="-3.378374"><ele>462</ele><time>2020-01-18T13:31:41Z</time><name>PT10677</name></trkpt>
<trkpt lat="52.857579" lon="-3.378364"><ele>462</ele><time>2020-01-18T13:31:41Z</time><name>PT10678</name></trkpt>
<trkpt lat="52.857566" lon="-3.378344"><ele>461</ele><time>2020-01-18T13:31:42Z</time><name>PT10679</name></trkpt>
<trkpt lat="52.857556" lon="-3.378337"><ele>460</ele><time>2020-01-18T13:31:44Z</time><name>PT10680</name></trkpt>
<trkpt lat="52.857543" lon="-3.378327"><ele>459</ele><time>2020-01-18T13:31:44Z</time><name>PT10681</name></trkpt>
<trkpt lat="52.857531" lon="-3.378320"><ele>458</ele><time>2020-01-18T13:31:45Z</time><name>PT10682</name></trkpt>
<trkpt lat="52.857522" lon="-3.378311"><ele>457</ele><time>2020-01-18T13:31:47Z</time><name>PT10683</name></trkpt>
<trkpt lat="52.857514" lon="-3.378312"><ele>456</ele><time>2020-01-18T13:31:47Z</time><name>PT10684</name></trkpt>
<trkpt lat="52.857506" lon="-3.378308"><ele>456</ele><time>2020-01-18T13:31:48Z</time><name>PT10685</name></trkpt>
<trkpt lat="52.857498" lon="-3.378307"><ele>455</ele><time>2020-01-18T13:31:50Z</time><name>PT10686</name></trkpt>
<trkpt lat="52.857488" lon="-3.378305"><ele>455</ele><time>2020-01-18T13:31:50Z</time><name>PT10687</name></trkpt>
<trkpt lat="52.857479" lon="-3.378303"><ele>455</ele><time>2020-01-18T13:31:51Z</time><name>PT10688</name></trkpt>
<trkpt lat="52.857472" lon="-3.378304"><ele>454</ele><time>2020-01-18T13:31:53Z</time><name>PT10689</name></trkpt>
<trkpt lat="52.857465" lon="-3.378302"><ele>454</ele><time>2020-01-18T13:31:53Z</time><name>PT10690</name></trkpt>
<trkpt lat="52.857457" lon="-3.378300"><ele>453</ele><time>2020-01-18T13:31:54Z</time><name>PT10691</name></trkpt>
<trkpt lat="52.857450" lon="-3.378301"><ele>453</ele><time>2020-01-18T13:31:56Z</time><name>PT10692</name></trkpt>
<trkpt lat="52.857443" lon="-3.378302"><ele>453</ele><time>2020-01-18T13:31:56Z</time><name>PT10693</name></trkpt>
<trkpt lat="52.857435" lon="-3.378305"><ele>452</ele><time>2020-01-18T13:31:57Z</time><name>PT10694</name></trkpt>
<trkpt lat="52.857428" lon="-3.378307"><ele>452</ele><time>2020-01-18T13:31:59Z</time><name>PT10695</name></trkpt>
<trkpt lat="52.857421" lon="-3.378308"><ele>452</ele><time>2020-01-18T13:31:59Z</time><name>PT10696</name></trkpt>
<trkpt lat="52.857413" lon="-3.378312"><ele>451</ele><time>2020-01-18T13:32:00Z</time><name>PT10697</name></trkpt>
<trkpt lat="52.857403" lon="-3.378312"><ele>451</ele><time>2020-01-18T13:32:02Z</time><name>PT10698</name></trkpt>
<trkpt lat="52.857395" lon="-3.378312"><ele>450</ele><time>2020-01-18T13:32:02Z</time><name>PT10699</name></trkpt>
<trkpt lat="52.857386" lon="-3.378312"><ele>450</ele><time>2020-01-18T13:32:03Z</time><name>PT10700</name></trkpt>
<trkpt lat="52.857379" lon="-3.378312"><ele>450</ele><time>2020-01-18T13:32:05Z</time><name>PT10701</name></trkpt>
<trkpt lat="52.857370" lon="-3.378310"><ele>449</ele><time>2020-01-18T13:32:05Z</time><name>PT10702</name></trkpt>
<trkpt lat="52.857361" lon="-3.378306"><ele>449</ele><time>2020-01-18T13:32:06Z</time><name>PT10703</name></trkpt>
<trkpt lat="52.857353" lon="-3.378304"><ele>449</ele><time>2020-01-18T13:32:08Z</time><name>PT10704</name></trkpt>
<trkpt lat="52.857344" lon="-3.378302"><ele>449</ele><time>2020-01-18T13:32:08Z</time><name>PT10705</name></trkpt>
<trkpt lat="52.857335" lon="-3.378297"><ele>449</ele><time>2020-01-18T13:32:09Z</time><name>PT10706</name></trkpt>
<trkpt lat="52.857328" lon="-3.378290"><ele>449</ele><time>2020-01-18T13:32:11Z</time><name>PT10707</name></trkpt>
<trkpt lat="52.857319" lon="-3.378282"><ele>448</ele><time>2020-01-18T13:32:11Z</time><name>PT10708</name></trkpt>
<trkpt lat="52.857312" lon="-3.378278"><ele>448</ele><time>2020-01-18T13:32:12Z</time><name>PT10709</name></trkpt>
<trkpt lat="52.857306" lon="-3.378272"><ele>448</ele><time>2020-01-18T13:32:14Z</time><name>PT10710</name></trkpt>
<trkpt lat="52.857301" lon="-3.378265"><ele>447</ele><time>2020-01-18T13:32:14Z</time><name>PT10711</name></trkpt>
<trkpt lat="52.857296" lon="-3.378258"><ele>447</ele><time>2020-01-18T13:32:15Z</time><name>PT10712</name></trkpt>
<trkpt lat="52.857290" lon="-3.378256"><ele>447</ele><time>2020-01-18T13:32:17Z</time><name>PT10713</name></trkpt>
<trkpt lat="52.857283" lon="-3.378253"><ele>447</ele><time>2020-01-18T13:32:17Z</time><name>PT10714</name></trkpt>
<trkpt lat="52.857275" lon="-3.378246"><ele>447</ele><time>2020-01-18T13:32:18Z</time><name>PT10715</name></trkpt>
<trkpt lat="52.857271" lon="-3.378242"><ele>446</ele><time>2020-01-18T13:32:20Z</time><name>PT10716</name></trkpt>
<trkpt lat="52.857262" lon="-3.378238"><ele>446</ele><time>2020-01-18T13:32:20Z</time><name>PT10717</name></trkpt>
<trkpt lat="52.857256" lon="-3.378237"><ele>446</ele><time>2020-01-18T13:32:21Z</time><name>PT10718</name></trkpt>
<trkpt lat="52.857254" lon="-3.378237"><ele>445</ele><time>2020-01-18T13:32:23Z</time><name>PT10719</name></trkpt>
<trkpt lat="52.857253" lon="-3.378237"><ele>445</ele><time>2020-01-18T13:32:23Z</time><name>PT10720</name></trkpt>
<trkpt lat="52.857250" lon="-3.378237"><ele>445</ele><time>2020-01-18T13:32:24Z</time><name>PT10721</name></trkpt>
<trkpt lat="52.857249" lon="-3.378243"><ele>445</ele><time>2020-01-18T13:32:26Z</time><name>PT10722</name></trkpt>
<trkpt lat="52.857245" lon="-3.378249"><ele>445</ele><time>2020-01-18T13:32:26Z</time><name>PT10723</name></trkpt>
<trkpt lat="52.857240" lon="-3.378265"><ele>444</ele><time>2020-01-18T13:32:27Z</time><name>PT10724</name></trkpt>
<trkpt lat="52.857235" lon="-3.378281"><ele>444</ele><time>2020-01-18T13:32:29Z</time><name>PT10725</name></trkpt>
<trkpt lat="52.857229" lon="-3.378288"><ele>443</ele><time>2020-01-18T13:32:29Z</time><name>PT10726</name></trkpt>
<trkpt lat="52.857222" lon="-3.378293"><ele>443</ele><time>2020-01-18T13:32:30Z</time><name>PT10727</name></trkpt>
<trkpt lat="52.857217" lon="-3.378295"><ele>443</ele><time>2020-01-18T13:32:32Z</time><name>PT10728</name></trkpt>
<trkpt lat="52.857208" lon="-3.378291"><ele>443</ele><time>2020-01-18T13:32:32Z</time><name>PT10729</name></trkpt>
<trkpt lat="52.857200" lon="-3.378286"><ele>443</ele><time>2020-01-18T13:32:33Z</time><name>PT10730</name></trkpt>
<trkpt lat="52.857192" lon="-3.378281"><ele>443</ele><time>2020-01-18T13:32:35Z</time><name>PT10731</name></trkpt>
<trkpt lat="52.857184" lon="-3.378280"><ele>443</ele><time>2020-01-18T13:32:35Z</time><name>PT10732</name></trkpt>
<trkpt lat="52.857176" lon="-3.378275"><ele>443</ele><time>2020-01-18T13:32:36Z</time><name>PT10733</name></trkpt>
<trkpt lat="52.857168" lon="-3.378275"><ele>443</ele><time>2020-01-18T13:32:38Z</time><name>PT10734</name></trkpt>
<trkpt lat="52.857160" lon="-3.378272"><ele>442</ele><time>2020-01-18T13:32:38Z</time><name>PT10735</name></trkpt>
<trkpt lat="52.857152" lon="-3.378272"><ele>442</ele><time>2020-01-18T13:32:39Z</time><name>PT10736</name></trkpt>
<trkpt lat="52.857146" lon="-3.378275"><ele>442</ele><time>2020-01-18T13:32:41Z</time><name>PT10737</name></trkpt>
<trkpt lat="52.857137" lon="-3.378276"><ele>441</ele><time>2020-01-18T13:32:41Z</time><name>PT10738</name></trkpt>
<trkpt lat="52.857126" lon="-3.378273"><ele>441</ele><time>2020-01-18T13:32:42Z</time><name>PT10739</name></trkpt>
<trkpt lat="52.857120" lon="-3.378272"><ele>441</ele><time>2020-01-18T13:32:44Z</time><name>PT10740</name></trkpt>
<trkpt lat="52.857114" lon="-3.378272"><ele>441</ele><time>2020-01-18T13:32:44Z</time><name>PT10741</name></trkpt>
<trkpt lat="52.857110" lon="-3.378273"><ele>441</ele><time>2020-01-18T13:32:45Z</time><name>PT10742</name></trkpt>
<trkpt lat="52.857104" lon="-3.378279"><ele>441</ele><time>2020-01-18T13:32:47Z</time><name>PT10743</name></trkpt>
<trkpt lat="52.857099" lon="-3.378286"><ele>440</ele><time>2020-01-18T13:32:47Z</time><name>PT10744</name></trkpt>
<trkpt lat="52.857092" lon="-3.378294"><ele>440</ele><time>2020-01-18T13:32:48Z</time><name>PT10745</name></trkpt>
<trkpt lat="52.857086" lon="-3.378301"><ele>440</ele><time>2020-01-18T13:32:50Z</time><name>PT10746</name></trkpt>
<trkpt lat="52.857081" lon="-3.378302"><ele>440</ele><time>2020-01-18T13:32:50Z</time><name>PT10747</name></trkpt>
<trkpt lat="52.857076" lon="-3.378305"><ele>440</ele><time>2020-01-18T13:32:51Z</time><name>PT10748</name></trkpt>
<trkpt lat="52.857071" lon="-3.378307"><ele>440</ele><time>2020-01-18T13:32:53Z</time><name>PT10749</name></trkpt>
<trkpt lat="52.857063" lon="-3.378306"><ele>440</ele><time>2020-01-18T13:32:53Z</time><name>PT10750</name></trkpt>
<trkpt lat="52.857055" lon="-3.378306"><ele>439</ele><time>2020-01-18T13:32:54Z</time><name>PT10751</name></trkpt>
<trkpt lat="52.857048" lon="-3.378307"><ele>439</ele><time>2020-01-18T13:32:56Z</time><name>PT10752</name></trkpt>
<trkpt lat="52.857042" lon="-3.378309"><ele>438</ele><time>2020-01-18T13:32:56Z</time><name>PT10753</name></trkpt>
<trkpt lat="52.857036" lon="-3.378313"><ele>438</ele><time>2020-01-18T13:32:57Z</time><name>PT10754</name></trkpt>
<trkpt lat="52.857028" lon="-3.378318"><ele>437</ele><time>2020-01-18T13:32:59Z</time><name>PT10755</name></trkpt>
<trkpt lat="52.857021" lon="-3.378323"><ele>437</ele><time>2020-01-18T13:32:59Z</time><name>PT10756</name></trkpt>
<trkpt lat="52.857016" lon="-3.378327"><ele>436</ele><time>2020-01-18T13:33:00Z</time><name>PT10757</name></trkpt>
<trkpt lat="52.857010" lon="-3.378331"><ele>436</ele><time>2020-01-18T13:33:02Z</time><name>PT10758</name></trkpt>
<trkpt lat="52.857004" lon="-3.378334"><ele>436</ele><time>2020-01-18T13:33:02Z</time><name>PT10759</name></trkpt>
<trkpt lat="52.856998" lon="-3.378337"><ele>435</ele><time>2020-01-18T13:33:03Z</time><name>PT10760</name></trkpt>
<trkpt lat="52.856993" lon="-3.378341"><ele>435</ele><time>2020-01-18T13:33:05Z</time><name>PT10761</name></trkpt>
<trkpt lat="52.856986" lon="-3.378346"><ele>435</ele><time>2020-01-18T13:33:05Z</time><name>PT10762</name></trkpt>
<trkpt lat="52.856979" lon="-3.378349"><ele>435</ele><time>2020-01-18T13:33:06Z</time><name>PT10763</name></trkpt>
<trkpt lat="52.856974" lon="-3.378357"><ele>434</ele><time>2020-01-18T13:33:08Z</time><name>PT10764</name></trkpt>
<trkpt lat="52.856968" lon="-3.378366"><ele>434</ele><time>2020-01-18T13:33:08Z</time><name>PT10765</name></trkpt>
<trkpt lat="52.856964" lon="-3.378373"><ele>434</ele><time>2020-01-18T13:33:09Z</time><name>PT10766</name></trkpt>
<trkpt lat="52.856958" lon="-3.378376"><ele>434</ele><time>2020-01-18T13:33:11Z</time><name>PT10767</name></trkpt>
<trkpt lat="52.856952" lon="-3.378376"><ele>434</ele><time>2020-01-18T13:33:11Z</time><name>PT10768</name></trkpt>
<trkpt lat="52.856945" lon="-3.378373"><ele>434</ele><time>2020-01-18T13:33:12Z</time><name>PT10769</name></trkpt>
<trkpt lat="52.856936" lon="-3.378361"><ele>434</ele><time>2020-01-18T13:33:14Z</time><name>PT10770</name></trkpt>
<trkpt lat="52.856931" lon="-3.378355"><ele>434</ele><time>2020-01-18T13:33:14Z</time><name>PT10771</name></trkpt>
<trkpt lat="52.856925" lon="-3.378352"><ele>433</ele><time>2020-01-18T13:33:15Z</time><name>PT10772</name></trkpt>
<trkpt lat="52.856920" lon="-3.378352"><ele>433</ele><time>2020-01-18T13:33:17Z</time><name>PT10773</name></trkpt>
<trkpt lat="52.856915" lon="-3.378351"><ele>432</ele><time>2020-01-18T13:33:17Z</time><name>PT10774</name></trkpt>
<trkpt lat="52.856910" lon="-3.378345"><ele>432</ele><time>2020-01-18T13:33:18Z</time><name>PT10775</name></trkpt>
<trkpt lat="52.856907" lon="-3.378332"><ele>432</ele><time>2020-01-18T13:33:20Z</time><name>PT10776</name></trkpt>
<trkpt lat="52.856902" lon="-3.378315"><ele>432</ele><time>2020-01-18T13:33:20Z</time><name>PT10777</name></trkpt>
<trkpt lat="52.856896" lon="-3.378312"><ele>432</ele><time>2020-01-18T13:33:21Z</time><name>PT10778</name></trkpt>
<trkpt lat="52.856889" lon="-3.378310"><ele>432</ele><time>2020-01-18T13:33:23Z</time><name>PT10779</name></trkpt>
<trkpt lat="52.856881" lon="-3.378309"><ele>431</ele><time>2020-01-18T13:33:23Z</time><name>PT10780</name></trkpt>
<trkpt lat="52.856875" lon="-3.378308"><ele>431</ele><time>2020-01-18T13:33:24Z</time><name>PT10781</name></trkpt>
<trkpt lat="52.856867" lon="-3.378304"><ele>431</ele><time>2020-01-18T13:33:26Z</time><name>PT10782</name></trkpt>
<trkpt lat="52.856863" lon="-3.378304"><ele>431</ele><time>2020-01-18T13:33:26Z</time><name>PT10783</name></trkpt>
<trkpt lat="52.856858" lon="-3.378300"><ele>431</ele><time>2020-01-18T13:33:27Z</time><name>PT10784</name></trkpt>
<trkpt lat="52.856853" lon="-3.378295"><ele>430</ele><time>2020-01-18T13:33:29Z</time><name>PT10785</name></trkpt>
<trkpt lat="52.856849" lon="-3.378287"><ele>430</ele><time>2020-01-18T13:33:29Z</time><name>PT10786</name></trkpt>
<trkpt lat="52.856844" lon="-3.378284"><ele>429</ele><time>2020-01-18T13:33:30Z</time><name>PT10787</name></trkpt>
<trkpt lat="52.856839" lon="-3.378290"><ele>429</ele><time>2020-01-18T13:33:32Z</time><name>PT10788</name></trkpt>
<trkpt lat="52.856835" lon="-3.378295"><ele>429</ele><time>2020-01-18T13:33:32Z</time><name>PT10789</name></trkpt>
<trkpt lat="52.856831" lon="-3.378298"><ele>429</ele><time>2020-01-18T13:33:33Z</time><name>PT10790</name></trkpt>
<trkpt lat="52.856825" lon="-3.378295"><ele>429</ele><time>2020-01-18T13:33:35Z</time><name>PT10791</name></trkpt>
<trkpt lat="52.856822" lon="-3.378292"><ele>428</ele><time>2020-01-18T13:33:35Z</time><name>PT10792</name></trkpt>
<trkpt lat="52.856813" lon="-3.378291"><ele>428</ele><time>2020-01-18T13:33:36Z</time><name>PT10793</name></trkpt>
<trkpt lat="52.856808" lon="-3.378296"><ele>427</ele><time>2020-01-18T13:33:38Z</time><name>PT10794</name></trkpt>
<trkpt lat="52.856800" lon="-3.378297"><ele>428</ele><time>2020-01-18T13:33:38Z</time><name>PT10795</name></trkpt>
<trkpt lat="52.856798" lon="-3.378298"><ele>427</ele><time>2020-01-18T13:33:39Z</time><name>PT10796</name></trkpt>
<trkpt lat="52.856791" lon="-3.378301"><ele>427</ele><time>2020-01-18T13:33:41Z</time><name>PT10797</name></trkpt>
<trkpt lat="52.856788" lon="-3.378297"><ele>427</ele><time>2020-01-18T13:33:41Z</time><name>PT10798</name></trkpt>
<trkpt lat="52.856784" lon="-3.378297"><ele>426</ele><time>2020-01-18T13:33:42Z</time><name>PT10799</name></trkpt>
<trkpt lat="52.856779" lon="-3.378296"><ele>427</ele><time>2020-01-18T13:33:44Z</time><name>PT10800</name></trkpt>
<trkpt lat="52.856772" lon="-3.378294"><ele>427</ele><time>2020-01-18T13:33:44Z</time><name>PT10801</name></trkpt>
<trkpt lat="52.856765" lon="-3.378295"><ele>426</ele><time>2020-01-18T13:33:45Z</time><name>PT10802</name></trkpt>
<trkpt lat="52.856762" lon="-3.378297"><ele>426</ele><time>2020-01-18T13:33:47Z</time><name>PT10803</name></trkpt>
<trkpt lat="52.856751" lon="-3.378297"><ele>426</ele><time>2020-01-18T13:33:47Z</time><name>PT10804</name></trkpt>
<trkpt lat="52.856736" lon="-3.378298"><ele>426</ele><time>2020-01-18T13:33:48Z</time><name>PT10805</name></trkpt>
<trkpt lat="52.856728" lon="-3.378298"><ele>426</ele><time>2020-01-18T13:33:50Z</time><name>PT10806</name></trkpt>
<trkpt lat="52.856722" lon="-3.378300"><ele>426</ele><time>2020-01-18T13:33:50Z</time><name>PT10807</name></trkpt>
<trkpt lat="52.856717" lon="-3.378306"><ele>425</ele><time>2020-01-18T13:33:51Z</time><name>PT10808</name></trkpt>
<trkpt lat="52.856706" lon="-3.378304"><ele>425</ele><time>2020-01-18T13:33:53Z</time><name>PT10809</name></trkpt>
<trkpt lat="52.856698" lon="-3.378305"><ele>424</ele><time>2020-01-18T13:33:53Z</time><name>PT10810</name></trkpt>
<trkpt lat="52.856690" lon="-3.378308"><ele>424</ele><time>2020-01-18T13:33:54Z</time><name>PT10811</name></trkpt>
<trkpt lat="52.856685" lon="-3.378315"><ele>424</ele><time>2020-01-18T13:33:56Z</time><name>PT10812</name></trkpt>
<trkpt lat="52.856676" lon="-3.378320"><ele>424</ele><time>2020-01-18T13:33:56Z</time><name>PT10813</name></trkpt>
<trkpt lat="52.856670" lon="-3.378321"><ele>424</ele><time>2020-01-18T13:33:57Z</time><name>PT10814</name></trkpt>
<trkpt lat="52.856664" lon="-3.378323"><ele>424</ele><time>2020-01-18T13:33:59Z</time><name>PT10815</name></trkpt>
<trkpt lat="52.856657" lon="-3.378323"><ele>423</ele><time>2020-01-18T13:33:59Z</time><name>PT10816</name></trkpt>
<trkpt lat="52.856649" lon="-3.378319"><ele>423</ele><time>2020-01-18T13:34:00Z</time><name>PT10817</name></trkpt>
<trkpt lat="52.856645" lon="-3.378315"><ele>423</ele><time>2020-01-18T13:34:02Z</time><name>PT10818</name></trkpt>
<trkpt lat="52.856641" lon="-3.378314"><ele>423</ele><time>2020-01-18T13:34:02Z</time><name>PT10819</name></trkpt>
<trkpt lat="52.856635" lon="-3.378313"><ele>423</ele><time>2020-01-18T13:34:03Z</time><name>PT10820</name></trkpt>
<trkpt lat="52.856624" lon="-3.378308"><ele>423</ele><time>2020-01-18T13:34:05Z</time><name>PT10821</name></trkpt>
<trkpt lat="52.856619" lon="-3.378309"><ele>423</ele><time>2020-01-18T13:34:05Z</time><name>PT10822</name></trkpt>
<trkpt lat="52.856611" lon="-3.378308"><ele>423</ele><time>2020-01-18T13:34:06Z</time><name>PT10823</name></trkpt>
<trkpt lat="52.856605" lon="-3.378310"><ele>422</ele><time>2020-01-18T13:34:08Z</time><name>PT10824</name></trkpt>
<trkpt lat="52.856598" lon="-3.378309"><ele>422</ele><time>2020-01-18T13:34:08Z</time><name>PT10825</name></trkpt>
<trkpt lat="52.856593" lon="-3.378308"><ele>422</ele><time>2020-01-18T13:34:09Z</time><name>PT10826</name></trkpt>
<trkpt lat="52.856586" lon="-3.378308"><ele>422</ele><time>2020-01-18T13:34:11Z</time><name>PT10827</name></trkpt>
<trkpt lat="52.856580" lon="-3.378307"><ele>421</ele><time>2020-01-18T13:34:11Z</time><name>PT10828</name></trkpt>
<trkpt lat="52.856573" lon="-3.378307"><ele>421</ele><time>2020-01-18T13:34:12Z</time><name>PT10829</name></trkpt>
<trkpt lat="52.856568" lon="-3.378316"><ele>420</ele><time>2020-01-18T13:34:14Z</time><name>PT10830</name></trkpt>
<trkpt lat="52.856565" lon="-3.378316"><ele>420</ele><time>2020-01-18T13:34:14Z</time><name>PT10831</name></trkpt>
<trkpt lat="52.856565" lon="-3.378317"><ele>420</ele><time>2020-01-18T13:34:15Z</time><name>PT10832</name></trkpt>
<trkpt lat="52.856561" lon="-3.378320"><ele>419</ele><time>2020-01-18T13:34:17Z</time><name>PT10833</name></trkpt>
<trkpt lat="52.856560" lon="-3.378329"><ele>418</ele><time>2020-01-18T13:34:17Z</time><name>PT10834</name></trkpt>
<trkpt lat="52.856555" lon="-3.378326"><ele>417</ele><time>2020-01-18T13:34:19Z</time><name>PT10835</name></trkpt>
<trkpt lat="52.856548" lon="-3.378319"><ele>417</ele><time>2020-01-18T13:34:20Z</time><name>PT10836</name></trkpt>
<trkpt lat="52.856535" lon="-3.378299"><ele>417</ele><time>2020-01-18T13:34:20Z</time><name>PT10837</name></trkpt>
<trkpt lat="52.856527" lon="-3.378289"><ele>417</ele><time>2020-01-18T13:34:22Z</time><name>PT10838</name></trkpt>
<trkpt lat="52.856515" lon="-3.378288"><ele>417</ele><time>2020-01-18T13:34:23Z</time><name>PT10839</name></trkpt>
<trkpt lat="52.856504" lon="-3.378293"><ele>416</ele><time>2020-01-18T13:34:24Z</time><name>PT10840</name></trkpt>
<trkpt lat="52.856496" lon="-3.378295"><ele>416</ele><time>2020-01-18T13:34:25Z</time><name>PT10841</name></trkpt>
<trkpt lat="52.856490" lon="-3.378301"><ele>415</ele><time>2020-01-18T13:34:26Z</time><name>PT10842</name></trkpt>
<trkpt lat="52.856486" lon="-3.378307"><ele>415</ele><time>2020-01-18T13:34:26Z</time><name>PT10843</name></trkpt>
<trkpt lat="52.856481" lon="-3.378312"><ele>416</ele><time>2020-01-18T13:34:27Z</time><name>PT10844</name></trkpt>
<trkpt lat="52.856475" lon="-3.378312"><ele>416</ele><time>2020-01-18T13:34:29Z</time><name>PT10845</name></trkpt>
<trkpt lat="52.856467" lon="-3.378318"><ele>415</ele><time>2020-01-18T13:34:29Z</time><name>PT10846</name></trkpt>
<trkpt lat="52.856463" lon="-3.378326"><ele>415</ele><time>2020-01-18T13:34:30Z</time><name>PT10847</name></trkpt>
<trkpt lat="52.856453" lon="-3.378332"><ele>415</ele><time>2020-01-18T13:34:32Z</time><name>PT10848</name></trkpt>
<trkpt lat="52.856445" lon="-3.378338"><ele>415</ele><time>2020-01-18T13:34:32Z</time><name>PT10849</name></trkpt>
<trkpt lat="52.856439" lon="-3.378342"><ele>414</ele><time>2020-01-18T13:34:33Z</time><name>PT10850</name></trkpt>
<trkpt lat="52.856437" lon="-3.378343"><ele>414</ele><time>2020-01-18T13:34:35Z</time><name>PT10851</name></trkpt>
<trkpt lat="52.856431" lon="-3.378348"><ele>413</ele><time>2020-01-18T13:34:35Z</time><name>PT10852</name></trkpt>
<trkpt lat="52.856423" lon="-3.378356"><ele>413</ele><time>2020-01-18T13:34:36Z</time><name>PT10853</name></trkpt>
<trkpt lat="52.856415" lon="-3.378366"><ele>412</ele><time>2020-01-18T13:34:38Z</time><name>PT10854</name></trkpt>
<trkpt lat="52.856406" lon="-3.378377"><ele>412</ele><time>2020-01-18T13:34:38Z</time><name>PT10855</name></trkpt>
<trkpt lat="52.856396" lon="-3.378390"><ele>412</ele><time>2020-01-18T13:34:39Z</time><name>PT10856</name></trkpt>
<trkpt lat="52.856393" lon="-3.378399"><ele>411</ele><time>2020-01-18T13:34:41Z</time><name>PT10857</name></trkpt>
<trkpt lat="52.856383" lon="-3.378408"><ele>412</ele><time>2020-01-18T13:34:41Z</time><name>PT10858</name></trkpt>
<trkpt lat="52.856377" lon="-3.378412"><ele>412</ele><time>2020-01-18T13:34:42Z</time><name>PT10859</name></trkpt>
<trkpt lat="52.856368" lon="-3.378418"><ele>412</ele><time>2020-01-18T13:34:44Z</time><name>PT10860</name></trkpt>
<trkpt lat="52.856363" lon="-3.378431"><ele>412</ele><time>2020-01-18T13:34:44Z</time><name>PT10861</name></trkpt>
<trkpt lat="52.856354" lon="-3.378444"><ele>411</ele><time>2020-01-18T13:34:45Z</time><name>PT10862</name></trkpt>
<trkpt lat="52.856348" lon="-3.378455"><ele>411</ele><time>2020-01-18T13:34:47Z</time><name>PT10863</name></trkpt>
<trkpt lat="52.856340" lon="-3.378463"><ele>411</ele><time>2020-01-18T13:34:47Z</time><name>PT10864</name></trkpt>
<trkpt lat="52.856337" lon="-3.378473"><ele>410</ele><time>2020-01-18T13:34:48Z</time><name>PT10865</name></trkpt>
<trkpt lat="52.856328" lon="-3.378481"><ele>410</ele><time>2020-01-18T13:34:50Z</time><name>PT10866</name></trkpt>
<trkpt lat="52.856319" lon="-3.378487"><ele>410</ele><time>2020-01-18T13:34:50Z</time><name>PT10867</name></trkpt>
<trkpt lat="52.856309" lon="-3.378493"><ele>410</ele><time>2020-01-18T13:34:51Z</time><name>PT10868</name></trkpt>
<trkpt lat="52.856300" lon="-3.378503"><ele>409</ele><time>2020-01-18T13:34:53Z</time><name>PT10869</name></trkpt>
<trkpt lat="52.856293" lon="-3.378509"><ele>409</ele><time>2020-01-18T13:34:53Z</time><name>PT10870</name></trkpt>
<trkpt lat="52.856296" lon="-3.378512"><ele>408</ele><time>2020-01-18T13:34:54Z</time><name>PT10871</name></trkpt>
<trkpt lat="52.856294" lon="-3.378518"><ele>408</ele><time>2020-01-18T13:34:56Z</time><name>PT10872</name></trkpt>
<trkpt lat="52.856285" lon="-3.378521"><ele>409</ele><time>2020-01-18T13:34:56Z</time><name>PT10873</name></trkpt>
<trkpt lat="52.856277" lon="-3.378523"><ele>409</ele><time>2020-01-18T13:34:57Z</time><name>PT10874</name></trkpt>
<trkpt lat="52.856272" lon="-3.378529"><ele>408</ele><time>2020-01-18T13:34:59Z</time><name>PT10875</name></trkpt>
<trkpt lat="52.856266" lon="-3.378533"><ele>408</ele><time>2020-01-18T13:34:59Z</time><name>PT10876</name></trkpt>
<trkpt lat="52.856262" lon="-3.378538"><ele>407</ele><time>2020-01-18T13:35:00Z</time><name>PT10877</name></trkpt>
<trkpt lat="52.856254" lon="-3.378544"><ele>407</ele><time>2020-01-18T13:35:02Z</time><name>PT10878</name></trkpt>
<trkpt lat="52.856245" lon="-3.378549"><ele>407</ele><time>2020-01-18T13:35:02Z</time><name>PT10879</name></trkpt>
<trkpt lat="52.856240" lon="-3.378553"><ele>407</ele><time>2020-01-18T13:35:03Z</time><name>PT10880</name></trkpt>
<trkpt lat="52.856231" lon="-3.378558"><ele>406</ele><time>2020-01-18T13:35:05Z</time><name>PT10881</name></trkpt>
<trkpt lat="52.856224" lon="-3.378566"><ele>405</ele><time>2020-01-18T13:35:05Z</time><name>PT10882</name></trkpt>
<trkpt lat="52.856215" lon="-3.378568"><ele>404</ele><time>2020-01-18T13:35:06Z</time><name>PT10883</name></trkpt>
<trkpt lat="52.856205" lon="-3.378570"><ele>405</ele><time>2020-01-18T13:35:08Z</time><name>PT10884</name></trkpt>
<trkpt lat="52.856199" lon="-3.378574"><ele>405</ele><time>2020-01-18T13:35:08Z</time><name>PT10885</name></trkpt>
<trkpt lat="52.856187" lon="-3.378580"><ele>405</ele><time>2020-01-18T13:35:09Z</time><name>PT10886</name></trkpt>
<trkpt lat="52.856178" lon="-3.378588"><ele>405</ele><time>2020-01-18T13:35:11Z</time><name>PT10887</name></trkpt>
<trkpt lat="52.856172" lon="-3.378599"><ele>405</ele><time>2020-01-18T13:35:11Z</time><name>PT10888</name></trkpt>
<trkpt lat="52.856169" lon="-3.378605"><ele>405</ele><time>2020-01-18T13:35:12Z</time><name>PT10889</name></trkpt>
<trkpt lat="52.856165" lon="-3.378611"><ele>405</ele><time>2020-01-18T13:35:14Z</time><name>PT10890</name></trkpt>
<trkpt lat="52.856162" lon="-3.378621"><ele>405</ele><time>2020-01-18T13:35:14Z</time><name>PT10891</name></trkpt>
<trkpt lat="52.856158" lon="-3.378630"><ele>404</ele><time>2020-01-18T13:35:15Z</time><name>PT10892</name></trkpt>
<trkpt lat="52.856156" lon="-3.378635"><ele>405</ele><time>2020-01-18T13:35:17Z</time><name>PT10893</name></trkpt>
<trkpt lat="52.856152" lon="-3.378639"><ele>405</ele><time>2020-01-18T13:35:17Z</time><name>PT10894</name></trkpt>
<trkpt lat="52.856149" lon="-3.378642"><ele>404</ele><time>2020-01-18T13:35:18Z</time><name>PT10895</name></trkpt>
<trkpt lat="52.856145" lon="-3.378645"><ele>404</ele><time>2020-01-18T13:35:20Z</time><name>PT10896</name></trkpt>
<trkpt lat="52.856134" lon="-3.378659"><ele>404</ele><time>2020-01-18T13:35:33Z</time><name>PT10897</name></trkpt>
<trkpt lat="52.856131" lon="-3.378661"><ele>404</ele><time>2020-01-18T13:35:35Z</time><name>PT10898</name></trkpt>
<trkpt lat="52.856129" lon="-3.378662"><ele>404</ele><time>2020-01-18T13:35:57Z</time><name>PT10899</name></trkpt>
<trkpt lat="52.856128" lon="-3.378659"><ele>404</ele><time>2020-01-18T13:35:59Z</time><name>PT10900</name></trkpt>
<trkpt lat="52.856128" lon="-3.378659"><ele>404</ele><time>2020-01-18T13:35:59Z</time><name>PT10901</name></trkpt>
<trkpt lat="52.856127" lon="-3.378655"><ele>404</ele><time>2020-01-18T13:36:00Z</time><name>PT10902</name></trkpt>
<trkpt lat="52.856127" lon="-3.378653"><ele>404</ele><time>2020-01-18T13:36:02Z</time><name>PT10903</name></trkpt>
<trkpt lat="52.856125" lon="-3.378650"><ele>404</ele><time>2020-01-18T13:36:02Z</time><name>PT10904</name></trkpt>
<trkpt lat="52.856123" lon="-3.378647"><ele>403</ele><time>2020-01-18T13:36:03Z</time><name>PT10905</name></trkpt>
<trkpt lat="52.856125" lon="-3.378646"><ele>403</ele><time>2020-01-18T13:36:05Z</time><name>PT10906</name></trkpt>
<trkpt lat="52.856122" lon="-3.378642"><ele>404</ele><time>2020-01-18T13:36:05Z</time><name>PT10907</name></trkpt>
<trkpt lat="52.856121" lon="-3.378642"><ele>403</ele><time>2020-01-18T13:36:06Z</time><name>PT10908</name></trkpt>
<trkpt lat="52.856126" lon="-3.378639"><ele>403</ele><time>2020-01-18T13:36:08Z</time><name>PT10909</name></trkpt>
<trkpt lat="52.856123" lon="-3.378640"><ele>404</ele><time>2020-01-18T13:36:08Z</time><name>PT10910</name></trkpt>
<trkpt lat="52.856121" lon="-3.378639"><ele>404</ele><time>2020-01-18T13:36:09Z</time><name>PT10911</name></trkpt>
<trkpt lat="52.856123" lon="-3.378641"><ele>405</ele><time>2020-01-18T13:36:11Z</time><name>PT10912</name></trkpt>
<trkpt lat="52.856121" lon="-3.378642"><ele>404</ele><time>2020-01-18T13:36:27Z</time><name>PT10913</name></trkpt>
<trkpt lat="52.856118" lon="-3.378652"><ele>405</ele><time>2020-01-18T13:36:29Z</time><name>PT10914</name></trkpt>
<trkpt lat="52.856116" lon="-3.378657"><ele>405</ele><time>2020-01-18T13:36:29Z</time><name>PT10915</name></trkpt>
<trkpt lat="52.856118" lon="-3.378651"><ele>406</ele><time>2020-01-18T13:36:41Z</time><name>PT10916</name></trkpt>
<trkpt lat="52.856117" lon="-3.378648"><ele>405</ele><time>2020-01-18T13:36:41Z</time><name>PT10917</name></trkpt>
<trkpt lat="52.856115" lon="-3.378646"><ele>406</ele><time>2020-01-18T13:36:42Z</time><name>PT10918</name></trkpt>
<trkpt lat="52.856113" lon="-3.378648"><ele>406</ele><time>2020-01-18T13:36:44Z</time><name>PT10919</name></trkpt>
<trkpt lat="52.856111" lon="-3.378646"><ele>406</ele><time>2020-01-18T13:36:44Z</time><name>PT10920</name></trkpt>
<trkpt lat="52.856113" lon="-3.378648"><ele>406</ele><time>2020-01-18T13:36:45Z</time><name>PT10921</name></trkpt>
<trkpt lat="52.856110" lon="-3.378655"><ele>407</ele><time>2020-01-18T13:36:47Z</time><name>PT10922</name></trkpt>
<trkpt lat="52.856103" lon="-3.378652"><ele>407</ele><time>2020-01-18T13:36:47Z</time><name>PT10923</name></trkpt>
<trkpt lat="52.856104" lon="-3.378648"><ele>407</ele><time>2020-01-18T13:36:48Z</time><name>PT10924</name></trkpt>
<trkpt lat="52.856096" lon="-3.378646"><ele>406</ele><time>2020-01-18T13:36:50Z</time><name>PT10925</name></trkpt>
<trkpt lat="52.856092" lon="-3.378648"><ele>406</ele><time>2020-01-18T13:36:50Z</time><name>PT10926</name></trkpt>
<trkpt lat="52.856086" lon="-3.378660"><ele>406</ele><time>2020-01-18T13:36:51Z</time><name>PT10927</name></trkpt>
<trkpt lat="52.856077" lon="-3.378672"><ele>406</ele><time>2020-01-18T13:36:53Z</time><name>PT10928</name></trkpt>
<trkpt lat="52.856072" lon="-3.378678"><ele>406</ele><time>2020-01-18T13:36:53Z</time><name>PT10929</name></trkpt>
<trkpt lat="52.856064" lon="-3.378688"><ele>406</ele><time>2020-01-18T13:36:54Z</time><name>PT10930</name></trkpt>
<trkpt lat="52.856058" lon="-3.378695"><ele>406</ele><time>2020-01-18T13:36:56Z</time><name>PT10931</name></trkpt>
<trkpt lat="52.856050" lon="-3.378696"><ele>405</ele><time>2020-01-18T13:36:56Z</time><name>PT10932</name></trkpt>
<trkpt lat="52.856045" lon="-3.378695"><ele>405</ele><time>2020-01-18T13:36:57Z</time><name>PT10933</name></trkpt>
<trkpt lat="52.856036" lon="-3.378700"><ele>404</ele><time>2020-01-18T13:36:59Z</time><name>PT10934</name></trkpt>
<trkpt lat="52.856030" lon="-3.378699"><ele>404</ele><time>2020-01-18T13:36:59Z</time><name>PT10935</name></trkpt>
<trkpt lat="52.856017" lon="-3.378698"><ele>404</ele><time>2020-01-18T13:37:00Z</time><name>PT10936</name></trkpt>
<trkpt lat="52.856008" lon="-3.378706"><ele>404</ele><time>2020-01-18T13:37:02Z</time><name>PT10937</name></trkpt>
<trkpt lat="52.856000" lon="-3.378719"><ele>403</ele><time>2020-01-18T13:37:02Z</time><name>PT10938</name></trkpt>
<trkpt lat="52.855997" lon="-3.378725"><ele>403</ele><time>2020-01-18T13:37:03Z</time><name>PT10939</name></trkpt>
<trkpt lat="52.855992" lon="-3.378734"><ele>402</ele><time>2020-01-18T13:37:05Z</time><name>PT10940</name></trkpt>
<trkpt lat="52.855996" lon="-3.378742"><ele>403</ele><time>2020-01-18T13:37:05Z</time><name>PT10941</name></trkpt>
<trkpt lat="52.855990" lon="-3.378749"><ele>403</ele><time>2020-01-18T13:37:06Z</time><name>PT10942</name></trkpt>
<trkpt lat="52.855981" lon="-3.378761"><ele>402</ele><time>2020-01-18T13:37:08Z</time><name>PT10943</name></trkpt>
<trkpt lat="52.855978" lon="-3.378761"><ele>401</ele><time>2020-01-18T13:37:08Z</time><name>PT10944</name></trkpt>
<trkpt lat="52.855973" lon="-3.378764"><ele>401</ele><time>2020-01-18T13:37:09Z</time><name>PT10945</name></trkpt>
<trkpt lat="52.855957" lon="-3.378766"><ele>400</ele><time>2020-01-18T13:37:11Z</time><name>PT10946</name></trkpt>
<trkpt lat="52.855946" lon="-3.378763"><ele>401</ele><time>2020-01-18T13:37:11Z</time><name>PT10947</name></trkpt>
<trkpt lat="52.855937" lon="-3.378763"><ele>401</ele><time>2020-01-18T13:37:12Z</time><name>PT10948</name></trkpt>
<trkpt lat="52.855933" lon="-3.378762"><ele>402</ele><time>2020-01-18T13:37:14Z</time><name>PT10949</name></trkpt>
<trkpt lat="52.855925" lon="-3.378762"><ele>402</ele><time>2020-01-18T13:37:14Z</time><name>PT10950</name></trkpt>
<trkpt lat="52.855918" lon="-3.378761"><ele>403</ele><time>2020-01-18T13:37:15Z</time><name>PT10951</name></trkpt>
<trkpt lat="52.855907" lon="-3.378762"><ele>403</ele><time>2020-01-18T13:37:17Z</time><name>PT10952</name></trkpt>
<trkpt lat="52.855900" lon="-3.378759"><ele>403</ele><time>2020-01-18T13:37:17Z</time><name>PT10953</name></trkpt>
<trkpt lat="52.855895" lon="-3.378757"><ele>403</ele><time>2020-01-18T13:37:18Z</time><name>PT10954</name></trkpt>
<trkpt lat="52.855885" lon="-3.378756"><ele>403</ele><time>2020-01-18T13:37:20Z</time><name>PT10955</name></trkpt>
<trkpt lat="52.855875" lon="-3.378752"><ele>404</ele><time>2020-01-18T13:37:20Z</time><name>PT10956</name></trkpt>
<trkpt lat="52.855865" lon="-3.378763"><ele>403</ele><time>2020-01-18T13:37:21Z</time><name>PT10957</name></trkpt>
<trkpt lat="52.855855" lon="-3.378767"><ele>403</ele><time>2020-01-18T13:37:23Z</time><name>PT10958</name></trkpt>
<trkpt lat="52.855849" lon="-3.378778"><ele>400</ele><time>2020-01-18T13:37:23Z</time><name>PT10959</name></trkpt>
<trkpt lat="52.855843" lon="-3.378782"><ele>400</ele><time>2020-01-18T13:37:24Z</time><name>PT10960</name></trkpt>
<trkpt lat="52.855832" lon="-3.378785"><ele>400</ele><time>2020-01-18T13:37:26Z</time><name>PT10961</name></trkpt>
<trkpt lat="52.855823" lon="-3.378789"><ele>399</ele><time>2020-01-18T13:37:26Z</time><name>PT10962</name></trkpt>
<trkpt lat="52.855821" lon="-3.378789"><ele>399</ele><time>2020-01-18T13:37:27Z</time><name>PT10963</name></trkpt>
<trkpt lat="52.855815" lon="-3.378793"><ele>399</ele><time>2020-01-18T13:37:29Z</time><name>PT10964</name></trkpt>
<trkpt lat="52.855809" lon="-3.378799"><ele>399</ele><time>2020-01-18T13:37:29Z</time><name>PT10965</name></trkpt>
<trkpt lat="52.855798" lon="-3.378801"><ele>399</ele><time>2020-01-18T13:37:30Z</time><name>PT10966</name></trkpt>
<trkpt lat="52.855795" lon="-3.378802"><ele>400</ele><time>2020-01-18T13:37:32Z</time><name>PT10967</name></trkpt>
<trkpt lat="52.855786" lon="-3.378807"><ele>400</ele><time>2020-01-18T13:37:32Z</time><name>PT10968</name></trkpt>
<trkpt lat="52.855780" lon="-3.378816"><ele>400</ele><time>2020-01-18T13:37:33Z</time><name>PT10969</name></trkpt>
<trkpt lat="52.855775" lon="-3.378829"><ele>399</ele><time>2020-01-18T13:37:35Z</time><name>PT10970</name></trkpt>
<trkpt lat="52.855767" lon="-3.378838"><ele>398</ele><time>2020-01-18T13:37:35Z</time><name>PT10971</name></trkpt>
<trkpt lat="52.855764" lon="-3.378839"><ele>399</ele><time>2020-01-18T13:37:36Z</time><name>PT10972</name></trkpt>
<trkpt lat="52.855775" lon="-3.378841"><ele>400</ele><time>2020-01-18T13:37:38Z</time><name>PT10973</name></trkpt>
<trkpt lat="52.855765" lon="-3.378842"><ele>399</ele><time>2020-01-18T13:37:38Z</time><name>PT10974</name></trkpt>
<trkpt lat="52.855754" lon="-3.378840"><ele>399</ele><time>2020-01-18T13:37:39Z</time><name>PT10975</name></trkpt>
<trkpt lat="52.855745" lon="-3.378839"><ele>400</ele><time>2020-01-18T13:37:41Z</time><name>PT10976</name></trkpt>
<trkpt lat="52.855737" lon="-3.378838"><ele>399</ele><time>2020-01-18T13:37:41Z</time><name>PT10977</name></trkpt>
<trkpt lat="52.855733" lon="-3.378827"><ele>400</ele><time>2020-01-18T13:37:42Z</time><name>PT10978</name></trkpt>
<trkpt lat="52.855722" lon="-3.378819"><ele>400</ele><time>2020-01-18T13:37:44Z</time><name>PT10979</name></trkpt>
<trkpt lat="52.855713" lon="-3.378816"><ele>400</ele><time>2020-01-18T13:37:44Z</time><name>PT10980</name></trkpt>
<trkpt lat="52.855711" lon="-3.378818"><ele>399</ele><time>2020-01-18T13:37:46Z</time><name>PT10981</name></trkpt>
<trkpt lat="52.855707" lon="-3.378819"><ele>399</ele><time>2020-01-18T13:37:47Z</time><name>PT10982</name></trkpt>
<trkpt lat="52.855702" lon="-3.378820"><ele>398</ele><time>2020-01-18T13:37:47Z</time><name>PT10983</name></trkpt>
<trkpt lat="52.855693" lon="-3.378824"><ele>398</ele><time>2020-01-18T13:37:48Z</time><name>PT10984</name></trkpt>
<trkpt lat="52.855684" lon="-3.378827"><ele>398</ele><time>2020-01-18T13:37:50Z</time><name>PT10985</name></trkpt>
<trkpt lat="52.855676" lon="-3.378820"><ele>399</ele><time>2020-01-18T13:37:50Z</time><name>PT10986</name></trkpt>
<trkpt lat="52.855670" lon="-3.378815"><ele>400</ele><time>2020-01-18T13:37:51Z</time><name>PT10987</name></trkpt>
<trkpt lat="52.855661" lon="-3.378816"><ele>400</ele><time>2020-01-18T13:37:53Z</time><name>PT10988</name></trkpt>
<trkpt lat="52.855654" lon="-3.378810"><ele>401</ele><time>2020-01-18T13:37:53Z</time><name>PT10989</name></trkpt>
<trkpt lat="52.855646" lon="-3.378814"><ele>401</ele><time>2020-01-18T13:37:54Z</time><name>PT10990</name></trkpt>
<trkpt lat="52.855638" lon="-3.378815"><ele>401</ele><time>2020-01-18T13:37:56Z</time><name>PT10991</name></trkpt>
<trkpt lat="52.855633" lon="-3.378821"><ele>400</ele><time>2020-01-18T13:37:56Z</time><name>PT10992</name></trkpt>
<trkpt lat="52.855623" lon="-3.378825"><ele>399</ele><time>2020-01-18T13:37:57Z</time><name>PT10993</name></trkpt>
<trkpt lat="52.855611" lon="-3.378826"><ele>399</ele><time>2020-01-18T13:37:59Z</time><name>PT10994</name></trkpt>
<trkpt lat="52.855605" lon="-3.378822"><ele>399</ele><time>2020-01-18T13:37:59Z</time><name>PT10995</name></trkpt>
<trkpt lat="52.855600" lon="-3.378818"><ele>399</ele><time>2020-01-18T13:38:00Z</time><name>PT10996</name></trkpt>
<trkpt lat="52.855593" lon="-3.378818"><ele>398</ele><time>2020-01-18T13:38:02Z</time><name>PT10997</name></trkpt>
<trkpt lat="52.855589" lon="-3.378820"><ele>397</ele><time>2020-01-18T13:38:06Z</time><name>PT10998</name></trkpt>
<trkpt lat="52.855568" lon="-3.378818"><ele>397</ele><time>2020-01-18T13:38:08Z</time><name>PT10999</name></trkpt>
<trkpt lat="52.855556" lon="-3.378821"><ele>397</ele><time>2020-01-18T13:38:08Z</time><name>PT11000</name></trkpt>
<trkpt lat="52.855539" lon="-3.378825"><ele>397</ele><time>2020-01-18T13:38:09Z</time><name>PT11001</name></trkpt>
<trkpt lat="52.855537" lon="-3.378835"><ele>397</ele><time>2020-01-18T13:38:11Z</time><name>PT11002</name></trkpt>
<trkpt lat="52.855529" lon="-3.378841"><ele>397</ele><time>2020-01-18T13:38:11Z</time><name>PT11003</name></trkpt>
<trkpt lat="52.855521" lon="-3.378844"><ele>397</ele><time>2020-01-18T13:38:12Z</time><name>PT11004</name></trkpt>
<trkpt lat="52.855511" lon="-3.378844"><ele>397</ele><time>2020-01-18T13:38:14Z</time><name>PT11005</name></trkpt>
<trkpt lat="52.855506" lon="-3.378847"><ele>396</ele><time>2020-01-18T13:38:14Z</time><name>PT11006</name></trkpt>
<trkpt lat="52.855489" lon="-3.378821"><ele>398</ele><time>2020-01-18T13:38:29Z</time><name>PT11007</name></trkpt>
<trkpt lat="52.855482" lon="-3.378809"><ele>397</ele><time>2020-01-18T13:38:29Z</time><name>PT11008</name></trkpt>
<trkpt lat="52.855468" lon="-3.378771"><ele>397</ele><time>2020-01-18T13:38:30Z</time><name>PT11009</name></trkpt>
<trkpt lat="52.855456" lon="-3.378760"><ele>396</ele><time>2020-01-18T13:38:32Z</time><name>PT11010</name></trkpt>
<trkpt lat="52.855444" lon="-3.378761"><ele>396</ele><time>2020-01-18T13:38:32Z</time><name>PT11011</name></trkpt>
<trkpt lat="52.855433" lon="-3.378758"><ele>396</ele><time>2020-01-18T13:38:33Z</time><name>PT11012</name></trkpt>
<trkpt lat="52.855421" lon="-3.378747"><ele>396</ele><time>2020-01-18T13:38:35Z</time><name>PT11013</name></trkpt>
<trkpt lat="52.855411" lon="-3.378744"><ele>395</ele><time>2020-01-18T13:38:35Z</time><name>PT11014</name></trkpt>
<trkpt lat="52.855404" lon="-3.378739"><ele>394</ele><time>2020-01-18T13:38:36Z</time><name>PT11015</name></trkpt>
<trkpt lat="52.855401" lon="-3.378741"><ele>394</ele><time>2020-01-18T13:38:38Z</time><name>PT11016</name></trkpt>
<trkpt lat="52.855392" lon="-3.378738"><ele>393</ele><time>2020-01-18T13:38:38Z</time><name>PT11017</name></trkpt>
<trkpt lat="52.855383" lon="-3.378735"><ele>392</ele><time>2020-01-18T13:38:39Z</time><name>PT11018</name></trkpt>
<trkpt lat="52.855377" lon="-3.378735"><ele>391</ele><time>2020-01-18T13:38:41Z</time><name>PT11019</name></trkpt>
<trkpt lat="52.855368" lon="-3.378744"><ele>391</ele><time>2020-01-18T13:38:41Z</time><name>PT11020</name></trkpt>
<trkpt lat="52.855370" lon="-3.378747"><ele>390</ele><time>2020-01-18T13:38:42Z</time><name>PT11021</name></trkpt>
<trkpt lat="52.855362" lon="-3.378755"><ele>390</ele><time>2020-01-18T13:38:44Z</time><name>PT11022</name></trkpt>
<trkpt lat="52.855356" lon="-3.378759"><ele>389</ele><time>2020-01-18T13:38:44Z</time><name>PT11023</name></trkpt>
<trkpt lat="52.855353" lon="-3.378761"><ele>389</ele><time>2020-01-18T13:38:45Z</time><name>PT11024</name></trkpt>
<trkpt lat="52.855350" lon="-3.378764"><ele>389</ele><time>2020-01-18T13:38:47Z</time><name>PT11025</name></trkpt>
<trkpt lat="52.855350" lon="-3.378766"><ele>389</ele><time>2020-01-18T13:38:47Z</time><name>PT11026</name></trkpt>
<trkpt lat="52.855352" lon="-3.378778"><ele>389</ele><time>2020-01-18T13:38:53Z</time><name>PT11027</name></trkpt>
<trkpt lat="52.855351" lon="-3.378796"><ele>389</ele><time>2020-01-18T13:38:54Z</time><name>PT11028</name></trkpt>
<trkpt lat="52.855348" lon="-3.378800"><ele>389</ele><time>2020-01-18T13:38:56Z</time><name>PT11029</name></trkpt>
<trkpt lat="52.855346" lon="-3.378802"><ele>388</ele><time>2020-01-18T13:38:56Z</time><name>PT11030</name></trkpt>
<trkpt lat="52.855345" lon="-3.378791"><ele>388</ele><time>2020-01-18T13:38:57Z</time><name>PT11031</name></trkpt>
<trkpt lat="52.855350" lon="-3.378797"><ele>388</ele><time>2020-01-18T13:38:59Z</time><name>PT11032</name></trkpt>
<trkpt lat="52.855352" lon="-3.378798"><ele>388</ele><time>2020-01-18T13:38:59Z</time><name>PT11033</name></trkpt>
<trkpt lat="52.855344" lon="-3.378810"><ele>389</ele><time>2020-01-18T13:39:02Z</time><name>PT11034</name></trkpt>
<trkpt lat="52.855344" lon="-3.378823"><ele>389</ele><time>2020-01-18T13:39:03Z</time><name>PT11035</name></trkpt>
<trkpt lat="52.855338" lon="-3.378835"><ele>388</ele><time>2020-01-18T13:39:05Z</time><name>PT11036</name></trkpt>
<trkpt lat="52.855333" lon="-3.378847"><ele>388</ele><time>2020-01-18T13:39:05Z</time><name>PT11037</name></trkpt>
<trkpt lat="52.855330" lon="-3.378857"><ele>388</ele><time>2020-01-18T13:39:06Z</time><name>PT11038</name></trkpt>
<trkpt lat="52.855330" lon="-3.378850"><ele>388</ele><time>2020-01-18T13:39:08Z</time><name>PT11039</name></trkpt>
<trkpt lat="52.855329" lon="-3.378852"><ele>388</ele><time>2020-01-18T13:39:09Z</time><name>PT11040</name></trkpt>
<trkpt lat="52.855331" lon="-3.378853"><ele>387</ele><time>2020-01-18T13:39:11Z</time><name>PT11041</name></trkpt>
<trkpt lat="52.855332" lon="-3.378860"><ele>387</ele><time>2020-01-18T13:39:11Z</time><name>PT11042</name></trkpt>
<trkpt lat="52.855331" lon="-3.378858"><ele>388</ele><time>2020-01-18T13:39:13Z</time><name>PT11043</name></trkpt>
<trkpt lat="52.855328" lon="-3.378862"><ele>388</ele><time>2020-01-18T13:39:14Z</time><name>PT11044</name></trkpt>
<trkpt lat="52.855325" lon="-3.378870"><ele>388</ele><time>2020-01-18T13:39:14Z</time><name>PT11045</name></trkpt>
<trkpt lat="52.855320" lon="-3.378879"><ele>388</ele><time>2020-01-18T13:39:15Z</time><name>PT11046</name></trkpt>
<trkpt lat="52.855315" lon="-3.378882"><ele>387</ele><time>2020-01-18T13:39:20Z</time><name>PT11047</name></trkpt>
<trkpt lat="52.855311" lon="-3.378875"><ele>388</ele><time>2020-01-18T13:39:21Z</time><name>PT11048</name></trkpt>
<trkpt lat="52.855308" lon="-3.378854"><ele>387</ele><time>2020-01-18T13:39:23Z</time><name>PT11049</name></trkpt>
<trkpt lat="52.855299" lon="-3.378845"><ele>386</ele><time>2020-01-18T13:39:23Z</time><name>PT11050</name></trkpt>
<trkpt lat="52.855292" lon="-3.378844"><ele>385</ele><time>2020-01-18T13:39:24Z</time><name>PT11051</name></trkpt>
<trkpt lat="52.855292" lon="-3.378854"><ele>385</ele><time>2020-01-18T13:39:26Z</time><name>PT11052</name></trkpt>
<trkpt lat="52.855289" lon="-3.378851"><ele>385</ele><time>2020-01-18T13:39:26Z</time><name>PT11053</name></trkpt>
<trkpt lat="52.855293" lon="-3.378855"><ele>385</ele><time>2020-01-18T13:39:27Z</time><name>PT11054</name></trkpt>
<trkpt lat="52.855290" lon="-3.378853"><ele>385</ele><time>2020-01-18T13:39:32Z</time><name>PT11055</name></trkpt>
<trkpt lat="52.855280" lon="-3.378834"><ele>386</ele><time>2020-01-18T13:39:32Z</time><name>PT11056</name></trkpt>
<trkpt lat="52.855282" lon="-3.378828"><ele>386</ele><time>2020-01-18T13:39:33Z</time><name>PT11057</name></trkpt>
<trkpt lat="52.855281" lon="-3.378821"><ele>386</ele><time>2020-01-18T13:39:35Z</time><name>PT11058</name></trkpt>
<trkpt lat="52.855279" lon="-3.378818"><ele>386</ele><time>2020-01-18T13:39:35Z</time><name>PT11059</name></trkpt>
<trkpt lat="52.855279" lon="-3.378815"><ele>385</ele><time>2020-01-18T13:39:36Z</time><name>PT11060</name></trkpt>
<trkpt lat="52.855278" lon="-3.378815"><ele>385</ele><time>2020-01-18T13:39:38Z</time><name>PT11061</name></trkpt>
<trkpt lat="52.855275" lon="-3.378817"><ele>384</ele><time>2020-01-18T13:39:38Z</time><name>PT11062</name></trkpt>
<trkpt lat="52.855277" lon="-3.378812"><ele>384</ele><time>2020-01-18T13:39:39Z</time><name>PT11063</name></trkpt>
<trkpt lat="52.855281" lon="-3.378818"><ele>384</ele><time>2020-01-18T13:39:44Z</time><name>PT11064</name></trkpt>
<trkpt lat="52.855281" lon="-3.378820"><ele>384</ele><time>2020-01-18T13:39:46Z</time><name>PT11065</name></trkpt>
<trkpt lat="52.855283" lon="-3.378815"><ele>384</ele><time>2020-01-18T13:39:47Z</time><name>PT11066</name></trkpt>
<trkpt lat="52.855276" lon="-3.378813"><ele>384</ele><time>2020-01-18T13:39:47Z</time><name>PT11067</name></trkpt>
<trkpt lat="52.855269" lon="-3.378809"><ele>383</ele><time>2020-01-18T13:39:48Z</time><name>PT11068</name></trkpt>
<trkpt lat="52.855265" lon="-3.378809"><ele>383</ele><time>2020-01-18T13:39:50Z</time><name>PT11069</name></trkpt>
<trkpt lat="52.855263" lon="-3.378808"><ele>383</ele><time>2020-01-18T13:39:50Z</time><name>PT11070</name></trkpt>
<trkpt lat="52.855258" lon="-3.378805"><ele>383</ele><time>2020-01-18T13:39:51Z</time><name>PT11071</name></trkpt>
<trkpt lat="52.855262" lon="-3.378809"><ele>382</ele><time>2020-01-18T13:39:54Z</time><name>PT11072</name></trkpt>
<trkpt lat="52.855268" lon="-3.378811"><ele>382</ele><time>2020-01-18T13:39:56Z</time><name>PT11073</name></trkpt>
<trkpt lat="52.855266" lon="-3.378812"><ele>383</ele><time>2020-01-18T13:39:56Z</time><name>PT11074</name></trkpt>
<trkpt lat="52.855261" lon="-3.378815"><ele>382</ele><time>2020-01-18T13:39:57Z</time><name>PT11075</name></trkpt>
<trkpt lat="52.855256" lon="-3.378808"><ele>382</ele><time>2020-01-18T13:39:59Z</time><name>PT11076</name></trkpt>
<trkpt lat="52.855250" lon="-3.378802"><ele>382</ele><time>2020-01-18T13:39:59Z</time><name>PT11077</name></trkpt>
<trkpt lat="52.855250" lon="-3.378794"><ele>381</ele><time>2020-01-18T13:40:00Z</time><name>PT11078</name></trkpt>
<trkpt lat="52.855247" lon="-3.378792"><ele>380</ele><time>2020-01-18T13:40:02Z</time><name>PT11079</name></trkpt>
<trkpt lat="52.855239" lon="-3.378792"><ele>380</ele><time>2020-01-18T13:40:02Z</time><name>PT11080</name></trkpt>
<trkpt lat="52.855238" lon="-3.378788"><ele>379</ele><time>2020-01-18T13:40:03Z</time><name>PT11081</name></trkpt>
<trkpt lat="52.855240" lon="-3.378791"><ele>379</ele><time>2020-01-18T13:40:05Z</time><name>PT11082</name></trkpt>
<trkpt lat="52.855236" lon="-3.378787"><ele>379</ele><time>2020-01-18T13:40:05Z</time><name>PT11083</name></trkpt>
<trkpt lat="52.855232" lon="-3.378787"><ele>379</ele><time>2020-01-18T13:40:06Z</time><name>PT11084</name></trkpt>
<trkpt lat="52.855228" lon="-3.378787"><ele>379</ele><time>2020-01-18T13:40:08Z</time><name>PT11085</name></trkpt>
<trkpt lat="52.855226" lon="-3.378786"><ele>380</ele><time>2020-01-18T13:40:08Z</time><name>PT11086</name></trkpt>
<trkpt lat="52.855226" lon="-3.378781"><ele>381</ele><time>2020-01-18T13:40:09Z</time><name>PT11087</name></trkpt>
<trkpt lat="52.855226" lon="-3.378783"><ele>381</ele><time>2020-01-18T13:40:11Z</time><name>PT11088</name></trkpt>
<trkpt lat="52.855227" lon="-3.378784"><ele>381</ele><time>2020-01-18T13:40:11Z</time><name>PT11089</name></trkpt>
<trkpt lat="52.855223" lon="-3.378785"><ele>381</ele><time>2020-01-18T13:40:12Z</time><name>PT11090</name></trkpt>
<trkpt lat="52.855220" lon="-3.378785"><ele>381</ele><time>2020-01-18T13:40:14Z</time><name>PT11091</name></trkpt>
<trkpt lat="52.855214" lon="-3.378779"><ele>382</ele><time>2020-01-18T13:40:14Z</time><name>PT11092</name></trkpt>
<trkpt lat="52.855209" lon="-3.378779"><ele>382</ele><time>2020-01-18T13:40:15Z</time><name>PT11093</name></trkpt>
<trkpt lat="52.855203" lon="-3.378777"><ele>381</ele><time>2020-01-18T13:40:17Z</time><name>PT11094</name></trkpt>
<trkpt lat="52.855199" lon="-3.378768"><ele>381</ele><time>2020-01-18T13:40:17Z</time><name>PT11095</name></trkpt>
<trkpt lat="52.855197" lon="-3.378761"><ele>381</ele><time>2020-01-18T13:40:18Z</time><name>PT11096</name></trkpt>
<trkpt lat="52.855194" lon="-3.378755"><ele>380</ele><time>2020-01-18T13:40:20Z</time><name>PT11097</name></trkpt>
<trkpt lat="52.855194" lon="-3.378751"><ele>381</ele><time>2020-01-18T13:40:20Z</time><name>PT11098</name></trkpt>
<trkpt lat="52.855188" lon="-3.378740"><ele>380</ele><time>2020-01-18T13:40:21Z</time><name>PT11099</name></trkpt>
<trkpt lat="52.855188" lon="-3.378732"><ele>380</ele><time>2020-01-18T13:40:23Z</time><name>PT11100</name></trkpt>
<trkpt lat="52.855185" lon="-3.378721"><ele>379</ele><time>2020-01-18T13:40:23Z</time><name>PT11101</name></trkpt>
<trkpt lat="52.855177" lon="-3.378714"><ele>379</ele><time>2020-01-18T13:40:24Z</time><name>PT11102</name></trkpt>
<trkpt lat="52.855176" lon="-3.378715"><ele>377</ele><time>2020-01-18T13:40:26Z</time><name>PT11103</name></trkpt>
<trkpt lat="52.855172" lon="-3.378699"><ele>378</ele><time>2020-01-18T13:40:26Z</time><name>PT11104</name></trkpt>
<trkpt lat="52.855170" lon="-3.378696"><ele>378</ele><time>2020-01-18T13:40:27Z</time><name>PT11105</name></trkpt>
<trkpt lat="52.855172" lon="-3.378696"><ele>378</ele><time>2020-01-18T13:40:29Z</time><name>PT11106</name></trkpt>
<trkpt lat="52.855178" lon="-3.378698"><ele>378</ele><time>2020-01-18T13:40:29Z</time><name>PT11107</name></trkpt>
<trkpt lat="52.855181" lon="-3.378695"><ele>378</ele><time>2020-01-18T13:40:30Z</time><name>PT11108</name></trkpt>
<trkpt lat="52.855184" lon="-3.378685"><ele>378</ele><time>2020-01-18T13:40:32Z</time><name>PT11109</name></trkpt>
<trkpt lat="52.855184" lon="-3.378682"><ele>378</ele><time>2020-01-18T13:40:32Z</time><name>PT11110</name></trkpt>
<trkpt lat="52.855187" lon="-3.378692"><ele>376</ele><time>2020-01-18T13:40:33Z</time><name>PT11111</name></trkpt>
<trkpt lat="52.855187" lon="-3.378696"><ele>376</ele><time>2020-01-18T13:40:35Z</time><name>PT11112</name></trkpt>
<trkpt lat="52.855189" lon="-3.378702"><ele>375</ele><time>2020-01-18T13:40:35Z</time><name>PT11113</name></trkpt>
<trkpt lat="52.855187" lon="-3.378701"><ele>376</ele><time>2020-01-18T13:40:36Z</time><name>PT11114</name></trkpt>
<trkpt lat="52.855184" lon="-3.378694"><ele>377</ele><time>2020-01-18T13:40:38Z</time><name>PT11115</name></trkpt>
<trkpt lat="52.855183" lon="-3.378700"><ele>375</ele><time>2020-01-18T13:40:38Z</time><name>PT11116</name></trkpt>
<trkpt lat="52.855184" lon="-3.378706"><ele>375</ele><time>2020-01-18T13:40:39Z</time><name>PT11117</name></trkpt>
<trkpt lat="52.855182" lon="-3.378711"><ele>374</ele><time>2020-01-18T13:40:41Z</time><name>PT11118</name></trkpt>
<trkpt lat="52.855181" lon="-3.378703"><ele>376</ele><time>2020-01-18T13:40:41Z</time><name>PT11119</name></trkpt>
<trkpt lat="52.855179" lon="-3.378696"><ele>376</ele><time>2020-01-18T13:40:42Z</time><name>PT11120</name></trkpt>
<trkpt lat="52.855180" lon="-3.378694"><ele>377</ele><time>2020-01-18T13:40:44Z</time><name>PT11121</name></trkpt>
<trkpt lat="52.855178" lon="-3.378715"><ele>377</ele><time>2020-01-18T13:40:59Z</time><name>PT11122</name></trkpt>
<trkpt lat="52.855178" lon="-3.378726"><ele>377</ele><time>2020-01-18T13:41:00Z</time><name>PT11123</name></trkpt>
<trkpt lat="52.855175" lon="-3.378729"><ele>376</ele><time>2020-01-18T13:41:02Z</time><name>PT11124</name></trkpt>
<trkpt lat="52.855166" lon="-3.378731"><ele>376</ele><time>2020-01-18T13:41:02Z</time><name>PT11125</name></trkpt>
<trkpt lat="52.855157" lon="-3.378729"><ele>376</ele><time>2020-01-18T13:41:03Z</time><name>PT11126</name></trkpt>
<trkpt lat="52.855149" lon="-3.378723"><ele>377</ele><time>2020-01-18T13:41:05Z</time><name>PT11127</name></trkpt>
<trkpt lat="52.855146" lon="-3.378715"><ele>377</ele><time>2020-01-18T13:41:05Z</time><name>PT11128</name></trkpt>
<trkpt lat="52.855145" lon="-3.378708"><ele>377</ele><time>2020-01-18T13:41:06Z</time><name>PT11129</name></trkpt>
<trkpt lat="52.855144" lon="-3.378708"><ele>376</ele><time>2020-01-18T13:41:08Z</time><name>PT11130</name></trkpt>
<trkpt lat="52.855144" lon="-3.378703"><ele>376</ele><time>2020-01-18T13:41:08Z</time><name>PT11131</name></trkpt>
<trkpt lat="52.855139" lon="-3.378692"><ele>377</ele><time>2020-01-18T13:41:09Z</time><name>PT11132</name></trkpt>
<trkpt lat="52.855140" lon="-3.378693"><ele>378</ele><time>2020-01-18T13:41:11Z</time><name>PT11133</name></trkpt>
<trkpt lat="52.855133" lon="-3.378693"><ele>378</ele><time>2020-01-18T13:41:11Z</time><name>PT11134</name></trkpt>
<trkpt lat="52.855134" lon="-3.378701"><ele>380</ele><time>2020-01-18T13:41:12Z</time><name>PT11135</name></trkpt>
<trkpt lat="52.855128" lon="-3.378700"><ele>380</ele><time>2020-01-18T13:41:14Z</time><name>PT11136</name></trkpt>
<trkpt lat="52.855127" lon="-3.378698"><ele>380</ele><time>2020-01-18T13:41:14Z</time><name>PT11137</name></trkpt>
<trkpt lat="52.855128" lon="-3.378701"><ele>380</ele><time>2020-01-18T13:41:15Z</time><name>PT11138</name></trkpt>
<trkpt lat="52.855129" lon="-3.378701"><ele>380</ele><time>2020-01-18T13:41:17Z</time><name>PT11139</name></trkpt>
<trkpt lat="52.855141" lon="-3.378726"><ele>379</ele><time>2020-01-18T13:41:22Z</time><name>PT11140</name></trkpt>
<trkpt lat="52.855142" lon="-3.378725"><ele>380</ele><time>2020-01-18T13:41:23Z</time><name>PT11141</name></trkpt>
<trkpt lat="52.855142" lon="-3.378737"><ele>380</ele><time>2020-01-18T13:41:23Z</time><name>PT11142</name></trkpt>
<trkpt lat="52.855146" lon="-3.378750"><ele>381</ele><time>2020-01-18T13:41:24Z</time><name>PT11143</name></trkpt>
<trkpt lat="52.855142" lon="-3.378765"><ele>381</ele><time>2020-01-18T13:41:27Z</time><name>PT11144</name></trkpt>
<trkpt lat="52.855140" lon="-3.378768"><ele>380</ele><time>2020-01-18T13:41:29Z</time><name>PT11145</name></trkpt>
<trkpt lat="52.855137" lon="-3.378779"><ele>380</ele><time>2020-01-18T13:41:29Z</time><name>PT11146</name></trkpt>
<trkpt lat="52.855142" lon="-3.378785"><ele>379</ele><time>2020-01-18T13:41:30Z</time><name>PT11147</name></trkpt>
<trkpt lat="52.855139" lon="-3.378796"><ele>379</ele><time>2020-01-18T13:41:32Z</time><name>PT11148</name></trkpt>
<trkpt lat="52.855131" lon="-3.378792"><ele>380</ele><time>2020-01-18T13:41:32Z</time><name>PT11149</name></trkpt>
<trkpt lat="52.855128" lon="-3.378804"><ele>380</ele><time>2020-01-18T13:41:33Z</time><name>PT11150</name></trkpt>
<trkpt lat="52.855122" lon="-3.378811"><ele>380</ele><time>2020-01-18T13:41:35Z</time><name>PT11151</name></trkpt>
<trkpt lat="52.855119" lon="-3.378817"><ele>380</ele><time>2020-01-18T13:41:35Z</time><name>PT11152</name></trkpt>
<trkpt lat="52.855118" lon="-3.378823"><ele>380</ele><time>2020-01-18T13:41:37Z</time><name>PT11153</name></trkpt>
<trkpt lat="52.855119" lon="-3.378835"><ele>380</ele><time>2020-01-18T13:41:38Z</time><name>PT11154</name></trkpt>
<trkpt lat="52.855126" lon="-3.378845"><ele>379</ele><time>2020-01-18T13:41:38Z</time><name>PT11155</name></trkpt>
<trkpt lat="52.855125" lon="-3.378853"><ele>379</ele><time>2020-01-18T13:41:39Z</time><name>PT11156</name></trkpt>
<trkpt lat="52.855131" lon="-3.378856"><ele>378</ele><time>2020-01-18T13:41:41Z</time><name>PT11157</name></trkpt>
<trkpt lat="52.855131" lon="-3.378850"><ele>377</ele><time>2020-01-18T13:41:41Z</time><name>PT11158</name></trkpt>
<trkpt lat="52.855129" lon="-3.378841"><ele>376</ele><time>2020-01-18T13:41:42Z</time><name>PT11159</name></trkpt>
<trkpt lat="52.855123" lon="-3.378829"><ele>377</ele><time>2020-01-18T13:41:44Z</time><name>PT11160</name></trkpt>
<trkpt lat="52.855115" lon="-3.378811"><ele>378</ele><time>2020-01-18T13:41:44Z</time><name>PT11161</name></trkpt>
<trkpt lat="52.855114" lon="-3.378793"><ele>379</ele><time>2020-01-18T13:41:45Z</time><name>PT11162</name></trkpt>
<trkpt lat="52.855114" lon="-3.378791"><ele>380</ele><time>2020-01-18T13:41:47Z</time><name>PT11163</name></trkpt>
<trkpt lat="52.855111" lon="-3.378799"><ele>379</ele><time>2020-01-18T13:41:54Z</time><name>PT11164</name></trkpt>
<trkpt lat="52.855112" lon="-3.378795"><ele>379</ele><time>2020-01-18T13:41:56Z</time><name>PT11165</name></trkpt>
<trkpt lat="52.855117" lon="-3.378795"><ele>379</ele><time>2020-01-18T13:41:56Z</time><name>PT11166</name></trkpt>
<trkpt lat="52.855121" lon="-3.378797"><ele>379</ele><time>2020-01-18T13:41:57Z</time><name>PT11167</name></trkpt>
<trkpt lat="52.855119" lon="-3.378796"><ele>379</ele><time>2020-01-18T13:41:59Z</time><name>PT11168</name></trkpt>
<trkpt lat="52.855116" lon="-3.378794"><ele>379</ele><time>2020-01-18T13:41:59Z</time><name>PT11169</name></trkpt>
<trkpt lat="52.855109" lon="-3.378795"><ele>378</ele><time>2020-01-18T13:42:00Z</time><name>PT11170</name></trkpt>
<trkpt lat="52.855112" lon="-3.378795"><ele>378</ele><time>2020-01-18T13:42:02Z</time><name>PT11171</name></trkpt>
<trkpt lat="52.855107" lon="-3.378802"><ele>378</ele><time>2020-01-18T13:42:02Z</time><name>PT11172</name></trkpt>
<trkpt lat="52.855100" lon="-3.378799"><ele>378</ele><time>2020-01-18T13:42:03Z</time><name>PT11173</name></trkpt>
<trkpt lat="52.855104" lon="-3.378798"><ele>377</ele><time>2020-01-18T13:42:05Z</time><name>PT11174</name></trkpt>
<trkpt lat="52.855103" lon="-3.378798"><ele>377</ele><time>2020-01-18T13:42:05Z</time><name>PT11175</name></trkpt>
<trkpt lat="52.855102" lon="-3.378800"><ele>376</ele><time>2020-01-18T13:42:07Z</time><name>PT11176</name></trkpt>
<trkpt lat="52.855105" lon="-3.378799"><ele>376</ele><time>2020-01-18T13:42:08Z</time><name>PT11177</name></trkpt>
<trkpt lat="52.855105" lon="-3.378802"><ele>376</ele><time>2020-01-18T13:42:08Z</time><name>PT11178</name></trkpt>
<trkpt lat="52.855106" lon="-3.378802"><ele>376</ele><time>2020-01-18T13:42:09Z</time><name>PT11179</name></trkpt>
<trkpt lat="52.855108" lon="-3.378801"><ele>377</ele><time>2020-01-18T13:42:11Z</time><name>PT11180</name></trkpt>
<trkpt lat="52.855110" lon="-3.378804"><ele>377</ele><time>2020-01-18T13:42:11Z</time><name>PT11181</name></trkpt>
<trkpt lat="52.855112" lon="-3.378805"><ele>376</ele><time>2020-01-18T13:42:12Z</time><name>PT11182</name></trkpt>
<trkpt lat="52.855116" lon="-3.378803"><ele>376</ele><time>2020-01-18T13:42:14Z</time><name>PT11183</name></trkpt>
<trkpt lat="52.855128" lon="-3.378795"><ele>375</ele><time>2020-01-18T13:42:26Z</time><name>PT11184</name></trkpt>
<trkpt lat="52.855139" lon="-3.378795"><ele>375</ele><time>2020-01-18T13:42:26Z</time><name>PT11185</name></trkpt>
<trkpt lat="52.855149" lon="-3.378785"><ele>376</ele><time>2020-01-18T13:42:33Z</time><name>PT11186</name></trkpt>
<trkpt lat="52.855157" lon="-3.378780"><ele>377</ele><time>2020-01-18T13:42:35Z</time><name>PT11187</name></trkpt>
<trkpt lat="52.855161" lon="-3.378783"><ele>377</ele><time>2020-01-18T13:42:35Z</time><name>PT11188</name></trkpt>
<trkpt lat="52.855160" lon="-3.378787"><ele>377</ele><time>2020-01-18T13:42:38Z</time><name>PT11189</name></trkpt>
<trkpt lat="52.855161" lon="-3.378782"><ele>376</ele><time>2020-01-18T13:42:39Z</time><name>PT11190</name></trkpt>
<trkpt lat="52.855164" lon="-3.378784"><ele>376</ele><time>2020-01-18T13:42:41Z</time><name>PT11191</name></trkpt>
<trkpt lat="52.855168" lon="-3.378784"><ele>376</ele><time>2020-01-18T13:42:41Z</time><name>PT11192</name></trkpt>
<trkpt lat="52.855171" lon="-3.378788"><ele>375</ele><time>2020-01-18T13:42:42Z</time><name>PT11193</name></trkpt>
<trkpt lat="52.855173" lon="-3.378788"><ele>375</ele><time>2020-01-18T13:42:44Z</time><name>PT11194</name></trkpt>
<trkpt lat="52.855168" lon="-3.378785"><ele>376</ele><time>2020-01-18T13:42:47Z</time><name>PT11195</name></trkpt>
<trkpt lat="52.855179" lon="-3.378755"><ele>375</ele><time>2020-01-18T13:42:48Z</time><name>PT11196</name></trkpt>
<trkpt lat="52.855179" lon="-3.378748"><ele>375</ele><time>2020-01-18T13:42:50Z</time><name>PT11197</name></trkpt>
<trkpt lat="52.855179" lon="-3.378736"><ele>375</ele><time>2020-01-18T13:42:50Z</time><name>PT11198</name></trkpt>
<trkpt lat="52.855178" lon="-3.378732"><ele>376</ele><time>2020-01-18T13:42:51Z</time><name>PT11199</name></trkpt>
<trkpt lat="52.855180" lon="-3.378734"><ele>375</ele><time>2020-01-18T13:42:53Z</time><name>PT11200</name></trkpt>
<trkpt lat="52.855183" lon="-3.378736"><ele>376</ele><time>2020-01-18T13:42:53Z</time><name>PT11201</name></trkpt>
<trkpt lat="52.855185" lon="-3.378740"><ele>375</ele><time>2020-01-18T13:42:54Z</time><name>PT11202</name></trkpt>
<trkpt lat="52.855184" lon="-3.378736"><ele>375</ele><time>2020-01-18T13:42:59Z</time><name>PT11203</name></trkpt>
<trkpt lat="52.855182" lon="-3.378741"><ele>375</ele><time>2020-01-18T13:43:00Z</time><name>PT11204</name></trkpt>
<trkpt lat="52.855183" lon="-3.378738"><ele>376</ele><time>2020-01-18T13:43:02Z</time><name>PT11205</name></trkpt>
<trkpt lat="52.855183" lon="-3.378751"><ele>376</ele><time>2020-01-18T13:43:02Z</time><name>PT11206</name></trkpt>
<trkpt lat="52.855187" lon="-3.378742"><ele>377</ele><time>2020-01-18T13:43:03Z</time><name>PT11207</name></trkpt>
<trkpt lat="52.855188" lon="-3.378737"><ele>377</ele><time>2020-01-18T13:43:06Z</time><name>PT11208</name></trkpt>
<trkpt lat="52.855186" lon="-3.378747"><ele>376</ele><time>2020-01-18T13:43:08Z</time><name>PT11209</name></trkpt>
<trkpt lat="52.855186" lon="-3.378745"><ele>376</ele><time>2020-01-18T13:43:08Z</time><name>PT11210</name></trkpt>
<trkpt lat="52.855182" lon="-3.378743"><ele>376</ele><time>2020-01-18T13:43:09Z</time><name>PT11211</name></trkpt>
<trkpt lat="52.855185" lon="-3.378751"><ele>376</ele><time>2020-01-18T13:43:27Z</time><name>PT11212</name></trkpt>
<trkpt lat="52.855183" lon="-3.378773"><ele>377</ele><time>2020-01-18T13:43:29Z</time><name>PT11213</name></trkpt>
<trkpt lat="52.855162" lon="-3.378747"><ele>378</ele><time>2020-01-18T13:43:29Z</time><name>PT11214</name></trkpt>
<trkpt lat="52.855152" lon="-3.378727"><ele>379</ele><time>2020-01-18T13:43:30Z</time><name>PT11215</name></trkpt>
<trkpt lat="52.855143" lon="-3.378717"><ele>380</ele><time>2020-01-18T13:43:32Z</time><name>PT11216</name></trkpt>
<trkpt lat="52.855140" lon="-3.378715"><ele>381</ele><time>2020-01-18T13:43:32Z</time><name>PT11217</name></trkpt>
<trkpt lat="52.855138" lon="-3.378720"><ele>381</ele><time>2020-01-18T13:43:33Z</time><name>PT11218</name></trkpt>
<trkpt lat="52.855143" lon="-3.378727"><ele>381</ele><time>2020-01-18T13:43:49Z</time><name>PT11219</name></trkpt>
<trkpt lat="52.855144" lon="-3.378736"><ele>380</ele><time>2020-01-18T13:43:50Z</time><name>PT11220</name></trkpt>
<trkpt lat="52.855146" lon="-3.378741"><ele>380</ele><time>2020-01-18T13:43:50Z</time><name>PT11221</name></trkpt>
<trkpt lat="52.855152" lon="-3.378739"><ele>380</ele><time>2020-01-18T13:43:51Z</time><name>PT11222</name></trkpt>
<trkpt lat="52.855148" lon="-3.378738"><ele>380</ele><time>2020-01-18T13:43:53Z</time><name>PT11223</name></trkpt>
<trkpt lat="52.855148" lon="-3.378742"><ele>380</ele><time>2020-01-18T13:43:53Z</time><name>PT11224</name></trkpt>
<trkpt lat="52.855148" lon="-3.378745"><ele>379</ele><time>2020-01-18T13:43:54Z</time><name>PT11225</name></trkpt>
<trkpt lat="52.855148" lon="-3.378746"><ele>379</ele><time>2020-01-18T13:43:56Z</time><name>PT11226</name></trkpt>
<trkpt lat="52.855150" lon="-3.378768"><ele>379</ele><time>2020-01-18T13:43:59Z</time><name>PT11227</name></trkpt>
<trkpt lat="52.855152" lon="-3.378775"><ele>379</ele><time>2020-01-18T13:43:59Z</time><name>PT11228</name></trkpt>
<trkpt lat="52.855154" lon="-3.378775"><ele>379</ele><time>2020-01-18T13:44:00Z</time><name>PT11229</name></trkpt>
<trkpt lat="52.855158" lon="-3.378762"><ele>378</ele><time>2020-01-18T13:44:38Z</time><name>PT11230</name></trkpt>
<trkpt lat="52.855161" lon="-3.378771"><ele>378</ele><time>2020-01-18T13:44:40Z</time><name>PT11231</name></trkpt>
<trkpt lat="52.855167" lon="-3.378777"><ele>378</ele><time>2020-01-18T13:44:41Z</time><name>PT11232</name></trkpt>
<trkpt lat="52.855171" lon="-3.378782"><ele>377</ele><time>2020-01-18T13:44:41Z</time><name>PT11233</name></trkpt>
<trkpt lat="52.855180" lon="-3.378776"><ele>377</ele><time>2020-01-18T13:44:42Z</time><name>PT11234</name></trkpt>
<trkpt lat="52.855180" lon="-3.378774"><ele>377</ele><time>2020-01-18T13:44:44Z</time><name>PT11235</name></trkpt>
<trkpt lat="52.855178" lon="-3.378772"><ele>377</ele><time>2020-01-18T13:44:44Z</time><name>PT11236</name></trkpt>
<trkpt lat="52.855178" lon="-3.378763"><ele>377</ele><time>2020-01-18T13:44:45Z</time><name>PT11237</name></trkpt>
<trkpt lat="52.855172" lon="-3.378764"><ele>376</ele><time>2020-01-18T13:44:47Z</time><name>PT11238</name></trkpt>
<trkpt lat="52.855169" lon="-3.378764"><ele>375</ele><time>2020-01-18T13:44:47Z</time><name>PT11239</name></trkpt>
<trkpt lat="52.855162" lon="-3.378769"><ele>376</ele><time>2020-01-18T13:44:48Z</time><name>PT11240</name></trkpt>
<trkpt lat="52.855163" lon="-3.378779"><ele>376</ele><time>2020-01-18T13:44:50Z</time><name>PT11241</name></trkpt>
<trkpt lat="52.855171" lon="-3.378798"><ele>376</ele><time>2020-01-18T13:44:50Z</time><name>PT11242</name></trkpt>
<trkpt lat="52.855178" lon="-3.378819"><ele>377</ele><time>2020-01-18T13:44:51Z</time><name>PT11243</name></trkpt>
<trkpt lat="52.855178" lon="-3.378827"><ele>377</ele><time>2020-01-18T13:44:53Z</time><name>PT11244</name></trkpt>
<trkpt lat="52.855181" lon="-3.378827"><ele>378</ele><time>2020-01-18T13:44:53Z</time><name>PT11245</name></trkpt>
<trkpt lat="52.855186" lon="-3.378830"><ele>378</ele><time>2020-01-18T13:44:54Z</time><name>PT11246</name></trkpt>
<trkpt lat="52.855190" lon="-3.378836"><ele>377</ele><time>2020-01-18T13:44:56Z</time><name>PT11247</name></trkpt>
<trkpt lat="52.855197" lon="-3.378832"><ele>377</ele><time>2020-01-18T13:44:57Z</time><name>PT11248</name></trkpt>
<trkpt lat="52.855202" lon="-3.378834"><ele>378</ele><time>2020-01-18T13:44:59Z</time><name>PT11249</name></trkpt>
<trkpt lat="52.855201" lon="-3.378839"><ele>377</ele><time>2020-01-18T13:44:59Z</time><name>PT11250</name></trkpt>
<trkpt lat="52.855199" lon="-3.378846"><ele>376</ele><time>2020-01-18T13:45:00Z</time><name>PT11251</name></trkpt>
<trkpt lat="52.855207" lon="-3.378856"><ele>376</ele><time>2020-01-18T13:45:02Z</time><name>PT11252</name></trkpt>
<trkpt lat="52.855215" lon="-3.378859"><ele>377</ele><time>2020-01-18T13:45:02Z</time><name>PT11253</name></trkpt>
<trkpt lat="52.855215" lon="-3.378875"><ele>376</ele><time>2020-01-18T13:45:03Z</time><name>PT11254</name></trkpt>
<trkpt lat="52.855217" lon="-3.378881"><ele>376</ele><time>2020-01-18T13:45:05Z</time><name>PT11255</name></trkpt>
<trkpt lat="52.855223" lon="-3.378876"><ele>376</ele><time>2020-01-18T13:45:05Z</time><name>PT11256</name></trkpt>
<trkpt lat="52.855230" lon="-3.378865"><ele>376</ele><time>2020-01-18T13:45:06Z</time><name>PT11257</name></trkpt>
<trkpt lat="52.855239" lon="-3.378867"><ele>377</ele><time>2020-01-18T13:45:08Z</time><name>PT11258</name></trkpt>
<trkpt lat="52.855246" lon="-3.378860"><ele>377</ele><time>2020-01-18T13:45:08Z</time><name>PT11259</name></trkpt>
<trkpt lat="52.855254" lon="-3.378869"><ele>377</ele><time>2020-01-18T13:45:09Z</time><name>PT11260</name></trkpt>
<trkpt lat="52.855256" lon="-3.378865"><ele>377</ele><time>2020-01-18T13:45:11Z</time><name>PT11261</name></trkpt>
<trkpt lat="52.855258" lon="-3.378866"><ele>377</ele><time>2020-01-18T13:45:11Z</time><name>PT11262</name></trkpt>
<trkpt lat="52.855264" lon="-3.378867"><ele>377</ele><time>2020-01-18T13:45:12Z</time><name>PT11263</name></trkpt>
<trkpt lat="52.855268" lon="-3.378869"><ele>377</ele><time>2020-01-18T13:45:14Z</time><name>PT11264</name></trkpt>
<trkpt lat="52.855273" lon="-3.378875"><ele>377</ele><time>2020-01-18T13:45:14Z</time><name>PT11265</name></trkpt>
<trkpt lat="52.855279" lon="-3.378881"><ele>377</ele><time>2020-01-18T13:45:15Z</time><name>PT11266</name></trkpt>
<trkpt lat="52.855283" lon="-3.378888"><ele>376</ele><time>2020-01-18T13:45:17Z</time><name>PT11267</name></trkpt>
<trkpt lat="52.855287" lon="-3.378892"><ele>376</ele><time>2020-01-18T13:45:17Z</time><name>PT11268</name></trkpt>
<trkpt lat="52.855294" lon="-3.378892"><ele>376</ele><time>2020-01-18T13:45:18Z</time><name>PT11269</name></trkpt>
<trkpt lat="52.855299" lon="-3.378897"><ele>376</ele><time>2020-01-18T13:45:20Z</time><name>PT11270</name></trkpt>
<trkpt lat="52.855305" lon="-3.378896"><ele>376</ele><time>2020-01-18T13:45:20Z</time><name>PT11271</name></trkpt>
<trkpt lat="52.855313" lon="-3.378892"><ele>377</ele><time>2020-01-18T13:45:21Z</time><name>PT11272</name></trkpt>
<trkpt lat="52.855319" lon="-3.378881"><ele>378</ele><time>2020-01-18T13:45:23Z</time><name>PT11273</name></trkpt>
<trkpt lat="52.855323" lon="-3.378873"><ele>377</ele><time>2020-01-18T13:45:23Z</time><name>PT11274</name></trkpt>
<trkpt lat="52.855328" lon="-3.378865"><ele>377</ele><time>2020-01-18T13:45:24Z</time><name>PT11275</name></trkpt>
<trkpt lat="52.855332" lon="-3.378855"><ele>378</ele><time>2020-01-18T13:45:26Z</time><name>PT11276</name></trkpt>
<trkpt lat="52.855335" lon="-3.378845"><ele>378</ele><time>2020-01-18T13:45:26Z</time><name>PT11277</name></trkpt>
<trkpt lat="52.855338" lon="-3.378849"><ele>378</ele><time>2020-01-18T13:45:29Z</time><name>PT11278</name></trkpt>
<trkpt lat="52.855340" lon="-3.378847"><ele>378</ele><time>2020-01-18T13:45:29Z</time><name>PT11279</name></trkpt>
<trkpt lat="52.855342" lon="-3.378841"><ele>378</ele><time>2020-01-18T13:45:30Z</time><name>PT11280</name></trkpt>
<trkpt lat="52.855346" lon="-3.378837"><ele>378</ele><time>2020-01-18T13:45:32Z</time><name>PT11281</name></trkpt>
<trkpt lat="52.855345" lon="-3.378837"><ele>378</ele><time>2020-01-18T13:45:32Z</time><name>PT11282</name></trkpt>
<trkpt lat="52.855349" lon="-3.378842"><ele>378</ele><time>2020-01-18T13:45:33Z</time><name>PT11283</name></trkpt>
<trkpt lat="52.855352" lon="-3.378843"><ele>379</ele><time>2020-01-18T13:45:35Z</time><name>PT11284</name></trkpt>
<trkpt lat="52.855352" lon="-3.378843"><ele>380</ele><time>2020-01-18T13:45:35Z</time><name>PT11285</name></trkpt>
<trkpt lat="52.855354" lon="-3.378850"><ele>380</ele><time>2020-01-18T13:45:36Z</time><name>PT11286</name></trkpt>
<trkpt lat="52.855352" lon="-3.378846"><ele>382</ele><time>2020-01-18T13:45:38Z</time><name>PT11287</name></trkpt>
<trkpt lat="52.855357" lon="-3.378847"><ele>382</ele><time>2020-01-18T13:45:38Z</time><name>PT11288</name></trkpt>
<trkpt lat="52.855363" lon="-3.378848"><ele>382</ele><time>2020-01-18T13:45:39Z</time><name>PT11289</name></trkpt>
<trkpt lat="52.855363" lon="-3.378853"><ele>382</ele><time>2020-01-18T13:45:41Z</time><name>PT11290</name></trkpt>
<trkpt lat="52.855364" lon="-3.378861"><ele>383</ele><time>2020-01-18T13:45:41Z</time><name>PT11291</name></trkpt>
<trkpt lat="52.855365" lon="-3.378867"><ele>383</ele><time>2020-01-18T13:45:43Z</time><name>PT11292</name></trkpt>
<trkpt lat="52.855370" lon="-3.378875"><ele>382</ele><time>2020-01-18T13:45:44Z</time><name>PT11293</name></trkpt>
<trkpt lat="52.855379" lon="-3.378873"><ele>382</ele><time>2020-01-18T13:45:44Z</time><name>PT11294</name></trkpt>
<trkpt lat="52.855391" lon="-3.378875"><ele>383</ele><time>2020-01-18T13:45:45Z</time><name>PT11295</name></trkpt>
<trkpt lat="52.855389" lon="-3.378882"><ele>383</ele><time>2020-01-18T13:45:47Z</time><name>PT11296</name></trkpt>
<trkpt lat="52.855387" lon="-3.378889"><ele>383</ele><time>2020-01-18T13:45:47Z</time><name>PT11297</name></trkpt>
<trkpt lat="52.855388" lon="-3.378892"><ele>384</ele><time>2020-01-18T13:45:48Z</time><name>PT11298</name></trkpt>
<trkpt lat="52.855388" lon="-3.378902"><ele>384</ele><time>2020-01-18T13:45:50Z</time><name>PT11299</name></trkpt>
<trkpt lat="52.855390" lon="-3.378902"><ele>384</ele><time>2020-01-18T13:45:50Z</time><name>PT11300</name></trkpt>
<trkpt lat="52.855397" lon="-3.378898"><ele>386</ele><time>2020-01-18T13:45:51Z</time><name>PT11301</name></trkpt>
<trkpt lat="52.855409" lon="-3.378891"><ele>386</ele><time>2020-01-18T13:45:53Z</time><name>PT11302</name></trkpt>
<trkpt lat="52.855417" lon="-3.378894"><ele>386</ele><time>2020-01-18T13:45:53Z</time><name>PT11303</name></trkpt>
<trkpt lat="52.855420" lon="-3.378899"><ele>386</ele><time>2020-01-18T13:45:54Z</time><name>PT11304</name></trkpt>
<trkpt lat="52.855424" lon="-3.378902"><ele>386</ele><time>2020-01-18T13:45:56Z</time><name>PT11305</name></trkpt>
<trkpt lat="52.855428" lon="-3.378906"><ele>386</ele><time>2020-01-18T13:45:56Z</time><name>PT11306</name></trkpt>
<trkpt lat="52.855432" lon="-3.378899"><ele>388</ele><time>2020-01-18T13:45:57Z</time><name>PT11307</name></trkpt>
<trkpt lat="52.855433" lon="-3.378905"><ele>387</ele><time>2020-01-18T13:45:59Z</time><name>PT11308</name></trkpt>
<trkpt lat="52.855434" lon="-3.378921"><ele>388</ele><time>2020-01-18T13:46:02Z</time><name>PT11309</name></trkpt>
<trkpt lat="52.855442" lon="-3.378922"><ele>388</ele><time>2020-01-18T13:46:02Z</time><name>PT11310</name></trkpt>
<trkpt lat="52.855446" lon="-3.378931"><ele>388</ele><time>2020-01-18T13:46:03Z</time><name>PT11311</name></trkpt>
<trkpt lat="52.855456" lon="-3.378943"><ele>388</ele><time>2020-01-18T13:46:05Z</time><name>PT11312</name></trkpt>
<trkpt lat="52.855466" lon="-3.378948"><ele>388</ele><time>2020-01-18T13:46:05Z</time><name>PT11313</name></trkpt>
<trkpt lat="52.855469" lon="-3.378955"><ele>389</ele><time>2020-01-18T13:46:06Z</time><name>PT11314</name></trkpt>
<trkpt lat="52.855473" lon="-3.378960"><ele>389</ele><time>2020-01-18T13:46:08Z</time><name>PT11315</name></trkpt>
<trkpt lat="52.855475" lon="-3.378953"><ele>388</ele><time>2020-01-18T13:46:08Z</time><name>PT11316</name></trkpt>
<trkpt lat="52.855481" lon="-3.378946"><ele>388</ele><time>2020-01-18T13:46:09Z</time><name>PT11317</name></trkpt>
<trkpt lat="52.855481" lon="-3.378956"><ele>387</ele><time>2020-01-18T13:46:11Z</time><name>PT11318</name></trkpt>
<trkpt lat="52.855485" lon="-3.378962"><ele>387</ele><time>2020-01-18T13:46:11Z</time><name>PT11319</name></trkpt>
<trkpt lat="52.855493" lon="-3.378959"><ele>387</ele><time>2020-01-18T13:46:12Z</time><name>PT11320</name></trkpt>
<trkpt lat="52.855497" lon="-3.378960"><ele>387</ele><time>2020-01-18T13:46:14Z</time><name>PT11321</name></trkpt>
<trkpt lat="52.855506" lon="-3.378966"><ele>387</ele><time>2020-01-18T13:46:14Z</time><name>PT11322</name></trkpt>
<trkpt lat="52.855512" lon="-3.378970"><ele>388</ele><time>2020-01-18T13:46:15Z</time><name>PT11323</name></trkpt>
<trkpt lat="52.855515" lon="-3.378975"><ele>388</ele><time>2020-01-18T13:46:17Z</time><name>PT11324</name></trkpt>
<trkpt lat="52.855519" lon="-3.378973"><ele>388</ele><time>2020-01-18T13:46:17Z</time><name>PT11325</name></trkpt>
<trkpt lat="52.855529" lon="-3.378966"><ele>387</ele><time>2020-01-18T13:46:18Z</time><name>PT11326</name></trkpt>
<trkpt lat="52.855535" lon="-3.378957"><ele>388</ele><time>2020-01-18T13:46:20Z</time><name>PT11327</name></trkpt>
<trkpt lat="52.855538" lon="-3.378957"><ele>388</ele><time>2020-01-18T13:46:20Z</time><name>PT11328</name></trkpt>
<trkpt lat="52.855543" lon="-3.378953"><ele>388</ele><time>2020-01-18T13:46:21Z</time><name>PT11329</name></trkpt>
<trkpt lat="52.855550" lon="-3.378948"><ele>387</ele><time>2020-01-18T13:46:23Z</time><name>PT11330</name></trkpt>
<trkpt lat="52.855559" lon="-3.378943"><ele>387</ele><time>2020-01-18T13:46:23Z</time><name>PT11331</name></trkpt>
<trkpt lat="52.855564" lon="-3.378939"><ele>388</ele><time>2020-01-18T13:46:24Z</time><name>PT11332</name></trkpt>
<trkpt lat="52.855573" lon="-3.378929"><ele>388</ele><time>2020-01-18T13:46:26Z</time><name>PT11333</name></trkpt>
<trkpt lat="52.855582" lon="-3.378932"><ele>389</ele><time>2020-01-18T13:46:26Z</time><name>PT11334</name></trkpt>
<trkpt lat="52.855588" lon="-3.378935"><ele>389</ele><time>2020-01-18T13:46:27Z</time><name>PT11335</name></trkpt>
<trkpt lat="52.855598" lon="-3.378935"><ele>390</ele><time>2020-01-18T13:46:29Z</time><name>PT11336</name></trkpt>
<trkpt lat="52.855606" lon="-3.378931"><ele>389</ele><time>2020-01-18T13:46:29Z</time><name>PT11337</name></trkpt>
<trkpt lat="52.855608" lon="-3.378931"><ele>390</ele><time>2020-01-18T13:46:30Z</time><name>PT11338</name></trkpt>
<trkpt lat="52.855619" lon="-3.378923"><ele>390</ele><time>2020-01-18T13:46:32Z</time><name>PT11339</name></trkpt>
<trkpt lat="52.855624" lon="-3.378919"><ele>390</ele><time>2020-01-18T13:46:32Z</time><name>PT11340</name></trkpt>
<trkpt lat="52.855625" lon="-3.378912"><ele>391</ele><time>2020-01-18T13:46:33Z</time><name>PT11341</name></trkpt>
<trkpt lat="52.855635" lon="-3.378910"><ele>392</ele><time>2020-01-18T13:46:35Z</time><name>PT11342</name></trkpt>
<trkpt lat="52.855643" lon="-3.378900"><ele>392</ele><time>2020-01-18T13:46:35Z</time><name>PT11343</name></trkpt>
<trkpt lat="52.855648" lon="-3.378894"><ele>392</ele><time>2020-01-18T13:46:36Z</time><name>PT11344</name></trkpt>
<trkpt lat="52.855661" lon="-3.378895"><ele>393</ele><time>2020-01-18T13:46:38Z</time><name>PT11345</name></trkpt>
<trkpt lat="52.855664" lon="-3.378898"><ele>394</ele><time>2020-01-18T13:46:38Z</time><name>PT11346</name></trkpt>
<trkpt lat="52.855667" lon="-3.378897"><ele>394</ele><time>2020-01-18T13:46:39Z</time><name>PT11347</name></trkpt>
<trkpt lat="52.855672" lon="-3.378891"><ele>394</ele><time>2020-01-18T13:46:41Z</time><name>PT11348</name></trkpt>
<trkpt lat="52.855676" lon="-3.378883"><ele>394</ele><time>2020-01-18T13:46:41Z</time><name>PT11349</name></trkpt>
<trkpt lat="52.855681" lon="-3.378890"><ele>394</ele><time>2020-01-18T13:46:42Z</time><name>PT11350</name></trkpt>
<trkpt lat="52.855686" lon="-3.378883"><ele>394</ele><time>2020-01-18T13:46:44Z</time><name>PT11351</name></trkpt>
<trkpt lat="52.855692" lon="-3.378875"><ele>393</ele><time>2020-01-18T13:46:44Z</time><name>PT11352</name></trkpt>
<trkpt lat="52.855693" lon="-3.378874"><ele>394</ele><time>2020-01-18T13:46:45Z</time><name>PT11353</name></trkpt>
<trkpt lat="52.855701" lon="-3.378870"><ele>394</ele><time>2020-01-18T13:46:47Z</time><name>PT11354</name></trkpt>
<trkpt lat="52.855708" lon="-3.378864"><ele>394</ele><time>2020-01-18T13:46:47Z</time><name>PT11355</name></trkpt>
<trkpt lat="52.855713" lon="-3.378865"><ele>394</ele><time>2020-01-18T13:46:48Z</time><name>PT11356</name></trkpt>
<trkpt lat="52.855719" lon="-3.378861"><ele>394</ele><time>2020-01-18T13:46:50Z</time><name>PT11357</name></trkpt>
<trkpt lat="52.855722" lon="-3.378868"><ele>395</ele><time>2020-01-18T13:46:50Z</time><name>PT11358</name></trkpt>
<trkpt lat="52.855731" lon="-3.378871"><ele>395</ele><time>2020-01-18T13:46:51Z</time><name>PT11359</name></trkpt>
<trkpt lat="52.855738" lon="-3.378870"><ele>395</ele><time>2020-01-18T13:46:53Z</time><name>PT11360</name></trkpt>
<trkpt lat="52.855744" lon="-3.378874"><ele>397</ele><time>2020-01-18T13:46:53Z</time><name>PT11361</name></trkpt>
<trkpt lat="52.855753" lon="-3.378878"><ele>398</ele><time>2020-01-18T13:46:54Z</time><name>PT11362</name></trkpt>
<trkpt lat="52.855758" lon="-3.378882"><ele>400</ele><time>2020-01-18T13:46:56Z</time><name>PT11363</name></trkpt>
<trkpt lat="52.855764" lon="-3.378882"><ele>402</ele><time>2020-01-18T13:46:56Z</time><name>PT11364</name></trkpt>
<trkpt lat="52.855767" lon="-3.378878"><ele>402</ele><time>2020-01-18T13:46:57Z</time><name>PT11365</name></trkpt>
<trkpt lat="52.855774" lon="-3.378887"><ele>403</ele><time>2020-01-18T13:46:59Z</time><name>PT11366</name></trkpt>
<trkpt lat="52.855777" lon="-3.378892"><ele>403</ele><time>2020-01-18T13:46:59Z</time><name>PT11367</name></trkpt>
<trkpt lat="52.855781" lon="-3.378889"><ele>405</ele><time>2020-01-18T13:47:00Z</time><name>PT11368</name></trkpt>
<trkpt lat="52.855788" lon="-3.378897"><ele>405</ele><time>2020-01-18T13:47:02Z</time><name>PT11369</name></trkpt>
<trkpt lat="52.855789" lon="-3.378894"><ele>407</ele><time>2020-01-18T13:47:02Z</time><name>PT11370</name></trkpt>
<trkpt lat="52.855799" lon="-3.378895"><ele>408</ele><time>2020-01-18T13:47:03Z</time><name>PT11371</name></trkpt>
<trkpt lat="52.855800" lon="-3.378886"><ele>410</ele><time>2020-01-18T13:47:05Z</time><name>PT11372</name></trkpt>
<trkpt lat="52.855807" lon="-3.378889"><ele>411</ele><time>2020-01-18T13:47:05Z</time><name>PT11373</name></trkpt>
<trkpt lat="52.855814" lon="-3.378890"><ele>412</ele><time>2020-01-18T13:47:06Z</time><name>PT11374</name></trkpt>
<trkpt lat="52.855834" lon="-3.378888"><ele>414</ele><time>2020-01-18T13:47:08Z</time><name>PT11375</name></trkpt>
<trkpt lat="52.855846" lon="-3.378890"><ele>414</ele><time>2020-01-18T13:47:08Z</time><name>PT11376</name></trkpt>
<trkpt lat="52.855854" lon="-3.378888"><ele>413</ele><time>2020-01-18T13:47:09Z</time><name>PT11377</name></trkpt>
<trkpt lat="52.855860" lon="-3.378878"><ele>412</ele><time>2020-01-18T13:47:11Z</time><name>PT11378</name></trkpt>
<trkpt lat="52.855868" lon="-3.378881"><ele>412</ele><time>2020-01-18T13:47:11Z</time><name>PT11379</name></trkpt>
<trkpt lat="52.855872" lon="-3.378876"><ele>412</ele><time>2020-01-18T13:47:13Z</time><name>PT11380</name></trkpt>
<trkpt lat="52.855869" lon="-3.378874"><ele>410</ele><time>2020-01-18T13:47:14Z</time><name>PT11381</name></trkpt>
<trkpt lat="52.855872" lon="-3.378869"><ele>410</ele><time>2020-01-18T13:47:14Z</time><name>PT11382</name></trkpt>
<trkpt lat="52.855877" lon="-3.378868"><ele>409</ele><time>2020-01-18T13:47:15Z</time><name>PT11383</name></trkpt>
<trkpt lat="52.855891" lon="-3.378870"><ele>409</ele><time>2020-01-18T13:47:17Z</time><name>PT11384</name></trkpt>
<trkpt lat="52.855898" lon="-3.378867"><ele>409</ele><time>2020-01-18T13:47:17Z</time><name>PT11385</name></trkpt>
<trkpt lat="52.855902" lon="-3.378856"><ele>408</ele><time>2020-01-18T13:47:18Z</time><name>PT11386</name></trkpt>
<trkpt lat="52.855906" lon="-3.378844"><ele>408</ele><time>2020-01-18T13:47:20Z</time><name>PT11387</name></trkpt>
<trkpt lat="52.855911" lon="-3.378839"><ele>408</ele><time>2020-01-18T13:47:20Z</time><name>PT11388</name></trkpt>
<trkpt lat="52.855918" lon="-3.378831"><ele>407</ele><time>2020-01-18T13:47:21Z</time><name>PT11389</name></trkpt>
<trkpt lat="52.855928" lon="-3.378825"><ele>407</ele><time>2020-01-18T13:47:23Z</time><name>PT11390</name></trkpt>
<trkpt lat="52.855934" lon="-3.378823"><ele>406</ele><time>2020-01-18T13:47:23Z</time><name>PT11391</name></trkpt>
<trkpt lat="52.855950" lon="-3.378821"><ele>406</ele><time>2020-01-18T13:47:24Z</time><name>PT11392</name></trkpt>
<trkpt lat="52.855959" lon="-3.378826"><ele>405</ele><time>2020-01-18T13:47:26Z</time><name>PT11393</name></trkpt>
<trkpt lat="52.855967" lon="-3.378826"><ele>405</ele><time>2020-01-18T13:47:26Z</time><name>PT11394</name></trkpt>
<trkpt lat="52.855970" lon="-3.378820"><ele>405</ele><time>2020-01-18T13:47:27Z</time><name>PT11395</name></trkpt>
<trkpt lat="52.855976" lon="-3.378809"><ele>405</ele><time>2020-01-18T13:47:29Z</time><name>PT11396</name></trkpt>
<trkpt lat="52.855982" lon="-3.378806"><ele>402</ele><time>2020-01-18T13:47:29Z</time><name>PT11397</name></trkpt>
<trkpt lat="52.855985" lon="-3.378796"><ele>402</ele><time>2020-01-18T13:47:30Z</time><name>PT11398</name></trkpt>
<trkpt lat="52.855991" lon="-3.378794"><ele>402</ele><time>2020-01-18T13:47:32Z</time><name>PT11399</name></trkpt>
<trkpt lat="52.856000" lon="-3.378787"><ele>402</ele><time>2020-01-18T13:47:32Z</time><name>PT11400</name></trkpt>
<trkpt lat="52.856007" lon="-3.378782"><ele>403</ele><time>2020-01-18T13:47:33Z</time><name>PT11401</name></trkpt>
<trkpt lat="52.856010" lon="-3.378777"><ele>402</ele><time>2020-01-18T13:47:35Z</time><name>PT11402</name></trkpt>
<trkpt lat="52.856017" lon="-3.378775"><ele>403</ele><time>2020-01-18T13:47:35Z</time><name>PT11403</name></trkpt>
<trkpt lat="52.856021" lon="-3.378771"><ele>404</ele><time>2020-01-18T13:47:36Z</time><name>PT11404</name></trkpt>
<trkpt lat="52.856025" lon="-3.378767"><ele>403</ele><time>2020-01-18T13:47:38Z</time><name>PT11405</name></trkpt>
<trkpt lat="52.856031" lon="-3.378760"><ele>404</ele><time>2020-01-18T13:47:38Z</time><name>PT11406</name></trkpt>
<trkpt lat="52.856034" lon="-3.378758"><ele>404</ele><time>2020-01-18T13:47:39Z</time><name>PT11407</name></trkpt>
<trkpt lat="52.856037" lon="-3.378756"><ele>403</ele><time>2020-01-18T13:47:41Z</time><name>PT11408</name></trkpt>
<trkpt lat="52.856041" lon="-3.378757"><ele>403</ele><time>2020-01-18T13:47:41Z</time><name>PT11409</name></trkpt>
<trkpt lat="52.856037" lon="-3.378750"><ele>402</ele><time>2020-01-18T13:47:42Z</time><name>PT11410</name></trkpt>
<trkpt lat="52.856038" lon="-3.378748"><ele>402</ele><time>2020-01-18T13:47:44Z</time><name>PT11411</name></trkpt>
<trkpt lat="52.856039" lon="-3.378744"><ele>403</ele><time>2020-01-18T13:47:44Z</time><name>PT11412</name></trkpt>
<trkpt lat="52.856043" lon="-3.378749"><ele>403</ele><time>2020-01-18T13:47:45Z</time><name>PT11413</name></trkpt>
<trkpt lat="52.856057" lon="-3.378760"><ele>403</ele><time>2020-01-18T13:47:47Z</time><name>PT11414</name></trkpt>
<trkpt lat="52.856062" lon="-3.378759"><ele>403</ele><time>2020-01-18T13:47:47Z</time><name>PT11415</name></trkpt>
<trkpt lat="52.856065" lon="-3.378760"><ele>402</ele><time>2020-01-18T13:47:48Z</time><name>PT11416</name></trkpt>
<trkpt lat="52.856068" lon="-3.378754"><ele>403</ele><time>2020-01-18T13:47:50Z</time><name>PT11417</name></trkpt>
<trkpt lat="52.856081" lon="-3.378729"><ele>403</ele><time>2020-01-18T13:47:53Z</time><name>PT11418</name></trkpt>
<trkpt lat="52.856089" lon="-3.378734"><ele>403</ele><time>2020-01-18T13:47:54Z</time><name>PT11419</name></trkpt>
<trkpt lat="52.856091" lon="-3.378720"><ele>403</ele><time>2020-01-18T13:47:56Z</time><name>PT11420</name></trkpt>
<trkpt lat="52.856096" lon="-3.378707"><ele>403</ele><time>2020-01-18T13:47:56Z</time><name>PT11421</name></trkpt>
<trkpt lat="52.856099" lon="-3.378699"><ele>404</ele><time>2020-01-18T13:47:57Z</time><name>PT11422</name></trkpt>
<trkpt lat="52.856100" lon="-3.378690"><ele>404</ele><time>2020-01-18T13:47:59Z</time><name>PT11423</name></trkpt>
<trkpt lat="52.856105" lon="-3.378680"><ele>404</ele><time>2020-01-18T13:47:59Z</time><name>PT11424</name></trkpt>
<trkpt lat="52.856109" lon="-3.378670"><ele>404</ele><time>2020-01-18T13:48:00Z</time><name>PT11425</name></trkpt>
<trkpt lat="52.856117" lon="-3.378663"><ele>404</ele><time>2020-01-18T13:48:02Z</time><name>PT11426</name></trkpt>
<trkpt lat="52.856121" lon="-3.378649"><ele>404</ele><time>2020-01-18T13:48:02Z</time><name>PT11427</name></trkpt>
<trkpt lat="52.856127" lon="-3.378640"><ele>405</ele><time>2020-01-18T13:48:03Z</time><name>PT11428</name></trkpt>
<trkpt lat="52.856124" lon="-3.378628"><ele>405</ele><time>2020-01-18T13:48:05Z</time><name>PT11429</name></trkpt>
<trkpt lat="52.856129" lon="-3.378615"><ele>406</ele><time>2020-01-18T13:48:05Z</time><name>PT11430</name></trkpt>
<trkpt lat="52.856135" lon="-3.378603"><ele>406</ele><time>2020-01-18T13:48:06Z</time><name>PT11431</name></trkpt>
<trkpt lat="52.856140" lon="-3.378591"><ele>406</ele><time>2020-01-18T13:48:08Z</time><name>PT11432</name></trkpt>
<trkpt lat="52.856150" lon="-3.378588"><ele>406</ele><time>2020-01-18T13:48:08Z</time><name>PT11433</name></trkpt>
<trkpt lat="52.856161" lon="-3.378585"><ele>406</ele><time>2020-01-18T13:48:09Z</time><name>PT11434</name></trkpt>
<trkpt lat="52.856166" lon="-3.378576"><ele>406</ele><time>2020-01-18T13:48:11Z</time><name>PT11435</name></trkpt>
<trkpt lat="52.856168" lon="-3.378565"><ele>406</ele><time>2020-01-18T13:48:11Z</time><name>PT11436</name></trkpt>
<trkpt lat="52.856177" lon="-3.378556"><ele>406</ele><time>2020-01-18T13:48:13Z</time><name>PT11437</name></trkpt>
<trkpt lat="52.856185" lon="-3.378547"><ele>407</ele><time>2020-01-18T13:48:14Z</time><name>PT11438</name></trkpt>
<trkpt lat="52.856193" lon="-3.378537"><ele>407</ele><time>2020-01-18T13:48:14Z</time><name>PT11439</name></trkpt>
<trkpt lat="52.856201" lon="-3.378529"><ele>408</ele><time>2020-01-18T13:48:15Z</time><name>PT11440</name></trkpt>
<trkpt lat="52.856210" lon="-3.378521"><ele>408</ele><time>2020-01-18T13:48:17Z</time><name>PT11441</name></trkpt>
<trkpt lat="52.856216" lon="-3.378516"><ele>409</ele><time>2020-01-18T13:48:17Z</time><name>PT11442</name></trkpt>
<trkpt lat="52.856220" lon="-3.378510"><ele>409</ele><time>2020-01-18T13:48:18Z</time><name>PT11443</name></trkpt>
<trkpt lat="52.856225" lon="-3.378503"><ele>409</ele><time>2020-01-18T13:48:20Z</time><name>PT11444</name></trkpt>
<trkpt lat="52.856228" lon="-3.378496"><ele>409</ele><time>2020-01-18T13:48:20Z</time><name>PT11445</name></trkpt>
<trkpt lat="52.856231" lon="-3.378494"><ele>409</ele><time>2020-01-18T13:48:21Z</time><name>PT11446</name></trkpt>
<trkpt lat="52.856231" lon="-3.378494"><ele>409</ele><time>2020-01-18T13:48:23Z</time><name>PT11447</name></trkpt>
<trkpt lat="52.856233" lon="-3.378494"><ele>409</ele><time>2020-01-18T13:48:23Z</time><name>PT11448</name></trkpt>
<trkpt lat="52.856241" lon="-3.378479"><ele>410</ele><time>2020-01-18T13:48:29Z</time><name>PT11449</name></trkpt>
<trkpt lat="52.856245" lon="-3.378458"><ele>409</ele><time>2020-01-18T13:48:29Z</time><name>PT11450</name></trkpt>
<trkpt lat="52.856251" lon="-3.378447"><ele>409</ele><time>2020-01-18T13:48:30Z</time><name>PT11451</name></trkpt>
<trkpt lat="52.856253" lon="-3.378438"><ele>409</ele><time>2020-01-18T13:48:32Z</time><name>PT11452</name></trkpt>
<trkpt lat="52.856257" lon="-3.378430"><ele>410</ele><time>2020-01-18T13:48:32Z</time><name>PT11453</name></trkpt>
<trkpt lat="52.856262" lon="-3.378420"><ele>410</ele><time>2020-01-18T13:48:33Z</time><name>PT11454</name></trkpt>
<trkpt lat="52.856266" lon="-3.378406"><ele>410</ele><time>2020-01-18T13:48:35Z</time><name>PT11455</name></trkpt>
<trkpt lat="52.856267" lon="-3.378388"><ele>410</ele><time>2020-01-18T13:48:35Z</time><name>PT11456</name></trkpt>
<trkpt lat="52.856264" lon="-3.378385"><ele>410</ele><time>2020-01-18T13:48:36Z</time><name>PT11457</name></trkpt>
<trkpt lat="52.856271" lon="-3.378379"><ele>411</ele><time>2020-01-18T13:48:38Z</time><name>PT11458</name></trkpt>
<trkpt lat="52.856275" lon="-3.378371"><ele>411</ele><time>2020-01-18T13:48:38Z</time><name>PT11459</name></trkpt>
<trkpt lat="52.856279" lon="-3.378368"><ele>411</ele><time>2020-01-18T13:48:39Z</time><name>PT11460</name></trkpt>
<trkpt lat="52.856284" lon="-3.378363"><ele>411</ele><time>2020-01-18T13:48:41Z</time><name>PT11461</name></trkpt>
<trkpt lat="52.856289" lon="-3.378357"><ele>411</ele><time>2020-01-18T13:48:41Z</time><name>PT11462</name></trkpt>
<trkpt lat="52.856294" lon="-3.378350"><ele>411</ele><time>2020-01-18T13:48:42Z</time><name>PT11463</name></trkpt>
<trkpt lat="52.856298" lon="-3.378345"><ele>412</ele><time>2020-01-18T13:48:44Z</time><name>PT11464</name></trkpt>
<trkpt lat="52.856298" lon="-3.378344"><ele>411</ele><time>2020-01-18T13:48:50Z</time><name>PT11465</name></trkpt>
<trkpt lat="52.856309" lon="-3.378342"><ele>412</ele><time>2020-01-18T13:48:51Z</time><name>PT11466</name></trkpt>
<trkpt lat="52.856318" lon="-3.378337"><ele>412</ele><time>2020-01-18T13:48:53Z</time><name>PT11467</name></trkpt>
<trkpt lat="52.856328" lon="-3.378336"><ele>413</ele><time>2020-01-18T13:48:53Z</time><name>PT11468</name></trkpt>
<trkpt lat="52.856337" lon="-3.378326"><ele>413</ele><time>2020-01-18T13:48:54Z</time><name>PT11469</name></trkpt>
<trkpt lat="52.856346" lon="-3.378320"><ele>413</ele><time>2020-01-18T13:48:56Z</time><name>PT11470</name></trkpt>
<trkpt lat="52.856358" lon="-3.378323"><ele>413</ele><time>2020-01-18T13:48:56Z</time><name>PT11471</name></trkpt>
<trkpt lat="52.856367" lon="-3.378323"><ele>414</ele><time>2020-01-18T13:48:57Z</time><name>PT11472</name></trkpt>
<trkpt lat="52.856373" lon="-3.378320"><ele>415</ele><time>2020-01-18T13:48:59Z</time><name>PT11473</name></trkpt>
<trkpt lat="52.856378" lon="-3.378315"><ele>415</ele><time>2020-01-18T13:48:59Z</time><name>PT11474</name></trkpt>
<trkpt lat="52.856384" lon="-3.378309"><ele>415</ele><time>2020-01-18T13:49:00Z</time><name>PT11475</name></trkpt>
<trkpt lat="52.856388" lon="-3.378298"><ele>415</ele><time>2020-01-18T13:49:02Z</time><name>PT11476</name></trkpt>
<trkpt lat="52.856396" lon="-3.378290"><ele>416</ele><time>2020-01-18T13:49:02Z</time><name>PT11477</name></trkpt>
<trkpt lat="52.856403" lon="-3.378288"><ele>416</ele><time>2020-01-18T13:49:03Z</time><name>PT11478</name></trkpt>
<trkpt lat="52.856411" lon="-3.378284"><ele>416</ele><time>2020-01-18T13:49:05Z</time><name>PT11479</name></trkpt>
<trkpt lat="52.856417" lon="-3.378279"><ele>416</ele><time>2020-01-18T13:49:05Z</time><name>PT11480</name></trkpt>
<trkpt lat="52.856429" lon="-3.378273"><ele>417</ele><time>2020-01-18T13:49:06Z</time><name>PT11481</name></trkpt>
<trkpt lat="52.856433" lon="-3.378273"><ele>417</ele><time>2020-01-18T13:49:08Z</time><name>PT11482</name></trkpt>
<trkpt lat="52.856434" lon="-3.378276"><ele>415</ele><time>2020-01-18T13:49:08Z</time><name>PT11483</name></trkpt>
<trkpt lat="52.856442" lon="-3.378282"><ele>415</ele><time>2020-01-18T13:49:09Z</time><name>PT11484</name></trkpt>
<trkpt lat="52.856448" lon="-3.378287"><ele>415</ele><time>2020-01-18T13:49:11Z</time><name>PT11485</name></trkpt>
<trkpt lat="52.856454" lon="-3.378289"><ele>414</ele><time>2020-01-18T13:49:11Z</time><name>PT11486</name></trkpt>
<trkpt lat="52.856462" lon="-3.378286"><ele>414</ele><time>2020-01-18T13:49:12Z</time><name>PT11487</name></trkpt>
<trkpt lat="52.856462" lon="-3.378281"><ele>413</ele><time>2020-01-18T13:49:14Z</time><name>PT11488</name></trkpt>
<trkpt lat="52.856465" lon="-3.378279"><ele>413</ele><time>2020-01-18T13:49:14Z</time><name>PT11489</name></trkpt>
<trkpt lat="52.856470" lon="-3.378278"><ele>413</ele><time>2020-01-18T13:49:15Z</time><name>PT11490</name></trkpt>
<trkpt lat="52.856472" lon="-3.378274"><ele>412</ele><time>2020-01-18T13:49:17Z</time><name>PT11491</name></trkpt>
<trkpt lat="52.856476" lon="-3.378270"><ele>413</ele><time>2020-01-18T13:49:17Z</time><name>PT11492</name></trkpt>
<trkpt lat="52.856478" lon="-3.378263"><ele>414</ele><time>2020-01-18T13:49:18Z</time><name>PT11493</name></trkpt>
<trkpt lat="52.856480" lon="-3.378253"><ele>414</ele><time>2020-01-18T13:49:20Z</time><name>PT11494</name></trkpt>
<trkpt lat="52.856484" lon="-3.378239"><ele>414</ele><time>2020-01-18T13:49:20Z</time><name>PT11495</name></trkpt>
<trkpt lat="52.856487" lon="-3.378227"><ele>414</ele><time>2020-01-18T13:49:21Z</time><name>PT11496</name></trkpt>
<trkpt lat="52.856490" lon="-3.378214"><ele>415</ele><time>2020-01-18T13:49:23Z</time><name>PT11497</name></trkpt>
<trkpt lat="52.856492" lon="-3.378201"><ele>415</ele><time>2020-01-18T13:49:23Z</time><name>PT11498</name></trkpt>
<trkpt lat="52.856496" lon="-3.378189"><ele>415</ele><time>2020-01-18T13:49:24Z</time><name>PT11499</name></trkpt>
<trkpt lat="52.856499" lon="-3.378179"><ele>415</ele><time>2020-01-18T13:49:26Z</time><name>PT11500</name></trkpt>
<trkpt lat="52.856501" lon="-3.378167"><ele>415</ele><time>2020-01-18T13:49:26Z</time><name>PT11501</name></trkpt>
<trkpt lat="52.856503" lon="-3.378156"><ele>416</ele><time>2020-01-18T13:49:27Z</time><name>PT11502</name></trkpt>
<trkpt lat="52.856502" lon="-3.378143"><ele>415</ele><time>2020-01-18T13:49:29Z</time><name>PT11503</name></trkpt>
<trkpt lat="52.856504" lon="-3.378137"><ele>416</ele><time>2020-01-18T13:49:29Z</time><name>PT11504</name></trkpt>
<trkpt lat="52.856502" lon="-3.378135"><ele>416</ele><time>2020-01-18T13:49:30Z</time><name>PT11505</name></trkpt>
<trkpt lat="52.856505" lon="-3.378128"><ele>417</ele><time>2020-01-18T13:49:32Z</time><name>PT11506</name></trkpt>
<trkpt lat="52.856508" lon="-3.378121"><ele>417</ele><time>2020-01-18T13:49:32Z</time><name>PT11507</name></trkpt>
<trkpt lat="52.856509" lon="-3.378108"><ele>416</ele><time>2020-01-18T13:49:33Z</time><name>PT11508</name></trkpt>
<trkpt lat="52.856510" lon="-3.378106"><ele>416</ele><time>2020-01-18T13:49:35Z</time><name>PT11509</name></trkpt>
<trkpt lat="52.856514" lon="-3.378105"><ele>416</ele><time>2020-01-18T13:49:35Z</time><name>PT11510</name></trkpt>
<trkpt lat="52.856514" lon="-3.378097"><ele>417</ele><time>2020-01-18T13:49:36Z</time><name>PT11511</name></trkpt>
<trkpt lat="52.856513" lon="-3.378088"><ele>417</ele><time>2020-01-18T13:49:38Z</time><name>PT11512</name></trkpt>
<trkpt lat="52.856514" lon="-3.378076"><ele>417</ele><time>2020-01-18T13:49:38Z</time><name>PT11513</name></trkpt>
<trkpt lat="52.856516" lon="-3.378060"><ele>417</ele><time>2020-01-18T13:49:39Z</time><name>PT11514</name></trkpt>
<trkpt lat="52.856517" lon="-3.378048"><ele>417</ele><time>2020-01-18T13:49:41Z</time><name>PT11515</name></trkpt>
<trkpt lat="52.856520" lon="-3.378033"><ele>417</ele><time>2020-01-18T13:49:42Z</time><name>PT11516</name></trkpt>
<trkpt lat="52.856524" lon="-3.378018"><ele>417</ele><time>2020-01-18T13:49:42Z</time><name>PT11517</name></trkpt>
<trkpt lat="52.856525" lon="-3.378005"><ele>418</ele><time>2020-01-18T13:49:44Z</time><name>PT11518</name></trkpt>
<trkpt lat="52.856523" lon="-3.377993"><ele>418</ele><time>2020-01-18T13:49:44Z</time><name>PT11519</name></trkpt>
<trkpt lat="52.856527" lon="-3.377973"><ele>419</ele><time>2020-01-18T13:49:45Z</time><name>PT11520</name></trkpt>
<trkpt lat="52.856531" lon="-3.377959"><ele>419</ele><time>2020-01-18T13:49:47Z</time><name>PT11521</name></trkpt>
<trkpt lat="52.856533" lon="-3.377947"><ele>419</ele><time>2020-01-18T13:49:47Z</time><name>PT11522</name></trkpt>
<trkpt lat="52.856534" lon="-3.377930"><ele>419</ele><time>2020-01-18T13:49:48Z</time><name>PT11523</name></trkpt>
<trkpt lat="52.856537" lon="-3.377914"><ele>418</ele><time>2020-01-18T13:49:50Z</time><name>PT11524</name></trkpt>
<trkpt lat="52.856537" lon="-3.377904"><ele>418</ele><time>2020-01-18T13:49:50Z</time><name>PT11525</name></trkpt>
<trkpt lat="52.856538" lon="-3.377893"><ele>418</ele><time>2020-01-18T13:49:51Z</time><name>PT11526</name></trkpt>
<trkpt lat="52.856540" lon="-3.377876"><ele>418</ele><time>2020-01-18T13:49:53Z</time><name>PT11527</name></trkpt>
<trkpt lat="52.856545" lon="-3.377861"><ele>419</ele><time>2020-01-18T13:49:53Z</time><name>PT11528</name></trkpt>
<trkpt lat="52.856549" lon="-3.377849"><ele>419</ele><time>2020-01-18T13:49:54Z</time><name>PT11529</name></trkpt>
<trkpt lat="52.856552" lon="-3.377835"><ele>419</ele><time>2020-01-18T13:49:56Z</time><name>PT11530</name></trkpt>
<trkpt lat="52.856557" lon="-3.377823"><ele>419</ele><time>2020-01-18T13:49:56Z</time><name>PT11531</name></trkpt>
<trkpt lat="52.856561" lon="-3.377812"><ele>419</ele><time>2020-01-18T13:49:57Z</time><name>PT11532</name></trkpt>
<trkpt lat="52.856564" lon="-3.377797"><ele>419</ele><time>2020-01-18T13:49:59Z</time><name>PT11533</name></trkpt>
<trkpt lat="52.856569" lon="-3.377779"><ele>420</ele><time>2020-01-18T13:49:59Z</time><name>PT11534</name></trkpt>
<trkpt lat="52.856571" lon="-3.377766"><ele>420</ele><time>2020-01-18T13:50:00Z</time><name>PT11535</name></trkpt>
<trkpt lat="52.856570" lon="-3.377753"><ele>420</ele><time>2020-01-18T13:50:02Z</time><name>PT11536</name></trkpt>
<trkpt lat="52.856571" lon="-3.377741"><ele>420</ele><time>2020-01-18T13:50:02Z</time><name>PT11537</name></trkpt>
<trkpt lat="52.856577" lon="-3.377727"><ele>420</ele><time>2020-01-18T13:50:03Z</time><name>PT11538</name></trkpt>
<trkpt lat="52.856581" lon="-3.377712"><ele>421</ele><time>2020-01-18T13:50:05Z</time><name>PT11539</name></trkpt>
<trkpt lat="52.856585" lon="-3.377695"><ele>420</ele><time>2020-01-18T13:50:05Z</time><name>PT11540</name></trkpt>
<trkpt lat="52.856588" lon="-3.377675"><ele>420</ele><time>2020-01-18T13:50:06Z</time><name>PT11541</name></trkpt>
<trkpt lat="52.856591" lon="-3.377661"><ele>421</ele><time>2020-01-18T13:50:08Z</time><name>PT11542</name></trkpt>
<trkpt lat="52.856600" lon="-3.377657"><ele>420</ele><time>2020-01-18T13:50:08Z</time><name>PT11543</name></trkpt>
<trkpt lat="52.856606" lon="-3.377647"><ele>420</ele><time>2020-01-18T13:50:09Z</time><name>PT11544</name></trkpt>
<trkpt lat="52.856611" lon="-3.377637"><ele>420</ele><time>2020-01-18T13:50:11Z</time><name>PT11545</name></trkpt>
<trkpt lat="52.856617" lon="-3.377624"><ele>419</ele><time>2020-01-18T13:50:11Z</time><name>PT11546</name></trkpt>
<trkpt lat="52.856623" lon="-3.377611"><ele>418</ele><time>2020-01-18T13:50:12Z</time><name>PT11547</name></trkpt>
<trkpt lat="52.856631" lon="-3.377602"><ele>419</ele><time>2020-01-18T13:50:14Z</time><name>PT11548</name></trkpt>
<trkpt lat="52.856639" lon="-3.377593"><ele>418</ele><time>2020-01-18T13:50:14Z</time><name>PT11549</name></trkpt>
<trkpt lat="52.856647" lon="-3.377578"><ele>418</ele><time>2020-01-18T13:50:15Z</time><name>PT11550</name></trkpt>
<trkpt lat="52.856654" lon="-3.377566"><ele>418</ele><time>2020-01-18T13:50:17Z</time><name>PT11551</name></trkpt>
<trkpt lat="52.856661" lon="-3.377555"><ele>418</ele><time>2020-01-18T13:50:17Z</time><name>PT11552</name></trkpt>
<trkpt lat="52.856668" lon="-3.377544"><ele>418</ele><time>2020-01-18T13:50:18Z</time><name>PT11553</name></trkpt>
<trkpt lat="52.856677" lon="-3.377537"><ele>418</ele><time>2020-01-18T13:50:20Z</time><name>PT11554</name></trkpt>
<trkpt lat="52.856688" lon="-3.377524"><ele>419</ele><time>2020-01-18T13:50:20Z</time><name>PT11555</name></trkpt>
<trkpt lat="52.856697" lon="-3.377518"><ele>418</ele><time>2020-01-18T13:50:21Z</time><name>PT11556</name></trkpt>
<trkpt lat="52.856706" lon="-3.377513"><ele>418</ele><time>2020-01-18T13:50:23Z</time><name>PT11557</name></trkpt>
<trkpt lat="52.856714" lon="-3.377505"><ele>418</ele><time>2020-01-18T13:50:23Z</time><name>PT11558</name></trkpt>
<trkpt lat="52.856723" lon="-3.377496"><ele>418</ele><time>2020-01-18T13:50:24Z</time><name>PT11559</name></trkpt>
<trkpt lat="52.856728" lon="-3.377487"><ele>417</ele><time>2020-01-18T13:50:26Z</time><name>PT11560</name></trkpt>
<trkpt lat="52.856732" lon="-3.377472"><ele>418</ele><time>2020-01-18T13:50:26Z</time><name>PT11561</name></trkpt>
<trkpt lat="52.856739" lon="-3.377469"><ele>417</ele><time>2020-01-18T13:50:27Z</time><name>PT11562</name></trkpt>
<trkpt lat="52.856748" lon="-3.377465"><ele>418</ele><time>2020-01-18T13:50:29Z</time><name>PT11563</name></trkpt>
<trkpt lat="52.856754" lon="-3.377460"><ele>416</ele><time>2020-01-18T13:50:29Z</time><name>PT11564</name></trkpt>
<trkpt lat="52.856755" lon="-3.377451"><ele>417</ele><time>2020-01-18T13:50:30Z</time><name>PT11565</name></trkpt>
<trkpt lat="52.856755" lon="-3.377442"><ele>416</ele><time>2020-01-18T13:50:32Z</time><name>PT11566</name></trkpt>
<trkpt lat="52.856762" lon="-3.377433"><ele>416</ele><time>2020-01-18T13:50:32Z</time><name>PT11567</name></trkpt>
<trkpt lat="52.856767" lon="-3.377419"><ele>416</ele><time>2020-01-18T13:50:33Z</time><name>PT11568</name></trkpt>
<trkpt lat="52.856770" lon="-3.377405"><ele>416</ele><time>2020-01-18T13:50:35Z</time><name>PT11569</name></trkpt>
<trkpt lat="52.856773" lon="-3.377385"><ele>417</ele><time>2020-01-18T13:50:35Z</time><name>PT11570</name></trkpt>
<trkpt lat="52.856776" lon="-3.377376"><ele>416</ele><time>2020-01-18T13:50:36Z</time><name>PT11571</name></trkpt>
<trkpt lat="52.856781" lon="-3.377366"><ele>416</ele><time>2020-01-18T13:50:38Z</time><name>PT11572</name></trkpt>
<trkpt lat="52.856788" lon="-3.377354"><ele>416</ele><time>2020-01-18T13:50:38Z</time><name>PT11573</name></trkpt>
<trkpt lat="52.856792" lon="-3.377338"><ele>416</ele><time>2020-01-18T13:50:39Z</time><name>PT11574</name></trkpt>
<trkpt lat="52.856795" lon="-3.377319"><ele>415</ele><time>2020-01-18T13:50:41Z</time><name>PT11575</name></trkpt>
<trkpt lat="52.856799" lon="-3.377305"><ele>415</ele><time>2020-01-18T13:50:41Z</time><name>PT11576</name></trkpt>
<trkpt lat="52.856805" lon="-3.377290"><ele>415</ele><time>2020-01-18T13:50:42Z</time><name>PT11577</name></trkpt>
<trkpt lat="52.856812" lon="-3.377279"><ele>415</ele><time>2020-01-18T13:50:44Z</time><name>PT11578</name></trkpt>
<trkpt lat="52.856817" lon="-3.377275"><ele>414</ele><time>2020-01-18T13:50:44Z</time><name>PT11579</name></trkpt>
<trkpt lat="52.856822" lon="-3.377265"><ele>414</ele><time>2020-01-18T13:50:45Z</time><name>PT11580</name></trkpt>
<trkpt lat="52.856827" lon="-3.377258"><ele>414</ele><time>2020-01-18T13:50:47Z</time><name>PT11581</name></trkpt>
<trkpt lat="52.856834" lon="-3.377253"><ele>413</ele><time>2020-01-18T13:50:47Z</time><name>PT11582</name></trkpt>
<trkpt lat="52.856846" lon="-3.377246"><ele>413</ele><time>2020-01-18T13:50:48Z</time><name>PT11583</name></trkpt>
<trkpt lat="52.856854" lon="-3.377239"><ele>412</ele><time>2020-01-18T13:50:50Z</time><name>PT11584</name></trkpt>
<trkpt lat="52.856860" lon="-3.377229"><ele>411</ele><time>2020-01-18T13:50:50Z</time><name>PT11585</name></trkpt>
<trkpt lat="52.856867" lon="-3.377225"><ele>411</ele><time>2020-01-18T13:50:51Z</time><name>PT11586</name></trkpt>
<trkpt lat="52.856871" lon="-3.377219"><ele>411</ele><time>2020-01-18T13:50:53Z</time><name>PT11587</name></trkpt>
<trkpt lat="52.856874" lon="-3.377208"><ele>411</ele><time>2020-01-18T13:50:53Z</time><name>PT11588</name></trkpt>
<trkpt lat="52.856880" lon="-3.377196"><ele>411</ele><time>2020-01-18T13:50:54Z</time><name>PT11589</name></trkpt>
<trkpt lat="52.856887" lon="-3.377184"><ele>411</ele><time>2020-01-18T13:50:56Z</time><name>PT11590</name></trkpt>
<trkpt lat="52.856891" lon="-3.377170"><ele>410</ele><time>2020-01-18T13:50:56Z</time><name>PT11591</name></trkpt>
<trkpt lat="52.856894" lon="-3.377158"><ele>410</ele><time>2020-01-18T13:50:57Z</time><name>PT11592</name></trkpt>
<trkpt lat="52.856896" lon="-3.377142"><ele>409</ele><time>2020-01-18T13:50:59Z</time><name>PT11593</name></trkpt>
<trkpt lat="52.856900" lon="-3.377131"><ele>409</ele><time>2020-01-18T13:50:59Z</time><name>PT11594</name></trkpt>
<trkpt lat="52.856901" lon="-3.377120"><ele>408</ele><time>2020-01-18T13:51:00Z</time><name>PT11595</name></trkpt>
<trkpt lat="52.856903" lon="-3.377100"><ele>409</ele><time>2020-01-18T13:51:02Z</time><name>PT11596</name></trkpt>
<trkpt lat="52.856908" lon="-3.377083"><ele>408</ele><time>2020-01-18T13:51:02Z</time><name>PT11597</name></trkpt>
<trkpt lat="52.856915" lon="-3.377070"><ele>408</ele><time>2020-01-18T13:51:03Z</time><name>PT11598</name></trkpt>
<trkpt lat="52.856917" lon="-3.377061"><ele>407</ele><time>2020-01-18T13:51:05Z</time><name>PT11599</name></trkpt>
<trkpt lat="52.856923" lon="-3.377051"><ele>406</ele><time>2020-01-18T13:51:05Z</time><name>PT11600</name></trkpt>
<trkpt lat="52.856928" lon="-3.377044"><ele>405</ele><time>2020-01-18T13:51:06Z</time><name>PT11601</name></trkpt>
<trkpt lat="52.856933" lon="-3.377034"><ele>404</ele><time>2020-01-18T13:51:08Z</time><name>PT11602</name></trkpt>
<trkpt lat="52.856942" lon="-3.377024"><ele>405</ele><time>2020-01-18T13:51:08Z</time><name>PT11603</name></trkpt>
<trkpt lat="52.856949" lon="-3.377009"><ele>405</ele><time>2020-01-18T13:51:09Z</time><name>PT11604</name></trkpt>
<trkpt lat="52.856956" lon="-3.376996"><ele>405</ele><time>2020-01-18T13:51:11Z</time><name>PT11605</name></trkpt>
<trkpt lat="52.856966" lon="-3.376984"><ele>404</ele><time>2020-01-18T13:51:11Z</time><name>PT11606</name></trkpt>
<trkpt lat="52.856972" lon="-3.376970"><ele>404</ele><time>2020-01-18T13:51:12Z</time><name>PT11607</name></trkpt>
<trkpt lat="52.856980" lon="-3.376959"><ele>403</ele><time>2020-01-18T13:51:14Z</time><name>PT11608</name></trkpt>
<trkpt lat="52.856988" lon="-3.376948"><ele>403</ele><time>2020-01-18T13:51:14Z</time><name>PT11609</name></trkpt>
<trkpt lat="52.856995" lon="-3.376941"><ele>403</ele><time>2020-01-18T13:51:15Z</time><name>PT11610</name></trkpt>
<trkpt lat="52.856999" lon="-3.376937"><ele>402</ele><time>2020-01-18T13:51:17Z</time><name>PT11611</name></trkpt>
<trkpt lat="52.857004" lon="-3.376927"><ele>402</ele><time>2020-01-18T13:51:17Z</time><name>PT11612</name></trkpt>
<trkpt lat="52.857019" lon="-3.376923"><ele>401</ele><time>2020-01-18T13:51:18Z</time><name>PT11613</name></trkpt>
<trkpt lat="52.857031" lon="-3.376912"><ele>401</ele><time>2020-01-18T13:51:20Z</time><name>PT11614</name></trkpt>
<trkpt lat="52.857039" lon="-3.376902"><ele>401</ele><time>2020-01-18T13:51:20Z</time><name>PT11615</name></trkpt>
<trkpt lat="52.857056" lon="-3.376899"><ele>400</ele><time>2020-01-18T13:51:21Z</time><name>PT11616</name></trkpt>
<trkpt lat="52.857079" lon="-3.376900"><ele>399</ele><time>2020-01-18T13:51:23Z</time><name>PT11617</name></trkpt>
<trkpt lat="52.857092" lon="-3.376893"><ele>401</ele><time>2020-01-18T13:51:23Z</time><name>PT11618</name></trkpt>
<trkpt lat="52.857103" lon="-3.376890"><ele>401</ele><time>2020-01-18T13:51:24Z</time><name>PT11619</name></trkpt>
<trkpt lat="52.857115" lon="-3.376877"><ele>401</ele><time>2020-01-18T13:51:26Z</time><name>PT11620</name></trkpt>
<trkpt lat="52.857123" lon="-3.376866"><ele>401</ele><time>2020-01-18T13:51:26Z</time><name>PT11621</name></trkpt>
<trkpt lat="52.857129" lon="-3.376858"><ele>402</ele><time>2020-01-18T13:51:27Z</time><name>PT11622</name></trkpt>
<trkpt lat="52.857134" lon="-3.376851"><ele>401</ele><time>2020-01-18T13:51:29Z</time><name>PT11623</name></trkpt>
<trkpt lat="52.857135" lon="-3.376838"><ele>401</ele><time>2020-01-18T13:51:29Z</time><name>PT11624</name></trkpt>
<trkpt lat="52.857135" lon="-3.376831"><ele>401</ele><time>2020-01-18T13:51:30Z</time><name>PT11625</name></trkpt>
<trkpt lat="52.857138" lon="-3.376831"><ele>401</ele><time>2020-01-18T13:51:32Z</time><name>PT11626</name></trkpt>
<trkpt lat="52.857139" lon="-3.376833"><ele>402</ele><time>2020-01-18T13:51:32Z</time><name>PT11627</name></trkpt>
<trkpt lat="52.857141" lon="-3.376834"><ele>402</ele><time>2020-01-18T13:51:33Z</time><name>PT11628</name></trkpt>
<trkpt lat="52.857142" lon="-3.376834"><ele>401</ele><time>2020-01-18T13:51:35Z</time><name>PT11629</name></trkpt>
<trkpt lat="52.857140" lon="-3.376832"><ele>401</ele><time>2020-01-18T13:51:48Z</time><name>PT11630</name></trkpt>
<trkpt lat="52.857143" lon="-3.376834"><ele>402</ele><time>2020-01-18T13:51:50Z</time><name>PT11631</name></trkpt>
<trkpt lat="52.857142" lon="-3.376835"><ele>401</ele><time>2020-01-18T13:51:50Z</time><name>PT11632</name></trkpt>
<trkpt lat="52.857142" lon="-3.376833"><ele>401</ele><time>2020-01-18T13:51:51Z</time><name>PT11633</name></trkpt>
<trkpt lat="52.857143" lon="-3.376835"><ele>401</ele><time>2020-01-18T13:51:53Z</time><name>PT11634</name></trkpt>
<trkpt lat="52.857145" lon="-3.376835"><ele>401</ele><time>2020-01-18T13:52:03Z</time><name>PT11635</name></trkpt>
<trkpt lat="52.857143" lon="-3.376834"><ele>401</ele><time>2020-01-18T13:52:05Z</time><name>PT11636</name></trkpt>
<trkpt lat="52.857145" lon="-3.376842"><ele>401</ele><time>2020-01-18T13:52:05Z</time><name>PT11637</name></trkpt>
<trkpt lat="52.857148" lon="-3.376836"><ele>400</ele><time>2020-01-18T13:52:06Z</time><name>PT11638</name></trkpt>
<trkpt lat="52.857152" lon="-3.376836"><ele>401</ele><time>2020-01-18T13:52:08Z</time><name>PT11639</name></trkpt>
<trkpt lat="52.857153" lon="-3.376835"><ele>401</ele><time>2020-01-18T13:52:08Z</time><name>PT11640</name></trkpt>
<trkpt lat="52.857154" lon="-3.376835"><ele>401</ele><time>2020-01-18T13:52:09Z</time><name>PT11641</name></trkpt>
<trkpt lat="52.857156" lon="-3.376837"><ele>401</ele><time>2020-01-18T13:52:11Z</time><name>PT11642</name></trkpt>
<trkpt lat="52.857154" lon="-3.376841"><ele>401</ele><time>2020-01-18T13:52:13Z</time><name>PT11643</name></trkpt>
<trkpt lat="52.857152" lon="-3.376840"><ele>401</ele><time>2020-01-18T13:52:14Z</time><name>PT11644</name></trkpt>
<trkpt lat="52.857149" lon="-3.376838"><ele>401</ele><time>2020-01-18T13:52:14Z</time><name>PT11645</name></trkpt>
<trkpt lat="52.857152" lon="-3.376849"><ele>401</ele><time>2020-01-18T13:52:41Z</time><name>PT11646</name></trkpt>
<trkpt lat="52.857155" lon="-3.376855"><ele>402</ele><time>2020-01-18T13:52:41Z</time><name>PT11647</name></trkpt>
<trkpt lat="52.857155" lon="-3.376862"><ele>402</ele><time>2020-01-18T13:52:42Z</time><name>PT11648</name></trkpt>
<trkpt lat="52.857162" lon="-3.376837"><ele>403</ele><time>2020-01-18T13:52:51Z</time><name>PT11649</name></trkpt>
<trkpt lat="52.857164" lon="-3.376838"><ele>403</ele><time>2020-01-18T13:52:53Z</time><name>PT11650</name></trkpt>
<trkpt lat="52.857161" lon="-3.376837"><ele>403</ele><time>2020-01-18T13:52:53Z</time><name>PT11651</name></trkpt>
<trkpt lat="52.857159" lon="-3.376832"><ele>403</ele><time>2020-01-18T13:52:55Z</time><name>PT11652</name></trkpt>
<trkpt lat="52.857159" lon="-3.376827"><ele>403</ele><time>2020-01-18T13:52:56Z</time><name>PT11653</name></trkpt>
<trkpt lat="52.857157" lon="-3.376819"><ele>404</ele><time>2020-01-18T13:52:56Z</time><name>PT11654</name></trkpt>
<trkpt lat="52.857156" lon="-3.376811"><ele>403</ele><time>2020-01-18T13:52:57Z</time><name>PT11655</name></trkpt>
<trkpt lat="52.857153" lon="-3.376806"><ele>403</ele><time>2020-01-18T13:52:59Z</time><name>PT11656</name></trkpt>
<trkpt lat="52.857145" lon="-3.376800"><ele>403</ele><time>2020-01-18T13:52:59Z</time><name>PT11657</name></trkpt>
<trkpt lat="52.857138" lon="-3.376795"><ele>403</ele><time>2020-01-18T13:53:00Z</time><name>PT11658</name></trkpt>
<trkpt lat="52.857137" lon="-3.376793"><ele>403</ele><time>2020-01-18T13:53:02Z</time><name>PT11659</name></trkpt>
<trkpt lat="52.857131" lon="-3.376788"><ele>404</ele><time>2020-01-18T13:53:02Z</time><name>PT11660</name></trkpt>
<trkpt lat="52.857127" lon="-3.376788"><ele>404</ele><time>2020-01-18T13:53:03Z</time><name>PT11661</name></trkpt>
<trkpt lat="52.857120" lon="-3.376785"><ele>404</ele><time>2020-01-18T13:53:05Z</time><name>PT11662</name></trkpt>
<trkpt lat="52.857115" lon="-3.376783"><ele>404</ele><time>2020-01-18T13:53:05Z</time><name>PT11663</name></trkpt>
<trkpt lat="52.857112" lon="-3.376780"><ele>404</ele><time>2020-01-18T13:53:06Z</time><name>PT11664</name></trkpt>
<trkpt lat="52.857108" lon="-3.376781"><ele>403</ele><time>2020-01-18T13:53:08Z</time><name>PT11665</name></trkpt>
<trkpt lat="52.857111" lon="-3.376780"><ele>403</ele><time>2020-01-18T13:53:11Z</time><name>PT11666</name></trkpt>
<trkpt lat="52.857108" lon="-3.376781"><ele>402</ele><time>2020-01-18T13:53:12Z</time><name>PT11667</name></trkpt>
<trkpt lat="52.857094" lon="-3.376782"><ele>401</ele><time>2020-01-18T13:53:14Z</time><name>PT11668</name></trkpt>
<trkpt lat="52.857089" lon="-3.376774"><ele>402</ele><time>2020-01-18T13:53:14Z</time><name>PT11669</name></trkpt>
<trkpt lat="52.857084" lon="-3.376776"><ele>402</ele><time>2020-01-18T13:53:15Z</time><name>PT11670</name></trkpt>
<trkpt lat="52.857075" lon="-3.376777"><ele>402</ele><time>2020-01-18T13:53:17Z</time><name>PT11671</name></trkpt>
<trkpt lat="52.857059" lon="-3.376773"><ele>401</ele><time>2020-01-18T13:53:17Z</time><name>PT11672</name></trkpt>
<trkpt lat="52.857052" lon="-3.376775"><ele>400</ele><time>2020-01-18T13:53:18Z</time><name>PT11673</name></trkpt>
<trkpt lat="52.857044" lon="-3.376767"><ele>400</ele><time>2020-01-18T13:53:20Z</time><name>PT11674</name></trkpt>
<trkpt lat="52.857036" lon="-3.376760"><ele>399</ele><time>2020-01-18T13:53:20Z</time><name>PT11675</name></trkpt>
<trkpt lat="52.857027" lon="-3.376761"><ele>398</ele><time>2020-01-18T13:53:21Z</time><name>PT11676</name></trkpt>
<trkpt lat="52.857020" lon="-3.376764"><ele>398</ele><time>2020-01-18T13:53:23Z</time><name>PT11677</name></trkpt>
<trkpt lat="52.857015" lon="-3.376765"><ele>398</ele><time>2020-01-18T13:53:23Z</time><name>PT11678</name></trkpt>
<trkpt lat="52.857005" lon="-3.376763"><ele>398</ele><time>2020-01-18T13:53:24Z</time><name>PT11679</name></trkpt>
<trkpt lat="52.856996" lon="-3.376765"><ele>398</ele><time>2020-01-18T13:53:26Z</time><name>PT11680</name></trkpt>
<trkpt lat="52.856989" lon="-3.376765"><ele>398</ele><time>2020-01-18T13:53:26Z</time><name>PT11681</name></trkpt>
<trkpt lat="52.856983" lon="-3.376762"><ele>398</ele><time>2020-01-18T13:53:27Z</time><name>PT11682</name></trkpt>
<trkpt lat="52.856979" lon="-3.376757"><ele>398</ele><time>2020-01-18T13:53:29Z</time><name>PT11683</name></trkpt>
<trkpt lat="52.856974" lon="-3.376757"><ele>398</ele><time>2020-01-18T13:53:29Z</time><name>PT11684</name></trkpt>
<trkpt lat="52.856968" lon="-3.376756"><ele>397</ele><time>2020-01-18T13:53:30Z</time><name>PT11685</name></trkpt>
<trkpt lat="52.856963" lon="-3.376753"><ele>397</ele><time>2020-01-18T13:53:32Z</time><name>PT11686</name></trkpt>
<trkpt lat="52.856958" lon="-3.376750"><ele>396</ele><time>2020-01-18T13:53:32Z</time><name>PT11687</name></trkpt>
<trkpt lat="52.856945" lon="-3.376743"><ele>396</ele><time>2020-01-18T13:53:33Z</time><name>PT11688</name></trkpt>
<trkpt lat="52.856938" lon="-3.376743"><ele>395</ele><time>2020-01-18T13:53:35Z</time><name>PT11689</name></trkpt>
<trkpt lat="52.856931" lon="-3.376742"><ele>395</ele><time>2020-01-18T13:53:35Z</time><name>PT11690</name></trkpt>
<trkpt lat="52.856925" lon="-3.376740"><ele>395</ele><time>2020-01-18T13:53:36Z</time><name>PT11691</name></trkpt>
<trkpt lat="52.856918" lon="-3.376737"><ele>395</ele><time>2020-01-18T13:53:38Z</time><name>PT11692</name></trkpt>
<trkpt lat="52.856910" lon="-3.376735"><ele>394</ele><time>2020-01-18T13:53:38Z</time><name>PT11693</name></trkpt>
<trkpt lat="52.856904" lon="-3.376735"><ele>393</ele><time>2020-01-18T13:53:39Z</time><name>PT11694</name></trkpt>
<trkpt lat="52.856893" lon="-3.376731"><ele>393</ele><time>2020-01-18T13:53:41Z</time><name>PT11695</name></trkpt>
<trkpt lat="52.856888" lon="-3.376728"><ele>393</ele><time>2020-01-18T13:53:41Z</time><name>PT11696</name></trkpt>
<trkpt lat="52.856880" lon="-3.376729"><ele>393</ele><time>2020-01-18T13:53:42Z</time><name>PT11697</name></trkpt>
<trkpt lat="52.856873" lon="-3.376725"><ele>392</ele><time>2020-01-18T13:53:44Z</time><name>PT11698</name></trkpt>
<trkpt lat="52.856866" lon="-3.376724"><ele>392</ele><time>2020-01-18T13:53:44Z</time><name>PT11699</name></trkpt>
<trkpt lat="52.856865" lon="-3.376726"><ele>392</ele><time>2020-01-18T13:53:45Z</time><name>PT11700</name></trkpt>
<trkpt lat="52.856862" lon="-3.376725"><ele>392</ele><time>2020-01-18T13:53:47Z</time><name>PT11701</name></trkpt>
<trkpt lat="52.856856" lon="-3.376726"><ele>392</ele><time>2020-01-18T13:53:47Z</time><name>PT11702</name></trkpt>
<trkpt lat="52.856849" lon="-3.376727"><ele>392</ele><time>2020-01-18T13:53:48Z</time><name>PT11703</name></trkpt>
<trkpt lat="52.856840" lon="-3.376723"><ele>392</ele><time>2020-01-18T13:53:50Z</time><name>PT11704</name></trkpt>
<trkpt lat="52.856833" lon="-3.376719"><ele>392</ele><time>2020-01-18T13:53:50Z</time><name>PT11705</name></trkpt>
<trkpt lat="52.856828" lon="-3.376721"><ele>392</ele><time>2020-01-18T13:53:51Z</time><name>PT11706</name></trkpt>
<trkpt lat="52.856820" lon="-3.376719"><ele>391</ele><time>2020-01-18T13:53:53Z</time><name>PT11707</name></trkpt>
<trkpt lat="52.856814" lon="-3.376721"><ele>391</ele><time>2020-01-18T13:53:53Z</time><name>PT11708</name></trkpt>
<trkpt lat="52.856805" lon="-3.376721"><ele>391</ele><time>2020-01-18T13:53:54Z</time><name>PT11709</name></trkpt>
<trkpt lat="52.856797" lon="-3.376717"><ele>391</ele><time>2020-01-18T13:53:56Z</time><name>PT11710</name></trkpt>
<trkpt lat="52.856790" lon="-3.376712"><ele>391</ele><time>2020-01-18T13:53:56Z</time><name>PT11711</name></trkpt>
<trkpt lat="52.856780" lon="-3.376705"><ele>390</ele><time>2020-01-18T13:53:57Z</time><name>PT11712</name></trkpt>
<trkpt lat="52.856773" lon="-3.376708"><ele>390</ele><time>2020-01-18T13:53:59Z</time><name>PT11713</name></trkpt>
<trkpt lat="52.856764" lon="-3.376708"><ele>389</ele><time>2020-01-18T13:53:59Z</time><name>PT11714</name></trkpt>
<trkpt lat="52.856752" lon="-3.376710"><ele>389</ele><time>2020-01-18T13:54:00Z</time><name>PT11715</name></trkpt>
<trkpt lat="52.856746" lon="-3.376714"><ele>389</ele><time>2020-01-18T13:54:02Z</time><name>PT11716</name></trkpt>
<trkpt lat="52.856741" lon="-3.376713"><ele>388</ele><time>2020-01-18T13:54:02Z</time><name>PT11717</name></trkpt>
<trkpt lat="52.856737" lon="-3.376712"><ele>388</ele><time>2020-01-18T13:54:03Z</time><name>PT11718</name></trkpt>
<trkpt lat="52.856730" lon="-3.376710"><ele>388</ele><time>2020-01-18T13:54:05Z</time><name>PT11719</name></trkpt>
<trkpt lat="52.856726" lon="-3.376713"><ele>388</ele><time>2020-01-18T13:54:05Z</time><name>PT11720</name></trkpt>
<trkpt lat="52.856723" lon="-3.376718"><ele>387</ele><time>2020-01-18T13:54:06Z</time><name>PT11721</name></trkpt>
<trkpt lat="52.856717" lon="-3.376720"><ele>387</ele><time>2020-01-18T13:54:08Z</time><name>PT11722</name></trkpt>
<trkpt lat="52.856711" lon="-3.376723"><ele>388</ele><time>2020-01-18T13:54:08Z</time><name>PT11723</name></trkpt>
<trkpt lat="52.856708" lon="-3.376720"><ele>388</ele><time>2020-01-18T13:54:09Z</time><name>PT11724</name></trkpt>
<trkpt lat="52.856701" lon="-3.376721"><ele>388</ele><time>2020-01-18T13:54:11Z</time><name>PT11725</name></trkpt>
<trkpt lat="52.856695" lon="-3.376720"><ele>387</ele><time>2020-01-18T13:54:11Z</time><name>PT11726</name></trkpt>
<trkpt lat="52.856687" lon="-3.376717"><ele>387</ele><time>2020-01-18T13:54:12Z</time><name>PT11727</name></trkpt>
<trkpt lat="52.856683" lon="-3.376712"><ele>387</ele><time>2020-01-18T13:54:14Z</time><name>PT11728</name></trkpt>
<trkpt lat="52.856682" lon="-3.376704"><ele>387</ele><time>2020-01-18T13:54:14Z</time><name>PT11729</name></trkpt>
<trkpt lat="52.856680" lon="-3.376694"><ele>386</ele><time>2020-01-18T13:54:15Z</time><name>PT11730</name></trkpt>
<trkpt lat="52.856676" lon="-3.376685"><ele>386</ele><time>2020-01-18T13:54:17Z</time><name>PT11731</name></trkpt>
<trkpt lat="52.856648" lon="-3.376675"><ele>387</ele><time>2020-01-18T13:54:17Z</time><name>PT11732</name></trkpt>
<trkpt lat="52.856646" lon="-3.376673"><ele>387</ele><time>2020-01-18T13:54:18Z</time><name>PT11733</name></trkpt>
<trkpt lat="52.856647" lon="-3.376669"><ele>386</ele><time>2020-01-18T13:54:20Z</time><name>PT11734</name></trkpt>
<trkpt lat="52.856651" lon="-3.376665"><ele>386</ele><time>2020-01-18T13:54:20Z</time><name>PT11735</name></trkpt>
<trkpt lat="52.856647" lon="-3.376658"><ele>385</ele><time>2020-01-18T13:54:21Z</time><name>PT11736</name></trkpt>
<trkpt lat="52.856648" lon="-3.376649"><ele>385</ele><time>2020-01-18T13:54:23Z</time><name>PT11737</name></trkpt>
<trkpt lat="52.856650" lon="-3.376640"><ele>384</ele><time>2020-01-18T13:54:23Z</time><name>PT11738</name></trkpt>
<trkpt lat="52.856651" lon="-3.376621"><ele>384</ele><time>2020-01-18T13:54:24Z</time><name>PT11739</name></trkpt>
<trkpt lat="52.856653" lon="-3.376608"><ele>384</ele><time>2020-01-18T13:54:26Z</time><name>PT11740</name></trkpt>
<trkpt lat="52.856656" lon="-3.376592"><ele>384</ele><time>2020-01-18T13:54:26Z</time><name>PT11741</name></trkpt>
<trkpt lat="52.856659" lon="-3.376583"><ele>383</ele><time>2020-01-18T13:54:27Z</time><name>PT11742</name></trkpt>
<trkpt lat="52.856659" lon="-3.376569"><ele>383</ele><time>2020-01-18T13:54:29Z</time><name>PT11743</name></trkpt>
<trkpt lat="52.856660" lon="-3.376560"><ele>382</ele><time>2020-01-18T13:54:29Z</time><name>PT11744</name></trkpt>
<trkpt lat="52.856658" lon="-3.376556"><ele>383</ele><time>2020-01-18T13:54:30Z</time><name>PT11745</name></trkpt>
<trkpt lat="52.856658" lon="-3.376554"><ele>383</ele><time>2020-01-18T13:54:32Z</time><name>PT11746</name></trkpt>
<trkpt lat="52.856662" lon="-3.376550"><ele>382</ele><time>2020-01-18T13:54:32Z</time><name>PT11747</name></trkpt>
<trkpt lat="52.856667" lon="-3.376541"><ele>381</ele><time>2020-01-18T13:54:33Z</time><name>PT11748</name></trkpt>
<trkpt lat="52.856667" lon="-3.376533"><ele>381</ele><time>2020-01-18T13:54:35Z</time><name>PT11749</name></trkpt>
<trkpt lat="52.856665" lon="-3.376526"><ele>381</ele><time>2020-01-18T13:54:35Z</time><name>PT11750</name></trkpt>
<trkpt lat="52.856662" lon="-3.376518"><ele>381</ele><time>2020-01-18T13:54:36Z</time><name>PT11751</name></trkpt>
<trkpt lat="52.856661" lon="-3.376509"><ele>380</ele><time>2020-01-18T13:54:38Z</time><name>PT11752</name></trkpt>
<trkpt lat="52.856663" lon="-3.376498"><ele>380</ele><time>2020-01-18T13:54:38Z</time><name>PT11753</name></trkpt>
<trkpt lat="52.856668" lon="-3.376491"><ele>379</ele><time>2020-01-18T13:54:39Z</time><name>PT11754</name></trkpt>
<trkpt lat="52.856673" lon="-3.376480"><ele>379</ele><time>2020-01-18T13:54:41Z</time><name>PT11755</name></trkpt>
<trkpt lat="52.856677" lon="-3.376473"><ele>378</ele><time>2020-01-18T13:54:41Z</time><name>PT11756</name></trkpt>
<trkpt lat="52.856678" lon="-3.376463"><ele>378</ele><time>2020-01-18T13:54:42Z</time><name>PT11757</name></trkpt>
<trkpt lat="52.856684" lon="-3.376453"><ele>377</ele><time>2020-01-18T13:54:44Z</time><name>PT11758</name></trkpt>
<trkpt lat="52.856688" lon="-3.376443"><ele>376</ele><time>2020-01-18T13:54:44Z</time><name>PT11759</name></trkpt>
<trkpt lat="52.856690" lon="-3.376434"><ele>375</ele><time>2020-01-18T13:54:45Z</time><name>PT11760</name></trkpt>
<trkpt lat="52.856691" lon="-3.376429"><ele>375</ele><time>2020-01-18T13:54:47Z</time><name>PT11761</name></trkpt>
<trkpt lat="52.856694" lon="-3.376426"><ele>375</ele><time>2020-01-18T13:54:47Z</time><name>PT11762</name></trkpt>
<trkpt lat="52.856701" lon="-3.376424"><ele>375</ele><time>2020-01-18T13:54:48Z</time><name>PT11763</name></trkpt>
<trkpt lat="52.856710" lon="-3.376420"><ele>374</ele><time>2020-01-18T13:54:50Z</time><name>PT11764</name></trkpt>
<trkpt lat="52.856720" lon="-3.376415"><ele>374</ele><time>2020-01-18T13:54:50Z</time><name>PT11765</name></trkpt>
<trkpt lat="52.856727" lon="-3.376407"><ele>375</ele><time>2020-01-18T13:54:51Z</time><name>PT11766</name></trkpt>
<trkpt lat="52.856728" lon="-3.376404"><ele>375</ele><time>2020-01-18T13:54:53Z</time><name>PT11767</name></trkpt>
<trkpt lat="52.856731" lon="-3.376401"><ele>375</ele><time>2020-01-18T13:54:53Z</time><name>PT11768</name></trkpt>
<trkpt lat="52.856733" lon="-3.376400"><ele>375</ele><time>2020-01-18T13:54:54Z</time><name>PT11769</name></trkpt>
<trkpt lat="52.856741" lon="-3.376396"><ele>375</ele><time>2020-01-18T13:54:56Z</time><name>PT11770</name></trkpt>
<trkpt lat="52.856744" lon="-3.376393"><ele>375</ele><time>2020-01-18T13:54:56Z</time><name>PT11771</name></trkpt>
<trkpt lat="52.856746" lon="-3.376385"><ele>375</ele><time>2020-01-18T13:54:57Z</time><name>PT11772</name></trkpt>
<trkpt lat="52.856753" lon="-3.376380"><ele>375</ele><time>2020-01-18T13:54:59Z</time><name>PT11773</name></trkpt>
<trkpt lat="52.856760" lon="-3.376375"><ele>374</ele><time>2020-01-18T13:54:59Z</time><name>PT11774</name></trkpt>
<trkpt lat="52.856765" lon="-3.376369"><ele>374</ele><time>2020-01-18T13:55:00Z</time><name>PT11775</name></trkpt>
<trkpt lat="52.856769" lon="-3.376361"><ele>374</ele><time>2020-01-18T13:55:02Z</time><name>PT11776</name></trkpt>
<trkpt lat="52.856773" lon="-3.376354"><ele>374</ele><time>2020-01-18T13:55:02Z</time><name>PT11777</name></trkpt>
<trkpt lat="52.856778" lon="-3.376348"><ele>374</ele><time>2020-01-18T13:55:03Z</time><name>PT11778</name></trkpt>
<trkpt lat="52.856784" lon="-3.376345"><ele>374</ele><time>2020-01-18T13:55:05Z</time><name>PT11779</name></trkpt>
<trkpt lat="52.856790" lon="-3.376341"><ele>374</ele><time>2020-01-18T13:55:05Z</time><name>PT11780</name></trkpt>
<trkpt lat="52.856796" lon="-3.376338"><ele>373</ele><time>2020-01-18T13:55:06Z</time><name>PT11781</name></trkpt>
<trkpt lat="52.856804" lon="-3.376336"><ele>372</ele><time>2020-01-18T13:55:08Z</time><name>PT11782</name></trkpt>
<trkpt lat="52.856812" lon="-3.376329"><ele>372</ele><time>2020-01-18T13:55:08Z</time><name>PT11783</name></trkpt>
<trkpt lat="52.856822" lon="-3.376322"><ele>371</ele><time>2020-01-18T13:55:09Z</time><name>PT11784</name></trkpt>
<trkpt lat="52.856830" lon="-3.376317"><ele>371</ele><time>2020-01-18T13:55:11Z</time><name>PT11785</name></trkpt>
<trkpt lat="52.856838" lon="-3.376311"><ele>371</ele><time>2020-01-18T13:55:11Z</time><name>PT11786</name></trkpt>
<trkpt lat="52.856844" lon="-3.376309"><ele>370</ele><time>2020-01-18T13:55:12Z</time><name>PT11787</name></trkpt>
<trkpt lat="52.856852" lon="-3.376302"><ele>369</ele><time>2020-01-18T13:55:14Z</time><name>PT11788</name></trkpt>
<trkpt lat="52.856863" lon="-3.376292"><ele>369</ele><time>2020-01-18T13:55:14Z</time><name>PT11789</name></trkpt>
<trkpt lat="52.856871" lon="-3.376283"><ele>370</ele><time>2020-01-18T13:55:15Z</time><name>PT11790</name></trkpt>
<trkpt lat="52.856875" lon="-3.376277"><ele>369</ele><time>2020-01-18T13:55:17Z</time><name>PT11791</name></trkpt>
<trkpt lat="52.856882" lon="-3.376270"><ele>370</ele><time>2020-01-18T13:55:17Z</time><name>PT11792</name></trkpt>
<trkpt lat="52.856888" lon="-3.376253"><ele>373</ele><time>2020-01-18T13:55:18Z</time><name>PT11793</name></trkpt>
<trkpt lat="52.856895" lon="-3.376242"><ele>373</ele><time>2020-01-18T13:55:20Z</time><name>PT11794</name></trkpt>
<trkpt lat="52.856896" lon="-3.376233"><ele>373</ele><time>2020-01-18T13:55:20Z</time><name>PT11795</name></trkpt>
<trkpt lat="52.856898" lon="-3.376226"><ele>373</ele><time>2020-01-18T13:55:21Z</time><name>PT11796</name></trkpt>
<trkpt lat="52.856898" lon="-3.376225"><ele>373</ele><time>2020-01-18T13:55:23Z</time><name>PT11797</name></trkpt>
<trkpt lat="52.856904" lon="-3.376222"><ele>374</ele><time>2020-01-18T13:55:23Z</time><name>PT11798</name></trkpt>
<trkpt lat="52.856905" lon="-3.376215"><ele>374</ele><time>2020-01-18T13:55:24Z</time><name>PT11799</name></trkpt>
<trkpt lat="52.856905" lon="-3.376210"><ele>374</ele><time>2020-01-18T13:55:26Z</time><name>PT11800</name></trkpt>
<trkpt lat="52.856904" lon="-3.376211"><ele>374</ele><time>2020-01-18T13:55:26Z</time><name>PT11801</name></trkpt>
<trkpt lat="52.856905" lon="-3.376211"><ele>372</ele><time>2020-01-18T13:55:27Z</time><name>PT11802</name></trkpt>
<trkpt lat="52.856906" lon="-3.376210"><ele>372</ele><time>2020-01-18T13:55:29Z</time><name>PT11803</name></trkpt>
<trkpt lat="52.856901" lon="-3.376185"><ele>373</ele><time>2020-01-18T13:55:29Z</time><name>PT11804</name></trkpt>
<trkpt lat="52.856895" lon="-3.376180"><ele>373</ele><time>2020-01-18T13:55:30Z</time><name>PT11805</name></trkpt>
<trkpt lat="52.856890" lon="-3.376178"><ele>373</ele><time>2020-01-18T13:55:32Z</time><name>PT11806</name></trkpt>
<trkpt lat="52.856886" lon="-3.376177"><ele>373</ele><time>2020-01-18T13:55:32Z</time><name>PT11807</name></trkpt>
<trkpt lat="52.856887" lon="-3.376174"><ele>373</ele><time>2020-01-18T13:55:33Z</time><name>PT11808</name></trkpt>
<trkpt lat="52.856882" lon="-3.376169"><ele>373</ele><time>2020-01-18T13:55:35Z</time><name>PT11809</name></trkpt>
<trkpt lat="52.856880" lon="-3.376161"><ele>372</ele><time>2020-01-18T13:55:35Z</time><name>PT11810</name></trkpt>
<trkpt lat="52.856877" lon="-3.376147"><ele>373</ele><time>2020-01-18T13:55:36Z</time><name>PT11811</name></trkpt>
<trkpt lat="52.856882" lon="-3.376148"><ele>372</ele><time>2020-01-18T13:55:38Z</time><name>PT11812</name></trkpt>
<trkpt lat="52.856878" lon="-3.376145"><ele>371</ele><time>2020-01-18T13:55:38Z</time><name>PT11813</name></trkpt>
<trkpt lat="52.856872" lon="-3.376139"><ele>371</ele><time>2020-01-18T13:55:39Z</time><name>PT11814</name></trkpt>
<trkpt lat="52.856869" lon="-3.376136"><ele>370</ele><time>2020-01-18T13:55:41Z</time><name>PT11815</name></trkpt>
<trkpt lat="52.856872" lon="-3.376152"><ele>368</ele><time>2020-01-18T13:55:41Z</time><name>PT11816</name></trkpt>
<trkpt lat="52.856870" lon="-3.376157"><ele>367</ele><time>2020-01-18T13:55:42Z</time><name>PT11817</name></trkpt>
<trkpt lat="52.856866" lon="-3.376154"><ele>367</ele><time>2020-01-18T13:55:44Z</time><name>PT11818</name></trkpt>
<trkpt lat="52.856863" lon="-3.376153"><ele>367</ele><time>2020-01-18T13:55:44Z</time><name>PT11819</name></trkpt>
<trkpt lat="52.856861" lon="-3.376148"><ele>367</ele><time>2020-01-18T13:55:45Z</time><name>PT11820</name></trkpt>
<trkpt lat="52.856857" lon="-3.376141"><ele>366</ele><time>2020-01-18T13:55:47Z</time><name>PT11821</name></trkpt>
<trkpt lat="52.856853" lon="-3.376135"><ele>366</ele><time>2020-01-18T13:55:47Z</time><name>PT11822</name></trkpt>
<trkpt lat="52.856847" lon="-3.376126"><ele>366</ele><time>2020-01-18T13:55:48Z</time><name>PT11823</name></trkpt>
<trkpt lat="52.856845" lon="-3.376118"><ele>365</ele><time>2020-01-18T13:55:51Z</time><name>PT11824</name></trkpt>
<trkpt lat="52.856839" lon="-3.376109"><ele>365</ele><time>2020-01-18T13:55:53Z</time><name>PT11825</name></trkpt>
<trkpt lat="52.856843" lon="-3.376102"><ele>364</ele><time>2020-01-18T13:55:54Z</time><name>PT11826</name></trkpt>
<trkpt lat="52.856833" lon="-3.376086"><ele>363</ele><time>2020-01-18T13:55:56Z</time><name>PT11827</name></trkpt>
<trkpt lat="52.856834" lon="-3.376081"><ele>363</ele><time>2020-01-18T13:55:56Z</time><name>PT11828</name></trkpt>
<trkpt lat="52.856828" lon="-3.376078"><ele>362</ele><time>2020-01-18T13:55:57Z</time><name>PT11829</name></trkpt>
<trkpt lat="52.856823" lon="-3.376074"><ele>362</ele><time>2020-01-18T13:55:59Z</time><name>PT11830</name></trkpt>
<trkpt lat="52.856822" lon="-3.376069"><ele>362</ele><time>2020-01-18T13:55:59Z</time><name>PT11831</name></trkpt>
<trkpt lat="52.856818" lon="-3.376057"><ele>362</ele><time>2020-01-18T13:56:00Z</time><name>PT11832</name></trkpt>
<trkpt lat="52.856816" lon="-3.376054"><ele>362</ele><time>2020-01-18T13:56:02Z</time><name>PT11833</name></trkpt>
<trkpt lat="52.856803" lon="-3.376041"><ele>362</ele><time>2020-01-18T13:56:02Z</time><name>PT11834</name></trkpt>
<trkpt lat="52.856797" lon="-3.376036"><ele>362</ele><time>2020-01-18T13:56:03Z</time><name>PT11835</name></trkpt>
<trkpt lat="52.856790" lon="-3.376037"><ele>361</ele><time>2020-01-18T13:56:05Z</time><name>PT11836</name></trkpt>
<trkpt lat="52.856782" lon="-3.376028"><ele>360</ele><time>2020-01-18T13:56:05Z</time><name>PT11837</name></trkpt>
<trkpt lat="52.856777" lon="-3.376032"><ele>359</ele><time>2020-01-18T13:56:06Z</time><name>PT11838</name></trkpt>
<trkpt lat="52.856772" lon="-3.376023"><ele>359</ele><time>2020-01-18T13:56:08Z</time><name>PT11839</name></trkpt>
<trkpt lat="52.856769" lon="-3.376012"><ele>359</ele><time>2020-01-18T13:56:08Z</time><name>PT11840</name></trkpt>
<trkpt lat="52.856761" lon="-3.376015"><ele>358</ele><time>2020-01-18T13:56:09Z</time><name>PT11841</name></trkpt>
<trkpt lat="52.856748" lon="-3.376013"><ele>358</ele><time>2020-01-18T13:56:11Z</time><name>PT11842</name></trkpt>
<trkpt lat="52.856741" lon="-3.376014"><ele>357</ele><time>2020-01-18T13:56:11Z</time><name>PT11843</name></trkpt>
<trkpt lat="52.856748" lon="-3.376010"><ele>357</ele><time>2020-01-18T13:56:12Z</time><name>PT11844</name></trkpt>
<trkpt lat="52.856747" lon="-3.376016"><ele>356</ele><time>2020-01-18T13:56:14Z</time><name>PT11845</name></trkpt>
<trkpt lat="52.856746" lon="-3.376021"><ele>355</ele><time>2020-01-18T13:56:14Z</time><name>PT11846</name></trkpt>
<trkpt lat="52.856744" lon="-3.376020"><ele>355</ele><time>2020-01-18T13:56:15Z</time><name>PT11847</name></trkpt>
<trkpt lat="52.856741" lon="-3.376020"><ele>354</ele><time>2020-01-18T13:56:17Z</time><name>PT11848</name></trkpt>
<trkpt lat="52.856737" lon="-3.376018"><ele>354</ele><time>2020-01-18T13:56:17Z</time><name>PT11849</name></trkpt>
<trkpt lat="52.856730" lon="-3.376010"><ele>354</ele><time>2020-01-18T13:56:18Z</time><name>PT11850</name></trkpt>
<trkpt lat="52.856729" lon="-3.376008"><ele>354</ele><time>2020-01-18T13:56:20Z</time><name>PT11851</name></trkpt>
<trkpt lat="52.856726" lon="-3.376004"><ele>355</ele><time>2020-01-18T13:56:20Z</time><name>PT11852</name></trkpt>
<trkpt lat="52.856723" lon="-3.375998"><ele>354</ele><time>2020-01-18T13:56:21Z</time><name>PT11853</name></trkpt>
<trkpt lat="52.856717" lon="-3.375993"><ele>354</ele><time>2020-01-18T13:56:23Z</time><name>PT11854</name></trkpt>
<trkpt lat="52.856710" lon="-3.375992"><ele>354</ele><time>2020-01-18T13:56:23Z</time><name>PT11855</name></trkpt>
<trkpt lat="52.856705" lon="-3.375985"><ele>354</ele><time>2020-01-18T13:56:24Z</time><name>PT11856</name></trkpt>
<trkpt lat="52.856700" lon="-3.375985"><ele>354</ele><time>2020-01-18T13:56:26Z</time><name>PT11857</name></trkpt>
<trkpt lat="52.856696" lon="-3.375980"><ele>355</ele><time>2020-01-18T13:56:26Z</time><name>PT11858</name></trkpt>
<trkpt lat="52.856691" lon="-3.375977"><ele>355</ele><time>2020-01-18T13:56:27Z</time><name>PT11859</name></trkpt>
<trkpt lat="52.856688" lon="-3.375974"><ele>355</ele><time>2020-01-18T13:56:29Z</time><name>PT11860</name></trkpt>
<trkpt lat="52.856685" lon="-3.375970"><ele>354</ele><time>2020-01-18T13:56:29Z</time><name>PT11861</name></trkpt>
<trkpt lat="52.856680" lon="-3.375966"><ele>354</ele><time>2020-01-18T13:56:30Z</time><name>PT11862</name></trkpt>
<trkpt lat="52.856678" lon="-3.375967"><ele>354</ele><time>2020-01-18T13:56:32Z</time><name>PT11863</name></trkpt>
<trkpt lat="52.856672" lon="-3.375960"><ele>354</ele><time>2020-01-18T13:56:32Z</time><name>PT11864</name></trkpt>
<trkpt lat="52.856667" lon="-3.375960"><ele>353</ele><time>2020-01-18T13:56:33Z</time><name>PT11865</name></trkpt>
<trkpt lat="52.856658" lon="-3.375953"><ele>353</ele><time>2020-01-18T13:56:35Z</time><name>PT11866</name></trkpt>
<trkpt lat="52.856650" lon="-3.375949"><ele>353</ele><time>2020-01-18T13:56:35Z</time><name>PT11867</name></trkpt>
<trkpt lat="52.856644" lon="-3.375945"><ele>352</ele><time>2020-01-18T13:56:36Z</time><name>PT11868</name></trkpt>
<trkpt lat="52.856637" lon="-3.375945"><ele>352</ele><time>2020-01-18T13:56:38Z</time><name>PT11869</name></trkpt>
<trkpt lat="52.856631" lon="-3.375949"><ele>351</ele><time>2020-01-18T13:56:38Z</time><name>PT11870</name></trkpt>
<trkpt lat="52.856624" lon="-3.375948"><ele>350</ele><time>2020-01-18T13:56:39Z</time><name>PT11871</name></trkpt>
<trkpt lat="52.856614" lon="-3.375945"><ele>350</ele><time>2020-01-18T13:56:41Z</time><name>PT11872</name></trkpt>
<trkpt lat="52.856616" lon="-3.375944"><ele>349</ele><time>2020-01-18T13:56:41Z</time><name>PT11873</name></trkpt>
<trkpt lat="52.856606" lon="-3.375937"><ele>349</ele><time>2020-01-18T13:56:42Z</time><name>PT11874</name></trkpt>
<trkpt lat="52.856593" lon="-3.375937"><ele>348</ele><time>2020-01-18T13:56:44Z</time><name>PT11875</name></trkpt>
<trkpt lat="52.856585" lon="-3.375940"><ele>348</ele><time>2020-01-18T13:56:44Z</time><name>PT11876</name></trkpt>
<trkpt lat="52.856575" lon="-3.375939"><ele>348</ele><time>2020-01-18T13:56:45Z</time><name>PT11877</name></trkpt>
<trkpt lat="52.856566" lon="-3.375939"><ele>348</ele><time>2020-01-18T13:56:47Z</time><name>PT11878</name></trkpt>
<trkpt lat="52.856555" lon="-3.375938"><ele>347</ele><time>2020-01-18T13:56:47Z</time><name>PT11879</name></trkpt>
<trkpt lat="52.856546" lon="-3.375935"><ele>347</ele><time>2020-01-18T13:56:48Z</time><name>PT11880</name></trkpt>
<trkpt lat="52.856540" lon="-3.375933"><ele>347</ele><time>2020-01-18T13:56:50Z</time><name>PT11881</name></trkpt>
<trkpt lat="52.856532" lon="-3.375929"><ele>347</ele><time>2020-01-18T13:56:50Z</time><name>PT11882</name></trkpt>
<trkpt lat="52.856521" lon="-3.375920"><ele>347</ele><time>2020-01-18T13:56:51Z</time><name>PT11883</name></trkpt>
<trkpt lat="52.856509" lon="-3.375918"><ele>346</ele><time>2020-01-18T13:56:53Z</time><name>PT11884</name></trkpt>
<trkpt lat="52.856509" lon="-3.375920"><ele>345</ele><time>2020-01-18T13:56:53Z</time><name>PT11885</name></trkpt>
<trkpt lat="52.856499" lon="-3.375916"><ele>345</ele><time>2020-01-18T13:56:54Z</time><name>PT11886</name></trkpt>
<trkpt lat="52.856489" lon="-3.375919"><ele>345</ele><time>2020-01-18T13:56:56Z</time><name>PT11887</name></trkpt>
<trkpt lat="52.856481" lon="-3.375916"><ele>344</ele><time>2020-01-18T13:56:56Z</time><name>PT11888</name></trkpt>
<trkpt lat="52.856470" lon="-3.375913"><ele>344</ele><time>2020-01-18T13:56:57Z</time><name>PT11889</name></trkpt>
<trkpt lat="52.856461" lon="-3.375917"><ele>344</ele><time>2020-01-18T13:56:59Z</time><name>PT11890</name></trkpt>
<trkpt lat="52.856451" lon="-3.375917"><ele>343</ele><time>2020-01-18T13:56:59Z</time><name>PT11891</name></trkpt>
<trkpt lat="52.856440" lon="-3.375911"><ele>344</ele><time>2020-01-18T13:57:00Z</time><name>PT11892</name></trkpt>
<trkpt lat="52.856430" lon="-3.375908"><ele>343</ele><time>2020-01-18T13:57:02Z</time><name>PT11893</name></trkpt>
<trkpt lat="52.856419" lon="-3.375905"><ele>343</ele><time>2020-01-18T13:57:02Z</time><name>PT11894</name></trkpt>
<trkpt lat="52.856408" lon="-3.375905"><ele>342</ele><time>2020-01-18T13:57:03Z</time><name>PT11895</name></trkpt>
<trkpt lat="52.856395" lon="-3.375893"><ele>342</ele><time>2020-01-18T13:57:05Z</time><name>PT11896</name></trkpt>
<trkpt lat="52.856386" lon="-3.375886"><ele>342</ele><time>2020-01-18T13:57:05Z</time><name>PT11897</name></trkpt>
<trkpt lat="52.856380" lon="-3.375881"><ele>342</ele><time>2020-01-18T13:57:06Z</time><name>PT11898</name></trkpt>
<trkpt lat="52.856371" lon="-3.375877"><ele>342</ele><time>2020-01-18T13:57:08Z</time><name>PT11899</name></trkpt>
<trkpt lat="52.856363" lon="-3.375873"><ele>342</ele><time>2020-01-18T13:57:08Z</time><name>PT11900</name></trkpt>
<trkpt lat="52.856359" lon="-3.375868"><ele>342</ele><time>2020-01-18T13:57:09Z</time><name>PT11901</name></trkpt>
<trkpt lat="52.856352" lon="-3.375866"><ele>341</ele><time>2020-01-18T13:57:11Z</time><name>PT11902</name></trkpt>
<trkpt lat="52.856348" lon="-3.375865"><ele>340</ele><time>2020-01-18T13:57:11Z</time><name>PT11903</name></trkpt>
<trkpt lat="52.856344" lon="-3.375869"><ele>340</ele><time>2020-01-18T13:57:12Z</time><name>PT11904</name></trkpt>
<trkpt lat="52.856337" lon="-3.375871"><ele>340</ele><time>2020-01-18T13:57:14Z</time><name>PT11905</name></trkpt>
<trkpt lat="52.856332" lon="-3.375871"><ele>340</ele><time>2020-01-18T13:57:14Z</time><name>PT11906</name></trkpt>
<trkpt lat="52.856328" lon="-3.375868"><ele>339</ele><time>2020-01-18T13:57:15Z</time><name>PT11907</name></trkpt>
<trkpt lat="52.856319" lon="-3.375867"><ele>339</ele><time>2020-01-18T13:57:17Z</time><name>PT11908</name></trkpt>
<trkpt lat="52.856310" lon="-3.375868"><ele>339</ele><time>2020-01-18T13:57:17Z</time><name>PT11909</name></trkpt>
<trkpt lat="52.856299" lon="-3.375863"><ele>339</ele><time>2020-01-18T13:57:18Z</time><name>PT11910</name></trkpt>
<trkpt lat="52.856290" lon="-3.375857"><ele>339</ele><time>2020-01-18T13:57:20Z</time><name>PT11911</name></trkpt>
<trkpt lat="52.856281" lon="-3.375857"><ele>338</ele><time>2020-01-18T13:57:20Z</time><name>PT11912</name></trkpt>
<trkpt lat="52.856273" lon="-3.375852"><ele>338</ele><time>2020-01-18T13:57:21Z</time><name>PT11913</name></trkpt>
<trkpt lat="52.856265" lon="-3.375852"><ele>338</ele><time>2020-01-18T13:57:23Z</time><name>PT11914</name></trkpt>
<trkpt lat="52.856254" lon="-3.375851"><ele>338</ele><time>2020-01-18T13:57:23Z</time><name>PT11915</name></trkpt>
<trkpt lat="52.856243" lon="-3.375843"><ele>338</ele><time>2020-01-18T13:57:24Z</time><name>PT11916</name></trkpt>
<trkpt lat="52.856226" lon="-3.375843"><ele>340</ele><time>2020-01-18T13:57:26Z</time><name>PT11917</name></trkpt>
<trkpt lat="52.856219" lon="-3.375836"><ele>339</ele><time>2020-01-18T13:57:26Z</time><name>PT11918</name></trkpt>
<trkpt lat="52.856214" lon="-3.375832"><ele>339</ele><time>2020-01-18T13:57:27Z</time><name>PT11919</name></trkpt>
<trkpt lat="52.856211" lon="-3.375830"><ele>339</ele><time>2020-01-18T13:57:29Z</time><name>PT11920</name></trkpt>
<trkpt lat="52.856211" lon="-3.375831"><ele>339</ele><time>2020-01-18T13:57:29Z</time><name>PT11921</name></trkpt>
<trkpt lat="52.856207" lon="-3.375831"><ele>339</ele><time>2020-01-18T13:57:30Z</time><name>PT11922</name></trkpt>
<trkpt lat="52.856201" lon="-3.375828"><ele>339</ele><time>2020-01-18T13:57:32Z</time><name>PT11923</name></trkpt>
<trkpt lat="52.856196" lon="-3.375818"><ele>339</ele><time>2020-01-18T13:57:32Z</time><name>PT11924</name></trkpt>
<trkpt lat="52.856189" lon="-3.375816"><ele>339</ele><time>2020-01-18T13:57:33Z</time><name>PT11925</name></trkpt>
<trkpt lat="52.856185" lon="-3.375816"><ele>339</ele><time>2020-01-18T13:57:35Z</time><name>PT11926</name></trkpt>
<trkpt lat="52.856174" lon="-3.375818"><ele>339</ele><time>2020-01-18T13:57:35Z</time><name>PT11927</name></trkpt>
<trkpt lat="52.856159" lon="-3.375825"><ele>339</ele><time>2020-01-18T13:57:37Z</time><name>PT11928</name></trkpt>
<trkpt lat="52.856148" lon="-3.375812"><ele>340</ele><time>2020-01-18T13:57:38Z</time><name>PT11929</name></trkpt>
<trkpt lat="52.856141" lon="-3.375803"><ele>340</ele><time>2020-01-18T13:57:38Z</time><name>PT11930</name></trkpt>
<trkpt lat="52.856132" lon="-3.375806"><ele>339</ele><time>2020-01-18T13:57:39Z</time><name>PT11931</name></trkpt>
<trkpt lat="52.856124" lon="-3.375813"><ele>340</ele><time>2020-01-18T13:57:41Z</time><name>PT11932</name></trkpt>
<trkpt lat="52.856120" lon="-3.375816"><ele>339</ele><time>2020-01-18T13:57:41Z</time><name>PT11933</name></trkpt>
<trkpt lat="52.856111" lon="-3.375824"><ele>339</ele><time>2020-01-18T13:57:42Z</time><name>PT11934</name></trkpt>
<trkpt lat="52.856108" lon="-3.375836"><ele>338</ele><time>2020-01-18T13:57:44Z</time><name>PT11935</name></trkpt>
<trkpt lat="52.856102" lon="-3.375839"><ele>338</ele><time>2020-01-18T13:57:44Z</time><name>PT11936</name></trkpt>
<trkpt lat="52.856096" lon="-3.375845"><ele>338</ele><time>2020-01-18T13:57:45Z</time><name>PT11937</name></trkpt>
<trkpt lat="52.856087" lon="-3.375842"><ele>339</ele><time>2020-01-18T13:57:47Z</time><name>PT11938</name></trkpt>
<trkpt lat="52.856079" lon="-3.375853"><ele>338</ele><time>2020-01-18T13:57:47Z</time><name>PT11939</name></trkpt>
<trkpt lat="52.856074" lon="-3.375859"><ele>339</ele><time>2020-01-18T13:57:48Z</time><name>PT11940</name></trkpt>
<trkpt lat="52.856067" lon="-3.375866"><ele>338</ele><time>2020-01-18T13:57:50Z</time><name>PT11941</name></trkpt>
<trkpt lat="52.856057" lon="-3.375860"><ele>338</ele><time>2020-01-18T13:57:50Z</time><name>PT11942</name></trkpt>
<trkpt lat="52.856055" lon="-3.375854"><ele>338</ele><time>2020-01-18T13:57:52Z</time><name>PT11943</name></trkpt>
<trkpt lat="52.856050" lon="-3.375856"><ele>338</ele><time>2020-01-18T13:57:53Z</time><name>PT11944</name></trkpt>
<trkpt lat="52.856048" lon="-3.375858"><ele>338</ele><time>2020-01-18T13:57:53Z</time><name>PT11945</name></trkpt>
<trkpt lat="52.856042" lon="-3.375866"><ele>338</ele><time>2020-01-18T13:57:54Z</time><name>PT11946</name></trkpt>
<trkpt lat="52.856037" lon="-3.375869"><ele>339</ele><time>2020-01-18T13:57:56Z</time><name>PT11947</name></trkpt>
<trkpt lat="52.856026" lon="-3.375872"><ele>339</ele><time>2020-01-18T13:57:56Z</time><name>PT11948</name></trkpt>
<trkpt lat="52.856022" lon="-3.375882"><ele>340</ele><time>2020-01-18T13:57:57Z</time><name>PT11949</name></trkpt>
<trkpt lat="52.856015" lon="-3.375889"><ele>340</ele><time>2020-01-18T13:57:59Z</time><name>PT11950</name></trkpt>
<trkpt lat="52.856005" lon="-3.375895"><ele>340</ele><time>2020-01-18T13:57:59Z</time><name>PT11951</name></trkpt>
<trkpt lat="52.856001" lon="-3.375897"><ele>341</ele><time>2020-01-18T13:58:00Z</time><name>PT11952</name></trkpt>
<trkpt lat="52.855996" lon="-3.375907"><ele>341</ele><time>2020-01-18T13:58:02Z</time><name>PT11953</name></trkpt>
<trkpt lat="52.855991" lon="-3.375921"><ele>340</ele><time>2020-01-18T13:58:02Z</time><name>PT11954</name></trkpt>
<trkpt lat="52.855987" lon="-3.375926"><ele>340</ele><time>2020-01-18T13:58:03Z</time><name>PT11955</name></trkpt>
<trkpt lat="52.855981" lon="-3.375930"><ele>339</ele><time>2020-01-18T13:58:05Z</time><name>PT11956</name></trkpt>
<trkpt lat="52.855975" lon="-3.375937"><ele>339</ele><time>2020-01-18T13:58:05Z</time><name>PT11957</name></trkpt>
<trkpt lat="52.855974" lon="-3.375946"><ele>338</ele><time>2020-01-18T13:58:06Z</time><name>PT11958</name></trkpt>
<trkpt lat="52.855975" lon="-3.375949"><ele>339</ele><time>2020-01-18T13:58:08Z</time><name>PT11959</name></trkpt>
<trkpt lat="52.855969" lon="-3.375962"><ele>338</ele><time>2020-01-18T13:58:08Z</time><name>PT11960</name></trkpt>
<trkpt lat="52.855967" lon="-3.375968"><ele>339</ele><time>2020-01-18T13:58:09Z</time><name>PT11961</name></trkpt>
<trkpt lat="52.855953" lon="-3.375981"><ele>338</ele><time>2020-01-18T13:58:11Z</time><name>PT11962</name></trkpt>
<trkpt lat="52.855942" lon="-3.375999"><ele>336</ele><time>2020-01-18T13:58:11Z</time><name>PT11963</name></trkpt>
<trkpt lat="52.855936" lon="-3.376014"><ele>335</ele><time>2020-01-18T13:58:12Z</time><name>PT11964</name></trkpt>
<trkpt lat="52.855931" lon="-3.376024"><ele>333</ele><time>2020-01-18T13:58:14Z</time><name>PT11965</name></trkpt>
<trkpt lat="52.855916" lon="-3.376026"><ele>333</ele><time>2020-01-18T13:58:14Z</time><name>PT11966</name></trkpt>
<trkpt lat="52.855906" lon="-3.376032"><ele>333</ele><time>2020-01-18T13:58:15Z</time><name>PT11967</name></trkpt>
<trkpt lat="52.855894" lon="-3.376038"><ele>332</ele><time>2020-01-18T13:58:17Z</time><name>PT11968</name></trkpt>
<trkpt lat="52.855879" lon="-3.376053"><ele>330</ele><time>2020-01-18T13:58:17Z</time><name>PT11969</name></trkpt>
<trkpt lat="52.855868" lon="-3.376045"><ele>332</ele><time>2020-01-18T13:58:18Z</time><name>PT11970</name></trkpt>
<trkpt lat="52.855858" lon="-3.376046"><ele>331</ele><time>2020-01-18T13:58:20Z</time><name>PT11971</name></trkpt>
<trkpt lat="52.855850" lon="-3.376050"><ele>331</ele><time>2020-01-18T13:58:20Z</time><name>PT11972</name></trkpt>
<trkpt lat="52.855829" lon="-3.376067"><ele>331</ele><time>2020-01-18T13:58:21Z</time><name>PT11973</name></trkpt>
<trkpt lat="52.855822" lon="-3.376072"><ele>331</ele><time>2020-01-18T13:58:23Z</time><name>PT11974</name></trkpt>
<trkpt lat="52.855812" lon="-3.376076"><ele>331</ele><time>2020-01-18T13:58:23Z</time><name>PT11975</name></trkpt>
<trkpt lat="52.855799" lon="-3.376088"><ele>331</ele><time>2020-01-18T13:58:24Z</time><name>PT11976</name></trkpt>
<trkpt lat="52.855795" lon="-3.376094"><ele>331</ele><time>2020-01-18T13:58:26Z</time><name>PT11977</name></trkpt>
<trkpt lat="52.855789" lon="-3.376101"><ele>331</ele><time>2020-01-18T13:58:26Z</time><name>PT11978</name></trkpt>
<trkpt lat="52.855765" lon="-3.376104"><ele>331</ele><time>2020-01-18T13:58:27Z</time><name>PT11979</name></trkpt>
<trkpt lat="52.855756" lon="-3.376089"><ele>332</ele><time>2020-01-18T13:58:29Z</time><name>PT11980</name></trkpt>
<trkpt lat="52.855734" lon="-3.376096"><ele>333</ele><time>2020-01-18T13:58:29Z</time><name>PT11981</name></trkpt>
<trkpt lat="52.855723" lon="-3.376100"><ele>333</ele><time>2020-01-18T13:58:30Z</time><name>PT11982</name></trkpt>
<trkpt lat="52.855708" lon="-3.376095"><ele>333</ele><time>2020-01-18T13:58:32Z</time><name>PT11983</name></trkpt>
<trkpt lat="52.855694" lon="-3.376091"><ele>335</ele><time>2020-01-18T13:58:32Z</time><name>PT11984</name></trkpt>
<trkpt lat="52.855685" lon="-3.376089"><ele>335</ele><time>2020-01-18T13:58:33Z</time><name>PT11985</name></trkpt>
<trkpt lat="52.855680" lon="-3.376084"><ele>337</ele><time>2020-01-18T13:58:35Z</time><name>PT11986</name></trkpt>
<trkpt lat="52.855676" lon="-3.376081"><ele>338</ele><time>2020-01-18T13:58:35Z</time><name>PT11987</name></trkpt>
<trkpt lat="52.855673" lon="-3.376084"><ele>337</ele><time>2020-01-18T13:58:36Z</time><name>PT11988</name></trkpt>
<trkpt lat="52.855670" lon="-3.376090"><ele>337</ele><time>2020-01-18T13:58:38Z</time><name>PT11989</name></trkpt>
<trkpt lat="52.855660" lon="-3.376105"><ele>337</ele><time>2020-01-18T13:58:38Z</time><name>PT11990</name></trkpt>
<trkpt lat="52.855661" lon="-3.376107"><ele>338</ele><time>2020-01-18T13:58:39Z</time><name>PT11991</name></trkpt>
<trkpt lat="52.855656" lon="-3.376111"><ele>337</ele><time>2020-01-18T13:58:41Z</time><name>PT11992</name></trkpt>
<trkpt lat="52.855651" lon="-3.376122"><ele>337</ele><time>2020-01-18T13:58:41Z</time><name>PT11993</name></trkpt>
<trkpt lat="52.855648" lon="-3.376139"><ele>336</ele><time>2020-01-18T13:58:42Z</time><name>PT11994</name></trkpt>
<trkpt lat="52.855647" lon="-3.376129"><ele>338</ele><time>2020-01-18T13:58:44Z</time><name>PT11995</name></trkpt>
<trkpt lat="52.855640" lon="-3.376122"><ele>338</ele><time>2020-01-18T13:58:44Z</time><name>PT11996</name></trkpt>
<trkpt lat="52.855631" lon="-3.376128"><ele>337</ele><time>2020-01-18T13:58:45Z</time><name>PT11997</name></trkpt>
<trkpt lat="52.855626" lon="-3.376133"><ele>336</ele><time>2020-01-18T13:58:47Z</time><name>PT11998</name></trkpt>
<trkpt lat="52.855626" lon="-3.376132"><ele>337</ele><time>2020-01-18T13:58:47Z</time><name>PT11999</name></trkpt>
<trkpt lat="52.855625" lon="-3.376135"><ele>337</ele><time>2020-01-18T13:58:48Z</time><name>PT12000</name></trkpt>
<trkpt lat="52.855619" lon="-3.376147"><ele>337</ele><time>2020-01-18T13:58:50Z</time><name>PT12001</name></trkpt>
<trkpt lat="52.855615" lon="-3.376149"><ele>337</ele><time>2020-01-18T13:58:50Z</time><name>PT12002</name></trkpt>
<trkpt lat="52.855611" lon="-3.376156"><ele>337</ele><time>2020-01-18T13:58:51Z</time><name>PT12003</name></trkpt>
<trkpt lat="52.855602" lon="-3.376167"><ele>336</ele><time>2020-01-18T13:58:53Z</time><name>PT12004</name></trkpt>
<trkpt lat="52.855595" lon="-3.376185"><ele>335</ele><time>2020-01-18T13:58:53Z</time><name>PT12005</name></trkpt>
<trkpt lat="52.855591" lon="-3.376200"><ele>334</ele><time>2020-01-18T13:58:54Z</time><name>PT12006</name></trkpt>
<trkpt lat="52.855590" lon="-3.376209"><ele>333</ele><time>2020-01-18T13:58:56Z</time><name>PT12007</name></trkpt>
<trkpt lat="52.855587" lon="-3.376199"><ele>335</ele><time>2020-01-18T13:58:56Z</time><name>PT12008</name></trkpt>
<trkpt lat="52.855578" lon="-3.376208"><ele>334</ele><time>2020-01-18T13:58:57Z</time><name>PT12009</name></trkpt>
<trkpt lat="52.855569" lon="-3.376214"><ele>334</ele><time>2020-01-18T13:58:59Z</time><name>PT12010</name></trkpt>
<trkpt lat="52.855562" lon="-3.376224"><ele>333</ele><time>2020-01-18T13:58:59Z</time><name>PT12011</name></trkpt>
<trkpt lat="52.855563" lon="-3.376234"><ele>333</ele><time>2020-01-18T13:59:00Z</time><name>PT12012</name></trkpt>
<trkpt lat="52.855556" lon="-3.376250"><ele>331</ele><time>2020-01-18T13:59:02Z</time><name>PT12013</name></trkpt>
<trkpt lat="52.855547" lon="-3.376247"><ele>332</ele><time>2020-01-18T13:59:02Z</time><name>PT12014</name></trkpt>
<trkpt lat="52.855542" lon="-3.376251"><ele>332</ele><time>2020-01-18T13:59:03Z</time><name>PT12015</name></trkpt>
<trkpt lat="52.855537" lon="-3.376263"><ele>332</ele><time>2020-01-18T13:59:05Z</time><name>PT12016</name></trkpt>
<trkpt lat="52.855533" lon="-3.376275"><ele>332</ele><time>2020-01-18T13:59:06Z</time><name>PT12017</name></trkpt>
<trkpt lat="52.855531" lon="-3.376301"><ele>332</ele><time>2020-01-18T13:59:08Z</time><name>PT12018</name></trkpt>
<trkpt lat="52.855531" lon="-3.376324"><ele>332</ele><time>2020-01-18T13:59:08Z</time><name>PT12019</name></trkpt>
<trkpt lat="52.855513" lon="-3.376354"><ele>331</ele><time>2020-01-18T13:59:09Z</time><name>PT12020</name></trkpt>
<trkpt lat="52.855508" lon="-3.376367"><ele>330</ele><time>2020-01-18T13:59:11Z</time><name>PT12021</name></trkpt>
<trkpt lat="52.855497" lon="-3.376385"><ele>329</ele><time>2020-01-18T13:59:11Z</time><name>PT12022</name></trkpt>
<trkpt lat="52.855477" lon="-3.376409"><ele>328</ele><time>2020-01-18T13:59:12Z</time><name>PT12023</name></trkpt>
<trkpt lat="52.855474" lon="-3.376429"><ele>328</ele><time>2020-01-18T13:59:14Z</time><name>PT12024</name></trkpt>
<trkpt lat="52.855463" lon="-3.376453"><ele>328</ele><time>2020-01-18T13:59:14Z</time><name>PT12025</name></trkpt>
<trkpt lat="52.855452" lon="-3.376475"><ele>328</ele><time>2020-01-18T13:59:15Z</time><name>PT12026</name></trkpt>
<trkpt lat="52.855441" lon="-3.376498"><ele>328</ele><time>2020-01-18T13:59:17Z</time><name>PT12027</name></trkpt>
<trkpt lat="52.855433" lon="-3.376519"><ele>327</ele><time>2020-01-18T13:59:17Z</time><name>PT12028</name></trkpt>
<trkpt lat="52.855425" lon="-3.376534"><ele>326</ele><time>2020-01-18T13:59:18Z</time><name>PT12029</name></trkpt>
<trkpt lat="52.855420" lon="-3.376547"><ele>325</ele><time>2020-01-18T13:59:20Z</time><name>PT12030</name></trkpt>
<trkpt lat="52.855414" lon="-3.376564"><ele>325</ele><time>2020-01-18T13:59:20Z</time><name>PT12031</name></trkpt>
<trkpt lat="52.855400" lon="-3.376580"><ele>326</ele><time>2020-01-18T13:59:22Z</time><name>PT12032</name></trkpt>
<trkpt lat="52.855394" lon="-3.376611"><ele>324</ele><time>2020-01-18T13:59:23Z</time><name>PT12033</name></trkpt>
<trkpt lat="52.855389" lon="-3.376638"><ele>324</ele><time>2020-01-18T13:59:23Z</time><name>PT12034</name></trkpt>
<trkpt lat="52.855381" lon="-3.376647"><ele>327</ele><time>2020-01-18T13:59:24Z</time><name>PT12035</name></trkpt>
<trkpt lat="52.855366" lon="-3.376662"><ele>329</ele><time>2020-01-18T13:59:26Z</time><name>PT12036</name></trkpt>
<trkpt lat="52.855355" lon="-3.376682"><ele>329</ele><time>2020-01-18T13:59:26Z</time><name>PT12037</name></trkpt>
<trkpt lat="52.855349" lon="-3.376692"><ele>329</ele><time>2020-01-18T13:59:27Z</time><name>PT12038</name></trkpt>
<trkpt lat="52.855342" lon="-3.376710"><ele>329</ele><time>2020-01-18T13:59:29Z</time><name>PT12039</name></trkpt>
<trkpt lat="52.855339" lon="-3.376723"><ele>329</ele><time>2020-01-18T13:59:29Z</time><name>PT12040</name></trkpt>
<trkpt lat="52.855343" lon="-3.376751"><ele>326</ele><time>2020-01-18T13:59:30Z</time><name>PT12041</name></trkpt>
<trkpt lat="52.855339" lon="-3.376762"><ele>327</ele><time>2020-01-18T13:59:32Z</time><name>PT12042</name></trkpt>
<trkpt lat="52.855335" lon="-3.376779"><ele>327</ele><time>2020-01-18T13:59:32Z</time><name>PT12043</name></trkpt>
<trkpt lat="52.855332" lon="-3.376792"><ele>327</ele><time>2020-01-18T13:59:33Z</time><name>PT12044</name></trkpt>
<trkpt lat="52.855326" lon="-3.376806"><ele>328</ele><time>2020-01-18T13:59:35Z</time><name>PT12045</name></trkpt>
<trkpt lat="52.855327" lon="-3.376823"><ele>327</ele><time>2020-01-18T13:59:35Z</time><name>PT12046</name></trkpt>
<trkpt lat="52.855325" lon="-3.376830"><ele>327</ele><time>2020-01-18T13:59:36Z</time><name>PT12047</name></trkpt>
<trkpt lat="52.855324" lon="-3.376831"><ele>327</ele><time>2020-01-18T13:59:38Z</time><name>PT12048</name></trkpt>
<trkpt lat="52.855317" lon="-3.376842"><ele>327</ele><time>2020-01-18T13:59:38Z</time><name>PT12049</name></trkpt>
<trkpt lat="52.855303" lon="-3.376862"><ele>326</ele><time>2020-01-18T13:59:39Z</time><name>PT12050</name></trkpt>
<trkpt lat="52.855302" lon="-3.376872"><ele>326</ele><time>2020-01-18T13:59:41Z</time><name>PT12051</name></trkpt>
<trkpt lat="52.855300" lon="-3.376879"><ele>326</ele><time>2020-01-18T13:59:41Z</time><name>PT12052</name></trkpt>
<trkpt lat="52.855308" lon="-3.376894"><ele>326</ele><time>2020-01-18T13:59:42Z</time><name>PT12053</name></trkpt>
<trkpt lat="52.855302" lon="-3.376907"><ele>325</ele><time>2020-01-18T13:59:44Z</time><name>PT12054</name></trkpt>
<trkpt lat="52.855297" lon="-3.376932"><ele>324</ele><time>2020-01-18T13:59:44Z</time><name>PT12055</name></trkpt>
<trkpt lat="52.855296" lon="-3.376949"><ele>323</ele><time>2020-01-18T13:59:45Z</time><name>PT12056</name></trkpt>
<trkpt lat="52.855305" lon="-3.376951"><ele>324</ele><time>2020-01-18T13:59:47Z</time><name>PT12057</name></trkpt>
<trkpt lat="52.855303" lon="-3.376951"><ele>325</ele><time>2020-01-18T13:59:47Z</time><name>PT12058</name></trkpt>
<trkpt lat="52.855300" lon="-3.376958"><ele>325</ele><time>2020-01-18T13:59:48Z</time><name>PT12059</name></trkpt>
<trkpt lat="52.855289" lon="-3.376964"><ele>324</ele><time>2020-01-18T13:59:50Z</time><name>PT12060</name></trkpt>
<trkpt lat="52.855276" lon="-3.376976"><ele>323</ele><time>2020-01-18T13:59:50Z</time><name>PT12061</name></trkpt>
<trkpt lat="52.855265" lon="-3.376977"><ele>324</ele><time>2020-01-18T13:59:51Z</time><name>PT12062</name></trkpt>
<trkpt lat="52.855257" lon="-3.376996"><ele>323</ele><time>2020-01-18T13:59:53Z</time><name>PT12063</name></trkpt>
<trkpt lat="52.855251" lon="-3.377004"><ele>324</ele><time>2020-01-18T13:59:53Z</time><name>PT12064</name></trkpt>
<trkpt lat="52.855236" lon="-3.376974"><ele>333</ele><time>2020-01-18T13:59:54Z</time><name>PT12065</name></trkpt>
<trkpt lat="52.855223" lon="-3.376972"><ele>335</ele><time>2020-01-18T13:59:56Z</time><name>PT12066</name></trkpt>
<trkpt lat="52.855210" lon="-3.376985"><ele>334</ele><time>2020-01-18T13:59:56Z</time><name>PT12067</name></trkpt>
<trkpt lat="52.855201" lon="-3.376996"><ele>333</ele><time>2020-01-18T13:59:57Z</time><name>PT12068</name></trkpt>
<trkpt lat="52.855191" lon="-3.377006"><ele>333</ele><time>2020-01-18T13:59:59Z</time><name>PT12069</name></trkpt>
<trkpt lat="52.855181" lon="-3.377021"><ele>333</ele><time>2020-01-18T13:59:59Z</time><name>PT12070</name></trkpt>
<trkpt lat="52.855171" lon="-3.377035"><ele>332</ele><time>2020-01-18T14:00:00Z</time><name>PT12071</name></trkpt>
<trkpt lat="52.855165" lon="-3.377046"><ele>334</ele><time>2020-01-18T14:00:02Z</time><name>PT12072</name></trkpt>
<trkpt lat="52.855159" lon="-3.377059"><ele>334</ele><time>2020-01-18T14:00:02Z</time><name>PT12073</name></trkpt>
<trkpt lat="52.855147" lon="-3.377069"><ele>334</ele><time>2020-01-18T14:00:03Z</time><name>PT12074</name></trkpt>
<trkpt lat="52.855142" lon="-3.377079"><ele>334</ele><time>2020-01-18T14:00:05Z</time><name>PT12075</name></trkpt>
<trkpt lat="52.855135" lon="-3.377093"><ele>332</ele><time>2020-01-18T14:00:05Z</time><name>PT12076</name></trkpt>
<trkpt lat="52.855123" lon="-3.377112"><ele>333</ele><time>2020-01-18T14:00:06Z</time><name>PT12077</name></trkpt>
<trkpt lat="52.855119" lon="-3.377126"><ele>333</ele><time>2020-01-18T14:00:08Z</time><name>PT12078</name></trkpt>
<trkpt lat="52.855106" lon="-3.377144"><ele>333</ele><time>2020-01-18T14:00:08Z</time><name>PT12079</name></trkpt>
<trkpt lat="52.855101" lon="-3.377154"><ele>333</ele><time>2020-01-18T14:00:09Z</time><name>PT12080</name></trkpt>
<trkpt lat="52.855097" lon="-3.377157"><ele>333</ele><time>2020-01-18T14:00:11Z</time><name>PT12081</name></trkpt>
<trkpt lat="52.855090" lon="-3.377166"><ele>333</ele><time>2020-01-18T14:00:11Z</time><name>PT12082</name></trkpt>
<trkpt lat="52.855088" lon="-3.377171"><ele>333</ele><time>2020-01-18T14:00:12Z</time><name>PT12083</name></trkpt>
<trkpt lat="52.855087" lon="-3.377174"><ele>333</ele><time>2020-01-18T14:00:14Z</time><name>PT12084</name></trkpt>
<trkpt lat="52.855079" lon="-3.377202"><ele>332</ele><time>2020-01-18T14:00:14Z</time><name>PT12085</name></trkpt>
<trkpt lat="52.855076" lon="-3.377209"><ele>332</ele><time>2020-01-18T14:00:15Z</time><name>PT12086</name></trkpt>
<trkpt lat="52.855073" lon="-3.377222"><ele>332</ele><time>2020-01-18T14:00:17Z</time><name>PT12087</name></trkpt>
<trkpt lat="52.855054" lon="-3.377246"><ele>334</ele><time>2020-01-18T14:00:17Z</time><name>PT12088</name></trkpt>
<trkpt lat="52.855044" lon="-3.377262"><ele>334</ele><time>2020-01-18T14:00:18Z</time><name>PT12089</name></trkpt>
<trkpt lat="52.855039" lon="-3.377285"><ele>331</ele><time>2020-01-18T14:00:20Z</time><name>PT12090</name></trkpt>
<trkpt lat="52.855036" lon="-3.377295"><ele>332</ele><time>2020-01-18T14:00:20Z</time><name>PT12091</name></trkpt>
<trkpt lat="52.855044" lon="-3.377308"><ele>331</ele><time>2020-01-18T14:00:21Z</time><name>PT12092</name></trkpt>
<trkpt lat="52.855040" lon="-3.377323"><ele>331</ele><time>2020-01-18T14:00:23Z</time><name>PT12093</name></trkpt>
<trkpt lat="52.855039" lon="-3.377332"><ele>330</ele><time>2020-01-18T14:00:23Z</time><name>PT12094</name></trkpt>
<trkpt lat="52.855038" lon="-3.377352"><ele>330</ele><time>2020-01-18T14:00:24Z</time><name>PT12095</name></trkpt>
<trkpt lat="52.855036" lon="-3.377385"><ele>327</ele><time>2020-01-18T14:00:26Z</time><name>PT12096</name></trkpt>
<trkpt lat="52.855030" lon="-3.377404"><ele>326</ele><time>2020-01-18T14:00:26Z</time><name>PT12097</name></trkpt>
<trkpt lat="52.855028" lon="-3.377424"><ele>324</ele><time>2020-01-18T14:00:27Z</time><name>PT12098</name></trkpt>
<trkpt lat="52.855028" lon="-3.377439"><ele>324</ele><time>2020-01-18T14:00:29Z</time><name>PT12099</name></trkpt>
<trkpt lat="52.855028" lon="-3.377484"><ele>318</ele><time>2020-01-18T14:00:29Z</time><name>PT12100</name></trkpt>
<trkpt lat="52.855023" lon="-3.377495"><ele>319</ele><time>2020-01-18T14:00:30Z</time><name>PT12101</name></trkpt>
<trkpt lat="52.855013" lon="-3.377510"><ele>319</ele><time>2020-01-18T14:00:32Z</time><name>PT12102</name></trkpt>
<trkpt lat="52.855011" lon="-3.377515"><ele>319</ele><time>2020-01-18T14:00:32Z</time><name>PT12103</name></trkpt>
<trkpt lat="52.855005" lon="-3.377523"><ele>319</ele><time>2020-01-18T14:00:33Z</time><name>PT12104</name></trkpt>
<trkpt lat="52.855002" lon="-3.377535"><ele>319</ele><time>2020-01-18T14:00:35Z</time><name>PT12105</name></trkpt>
<trkpt lat="52.854993" lon="-3.377546"><ele>319</ele><time>2020-01-18T14:00:35Z</time><name>PT12106</name></trkpt>
<trkpt lat="52.854985" lon="-3.377551"><ele>319</ele><time>2020-01-18T14:00:36Z</time><name>PT12107</name></trkpt>
<trkpt lat="52.854982" lon="-3.377577"><ele>321</ele><time>2020-01-18T14:00:38Z</time><name>PT12108</name></trkpt>
<trkpt lat="52.854975" lon="-3.377585"><ele>319</ele><time>2020-01-18T14:00:38Z</time><name>PT12109</name></trkpt>
<trkpt lat="52.854969" lon="-3.377606"><ele>316</ele><time>2020-01-18T14:00:39Z</time><name>PT12110</name></trkpt>
<trkpt lat="52.854970" lon="-3.377610"><ele>318</ele><time>2020-01-18T14:00:41Z</time><name>PT12111</name></trkpt>
<trkpt lat="52.854973" lon="-3.377600"><ele>318</ele><time>2020-01-18T14:00:41Z</time><name>PT12112</name></trkpt>
<trkpt lat="52.854971" lon="-3.377612"><ele>318</ele><time>2020-01-18T14:00:42Z</time><name>PT12113</name></trkpt>
<trkpt lat="52.854970" lon="-3.377624"><ele>317</ele><time>2020-01-18T14:00:44Z</time><name>PT12114</name></trkpt>
<trkpt lat="52.854963" lon="-3.377637"><ele>316</ele><time>2020-01-18T14:00:44Z</time><name>PT12115</name></trkpt>
<trkpt lat="52.854958" lon="-3.377646"><ele>316</ele><time>2020-01-18T14:00:45Z</time><name>PT12116</name></trkpt>
<trkpt lat="52.854955" lon="-3.377652"><ele>315</ele><time>2020-01-18T14:00:47Z</time><name>PT12117</name></trkpt>
<trkpt lat="52.854950" lon="-3.377663"><ele>314</ele><time>2020-01-18T14:00:47Z</time><name>PT12118</name></trkpt>
<trkpt lat="52.854940" lon="-3.377673"><ele>313</ele><time>2020-01-18T14:00:48Z</time><name>PT12119</name></trkpt>
<trkpt lat="52.854937" lon="-3.377679"><ele>313</ele><time>2020-01-18T14:00:50Z</time><name>PT12120</name></trkpt>
<trkpt lat="52.854928" lon="-3.377683"><ele>313</ele><time>2020-01-18T14:00:50Z</time><name>PT12121</name></trkpt>
<trkpt lat="52.854922" lon="-3.377702"><ele>312</ele><time>2020-01-18T14:00:51Z</time><name>PT12122</name></trkpt>
<trkpt lat="52.854918" lon="-3.377714"><ele>311</ele><time>2020-01-18T14:00:52Z</time><name>PT12123</name></trkpt>
<trkpt lat="52.854919" lon="-3.377723"><ele>311</ele><time>2020-01-18T14:00:53Z</time><name>PT12124</name></trkpt>
<trkpt lat="52.854924" lon="-3.377734"><ele>311</ele><time>2020-01-18T14:00:54Z</time><name>PT12125</name></trkpt>
<trkpt lat="52.854927" lon="-3.377754"><ele>309</ele><time>2020-01-18T14:00:56Z</time><name>PT12126</name></trkpt>
<trkpt lat="52.854930" lon="-3.377767"><ele>309</ele><time>2020-01-18T14:00:56Z</time><name>PT12127</name></trkpt>
<trkpt lat="52.854934" lon="-3.377773"><ele>310</ele><time>2020-01-18T14:00:57Z</time><name>PT12128</name></trkpt>
<trkpt lat="52.854926" lon="-3.377798"><ele>308</ele><time>2020-01-18T14:00:59Z</time><name>PT12129</name></trkpt>
<trkpt lat="52.854927" lon="-3.377810"><ele>307</ele><time>2020-01-18T14:00:59Z</time><name>PT12130</name></trkpt>
<trkpt lat="52.854919" lon="-3.377814"><ele>307</ele><time>2020-01-18T14:01:00Z</time><name>PT12131</name></trkpt>
<trkpt lat="52.854911" lon="-3.377829"><ele>306</ele><time>2020-01-18T14:01:02Z</time><name>PT12132</name></trkpt>
<trkpt lat="52.854911" lon="-3.377843"><ele>305</ele><time>2020-01-18T14:01:02Z</time><name>PT12133</name></trkpt>
<trkpt lat="52.854914" lon="-3.377850"><ele>306</ele><time>2020-01-18T14:01:03Z</time><name>PT12134</name></trkpt>
<trkpt lat="52.854914" lon="-3.377865"><ele>307</ele><time>2020-01-18T14:01:05Z</time><name>PT12135</name></trkpt>
<trkpt lat="52.854908" lon="-3.377866"><ele>307</ele><time>2020-01-18T14:01:05Z</time><name>PT12136</name></trkpt>
<trkpt lat="52.854903" lon="-3.377872"><ele>307</ele><time>2020-01-18T14:01:06Z</time><name>PT12137</name></trkpt>
<trkpt lat="52.854894" lon="-3.377869"><ele>308</ele><time>2020-01-18T14:01:08Z</time><name>PT12138</name></trkpt>
<trkpt lat="52.854897" lon="-3.377873"><ele>308</ele><time>2020-01-18T14:01:08Z</time><name>PT12139</name></trkpt>
<trkpt lat="52.854900" lon="-3.377873"><ele>309</ele><time>2020-01-18T14:01:09Z</time><name>PT12140</name></trkpt>
<trkpt lat="52.854895" lon="-3.377879"><ele>309</ele><time>2020-01-18T14:01:11Z</time><name>PT12141</name></trkpt>
<trkpt lat="52.854887" lon="-3.377880"><ele>311</ele><time>2020-01-18T14:01:11Z</time><name>PT12142</name></trkpt>
<trkpt lat="52.854878" lon="-3.377887"><ele>311</ele><time>2020-01-18T14:01:12Z</time><name>PT12143</name></trkpt>
<trkpt lat="52.854865" lon="-3.377901"><ele>311</ele><time>2020-01-18T14:01:14Z</time><name>PT12144</name></trkpt>
<trkpt lat="52.854857" lon="-3.377911"><ele>310</ele><time>2020-01-18T14:01:14Z</time><name>PT12145</name></trkpt>
<trkpt lat="52.854855" lon="-3.377921"><ele>310</ele><time>2020-01-18T14:01:15Z</time><name>PT12146</name></trkpt>
<trkpt lat="52.854854" lon="-3.377927"><ele>310</ele><time>2020-01-18T14:01:17Z</time><name>PT12147</name></trkpt>
<trkpt lat="52.854843" lon="-3.377944"><ele>310</ele><time>2020-01-18T14:01:17Z</time><name>PT12148</name></trkpt>
<trkpt lat="52.854831" lon="-3.377963"><ele>310</ele><time>2020-01-18T14:01:18Z</time><name>PT12149</name></trkpt>
<trkpt lat="52.854810" lon="-3.377987"><ele>310</ele><time>2020-01-18T14:01:20Z</time><name>PT12150</name></trkpt>
<trkpt lat="52.854809" lon="-3.377990"><ele>310</ele><time>2020-01-18T14:01:20Z</time><name>PT12151</name></trkpt>
<trkpt lat="52.854808" lon="-3.377992"><ele>310</ele><time>2020-01-18T14:01:21Z</time><name>PT12152</name></trkpt>
<trkpt lat="52.854805" lon="-3.377995"><ele>310</ele><time>2020-01-18T14:01:23Z</time><name>PT12153</name></trkpt>
<trkpt lat="52.854794" lon="-3.377963"><ele>312</ele><time>2020-01-18T14:02:02Z</time><name>PT12154</name></trkpt>
<trkpt lat="52.854797" lon="-3.377936"><ele>314</ele><time>2020-01-18T14:02:03Z</time><name>PT12155</name></trkpt>
<trkpt lat="52.854805" lon="-3.377899"><ele>314</ele><time>2020-01-18T14:02:05Z</time><name>PT12156</name></trkpt>
<trkpt lat="52.854806" lon="-3.377880"><ele>313</ele><time>2020-01-18T14:02:05Z</time><name>PT12157</name></trkpt>
<trkpt lat="52.854809" lon="-3.377847"><ele>313</ele><time>2020-01-18T14:02:06Z</time><name>PT12158</name></trkpt>
<trkpt lat="52.854814" lon="-3.377827"><ele>313</ele><time>2020-01-18T14:02:08Z</time><name>PT12159</name></trkpt>
<trkpt lat="52.854818" lon="-3.377811"><ele>312</ele><time>2020-01-18T14:02:08Z</time><name>PT12160</name></trkpt>
<trkpt lat="52.854826" lon="-3.377799"><ele>312</ele><time>2020-01-18T14:02:09Z</time><name>PT12161</name></trkpt>
<trkpt lat="52.854833" lon="-3.377786"><ele>312</ele><time>2020-01-18T14:02:11Z</time><name>PT12162</name></trkpt>
<trkpt lat="52.854834" lon="-3.377760"><ele>312</ele><time>2020-01-18T14:02:11Z</time><name>PT12163</name></trkpt>
<trkpt lat="52.854840" lon="-3.377743"><ele>312</ele><time>2020-01-18T14:02:12Z</time><name>PT12164</name></trkpt>
<trkpt lat="52.854842" lon="-3.377730"><ele>311</ele><time>2020-01-18T14:02:14Z</time><name>PT12165</name></trkpt>
<trkpt lat="52.854836" lon="-3.377717"><ele>311</ele><time>2020-01-18T14:02:14Z</time><name>PT12166</name></trkpt>
<trkpt lat="52.854840" lon="-3.377709"><ele>311</ele><time>2020-01-18T14:02:15Z</time><name>PT12167</name></trkpt>
<trkpt lat="52.854843" lon="-3.377711"><ele>310</ele><time>2020-01-18T14:02:17Z</time><name>PT12168</name></trkpt>
<trkpt lat="52.854842" lon="-3.377712"><ele>310</ele><time>2020-01-18T14:02:17Z</time><name>PT12169</name></trkpt>
<trkpt lat="52.854845" lon="-3.377713"><ele>310</ele><time>2020-01-18T14:02:18Z</time><name>PT12170</name></trkpt>
<trkpt lat="52.854850" lon="-3.377748"><ele>307</ele><time>2020-01-18T14:03:14Z</time><name>PT12171</name></trkpt>
<trkpt lat="52.854851" lon="-3.377788"><ele>307</ele><time>2020-01-18T14:03:15Z</time><name>PT12172</name></trkpt>
<trkpt lat="52.854841" lon="-3.377801"><ele>306</ele><time>2020-01-18T14:03:17Z</time><name>PT12173</name></trkpt>
<trkpt lat="52.854836" lon="-3.377815"><ele>306</ele><time>2020-01-18T14:03:17Z</time><name>PT12174</name></trkpt>
<trkpt lat="52.854833" lon="-3.377813"><ele>306</ele><time>2020-01-18T14:03:18Z</time><name>PT12175</name></trkpt>
<trkpt lat="52.854839" lon="-3.377840"><ele>306</ele><time>2020-01-18T14:04:29Z</time><name>PT12176</name></trkpt>
<trkpt lat="52.854845" lon="-3.377865"><ele>306</ele><time>2020-01-18T14:04:30Z</time><name>PT12177</name></trkpt>
<trkpt lat="52.854852" lon="-3.377890"><ele>306</ele><time>2020-01-18T14:04:32Z</time><name>PT12178</name></trkpt>
<trkpt lat="52.854850" lon="-3.377890"><ele>306</ele><time>2020-01-18T14:04:32Z</time><name>PT12179</name></trkpt>
<trkpt lat="52.854849" lon="-3.377882"><ele>306</ele><time>2020-01-18T14:04:33Z</time><name>PT12180</name></trkpt>
<trkpt lat="52.854847" lon="-3.377879"><ele>306</ele><time>2020-01-18T14:04:35Z</time><name>PT12181</name></trkpt>
<trkpt lat="52.854840" lon="-3.377862"><ele>305</ele><time>2020-01-18T14:04:35Z</time><name>PT12182</name></trkpt>
<trkpt lat="52.854842" lon="-3.377858"><ele>305</ele><time>2020-01-18T14:04:36Z</time><name>PT12183</name></trkpt>
<trkpt lat="52.854841" lon="-3.377825"><ele>305</ele><time>2020-01-18T14:04:38Z</time><name>PT12184</name></trkpt>
<trkpt lat="52.854841" lon="-3.377797"><ele>304</ele><time>2020-01-18T14:04:38Z</time><name>PT12185</name></trkpt>
<trkpt lat="52.854842" lon="-3.377795"><ele>304</ele><time>2020-01-18T14:04:39Z</time><name>PT12186</name></trkpt>
<trkpt lat="52.854838" lon="-3.377799"><ele>304</ele><time>2020-01-18T14:04:41Z</time><name>PT12187</name></trkpt>
<trkpt lat="52.854836" lon="-3.377801"><ele>304</ele><time>2020-01-18T14:04:41Z</time><name>PT12188</name></trkpt>
<trkpt lat="52.854835" lon="-3.377805"><ele>304</ele><time>2020-01-18T14:04:42Z</time><name>PT12189</name></trkpt>
<trkpt lat="52.854840" lon="-3.377801"><ele>303</ele><time>2020-01-18T14:04:57Z</time><name>PT12190</name></trkpt>
<trkpt lat="52.854833" lon="-3.377796"><ele>302</ele><time>2020-01-18T14:04:59Z</time><name>PT12191</name></trkpt>
<trkpt lat="52.854836" lon="-3.377793"><ele>302</ele><time>2020-01-18T14:05:11Z</time><name>PT12192</name></trkpt>
<trkpt lat="52.854840" lon="-3.377791"><ele>302</ele><time>2020-01-18T14:05:11Z</time><name>PT12193</name></trkpt>
<trkpt lat="52.854836" lon="-3.377785"><ele>300</ele><time>2020-01-18T14:05:18Z</time><name>PT12194</name></trkpt>
<trkpt lat="52.854837" lon="-3.377767"><ele>300</ele><time>2020-01-18T14:05:20Z</time><name>PT12195</name></trkpt>
<trkpt lat="52.854836" lon="-3.377762"><ele>300</ele><time>2020-01-18T14:05:20Z</time><name>PT12196</name></trkpt>
<trkpt lat="52.854838" lon="-3.377746"><ele>300</ele><time>2020-01-18T14:05:23Z</time><name>PT12197</name></trkpt>
<trkpt lat="52.854834" lon="-3.377721"><ele>300</ele><time>2020-01-18T14:05:24Z</time><name>PT12198</name></trkpt>
<trkpt lat="52.854831" lon="-3.377707"><ele>300</ele><time>2020-01-18T14:05:26Z</time><name>PT12199</name></trkpt>
<trkpt lat="52.854826" lon="-3.377685"><ele>300</ele><time>2020-01-18T14:05:26Z</time><name>PT12200</name></trkpt>
<trkpt lat="52.854821" lon="-3.377668"><ele>299</ele><time>2020-01-18T14:05:27Z</time><name>PT12201</name></trkpt>
<trkpt lat="52.854814" lon="-3.377656"><ele>299</ele><time>2020-01-18T14:05:29Z</time><name>PT12202</name></trkpt>
<trkpt lat="52.854811" lon="-3.377640"><ele>299</ele><time>2020-01-18T14:05:29Z</time><name>PT12203</name></trkpt>
<trkpt lat="52.854806" lon="-3.377628"><ele>300</ele><time>2020-01-18T14:05:30Z</time><name>PT12204</name></trkpt>
<trkpt lat="52.854803" lon="-3.377609"><ele>299</ele><time>2020-01-18T14:05:31Z</time><name>PT12205</name></trkpt>
<trkpt lat="52.854808" lon="-3.377588"><ele>299</ele><time>2020-01-18T14:05:32Z</time><name>PT12206</name></trkpt>
<trkpt lat="52.854811" lon="-3.377568"><ele>299</ele><time>2020-01-18T14:05:33Z</time><name>PT12207</name></trkpt>
<trkpt lat="52.854813" lon="-3.377556"><ele>299</ele><time>2020-01-18T14:05:35Z</time><name>PT12208</name></trkpt>
<trkpt lat="52.854817" lon="-3.377540"><ele>299</ele><time>2020-01-18T14:05:35Z</time><name>PT12209</name></trkpt>
<trkpt lat="52.854810" lon="-3.377529"><ele>299</ele><time>2020-01-18T14:05:36Z</time><name>PT12210</name></trkpt>
<trkpt lat="52.854807" lon="-3.377530"><ele>298</ele><time>2020-01-18T14:05:38Z</time><name>PT12211</name></trkpt>
<trkpt lat="52.854809" lon="-3.377525"><ele>298</ele><time>2020-01-18T14:05:38Z</time><name>PT12212</name></trkpt>
<trkpt lat="52.854809" lon="-3.377526"><ele>298</ele><time>2020-01-18T14:05:39Z</time><name>PT12213</name></trkpt>
<trkpt lat="52.854810" lon="-3.377527"><ele>298</ele><time>2020-01-18T14:05:41Z</time><name>PT12214</name></trkpt>
<trkpt lat="52.854812" lon="-3.377524"><ele>298</ele><time>2020-01-18T14:05:41Z</time><name>PT12215</name></trkpt>
<trkpt lat="52.854819" lon="-3.377516"><ele>298</ele><time>2020-01-18T14:05:47Z</time><name>PT12216</name></trkpt>
<trkpt lat="52.854830" lon="-3.377505"><ele>297</ele><time>2020-01-18T14:05:47Z</time><name>PT12217</name></trkpt>
<trkpt lat="52.854833" lon="-3.377499"><ele>297</ele><time>2020-01-18T14:05:48Z</time><name>PT12218</name></trkpt>
<trkpt lat="52.854836" lon="-3.377485"><ele>297</ele><time>2020-01-18T14:05:50Z</time><name>PT12219</name></trkpt>
<trkpt lat="52.854836" lon="-3.377471"><ele>297</ele><time>2020-01-18T14:05:50Z</time><name>PT12220</name></trkpt>
<trkpt lat="52.854839" lon="-3.377463"><ele>297</ele><time>2020-01-18T14:05:51Z</time><name>PT12221</name></trkpt>
<trkpt lat="52.854840" lon="-3.377446"><ele>297</ele><time>2020-01-18T14:05:53Z</time><name>PT12222</name></trkpt>
<trkpt lat="52.854841" lon="-3.377431"><ele>297</ele><time>2020-01-18T14:05:53Z</time><name>PT12223</name></trkpt>
<trkpt lat="52.854844" lon="-3.377412"><ele>296</ele><time>2020-01-18T14:05:54Z</time><name>PT12224</name></trkpt>
<trkpt lat="52.854845" lon="-3.377398"><ele>296</ele><time>2020-01-18T14:05:55Z</time><name>PT12225</name></trkpt>
<trkpt lat="52.854842" lon="-3.377381"><ele>296</ele><time>2020-01-18T14:05:56Z</time><name>PT12226</name></trkpt>
<trkpt lat="52.854843" lon="-3.377362"><ele>296</ele><time>2020-01-18T14:05:57Z</time><name>PT12227</name></trkpt>
<trkpt lat="52.854846" lon="-3.377343"><ele>296</ele><time>2020-01-18T14:05:59Z</time><name>PT12228</name></trkpt>
<trkpt lat="52.854848" lon="-3.377325"><ele>295</ele><time>2020-01-18T14:05:59Z</time><name>PT12229</name></trkpt>
<trkpt lat="52.854849" lon="-3.377307"><ele>295</ele><time>2020-01-18T14:06:00Z</time><name>PT12230</name></trkpt>
<trkpt lat="52.854852" lon="-3.377299"><ele>295</ele><time>2020-01-18T14:06:02Z</time><name>PT12231</name></trkpt>
<trkpt lat="52.854852" lon="-3.377285"><ele>295</ele><time>2020-01-18T14:06:02Z</time><name>PT12232</name></trkpt>
<trkpt lat="52.854856" lon="-3.377268"><ele>295</ele><time>2020-01-18T14:06:03Z</time><name>PT12233</name></trkpt>
<trkpt lat="52.854856" lon="-3.377249"><ele>295</ele><time>2020-01-18T14:06:05Z</time><name>PT12234</name></trkpt>
<trkpt lat="52.854859" lon="-3.377226"><ele>295</ele><time>2020-01-18T14:06:05Z</time><name>PT12235</name></trkpt>
<trkpt lat="52.854857" lon="-3.377206"><ele>295</ele><time>2020-01-18T14:06:06Z</time><name>PT12236</name></trkpt>
<trkpt lat="52.854852" lon="-3.377187"><ele>295</ele><time>2020-01-18T14:06:08Z</time><name>PT12237</name></trkpt>
<trkpt lat="52.854852" lon="-3.377173"><ele>295</ele><time>2020-01-18T14:06:08Z</time><name>PT12238</name></trkpt>
<trkpt lat="52.854851" lon="-3.377157"><ele>295</ele><time>2020-01-18T14:06:09Z</time><name>PT12239</name></trkpt>
<trkpt lat="52.854852" lon="-3.377133"><ele>295</ele><time>2020-01-18T14:06:10Z</time><name>PT12240</name></trkpt>
<trkpt lat="52.854856" lon="-3.377118"><ele>295</ele><time>2020-01-18T14:06:11Z</time><name>PT12241</name></trkpt>
<trkpt lat="52.854859" lon="-3.377103"><ele>295</ele><time>2020-01-18T14:06:12Z</time><name>PT12242</name></trkpt>
<trkpt lat="52.854858" lon="-3.377086"><ele>295</ele><time>2020-01-18T14:06:14Z</time><name>PT12243</name></trkpt>
<trkpt lat="52.854856" lon="-3.377073"><ele>296</ele><time>2020-01-18T14:06:14Z</time><name>PT12244</name></trkpt>
<trkpt lat="52.854858" lon="-3.377067"><ele>295</ele><time>2020-01-18T14:06:15Z</time><name>PT12245</name></trkpt>
<trkpt lat="52.854857" lon="-3.377051"><ele>295</ele><time>2020-01-18T14:06:17Z</time><name>PT12246</name></trkpt>
<trkpt lat="52.854855" lon="-3.377039"><ele>296</ele><time>2020-01-18T14:06:17Z</time><name>PT12247</name></trkpt>
<trkpt lat="52.854853" lon="-3.377023"><ele>296</ele><time>2020-01-18T14:06:18Z</time><name>PT12248</name></trkpt>
<trkpt lat="52.854851" lon="-3.377004"><ele>297</ele><time>2020-01-18T14:06:20Z</time><name>PT12249</name></trkpt>
<trkpt lat="52.854850" lon="-3.376989"><ele>297</ele><time>2020-01-18T14:06:20Z</time><name>PT12250</name></trkpt>
<trkpt lat="52.854849" lon="-3.376974"><ele>297</ele><time>2020-01-18T14:06:21Z</time><name>PT12251</name></trkpt>
<trkpt lat="52.854848" lon="-3.376960"><ele>297</ele><time>2020-01-18T14:06:23Z</time><name>PT12252</name></trkpt>
<trkpt lat="52.854845" lon="-3.376944"><ele>298</ele><time>2020-01-18T14:06:23Z</time><name>PT12253</name></trkpt>
<trkpt lat="52.854844" lon="-3.376938"><ele>298</ele><time>2020-01-18T14:06:24Z</time><name>PT12254</name></trkpt>
<trkpt lat="52.854846" lon="-3.376924"><ele>298</ele><time>2020-01-18T14:06:26Z</time><name>PT12255</name></trkpt>
<trkpt lat="52.854844" lon="-3.376915"><ele>298</ele><time>2020-01-18T14:06:26Z</time><name>PT12256</name></trkpt>
<trkpt lat="52.854842" lon="-3.376913"><ele>299</ele><time>2020-01-18T14:06:27Z</time><name>PT12257</name></trkpt>
<trkpt lat="52.854843" lon="-3.376912"><ele>299</ele><time>2020-01-18T14:06:29Z</time><name>PT12258</name></trkpt>
<trkpt lat="52.854842" lon="-3.376911"><ele>299</ele><time>2020-01-18T14:06:29Z</time><name>PT12259</name></trkpt>
<trkpt lat="52.854840" lon="-3.376910"><ele>299</ele><time>2020-01-18T14:06:30Z</time><name>PT12260</name></trkpt>
<trkpt lat="52.854840" lon="-3.376910"><ele>299</ele><time>2020-01-18T14:06:31Z</time><name>PT12261</name></trkpt>
<trkpt lat="52.854838" lon="-3.376900"><ele>299</ele><time>2020-01-18T14:06:41Z</time><name>PT12262</name></trkpt>
<trkpt lat="52.854842" lon="-3.376901"><ele>298</ele><time>2020-01-18T14:06:41Z</time><name>PT12263</name></trkpt>
<trkpt lat="52.854840" lon="-3.376899"><ele>298</ele><time>2020-01-18T14:06:42Z</time><name>PT12264</name></trkpt>
<trkpt lat="52.854850" lon="-3.376911"><ele>298</ele><time>2020-01-18T14:06:44Z</time><name>PT12265</name></trkpt>
<trkpt lat="52.854859" lon="-3.376878"><ele>299</ele><time>2020-01-18T14:06:44Z</time><name>PT12266</name></trkpt>
<trkpt lat="52.854871" lon="-3.376868"><ele>299</ele><time>2020-01-18T14:06:45Z</time><name>PT12267</name></trkpt>
<trkpt lat="52.854875" lon="-3.376869"><ele>299</ele><time>2020-01-18T14:06:47Z</time><name>PT12268</name></trkpt>
<trkpt lat="52.854875" lon="-3.376866"><ele>299</ele><time>2020-01-18T14:06:47Z</time><name>PT12269</name></trkpt>
<trkpt lat="52.854874" lon="-3.376864"><ele>299</ele><time>2020-01-18T14:06:50Z</time><name>PT12270</name></trkpt>
<trkpt lat="52.854871" lon="-3.376863"><ele>299</ele><time>2020-01-18T14:06:51Z</time><name>PT12271</name></trkpt>
<trkpt lat="52.854871" lon="-3.376860"><ele>300</ele><time>2020-01-18T14:06:53Z</time><name>PT12272</name></trkpt>
<trkpt lat="52.854870" lon="-3.376845"><ele>299</ele><time>2020-01-18T14:06:53Z</time><name>PT12273</name></trkpt>
<trkpt lat="52.854867" lon="-3.376854"><ele>299</ele><time>2020-01-18T14:06:54Z</time><name>PT12274</name></trkpt>
<trkpt lat="52.854873" lon="-3.376859"><ele>299</ele><time>2020-01-18T14:06:56Z</time><name>PT12275</name></trkpt>
<trkpt lat="52.854879" lon="-3.376856"><ele>299</ele><time>2020-01-18T14:06:57Z</time><name>PT12276</name></trkpt>
<trkpt lat="52.854888" lon="-3.376847"><ele>298</ele><time>2020-01-18T14:06:59Z</time><name>PT12277</name></trkpt>
<trkpt lat="52.854896" lon="-3.376843"><ele>298</ele><time>2020-01-18T14:06:59Z</time><name>PT12278</name></trkpt>
<trkpt lat="52.854901" lon="-3.376842"><ele>298</ele><time>2020-01-18T14:07:00Z</time><name>PT12279</name></trkpt>
<trkpt lat="52.854901" lon="-3.376849"><ele>298</ele><time>2020-01-18T14:07:02Z</time><name>PT12280</name></trkpt>
<trkpt lat="52.854903" lon="-3.376855"><ele>298</ele><time>2020-01-18T14:07:02Z</time><name>PT12281</name></trkpt>
<trkpt lat="52.854908" lon="-3.376859"><ele>298</ele><time>2020-01-18T14:07:03Z</time><name>PT12282</name></trkpt>
<trkpt lat="52.854911" lon="-3.376869"><ele>297</ele><time>2020-01-18T14:07:05Z</time><name>PT12283</name></trkpt>
<trkpt lat="52.854917" lon="-3.376880"><ele>297</ele><time>2020-01-18T14:07:05Z</time><name>PT12284</name></trkpt>
<trkpt lat="52.854918" lon="-3.376887"><ele>297</ele><time>2020-01-18T14:07:06Z</time><name>PT12285</name></trkpt>
<trkpt lat="52.854922" lon="-3.376897"><ele>297</ele><time>2020-01-18T14:07:08Z</time><name>PT12286</name></trkpt>
<trkpt lat="52.854925" lon="-3.376907"><ele>297</ele><time>2020-01-18T14:07:08Z</time><name>PT12287</name></trkpt>
<trkpt lat="52.854935" lon="-3.376913"><ele>297</ele><time>2020-01-18T14:07:09Z</time><name>PT12288</name></trkpt>
<trkpt lat="52.854936" lon="-3.376912"><ele>297</ele><time>2020-01-18T14:07:11Z</time><name>PT12289</name></trkpt>
<trkpt lat="52.854954" lon="-3.376894"><ele>297</ele><time>2020-01-18T14:07:11Z</time><name>PT12290</name></trkpt>
<trkpt lat="52.854963" lon="-3.376896"><ele>296</ele><time>2020-01-18T14:07:12Z</time><name>PT12291</name></trkpt>
<trkpt lat="52.854974" lon="-3.376888"><ele>295</ele><time>2020-01-18T14:07:14Z</time><name>PT12292</name></trkpt>
<trkpt lat="52.854979" lon="-3.376882"><ele>294</ele><time>2020-01-18T14:07:14Z</time><name>PT12293</name></trkpt>
<trkpt lat="52.854982" lon="-3.376872"><ele>294</ele><time>2020-01-18T14:07:15Z</time><name>PT12294</name></trkpt>
<trkpt lat="52.854992" lon="-3.376860"><ele>295</ele><time>2020-01-18T14:07:17Z</time><name>PT12295</name></trkpt>
<trkpt lat="52.855004" lon="-3.376840"><ele>297</ele><time>2020-01-18T14:07:17Z</time><name>PT12296</name></trkpt>
<trkpt lat="52.855014" lon="-3.376826"><ele>297</ele><time>2020-01-18T14:07:18Z</time><name>PT12297</name></trkpt>
<trkpt lat="52.855022" lon="-3.376817"><ele>297</ele><time>2020-01-18T14:07:20Z</time><name>PT12298</name></trkpt>
<trkpt lat="52.855028" lon="-3.376809"><ele>297</ele><time>2020-01-18T14:07:20Z</time><name>PT12299</name></trkpt>
<trkpt lat="52.855037" lon="-3.376791"><ele>300</ele><time>2020-01-18T14:07:21Z</time><name>PT12300</name></trkpt>
<trkpt lat="52.855042" lon="-3.376777"><ele>299</ele><time>2020-01-18T14:07:23Z</time><name>PT12301</name></trkpt>
<trkpt lat="52.855047" lon="-3.376769"><ele>298</ele><time>2020-01-18T14:07:23Z</time><name>PT12302</name></trkpt>
<trkpt lat="52.855057" lon="-3.376754"><ele>300</ele><time>2020-01-18T14:07:24Z</time><name>PT12303</name></trkpt>
<trkpt lat="52.855062" lon="-3.376737"><ele>299</ele><time>2020-01-18T14:07:26Z</time><name>PT12304</name></trkpt>
<trkpt lat="52.855063" lon="-3.376726"><ele>298</ele><time>2020-01-18T14:07:26Z</time><name>PT12305</name></trkpt>
<trkpt lat="52.855070" lon="-3.376716"><ele>298</ele><time>2020-01-18T14:07:27Z</time><name>PT12306</name></trkpt>
<trkpt lat="52.855075" lon="-3.376703"><ele>299</ele><time>2020-01-18T14:07:29Z</time><name>PT12307</name></trkpt>
<trkpt lat="52.855077" lon="-3.376678"><ele>299</ele><time>2020-01-18T14:07:29Z</time><name>PT12308</name></trkpt>
<trkpt lat="52.855082" lon="-3.376664"><ele>300</ele><time>2020-01-18T14:07:30Z</time><name>PT12309</name></trkpt>
<trkpt lat="52.855082" lon="-3.376636"><ele>300</ele><time>2020-01-18T14:07:32Z</time><name>PT12310</name></trkpt>
<trkpt lat="52.855084" lon="-3.376618"><ele>299</ele><time>2020-01-18T14:07:32Z</time><name>PT12311</name></trkpt>
<trkpt lat="52.855089" lon="-3.376593"><ele>299</ele><time>2020-01-18T14:07:33Z</time><name>PT12312</name></trkpt>
<trkpt lat="52.855096" lon="-3.376564"><ele>301</ele><time>2020-01-18T14:07:35Z</time><name>PT12313</name></trkpt>
<trkpt lat="52.855098" lon="-3.376546"><ele>301</ele><time>2020-01-18T14:07:35Z</time><name>PT12314</name></trkpt>
<trkpt lat="52.855103" lon="-3.376529"><ele>301</ele><time>2020-01-18T14:07:36Z</time><name>PT12315</name></trkpt>
<trkpt lat="52.855109" lon="-3.376508"><ele>300</ele><time>2020-01-18T14:07:38Z</time><name>PT12316</name></trkpt>
<trkpt lat="52.855112" lon="-3.376487"><ele>300</ele><time>2020-01-18T14:07:38Z</time><name>PT12317</name></trkpt>
<trkpt lat="52.855124" lon="-3.376471"><ele>300</ele><time>2020-01-18T14:07:39Z</time><name>PT12318</name></trkpt>
<trkpt lat="52.855125" lon="-3.376462"><ele>298</ele><time>2020-01-18T14:07:41Z</time><name>PT12319</name></trkpt>
<trkpt lat="52.855121" lon="-3.376440"><ele>297</ele><time>2020-01-18T14:07:41Z</time><name>PT12320</name></trkpt>
<trkpt lat="52.855119" lon="-3.376420"><ele>298</ele><time>2020-01-18T14:07:42Z</time><name>PT12321</name></trkpt>
<trkpt lat="52.855117" lon="-3.376393"><ele>299</ele><time>2020-01-18T14:07:44Z</time><name>PT12322</name></trkpt>
<trkpt lat="52.855121" lon="-3.376371"><ele>299</ele><time>2020-01-18T14:07:44Z</time><name>PT12323</name></trkpt>
<trkpt lat="52.855125" lon="-3.376353"><ele>299</ele><time>2020-01-18T14:07:45Z</time><name>PT12324</name></trkpt>
<trkpt lat="52.855123" lon="-3.376334"><ele>298</ele><time>2020-01-18T14:07:47Z</time><name>PT12325</name></trkpt>
<trkpt lat="52.855126" lon="-3.376320"><ele>298</ele><time>2020-01-18T14:07:47Z</time><name>PT12326</name></trkpt>
<trkpt lat="52.855127" lon="-3.376300"><ele>298</ele><time>2020-01-18T14:07:48Z</time><name>PT12327</name></trkpt>
<trkpt lat="52.855125" lon="-3.376279"><ele>298</ele><time>2020-01-18T14:07:50Z</time><name>PT12328</name></trkpt>
<trkpt lat="52.855125" lon="-3.376265"><ele>299</ele><time>2020-01-18T14:07:50Z</time><name>PT12329</name></trkpt>
<trkpt lat="52.855124" lon="-3.376248"><ele>299</ele><time>2020-01-18T14:07:51Z</time><name>PT12330</name></trkpt>
<trkpt lat="52.855125" lon="-3.376220"><ele>301</ele><time>2020-01-18T14:07:52Z</time><name>PT12331</name></trkpt>
<trkpt lat="52.855125" lon="-3.376201"><ele>301</ele><time>2020-01-18T14:07:53Z</time><name>PT12332</name></trkpt>
<trkpt lat="52.855124" lon="-3.376190"><ele>300</ele><time>2020-01-18T14:07:54Z</time><name>PT12333</name></trkpt>
<trkpt lat="52.855121" lon="-3.376178"><ele>300</ele><time>2020-01-18T14:07:56Z</time><name>PT12334</name></trkpt>
<trkpt lat="52.855116" lon="-3.376160"><ele>301</ele><time>2020-01-18T14:07:56Z</time><name>PT12335</name></trkpt>
<trkpt lat="52.855113" lon="-3.376145"><ele>301</ele><time>2020-01-18T14:07:57Z</time><name>PT12336</name></trkpt>
<trkpt lat="52.855111" lon="-3.376135"><ele>301</ele><time>2020-01-18T14:07:59Z</time><name>PT12337</name></trkpt>
<trkpt lat="52.855106" lon="-3.376121"><ele>300</ele><time>2020-01-18T14:07:59Z</time><name>PT12338</name></trkpt>
<trkpt lat="52.855102" lon="-3.376105"><ele>300</ele><time>2020-01-18T14:08:00Z</time><name>PT12339</name></trkpt>
<trkpt lat="52.855093" lon="-3.376083"><ele>301</ele><time>2020-01-18T14:08:02Z</time><name>PT12340</name></trkpt>
<trkpt lat="52.855090" lon="-3.376069"><ele>301</ele><time>2020-01-18T14:08:02Z</time><name>PT12341</name></trkpt>
<trkpt lat="52.855088" lon="-3.376059"><ele>300</ele><time>2020-01-18T14:08:03Z</time><name>PT12342</name></trkpt>
<trkpt lat="52.855085" lon="-3.376050"><ele>300</ele><time>2020-01-18T14:08:05Z</time><name>PT12343</name></trkpt>
<trkpt lat="52.855084" lon="-3.376038"><ele>300</ele><time>2020-01-18T14:08:05Z</time><name>PT12344</name></trkpt>
<trkpt lat="52.855080" lon="-3.376020"><ele>300</ele><time>2020-01-18T14:08:06Z</time><name>PT12345</name></trkpt>
<trkpt lat="52.855079" lon="-3.375997"><ele>300</ele><time>2020-01-18T14:08:08Z</time><name>PT12346</name></trkpt>
<trkpt lat="52.855077" lon="-3.375987"><ele>301</ele><time>2020-01-18T14:08:08Z</time><name>PT12347</name></trkpt>
<trkpt lat="52.855072" lon="-3.375971"><ele>300</ele><time>2020-01-18T14:08:09Z</time><name>PT12348</name></trkpt>
<trkpt lat="52.855065" lon="-3.375953"><ele>301</ele><time>2020-01-18T14:08:11Z</time><name>PT12349</name></trkpt>
<trkpt lat="52.855064" lon="-3.375941"><ele>300</ele><time>2020-01-18T14:08:11Z</time><name>PT12350</name></trkpt>
<trkpt lat="52.855060" lon="-3.375920"><ele>300</ele><time>2020-01-18T14:08:12Z</time><name>PT12351</name></trkpt>
<trkpt lat="52.855055" lon="-3.375903"><ele>300</ele><time>2020-01-18T14:08:14Z</time><name>PT12352</name></trkpt>
<trkpt lat="52.855051" lon="-3.375887"><ele>300</ele><time>2020-01-18T14:08:14Z</time><name>PT12353</name></trkpt>
<trkpt lat="52.855053" lon="-3.375876"><ele>300</ele><time>2020-01-18T14:08:15Z</time><name>PT12354</name></trkpt>
<trkpt lat="52.855047" lon="-3.375863"><ele>300</ele><time>2020-01-18T14:08:16Z</time><name>PT12355</name></trkpt>
<trkpt lat="52.855036" lon="-3.375846"><ele>300</ele><time>2020-01-18T14:08:17Z</time><name>PT12356</name></trkpt>
<trkpt lat="52.855033" lon="-3.375830"><ele>300</ele><time>2020-01-18T14:08:18Z</time><name>PT12357</name></trkpt>
<trkpt lat="52.855028" lon="-3.375814"><ele>299</ele><time>2020-01-18T14:08:20Z</time><name>PT12358</name></trkpt>
<trkpt lat="52.855028" lon="-3.375807"><ele>299</ele><time>2020-01-18T14:08:20Z</time><name>PT12359</name></trkpt>
<trkpt lat="52.855021" lon="-3.375796"><ele>298</ele><time>2020-01-18T14:08:21Z</time><name>PT12360</name></trkpt>
<trkpt lat="52.855017" lon="-3.375786"><ele>297</ele><time>2020-01-18T14:08:23Z</time><name>PT12361</name></trkpt>
<trkpt lat="52.855014" lon="-3.375769"><ele>297</ele><time>2020-01-18T14:08:23Z</time><name>PT12362</name></trkpt>
<trkpt lat="52.855011" lon="-3.375754"><ele>296</ele><time>2020-01-18T14:08:24Z</time><name>PT12363</name></trkpt>
<trkpt lat="52.855009" lon="-3.375734"><ele>296</ele><time>2020-01-18T14:08:26Z</time><name>PT12364</name></trkpt>
<trkpt lat="52.855002" lon="-3.375708"><ele>297</ele><time>2020-01-18T14:08:26Z</time><name>PT12365</name></trkpt>
<trkpt lat="52.854995" lon="-3.375683"><ele>297</ele><time>2020-01-18T14:08:27Z</time><name>PT12366</name></trkpt>
<trkpt lat="52.854988" lon="-3.375668"><ele>298</ele><time>2020-01-18T14:08:29Z</time><name>PT12367</name></trkpt>
<trkpt lat="52.854980" lon="-3.375647"><ele>297</ele><time>2020-01-18T14:08:29Z</time><name>PT12368</name></trkpt>
<trkpt lat="52.854970" lon="-3.375621"><ele>298</ele><time>2020-01-18T14:08:30Z</time><name>PT12369</name></trkpt>
<trkpt lat="52.854961" lon="-3.375603"><ele>296</ele><time>2020-01-18T14:08:32Z</time><name>PT12370</name></trkpt>
<trkpt lat="52.854956" lon="-3.375583"><ele>296</ele><time>2020-01-18T14:08:32Z</time><name>PT12371</name></trkpt>
<trkpt lat="52.854951" lon="-3.375562"><ele>296</ele><time>2020-01-18T14:08:33Z</time><name>PT12372</name></trkpt>
<trkpt lat="52.854943" lon="-3.375543"><ele>296</ele><time>2020-01-18T14:08:35Z</time><name>PT12373</name></trkpt>
<trkpt lat="52.854935" lon="-3.375525"><ele>297</ele><time>2020-01-18T14:08:35Z</time><name>PT12374</name></trkpt>
<trkpt lat="52.854927" lon="-3.375512"><ele>299</ele><time>2020-01-18T14:08:36Z</time><name>PT12375</name></trkpt>
<trkpt lat="52.854921" lon="-3.375489"><ele>300</ele><time>2020-01-18T14:08:38Z</time><name>PT12376</name></trkpt>
<trkpt lat="52.854915" lon="-3.375468"><ele>300</ele><time>2020-01-18T14:08:38Z</time><name>PT12377</name></trkpt>
<trkpt lat="52.854910" lon="-3.375451"><ele>300</ele><time>2020-01-18T14:08:39Z</time><name>PT12378</name></trkpt>
<trkpt lat="52.854907" lon="-3.375435"><ele>299</ele><time>2020-01-18T14:08:41Z</time><name>PT12379</name></trkpt>
<trkpt lat="52.854899" lon="-3.375420"><ele>299</ele><time>2020-01-18T14:08:41Z</time><name>PT12380</name></trkpt>
<trkpt lat="52.854895" lon="-3.375408"><ele>299</ele><time>2020-01-18T14:08:42Z</time><name>PT12381</name></trkpt>
<trkpt lat="52.854891" lon="-3.375393"><ele>299</ele><time>2020-01-18T14:08:44Z</time><name>PT12382</name></trkpt>
<trkpt lat="52.854887" lon="-3.375379"><ele>298</ele><time>2020-01-18T14:08:44Z</time><name>PT12383</name></trkpt>
<trkpt lat="52.854881" lon="-3.375363"><ele>298</ele><time>2020-01-18T14:08:45Z</time><name>PT12384</name></trkpt>
<trkpt lat="52.854875" lon="-3.375347"><ele>298</ele><time>2020-01-18T14:08:47Z</time><name>PT12385</name></trkpt>
<trkpt lat="52.854872" lon="-3.375331"><ele>298</ele><time>2020-01-18T14:08:47Z</time><name>PT12386</name></trkpt>
<trkpt lat="52.854868" lon="-3.375314"><ele>299</ele><time>2020-01-18T14:08:48Z</time><name>PT12387</name></trkpt>
<trkpt lat="52.854862" lon="-3.375301"><ele>298</ele><time>2020-01-18T14:08:50Z</time><name>PT12388</name></trkpt>
<trkpt lat="52.854855" lon="-3.375281"><ele>298</ele><time>2020-01-18T14:08:50Z</time><name>PT12389</name></trkpt>
<trkpt lat="52.854847" lon="-3.375263"><ele>299</ele><time>2020-01-18T14:08:51Z</time><name>PT12390</name></trkpt>
<trkpt lat="52.854840" lon="-3.375249"><ele>299</ele><time>2020-01-18T14:08:52Z</time><name>PT12391</name></trkpt>
<trkpt lat="52.854832" lon="-3.375234"><ele>300</ele><time>2020-01-18T14:08:53Z</time><name>PT12392</name></trkpt>
<trkpt lat="52.854827" lon="-3.375225"><ele>298</ele><time>2020-01-18T14:08:54Z</time><name>PT12393</name></trkpt>
<trkpt lat="52.854813" lon="-3.375204"><ele>299</ele><time>2020-01-18T14:08:56Z</time><name>PT12394</name></trkpt>
<trkpt lat="52.854809" lon="-3.375182"><ele>299</ele><time>2020-01-18T14:08:56Z</time><name>PT12395</name></trkpt>
<trkpt lat="52.854806" lon="-3.375170"><ele>299</ele><time>2020-01-18T14:08:57Z</time><name>PT12396</name></trkpt>
<trkpt lat="52.854804" lon="-3.375163"><ele>298</ele><time>2020-01-18T14:08:59Z</time><name>PT12397</name></trkpt>
<trkpt lat="52.854792" lon="-3.375150"><ele>298</ele><time>2020-01-18T14:08:59Z</time><name>PT12398</name></trkpt>
<trkpt lat="52.854781" lon="-3.375136"><ele>297</ele><time>2020-01-18T14:09:00Z</time><name>PT12399</name></trkpt>
<trkpt lat="52.854775" lon="-3.375118"><ele>298</ele><time>2020-01-18T14:09:02Z</time><name>PT12400</name></trkpt>
<trkpt lat="52.854769" lon="-3.375108"><ele>296</ele><time>2020-01-18T14:09:02Z</time><name>PT12401</name></trkpt>
<trkpt lat="52.854764" lon="-3.375100"><ele>295</ele><time>2020-01-18T14:09:03Z</time><name>PT12402</name></trkpt>
<trkpt lat="52.854761" lon="-3.375084"><ele>294</ele><time>2020-01-18T14:09:05Z</time><name>PT12403</name></trkpt>
<trkpt lat="52.854757" lon="-3.375061"><ele>294</ele><time>2020-01-18T14:09:05Z</time><name>PT12404</name></trkpt>
<trkpt lat="52.854753" lon="-3.375043"><ele>294</ele><time>2020-01-18T14:09:06Z</time><name>PT12405</name></trkpt>
<trkpt lat="52.854751" lon="-3.375023"><ele>295</ele><time>2020-01-18T14:09:08Z</time><name>PT12406</name></trkpt>
<trkpt lat="52.854744" lon="-3.375010"><ele>295</ele><time>2020-01-18T14:09:08Z</time><name>PT12407</name></trkpt>
<trkpt lat="52.854736" lon="-3.374996"><ele>295</ele><time>2020-01-18T14:09:09Z</time><name>PT12408</name></trkpt>
<trkpt lat="52.854731" lon="-3.374974"><ele>296</ele><time>2020-01-18T14:09:11Z</time><name>PT12409</name></trkpt>
<trkpt lat="52.854724" lon="-3.374959"><ele>295</ele><time>2020-01-18T14:09:11Z</time><name>PT12410</name></trkpt>
<trkpt lat="52.854718" lon="-3.374944"><ele>296</ele><time>2020-01-18T14:09:12Z</time><name>PT12411</name></trkpt>
<trkpt lat="52.854712" lon="-3.374931"><ele>296</ele><time>2020-01-18T14:09:14Z</time><name>PT12412</name></trkpt>
<trkpt lat="52.854707" lon="-3.374917"><ele>296</ele><time>2020-01-18T14:09:14Z</time><name>PT12413</name></trkpt>
<trkpt lat="52.854703" lon="-3.374902"><ele>296</ele><time>2020-01-18T14:09:15Z</time><name>PT12414</name></trkpt>
<trkpt lat="52.854698" lon="-3.374880"><ele>296</ele><time>2020-01-18T14:09:17Z</time><name>PT12415</name></trkpt>
<trkpt lat="52.854693" lon="-3.374862"><ele>296</ele><time>2020-01-18T14:09:17Z</time><name>PT12416</name></trkpt>
<trkpt lat="52.854691" lon="-3.374844"><ele>297</ele><time>2020-01-18T14:09:18Z</time><name>PT12417</name></trkpt>
<trkpt lat="52.854684" lon="-3.374827"><ele>297</ele><time>2020-01-18T14:09:20Z</time><name>PT12418</name></trkpt>
<trkpt lat="52.854678" lon="-3.374814"><ele>297</ele><time>2020-01-18T14:09:20Z</time><name>PT12419</name></trkpt>
<trkpt lat="52.854673" lon="-3.374798"><ele>298</ele><time>2020-01-18T14:09:21Z</time><name>PT12420</name></trkpt>
<trkpt lat="52.854665" lon="-3.374782"><ele>298</ele><time>2020-01-18T14:09:23Z</time><name>PT12421</name></trkpt>
<trkpt lat="52.854660" lon="-3.374770"><ele>297</ele><time>2020-01-18T14:09:23Z</time><name>PT12422</name></trkpt>
<trkpt lat="52.854656" lon="-3.374758"><ele>297</ele><time>2020-01-18T14:09:24Z</time><name>PT12423</name></trkpt>
<trkpt lat="52.854648" lon="-3.374744"><ele>297</ele><time>2020-01-18T14:09:26Z</time><name>PT12424</name></trkpt>
<trkpt lat="52.854643" lon="-3.374728"><ele>297</ele><time>2020-01-18T14:09:26Z</time><name>PT12425</name></trkpt>
<trkpt lat="52.854640" lon="-3.374707"><ele>297</ele><time>2020-01-18T14:09:27Z</time><name>PT12426</name></trkpt>
<trkpt lat="52.854636" lon="-3.374692"><ele>296</ele><time>2020-01-18T14:09:29Z</time><name>PT12427</name></trkpt>
<trkpt lat="52.854632" lon="-3.374675"><ele>297</ele><time>2020-01-18T14:09:29Z</time><name>PT12428</name></trkpt>
<trkpt lat="52.854628" lon="-3.374660"><ele>297</ele><time>2020-01-18T14:09:30Z</time><name>PT12429</name></trkpt>
<trkpt lat="52.854624" lon="-3.374646"><ele>296</ele><time>2020-01-18T14:09:32Z</time><name>PT12430</name></trkpt>
<trkpt lat="52.854617" lon="-3.374629"><ele>296</ele><time>2020-01-18T14:09:32Z</time><name>PT12431</name></trkpt>
<trkpt lat="52.854613" lon="-3.374612"><ele>296</ele><time>2020-01-18T14:09:33Z</time><name>PT12432</name></trkpt>
<trkpt lat="52.854608" lon="-3.374602"><ele>296</ele><time>2020-01-18T14:09:35Z</time><name>PT12433</name></trkpt>
<trkpt lat="52.854604" lon="-3.374589"><ele>295</ele><time>2020-01-18T14:09:35Z</time><name>PT12434</name></trkpt>
<trkpt lat="52.854601" lon="-3.374575"><ele>295</ele><time>2020-01-18T14:09:36Z</time><name>PT12435</name></trkpt>
<trkpt lat="52.854600" lon="-3.374552"><ele>294</ele><time>2020-01-18T14:09:38Z</time><name>PT12436</name></trkpt>
<trkpt lat="52.854597" lon="-3.374537"><ele>294</ele><time>2020-01-18T14:09:38Z</time><name>PT12437</name></trkpt>
<trkpt lat="52.854593" lon="-3.374519"><ele>293</ele><time>2020-01-18T14:09:39Z</time><name>PT12438</name></trkpt>
<trkpt lat="52.854587" lon="-3.374500"><ele>292</ele><time>2020-01-18T14:09:41Z</time><name>PT12439</name></trkpt>
<trkpt lat="52.854582" lon="-3.374485"><ele>292</ele><time>2020-01-18T14:09:41Z</time><name>PT12440</name></trkpt>
<trkpt lat="52.854575" lon="-3.374465"><ele>292</ele><time>2020-01-18T14:09:42Z</time><name>PT12441</name></trkpt>
<trkpt lat="52.854568" lon="-3.374446"><ele>292</ele><time>2020-01-18T14:09:44Z</time><name>PT12442</name></trkpt>
<trkpt lat="52.854562" lon="-3.374428"><ele>292</ele><time>2020-01-18T14:09:44Z</time><name>PT12443</name></trkpt>
<trkpt lat="52.854557" lon="-3.374410"><ele>293</ele><time>2020-01-18T14:09:45Z</time><name>PT12444</name></trkpt>
<trkpt lat="52.854551" lon="-3.374394"><ele>292</ele><time>2020-01-18T14:09:47Z</time><name>PT12445</name></trkpt>
<trkpt lat="52.854544" lon="-3.374381"><ele>291</ele><time>2020-01-18T14:09:47Z</time><name>PT12446</name></trkpt>
<trkpt lat="52.854537" lon="-3.374361"><ele>291</ele><time>2020-01-18T14:09:48Z</time><name>PT12447</name></trkpt>
<trkpt lat="52.854529" lon="-3.374345"><ele>291</ele><time>2020-01-18T14:09:50Z</time><name>PT12448</name></trkpt>
<trkpt lat="52.854520" lon="-3.374331"><ele>291</ele><time>2020-01-18T14:09:50Z</time><name>PT12449</name></trkpt>
<trkpt lat="52.854514" lon="-3.374317"><ele>290</ele><time>2020-01-18T14:09:51Z</time><name>PT12450</name></trkpt>
<trkpt lat="52.854506" lon="-3.374301"><ele>290</ele><time>2020-01-18T14:09:53Z</time><name>PT12451</name></trkpt>
<trkpt lat="52.854499" lon="-3.374284"><ele>290</ele><time>2020-01-18T14:09:53Z</time><name>PT12452</name></trkpt>
<trkpt lat="52.854490" lon="-3.374268"><ele>291</ele><time>2020-01-18T14:09:54Z</time><name>PT12453</name></trkpt>
<trkpt lat="52.854480" lon="-3.374259"><ele>291</ele><time>2020-01-18T14:09:56Z</time><name>PT12454</name></trkpt>
<trkpt lat="52.854475" lon="-3.374247"><ele>291</ele><time>2020-01-18T14:09:56Z</time><name>PT12455</name></trkpt>
<trkpt lat="52.854465" lon="-3.374233"><ele>291</ele><time>2020-01-18T14:09:57Z</time><name>PT12456</name></trkpt>
<trkpt lat="52.854458" lon="-3.374222"><ele>290</ele><time>2020-01-18T14:09:59Z</time><name>PT12457</name></trkpt>
<trkpt lat="52.854447" lon="-3.374209"><ele>290</ele><time>2020-01-18T14:09:59Z</time><name>PT12458</name></trkpt>
<trkpt lat="52.854437" lon="-3.374201"><ele>290</ele><time>2020-01-18T14:10:00Z</time><name>PT12459</name></trkpt>
<trkpt lat="52.854429" lon="-3.374193"><ele>289</ele><time>2020-01-18T14:10:02Z</time><name>PT12460</name></trkpt>
<trkpt lat="52.854420" lon="-3.374183"><ele>289</ele><time>2020-01-18T14:10:02Z</time><name>PT12461</name></trkpt>
<trkpt lat="52.854411" lon="-3.374173"><ele>289</ele><time>2020-01-18T14:10:03Z</time><name>PT12462</name></trkpt>
<trkpt lat="52.854401" lon="-3.374164"><ele>289</ele><time>2020-01-18T14:10:05Z</time><name>PT12463</name></trkpt>
<trkpt lat="52.854392" lon="-3.374148"><ele>289</ele><time>2020-01-18T14:10:05Z</time><name>PT12464</name></trkpt>
<trkpt lat="52.854382" lon="-3.374133"><ele>290</ele><time>2020-01-18T14:10:06Z</time><name>PT12465</name></trkpt>
<trkpt lat="52.854374" lon="-3.374124"><ele>291</ele><time>2020-01-18T14:10:07Z</time><name>PT12466</name></trkpt>
<trkpt lat="52.854366" lon="-3.374107"><ele>292</ele><time>2020-01-18T14:10:08Z</time><name>PT12467</name></trkpt>
<trkpt lat="52.854354" lon="-3.374089"><ele>291</ele><time>2020-01-18T14:10:09Z</time><name>PT12468</name></trkpt>
<trkpt lat="52.854345" lon="-3.374072"><ele>291</ele><time>2020-01-18T14:10:11Z</time><name>PT12469</name></trkpt>
<trkpt lat="52.854337" lon="-3.374063"><ele>291</ele><time>2020-01-18T14:10:11Z</time><name>PT12470</name></trkpt>
<trkpt lat="52.854332" lon="-3.374059"><ele>291</ele><time>2020-01-18T14:10:12Z</time><name>PT12471</name></trkpt>
<trkpt lat="52.854325" lon="-3.374048"><ele>291</ele><time>2020-01-18T14:10:14Z</time><name>PT12472</name></trkpt>
<trkpt lat="52.854316" lon="-3.374034"><ele>291</ele><time>2020-01-18T14:10:14Z</time><name>PT12473</name></trkpt>
<trkpt lat="52.854309" lon="-3.374022"><ele>291</ele><time>2020-01-18T14:10:15Z</time><name>PT12474</name></trkpt>
<trkpt lat="52.854301" lon="-3.374011"><ele>291</ele><time>2020-01-18T14:10:17Z</time><name>PT12475</name></trkpt>
<trkpt lat="52.854294" lon="-3.374001"><ele>291</ele><time>2020-01-18T14:10:17Z</time><name>PT12476</name></trkpt>
<trkpt lat="52.854285" lon="-3.373979"><ele>293</ele><time>2020-01-18T14:10:18Z</time><name>PT12477</name></trkpt>
<trkpt lat="52.854277" lon="-3.373961"><ele>293</ele><time>2020-01-18T14:10:20Z</time><name>PT12478</name></trkpt>
<trkpt lat="52.854267" lon="-3.373939"><ele>294</ele><time>2020-01-18T14:10:20Z</time><name>PT12479</name></trkpt>
<trkpt lat="52.854259" lon="-3.373919"><ele>294</ele><time>2020-01-18T14:10:21Z</time><name>PT12480</name></trkpt>
<trkpt lat="52.854253" lon="-3.373904"><ele>294</ele><time>2020-01-18T14:10:23Z</time><name>PT12481</name></trkpt>
<trkpt lat="52.854248" lon="-3.373893"><ele>294</ele><time>2020-01-18T14:10:23Z</time><name>PT12482</name></trkpt>
<trkpt lat="52.854242" lon="-3.373887"><ele>294</ele><time>2020-01-18T14:10:24Z</time><name>PT12483</name></trkpt>
<trkpt lat="52.854233" lon="-3.373875"><ele>294</ele><time>2020-01-18T14:10:26Z</time><name>PT12484</name></trkpt>
<trkpt lat="52.854226" lon="-3.373859"><ele>295</ele><time>2020-01-18T14:10:26Z</time><name>PT12485</name></trkpt>
<trkpt lat="52.854216" lon="-3.373846"><ele>295</ele><time>2020-01-18T14:10:27Z</time><name>PT12486</name></trkpt>
<trkpt lat="52.854205" lon="-3.373834"><ele>294</ele><time>2020-01-18T14:10:29Z</time><name>PT12487</name></trkpt>
<trkpt lat="52.854197" lon="-3.373819"><ele>293</ele><time>2020-01-18T14:10:29Z</time><name>PT12488</name></trkpt>
<trkpt lat="52.854191" lon="-3.373805"><ele>294</ele><time>2020-01-18T14:10:30Z</time><name>PT12489</name></trkpt>
<trkpt lat="52.854181" lon="-3.373792"><ele>294</ele><time>2020-01-18T14:10:32Z</time><name>PT12490</name></trkpt>
<trkpt lat="52.854174" lon="-3.373785"><ele>293</ele><time>2020-01-18T14:10:32Z</time><name>PT12491</name></trkpt>
<trkpt lat="52.854166" lon="-3.373769"><ele>293</ele><time>2020-01-18T14:10:33Z</time><name>PT12492</name></trkpt>
<trkpt lat="52.854158" lon="-3.373756"><ele>293</ele><time>2020-01-18T14:10:35Z</time><name>PT12493</name></trkpt>
<trkpt lat="52.854151" lon="-3.373745"><ele>293</ele><time>2020-01-18T14:10:35Z</time><name>PT12494</name></trkpt>
<trkpt lat="52.854142" lon="-3.373734"><ele>293</ele><time>2020-01-18T14:10:36Z</time><name>PT12495</name></trkpt>
<trkpt lat="52.854132" lon="-3.373724"><ele>292</ele><time>2020-01-18T14:10:38Z</time><name>PT12496</name></trkpt>
<trkpt lat="52.854127" lon="-3.373716"><ele>292</ele><time>2020-01-18T14:10:38Z</time><name>PT12497</name></trkpt>
<trkpt lat="52.854121" lon="-3.373701"><ele>292</ele><time>2020-01-18T14:10:39Z</time><name>PT12498</name></trkpt>
<trkpt lat="52.854113" lon="-3.373682"><ele>291</ele><time>2020-01-18T14:10:41Z</time><name>PT12499</name></trkpt>
<trkpt lat="52.854107" lon="-3.373670"><ele>291</ele><time>2020-01-18T14:10:41Z</time><name>PT12500</name></trkpt>
<trkpt lat="52.854100" lon="-3.373659"><ele>290</ele><time>2020-01-18T14:10:42Z</time><name>PT12501</name></trkpt>
<trkpt lat="52.854092" lon="-3.373653"><ele>290</ele><time>2020-01-18T14:10:44Z</time><name>PT12502</name></trkpt>
<trkpt lat="52.854084" lon="-3.373644"><ele>289</ele><time>2020-01-18T14:10:44Z</time><name>PT12503</name></trkpt>
<trkpt lat="52.854076" lon="-3.373626"><ele>290</ele><time>2020-01-18T14:10:45Z</time><name>PT12504</name></trkpt>
<trkpt lat="52.854070" lon="-3.373617"><ele>289</ele><time>2020-01-18T14:10:47Z</time><name>PT12505</name></trkpt>
<trkpt lat="52.854063" lon="-3.373605"><ele>288</ele><time>2020-01-18T14:10:47Z</time><name>PT12506</name></trkpt>
<trkpt lat="52.854055" lon="-3.373595"><ele>288</ele><time>2020-01-18T14:10:48Z</time><name>PT12507</name></trkpt>
<trkpt lat="52.854045" lon="-3.373583"><ele>289</ele><time>2020-01-18T14:10:50Z</time><name>PT12508</name></trkpt>
<trkpt lat="52.854032" lon="-3.373572"><ele>289</ele><time>2020-01-18T14:10:50Z</time><name>PT12509</name></trkpt>
<trkpt lat="52.854026" lon="-3.373561"><ele>289</ele><time>2020-01-18T14:10:51Z</time><name>PT12510</name></trkpt>
<trkpt lat="52.854023" lon="-3.373556"><ele>288</ele><time>2020-01-18T14:10:53Z</time><name>PT12511</name></trkpt>
<trkpt lat="52.854020" lon="-3.373549"><ele>288</ele><time>2020-01-18T14:10:53Z</time><name>PT12512</name></trkpt>
<trkpt lat="52.854017" lon="-3.373547"><ele>287</ele><time>2020-01-18T14:10:54Z</time><name>PT12513</name></trkpt>
<trkpt lat="52.854010" lon="-3.373537"><ele>287</ele><time>2020-01-18T14:10:56Z</time><name>PT12514</name></trkpt>
<trkpt lat="52.854003" lon="-3.373520"><ele>288</ele><time>2020-01-18T14:10:56Z</time><name>PT12515</name></trkpt>
<trkpt lat="52.853995" lon="-3.373512"><ele>287</ele><time>2020-01-18T14:10:57Z</time><name>PT12516</name></trkpt>
<trkpt lat="52.853982" lon="-3.373498"><ele>288</ele><time>2020-01-18T14:10:59Z</time><name>PT12517</name></trkpt>
<trkpt lat="52.853972" lon="-3.373484"><ele>288</ele><time>2020-01-18T14:10:59Z</time><name>PT12518</name></trkpt>
<trkpt lat="52.853961" lon="-3.373464"><ele>289</ele><time>2020-01-18T14:11:00Z</time><name>PT12519</name></trkpt>
<trkpt lat="52.853953" lon="-3.373450"><ele>289</ele><time>2020-01-18T14:11:02Z</time><name>PT12520</name></trkpt>
<trkpt lat="52.853947" lon="-3.373440"><ele>289</ele><time>2020-01-18T14:11:02Z</time><name>PT12521</name></trkpt>
<trkpt lat="52.853937" lon="-3.373425"><ele>291</ele><time>2020-01-18T14:11:03Z</time><name>PT12522</name></trkpt>
<trkpt lat="52.853932" lon="-3.373419"><ele>290</ele><time>2020-01-18T14:11:05Z</time><name>PT12523</name></trkpt>
<trkpt lat="52.853926" lon="-3.373408"><ele>289</ele><time>2020-01-18T14:11:05Z</time><name>PT12524</name></trkpt>
<trkpt lat="52.853918" lon="-3.373393"><ele>290</ele><time>2020-01-18T14:11:06Z</time><name>PT12525</name></trkpt>
<trkpt lat="52.853910" lon="-3.373381"><ele>290</ele><time>2020-01-18T14:11:08Z</time><name>PT12526</name></trkpt>
<trkpt lat="52.853902" lon="-3.373370"><ele>291</ele><time>2020-01-18T14:11:08Z</time><name>PT12527</name></trkpt>
<trkpt lat="52.853897" lon="-3.373368"><ele>290</ele><time>2020-01-18T14:11:09Z</time><name>PT12528</name></trkpt>
<trkpt lat="52.853886" lon="-3.373361"><ele>291</ele><time>2020-01-18T14:11:11Z</time><name>PT12529</name></trkpt>
<trkpt lat="52.853885" lon="-3.373363"><ele>289</ele><time>2020-01-18T14:11:11Z</time><name>PT12530</name></trkpt>
<trkpt lat="52.853881" lon="-3.373357"><ele>287</ele><time>2020-01-18T14:11:12Z</time><name>PT12531</name></trkpt>
<trkpt lat="52.853885" lon="-3.373352"><ele>288</ele><time>2020-01-18T14:11:14Z</time><name>PT12532</name></trkpt>
<trkpt lat="52.853884" lon="-3.373355"><ele>287</ele><time>2020-01-18T14:11:14Z</time><name>PT12533</name></trkpt></trkseg></trk></gpx>